<?xml version="1.0" encoding="UTF-8"?>
<gpx version="1.1" creator="https://www.youtrack.es" xsi:schemaLocation="http://www.topografix.com/GPX/1/1 http://www.topografix.com/GPX/1/1/gpx.xsd http://www.garmin.com/xmlschemas/GpxExtensions/v3 http://www.garmin.com/xmlschemas/GpxExtensionsv3.xsd http://www.garmin.com/xmlschemas/TrackPointExtension/v1 http://www.garmin.com/xmlschemas/TrackPointExtensionv1.xsd" xmlns:gpxtpx="http://www.garmin.com/xmlschemas/TrackPointExtension/v1" xmlns:gpxx="http://www.garmin.com/xmlschemas/GpxExtensions/v3" xmlns:xsi="http://www.w3.org/2001/XMLSchema-instance">
  <metadata>
    <link href="https://www.youtrack.es">
      <text>YouTrack.es</text>
    </link>
    <time>2026-05-09T00:10:46Z</time>
  </metadata>
  <trk>
    <src>https://www.youtrack.es</src>
    <link href="https://www.youtrack.es/ruta/38234-penon-de-la-mata">
      <text>YouTrack.es</text>
    </link>
    <trkseg>
      <trkpt lat="37.275115" lon="-3.56793167">
        <ele>1102.0</ele>
        <time>2022-11-13T11:35:30.000Z</time>
      </trkpt>
      <trkpt lat="37.275115" lon="-3.56793167">
        <ele>1102.0</ele>
        <time>2022-11-13T11:35:31.000Z</time>
      </trkpt>
      <trkpt lat="37.27511667" lon="-3.567925">
        <ele>1102.0</ele>
        <time>2022-11-13T11:35:32.000Z</time>
      </trkpt>
      <trkpt lat="37.27511667" lon="-3.56791833">
        <ele>1102.0</ele>
        <time>2022-11-13T11:35:33.000Z</time>
      </trkpt>
      <trkpt lat="37.27512167" lon="-3.56791833">
        <ele>1102.0</ele>
        <time>2022-11-13T11:35:34.000Z</time>
      </trkpt>
      <trkpt lat="37.27512833" lon="-3.56792">
        <ele>1102.0</ele>
        <time>2022-11-13T11:35:35.000Z</time>
      </trkpt>
      <trkpt lat="37.27513333" lon="-3.56792333">
        <ele>1102.0</ele>
        <time>2022-11-13T11:35:36.000Z</time>
      </trkpt>
      <trkpt lat="37.27513833" lon="-3.567925">
        <ele>1102.0</ele>
        <time>2022-11-13T11:35:37.000Z</time>
      </trkpt>
      <trkpt lat="37.27514167" lon="-3.56792">
        <ele>1102.0</ele>
        <time>2022-11-13T11:35:38.000Z</time>
      </trkpt>
      <trkpt lat="37.27514333" lon="-3.56791">
        <ele>1102.0</ele>
        <time>2022-11-13T11:35:39.000Z</time>
      </trkpt>
      <trkpt lat="37.27514667" lon="-3.56789333">
        <ele>1102.0</ele>
        <time>2022-11-13T11:35:40.000Z</time>
      </trkpt>
      <trkpt lat="37.27514667" lon="-3.56788">
        <ele>1102.0</ele>
        <time>2022-11-13T11:35:41.000Z</time>
      </trkpt>
      <trkpt lat="37.27514167" lon="-3.56786333">
        <ele>1102.0</ele>
        <time>2022-11-13T11:35:42.000Z</time>
      </trkpt>
      <trkpt lat="37.27514167" lon="-3.56784833">
        <ele>1102.0</ele>
        <time>2022-11-13T11:35:43.000Z</time>
      </trkpt>
      <trkpt lat="37.275145" lon="-3.56783667">
        <ele>1102.0</ele>
        <time>2022-11-13T11:35:44.000Z</time>
      </trkpt>
      <trkpt lat="37.27514833" lon="-3.567825">
        <ele>1102.0</ele>
        <time>2022-11-13T11:35:45.000Z</time>
      </trkpt>
      <trkpt lat="37.27514833" lon="-3.56781333">
        <ele>1102.0</ele>
        <time>2022-11-13T11:35:46.000Z</time>
      </trkpt>
      <trkpt lat="37.275145" lon="-3.56780333">
        <ele>1102.0</ele>
        <time>2022-11-13T11:35:47.000Z</time>
      </trkpt>
      <trkpt lat="37.27513833" lon="-3.56779167">
        <ele>1102.0</ele>
        <time>2022-11-13T11:35:48.000Z</time>
      </trkpt>
      <trkpt lat="37.27513167" lon="-3.56778167">
        <ele>1102.0</ele>
        <time>2022-11-13T11:35:49.000Z</time>
      </trkpt>
      <trkpt lat="37.275125" lon="-3.56777167">
        <ele>1102.0</ele>
        <time>2022-11-13T11:35:50.000Z</time>
      </trkpt>
      <trkpt lat="37.27512" lon="-3.56776">
        <ele>1102.0</ele>
        <time>2022-11-13T11:35:51.000Z</time>
      </trkpt>
      <trkpt lat="37.275115" lon="-3.56774833">
        <ele>1102.0</ele>
        <time>2022-11-13T11:35:52.000Z</time>
      </trkpt>
      <trkpt lat="37.27511" lon="-3.56773667">
        <ele>1101.0</ele>
        <time>2022-11-13T11:35:53.000Z</time>
      </trkpt>
      <trkpt lat="37.27510667" lon="-3.56772667">
        <ele>1101.0</ele>
        <time>2022-11-13T11:35:54.000Z</time>
      </trkpt>
      <trkpt lat="37.2751" lon="-3.567715">
        <ele>1101.0</ele>
        <time>2022-11-13T11:35:55.000Z</time>
      </trkpt>
      <trkpt lat="37.27509333" lon="-3.56770333">
        <ele>1101.0</ele>
        <time>2022-11-13T11:35:56.000Z</time>
      </trkpt>
      <trkpt lat="37.275085" lon="-3.56769">
        <ele>1101.0</ele>
        <time>2022-11-13T11:35:57.000Z</time>
      </trkpt>
      <trkpt lat="37.27508" lon="-3.567675">
        <ele>1101.0</ele>
        <time>2022-11-13T11:35:58.000Z</time>
      </trkpt>
      <trkpt lat="37.27507667" lon="-3.56766">
        <ele>1101.0</ele>
        <time>2022-11-13T11:35:59.000Z</time>
      </trkpt>
      <trkpt lat="37.275075" lon="-3.567645">
        <ele>1101.0</ele>
        <time>2022-11-13T11:36:00.000Z</time>
      </trkpt>
      <trkpt lat="37.275075" lon="-3.56763">
        <ele>1101.0</ele>
        <time>2022-11-13T11:36:01.000Z</time>
      </trkpt>
      <trkpt lat="37.27507333" lon="-3.56761667">
        <ele>1101.0</ele>
        <time>2022-11-13T11:36:02.000Z</time>
      </trkpt>
      <trkpt lat="37.27507167" lon="-3.567605">
        <ele>1101.0</ele>
        <time>2022-11-13T11:36:03.000Z</time>
      </trkpt>
      <trkpt lat="37.27507" lon="-3.56759167">
        <ele>1101.0</ele>
        <time>2022-11-13T11:36:04.000Z</time>
      </trkpt>
      <trkpt lat="37.27507" lon="-3.56758">
        <ele>1101.0</ele>
        <time>2022-11-13T11:36:05.000Z</time>
      </trkpt>
      <trkpt lat="37.27506833" lon="-3.56756667">
        <ele>1101.0</ele>
        <time>2022-11-13T11:36:06.000Z</time>
      </trkpt>
      <trkpt lat="37.27506833" lon="-3.56755167">
        <ele>1101.0</ele>
        <time>2022-11-13T11:36:07.000Z</time>
      </trkpt>
      <trkpt lat="37.27507" lon="-3.56753667">
        <ele>1101.0</ele>
        <time>2022-11-13T11:36:08.000Z</time>
      </trkpt>
      <trkpt lat="37.275075" lon="-3.56752167">
        <ele>1101.0</ele>
        <time>2022-11-13T11:36:09.000Z</time>
      </trkpt>
      <trkpt lat="37.27507833" lon="-3.56750833">
        <ele>1101.0</ele>
        <time>2022-11-13T11:36:10.000Z</time>
      </trkpt>
      <trkpt lat="37.27508167" lon="-3.56749667">
        <ele>1101.0</ele>
        <time>2022-11-13T11:36:11.000Z</time>
      </trkpt>
      <trkpt lat="37.27508333" lon="-3.56748167">
        <ele>1101.0</ele>
        <time>2022-11-13T11:36:12.000Z</time>
      </trkpt>
      <trkpt lat="37.275085" lon="-3.56747">
        <ele>1101.0</ele>
        <time>2022-11-13T11:36:13.000Z</time>
      </trkpt>
      <trkpt lat="37.27508667" lon="-3.56745667">
        <ele>1101.0</ele>
        <time>2022-11-13T11:36:14.000Z</time>
      </trkpt>
      <trkpt lat="37.27508667" lon="-3.56744333">
        <ele>1100.0</ele>
        <time>2022-11-13T11:36:15.000Z</time>
      </trkpt>
      <trkpt lat="37.27508833" lon="-3.56742833">
        <ele>1100.0</ele>
        <time>2022-11-13T11:36:16.000Z</time>
      </trkpt>
      <trkpt lat="37.27508833" lon="-3.56741333">
        <ele>1100.0</ele>
        <time>2022-11-13T11:36:17.000Z</time>
      </trkpt>
      <trkpt lat="37.27509167" lon="-3.56739667">
        <ele>1100.0</ele>
        <time>2022-11-13T11:36:18.000Z</time>
      </trkpt>
      <trkpt lat="37.275095" lon="-3.56738167">
        <ele>1100.0</ele>
        <time>2022-11-13T11:36:19.000Z</time>
      </trkpt>
      <trkpt lat="37.27509833" lon="-3.56737">
        <ele>1100.0</ele>
        <time>2022-11-13T11:36:20.000Z</time>
      </trkpt>
      <trkpt lat="37.2751" lon="-3.56735667">
        <ele>1100.0</ele>
        <time>2022-11-13T11:36:21.000Z</time>
      </trkpt>
      <trkpt lat="37.27510333" lon="-3.56734667">
        <ele>1100.0</ele>
        <time>2022-11-13T11:36:22.000Z</time>
      </trkpt>
      <trkpt lat="37.27510833" lon="-3.567335">
        <ele>1100.0</ele>
        <time>2022-11-13T11:36:23.000Z</time>
      </trkpt>
      <trkpt lat="37.27511333" lon="-3.567325">
        <ele>1100.0</ele>
        <time>2022-11-13T11:36:24.000Z</time>
      </trkpt>
      <trkpt lat="37.27511833" lon="-3.56731333">
        <ele>1099.0</ele>
        <time>2022-11-13T11:36:25.000Z</time>
      </trkpt>
      <trkpt lat="37.27512333" lon="-3.56730167">
        <ele>1099.0</ele>
        <time>2022-11-13T11:36:26.000Z</time>
      </trkpt>
      <trkpt lat="37.27512667" lon="-3.56729">
        <ele>1099.0</ele>
        <time>2022-11-13T11:36:27.000Z</time>
      </trkpt>
      <trkpt lat="37.27513" lon="-3.56727833">
        <ele>1099.0</ele>
        <time>2022-11-13T11:36:28.000Z</time>
      </trkpt>
      <trkpt lat="37.275135" lon="-3.567265">
        <ele>1099.0</ele>
        <time>2022-11-13T11:36:29.000Z</time>
      </trkpt>
      <trkpt lat="37.27514333" lon="-3.56725167">
        <ele>1099.0</ele>
        <time>2022-11-13T11:36:30.000Z</time>
      </trkpt>
      <trkpt lat="37.27515167" lon="-3.56724667">
        <ele>1098.0</ele>
        <time>2022-11-13T11:36:31.000Z</time>
      </trkpt>
      <trkpt lat="37.27516167" lon="-3.56724167">
        <ele>1098.0</ele>
        <time>2022-11-13T11:36:32.000Z</time>
      </trkpt>
      <trkpt lat="37.27517" lon="-3.567235">
        <ele>1098.0</ele>
        <time>2022-11-13T11:36:33.000Z</time>
      </trkpt>
      <trkpt lat="37.27517833" lon="-3.56722667">
        <ele>1098.0</ele>
        <time>2022-11-13T11:36:34.000Z</time>
      </trkpt>
      <trkpt lat="37.27518667" lon="-3.56722167">
        <ele>1098.0</ele>
        <time>2022-11-13T11:36:35.000Z</time>
      </trkpt>
      <trkpt lat="37.27519333" lon="-3.567215">
        <ele>1097.0</ele>
        <time>2022-11-13T11:36:36.000Z</time>
      </trkpt>
      <trkpt lat="37.2752" lon="-3.567205">
        <ele>1097.0</ele>
        <time>2022-11-13T11:36:37.000Z</time>
      </trkpt>
      <trkpt lat="37.27520833" lon="-3.567195">
        <ele>1097.0</ele>
        <time>2022-11-13T11:36:38.000Z</time>
      </trkpt>
      <trkpt lat="37.275215" lon="-3.56719">
        <ele>1097.0</ele>
        <time>2022-11-13T11:36:39.000Z</time>
      </trkpt>
      <trkpt lat="37.27522333" lon="-3.56718667">
        <ele>1097.0</ele>
        <time>2022-11-13T11:36:40.000Z</time>
      </trkpt>
      <trkpt lat="37.27523" lon="-3.56718333">
        <ele>1097.0</ele>
        <time>2022-11-13T11:36:41.000Z</time>
      </trkpt>
      <trkpt lat="37.275235" lon="-3.56717833">
        <ele>1097.0</ele>
        <time>2022-11-13T11:36:42.000Z</time>
      </trkpt>
      <trkpt lat="37.27524" lon="-3.56717">
        <ele>1096.0</ele>
        <time>2022-11-13T11:36:43.000Z</time>
      </trkpt>
      <trkpt lat="37.275245" lon="-3.56715833">
        <ele>1096.0</ele>
        <time>2022-11-13T11:36:44.000Z</time>
      </trkpt>
      <trkpt lat="37.27525" lon="-3.56714667">
        <ele>1096.0</ele>
        <time>2022-11-13T11:36:45.000Z</time>
      </trkpt>
      <trkpt lat="37.27524833" lon="-3.56713667">
        <ele>1096.0</ele>
        <time>2022-11-13T11:36:46.000Z</time>
      </trkpt>
      <trkpt lat="37.27524" lon="-3.56712667">
        <ele>1096.0</ele>
        <time>2022-11-13T11:36:47.000Z</time>
      </trkpt>
      <trkpt lat="37.27523167" lon="-3.56712">
        <ele>1096.0</ele>
        <time>2022-11-13T11:36:48.000Z</time>
      </trkpt>
      <trkpt lat="37.27522333" lon="-3.56711333">
        <ele>1096.0</ele>
        <time>2022-11-13T11:36:49.000Z</time>
      </trkpt>
      <trkpt lat="37.275215" lon="-3.56710667">
        <ele>1095.0</ele>
        <time>2022-11-13T11:36:50.000Z</time>
      </trkpt>
      <trkpt lat="37.27520667" lon="-3.56709667">
        <ele>1095.0</ele>
        <time>2022-11-13T11:36:51.000Z</time>
      </trkpt>
      <trkpt lat="37.27520333" lon="-3.56708833">
        <ele>1095.0</ele>
        <time>2022-11-13T11:36:52.000Z</time>
      </trkpt>
      <trkpt lat="37.27520167" lon="-3.56707833">
        <ele>1095.0</ele>
        <time>2022-11-13T11:36:53.000Z</time>
      </trkpt>
      <trkpt lat="37.27520167" lon="-3.56706667">
        <ele>1095.0</ele>
        <time>2022-11-13T11:36:54.000Z</time>
      </trkpt>
      <trkpt lat="37.2752" lon="-3.56705333">
        <ele>1095.0</ele>
        <time>2022-11-13T11:36:55.000Z</time>
      </trkpt>
      <trkpt lat="37.27519833" lon="-3.56704">
        <ele>1094.0</ele>
        <time>2022-11-13T11:36:56.000Z</time>
      </trkpt>
      <trkpt lat="37.275195" lon="-3.56702833">
        <ele>1094.0</ele>
        <time>2022-11-13T11:36:57.000Z</time>
      </trkpt>
      <trkpt lat="37.27519333" lon="-3.567015">
        <ele>1094.0</ele>
        <time>2022-11-13T11:36:58.000Z</time>
      </trkpt>
      <trkpt lat="37.27519333" lon="-3.56700167">
        <ele>1094.0</ele>
        <time>2022-11-13T11:36:59.000Z</time>
      </trkpt>
      <trkpt lat="37.27519833" lon="-3.56699167">
        <ele>1094.0</ele>
        <time>2022-11-13T11:37:00.000Z</time>
      </trkpt>
      <trkpt lat="37.27520333" lon="-3.56697833">
        <ele>1093.0</ele>
        <time>2022-11-13T11:37:01.000Z</time>
      </trkpt>
      <trkpt lat="37.27520833" lon="-3.56696667">
        <ele>1093.0</ele>
        <time>2022-11-13T11:37:02.000Z</time>
      </trkpt>
      <trkpt lat="37.275215" lon="-3.566955">
        <ele>1093.0</ele>
        <time>2022-11-13T11:37:03.000Z</time>
      </trkpt>
      <trkpt lat="37.27522167" lon="-3.56694167">
        <ele>1093.0</ele>
        <time>2022-11-13T11:37:04.000Z</time>
      </trkpt>
      <trkpt lat="37.27522667" lon="-3.56693">
        <ele>1092.0</ele>
        <time>2022-11-13T11:37:05.000Z</time>
      </trkpt>
      <trkpt lat="37.27522833" lon="-3.56691833">
        <ele>1092.0</ele>
        <time>2022-11-13T11:37:06.000Z</time>
      </trkpt>
      <trkpt lat="37.27522833" lon="-3.566905">
        <ele>1092.0</ele>
        <time>2022-11-13T11:37:07.000Z</time>
      </trkpt>
      <trkpt lat="37.275225" lon="-3.56689333">
        <ele>1092.0</ele>
        <time>2022-11-13T11:37:08.000Z</time>
      </trkpt>
      <trkpt lat="37.27522" lon="-3.56688333">
        <ele>1092.0</ele>
        <time>2022-11-13T11:37:09.000Z</time>
      </trkpt>
      <trkpt lat="37.27521667" lon="-3.56687167">
        <ele>1092.0</ele>
        <time>2022-11-13T11:37:10.000Z</time>
      </trkpt>
      <trkpt lat="37.27521667" lon="-3.56686167">
        <ele>1091.0</ele>
        <time>2022-11-13T11:37:11.000Z</time>
      </trkpt>
      <trkpt lat="37.27521833" lon="-3.56685333">
        <ele>1091.0</ele>
        <time>2022-11-13T11:37:12.000Z</time>
      </trkpt>
      <trkpt lat="37.27521833" lon="-3.56684667">
        <ele>1091.0</ele>
        <time>2022-11-13T11:37:13.000Z</time>
      </trkpt>
      <trkpt lat="37.27521833" lon="-3.56683833">
        <ele>1091.0</ele>
        <time>2022-11-13T11:37:14.000Z</time>
      </trkpt>
      <trkpt lat="37.27522333" lon="-3.56683167">
        <ele>1091.0</ele>
        <time>2022-11-13T11:37:15.000Z</time>
      </trkpt>
      <trkpt lat="37.27523167" lon="-3.56683">
        <ele>1090.0</ele>
        <time>2022-11-13T11:37:16.000Z</time>
      </trkpt>
      <trkpt lat="37.27523667" lon="-3.56683167">
        <ele>1090.0</ele>
        <time>2022-11-13T11:37:17.000Z</time>
      </trkpt>
      <trkpt lat="37.27524" lon="-3.56683333">
        <ele>1090.0</ele>
        <time>2022-11-13T11:37:18.000Z</time>
      </trkpt>
      <trkpt lat="37.27524167" lon="-3.56683167">
        <ele>1090.0</ele>
        <time>2022-11-13T11:37:19.000Z</time>
      </trkpt>
      <trkpt lat="37.275245" lon="-3.56683333">
        <ele>1090.0</ele>
        <time>2022-11-13T11:37:20.000Z</time>
      </trkpt>
      <trkpt lat="37.27524833" lon="-3.56683">
        <ele>1089.0</ele>
        <time>2022-11-13T11:37:21.000Z</time>
      </trkpt>
      <trkpt lat="37.27525333" lon="-3.566825">
        <ele>1089.0</ele>
        <time>2022-11-13T11:37:22.000Z</time>
      </trkpt>
      <trkpt lat="37.27526" lon="-3.56681667">
        <ele>1089.0</ele>
        <time>2022-11-13T11:37:23.000Z</time>
      </trkpt>
      <trkpt lat="37.27526667" lon="-3.56680333">
        <ele>1089.0</ele>
        <time>2022-11-13T11:37:24.000Z</time>
      </trkpt>
      <trkpt lat="37.27527667" lon="-3.56679">
        <ele>1088.0</ele>
        <time>2022-11-13T11:37:25.000Z</time>
      </trkpt>
      <trkpt lat="37.27528667" lon="-3.56677833">
        <ele>1088.0</ele>
        <time>2022-11-13T11:37:26.000Z</time>
      </trkpt>
      <trkpt lat="37.275295" lon="-3.56676333">
        <ele>1088.0</ele>
        <time>2022-11-13T11:37:27.000Z</time>
      </trkpt>
      <trkpt lat="37.2753" lon="-3.56675167">
        <ele>1087.0</ele>
        <time>2022-11-13T11:37:28.000Z</time>
      </trkpt>
      <trkpt lat="37.275305" lon="-3.56674">
        <ele>1087.0</ele>
        <time>2022-11-13T11:37:29.000Z</time>
      </trkpt>
      <trkpt lat="37.27530833" lon="-3.56673">
        <ele>1087.0</ele>
        <time>2022-11-13T11:37:30.000Z</time>
      </trkpt>
      <trkpt lat="37.27531167" lon="-3.56672167">
        <ele>1087.0</ele>
        <time>2022-11-13T11:37:31.000Z</time>
      </trkpt>
      <trkpt lat="37.275315" lon="-3.56671833">
        <ele>1086.0</ele>
        <time>2022-11-13T11:37:32.000Z</time>
      </trkpt>
      <trkpt lat="37.275315" lon="-3.56671333">
        <ele>1086.0</ele>
        <time>2022-11-13T11:37:33.000Z</time>
      </trkpt>
      <trkpt lat="37.27531" lon="-3.56670667">
        <ele>1086.0</ele>
        <time>2022-11-13T11:37:34.000Z</time>
      </trkpt>
      <trkpt lat="37.27530333" lon="-3.56669667">
        <ele>1086.0</ele>
        <time>2022-11-13T11:37:35.000Z</time>
      </trkpt>
      <trkpt lat="37.2753" lon="-3.566685">
        <ele>1085.0</ele>
        <time>2022-11-13T11:37:36.000Z</time>
      </trkpt>
      <trkpt lat="37.2753" lon="-3.56667">
        <ele>1085.0</ele>
        <time>2022-11-13T11:37:37.000Z</time>
      </trkpt>
      <trkpt lat="37.2753" lon="-3.56665833">
        <ele>1085.0</ele>
        <time>2022-11-13T11:37:38.000Z</time>
      </trkpt>
      <trkpt lat="37.275295" lon="-3.56665167">
        <ele>1084.0</ele>
        <time>2022-11-13T11:37:39.000Z</time>
      </trkpt>
      <trkpt lat="37.275285" lon="-3.56665167">
        <ele>1084.0</ele>
        <time>2022-11-13T11:37:40.000Z</time>
      </trkpt>
      <trkpt lat="37.27527833" lon="-3.56664667">
        <ele>1084.0</ele>
        <time>2022-11-13T11:37:41.000Z</time>
      </trkpt>
      <trkpt lat="37.275275" lon="-3.56663833">
        <ele>1084.0</ele>
        <time>2022-11-13T11:37:42.000Z</time>
      </trkpt>
      <trkpt lat="37.27527167" lon="-3.56662833">
        <ele>1083.0</ele>
        <time>2022-11-13T11:37:43.000Z</time>
      </trkpt>
      <trkpt lat="37.27526833" lon="-3.566625">
        <ele>1083.0</ele>
        <time>2022-11-13T11:37:44.000Z</time>
      </trkpt>
      <trkpt lat="37.275265" lon="-3.56662333">
        <ele>1083.0</ele>
        <time>2022-11-13T11:37:45.000Z</time>
      </trkpt>
      <trkpt lat="37.27526" lon="-3.566625">
        <ele>1082.0</ele>
        <time>2022-11-13T11:37:46.000Z</time>
      </trkpt>
      <trkpt lat="37.27525333" lon="-3.56662667">
        <ele>1082.0</ele>
        <time>2022-11-13T11:37:47.000Z</time>
      </trkpt>
      <trkpt lat="37.27524667" lon="-3.56662833">
        <ele>1081.0</ele>
        <time>2022-11-13T11:37:48.000Z</time>
      </trkpt>
      <trkpt lat="37.27524" lon="-3.56663333">
        <ele>1081.0</ele>
        <time>2022-11-13T11:37:49.000Z</time>
      </trkpt>
      <trkpt lat="37.275235" lon="-3.56664333">
        <ele>1081.0</ele>
        <time>2022-11-13T11:37:50.000Z</time>
      </trkpt>
      <trkpt lat="37.27522667" lon="-3.56665167">
        <ele>1080.0</ele>
        <time>2022-11-13T11:37:51.000Z</time>
      </trkpt>
      <trkpt lat="37.27521833" lon="-3.566655">
        <ele>1080.0</ele>
        <time>2022-11-13T11:37:52.000Z</time>
      </trkpt>
      <trkpt lat="37.27521" lon="-3.566655">
        <ele>1080.0</ele>
        <time>2022-11-13T11:37:53.000Z</time>
      </trkpt>
      <trkpt lat="37.2752" lon="-3.56665167">
        <ele>1079.0</ele>
        <time>2022-11-13T11:37:54.000Z</time>
      </trkpt>
      <trkpt lat="37.275195" lon="-3.56664833">
        <ele>1079.0</ele>
        <time>2022-11-13T11:37:55.000Z</time>
      </trkpt>
      <trkpt lat="37.275195" lon="-3.56665">
        <ele>1079.0</ele>
        <time>2022-11-13T11:37:56.000Z</time>
      </trkpt>
      <trkpt lat="37.275195" lon="-3.56665167">
        <ele>1079.0</ele>
        <time>2022-11-13T11:37:57.000Z</time>
      </trkpt>
      <trkpt lat="37.27519333" lon="-3.56665667">
        <ele>1079.0</ele>
        <time>2022-11-13T11:37:58.000Z</time>
      </trkpt>
      <trkpt lat="37.27518833" lon="-3.56666333">
        <ele>1078.0</ele>
        <time>2022-11-13T11:37:59.000Z</time>
      </trkpt>
      <trkpt lat="37.27518333" lon="-3.56666333">
        <ele>1078.0</ele>
        <time>2022-11-13T11:38:00.000Z</time>
      </trkpt>
      <trkpt lat="37.27517667" lon="-3.56666167">
        <ele>1078.0</ele>
        <time>2022-11-13T11:38:01.000Z</time>
      </trkpt>
      <trkpt lat="37.27517167" lon="-3.56666">
        <ele>1078.0</ele>
        <time>2022-11-13T11:38:02.000Z</time>
      </trkpt>
      <trkpt lat="37.27516667" lon="-3.56665333">
        <ele>1078.0</ele>
        <time>2022-11-13T11:38:03.000Z</time>
      </trkpt>
      <trkpt lat="37.27516167" lon="-3.56664167">
        <ele>1077.0</ele>
        <time>2022-11-13T11:38:04.000Z</time>
      </trkpt>
      <trkpt lat="37.27516167" lon="-3.566625">
        <ele>1077.0</ele>
        <time>2022-11-13T11:38:05.000Z</time>
      </trkpt>
      <trkpt lat="37.27516333" lon="-3.56660833">
        <ele>1077.0</ele>
        <time>2022-11-13T11:38:06.000Z</time>
      </trkpt>
      <trkpt lat="37.27516667" lon="-3.56659833">
        <ele>1077.0</ele>
        <time>2022-11-13T11:38:07.000Z</time>
      </trkpt>
      <trkpt lat="37.27516833" lon="-3.56659">
        <ele>1076.0</ele>
        <time>2022-11-13T11:38:08.000Z</time>
      </trkpt>
      <trkpt lat="37.27516667" lon="-3.56658333">
        <ele>1076.0</ele>
        <time>2022-11-13T11:38:09.000Z</time>
      </trkpt>
      <trkpt lat="37.27516333" lon="-3.566575">
        <ele>1076.0</ele>
        <time>2022-11-13T11:38:10.000Z</time>
      </trkpt>
      <trkpt lat="37.275165" lon="-3.56656167">
        <ele>1075.0</ele>
        <time>2022-11-13T11:38:11.000Z</time>
      </trkpt>
      <trkpt lat="37.27517333" lon="-3.56654833">
        <ele>1075.0</ele>
        <time>2022-11-13T11:38:12.000Z</time>
      </trkpt>
      <trkpt lat="37.27518333" lon="-3.56653667">
        <ele>1075.0</ele>
        <time>2022-11-13T11:38:13.000Z</time>
      </trkpt>
      <trkpt lat="37.27519167" lon="-3.56652667">
        <ele>1074.0</ele>
        <time>2022-11-13T11:38:14.000Z</time>
      </trkpt>
      <trkpt lat="37.27519833" lon="-3.56651667">
        <ele>1074.0</ele>
        <time>2022-11-13T11:38:15.000Z</time>
      </trkpt>
      <trkpt lat="37.275205" lon="-3.56650667">
        <ele>1074.0</ele>
        <time>2022-11-13T11:38:16.000Z</time>
      </trkpt>
      <trkpt lat="37.27521" lon="-3.56649667">
        <ele>1073.0</ele>
        <time>2022-11-13T11:38:17.000Z</time>
      </trkpt>
      <trkpt lat="37.27521" lon="-3.566485">
        <ele>1073.0</ele>
        <time>2022-11-13T11:38:18.000Z</time>
      </trkpt>
      <trkpt lat="37.27521333" lon="-3.56647333">
        <ele>1073.0</ele>
        <time>2022-11-13T11:38:19.000Z</time>
      </trkpt>
      <trkpt lat="37.275215" lon="-3.566465">
        <ele>1073.0</ele>
        <time>2022-11-13T11:38:20.000Z</time>
      </trkpt>
      <trkpt lat="37.27521333" lon="-3.56646">
        <ele>1072.0</ele>
        <time>2022-11-13T11:38:21.000Z</time>
      </trkpt>
      <trkpt lat="37.27521" lon="-3.56646">
        <ele>1072.0</ele>
        <time>2022-11-13T11:38:22.000Z</time>
      </trkpt>
      <trkpt lat="37.275205" lon="-3.56646167">
        <ele>1072.0</ele>
        <time>2022-11-13T11:38:23.000Z</time>
      </trkpt>
      <trkpt lat="37.27519833" lon="-3.56646833">
        <ele>1072.0</ele>
        <time>2022-11-13T11:38:24.000Z</time>
      </trkpt>
      <trkpt lat="37.27519167" lon="-3.56647167">
        <ele>1072.0</ele>
        <time>2022-11-13T11:38:25.000Z</time>
      </trkpt>
      <trkpt lat="37.27518333" lon="-3.56647833">
        <ele>1071.0</ele>
        <time>2022-11-13T11:38:26.000Z</time>
      </trkpt>
      <trkpt lat="37.275175" lon="-3.566485">
        <ele>1071.0</ele>
        <time>2022-11-13T11:38:27.000Z</time>
      </trkpt>
      <trkpt lat="37.27516667" lon="-3.56649">
        <ele>1071.0</ele>
        <time>2022-11-13T11:38:28.000Z</time>
      </trkpt>
      <trkpt lat="37.27516" lon="-3.56649167">
        <ele>1071.0</ele>
        <time>2022-11-13T11:38:29.000Z</time>
      </trkpt>
      <trkpt lat="37.27515167" lon="-3.56649667">
        <ele>1071.0</ele>
        <time>2022-11-13T11:38:30.000Z</time>
      </trkpt>
      <trkpt lat="37.27514833" lon="-3.5665">
        <ele>1071.0</ele>
        <time>2022-11-13T11:38:31.000Z</time>
      </trkpt>
      <trkpt lat="37.27514167" lon="-3.56650167">
        <ele>1070.0</ele>
        <time>2022-11-13T11:38:32.000Z</time>
      </trkpt>
      <trkpt lat="37.27513167" lon="-3.56650667">
        <ele>1070.0</ele>
        <time>2022-11-13T11:38:33.000Z</time>
      </trkpt>
      <trkpt lat="37.27512167" lon="-3.56650667">
        <ele>1070.0</ele>
        <time>2022-11-13T11:38:34.000Z</time>
      </trkpt>
      <trkpt lat="37.27511" lon="-3.56650833">
        <ele>1070.0</ele>
        <time>2022-11-13T11:38:35.000Z</time>
      </trkpt>
      <trkpt lat="37.2751" lon="-3.56651">
        <ele>1069.0</ele>
        <time>2022-11-13T11:38:36.000Z</time>
      </trkpt>
      <trkpt lat="37.27508667" lon="-3.56651333">
        <ele>1069.0</ele>
        <time>2022-11-13T11:38:37.000Z</time>
      </trkpt>
      <trkpt lat="37.275075" lon="-3.56652167">
        <ele>1069.0</ele>
        <time>2022-11-13T11:38:38.000Z</time>
      </trkpt>
      <trkpt lat="37.27506667" lon="-3.56653167">
        <ele>1068.0</ele>
        <time>2022-11-13T11:38:39.000Z</time>
      </trkpt>
      <trkpt lat="37.27506" lon="-3.56654333">
        <ele>1068.0</ele>
        <time>2022-11-13T11:38:40.000Z</time>
      </trkpt>
      <trkpt lat="37.275055" lon="-3.566555">
        <ele>1068.0</ele>
        <time>2022-11-13T11:38:41.000Z</time>
      </trkpt>
      <trkpt lat="37.27505167" lon="-3.56656667">
        <ele>1068.0</ele>
        <time>2022-11-13T11:38:42.000Z</time>
      </trkpt>
      <trkpt lat="37.275045" lon="-3.56657833">
        <ele>1067.0</ele>
        <time>2022-11-13T11:38:43.000Z</time>
      </trkpt>
      <trkpt lat="37.27503833" lon="-3.56659167">
        <ele>1067.0</ele>
        <time>2022-11-13T11:38:44.000Z</time>
      </trkpt>
      <trkpt lat="37.27503333" lon="-3.566605">
        <ele>1067.0</ele>
        <time>2022-11-13T11:38:45.000Z</time>
      </trkpt>
      <trkpt lat="37.27502667" lon="-3.56661667">
        <ele>1066.0</ele>
        <time>2022-11-13T11:38:46.000Z</time>
      </trkpt>
      <trkpt lat="37.275015" lon="-3.566625">
        <ele>1066.0</ele>
        <time>2022-11-13T11:38:47.000Z</time>
      </trkpt>
      <trkpt lat="37.275005" lon="-3.56662833">
        <ele>1066.0</ele>
        <time>2022-11-13T11:38:48.000Z</time>
      </trkpt>
      <trkpt lat="37.27499667" lon="-3.56663167">
        <ele>1066.0</ele>
        <time>2022-11-13T11:38:49.000Z</time>
      </trkpt>
      <trkpt lat="37.27499167" lon="-3.56663833">
        <ele>1066.0</ele>
        <time>2022-11-13T11:38:50.000Z</time>
      </trkpt>
      <trkpt lat="37.27498833" lon="-3.56664833">
        <ele>1065.0</ele>
        <time>2022-11-13T11:38:51.000Z</time>
      </trkpt>
      <trkpt lat="37.27498333" lon="-3.56665667">
        <ele>1065.0</ele>
        <time>2022-11-13T11:38:52.000Z</time>
      </trkpt>
      <trkpt lat="37.274975" lon="-3.56666">
        <ele>1064.0</ele>
        <time>2022-11-13T11:38:53.000Z</time>
      </trkpt>
      <trkpt lat="37.27496333" lon="-3.56666167">
        <ele>1064.0</ele>
        <time>2022-11-13T11:38:54.000Z</time>
      </trkpt>
      <trkpt lat="37.27495" lon="-3.56665667">
        <ele>1064.0</ele>
        <time>2022-11-13T11:38:55.000Z</time>
      </trkpt>
      <trkpt lat="37.27493833" lon="-3.56664667">
        <ele>1064.0</ele>
        <time>2022-11-13T11:38:56.000Z</time>
      </trkpt>
      <trkpt lat="37.27493167" lon="-3.56663167">
        <ele>1063.0</ele>
        <time>2022-11-13T11:38:57.000Z</time>
      </trkpt>
      <trkpt lat="37.27493" lon="-3.56661333">
        <ele>1063.0</ele>
        <time>2022-11-13T11:38:58.000Z</time>
      </trkpt>
      <trkpt lat="37.27493167" lon="-3.56659667">
        <ele>1063.0</ele>
        <time>2022-11-13T11:38:59.000Z</time>
      </trkpt>
      <trkpt lat="37.274935" lon="-3.56658">
        <ele>1062.0</ele>
        <time>2022-11-13T11:39:00.000Z</time>
      </trkpt>
      <trkpt lat="37.27493833" lon="-3.56656333">
        <ele>1062.0</ele>
        <time>2022-11-13T11:39:01.000Z</time>
      </trkpt>
      <trkpt lat="37.27494" lon="-3.56654667">
        <ele>1062.0</ele>
        <time>2022-11-13T11:39:02.000Z</time>
      </trkpt>
      <trkpt lat="37.27494333" lon="-3.56653">
        <ele>1061.0</ele>
        <time>2022-11-13T11:39:03.000Z</time>
      </trkpt>
      <trkpt lat="37.27494833" lon="-3.56651333">
        <ele>1061.0</ele>
        <time>2022-11-13T11:39:04.000Z</time>
      </trkpt>
      <trkpt lat="37.27495167" lon="-3.56649667">
        <ele>1061.0</ele>
        <time>2022-11-13T11:39:05.000Z</time>
      </trkpt>
      <trkpt lat="37.27495333" lon="-3.566485">
        <ele>1061.0</ele>
        <time>2022-11-13T11:39:06.000Z</time>
      </trkpt>
      <trkpt lat="37.274955" lon="-3.56647333">
        <ele>1060.0</ele>
        <time>2022-11-13T11:39:07.000Z</time>
      </trkpt>
      <trkpt lat="37.27495833" lon="-3.56645833">
        <ele>1060.0</ele>
        <time>2022-11-13T11:39:08.000Z</time>
      </trkpt>
      <trkpt lat="37.27495833" lon="-3.56643833">
        <ele>1059.0</ele>
        <time>2022-11-13T11:39:09.000Z</time>
      </trkpt>
      <trkpt lat="37.274955" lon="-3.56641833">
        <ele>1059.0</ele>
        <time>2022-11-13T11:39:10.000Z</time>
      </trkpt>
      <trkpt lat="37.274945" lon="-3.56641333">
        <ele>1059.0</ele>
        <time>2022-11-13T11:39:11.000Z</time>
      </trkpt>
      <trkpt lat="37.274935" lon="-3.566415">
        <ele>1059.0</ele>
        <time>2022-11-13T11:39:12.000Z</time>
      </trkpt>
      <trkpt lat="37.27492667" lon="-3.56642167">
        <ele>1058.0</ele>
        <time>2022-11-13T11:39:13.000Z</time>
      </trkpt>
      <trkpt lat="37.27491833" lon="-3.56642833">
        <ele>1058.0</ele>
        <time>2022-11-13T11:39:14.000Z</time>
      </trkpt>
      <trkpt lat="37.27491333" lon="-3.566435">
        <ele>1058.0</ele>
        <time>2022-11-13T11:39:15.000Z</time>
      </trkpt>
      <trkpt lat="37.27491" lon="-3.56644333">
        <ele>1058.0</ele>
        <time>2022-11-13T11:39:16.000Z</time>
      </trkpt>
      <trkpt lat="37.27490833" lon="-3.56645333">
        <ele>1058.0</ele>
        <time>2022-11-13T11:39:17.000Z</time>
      </trkpt>
      <trkpt lat="37.274905" lon="-3.566465">
        <ele>1058.0</ele>
        <time>2022-11-13T11:39:18.000Z</time>
      </trkpt>
      <trkpt lat="37.27490167" lon="-3.56648">
        <ele>1058.0</ele>
        <time>2022-11-13T11:39:19.000Z</time>
      </trkpt>
      <trkpt lat="37.2749" lon="-3.566495">
        <ele>1057.0</ele>
        <time>2022-11-13T11:39:20.000Z</time>
      </trkpt>
      <trkpt lat="37.27489833" lon="-3.56651">
        <ele>1057.0</ele>
        <time>2022-11-13T11:39:21.000Z</time>
      </trkpt>
      <trkpt lat="37.27489667" lon="-3.566525">
        <ele>1057.0</ele>
        <time>2022-11-13T11:39:22.000Z</time>
      </trkpt>
      <trkpt lat="37.274895" lon="-3.56654">
        <ele>1057.0</ele>
        <time>2022-11-13T11:39:23.000Z</time>
      </trkpt>
      <trkpt lat="37.27489333" lon="-3.56655667">
        <ele>1057.0</ele>
        <time>2022-11-13T11:39:24.000Z</time>
      </trkpt>
      <trkpt lat="37.27489167" lon="-3.56657167">
        <ele>1057.0</ele>
        <time>2022-11-13T11:39:25.000Z</time>
      </trkpt>
      <trkpt lat="37.27488833" lon="-3.56658833">
        <ele>1057.0</ele>
        <time>2022-11-13T11:39:26.000Z</time>
      </trkpt>
      <trkpt lat="37.274885" lon="-3.56660167">
        <ele>1056.0</ele>
        <time>2022-11-13T11:39:27.000Z</time>
      </trkpt>
      <trkpt lat="37.27488167" lon="-3.56661667">
        <ele>1056.0</ele>
        <time>2022-11-13T11:39:28.000Z</time>
      </trkpt>
      <trkpt lat="37.27487667" lon="-3.56663167">
        <ele>1056.0</ele>
        <time>2022-11-13T11:39:29.000Z</time>
      </trkpt>
      <trkpt lat="37.27487333" lon="-3.56664833">
        <ele>1056.0</ele>
        <time>2022-11-13T11:39:30.000Z</time>
      </trkpt>
      <trkpt lat="37.27486833" lon="-3.56666333">
        <ele>1056.0</ele>
        <time>2022-11-13T11:39:31.000Z</time>
      </trkpt>
      <trkpt lat="37.274865" lon="-3.566675">
        <ele>1056.0</ele>
        <time>2022-11-13T11:39:32.000Z</time>
      </trkpt>
      <trkpt lat="37.27486167" lon="-3.56668333">
        <ele>1056.0</ele>
        <time>2022-11-13T11:39:33.000Z</time>
      </trkpt>
      <trkpt lat="37.27486" lon="-3.56669333">
        <ele>1056.0</ele>
        <time>2022-11-13T11:39:34.000Z</time>
      </trkpt>
      <trkpt lat="37.27485833" lon="-3.566705">
        <ele>1056.0</ele>
        <time>2022-11-13T11:39:35.000Z</time>
      </trkpt>
      <trkpt lat="37.274855" lon="-3.56672">
        <ele>1056.0</ele>
        <time>2022-11-13T11:39:36.000Z</time>
      </trkpt>
      <trkpt lat="37.27485167" lon="-3.566735">
        <ele>1055.0</ele>
        <time>2022-11-13T11:39:37.000Z</time>
      </trkpt>
      <trkpt lat="37.27484833" lon="-3.56675">
        <ele>1055.0</ele>
        <time>2022-11-13T11:39:38.000Z</time>
      </trkpt>
      <trkpt lat="37.27484667" lon="-3.566765">
        <ele>1055.0</ele>
        <time>2022-11-13T11:39:39.000Z</time>
      </trkpt>
      <trkpt lat="37.27484167" lon="-3.56678">
        <ele>1055.0</ele>
        <time>2022-11-13T11:39:40.000Z</time>
      </trkpt>
      <trkpt lat="37.27483833" lon="-3.56679333">
        <ele>1055.0</ele>
        <time>2022-11-13T11:39:41.000Z</time>
      </trkpt>
      <trkpt lat="37.27483333" lon="-3.56680833">
        <ele>1055.0</ele>
        <time>2022-11-13T11:39:42.000Z</time>
      </trkpt>
      <trkpt lat="37.27482833" lon="-3.56682333">
        <ele>1055.0</ele>
        <time>2022-11-13T11:39:43.000Z</time>
      </trkpt>
      <trkpt lat="37.274825" lon="-3.56683833">
        <ele>1055.0</ele>
        <time>2022-11-13T11:39:44.000Z</time>
      </trkpt>
      <trkpt lat="37.27482167" lon="-3.566855">
        <ele>1055.0</ele>
        <time>2022-11-13T11:39:45.000Z</time>
      </trkpt>
      <trkpt lat="37.27481833" lon="-3.56687">
        <ele>1055.0</ele>
        <time>2022-11-13T11:39:46.000Z</time>
      </trkpt>
      <trkpt lat="37.27481333" lon="-3.566885">
        <ele>1054.0</ele>
        <time>2022-11-13T11:39:47.000Z</time>
      </trkpt>
      <trkpt lat="37.27481" lon="-3.56689667">
        <ele>1054.0</ele>
        <time>2022-11-13T11:39:48.000Z</time>
      </trkpt>
      <trkpt lat="37.274805" lon="-3.56690833">
        <ele>1054.0</ele>
        <time>2022-11-13T11:39:49.000Z</time>
      </trkpt>
      <trkpt lat="37.27479833" lon="-3.56692">
        <ele>1054.0</ele>
        <time>2022-11-13T11:39:50.000Z</time>
      </trkpt>
      <trkpt lat="37.274795" lon="-3.56693333">
        <ele>1054.0</ele>
        <time>2022-11-13T11:39:51.000Z</time>
      </trkpt>
      <trkpt lat="37.27479167" lon="-3.56694833">
        <ele>1054.0</ele>
        <time>2022-11-13T11:39:52.000Z</time>
      </trkpt>
      <trkpt lat="37.27478833" lon="-3.56696333">
        <ele>1053.0</ele>
        <time>2022-11-13T11:39:53.000Z</time>
      </trkpt>
      <trkpt lat="37.274785" lon="-3.56697833">
        <ele>1053.0</ele>
        <time>2022-11-13T11:39:54.000Z</time>
      </trkpt>
      <trkpt lat="37.27478333" lon="-3.56699">
        <ele>1053.0</ele>
        <time>2022-11-13T11:39:55.000Z</time>
      </trkpt>
      <trkpt lat="37.27478333" lon="-3.56700333">
        <ele>1053.0</ele>
        <time>2022-11-13T11:39:56.000Z</time>
      </trkpt>
      <trkpt lat="37.27478" lon="-3.567015">
        <ele>1053.0</ele>
        <time>2022-11-13T11:39:57.000Z</time>
      </trkpt>
      <trkpt lat="37.27477667" lon="-3.56702833">
        <ele>1053.0</ele>
        <time>2022-11-13T11:39:58.000Z</time>
      </trkpt>
      <trkpt lat="37.274775" lon="-3.56704333">
        <ele>1053.0</ele>
        <time>2022-11-13T11:39:59.000Z</time>
      </trkpt>
      <trkpt lat="37.27477167" lon="-3.56705833">
        <ele>1052.0</ele>
        <time>2022-11-13T11:40:00.000Z</time>
      </trkpt>
      <trkpt lat="37.27476833" lon="-3.56707167">
        <ele>1052.0</ele>
        <time>2022-11-13T11:40:01.000Z</time>
      </trkpt>
      <trkpt lat="37.27476667" lon="-3.56708667">
        <ele>1052.0</ele>
        <time>2022-11-13T11:40:02.000Z</time>
      </trkpt>
      <trkpt lat="37.27476167" lon="-3.5671">
        <ele>1052.0</ele>
        <time>2022-11-13T11:40:03.000Z</time>
      </trkpt>
      <trkpt lat="37.27475833" lon="-3.56711167">
        <ele>1052.0</ele>
        <time>2022-11-13T11:40:04.000Z</time>
      </trkpt>
      <trkpt lat="37.274755" lon="-3.56712333">
        <ele>1052.0</ele>
        <time>2022-11-13T11:40:05.000Z</time>
      </trkpt>
      <trkpt lat="37.27475333" lon="-3.567135">
        <ele>1052.0</ele>
        <time>2022-11-13T11:40:06.000Z</time>
      </trkpt>
      <trkpt lat="37.27475167" lon="-3.56715167">
        <ele>1052.0</ele>
        <time>2022-11-13T11:40:07.000Z</time>
      </trkpt>
      <trkpt lat="37.27475" lon="-3.567165">
        <ele>1052.0</ele>
        <time>2022-11-13T11:40:08.000Z</time>
      </trkpt>
      <trkpt lat="37.27474833" lon="-3.567175">
        <ele>1052.0</ele>
        <time>2022-11-13T11:40:09.000Z</time>
      </trkpt>
      <trkpt lat="37.274745" lon="-3.56718667">
        <ele>1052.0</ele>
        <time>2022-11-13T11:40:10.000Z</time>
      </trkpt>
      <trkpt lat="37.27474" lon="-3.56719667">
        <ele>1052.0</ele>
        <time>2022-11-13T11:40:11.000Z</time>
      </trkpt>
      <trkpt lat="37.274735" lon="-3.56720833">
        <ele>1052.0</ele>
        <time>2022-11-13T11:40:12.000Z</time>
      </trkpt>
      <trkpt lat="37.27473" lon="-3.56722167">
        <ele>1052.0</ele>
        <time>2022-11-13T11:40:13.000Z</time>
      </trkpt>
      <trkpt lat="37.27472833" lon="-3.56724">
        <ele>1051.0</ele>
        <time>2022-11-13T11:40:14.000Z</time>
      </trkpt>
      <trkpt lat="37.27472667" lon="-3.56725667">
        <ele>1051.0</ele>
        <time>2022-11-13T11:40:15.000Z</time>
      </trkpt>
      <trkpt lat="37.274725" lon="-3.56727333">
        <ele>1051.0</ele>
        <time>2022-11-13T11:40:16.000Z</time>
      </trkpt>
      <trkpt lat="37.27472167" lon="-3.56729">
        <ele>1051.0</ele>
        <time>2022-11-13T11:40:17.000Z</time>
      </trkpt>
      <trkpt lat="37.27472" lon="-3.56730667">
        <ele>1051.0</ele>
        <time>2022-11-13T11:40:18.000Z</time>
      </trkpt>
      <trkpt lat="37.27471667" lon="-3.56732167">
        <ele>1051.0</ele>
        <time>2022-11-13T11:40:19.000Z</time>
      </trkpt>
      <trkpt lat="37.27471333" lon="-3.56733833">
        <ele>1051.0</ele>
        <time>2022-11-13T11:40:20.000Z</time>
      </trkpt>
      <trkpt lat="37.27470833" lon="-3.567355">
        <ele>1051.0</ele>
        <time>2022-11-13T11:40:21.000Z</time>
      </trkpt>
      <trkpt lat="37.27470333" lon="-3.56737">
        <ele>1051.0</ele>
        <time>2022-11-13T11:40:22.000Z</time>
      </trkpt>
      <trkpt lat="37.2747" lon="-3.567385">
        <ele>1050.0</ele>
        <time>2022-11-13T11:40:23.000Z</time>
      </trkpt>
      <trkpt lat="37.27469667" lon="-3.5674">
        <ele>1050.0</ele>
        <time>2022-11-13T11:40:24.000Z</time>
      </trkpt>
      <trkpt lat="37.27469333" lon="-3.56741833">
        <ele>1050.0</ele>
        <time>2022-11-13T11:40:25.000Z</time>
      </trkpt>
      <trkpt lat="37.27469" lon="-3.567435">
        <ele>1050.0</ele>
        <time>2022-11-13T11:40:26.000Z</time>
      </trkpt>
      <trkpt lat="37.27468833" lon="-3.56744833">
        <ele>1050.0</ele>
        <time>2022-11-13T11:40:27.000Z</time>
      </trkpt>
      <trkpt lat="37.274685" lon="-3.56746">
        <ele>1050.0</ele>
        <time>2022-11-13T11:40:28.000Z</time>
      </trkpt>
      <trkpt lat="37.27468167" lon="-3.56747167">
        <ele>1050.0</ele>
        <time>2022-11-13T11:40:29.000Z</time>
      </trkpt>
      <trkpt lat="37.27467833" lon="-3.567485">
        <ele>1049.0</ele>
        <time>2022-11-13T11:40:30.000Z</time>
      </trkpt>
      <trkpt lat="37.27467833" lon="-3.5675">
        <ele>1049.0</ele>
        <time>2022-11-13T11:40:31.000Z</time>
      </trkpt>
      <trkpt lat="37.27467667" lon="-3.567515">
        <ele>1049.0</ele>
        <time>2022-11-13T11:40:32.000Z</time>
      </trkpt>
      <trkpt lat="37.27467333" lon="-3.56753">
        <ele>1049.0</ele>
        <time>2022-11-13T11:40:33.000Z</time>
      </trkpt>
      <trkpt lat="37.27467" lon="-3.56754833">
        <ele>1049.0</ele>
        <time>2022-11-13T11:40:34.000Z</time>
      </trkpt>
      <trkpt lat="37.27466667" lon="-3.567565">
        <ele>1049.0</ele>
        <time>2022-11-13T11:40:35.000Z</time>
      </trkpt>
      <trkpt lat="37.274665" lon="-3.56758">
        <ele>1049.0</ele>
        <time>2022-11-13T11:40:36.000Z</time>
      </trkpt>
      <trkpt lat="37.27466167" lon="-3.56759833">
        <ele>1049.0</ele>
        <time>2022-11-13T11:40:37.000Z</time>
      </trkpt>
      <trkpt lat="37.27465833" lon="-3.56761833">
        <ele>1049.0</ele>
        <time>2022-11-13T11:40:38.000Z</time>
      </trkpt>
      <trkpt lat="37.27465667" lon="-3.56764">
        <ele>1049.0</ele>
        <time>2022-11-13T11:40:39.000Z</time>
      </trkpt>
      <trkpt lat="37.27465167" lon="-3.56766">
        <ele>1049.0</ele>
        <time>2022-11-13T11:40:40.000Z</time>
      </trkpt>
      <trkpt lat="37.274645" lon="-3.56767667">
        <ele>1049.0</ele>
        <time>2022-11-13T11:40:41.000Z</time>
      </trkpt>
      <trkpt lat="37.27464" lon="-3.56769167">
        <ele>1050.0</ele>
        <time>2022-11-13T11:40:42.000Z</time>
      </trkpt>
      <trkpt lat="37.274635" lon="-3.567705">
        <ele>1050.0</ele>
        <time>2022-11-13T11:40:43.000Z</time>
      </trkpt>
      <trkpt lat="37.27462833" lon="-3.56771667">
        <ele>1050.0</ele>
        <time>2022-11-13T11:40:44.000Z</time>
      </trkpt>
      <trkpt lat="37.27462167" lon="-3.56773">
        <ele>1050.0</ele>
        <time>2022-11-13T11:40:45.000Z</time>
      </trkpt>
      <trkpt lat="37.27461333" lon="-3.56774333">
        <ele>1050.0</ele>
        <time>2022-11-13T11:40:46.000Z</time>
      </trkpt>
      <trkpt lat="37.274605" lon="-3.567755">
        <ele>1050.0</ele>
        <time>2022-11-13T11:40:47.000Z</time>
      </trkpt>
      <trkpt lat="37.274595" lon="-3.56776667">
        <ele>1050.0</ele>
        <time>2022-11-13T11:40:48.000Z</time>
      </trkpt>
      <trkpt lat="37.27458667" lon="-3.56777667">
        <ele>1050.0</ele>
        <time>2022-11-13T11:40:49.000Z</time>
      </trkpt>
      <trkpt lat="37.27457667" lon="-3.56778667">
        <ele>1049.0</ele>
        <time>2022-11-13T11:40:50.000Z</time>
      </trkpt>
      <trkpt lat="37.27456667" lon="-3.56779833">
        <ele>1049.0</ele>
        <time>2022-11-13T11:40:51.000Z</time>
      </trkpt>
      <trkpt lat="37.27455667" lon="-3.56781">
        <ele>1049.0</ele>
        <time>2022-11-13T11:40:52.000Z</time>
      </trkpt>
      <trkpt lat="37.274545" lon="-3.56782167">
        <ele>1049.0</ele>
        <time>2022-11-13T11:40:53.000Z</time>
      </trkpt>
      <trkpt lat="37.27453333" lon="-3.56783333">
        <ele>1049.0</ele>
        <time>2022-11-13T11:40:54.000Z</time>
      </trkpt>
      <trkpt lat="37.27452" lon="-3.567845">
        <ele>1049.0</ele>
        <time>2022-11-13T11:40:55.000Z</time>
      </trkpt>
      <trkpt lat="37.27451" lon="-3.567855">
        <ele>1048.0</ele>
        <time>2022-11-13T11:40:56.000Z</time>
      </trkpt>
      <trkpt lat="37.27450167" lon="-3.56787">
        <ele>1048.0</ele>
        <time>2022-11-13T11:40:57.000Z</time>
      </trkpt>
      <trkpt lat="37.27449333" lon="-3.567885">
        <ele>1048.0</ele>
        <time>2022-11-13T11:40:58.000Z</time>
      </trkpt>
      <trkpt lat="37.27448333" lon="-3.567895">
        <ele>1048.0</ele>
        <time>2022-11-13T11:40:59.000Z</time>
      </trkpt>
      <trkpt lat="37.27447167" lon="-3.56790667">
        <ele>1048.0</ele>
        <time>2022-11-13T11:41:00.000Z</time>
      </trkpt>
      <trkpt lat="37.27446167" lon="-3.56791667">
        <ele>1048.0</ele>
        <time>2022-11-13T11:41:01.000Z</time>
      </trkpt>
      <trkpt lat="37.27445333" lon="-3.56792833">
        <ele>1047.0</ele>
        <time>2022-11-13T11:41:02.000Z</time>
      </trkpt>
      <trkpt lat="37.27444833" lon="-3.56794">
        <ele>1047.0</ele>
        <time>2022-11-13T11:41:03.000Z</time>
      </trkpt>
      <trkpt lat="37.27444167" lon="-3.56795333">
        <ele>1047.0</ele>
        <time>2022-11-13T11:41:04.000Z</time>
      </trkpt>
      <trkpt lat="37.274435" lon="-3.56796667">
        <ele>1047.0</ele>
        <time>2022-11-13T11:41:05.000Z</time>
      </trkpt>
      <trkpt lat="37.27443" lon="-3.56797667">
        <ele>1046.0</ele>
        <time>2022-11-13T11:41:06.000Z</time>
      </trkpt>
      <trkpt lat="37.27442667" lon="-3.56798833">
        <ele>1046.0</ele>
        <time>2022-11-13T11:41:07.000Z</time>
      </trkpt>
      <trkpt lat="37.27442167" lon="-3.56800167">
        <ele>1046.0</ele>
        <time>2022-11-13T11:41:08.000Z</time>
      </trkpt>
      <trkpt lat="37.27441333" lon="-3.568015">
        <ele>1046.0</ele>
        <time>2022-11-13T11:41:09.000Z</time>
      </trkpt>
      <trkpt lat="37.27440833" lon="-3.568025">
        <ele>1046.0</ele>
        <time>2022-11-13T11:41:10.000Z</time>
      </trkpt>
      <trkpt lat="37.27440333" lon="-3.568035">
        <ele>1045.0</ele>
        <time>2022-11-13T11:41:11.000Z</time>
      </trkpt>
      <trkpt lat="37.27440167" lon="-3.56804333">
        <ele>1045.0</ele>
        <time>2022-11-13T11:41:12.000Z</time>
      </trkpt>
      <trkpt lat="37.27440167" lon="-3.56804667">
        <ele>1045.0</ele>
        <time>2022-11-13T11:41:13.000Z</time>
      </trkpt>
      <trkpt lat="37.27440167" lon="-3.56804667">
        <ele>1045.0</ele>
        <time>2022-11-13T11:41:14.000Z</time>
      </trkpt>
      <trkpt lat="37.27440167" lon="-3.56804833">
        <ele>1045.0</ele>
        <time>2022-11-13T11:41:15.000Z</time>
      </trkpt>
      <trkpt lat="37.27440167" lon="-3.56805">
        <ele>1045.0</ele>
        <time>2022-11-13T11:41:16.000Z</time>
      </trkpt>
      <trkpt lat="37.2744" lon="-3.56805667">
        <ele>1045.0</ele>
        <time>2022-11-13T11:41:17.000Z</time>
      </trkpt>
      <trkpt lat="37.27439833" lon="-3.56806667">
        <ele>1045.0</ele>
        <time>2022-11-13T11:41:18.000Z</time>
      </trkpt>
      <trkpt lat="37.274395" lon="-3.56808167">
        <ele>1045.0</ele>
        <time>2022-11-13T11:41:19.000Z</time>
      </trkpt>
      <trkpt lat="37.27439333" lon="-3.56809833">
        <ele>1045.0</ele>
        <time>2022-11-13T11:41:20.000Z</time>
      </trkpt>
      <trkpt lat="37.27439333" lon="-3.56811">
        <ele>1044.0</ele>
        <time>2022-11-13T11:41:21.000Z</time>
      </trkpt>
      <trkpt lat="37.274395" lon="-3.56812333">
        <ele>1044.0</ele>
        <time>2022-11-13T11:41:22.000Z</time>
      </trkpt>
      <trkpt lat="37.274395" lon="-3.56813667">
        <ele>1044.0</ele>
        <time>2022-11-13T11:41:23.000Z</time>
      </trkpt>
      <trkpt lat="37.27439667" lon="-3.568155">
        <ele>1044.0</ele>
        <time>2022-11-13T11:41:24.000Z</time>
      </trkpt>
      <trkpt lat="37.27439667" lon="-3.56817333">
        <ele>1044.0</ele>
        <time>2022-11-13T11:41:25.000Z</time>
      </trkpt>
      <trkpt lat="37.2744" lon="-3.56819167">
        <ele>1044.0</ele>
        <time>2022-11-13T11:41:26.000Z</time>
      </trkpt>
      <trkpt lat="37.27440167" lon="-3.56821">
        <ele>1044.0</ele>
        <time>2022-11-13T11:41:27.000Z</time>
      </trkpt>
      <trkpt lat="37.27440167" lon="-3.56822667">
        <ele>1044.0</ele>
        <time>2022-11-13T11:41:28.000Z</time>
      </trkpt>
      <trkpt lat="37.27440167" lon="-3.56824167">
        <ele>1044.0</ele>
        <time>2022-11-13T11:41:29.000Z</time>
      </trkpt>
      <trkpt lat="37.2744" lon="-3.56825667">
        <ele>1043.0</ele>
        <time>2022-11-13T11:41:30.000Z</time>
      </trkpt>
      <trkpt lat="37.27439833" lon="-3.56827">
        <ele>1043.0</ele>
        <time>2022-11-13T11:41:31.000Z</time>
      </trkpt>
      <trkpt lat="37.27439833" lon="-3.56827833">
        <ele>1043.0</ele>
        <time>2022-11-13T11:41:32.000Z</time>
      </trkpt>
      <trkpt lat="37.27439833" lon="-3.56828">
        <ele>1043.0</ele>
        <time>2022-11-13T11:41:33.000Z</time>
      </trkpt>
      <trkpt lat="37.2744" lon="-3.56828">
        <ele>1043.0</ele>
        <time>2022-11-13T11:41:34.000Z</time>
      </trkpt>
      <trkpt lat="37.2744" lon="-3.56827833">
        <ele>1042.0</ele>
        <time>2022-11-13T11:41:35.000Z</time>
      </trkpt>
      <trkpt lat="37.27440167" lon="-3.56827833">
        <ele>1042.0</ele>
        <time>2022-11-13T11:41:36.000Z</time>
      </trkpt>
      <trkpt lat="37.27440167" lon="-3.56828167">
        <ele>1042.0</ele>
        <time>2022-11-13T11:41:37.000Z</time>
      </trkpt>
      <trkpt lat="37.2744" lon="-3.56828833">
        <ele>1042.0</ele>
        <time>2022-11-13T11:41:38.000Z</time>
      </trkpt>
      <trkpt lat="37.27439667" lon="-3.5683">
        <ele>1041.0</ele>
        <time>2022-11-13T11:41:39.000Z</time>
      </trkpt>
      <trkpt lat="37.274395" lon="-3.56831167">
        <ele>1041.0</ele>
        <time>2022-11-13T11:41:40.000Z</time>
      </trkpt>
      <trkpt lat="37.27439167" lon="-3.568325">
        <ele>1041.0</ele>
        <time>2022-11-13T11:41:41.000Z</time>
      </trkpt>
      <trkpt lat="37.27439" lon="-3.56833667">
        <ele>1041.0</ele>
        <time>2022-11-13T11:41:42.000Z</time>
      </trkpt>
      <trkpt lat="37.27438833" lon="-3.56834667">
        <ele>1041.0</ele>
        <time>2022-11-13T11:41:43.000Z</time>
      </trkpt>
      <trkpt lat="37.27438833" lon="-3.56835833">
        <ele>1040.0</ele>
        <time>2022-11-13T11:41:44.000Z</time>
      </trkpt>
      <trkpt lat="37.27438833" lon="-3.56836833">
        <ele>1040.0</ele>
        <time>2022-11-13T11:41:45.000Z</time>
      </trkpt>
      <trkpt lat="37.27438667" lon="-3.56837833">
        <ele>1040.0</ele>
        <time>2022-11-13T11:41:46.000Z</time>
      </trkpt>
      <trkpt lat="37.27438833" lon="-3.56838667">
        <ele>1040.0</ele>
        <time>2022-11-13T11:41:47.000Z</time>
      </trkpt>
      <trkpt lat="37.27438833" lon="-3.56839667">
        <ele>1040.0</ele>
        <time>2022-11-13T11:41:48.000Z</time>
      </trkpt>
      <trkpt lat="37.27438833" lon="-3.56840833">
        <ele>1040.0</ele>
        <time>2022-11-13T11:41:49.000Z</time>
      </trkpt>
      <trkpt lat="37.27438667" lon="-3.56842333">
        <ele>1040.0</ele>
        <time>2022-11-13T11:41:50.000Z</time>
      </trkpt>
      <trkpt lat="37.27438333" lon="-3.56843667">
        <ele>1039.0</ele>
        <time>2022-11-13T11:41:51.000Z</time>
      </trkpt>
      <trkpt lat="37.27437833" lon="-3.56844833">
        <ele>1039.0</ele>
        <time>2022-11-13T11:41:52.000Z</time>
      </trkpt>
      <trkpt lat="37.27437167" lon="-3.56845667">
        <ele>1039.0</ele>
        <time>2022-11-13T11:41:53.000Z</time>
      </trkpt>
      <trkpt lat="37.274365" lon="-3.56846833">
        <ele>1039.0</ele>
        <time>2022-11-13T11:41:54.000Z</time>
      </trkpt>
      <trkpt lat="37.27435833" lon="-3.56847833">
        <ele>1039.0</ele>
        <time>2022-11-13T11:41:55.000Z</time>
      </trkpt>
      <trkpt lat="37.27435167" lon="-3.56848667">
        <ele>1039.0</ele>
        <time>2022-11-13T11:41:56.000Z</time>
      </trkpt>
      <trkpt lat="37.27434333" lon="-3.56849667">
        <ele>1038.0</ele>
        <time>2022-11-13T11:41:57.000Z</time>
      </trkpt>
      <trkpt lat="37.27433667" lon="-3.56850333">
        <ele>1038.0</ele>
        <time>2022-11-13T11:41:58.000Z</time>
      </trkpt>
      <trkpt lat="37.27432833" lon="-3.56851167">
        <ele>1038.0</ele>
        <time>2022-11-13T11:41:59.000Z</time>
      </trkpt>
      <trkpt lat="37.27432" lon="-3.56852167">
        <ele>1038.0</ele>
        <time>2022-11-13T11:42:00.000Z</time>
      </trkpt>
      <trkpt lat="37.27431" lon="-3.56853">
        <ele>1038.0</ele>
        <time>2022-11-13T11:42:01.000Z</time>
      </trkpt>
      <trkpt lat="37.2743" lon="-3.56853667">
        <ele>1038.0</ele>
        <time>2022-11-13T11:42:02.000Z</time>
      </trkpt>
      <trkpt lat="37.27429" lon="-3.56854333">
        <ele>1038.0</ele>
        <time>2022-11-13T11:42:03.000Z</time>
      </trkpt>
      <trkpt lat="37.27427833" lon="-3.56855">
        <ele>1038.0</ele>
        <time>2022-11-13T11:42:04.000Z</time>
      </trkpt>
      <trkpt lat="37.27426833" lon="-3.56856">
        <ele>1038.0</ele>
        <time>2022-11-13T11:42:05.000Z</time>
      </trkpt>
      <trkpt lat="37.274255" lon="-3.56856833">
        <ele>1038.0</ele>
        <time>2022-11-13T11:42:06.000Z</time>
      </trkpt>
      <trkpt lat="37.27424" lon="-3.568575">
        <ele>1038.0</ele>
        <time>2022-11-13T11:42:07.000Z</time>
      </trkpt>
      <trkpt lat="37.27422333" lon="-3.56858167">
        <ele>1038.0</ele>
        <time>2022-11-13T11:42:08.000Z</time>
      </trkpt>
      <trkpt lat="37.27420833" lon="-3.56859">
        <ele>1037.0</ele>
        <time>2022-11-13T11:42:09.000Z</time>
      </trkpt>
      <trkpt lat="37.274195" lon="-3.56860167">
        <ele>1037.0</ele>
        <time>2022-11-13T11:42:10.000Z</time>
      </trkpt>
      <trkpt lat="37.27418167" lon="-3.56861333">
        <ele>1037.0</ele>
        <time>2022-11-13T11:42:11.000Z</time>
      </trkpt>
      <trkpt lat="37.27417" lon="-3.56862667">
        <ele>1037.0</ele>
        <time>2022-11-13T11:42:12.000Z</time>
      </trkpt>
      <trkpt lat="37.27415667" lon="-3.56863833">
        <ele>1037.0</ele>
        <time>2022-11-13T11:42:13.000Z</time>
      </trkpt>
      <trkpt lat="37.27414667" lon="-3.56864833">
        <ele>1037.0</ele>
        <time>2022-11-13T11:42:14.000Z</time>
      </trkpt>
      <trkpt lat="37.27413667" lon="-3.56865833">
        <ele>1037.0</ele>
        <time>2022-11-13T11:42:15.000Z</time>
      </trkpt>
      <trkpt lat="37.27412667" lon="-3.56867167">
        <ele>1037.0</ele>
        <time>2022-11-13T11:42:16.000Z</time>
      </trkpt>
      <trkpt lat="37.27411667" lon="-3.568685">
        <ele>1037.0</ele>
        <time>2022-11-13T11:42:17.000Z</time>
      </trkpt>
      <trkpt lat="37.27410833" lon="-3.56870167">
        <ele>1037.0</ele>
        <time>2022-11-13T11:42:18.000Z</time>
      </trkpt>
      <trkpt lat="37.2741" lon="-3.568715">
        <ele>1037.0</ele>
        <time>2022-11-13T11:42:19.000Z</time>
      </trkpt>
      <trkpt lat="37.274095" lon="-3.56872833">
        <ele>1037.0</ele>
        <time>2022-11-13T11:42:20.000Z</time>
      </trkpt>
      <trkpt lat="37.27409167" lon="-3.56874">
        <ele>1036.0</ele>
        <time>2022-11-13T11:42:21.000Z</time>
      </trkpt>
      <trkpt lat="37.27409167" lon="-3.56875167">
        <ele>1036.0</ele>
        <time>2022-11-13T11:42:22.000Z</time>
      </trkpt>
      <trkpt lat="37.27409167" lon="-3.568765">
        <ele>1036.0</ele>
        <time>2022-11-13T11:42:23.000Z</time>
      </trkpt>
      <trkpt lat="37.27409333" lon="-3.56878">
        <ele>1036.0</ele>
        <time>2022-11-13T11:42:24.000Z</time>
      </trkpt>
      <trkpt lat="37.27409333" lon="-3.568795">
        <ele>1035.0</ele>
        <time>2022-11-13T11:42:25.000Z</time>
      </trkpt>
      <trkpt lat="37.27409" lon="-3.56880667">
        <ele>1035.0</ele>
        <time>2022-11-13T11:42:26.000Z</time>
      </trkpt>
      <trkpt lat="37.27408833" lon="-3.56882">
        <ele>1035.0</ele>
        <time>2022-11-13T11:42:27.000Z</time>
      </trkpt>
      <trkpt lat="37.274085" lon="-3.56883667">
        <ele>1035.0</ele>
        <time>2022-11-13T11:42:28.000Z</time>
      </trkpt>
      <trkpt lat="37.27408167" lon="-3.56885167">
        <ele>1034.0</ele>
        <time>2022-11-13T11:42:29.000Z</time>
      </trkpt>
      <trkpt lat="37.27407667" lon="-3.56886667">
        <ele>1034.0</ele>
        <time>2022-11-13T11:42:30.000Z</time>
      </trkpt>
      <trkpt lat="37.27407333" lon="-3.56888">
        <ele>1034.0</ele>
        <time>2022-11-13T11:42:31.000Z</time>
      </trkpt>
      <trkpt lat="37.27407333" lon="-3.568895">
        <ele>1033.0</ele>
        <time>2022-11-13T11:42:32.000Z</time>
      </trkpt>
      <trkpt lat="37.274075" lon="-3.56890833">
        <ele>1033.0</ele>
        <time>2022-11-13T11:42:33.000Z</time>
      </trkpt>
      <trkpt lat="37.27407833" lon="-3.568925">
        <ele>1033.0</ele>
        <time>2022-11-13T11:42:34.000Z</time>
      </trkpt>
      <trkpt lat="37.27408" lon="-3.56894">
        <ele>1032.0</ele>
        <time>2022-11-13T11:42:35.000Z</time>
      </trkpt>
      <trkpt lat="37.27408167" lon="-3.568955">
        <ele>1032.0</ele>
        <time>2022-11-13T11:42:36.000Z</time>
      </trkpt>
      <trkpt lat="37.27408167" lon="-3.56897">
        <ele>1031.0</ele>
        <time>2022-11-13T11:42:37.000Z</time>
      </trkpt>
      <trkpt lat="37.27408167" lon="-3.56898333">
        <ele>1031.0</ele>
        <time>2022-11-13T11:42:38.000Z</time>
      </trkpt>
      <trkpt lat="37.27407833" lon="-3.568995">
        <ele>1031.0</ele>
        <time>2022-11-13T11:42:39.000Z</time>
      </trkpt>
      <trkpt lat="37.274075" lon="-3.56900667">
        <ele>1031.0</ele>
        <time>2022-11-13T11:42:40.000Z</time>
      </trkpt>
      <trkpt lat="37.27407167" lon="-3.56902">
        <ele>1030.0</ele>
        <time>2022-11-13T11:42:41.000Z</time>
      </trkpt>
      <trkpt lat="37.27407167" lon="-3.569035">
        <ele>1030.0</ele>
        <time>2022-11-13T11:42:42.000Z</time>
      </trkpt>
      <trkpt lat="37.274075" lon="-3.56905167">
        <ele>1030.0</ele>
        <time>2022-11-13T11:42:43.000Z</time>
      </trkpt>
      <trkpt lat="37.274075" lon="-3.56906667">
        <ele>1030.0</ele>
        <time>2022-11-13T11:42:44.000Z</time>
      </trkpt>
      <trkpt lat="37.27407667" lon="-3.56908167">
        <ele>1029.0</ele>
        <time>2022-11-13T11:42:45.000Z</time>
      </trkpt>
      <trkpt lat="37.27408" lon="-3.56909667">
        <ele>1029.0</ele>
        <time>2022-11-13T11:42:46.000Z</time>
      </trkpt>
      <trkpt lat="37.27408333" lon="-3.56911">
        <ele>1029.0</ele>
        <time>2022-11-13T11:42:47.000Z</time>
      </trkpt>
      <trkpt lat="37.27408833" lon="-3.569125">
        <ele>1029.0</ele>
        <time>2022-11-13T11:42:48.000Z</time>
      </trkpt>
      <trkpt lat="37.27409333" lon="-3.56913833">
        <ele>1028.0</ele>
        <time>2022-11-13T11:42:49.000Z</time>
      </trkpt>
      <trkpt lat="37.27409833" lon="-3.56915167">
        <ele>1028.0</ele>
        <time>2022-11-13T11:42:50.000Z</time>
      </trkpt>
      <trkpt lat="37.274105" lon="-3.56916167">
        <ele>1028.0</ele>
        <time>2022-11-13T11:42:51.000Z</time>
      </trkpt>
      <trkpt lat="37.27411333" lon="-3.56917333">
        <ele>1028.0</ele>
        <time>2022-11-13T11:42:52.000Z</time>
      </trkpt>
      <trkpt lat="37.27412" lon="-3.56918667">
        <ele>1028.0</ele>
        <time>2022-11-13T11:42:53.000Z</time>
      </trkpt>
      <trkpt lat="37.274125" lon="-3.5692">
        <ele>1028.0</ele>
        <time>2022-11-13T11:42:54.000Z</time>
      </trkpt>
      <trkpt lat="37.27413" lon="-3.56921333">
        <ele>1028.0</ele>
        <time>2022-11-13T11:42:55.000Z</time>
      </trkpt>
      <trkpt lat="37.274135" lon="-3.569225">
        <ele>1028.0</ele>
        <time>2022-11-13T11:42:56.000Z</time>
      </trkpt>
      <trkpt lat="37.27414" lon="-3.56923833">
        <ele>1028.0</ele>
        <time>2022-11-13T11:42:57.000Z</time>
      </trkpt>
      <trkpt lat="37.274145" lon="-3.56925">
        <ele>1027.0</ele>
        <time>2022-11-13T11:42:58.000Z</time>
      </trkpt>
      <trkpt lat="37.27415" lon="-3.56925833">
        <ele>1027.0</ele>
        <time>2022-11-13T11:42:59.000Z</time>
      </trkpt>
      <trkpt lat="37.274155" lon="-3.56926833">
        <ele>1027.0</ele>
        <time>2022-11-13T11:43:00.000Z</time>
      </trkpt>
      <trkpt lat="37.27416167" lon="-3.56928167">
        <ele>1027.0</ele>
        <time>2022-11-13T11:43:01.000Z</time>
      </trkpt>
      <trkpt lat="37.27416833" lon="-3.56929667">
        <ele>1027.0</ele>
        <time>2022-11-13T11:43:02.000Z</time>
      </trkpt>
      <trkpt lat="37.274175" lon="-3.56931">
        <ele>1027.0</ele>
        <time>2022-11-13T11:43:03.000Z</time>
      </trkpt>
      <trkpt lat="37.27418" lon="-3.56932333">
        <ele>1027.0</ele>
        <time>2022-11-13T11:43:04.000Z</time>
      </trkpt>
      <trkpt lat="37.274185" lon="-3.56933667">
        <ele>1027.0</ele>
        <time>2022-11-13T11:43:05.000Z</time>
      </trkpt>
      <trkpt lat="37.27418833" lon="-3.56935">
        <ele>1027.0</ele>
        <time>2022-11-13T11:43:06.000Z</time>
      </trkpt>
      <trkpt lat="37.27419167" lon="-3.569365">
        <ele>1027.0</ele>
        <time>2022-11-13T11:43:07.000Z</time>
      </trkpt>
      <trkpt lat="37.27419667" lon="-3.56937833">
        <ele>1027.0</ele>
        <time>2022-11-13T11:43:08.000Z</time>
      </trkpt>
      <trkpt lat="37.27420333" lon="-3.56939167">
        <ele>1027.0</ele>
        <time>2022-11-13T11:43:09.000Z</time>
      </trkpt>
      <trkpt lat="37.27420833" lon="-3.56940833">
        <ele>1027.0</ele>
        <time>2022-11-13T11:43:10.000Z</time>
      </trkpt>
      <trkpt lat="37.27421333" lon="-3.56942333">
        <ele>1027.0</ele>
        <time>2022-11-13T11:43:11.000Z</time>
      </trkpt>
      <trkpt lat="37.27421667" lon="-3.56943667">
        <ele>1027.0</ele>
        <time>2022-11-13T11:43:12.000Z</time>
      </trkpt>
      <trkpt lat="37.27422167" lon="-3.56944833">
        <ele>1027.0</ele>
        <time>2022-11-13T11:43:13.000Z</time>
      </trkpt>
      <trkpt lat="37.274225" lon="-3.56946167">
        <ele>1027.0</ele>
        <time>2022-11-13T11:43:14.000Z</time>
      </trkpt>
      <trkpt lat="37.27422833" lon="-3.56947833">
        <ele>1027.0</ele>
        <time>2022-11-13T11:43:15.000Z</time>
      </trkpt>
      <trkpt lat="37.27422833" lon="-3.569495">
        <ele>1027.0</ele>
        <time>2022-11-13T11:43:16.000Z</time>
      </trkpt>
      <trkpt lat="37.27423" lon="-3.56951167">
        <ele>1027.0</ele>
        <time>2022-11-13T11:43:17.000Z</time>
      </trkpt>
      <trkpt lat="37.27423333" lon="-3.56952833">
        <ele>1027.0</ele>
        <time>2022-11-13T11:43:18.000Z</time>
      </trkpt>
      <trkpt lat="37.274235" lon="-3.56954167">
        <ele>1027.0</ele>
        <time>2022-11-13T11:43:19.000Z</time>
      </trkpt>
      <trkpt lat="37.27423667" lon="-3.56955667">
        <ele>1027.0</ele>
        <time>2022-11-13T11:43:20.000Z</time>
      </trkpt>
      <trkpt lat="37.27423667" lon="-3.56957167">
        <ele>1027.0</ele>
        <time>2022-11-13T11:43:21.000Z</time>
      </trkpt>
      <trkpt lat="37.27423833" lon="-3.56958667">
        <ele>1027.0</ele>
        <time>2022-11-13T11:43:22.000Z</time>
      </trkpt>
      <trkpt lat="37.27424" lon="-3.56960167">
        <ele>1027.0</ele>
        <time>2022-11-13T11:43:23.000Z</time>
      </trkpt>
      <trkpt lat="37.27423833" lon="-3.56961667">
        <ele>1027.0</ele>
        <time>2022-11-13T11:43:24.000Z</time>
      </trkpt>
      <trkpt lat="37.27423833" lon="-3.56963167">
        <ele>1027.0</ele>
        <time>2022-11-13T11:43:25.000Z</time>
      </trkpt>
      <trkpt lat="37.27424" lon="-3.56964833">
        <ele>1027.0</ele>
        <time>2022-11-13T11:43:26.000Z</time>
      </trkpt>
      <trkpt lat="37.27423833" lon="-3.56966333">
        <ele>1027.0</ele>
        <time>2022-11-13T11:43:27.000Z</time>
      </trkpt>
      <trkpt lat="37.27423833" lon="-3.56967833">
        <ele>1027.0</ele>
        <time>2022-11-13T11:43:28.000Z</time>
      </trkpt>
      <trkpt lat="37.27424" lon="-3.569695">
        <ele>1026.0</ele>
        <time>2022-11-13T11:43:29.000Z</time>
      </trkpt>
      <trkpt lat="37.274245" lon="-3.56970833">
        <ele>1026.0</ele>
        <time>2022-11-13T11:43:30.000Z</time>
      </trkpt>
      <trkpt lat="37.27425" lon="-3.56972">
        <ele>1026.0</ele>
        <time>2022-11-13T11:43:31.000Z</time>
      </trkpt>
      <trkpt lat="37.27425833" lon="-3.56973167">
        <ele>1026.0</ele>
        <time>2022-11-13T11:43:32.000Z</time>
      </trkpt>
      <trkpt lat="37.27426667" lon="-3.569745">
        <ele>1026.0</ele>
        <time>2022-11-13T11:43:33.000Z</time>
      </trkpt>
      <trkpt lat="37.27427333" lon="-3.56975833">
        <ele>1026.0</ele>
        <time>2022-11-13T11:43:34.000Z</time>
      </trkpt>
      <trkpt lat="37.27428" lon="-3.56976833">
        <ele>1026.0</ele>
        <time>2022-11-13T11:43:35.000Z</time>
      </trkpt>
      <trkpt lat="37.27428833" lon="-3.569775">
        <ele>1026.0</ele>
        <time>2022-11-13T11:43:36.000Z</time>
      </trkpt>
      <trkpt lat="37.27429667" lon="-3.56978">
        <ele>1026.0</ele>
        <time>2022-11-13T11:43:37.000Z</time>
      </trkpt>
      <trkpt lat="37.27430333" lon="-3.569785">
        <ele>1026.0</ele>
        <time>2022-11-13T11:43:38.000Z</time>
      </trkpt>
      <trkpt lat="37.27431" lon="-3.56979333">
        <ele>1026.0</ele>
        <time>2022-11-13T11:43:39.000Z</time>
      </trkpt>
      <trkpt lat="37.27431667" lon="-3.5698">
        <ele>1026.0</ele>
        <time>2022-11-13T11:43:40.000Z</time>
      </trkpt>
      <trkpt lat="37.27432667" lon="-3.56980833">
        <ele>1026.0</ele>
        <time>2022-11-13T11:43:41.000Z</time>
      </trkpt>
      <trkpt lat="37.274335" lon="-3.569815">
        <ele>1026.0</ele>
        <time>2022-11-13T11:43:42.000Z</time>
      </trkpt>
      <trkpt lat="37.27434167" lon="-3.56982333">
        <ele>1026.0</ele>
        <time>2022-11-13T11:43:43.000Z</time>
      </trkpt>
      <trkpt lat="37.27435" lon="-3.56983">
        <ele>1026.0</ele>
        <time>2022-11-13T11:43:44.000Z</time>
      </trkpt>
      <trkpt lat="37.27435833" lon="-3.56983833">
        <ele>1026.0</ele>
        <time>2022-11-13T11:43:45.000Z</time>
      </trkpt>
      <trkpt lat="37.274365" lon="-3.569845">
        <ele>1026.0</ele>
        <time>2022-11-13T11:43:46.000Z</time>
      </trkpt>
      <trkpt lat="37.27437167" lon="-3.56985333">
        <ele>1026.0</ele>
        <time>2022-11-13T11:43:47.000Z</time>
      </trkpt>
      <trkpt lat="37.27438" lon="-3.56986167">
        <ele>1027.0</ele>
        <time>2022-11-13T11:43:48.000Z</time>
      </trkpt>
      <trkpt lat="37.27438667" lon="-3.569865">
        <ele>1027.0</ele>
        <time>2022-11-13T11:43:49.000Z</time>
      </trkpt>
      <trkpt lat="37.27439333" lon="-3.56987167">
        <ele>1027.0</ele>
        <time>2022-11-13T11:43:50.000Z</time>
      </trkpt>
      <trkpt lat="37.2744" lon="-3.56987833">
        <ele>1027.0</ele>
        <time>2022-11-13T11:43:51.000Z</time>
      </trkpt>
      <trkpt lat="37.274405" lon="-3.56988667">
        <ele>1027.0</ele>
        <time>2022-11-13T11:43:52.000Z</time>
      </trkpt>
      <trkpt lat="37.27441333" lon="-3.56989">
        <ele>1027.0</ele>
        <time>2022-11-13T11:43:53.000Z</time>
      </trkpt>
      <trkpt lat="37.27442167" lon="-3.569895">
        <ele>1027.0</ele>
        <time>2022-11-13T11:43:54.000Z</time>
      </trkpt>
      <trkpt lat="37.27443167" lon="-3.56989667">
        <ele>1027.0</ele>
        <time>2022-11-13T11:43:55.000Z</time>
      </trkpt>
      <trkpt lat="37.27444167" lon="-3.56989667">
        <ele>1027.0</ele>
        <time>2022-11-13T11:43:56.000Z</time>
      </trkpt>
      <trkpt lat="37.27445167" lon="-3.569895">
        <ele>1027.0</ele>
        <time>2022-11-13T11:43:57.000Z</time>
      </trkpt>
      <trkpt lat="37.27446167" lon="-3.56989667">
        <ele>1027.0</ele>
        <time>2022-11-13T11:43:58.000Z</time>
      </trkpt>
      <trkpt lat="37.27447333" lon="-3.569895">
        <ele>1027.0</ele>
        <time>2022-11-13T11:43:59.000Z</time>
      </trkpt>
      <trkpt lat="37.274485" lon="-3.56989333">
        <ele>1027.0</ele>
        <time>2022-11-13T11:44:00.000Z</time>
      </trkpt>
      <trkpt lat="37.27449667" lon="-3.56989">
        <ele>1027.0</ele>
        <time>2022-11-13T11:44:01.000Z</time>
      </trkpt>
      <trkpt lat="37.274505" lon="-3.56988833">
        <ele>1027.0</ele>
        <time>2022-11-13T11:44:02.000Z</time>
      </trkpt>
      <trkpt lat="37.274515" lon="-3.569885">
        <ele>1028.0</ele>
        <time>2022-11-13T11:44:03.000Z</time>
      </trkpt>
      <trkpt lat="37.27452333" lon="-3.56988333">
        <ele>1027.0</ele>
        <time>2022-11-13T11:44:04.000Z</time>
      </trkpt>
      <trkpt lat="37.274535" lon="-3.56988167">
        <ele>1027.0</ele>
        <time>2022-11-13T11:44:05.000Z</time>
      </trkpt>
      <trkpt lat="37.27454667" lon="-3.56988333">
        <ele>1027.0</ele>
        <time>2022-11-13T11:44:06.000Z</time>
      </trkpt>
      <trkpt lat="37.27456" lon="-3.56988167">
        <ele>1027.0</ele>
        <time>2022-11-13T11:44:07.000Z</time>
      </trkpt>
      <trkpt lat="37.27457333" lon="-3.56988167">
        <ele>1028.0</ele>
        <time>2022-11-13T11:44:08.000Z</time>
      </trkpt>
      <trkpt lat="37.27458833" lon="-3.56988">
        <ele>1028.0</ele>
        <time>2022-11-13T11:44:09.000Z</time>
      </trkpt>
      <trkpt lat="37.27460167" lon="-3.56988">
        <ele>1028.0</ele>
        <time>2022-11-13T11:44:10.000Z</time>
      </trkpt>
      <trkpt lat="37.274615" lon="-3.56988167">
        <ele>1028.0</ele>
        <time>2022-11-13T11:44:11.000Z</time>
      </trkpt>
      <trkpt lat="37.27462833" lon="-3.56988">
        <ele>1028.0</ele>
        <time>2022-11-13T11:44:12.000Z</time>
      </trkpt>
      <trkpt lat="37.27464167" lon="-3.56988167">
        <ele>1028.0</ele>
        <time>2022-11-13T11:44:13.000Z</time>
      </trkpt>
      <trkpt lat="37.27465333" lon="-3.56988167">
        <ele>1028.0</ele>
        <time>2022-11-13T11:44:14.000Z</time>
      </trkpt>
      <trkpt lat="37.27466667" lon="-3.56988167">
        <ele>1028.0</ele>
        <time>2022-11-13T11:44:15.000Z</time>
      </trkpt>
      <trkpt lat="37.27468" lon="-3.56988167">
        <ele>1029.0</ele>
        <time>2022-11-13T11:44:16.000Z</time>
      </trkpt>
      <trkpt lat="37.27469167" lon="-3.56988167">
        <ele>1029.0</ele>
        <time>2022-11-13T11:44:17.000Z</time>
      </trkpt>
      <trkpt lat="37.274705" lon="-3.56988167">
        <ele>1029.0</ele>
        <time>2022-11-13T11:44:18.000Z</time>
      </trkpt>
      <trkpt lat="37.27471833" lon="-3.56988">
        <ele>1029.0</ele>
        <time>2022-11-13T11:44:19.000Z</time>
      </trkpt>
      <trkpt lat="37.27473333" lon="-3.56988">
        <ele>1029.0</ele>
        <time>2022-11-13T11:44:20.000Z</time>
      </trkpt>
      <trkpt lat="37.27474667" lon="-3.56987833">
        <ele>1029.0</ele>
        <time>2022-11-13T11:44:21.000Z</time>
      </trkpt>
      <trkpt lat="37.27476167" lon="-3.56987833">
        <ele>1029.0</ele>
        <time>2022-11-13T11:44:22.000Z</time>
      </trkpt>
      <trkpt lat="37.27477333" lon="-3.56987833">
        <ele>1030.0</ele>
        <time>2022-11-13T11:44:23.000Z</time>
      </trkpt>
      <trkpt lat="37.27478667" lon="-3.56987667">
        <ele>1030.0</ele>
        <time>2022-11-13T11:44:24.000Z</time>
      </trkpt>
      <trkpt lat="37.27479833" lon="-3.56988">
        <ele>1030.0</ele>
        <time>2022-11-13T11:44:25.000Z</time>
      </trkpt>
      <trkpt lat="37.27481" lon="-3.56988333">
        <ele>1030.0</ele>
        <time>2022-11-13T11:44:26.000Z</time>
      </trkpt>
      <trkpt lat="37.27482167" lon="-3.56988333">
        <ele>1030.0</ele>
        <time>2022-11-13T11:44:27.000Z</time>
      </trkpt>
      <trkpt lat="37.27483333" lon="-3.56988333">
        <ele>1031.0</ele>
        <time>2022-11-13T11:44:28.000Z</time>
      </trkpt>
      <trkpt lat="37.27484333" lon="-3.56988167">
        <ele>1031.0</ele>
        <time>2022-11-13T11:44:29.000Z</time>
      </trkpt>
      <trkpt lat="37.27485667" lon="-3.56988167">
        <ele>1031.0</ele>
        <time>2022-11-13T11:44:30.000Z</time>
      </trkpt>
      <trkpt lat="37.27487" lon="-3.56988167">
        <ele>1031.0</ele>
        <time>2022-11-13T11:44:31.000Z</time>
      </trkpt>
      <trkpt lat="37.27488333" lon="-3.56988">
        <ele>1031.0</ele>
        <time>2022-11-13T11:44:32.000Z</time>
      </trkpt>
      <trkpt lat="37.27489667" lon="-3.56988167">
        <ele>1031.0</ele>
        <time>2022-11-13T11:44:33.000Z</time>
      </trkpt>
      <trkpt lat="37.27491" lon="-3.56988">
        <ele>1031.0</ele>
        <time>2022-11-13T11:44:34.000Z</time>
      </trkpt>
      <trkpt lat="37.27492333" lon="-3.56988">
        <ele>1032.0</ele>
        <time>2022-11-13T11:44:35.000Z</time>
      </trkpt>
      <trkpt lat="37.27493667" lon="-3.56988167">
        <ele>1032.0</ele>
        <time>2022-11-13T11:44:36.000Z</time>
      </trkpt>
      <trkpt lat="37.27495" lon="-3.56988167">
        <ele>1032.0</ele>
        <time>2022-11-13T11:44:37.000Z</time>
      </trkpt>
      <trkpt lat="37.27496333" lon="-3.56988167">
        <ele>1032.0</ele>
        <time>2022-11-13T11:44:38.000Z</time>
      </trkpt>
      <trkpt lat="37.27497667" lon="-3.56988333">
        <ele>1032.0</ele>
        <time>2022-11-13T11:44:39.000Z</time>
      </trkpt>
      <trkpt lat="37.27498833" lon="-3.56988333">
        <ele>1032.0</ele>
        <time>2022-11-13T11:44:40.000Z</time>
      </trkpt>
      <trkpt lat="37.27499833" lon="-3.56988333">
        <ele>1032.0</ele>
        <time>2022-11-13T11:44:41.000Z</time>
      </trkpt>
      <trkpt lat="37.27501" lon="-3.56988333">
        <ele>1033.0</ele>
        <time>2022-11-13T11:44:42.000Z</time>
      </trkpt>
      <trkpt lat="37.27502333" lon="-3.56988667">
        <ele>1033.0</ele>
        <time>2022-11-13T11:44:43.000Z</time>
      </trkpt>
      <trkpt lat="37.27503667" lon="-3.56988833">
        <ele>1033.0</ele>
        <time>2022-11-13T11:44:44.000Z</time>
      </trkpt>
      <trkpt lat="37.27505" lon="-3.56989167">
        <ele>1033.0</ele>
        <time>2022-11-13T11:44:45.000Z</time>
      </trkpt>
      <trkpt lat="37.27506333" lon="-3.56989667">
        <ele>1033.0</ele>
        <time>2022-11-13T11:44:46.000Z</time>
      </trkpt>
      <trkpt lat="37.275075" lon="-3.56990333">
        <ele>1033.0</ele>
        <time>2022-11-13T11:44:47.000Z</time>
      </trkpt>
      <trkpt lat="37.27508333" lon="-3.56991">
        <ele>1033.0</ele>
        <time>2022-11-13T11:44:48.000Z</time>
      </trkpt>
      <trkpt lat="37.275095" lon="-3.56991333">
        <ele>1033.0</ele>
        <time>2022-11-13T11:44:49.000Z</time>
      </trkpt>
      <trkpt lat="37.275105" lon="-3.56991667">
        <ele>1033.0</ele>
        <time>2022-11-13T11:44:50.000Z</time>
      </trkpt>
      <trkpt lat="37.275115" lon="-3.56991833">
        <ele>1033.0</ele>
        <time>2022-11-13T11:44:51.000Z</time>
      </trkpt>
      <trkpt lat="37.27511667" lon="-3.56991833">
        <ele>1033.0</ele>
        <time>2022-11-13T11:44:52.000Z</time>
      </trkpt>
      <trkpt lat="37.27512" lon="-3.56991833">
        <ele>1033.0</ele>
        <time>2022-11-13T11:44:53.000Z</time>
      </trkpt>
      <trkpt lat="37.275125" lon="-3.56991833">
        <ele>1033.0</ele>
        <time>2022-11-13T11:44:54.000Z</time>
      </trkpt>
      <trkpt lat="37.275135" lon="-3.56991833">
        <ele>1033.0</ele>
        <time>2022-11-13T11:44:55.000Z</time>
      </trkpt>
      <trkpt lat="37.27514667" lon="-3.56991667">
        <ele>1033.0</ele>
        <time>2022-11-13T11:44:56.000Z</time>
      </trkpt>
      <trkpt lat="37.27516" lon="-3.56991667">
        <ele>1033.0</ele>
        <time>2022-11-13T11:44:57.000Z</time>
      </trkpt>
      <trkpt lat="37.27517333" lon="-3.569915">
        <ele>1033.0</ele>
        <time>2022-11-13T11:44:58.000Z</time>
      </trkpt>
      <trkpt lat="37.27518833" lon="-3.56991167">
        <ele>1032.0</ele>
        <time>2022-11-13T11:44:59.000Z</time>
      </trkpt>
      <trkpt lat="37.27520167" lon="-3.56991">
        <ele>1032.0</ele>
        <time>2022-11-13T11:45:00.000Z</time>
      </trkpt>
      <trkpt lat="37.275215" lon="-3.56991167">
        <ele>1032.0</ele>
        <time>2022-11-13T11:45:01.000Z</time>
      </trkpt>
      <trkpt lat="37.27523" lon="-3.56991167">
        <ele>1032.0</ele>
        <time>2022-11-13T11:45:02.000Z</time>
      </trkpt>
      <trkpt lat="37.27524333" lon="-3.56991167">
        <ele>1032.0</ele>
        <time>2022-11-13T11:45:03.000Z</time>
      </trkpt>
      <trkpt lat="37.275255" lon="-3.56991167">
        <ele>1032.0</ele>
        <time>2022-11-13T11:45:04.000Z</time>
      </trkpt>
      <trkpt lat="37.27526667" lon="-3.569915">
        <ele>1032.0</ele>
        <time>2022-11-13T11:45:05.000Z</time>
      </trkpt>
      <trkpt lat="37.27527667" lon="-3.56991833">
        <ele>1032.0</ele>
        <time>2022-11-13T11:45:06.000Z</time>
      </trkpt>
      <trkpt lat="37.27528833" lon="-3.569925">
        <ele>1032.0</ele>
        <time>2022-11-13T11:45:07.000Z</time>
      </trkpt>
      <trkpt lat="37.27530167" lon="-3.56992833">
        <ele>1032.0</ele>
        <time>2022-11-13T11:45:08.000Z</time>
      </trkpt>
      <trkpt lat="37.27531667" lon="-3.56993333">
        <ele>1032.0</ele>
        <time>2022-11-13T11:45:09.000Z</time>
      </trkpt>
      <trkpt lat="37.27533167" lon="-3.56993667">
        <ele>1032.0</ele>
        <time>2022-11-13T11:45:10.000Z</time>
      </trkpt>
      <trkpt lat="37.27534667" lon="-3.56994167">
        <ele>1032.0</ele>
        <time>2022-11-13T11:45:11.000Z</time>
      </trkpt>
      <trkpt lat="37.27536167" lon="-3.56994833">
        <ele>1032.0</ele>
        <time>2022-11-13T11:45:12.000Z</time>
      </trkpt>
      <trkpt lat="37.27537667" lon="-3.56995167">
        <ele>1032.0</ele>
        <time>2022-11-13T11:45:13.000Z</time>
      </trkpt>
      <trkpt lat="37.27539167" lon="-3.569955">
        <ele>1032.0</ele>
        <time>2022-11-13T11:45:14.000Z</time>
      </trkpt>
      <trkpt lat="37.27540833" lon="-3.569955">
        <ele>1032.0</ele>
        <time>2022-11-13T11:45:15.000Z</time>
      </trkpt>
      <trkpt lat="37.275425" lon="-3.569955">
        <ele>1032.0</ele>
        <time>2022-11-13T11:45:16.000Z</time>
      </trkpt>
      <trkpt lat="37.27544" lon="-3.56995667">
        <ele>1032.0</ele>
        <time>2022-11-13T11:45:17.000Z</time>
      </trkpt>
      <trkpt lat="37.275455" lon="-3.56995833">
        <ele>1031.0</ele>
        <time>2022-11-13T11:45:18.000Z</time>
      </trkpt>
      <trkpt lat="37.27547" lon="-3.56996">
        <ele>1031.0</ele>
        <time>2022-11-13T11:45:19.000Z</time>
      </trkpt>
      <trkpt lat="37.275485" lon="-3.56996333">
        <ele>1031.0</ele>
        <time>2022-11-13T11:45:20.000Z</time>
      </trkpt>
      <trkpt lat="37.2755" lon="-3.569965">
        <ele>1031.0</ele>
        <time>2022-11-13T11:45:21.000Z</time>
      </trkpt>
      <trkpt lat="37.27551667" lon="-3.569965">
        <ele>1031.0</ele>
        <time>2022-11-13T11:45:22.000Z</time>
      </trkpt>
      <trkpt lat="37.27553167" lon="-3.56996833">
        <ele>1031.0</ele>
        <time>2022-11-13T11:45:23.000Z</time>
      </trkpt>
      <trkpt lat="37.27554667" lon="-3.56997167">
        <ele>1031.0</ele>
        <time>2022-11-13T11:45:24.000Z</time>
      </trkpt>
      <trkpt lat="37.27556" lon="-3.569975">
        <ele>1031.0</ele>
        <time>2022-11-13T11:45:25.000Z</time>
      </trkpt>
      <trkpt lat="37.275575" lon="-3.56997833">
        <ele>1031.0</ele>
        <time>2022-11-13T11:45:26.000Z</time>
      </trkpt>
      <trkpt lat="37.27558833" lon="-3.56998167">
        <ele>1031.0</ele>
        <time>2022-11-13T11:45:27.000Z</time>
      </trkpt>
      <trkpt lat="37.275605" lon="-3.56998333">
        <ele>1031.0</ele>
        <time>2022-11-13T11:45:28.000Z</time>
      </trkpt>
      <trkpt lat="37.27562" lon="-3.56998833">
        <ele>1031.0</ele>
        <time>2022-11-13T11:45:29.000Z</time>
      </trkpt>
      <trkpt lat="37.27563333" lon="-3.56999667">
        <ele>1031.0</ele>
        <time>2022-11-13T11:45:30.000Z</time>
      </trkpt>
      <trkpt lat="37.27564833" lon="-3.57000167">
        <ele>1031.0</ele>
        <time>2022-11-13T11:45:31.000Z</time>
      </trkpt>
      <trkpt lat="37.27566333" lon="-3.57000667">
        <ele>1031.0</ele>
        <time>2022-11-13T11:45:32.000Z</time>
      </trkpt>
      <trkpt lat="37.275675" lon="-3.57001333">
        <ele>1031.0</ele>
        <time>2022-11-13T11:45:33.000Z</time>
      </trkpt>
      <trkpt lat="37.27568667" lon="-3.570025">
        <ele>1031.0</ele>
        <time>2022-11-13T11:45:34.000Z</time>
      </trkpt>
      <trkpt lat="37.27570167" lon="-3.57003667">
        <ele>1031.0</ele>
        <time>2022-11-13T11:45:35.000Z</time>
      </trkpt>
      <trkpt lat="37.27571667" lon="-3.57005">
        <ele>1031.0</ele>
        <time>2022-11-13T11:45:36.000Z</time>
      </trkpt>
      <trkpt lat="37.27573" lon="-3.57006333">
        <ele>1032.0</ele>
        <time>2022-11-13T11:45:37.000Z</time>
      </trkpt>
      <trkpt lat="37.27574333" lon="-3.57007667">
        <ele>1032.0</ele>
        <time>2022-11-13T11:45:38.000Z</time>
      </trkpt>
      <trkpt lat="37.27575833" lon="-3.57009">
        <ele>1032.0</ele>
        <time>2022-11-13T11:45:39.000Z</time>
      </trkpt>
      <trkpt lat="37.27577167" lon="-3.57010333">
        <ele>1032.0</ele>
        <time>2022-11-13T11:45:40.000Z</time>
      </trkpt>
      <trkpt lat="37.275785" lon="-3.57011833">
        <ele>1033.0</ele>
        <time>2022-11-13T11:45:41.000Z</time>
      </trkpt>
      <trkpt lat="37.275795" lon="-3.57013167">
        <ele>1033.0</ele>
        <time>2022-11-13T11:45:42.000Z</time>
      </trkpt>
      <trkpt lat="37.27580667" lon="-3.570145">
        <ele>1033.0</ele>
        <time>2022-11-13T11:45:43.000Z</time>
      </trkpt>
      <trkpt lat="37.27581667" lon="-3.57015667">
        <ele>1033.0</ele>
        <time>2022-11-13T11:45:44.000Z</time>
      </trkpt>
      <trkpt lat="37.275825" lon="-3.57017">
        <ele>1033.0</ele>
        <time>2022-11-13T11:45:45.000Z</time>
      </trkpt>
      <trkpt lat="37.27583167" lon="-3.57018167">
        <ele>1033.0</ele>
        <time>2022-11-13T11:45:46.000Z</time>
      </trkpt>
      <trkpt lat="37.27584" lon="-3.57019667">
        <ele>1033.0</ele>
        <time>2022-11-13T11:45:47.000Z</time>
      </trkpt>
      <trkpt lat="37.27584667" lon="-3.57021167">
        <ele>1034.0</ele>
        <time>2022-11-13T11:45:48.000Z</time>
      </trkpt>
      <trkpt lat="37.27585167" lon="-3.570225">
        <ele>1034.0</ele>
        <time>2022-11-13T11:45:49.000Z</time>
      </trkpt>
      <trkpt lat="37.275855" lon="-3.57024">
        <ele>1034.0</ele>
        <time>2022-11-13T11:45:50.000Z</time>
      </trkpt>
      <trkpt lat="37.27585833" lon="-3.57025333">
        <ele>1034.0</ele>
        <time>2022-11-13T11:45:51.000Z</time>
      </trkpt>
      <trkpt lat="37.27586" lon="-3.570265">
        <ele>1034.0</ele>
        <time>2022-11-13T11:45:52.000Z</time>
      </trkpt>
      <trkpt lat="37.27586" lon="-3.570275">
        <ele>1034.0</ele>
        <time>2022-11-13T11:45:53.000Z</time>
      </trkpt>
      <trkpt lat="37.27586167" lon="-3.57028333">
        <ele>1034.0</ele>
        <time>2022-11-13T11:45:54.000Z</time>
      </trkpt>
      <trkpt lat="37.275865" lon="-3.57029167">
        <ele>1034.0</ele>
        <time>2022-11-13T11:45:55.000Z</time>
      </trkpt>
      <trkpt lat="37.27587" lon="-3.57029833">
        <ele>1034.0</ele>
        <time>2022-11-13T11:45:56.000Z</time>
      </trkpt>
      <trkpt lat="37.27587333" lon="-3.57030333">
        <ele>1034.0</ele>
        <time>2022-11-13T11:45:57.000Z</time>
      </trkpt>
      <trkpt lat="37.27587667" lon="-3.57031">
        <ele>1034.0</ele>
        <time>2022-11-13T11:45:58.000Z</time>
      </trkpt>
      <trkpt lat="37.27588" lon="-3.57032">
        <ele>1034.0</ele>
        <time>2022-11-13T11:45:59.000Z</time>
      </trkpt>
      <trkpt lat="37.27588833" lon="-3.570325">
        <ele>1034.0</ele>
        <time>2022-11-13T11:46:00.000Z</time>
      </trkpt>
      <trkpt lat="37.27589667" lon="-3.57033167">
        <ele>1034.0</ele>
        <time>2022-11-13T11:46:01.000Z</time>
      </trkpt>
      <trkpt lat="37.27590333" lon="-3.57033667">
        <ele>1034.0</ele>
        <time>2022-11-13T11:46:02.000Z</time>
      </trkpt>
      <trkpt lat="37.27591167" lon="-3.57034167">
        <ele>1034.0</ele>
        <time>2022-11-13T11:46:03.000Z</time>
      </trkpt>
      <trkpt lat="37.27591667" lon="-3.570345">
        <ele>1034.0</ele>
        <time>2022-11-13T11:46:04.000Z</time>
      </trkpt>
      <trkpt lat="37.27591833" lon="-3.570345">
        <ele>1033.0</ele>
        <time>2022-11-13T11:46:05.000Z</time>
      </trkpt>
      <trkpt lat="37.27591833" lon="-3.57034667">
        <ele>1033.0</ele>
        <time>2022-11-13T11:46:06.000Z</time>
      </trkpt>
      <trkpt lat="37.27592" lon="-3.57034667">
        <ele>1033.0</ele>
        <time>2022-11-13T11:46:07.000Z</time>
      </trkpt>
      <trkpt lat="37.27592167" lon="-3.57035">
        <ele>1033.0</ele>
        <time>2022-11-13T11:46:08.000Z</time>
      </trkpt>
      <trkpt lat="37.27592667" lon="-3.57035333">
        <ele>1033.0</ele>
        <time>2022-11-13T11:46:09.000Z</time>
      </trkpt>
      <trkpt lat="37.27593" lon="-3.57035333">
        <ele>1033.0</ele>
        <time>2022-11-13T11:46:10.000Z</time>
      </trkpt>
      <trkpt lat="37.275935" lon="-3.57035">
        <ele>1033.0</ele>
        <time>2022-11-13T11:46:11.000Z</time>
      </trkpt>
      <trkpt lat="37.27593833" lon="-3.57034667">
        <ele>1033.0</ele>
        <time>2022-11-13T11:46:12.000Z</time>
      </trkpt>
      <trkpt lat="37.27594167" lon="-3.57034167">
        <ele>1033.0</ele>
        <time>2022-11-13T11:46:13.000Z</time>
      </trkpt>
      <trkpt lat="37.27594167" lon="-3.57033667">
        <ele>1033.0</ele>
        <time>2022-11-13T11:46:14.000Z</time>
      </trkpt>
      <trkpt lat="37.27594333" lon="-3.57033">
        <ele>1033.0</ele>
        <time>2022-11-13T11:46:15.000Z</time>
      </trkpt>
      <trkpt lat="37.275945" lon="-3.57032333">
        <ele>1033.0</ele>
        <time>2022-11-13T11:46:16.000Z</time>
      </trkpt>
      <trkpt lat="37.27594833" lon="-3.57031667">
        <ele>1033.0</ele>
        <time>2022-11-13T11:46:17.000Z</time>
      </trkpt>
      <trkpt lat="37.27594833" lon="-3.57030833">
        <ele>1033.0</ele>
        <time>2022-11-13T11:46:18.000Z</time>
      </trkpt>
      <trkpt lat="37.27595167" lon="-3.5703">
        <ele>1033.0</ele>
        <time>2022-11-13T11:46:19.000Z</time>
      </trkpt>
      <trkpt lat="37.27595333" lon="-3.57029333">
        <ele>1033.0</ele>
        <time>2022-11-13T11:46:20.000Z</time>
      </trkpt>
      <trkpt lat="37.275955" lon="-3.57028833">
        <ele>1033.0</ele>
        <time>2022-11-13T11:46:21.000Z</time>
      </trkpt>
      <trkpt lat="37.275955" lon="-3.57028333">
        <ele>1033.0</ele>
        <time>2022-11-13T11:46:22.000Z</time>
      </trkpt>
      <trkpt lat="37.27595333" lon="-3.57027667">
        <ele>1033.0</ele>
        <time>2022-11-13T11:46:23.000Z</time>
      </trkpt>
      <trkpt lat="37.27595333" lon="-3.57026833">
        <ele>1033.0</ele>
        <time>2022-11-13T11:46:24.000Z</time>
      </trkpt>
      <trkpt lat="37.27595167" lon="-3.57026">
        <ele>1033.0</ele>
        <time>2022-11-13T11:46:25.000Z</time>
      </trkpt>
      <trkpt lat="37.27595333" lon="-3.57025">
        <ele>1033.0</ele>
        <time>2022-11-13T11:46:26.000Z</time>
      </trkpt>
      <trkpt lat="37.27595667" lon="-3.57024">
        <ele>1032.0</ele>
        <time>2022-11-13T11:46:27.000Z</time>
      </trkpt>
      <trkpt lat="37.27596167" lon="-3.57023">
        <ele>1032.0</ele>
        <time>2022-11-13T11:46:28.000Z</time>
      </trkpt>
      <trkpt lat="37.27596667" lon="-3.57022167">
        <ele>1032.0</ele>
        <time>2022-11-13T11:46:29.000Z</time>
      </trkpt>
      <trkpt lat="37.27596833" lon="-3.57021333">
        <ele>1032.0</ele>
        <time>2022-11-13T11:46:30.000Z</time>
      </trkpt>
      <trkpt lat="37.27597167" lon="-3.57020667">
        <ele>1032.0</ele>
        <time>2022-11-13T11:46:31.000Z</time>
      </trkpt>
      <trkpt lat="37.275975" lon="-3.57019833">
        <ele>1032.0</ele>
        <time>2022-11-13T11:46:32.000Z</time>
      </trkpt>
      <trkpt lat="37.275975" lon="-3.57019">
        <ele>1032.0</ele>
        <time>2022-11-13T11:46:33.000Z</time>
      </trkpt>
      <trkpt lat="37.275975" lon="-3.57018333">
        <ele>1032.0</ele>
        <time>2022-11-13T11:46:34.000Z</time>
      </trkpt>
      <trkpt lat="37.27597667" lon="-3.57017333">
        <ele>1032.0</ele>
        <time>2022-11-13T11:46:35.000Z</time>
      </trkpt>
      <trkpt lat="37.27598" lon="-3.570165">
        <ele>1032.0</ele>
        <time>2022-11-13T11:46:36.000Z</time>
      </trkpt>
      <trkpt lat="37.275985" lon="-3.570155">
        <ele>1032.0</ele>
        <time>2022-11-13T11:46:37.000Z</time>
      </trkpt>
      <trkpt lat="37.27598833" lon="-3.570145">
        <ele>1032.0</ele>
        <time>2022-11-13T11:46:38.000Z</time>
      </trkpt>
      <trkpt lat="37.27599333" lon="-3.570135">
        <ele>1032.0</ele>
        <time>2022-11-13T11:46:39.000Z</time>
      </trkpt>
      <trkpt lat="37.27599667" lon="-3.57012667">
        <ele>1032.0</ele>
        <time>2022-11-13T11:46:40.000Z</time>
      </trkpt>
      <trkpt lat="37.27600167" lon="-3.57011667">
        <ele>1032.0</ele>
        <time>2022-11-13T11:46:41.000Z</time>
      </trkpt>
      <trkpt lat="37.27600667" lon="-3.57010833">
        <ele>1032.0</ele>
        <time>2022-11-13T11:46:42.000Z</time>
      </trkpt>
      <trkpt lat="37.27601" lon="-3.57009833">
        <ele>1032.0</ele>
        <time>2022-11-13T11:46:43.000Z</time>
      </trkpt>
      <trkpt lat="37.27601667" lon="-3.57008833">
        <ele>1032.0</ele>
        <time>2022-11-13T11:46:44.000Z</time>
      </trkpt>
      <trkpt lat="37.27602167" lon="-3.57008">
        <ele>1032.0</ele>
        <time>2022-11-13T11:46:45.000Z</time>
      </trkpt>
      <trkpt lat="37.27602667" lon="-3.57007">
        <ele>1032.0</ele>
        <time>2022-11-13T11:46:46.000Z</time>
      </trkpt>
      <trkpt lat="37.27603167" lon="-3.57006167">
        <ele>1032.0</ele>
        <time>2022-11-13T11:46:47.000Z</time>
      </trkpt>
      <trkpt lat="37.27603667" lon="-3.570055">
        <ele>1032.0</ele>
        <time>2022-11-13T11:46:48.000Z</time>
      </trkpt>
      <trkpt lat="37.27604333" lon="-3.57004667">
        <ele>1032.0</ele>
        <time>2022-11-13T11:46:49.000Z</time>
      </trkpt>
      <trkpt lat="37.27605" lon="-3.57003833">
        <ele>1032.0</ele>
        <time>2022-11-13T11:46:50.000Z</time>
      </trkpt>
      <trkpt lat="37.27606" lon="-3.57003167">
        <ele>1032.0</ele>
        <time>2022-11-13T11:46:51.000Z</time>
      </trkpt>
      <trkpt lat="37.27607" lon="-3.570025">
        <ele>1032.0</ele>
        <time>2022-11-13T11:46:52.000Z</time>
      </trkpt>
      <trkpt lat="37.27607833" lon="-3.57002">
        <ele>1032.0</ele>
        <time>2022-11-13T11:46:53.000Z</time>
      </trkpt>
      <trkpt lat="37.27608833" lon="-3.57001167">
        <ele>1033.0</ele>
        <time>2022-11-13T11:46:54.000Z</time>
      </trkpt>
      <trkpt lat="37.27609667" lon="-3.57000667">
        <ele>1033.0</ele>
        <time>2022-11-13T11:46:55.000Z</time>
      </trkpt>
      <trkpt lat="37.27610667" lon="-3.57">
        <ele>1033.0</ele>
        <time>2022-11-13T11:46:56.000Z</time>
      </trkpt>
      <trkpt lat="37.27611667" lon="-3.569995">
        <ele>1033.0</ele>
        <time>2022-11-13T11:46:57.000Z</time>
      </trkpt>
      <trkpt lat="37.276125" lon="-3.56999">
        <ele>1033.0</ele>
        <time>2022-11-13T11:46:58.000Z</time>
      </trkpt>
      <trkpt lat="37.27613333" lon="-3.569985">
        <ele>1033.0</ele>
        <time>2022-11-13T11:46:59.000Z</time>
      </trkpt>
      <trkpt lat="37.27614167" lon="-3.56998">
        <ele>1033.0</ele>
        <time>2022-11-13T11:47:00.000Z</time>
      </trkpt>
      <trkpt lat="37.27615167" lon="-3.56997167">
        <ele>1033.0</ele>
        <time>2022-11-13T11:47:01.000Z</time>
      </trkpt>
      <trkpt lat="37.27616167" lon="-3.56996833">
        <ele>1033.0</ele>
        <time>2022-11-13T11:47:02.000Z</time>
      </trkpt>
      <trkpt lat="37.27617167" lon="-3.569965">
        <ele>1033.0</ele>
        <time>2022-11-13T11:47:03.000Z</time>
      </trkpt>
      <trkpt lat="37.27618167" lon="-3.56995833">
        <ele>1033.0</ele>
        <time>2022-11-13T11:47:04.000Z</time>
      </trkpt>
      <trkpt lat="37.27619333" lon="-3.56995333">
        <ele>1033.0</ele>
        <time>2022-11-13T11:47:05.000Z</time>
      </trkpt>
      <trkpt lat="37.27620167" lon="-3.56995">
        <ele>1033.0</ele>
        <time>2022-11-13T11:47:06.000Z</time>
      </trkpt>
      <trkpt lat="37.27621333" lon="-3.56994833">
        <ele>1033.0</ele>
        <time>2022-11-13T11:47:07.000Z</time>
      </trkpt>
      <trkpt lat="37.276225" lon="-3.569945">
        <ele>1033.0</ele>
        <time>2022-11-13T11:47:08.000Z</time>
      </trkpt>
      <trkpt lat="37.27624" lon="-3.56994">
        <ele>1033.0</ele>
        <time>2022-11-13T11:47:09.000Z</time>
      </trkpt>
      <trkpt lat="37.27625167" lon="-3.56993667">
        <ele>1033.0</ele>
        <time>2022-11-13T11:47:10.000Z</time>
      </trkpt>
      <trkpt lat="37.276265" lon="-3.56993333">
        <ele>1034.0</ele>
        <time>2022-11-13T11:47:11.000Z</time>
      </trkpt>
      <trkpt lat="37.27627833" lon="-3.56993167">
        <ele>1034.0</ele>
        <time>2022-11-13T11:47:12.000Z</time>
      </trkpt>
      <trkpt lat="37.27629167" lon="-3.56993">
        <ele>1034.0</ele>
        <time>2022-11-13T11:47:13.000Z</time>
      </trkpt>
      <trkpt lat="37.276305" lon="-3.56992833">
        <ele>1034.0</ele>
        <time>2022-11-13T11:47:14.000Z</time>
      </trkpt>
      <trkpt lat="37.27631667" lon="-3.56992833">
        <ele>1034.0</ele>
        <time>2022-11-13T11:47:15.000Z</time>
      </trkpt>
      <trkpt lat="37.27632833" lon="-3.56992667">
        <ele>1034.0</ele>
        <time>2022-11-13T11:47:16.000Z</time>
      </trkpt>
      <trkpt lat="37.27634167" lon="-3.56992667">
        <ele>1034.0</ele>
        <time>2022-11-13T11:47:17.000Z</time>
      </trkpt>
      <trkpt lat="37.27635333" lon="-3.56992667">
        <ele>1034.0</ele>
        <time>2022-11-13T11:47:18.000Z</time>
      </trkpt>
      <trkpt lat="37.27636667" lon="-3.569925">
        <ele>1035.0</ele>
        <time>2022-11-13T11:47:19.000Z</time>
      </trkpt>
      <trkpt lat="37.27637833" lon="-3.56992167">
        <ele>1035.0</ele>
        <time>2022-11-13T11:47:20.000Z</time>
      </trkpt>
      <trkpt lat="37.27639" lon="-3.56992">
        <ele>1035.0</ele>
        <time>2022-11-13T11:47:21.000Z</time>
      </trkpt>
      <trkpt lat="37.27640333" lon="-3.56992">
        <ele>1035.0</ele>
        <time>2022-11-13T11:47:22.000Z</time>
      </trkpt>
      <trkpt lat="37.27641833" lon="-3.56992333">
        <ele>1036.0</ele>
        <time>2022-11-13T11:47:23.000Z</time>
      </trkpt>
      <trkpt lat="37.27643167" lon="-3.56992667">
        <ele>1036.0</ele>
        <time>2022-11-13T11:47:24.000Z</time>
      </trkpt>
      <trkpt lat="37.27644333" lon="-3.56993">
        <ele>1036.0</ele>
        <time>2022-11-13T11:47:25.000Z</time>
      </trkpt>
      <trkpt lat="37.27645333" lon="-3.56993333">
        <ele>1036.0</ele>
        <time>2022-11-13T11:47:26.000Z</time>
      </trkpt>
      <trkpt lat="37.27646333" lon="-3.56993833">
        <ele>1036.0</ele>
        <time>2022-11-13T11:47:27.000Z</time>
      </trkpt>
      <trkpt lat="37.27647333" lon="-3.56994333">
        <ele>1036.0</ele>
        <time>2022-11-13T11:47:28.000Z</time>
      </trkpt>
      <trkpt lat="37.27648333" lon="-3.56994667">
        <ele>1036.0</ele>
        <time>2022-11-13T11:47:29.000Z</time>
      </trkpt>
      <trkpt lat="37.27649667" lon="-3.56994833">
        <ele>1036.0</ele>
        <time>2022-11-13T11:47:30.000Z</time>
      </trkpt>
      <trkpt lat="37.27650833" lon="-3.56995333">
        <ele>1036.0</ele>
        <time>2022-11-13T11:47:31.000Z</time>
      </trkpt>
      <trkpt lat="37.27651833" lon="-3.56995833">
        <ele>1036.0</ele>
        <time>2022-11-13T11:47:32.000Z</time>
      </trkpt>
      <trkpt lat="37.27652833" lon="-3.56996167">
        <ele>1036.0</ele>
        <time>2022-11-13T11:47:33.000Z</time>
      </trkpt>
      <trkpt lat="37.27654" lon="-3.569965">
        <ele>1036.0</ele>
        <time>2022-11-13T11:47:34.000Z</time>
      </trkpt>
      <trkpt lat="37.27655" lon="-3.56996833">
        <ele>1036.0</ele>
        <time>2022-11-13T11:47:35.000Z</time>
      </trkpt>
      <trkpt lat="37.27656" lon="-3.569975">
        <ele>1036.0</ele>
        <time>2022-11-13T11:47:36.000Z</time>
      </trkpt>
      <trkpt lat="37.27657" lon="-3.56998">
        <ele>1036.0</ele>
        <time>2022-11-13T11:47:37.000Z</time>
      </trkpt>
      <trkpt lat="37.27658" lon="-3.569985">
        <ele>1036.0</ele>
        <time>2022-11-13T11:47:38.000Z</time>
      </trkpt>
      <trkpt lat="37.27659167" lon="-3.56998833">
        <ele>1036.0</ele>
        <time>2022-11-13T11:47:39.000Z</time>
      </trkpt>
      <trkpt lat="37.27660333" lon="-3.56999">
        <ele>1036.0</ele>
        <time>2022-11-13T11:47:40.000Z</time>
      </trkpt>
      <trkpt lat="37.27661667" lon="-3.569995">
        <ele>1036.0</ele>
        <time>2022-11-13T11:47:41.000Z</time>
      </trkpt>
      <trkpt lat="37.27662833" lon="-3.57">
        <ele>1036.0</ele>
        <time>2022-11-13T11:47:42.000Z</time>
      </trkpt>
      <trkpt lat="37.27663833" lon="-3.57000333">
        <ele>1036.0</ele>
        <time>2022-11-13T11:47:43.000Z</time>
      </trkpt>
      <trkpt lat="37.27664833" lon="-3.570005">
        <ele>1036.0</ele>
        <time>2022-11-13T11:47:44.000Z</time>
      </trkpt>
      <trkpt lat="37.27665833" lon="-3.57000833">
        <ele>1036.0</ele>
        <time>2022-11-13T11:47:45.000Z</time>
      </trkpt>
      <trkpt lat="37.27666833" lon="-3.57000833">
        <ele>1036.0</ele>
        <time>2022-11-13T11:47:46.000Z</time>
      </trkpt>
      <trkpt lat="37.27667833" lon="-3.57001333">
        <ele>1036.0</ele>
        <time>2022-11-13T11:47:47.000Z</time>
      </trkpt>
      <trkpt lat="37.27668667" lon="-3.57002167">
        <ele>1036.0</ele>
        <time>2022-11-13T11:47:48.000Z</time>
      </trkpt>
      <trkpt lat="37.27669667" lon="-3.57002667">
        <ele>1035.0</ele>
        <time>2022-11-13T11:47:49.000Z</time>
      </trkpt>
      <trkpt lat="37.276705" lon="-3.57003167">
        <ele>1035.0</ele>
        <time>2022-11-13T11:47:50.000Z</time>
      </trkpt>
      <trkpt lat="37.27671167" lon="-3.57003833">
        <ele>1035.0</ele>
        <time>2022-11-13T11:47:51.000Z</time>
      </trkpt>
      <trkpt lat="37.27672167" lon="-3.57004167">
        <ele>1035.0</ele>
        <time>2022-11-13T11:47:52.000Z</time>
      </trkpt>
      <trkpt lat="37.27673" lon="-3.57004167">
        <ele>1035.0</ele>
        <time>2022-11-13T11:47:53.000Z</time>
      </trkpt>
      <trkpt lat="37.27674" lon="-3.570035">
        <ele>1035.0</ele>
        <time>2022-11-13T11:47:54.000Z</time>
      </trkpt>
      <trkpt lat="37.27674833" lon="-3.57002333">
        <ele>1035.0</ele>
        <time>2022-11-13T11:47:55.000Z</time>
      </trkpt>
      <trkpt lat="37.276755" lon="-3.57001167">
        <ele>1035.0</ele>
        <time>2022-11-13T11:47:56.000Z</time>
      </trkpt>
      <trkpt lat="37.27676167" lon="-3.57">
        <ele>1035.0</ele>
        <time>2022-11-13T11:47:57.000Z</time>
      </trkpt>
      <trkpt lat="37.27676667" lon="-3.56999">
        <ele>1035.0</ele>
        <time>2022-11-13T11:47:58.000Z</time>
      </trkpt>
      <trkpt lat="37.27677333" lon="-3.56997833">
        <ele>1035.0</ele>
        <time>2022-11-13T11:47:59.000Z</time>
      </trkpt>
      <trkpt lat="37.27678" lon="-3.569965">
        <ele>1035.0</ele>
        <time>2022-11-13T11:48:00.000Z</time>
      </trkpt>
      <trkpt lat="37.27678667" lon="-3.56995333">
        <ele>1035.0</ele>
        <time>2022-11-13T11:48:01.000Z</time>
      </trkpt>
      <trkpt lat="37.27679667" lon="-3.56994167">
        <ele>1035.0</ele>
        <time>2022-11-13T11:48:02.000Z</time>
      </trkpt>
      <trkpt lat="37.276805" lon="-3.56993">
        <ele>1035.0</ele>
        <time>2022-11-13T11:48:03.000Z</time>
      </trkpt>
      <trkpt lat="37.27681167" lon="-3.56991833">
        <ele>1035.0</ele>
        <time>2022-11-13T11:48:04.000Z</time>
      </trkpt>
      <trkpt lat="37.27682167" lon="-3.569905">
        <ele>1035.0</ele>
        <time>2022-11-13T11:48:05.000Z</time>
      </trkpt>
      <trkpt lat="37.27683" lon="-3.569895">
        <ele>1035.0</ele>
        <time>2022-11-13T11:48:06.000Z</time>
      </trkpt>
      <trkpt lat="37.27683667" lon="-3.56988333">
        <ele>1036.0</ele>
        <time>2022-11-13T11:48:07.000Z</time>
      </trkpt>
      <trkpt lat="37.27684" lon="-3.56987">
        <ele>1036.0</ele>
        <time>2022-11-13T11:48:08.000Z</time>
      </trkpt>
      <trkpt lat="37.276845" lon="-3.56985833">
        <ele>1036.0</ele>
        <time>2022-11-13T11:48:09.000Z</time>
      </trkpt>
      <trkpt lat="37.27685333" lon="-3.56985333">
        <ele>1037.0</ele>
        <time>2022-11-13T11:48:10.000Z</time>
      </trkpt>
      <trkpt lat="37.276865" lon="-3.56985">
        <ele>1037.0</ele>
        <time>2022-11-13T11:48:11.000Z</time>
      </trkpt>
      <trkpt lat="37.276875" lon="-3.56985167">
        <ele>1037.0</ele>
        <time>2022-11-13T11:48:12.000Z</time>
      </trkpt>
      <trkpt lat="37.27688333" lon="-3.56985333">
        <ele>1037.0</ele>
        <time>2022-11-13T11:48:13.000Z</time>
      </trkpt>
      <trkpt lat="37.27689167" lon="-3.56985333">
        <ele>1038.0</ele>
        <time>2022-11-13T11:48:14.000Z</time>
      </trkpt>
      <trkpt lat="37.27690167" lon="-3.56985667">
        <ele>1038.0</ele>
        <time>2022-11-13T11:48:15.000Z</time>
      </trkpt>
      <trkpt lat="37.27691167" lon="-3.56985833">
        <ele>1038.0</ele>
        <time>2022-11-13T11:48:16.000Z</time>
      </trkpt>
      <trkpt lat="37.27692167" lon="-3.56986333">
        <ele>1038.0</ele>
        <time>2022-11-13T11:48:17.000Z</time>
      </trkpt>
      <trkpt lat="37.27693333" lon="-3.56986833">
        <ele>1038.0</ele>
        <time>2022-11-13T11:48:18.000Z</time>
      </trkpt>
      <trkpt lat="37.27694333" lon="-3.56987333">
        <ele>1039.0</ele>
        <time>2022-11-13T11:48:19.000Z</time>
      </trkpt>
      <trkpt lat="37.27695667" lon="-3.56987667">
        <ele>1039.0</ele>
        <time>2022-11-13T11:48:20.000Z</time>
      </trkpt>
      <trkpt lat="37.27696833" lon="-3.56988167">
        <ele>1039.0</ele>
        <time>2022-11-13T11:48:21.000Z</time>
      </trkpt>
      <trkpt lat="37.27697833" lon="-3.56988833">
        <ele>1039.0</ele>
        <time>2022-11-13T11:48:22.000Z</time>
      </trkpt>
      <trkpt lat="37.27698667" lon="-3.56989667">
        <ele>1039.0</ele>
        <time>2022-11-13T11:48:23.000Z</time>
      </trkpt>
      <trkpt lat="37.27699667" lon="-3.56990167">
        <ele>1039.0</ele>
        <time>2022-11-13T11:48:24.000Z</time>
      </trkpt>
      <trkpt lat="37.27700667" lon="-3.56991">
        <ele>1039.0</ele>
        <time>2022-11-13T11:48:25.000Z</time>
      </trkpt>
      <trkpt lat="37.277015" lon="-3.56991833">
        <ele>1039.0</ele>
        <time>2022-11-13T11:48:26.000Z</time>
      </trkpt>
      <trkpt lat="37.27702333" lon="-3.569925">
        <ele>1039.0</ele>
        <time>2022-11-13T11:48:27.000Z</time>
      </trkpt>
      <trkpt lat="37.27703167" lon="-3.56993333">
        <ele>1039.0</ele>
        <time>2022-11-13T11:48:28.000Z</time>
      </trkpt>
      <trkpt lat="37.27704333" lon="-3.56994">
        <ele>1039.0</ele>
        <time>2022-11-13T11:48:29.000Z</time>
      </trkpt>
      <trkpt lat="37.27705667" lon="-3.56994667">
        <ele>1039.0</ele>
        <time>2022-11-13T11:48:30.000Z</time>
      </trkpt>
      <trkpt lat="37.27707" lon="-3.56995667">
        <ele>1039.0</ele>
        <time>2022-11-13T11:48:31.000Z</time>
      </trkpt>
      <trkpt lat="37.27708167" lon="-3.569965">
        <ele>1039.0</ele>
        <time>2022-11-13T11:48:32.000Z</time>
      </trkpt>
      <trkpt lat="37.27709333" lon="-3.56997167">
        <ele>1039.0</ele>
        <time>2022-11-13T11:48:33.000Z</time>
      </trkpt>
      <trkpt lat="37.277105" lon="-3.56998">
        <ele>1039.0</ele>
        <time>2022-11-13T11:48:34.000Z</time>
      </trkpt>
      <trkpt lat="37.277115" lon="-3.56998667">
        <ele>1039.0</ele>
        <time>2022-11-13T11:48:35.000Z</time>
      </trkpt>
      <trkpt lat="37.277125" lon="-3.56999333">
        <ele>1039.0</ele>
        <time>2022-11-13T11:48:36.000Z</time>
      </trkpt>
      <trkpt lat="37.27713333" lon="-3.57">
        <ele>1039.0</ele>
        <time>2022-11-13T11:48:37.000Z</time>
      </trkpt>
      <trkpt lat="37.27714333" lon="-3.57001">
        <ele>1039.0</ele>
        <time>2022-11-13T11:48:38.000Z</time>
      </trkpt>
      <trkpt lat="37.277155" lon="-3.57001667">
        <ele>1039.0</ele>
        <time>2022-11-13T11:48:39.000Z</time>
      </trkpt>
      <trkpt lat="37.27717" lon="-3.570025">
        <ele>1039.0</ele>
        <time>2022-11-13T11:48:40.000Z</time>
      </trkpt>
      <trkpt lat="37.277185" lon="-3.57003667">
        <ele>1039.0</ele>
        <time>2022-11-13T11:48:41.000Z</time>
      </trkpt>
      <trkpt lat="37.2772" lon="-3.57004667">
        <ele>1039.0</ele>
        <time>2022-11-13T11:48:42.000Z</time>
      </trkpt>
      <trkpt lat="37.277215" lon="-3.57005667">
        <ele>1039.0</ele>
        <time>2022-11-13T11:48:43.000Z</time>
      </trkpt>
      <trkpt lat="37.27723" lon="-3.57006667">
        <ele>1039.0</ele>
        <time>2022-11-13T11:48:44.000Z</time>
      </trkpt>
      <trkpt lat="37.277245" lon="-3.57008">
        <ele>1040.0</ele>
        <time>2022-11-13T11:48:45.000Z</time>
      </trkpt>
      <trkpt lat="37.27726" lon="-3.57009167">
        <ele>1040.0</ele>
        <time>2022-11-13T11:48:46.000Z</time>
      </trkpt>
      <trkpt lat="37.277275" lon="-3.570105">
        <ele>1040.0</ele>
        <time>2022-11-13T11:48:47.000Z</time>
      </trkpt>
      <trkpt lat="37.27728833" lon="-3.570115">
        <ele>1040.0</ele>
        <time>2022-11-13T11:48:48.000Z</time>
      </trkpt>
      <trkpt lat="37.27730167" lon="-3.57012833">
        <ele>1040.0</ele>
        <time>2022-11-13T11:48:49.000Z</time>
      </trkpt>
      <trkpt lat="37.277315" lon="-3.57014167">
        <ele>1040.0</ele>
        <time>2022-11-13T11:48:50.000Z</time>
      </trkpt>
      <trkpt lat="37.277325" lon="-3.570155">
        <ele>1040.0</ele>
        <time>2022-11-13T11:48:51.000Z</time>
      </trkpt>
      <trkpt lat="37.27733667" lon="-3.57017">
        <ele>1040.0</ele>
        <time>2022-11-13T11:48:52.000Z</time>
      </trkpt>
      <trkpt lat="37.27734833" lon="-3.570185">
        <ele>1040.0</ele>
        <time>2022-11-13T11:48:53.000Z</time>
      </trkpt>
      <trkpt lat="37.27735667" lon="-3.57019833">
        <ele>1040.0</ele>
        <time>2022-11-13T11:48:54.000Z</time>
      </trkpt>
      <trkpt lat="37.27736667" lon="-3.57021333">
        <ele>1040.0</ele>
        <time>2022-11-13T11:48:55.000Z</time>
      </trkpt>
      <trkpt lat="37.27737667" lon="-3.57022833">
        <ele>1040.0</ele>
        <time>2022-11-13T11:48:56.000Z</time>
      </trkpt>
      <trkpt lat="37.27738667" lon="-3.57024167">
        <ele>1040.0</ele>
        <time>2022-11-13T11:48:57.000Z</time>
      </trkpt>
      <trkpt lat="37.27739667" lon="-3.57025333">
        <ele>1040.0</ele>
        <time>2022-11-13T11:48:58.000Z</time>
      </trkpt>
      <trkpt lat="37.27740667" lon="-3.57026667">
        <ele>1040.0</ele>
        <time>2022-11-13T11:48:59.000Z</time>
      </trkpt>
      <trkpt lat="37.277415" lon="-3.57028167">
        <ele>1040.0</ele>
        <time>2022-11-13T11:49:00.000Z</time>
      </trkpt>
      <trkpt lat="37.27742333" lon="-3.57029667">
        <ele>1040.0</ele>
        <time>2022-11-13T11:49:01.000Z</time>
      </trkpt>
      <trkpt lat="37.27743" lon="-3.57031167">
        <ele>1041.0</ele>
        <time>2022-11-13T11:49:02.000Z</time>
      </trkpt>
      <trkpt lat="37.27744" lon="-3.57032667">
        <ele>1041.0</ele>
        <time>2022-11-13T11:49:03.000Z</time>
      </trkpt>
      <trkpt lat="37.27744833" lon="-3.57034">
        <ele>1041.0</ele>
        <time>2022-11-13T11:49:04.000Z</time>
      </trkpt>
      <trkpt lat="37.277455" lon="-3.570355">
        <ele>1041.0</ele>
        <time>2022-11-13T11:49:05.000Z</time>
      </trkpt>
      <trkpt lat="37.277465" lon="-3.57036667">
        <ele>1041.0</ele>
        <time>2022-11-13T11:49:06.000Z</time>
      </trkpt>
      <trkpt lat="37.277475" lon="-3.57037667">
        <ele>1040.0</ele>
        <time>2022-11-13T11:49:07.000Z</time>
      </trkpt>
      <trkpt lat="37.277485" lon="-3.57038833">
        <ele>1040.0</ele>
        <time>2022-11-13T11:49:08.000Z</time>
      </trkpt>
      <trkpt lat="37.27749667" lon="-3.5704">
        <ele>1040.0</ele>
        <time>2022-11-13T11:49:09.000Z</time>
      </trkpt>
      <trkpt lat="37.277505" lon="-3.57041333">
        <ele>1040.0</ele>
        <time>2022-11-13T11:49:10.000Z</time>
      </trkpt>
      <trkpt lat="37.277515" lon="-3.57042667">
        <ele>1040.0</ele>
        <time>2022-11-13T11:49:11.000Z</time>
      </trkpt>
      <trkpt lat="37.277525" lon="-3.57044167">
        <ele>1040.0</ele>
        <time>2022-11-13T11:49:12.000Z</time>
      </trkpt>
      <trkpt lat="37.277535" lon="-3.57045667">
        <ele>1040.0</ele>
        <time>2022-11-13T11:49:13.000Z</time>
      </trkpt>
      <trkpt lat="37.27754333" lon="-3.57047">
        <ele>1040.0</ele>
        <time>2022-11-13T11:49:14.000Z</time>
      </trkpt>
      <trkpt lat="37.27755167" lon="-3.57048333">
        <ele>1040.0</ele>
        <time>2022-11-13T11:49:15.000Z</time>
      </trkpt>
      <trkpt lat="37.27756" lon="-3.57049667">
        <ele>1040.0</ele>
        <time>2022-11-13T11:49:16.000Z</time>
      </trkpt>
      <trkpt lat="37.27756667" lon="-3.57051">
        <ele>1040.0</ele>
        <time>2022-11-13T11:49:17.000Z</time>
      </trkpt>
      <trkpt lat="37.27757333" lon="-3.57052333">
        <ele>1040.0</ele>
        <time>2022-11-13T11:49:18.000Z</time>
      </trkpt>
      <trkpt lat="37.27758167" lon="-3.570535">
        <ele>1040.0</ele>
        <time>2022-11-13T11:49:19.000Z</time>
      </trkpt>
      <trkpt lat="37.27759" lon="-3.57054833">
        <ele>1040.0</ele>
        <time>2022-11-13T11:49:20.000Z</time>
      </trkpt>
      <trkpt lat="37.27759833" lon="-3.57056167">
        <ele>1039.0</ele>
        <time>2022-11-13T11:49:21.000Z</time>
      </trkpt>
      <trkpt lat="37.27760833" lon="-3.57057833">
        <ele>1039.0</ele>
        <time>2022-11-13T11:49:22.000Z</time>
      </trkpt>
      <trkpt lat="37.27761667" lon="-3.570595">
        <ele>1039.0</ele>
        <time>2022-11-13T11:49:23.000Z</time>
      </trkpt>
      <trkpt lat="37.277625" lon="-3.57061">
        <ele>1039.0</ele>
        <time>2022-11-13T11:49:24.000Z</time>
      </trkpt>
      <trkpt lat="37.277635" lon="-3.570625">
        <ele>1039.0</ele>
        <time>2022-11-13T11:49:25.000Z</time>
      </trkpt>
      <trkpt lat="37.277645" lon="-3.57063833">
        <ele>1039.0</ele>
        <time>2022-11-13T11:49:26.000Z</time>
      </trkpt>
      <trkpt lat="37.277655" lon="-3.57065167">
        <ele>1039.0</ele>
        <time>2022-11-13T11:49:27.000Z</time>
      </trkpt>
      <trkpt lat="37.277665" lon="-3.570665">
        <ele>1038.0</ele>
        <time>2022-11-13T11:49:28.000Z</time>
      </trkpt>
      <trkpt lat="37.27767333" lon="-3.570675">
        <ele>1038.0</ele>
        <time>2022-11-13T11:49:29.000Z</time>
      </trkpt>
      <trkpt lat="37.277685" lon="-3.57068333">
        <ele>1038.0</ele>
        <time>2022-11-13T11:49:30.000Z</time>
      </trkpt>
      <trkpt lat="37.27769667" lon="-3.57069">
        <ele>1038.0</ele>
        <time>2022-11-13T11:49:31.000Z</time>
      </trkpt>
      <trkpt lat="37.27770833" lon="-3.570695">
        <ele>1038.0</ele>
        <time>2022-11-13T11:49:32.000Z</time>
      </trkpt>
      <trkpt lat="37.27772" lon="-3.57070167">
        <ele>1038.0</ele>
        <time>2022-11-13T11:49:33.000Z</time>
      </trkpt>
      <trkpt lat="37.27773167" lon="-3.57070667">
        <ele>1038.0</ele>
        <time>2022-11-13T11:49:34.000Z</time>
      </trkpt>
      <trkpt lat="37.27774333" lon="-3.57071167">
        <ele>1038.0</ele>
        <time>2022-11-13T11:49:35.000Z</time>
      </trkpt>
      <trkpt lat="37.277755" lon="-3.57071667">
        <ele>1038.0</ele>
        <time>2022-11-13T11:49:36.000Z</time>
      </trkpt>
      <trkpt lat="37.27776667" lon="-3.57072">
        <ele>1038.0</ele>
        <time>2022-11-13T11:49:37.000Z</time>
      </trkpt>
      <trkpt lat="37.27777833" lon="-3.57072667">
        <ele>1038.0</ele>
        <time>2022-11-13T11:49:38.000Z</time>
      </trkpt>
      <trkpt lat="37.27778833" lon="-3.57073167">
        <ele>1038.0</ele>
        <time>2022-11-13T11:49:39.000Z</time>
      </trkpt>
      <trkpt lat="37.27779833" lon="-3.57073667">
        <ele>1038.0</ele>
        <time>2022-11-13T11:49:40.000Z</time>
      </trkpt>
      <trkpt lat="37.27780833" lon="-3.57074">
        <ele>1038.0</ele>
        <time>2022-11-13T11:49:41.000Z</time>
      </trkpt>
      <trkpt lat="37.27781667" lon="-3.570745">
        <ele>1039.0</ele>
        <time>2022-11-13T11:49:42.000Z</time>
      </trkpt>
      <trkpt lat="37.27782833" lon="-3.57074833">
        <ele>1039.0</ele>
        <time>2022-11-13T11:49:43.000Z</time>
      </trkpt>
      <trkpt lat="37.27783667" lon="-3.570755">
        <ele>1039.0</ele>
        <time>2022-11-13T11:49:44.000Z</time>
      </trkpt>
      <trkpt lat="37.277845" lon="-3.57076">
        <ele>1039.0</ele>
        <time>2022-11-13T11:49:45.000Z</time>
      </trkpt>
      <trkpt lat="37.27785333" lon="-3.57076833">
        <ele>1039.0</ele>
        <time>2022-11-13T11:49:46.000Z</time>
      </trkpt>
      <trkpt lat="37.27786167" lon="-3.570775">
        <ele>1039.0</ele>
        <time>2022-11-13T11:49:47.000Z</time>
      </trkpt>
      <trkpt lat="37.27786833" lon="-3.57077833">
        <ele>1039.0</ele>
        <time>2022-11-13T11:49:48.000Z</time>
      </trkpt>
      <trkpt lat="37.277875" lon="-3.57078167">
        <ele>1039.0</ele>
        <time>2022-11-13T11:49:49.000Z</time>
      </trkpt>
      <trkpt lat="37.27788167" lon="-3.57078333">
        <ele>1039.0</ele>
        <time>2022-11-13T11:49:50.000Z</time>
      </trkpt>
      <trkpt lat="37.27789" lon="-3.57078333">
        <ele>1039.0</ele>
        <time>2022-11-13T11:49:51.000Z</time>
      </trkpt>
      <trkpt lat="37.27789667" lon="-3.570785">
        <ele>1039.0</ele>
        <time>2022-11-13T11:49:52.000Z</time>
      </trkpt>
      <trkpt lat="37.27790667" lon="-3.57078667">
        <ele>1039.0</ele>
        <time>2022-11-13T11:49:53.000Z</time>
      </trkpt>
      <trkpt lat="37.277915" lon="-3.57078833">
        <ele>1039.0</ele>
        <time>2022-11-13T11:49:54.000Z</time>
      </trkpt>
      <trkpt lat="37.27792667" lon="-3.57078833">
        <ele>1040.0</ele>
        <time>2022-11-13T11:49:55.000Z</time>
      </trkpt>
      <trkpt lat="37.27793667" lon="-3.57078833">
        <ele>1040.0</ele>
        <time>2022-11-13T11:49:56.000Z</time>
      </trkpt>
      <trkpt lat="37.27794833" lon="-3.57078833">
        <ele>1040.0</ele>
        <time>2022-11-13T11:49:57.000Z</time>
      </trkpt>
      <trkpt lat="37.27795833" lon="-3.57078667">
        <ele>1040.0</ele>
        <time>2022-11-13T11:49:58.000Z</time>
      </trkpt>
      <trkpt lat="37.27797" lon="-3.570785">
        <ele>1040.0</ele>
        <time>2022-11-13T11:49:59.000Z</time>
      </trkpt>
      <trkpt lat="37.27798167" lon="-3.57078333">
        <ele>1041.0</ele>
        <time>2022-11-13T11:50:00.000Z</time>
      </trkpt>
      <trkpt lat="37.27799167" lon="-3.57078333">
        <ele>1041.0</ele>
        <time>2022-11-13T11:50:01.000Z</time>
      </trkpt>
      <trkpt lat="37.27800167" lon="-3.57078167">
        <ele>1041.0</ele>
        <time>2022-11-13T11:50:02.000Z</time>
      </trkpt>
      <trkpt lat="37.27801333" lon="-3.57077833">
        <ele>1041.0</ele>
        <time>2022-11-13T11:50:03.000Z</time>
      </trkpt>
      <trkpt lat="37.278025" lon="-3.57077333">
        <ele>1041.0</ele>
        <time>2022-11-13T11:50:04.000Z</time>
      </trkpt>
      <trkpt lat="37.27803333" lon="-3.57077">
        <ele>1041.0</ele>
        <time>2022-11-13T11:50:05.000Z</time>
      </trkpt>
      <trkpt lat="37.27804167" lon="-3.570765">
        <ele>1042.0</ele>
        <time>2022-11-13T11:50:06.000Z</time>
      </trkpt>
      <trkpt lat="37.27805167" lon="-3.57076">
        <ele>1042.0</ele>
        <time>2022-11-13T11:50:07.000Z</time>
      </trkpt>
      <trkpt lat="37.27806167" lon="-3.570755">
        <ele>1042.0</ele>
        <time>2022-11-13T11:50:08.000Z</time>
      </trkpt>
      <trkpt lat="37.27807" lon="-3.57074667">
        <ele>1042.0</ele>
        <time>2022-11-13T11:50:09.000Z</time>
      </trkpt>
      <trkpt lat="37.27808" lon="-3.57073833">
        <ele>1042.0</ele>
        <time>2022-11-13T11:50:10.000Z</time>
      </trkpt>
      <trkpt lat="37.27809167" lon="-3.57073">
        <ele>1042.0</ele>
        <time>2022-11-13T11:50:11.000Z</time>
      </trkpt>
      <trkpt lat="37.27810167" lon="-3.57072167">
        <ele>1042.0</ele>
        <time>2022-11-13T11:50:12.000Z</time>
      </trkpt>
      <trkpt lat="37.27811167" lon="-3.57071333">
        <ele>1042.0</ele>
        <time>2022-11-13T11:50:13.000Z</time>
      </trkpt>
      <trkpt lat="37.27812333" lon="-3.57070667">
        <ele>1042.0</ele>
        <time>2022-11-13T11:50:14.000Z</time>
      </trkpt>
      <trkpt lat="37.27813333" lon="-3.57069667">
        <ele>1042.0</ele>
        <time>2022-11-13T11:50:15.000Z</time>
      </trkpt>
      <trkpt lat="37.27814" lon="-3.57068833">
        <ele>1042.0</ele>
        <time>2022-11-13T11:50:16.000Z</time>
      </trkpt>
      <trkpt lat="37.27814833" lon="-3.57068333">
        <ele>1042.0</ele>
        <time>2022-11-13T11:50:17.000Z</time>
      </trkpt>
      <trkpt lat="37.27815667" lon="-3.57067833">
        <ele>1042.0</ele>
        <time>2022-11-13T11:50:18.000Z</time>
      </trkpt>
      <trkpt lat="37.278165" lon="-3.57067167">
        <ele>1042.0</ele>
        <time>2022-11-13T11:50:19.000Z</time>
      </trkpt>
      <trkpt lat="37.27817333" lon="-3.57066667">
        <ele>1042.0</ele>
        <time>2022-11-13T11:50:20.000Z</time>
      </trkpt>
      <trkpt lat="37.278185" lon="-3.57066167">
        <ele>1042.0</ele>
        <time>2022-11-13T11:50:21.000Z</time>
      </trkpt>
      <trkpt lat="37.27819667" lon="-3.57065667">
        <ele>1043.0</ele>
        <time>2022-11-13T11:50:22.000Z</time>
      </trkpt>
      <trkpt lat="37.27820833" lon="-3.57064833">
        <ele>1043.0</ele>
        <time>2022-11-13T11:50:23.000Z</time>
      </trkpt>
      <trkpt lat="37.27822" lon="-3.57064167">
        <ele>1043.0</ele>
        <time>2022-11-13T11:50:24.000Z</time>
      </trkpt>
      <trkpt lat="37.27823167" lon="-3.57063167">
        <ele>1043.0</ele>
        <time>2022-11-13T11:50:25.000Z</time>
      </trkpt>
      <trkpt lat="37.27824333" lon="-3.57062333">
        <ele>1043.0</ele>
        <time>2022-11-13T11:50:26.000Z</time>
      </trkpt>
      <trkpt lat="37.278255" lon="-3.57061667">
        <ele>1043.0</ele>
        <time>2022-11-13T11:50:27.000Z</time>
      </trkpt>
      <trkpt lat="37.27826667" lon="-3.57061">
        <ele>1043.0</ele>
        <time>2022-11-13T11:50:28.000Z</time>
      </trkpt>
      <trkpt lat="37.27828" lon="-3.57060167">
        <ele>1043.0</ele>
        <time>2022-11-13T11:50:29.000Z</time>
      </trkpt>
      <trkpt lat="37.27829167" lon="-3.57059333">
        <ele>1043.0</ele>
        <time>2022-11-13T11:50:30.000Z</time>
      </trkpt>
      <trkpt lat="37.27830333" lon="-3.57058333">
        <ele>1043.0</ele>
        <time>2022-11-13T11:50:31.000Z</time>
      </trkpt>
      <trkpt lat="37.278315" lon="-3.570575">
        <ele>1043.0</ele>
        <time>2022-11-13T11:50:32.000Z</time>
      </trkpt>
      <trkpt lat="37.27832833" lon="-3.57056833">
        <ele>1044.0</ele>
        <time>2022-11-13T11:50:33.000Z</time>
      </trkpt>
      <trkpt lat="37.27834" lon="-3.57056167">
        <ele>1044.0</ele>
        <time>2022-11-13T11:50:34.000Z</time>
      </trkpt>
      <trkpt lat="37.27835167" lon="-3.570555">
        <ele>1044.0</ele>
        <time>2022-11-13T11:50:35.000Z</time>
      </trkpt>
      <trkpt lat="37.27836333" lon="-3.57054667">
        <ele>1044.0</ele>
        <time>2022-11-13T11:50:36.000Z</time>
      </trkpt>
      <trkpt lat="37.278375" lon="-3.57054">
        <ele>1044.0</ele>
        <time>2022-11-13T11:50:37.000Z</time>
      </trkpt>
      <trkpt lat="37.27838667" lon="-3.57053167">
        <ele>1044.0</ele>
        <time>2022-11-13T11:50:38.000Z</time>
      </trkpt>
      <trkpt lat="37.27839667" lon="-3.57052333">
        <ele>1044.0</ele>
        <time>2022-11-13T11:50:39.000Z</time>
      </trkpt>
      <trkpt lat="37.27840667" lon="-3.570515">
        <ele>1044.0</ele>
        <time>2022-11-13T11:50:40.000Z</time>
      </trkpt>
      <trkpt lat="37.27841667" lon="-3.57050667">
        <ele>1045.0</ele>
        <time>2022-11-13T11:50:41.000Z</time>
      </trkpt>
      <trkpt lat="37.27842833" lon="-3.57049833">
        <ele>1045.0</ele>
        <time>2022-11-13T11:50:42.000Z</time>
      </trkpt>
      <trkpt lat="37.27844167" lon="-3.57049">
        <ele>1045.0</ele>
        <time>2022-11-13T11:50:43.000Z</time>
      </trkpt>
      <trkpt lat="37.278455" lon="-3.57048167">
        <ele>1045.0</ele>
        <time>2022-11-13T11:50:44.000Z</time>
      </trkpt>
      <trkpt lat="37.27846833" lon="-3.57047333">
        <ele>1045.0</ele>
        <time>2022-11-13T11:50:45.000Z</time>
      </trkpt>
      <trkpt lat="37.27848167" lon="-3.570465">
        <ele>1045.0</ele>
        <time>2022-11-13T11:50:46.000Z</time>
      </trkpt>
      <trkpt lat="37.27849333" lon="-3.57045833">
        <ele>1045.0</ele>
        <time>2022-11-13T11:50:47.000Z</time>
      </trkpt>
      <trkpt lat="37.278505" lon="-3.57045">
        <ele>1045.0</ele>
        <time>2022-11-13T11:50:48.000Z</time>
      </trkpt>
      <trkpt lat="37.27851833" lon="-3.57044167">
        <ele>1046.0</ele>
        <time>2022-11-13T11:50:49.000Z</time>
      </trkpt>
      <trkpt lat="37.27853" lon="-3.57043333">
        <ele>1046.0</ele>
        <time>2022-11-13T11:50:50.000Z</time>
      </trkpt>
      <trkpt lat="37.27854" lon="-3.57042667">
        <ele>1046.0</ele>
        <time>2022-11-13T11:50:51.000Z</time>
      </trkpt>
      <trkpt lat="37.27855" lon="-3.57042">
        <ele>1046.0</ele>
        <time>2022-11-13T11:50:52.000Z</time>
      </trkpt>
      <trkpt lat="37.27856167" lon="-3.570415">
        <ele>1046.0</ele>
        <time>2022-11-13T11:50:53.000Z</time>
      </trkpt>
      <trkpt lat="37.27857333" lon="-3.57040833">
        <ele>1046.0</ele>
        <time>2022-11-13T11:50:54.000Z</time>
      </trkpt>
      <trkpt lat="37.278585" lon="-3.57040333">
        <ele>1046.0</ele>
        <time>2022-11-13T11:50:55.000Z</time>
      </trkpt>
      <trkpt lat="37.27859667" lon="-3.57039667">
        <ele>1047.0</ele>
        <time>2022-11-13T11:50:56.000Z</time>
      </trkpt>
      <trkpt lat="37.27860833" lon="-3.57038833">
        <ele>1047.0</ele>
        <time>2022-11-13T11:50:57.000Z</time>
      </trkpt>
      <trkpt lat="37.27862" lon="-3.57038">
        <ele>1047.0</ele>
        <time>2022-11-13T11:50:58.000Z</time>
      </trkpt>
      <trkpt lat="37.27863167" lon="-3.57037167">
        <ele>1047.0</ele>
        <time>2022-11-13T11:50:59.000Z</time>
      </trkpt>
      <trkpt lat="37.27864167" lon="-3.57036333">
        <ele>1047.0</ele>
        <time>2022-11-13T11:51:00.000Z</time>
      </trkpt>
      <trkpt lat="37.27865333" lon="-3.57035667">
        <ele>1047.0</ele>
        <time>2022-11-13T11:51:01.000Z</time>
      </trkpt>
      <trkpt lat="37.278665" lon="-3.57034833">
        <ele>1047.0</ele>
        <time>2022-11-13T11:51:02.000Z</time>
      </trkpt>
      <trkpt lat="37.27867833" lon="-3.57034167">
        <ele>1047.0</ele>
        <time>2022-11-13T11:51:03.000Z</time>
      </trkpt>
      <trkpt lat="37.27869167" lon="-3.570335">
        <ele>1047.0</ele>
        <time>2022-11-13T11:51:04.000Z</time>
      </trkpt>
      <trkpt lat="37.27870333" lon="-3.57032833">
        <ele>1047.0</ele>
        <time>2022-11-13T11:51:05.000Z</time>
      </trkpt>
      <trkpt lat="37.27871667" lon="-3.57032167">
        <ele>1048.0</ele>
        <time>2022-11-13T11:51:06.000Z</time>
      </trkpt>
      <trkpt lat="37.27872833" lon="-3.570315">
        <ele>1048.0</ele>
        <time>2022-11-13T11:51:07.000Z</time>
      </trkpt>
      <trkpt lat="37.27874333" lon="-3.57030667">
        <ele>1048.0</ele>
        <time>2022-11-13T11:51:08.000Z</time>
      </trkpt>
      <trkpt lat="37.278755" lon="-3.5703">
        <ele>1048.0</ele>
        <time>2022-11-13T11:51:09.000Z</time>
      </trkpt>
      <trkpt lat="37.27876667" lon="-3.57029333">
        <ele>1048.0</ele>
        <time>2022-11-13T11:51:10.000Z</time>
      </trkpt>
      <trkpt lat="37.27877833" lon="-3.57028667">
        <ele>1048.0</ele>
        <time>2022-11-13T11:51:11.000Z</time>
      </trkpt>
      <trkpt lat="37.27879167" lon="-3.57028">
        <ele>1048.0</ele>
        <time>2022-11-13T11:51:12.000Z</time>
      </trkpt>
      <trkpt lat="37.27880667" lon="-3.57027333">
        <ele>1048.0</ele>
        <time>2022-11-13T11:51:13.000Z</time>
      </trkpt>
      <trkpt lat="37.27882" lon="-3.570265">
        <ele>1048.0</ele>
        <time>2022-11-13T11:51:14.000Z</time>
      </trkpt>
      <trkpt lat="37.27883167" lon="-3.57025667">
        <ele>1049.0</ele>
        <time>2022-11-13T11:51:15.000Z</time>
      </trkpt>
      <trkpt lat="37.27884333" lon="-3.57024667">
        <ele>1049.0</ele>
        <time>2022-11-13T11:51:16.000Z</time>
      </trkpt>
      <trkpt lat="37.278855" lon="-3.57023833">
        <ele>1049.0</ele>
        <time>2022-11-13T11:51:17.000Z</time>
      </trkpt>
      <trkpt lat="37.27886667" lon="-3.57023">
        <ele>1049.0</ele>
        <time>2022-11-13T11:51:18.000Z</time>
      </trkpt>
      <trkpt lat="37.27887667" lon="-3.57022333">
        <ele>1049.0</ele>
        <time>2022-11-13T11:51:19.000Z</time>
      </trkpt>
      <trkpt lat="37.27888667" lon="-3.57021667">
        <ele>1049.0</ele>
        <time>2022-11-13T11:51:20.000Z</time>
      </trkpt>
      <trkpt lat="37.278895" lon="-3.57021">
        <ele>1049.0</ele>
        <time>2022-11-13T11:51:21.000Z</time>
      </trkpt>
      <trkpt lat="37.278905" lon="-3.57020333">
        <ele>1050.0</ele>
        <time>2022-11-13T11:51:22.000Z</time>
      </trkpt>
      <trkpt lat="37.278915" lon="-3.57019833">
        <ele>1050.0</ele>
        <time>2022-11-13T11:51:23.000Z</time>
      </trkpt>
      <trkpt lat="37.278925" lon="-3.57019167">
        <ele>1050.0</ele>
        <time>2022-11-13T11:51:24.000Z</time>
      </trkpt>
      <trkpt lat="37.27893667" lon="-3.570185">
        <ele>1050.0</ele>
        <time>2022-11-13T11:51:25.000Z</time>
      </trkpt>
      <trkpt lat="37.27895" lon="-3.57017833">
        <ele>1050.0</ele>
        <time>2022-11-13T11:51:26.000Z</time>
      </trkpt>
      <trkpt lat="37.27896333" lon="-3.57017">
        <ele>1050.0</ele>
        <time>2022-11-13T11:51:27.000Z</time>
      </trkpt>
      <trkpt lat="37.27897667" lon="-3.57016333">
        <ele>1051.0</ele>
        <time>2022-11-13T11:51:28.000Z</time>
      </trkpt>
      <trkpt lat="37.27898833" lon="-3.57015667">
        <ele>1051.0</ele>
        <time>2022-11-13T11:51:29.000Z</time>
      </trkpt>
      <trkpt lat="37.279" lon="-3.57015167">
        <ele>1051.0</ele>
        <time>2022-11-13T11:51:30.000Z</time>
      </trkpt>
      <trkpt lat="37.27901167" lon="-3.57014667">
        <ele>1051.0</ele>
        <time>2022-11-13T11:51:31.000Z</time>
      </trkpt>
      <trkpt lat="37.279025" lon="-3.57014333">
        <ele>1051.0</ele>
        <time>2022-11-13T11:51:32.000Z</time>
      </trkpt>
      <trkpt lat="37.27903833" lon="-3.57013833">
        <ele>1051.0</ele>
        <time>2022-11-13T11:51:33.000Z</time>
      </trkpt>
      <trkpt lat="37.27905167" lon="-3.57013333">
        <ele>1051.0</ele>
        <time>2022-11-13T11:51:34.000Z</time>
      </trkpt>
      <trkpt lat="37.27906667" lon="-3.57013">
        <ele>1052.0</ele>
        <time>2022-11-13T11:51:35.000Z</time>
      </trkpt>
      <trkpt lat="37.27908" lon="-3.570125">
        <ele>1052.0</ele>
        <time>2022-11-13T11:51:36.000Z</time>
      </trkpt>
      <trkpt lat="37.27909167" lon="-3.57012">
        <ele>1052.0</ele>
        <time>2022-11-13T11:51:37.000Z</time>
      </trkpt>
      <trkpt lat="37.279105" lon="-3.57011667">
        <ele>1052.0</ele>
        <time>2022-11-13T11:51:38.000Z</time>
      </trkpt>
      <trkpt lat="37.27912" lon="-3.57011167">
        <ele>1052.0</ele>
        <time>2022-11-13T11:51:39.000Z</time>
      </trkpt>
      <trkpt lat="37.279135" lon="-3.57010667">
        <ele>1052.0</ele>
        <time>2022-11-13T11:51:40.000Z</time>
      </trkpt>
      <trkpt lat="37.27914833" lon="-3.57010333">
        <ele>1052.0</ele>
        <time>2022-11-13T11:51:41.000Z</time>
      </trkpt>
      <trkpt lat="37.27916" lon="-3.57009833">
        <ele>1053.0</ele>
        <time>2022-11-13T11:51:42.000Z</time>
      </trkpt>
      <trkpt lat="37.27917333" lon="-3.57009333">
        <ele>1053.0</ele>
        <time>2022-11-13T11:51:43.000Z</time>
      </trkpt>
      <trkpt lat="37.279185" lon="-3.57008833">
        <ele>1053.0</ele>
        <time>2022-11-13T11:51:44.000Z</time>
      </trkpt>
      <trkpt lat="37.2792" lon="-3.57008167">
        <ele>1053.0</ele>
        <time>2022-11-13T11:51:45.000Z</time>
      </trkpt>
      <trkpt lat="37.27921167" lon="-3.57007667">
        <ele>1053.0</ele>
        <time>2022-11-13T11:51:46.000Z</time>
      </trkpt>
      <trkpt lat="37.27922333" lon="-3.57007333">
        <ele>1053.0</ele>
        <time>2022-11-13T11:51:47.000Z</time>
      </trkpt>
      <trkpt lat="37.27923167" lon="-3.57007">
        <ele>1053.0</ele>
        <time>2022-11-13T11:51:48.000Z</time>
      </trkpt>
      <trkpt lat="37.27923833" lon="-3.57006833">
        <ele>1053.0</ele>
        <time>2022-11-13T11:51:49.000Z</time>
      </trkpt>
      <trkpt lat="37.27924333" lon="-3.57006667">
        <ele>1054.0</ele>
        <time>2022-11-13T11:51:50.000Z</time>
      </trkpt>
      <trkpt lat="37.27924667" lon="-3.57007">
        <ele>1054.0</ele>
        <time>2022-11-13T11:51:51.000Z</time>
      </trkpt>
      <trkpt lat="37.27925" lon="-3.57007">
        <ele>1054.0</ele>
        <time>2022-11-13T11:51:52.000Z</time>
      </trkpt>
      <trkpt lat="37.27925333" lon="-3.57006833">
        <ele>1054.0</ele>
        <time>2022-11-13T11:51:53.000Z</time>
      </trkpt>
      <trkpt lat="37.27926" lon="-3.570065">
        <ele>1054.0</ele>
        <time>2022-11-13T11:51:54.000Z</time>
      </trkpt>
      <trkpt lat="37.27926667" lon="-3.57006167">
        <ele>1054.0</ele>
        <time>2022-11-13T11:51:55.000Z</time>
      </trkpt>
      <trkpt lat="37.27927167" lon="-3.570055">
        <ele>1054.0</ele>
        <time>2022-11-13T11:51:56.000Z</time>
      </trkpt>
      <trkpt lat="37.27927333" lon="-3.57005">
        <ele>1054.0</ele>
        <time>2022-11-13T11:51:57.000Z</time>
      </trkpt>
      <trkpt lat="37.279275" lon="-3.570045">
        <ele>1055.0</ele>
        <time>2022-11-13T11:51:58.000Z</time>
      </trkpt>
      <trkpt lat="37.279275" lon="-3.57003833">
        <ele>1055.0</ele>
        <time>2022-11-13T11:51:59.000Z</time>
      </trkpt>
      <trkpt lat="37.27927333" lon="-3.57003167">
        <ele>1055.0</ele>
        <time>2022-11-13T11:52:00.000Z</time>
      </trkpt>
      <trkpt lat="37.27927167" lon="-3.57002167">
        <ele>1055.0</ele>
        <time>2022-11-13T11:52:01.000Z</time>
      </trkpt>
      <trkpt lat="37.27926833" lon="-3.570015">
        <ele>1055.0</ele>
        <time>2022-11-13T11:52:02.000Z</time>
      </trkpt>
      <trkpt lat="37.279265" lon="-3.57000667">
        <ele>1055.0</ele>
        <time>2022-11-13T11:52:03.000Z</time>
      </trkpt>
      <trkpt lat="37.27926" lon="-3.56999667">
        <ele>1055.0</ele>
        <time>2022-11-13T11:52:04.000Z</time>
      </trkpt>
      <trkpt lat="37.27925667" lon="-3.569985">
        <ele>1056.0</ele>
        <time>2022-11-13T11:52:05.000Z</time>
      </trkpt>
      <trkpt lat="37.279255" lon="-3.56997333">
        <ele>1056.0</ele>
        <time>2022-11-13T11:52:06.000Z</time>
      </trkpt>
      <trkpt lat="37.27924833" lon="-3.56996333">
        <ele>1056.0</ele>
        <time>2022-11-13T11:52:07.000Z</time>
      </trkpt>
      <trkpt lat="37.27924167" lon="-3.56995167">
        <ele>1056.0</ele>
        <time>2022-11-13T11:52:08.000Z</time>
      </trkpt>
      <trkpt lat="37.27923333" lon="-3.56994167">
        <ele>1056.0</ele>
        <time>2022-11-13T11:52:09.000Z</time>
      </trkpt>
      <trkpt lat="37.279225" lon="-3.56993333">
        <ele>1056.0</ele>
        <time>2022-11-13T11:52:10.000Z</time>
      </trkpt>
      <trkpt lat="37.27921667" lon="-3.56992833">
        <ele>1056.0</ele>
        <time>2022-11-13T11:52:11.000Z</time>
      </trkpt>
      <trkpt lat="37.27920833" lon="-3.56992333">
        <ele>1057.0</ele>
        <time>2022-11-13T11:52:12.000Z</time>
      </trkpt>
      <trkpt lat="37.27919833" lon="-3.56991833">
        <ele>1057.0</ele>
        <time>2022-11-13T11:52:13.000Z</time>
      </trkpt>
      <trkpt lat="37.27918833" lon="-3.569915">
        <ele>1057.0</ele>
        <time>2022-11-13T11:52:14.000Z</time>
      </trkpt>
      <trkpt lat="37.27917833" lon="-3.56991333">
        <ele>1057.0</ele>
        <time>2022-11-13T11:52:15.000Z</time>
      </trkpt>
      <trkpt lat="37.27916833" lon="-3.56991167">
        <ele>1058.0</ele>
        <time>2022-11-13T11:52:16.000Z</time>
      </trkpt>
      <trkpt lat="37.27916" lon="-3.56990833">
        <ele>1058.0</ele>
        <time>2022-11-13T11:52:17.000Z</time>
      </trkpt>
      <trkpt lat="37.27915" lon="-3.56990833">
        <ele>1058.0</ele>
        <time>2022-11-13T11:52:18.000Z</time>
      </trkpt>
      <trkpt lat="37.27914167" lon="-3.56990667">
        <ele>1059.0</ele>
        <time>2022-11-13T11:52:19.000Z</time>
      </trkpt>
      <trkpt lat="37.27913167" lon="-3.56990667">
        <ele>1059.0</ele>
        <time>2022-11-13T11:52:20.000Z</time>
      </trkpt>
      <trkpt lat="37.27912167" lon="-3.56990667">
        <ele>1059.0</ele>
        <time>2022-11-13T11:52:21.000Z</time>
      </trkpt>
      <trkpt lat="37.27911167" lon="-3.56990667">
        <ele>1059.0</ele>
        <time>2022-11-13T11:52:22.000Z</time>
      </trkpt>
      <trkpt lat="37.27910167" lon="-3.56990833">
        <ele>1060.0</ele>
        <time>2022-11-13T11:52:23.000Z</time>
      </trkpt>
      <trkpt lat="37.27909167" lon="-3.56991167">
        <ele>1060.0</ele>
        <time>2022-11-13T11:52:24.000Z</time>
      </trkpt>
      <trkpt lat="37.27908167" lon="-3.569915">
        <ele>1060.0</ele>
        <time>2022-11-13T11:52:25.000Z</time>
      </trkpt>
      <trkpt lat="37.27907" lon="-3.56992">
        <ele>1060.0</ele>
        <time>2022-11-13T11:52:26.000Z</time>
      </trkpt>
      <trkpt lat="37.27905833" lon="-3.56992333">
        <ele>1060.0</ele>
        <time>2022-11-13T11:52:27.000Z</time>
      </trkpt>
      <trkpt lat="37.27904833" lon="-3.569925">
        <ele>1060.0</ele>
        <time>2022-11-13T11:52:28.000Z</time>
      </trkpt>
      <trkpt lat="37.27903667" lon="-3.56992833">
        <ele>1060.0</ele>
        <time>2022-11-13T11:52:29.000Z</time>
      </trkpt>
      <trkpt lat="37.279025" lon="-3.56993167">
        <ele>1060.0</ele>
        <time>2022-11-13T11:52:30.000Z</time>
      </trkpt>
      <trkpt lat="37.279015" lon="-3.56993333">
        <ele>1061.0</ele>
        <time>2022-11-13T11:52:31.000Z</time>
      </trkpt>
      <trkpt lat="37.279005" lon="-3.56993833">
        <ele>1061.0</ele>
        <time>2022-11-13T11:52:32.000Z</time>
      </trkpt>
      <trkpt lat="37.27899333" lon="-3.56994167">
        <ele>1061.0</ele>
        <time>2022-11-13T11:52:33.000Z</time>
      </trkpt>
      <trkpt lat="37.27898167" lon="-3.569945">
        <ele>1061.0</ele>
        <time>2022-11-13T11:52:34.000Z</time>
      </trkpt>
      <trkpt lat="37.27897167" lon="-3.56995">
        <ele>1061.0</ele>
        <time>2022-11-13T11:52:35.000Z</time>
      </trkpt>
      <trkpt lat="37.27896" lon="-3.569955">
        <ele>1062.0</ele>
        <time>2022-11-13T11:52:36.000Z</time>
      </trkpt>
      <trkpt lat="37.27895" lon="-3.56996">
        <ele>1062.0</ele>
        <time>2022-11-13T11:52:37.000Z</time>
      </trkpt>
      <trkpt lat="37.27893833" lon="-3.56996333">
        <ele>1062.0</ele>
        <time>2022-11-13T11:52:38.000Z</time>
      </trkpt>
      <trkpt lat="37.27892833" lon="-3.56996833">
        <ele>1062.0</ele>
        <time>2022-11-13T11:52:39.000Z</time>
      </trkpt>
      <trkpt lat="37.27891667" lon="-3.56997333">
        <ele>1062.0</ele>
        <time>2022-11-13T11:52:40.000Z</time>
      </trkpt>
      <trkpt lat="37.27890667" lon="-3.56998">
        <ele>1063.0</ele>
        <time>2022-11-13T11:52:41.000Z</time>
      </trkpt>
      <trkpt lat="37.27889667" lon="-3.569985">
        <ele>1063.0</ele>
        <time>2022-11-13T11:52:42.000Z</time>
      </trkpt>
      <trkpt lat="37.278885" lon="-3.56998833">
        <ele>1063.0</ele>
        <time>2022-11-13T11:52:43.000Z</time>
      </trkpt>
      <trkpt lat="37.27887333" lon="-3.569995">
        <ele>1063.0</ele>
        <time>2022-11-13T11:52:44.000Z</time>
      </trkpt>
      <trkpt lat="37.27886167" lon="-3.57">
        <ele>1064.0</ele>
        <time>2022-11-13T11:52:45.000Z</time>
      </trkpt>
      <trkpt lat="37.27885" lon="-3.57000667">
        <ele>1064.0</ele>
        <time>2022-11-13T11:52:46.000Z</time>
      </trkpt>
      <trkpt lat="37.27884" lon="-3.57000833">
        <ele>1065.0</ele>
        <time>2022-11-13T11:52:47.000Z</time>
      </trkpt>
      <trkpt lat="37.27882833" lon="-3.57001167">
        <ele>1065.0</ele>
        <time>2022-11-13T11:52:48.000Z</time>
      </trkpt>
      <trkpt lat="37.27881833" lon="-3.570015">
        <ele>1065.0</ele>
        <time>2022-11-13T11:52:49.000Z</time>
      </trkpt>
      <trkpt lat="37.27880833" lon="-3.57001833">
        <ele>1066.0</ele>
        <time>2022-11-13T11:52:50.000Z</time>
      </trkpt>
      <trkpt lat="37.27879667" lon="-3.57002333">
        <ele>1066.0</ele>
        <time>2022-11-13T11:52:51.000Z</time>
      </trkpt>
      <trkpt lat="37.27878667" lon="-3.57002667">
        <ele>1066.0</ele>
        <time>2022-11-13T11:52:52.000Z</time>
      </trkpt>
      <trkpt lat="37.278775" lon="-3.57003">
        <ele>1067.0</ele>
        <time>2022-11-13T11:52:53.000Z</time>
      </trkpt>
      <trkpt lat="37.27876167" lon="-3.57003333">
        <ele>1067.0</ele>
        <time>2022-11-13T11:52:54.000Z</time>
      </trkpt>
      <trkpt lat="37.27875" lon="-3.57003167">
        <ele>1067.0</ele>
        <time>2022-11-13T11:52:55.000Z</time>
      </trkpt>
      <trkpt lat="37.27873833" lon="-3.57002833">
        <ele>1067.0</ele>
        <time>2022-11-13T11:52:56.000Z</time>
      </trkpt>
      <trkpt lat="37.27872667" lon="-3.57002833">
        <ele>1068.0</ele>
        <time>2022-11-13T11:52:57.000Z</time>
      </trkpt>
      <trkpt lat="37.27871333" lon="-3.57002333">
        <ele>1068.0</ele>
        <time>2022-11-13T11:52:58.000Z</time>
      </trkpt>
      <trkpt lat="37.27870167" lon="-3.57002">
        <ele>1068.0</ele>
        <time>2022-11-13T11:52:59.000Z</time>
      </trkpt>
      <trkpt lat="37.27869" lon="-3.57001833">
        <ele>1068.0</ele>
        <time>2022-11-13T11:53:00.000Z</time>
      </trkpt>
      <trkpt lat="37.27867833" lon="-3.57001833">
        <ele>1068.0</ele>
        <time>2022-11-13T11:53:01.000Z</time>
      </trkpt>
      <trkpt lat="37.27866667" lon="-3.57001833">
        <ele>1068.0</ele>
        <time>2022-11-13T11:53:02.000Z</time>
      </trkpt>
      <trkpt lat="37.278655" lon="-3.570015">
        <ele>1068.0</ele>
        <time>2022-11-13T11:53:03.000Z</time>
      </trkpt>
      <trkpt lat="37.278645" lon="-3.570015">
        <ele>1068.0</ele>
        <time>2022-11-13T11:53:04.000Z</time>
      </trkpt>
      <trkpt lat="37.27863333" lon="-3.57001333">
        <ele>1068.0</ele>
        <time>2022-11-13T11:53:05.000Z</time>
      </trkpt>
      <trkpt lat="37.27862167" lon="-3.57001333">
        <ele>1069.0</ele>
        <time>2022-11-13T11:53:06.000Z</time>
      </trkpt>
      <trkpt lat="37.27860833" lon="-3.57001167">
        <ele>1069.0</ele>
        <time>2022-11-13T11:53:07.000Z</time>
      </trkpt>
      <trkpt lat="37.27859667" lon="-3.57001">
        <ele>1069.0</ele>
        <time>2022-11-13T11:53:08.000Z</time>
      </trkpt>
      <trkpt lat="37.278585" lon="-3.57001">
        <ele>1069.0</ele>
        <time>2022-11-13T11:53:09.000Z</time>
      </trkpt>
      <trkpt lat="37.27857333" lon="-3.57001">
        <ele>1069.0</ele>
        <time>2022-11-13T11:53:10.000Z</time>
      </trkpt>
      <trkpt lat="37.27856167" lon="-3.57000833">
        <ele>1069.0</ele>
        <time>2022-11-13T11:53:11.000Z</time>
      </trkpt>
      <trkpt lat="37.27855" lon="-3.57000667">
        <ele>1069.0</ele>
        <time>2022-11-13T11:53:12.000Z</time>
      </trkpt>
      <trkpt lat="37.27853833" lon="-3.57000333">
        <ele>1069.0</ele>
        <time>2022-11-13T11:53:13.000Z</time>
      </trkpt>
      <trkpt lat="37.27852667" lon="-3.57">
        <ele>1070.0</ele>
        <time>2022-11-13T11:53:14.000Z</time>
      </trkpt>
      <trkpt lat="37.27851667" lon="-3.56999833">
        <ele>1070.0</ele>
        <time>2022-11-13T11:53:15.000Z</time>
      </trkpt>
      <trkpt lat="37.278505" lon="-3.56999667">
        <ele>1070.0</ele>
        <time>2022-11-13T11:53:16.000Z</time>
      </trkpt>
      <trkpt lat="37.27849333" lon="-3.56999667">
        <ele>1070.0</ele>
        <time>2022-11-13T11:53:17.000Z</time>
      </trkpt>
      <trkpt lat="37.27848167" lon="-3.56999167">
        <ele>1070.0</ele>
        <time>2022-11-13T11:53:18.000Z</time>
      </trkpt>
      <trkpt lat="37.27847" lon="-3.56998667">
        <ele>1070.0</ele>
        <time>2022-11-13T11:53:19.000Z</time>
      </trkpt>
      <trkpt lat="37.27846" lon="-3.56998">
        <ele>1070.0</ele>
        <time>2022-11-13T11:53:20.000Z</time>
      </trkpt>
      <trkpt lat="37.27845" lon="-3.56997">
        <ele>1071.0</ele>
        <time>2022-11-13T11:53:21.000Z</time>
      </trkpt>
      <trkpt lat="37.27844" lon="-3.56996167">
        <ele>1071.0</ele>
        <time>2022-11-13T11:53:22.000Z</time>
      </trkpt>
      <trkpt lat="37.27843167" lon="-3.56995333">
        <ele>1071.0</ele>
        <time>2022-11-13T11:53:23.000Z</time>
      </trkpt>
      <trkpt lat="37.278425" lon="-3.56994">
        <ele>1071.0</ele>
        <time>2022-11-13T11:53:24.000Z</time>
      </trkpt>
      <trkpt lat="37.27842" lon="-3.56992833">
        <ele>1071.0</ele>
        <time>2022-11-13T11:53:25.000Z</time>
      </trkpt>
      <trkpt lat="37.27842" lon="-3.56991333">
        <ele>1071.0</ele>
        <time>2022-11-13T11:53:26.000Z</time>
      </trkpt>
      <trkpt lat="37.27842167" lon="-3.5699">
        <ele>1071.0</ele>
        <time>2022-11-13T11:53:27.000Z</time>
      </trkpt>
      <trkpt lat="37.278425" lon="-3.56988667">
        <ele>1071.0</ele>
        <time>2022-11-13T11:53:28.000Z</time>
      </trkpt>
      <trkpt lat="37.27842833" lon="-3.56987333">
        <ele>1071.0</ele>
        <time>2022-11-13T11:53:29.000Z</time>
      </trkpt>
      <trkpt lat="37.278435" lon="-3.56986">
        <ele>1071.0</ele>
        <time>2022-11-13T11:53:30.000Z</time>
      </trkpt>
      <trkpt lat="37.27844" lon="-3.56984833">
        <ele>1071.0</ele>
        <time>2022-11-13T11:53:31.000Z</time>
      </trkpt>
      <trkpt lat="37.27844667" lon="-3.56983667">
        <ele>1071.0</ele>
        <time>2022-11-13T11:53:32.000Z</time>
      </trkpt>
      <trkpt lat="37.27845167" lon="-3.569825">
        <ele>1071.0</ele>
        <time>2022-11-13T11:53:33.000Z</time>
      </trkpt>
      <trkpt lat="37.27846" lon="-3.56981167">
        <ele>1071.0</ele>
        <time>2022-11-13T11:53:34.000Z</time>
      </trkpt>
      <trkpt lat="37.27846667" lon="-3.5698">
        <ele>1071.0</ele>
        <time>2022-11-13T11:53:35.000Z</time>
      </trkpt>
      <trkpt lat="37.278475" lon="-3.56978667">
        <ele>1071.0</ele>
        <time>2022-11-13T11:53:36.000Z</time>
      </trkpt>
      <trkpt lat="37.27848167" lon="-3.56977333">
        <ele>1072.0</ele>
        <time>2022-11-13T11:53:37.000Z</time>
      </trkpt>
      <trkpt lat="37.27848833" lon="-3.56976">
        <ele>1072.0</ele>
        <time>2022-11-13T11:53:38.000Z</time>
      </trkpt>
      <trkpt lat="37.278495" lon="-3.56975">
        <ele>1072.0</ele>
        <time>2022-11-13T11:53:39.000Z</time>
      </trkpt>
      <trkpt lat="37.2785" lon="-3.56973833">
        <ele>1072.0</ele>
        <time>2022-11-13T11:53:40.000Z</time>
      </trkpt>
      <trkpt lat="37.27850333" lon="-3.56972333">
        <ele>1072.0</ele>
        <time>2022-11-13T11:53:41.000Z</time>
      </trkpt>
      <trkpt lat="37.27850833" lon="-3.56971">
        <ele>1072.0</ele>
        <time>2022-11-13T11:53:42.000Z</time>
      </trkpt>
      <trkpt lat="37.27851667" lon="-3.56969833">
        <ele>1072.0</ele>
        <time>2022-11-13T11:53:43.000Z</time>
      </trkpt>
      <trkpt lat="37.27852667" lon="-3.56969167">
        <ele>1072.0</ele>
        <time>2022-11-13T11:53:44.000Z</time>
      </trkpt>
      <trkpt lat="37.278535" lon="-3.56968333">
        <ele>1072.0</ele>
        <time>2022-11-13T11:53:45.000Z</time>
      </trkpt>
      <trkpt lat="37.27854333" lon="-3.56967167">
        <ele>1073.0</ele>
        <time>2022-11-13T11:53:46.000Z</time>
      </trkpt>
      <trkpt lat="37.27855" lon="-3.56966">
        <ele>1073.0</ele>
        <time>2022-11-13T11:53:47.000Z</time>
      </trkpt>
      <trkpt lat="37.27855667" lon="-3.56964833">
        <ele>1073.0</ele>
        <time>2022-11-13T11:53:48.000Z</time>
      </trkpt>
      <trkpt lat="37.278565" lon="-3.56963833">
        <ele>1073.0</ele>
        <time>2022-11-13T11:53:49.000Z</time>
      </trkpt>
      <trkpt lat="37.278575" lon="-3.56962833">
        <ele>1073.0</ele>
        <time>2022-11-13T11:53:50.000Z</time>
      </trkpt>
      <trkpt lat="37.27858333" lon="-3.56961833">
        <ele>1073.0</ele>
        <time>2022-11-13T11:53:51.000Z</time>
      </trkpt>
      <trkpt lat="37.27858333" lon="-3.56961667">
        <ele>1073.0</ele>
        <time>2022-11-13T11:53:52.000Z</time>
      </trkpt>
      <trkpt lat="37.278585" lon="-3.56961333">
        <ele>1073.0</ele>
        <time>2022-11-13T11:53:53.000Z</time>
      </trkpt>
      <trkpt lat="37.27859167" lon="-3.569605">
        <ele>1073.0</ele>
        <time>2022-11-13T11:53:54.000Z</time>
      </trkpt>
      <trkpt lat="37.2786" lon="-3.569595">
        <ele>1073.0</ele>
        <time>2022-11-13T11:53:55.000Z</time>
      </trkpt>
      <trkpt lat="37.27860833" lon="-3.56958167">
        <ele>1073.0</ele>
        <time>2022-11-13T11:53:56.000Z</time>
      </trkpt>
      <trkpt lat="37.27861667" lon="-3.56957167">
        <ele>1073.0</ele>
        <time>2022-11-13T11:53:57.000Z</time>
      </trkpt>
      <trkpt lat="37.278625" lon="-3.56956">
        <ele>1073.0</ele>
        <time>2022-11-13T11:53:58.000Z</time>
      </trkpt>
      <trkpt lat="37.278635" lon="-3.56955">
        <ele>1073.0</ele>
        <time>2022-11-13T11:53:59.000Z</time>
      </trkpt>
      <trkpt lat="37.27864333" lon="-3.56954167">
        <ele>1074.0</ele>
        <time>2022-11-13T11:54:00.000Z</time>
      </trkpt>
      <trkpt lat="37.27865333" lon="-3.56953167">
        <ele>1074.0</ele>
        <time>2022-11-13T11:54:01.000Z</time>
      </trkpt>
      <trkpt lat="37.27866333" lon="-3.56952167">
        <ele>1074.0</ele>
        <time>2022-11-13T11:54:02.000Z</time>
      </trkpt>
      <trkpt lat="37.27867167" lon="-3.56951333">
        <ele>1074.0</ele>
        <time>2022-11-13T11:54:03.000Z</time>
      </trkpt>
      <trkpt lat="37.27868167" lon="-3.569505">
        <ele>1074.0</ele>
        <time>2022-11-13T11:54:04.000Z</time>
      </trkpt>
      <trkpt lat="37.27869167" lon="-3.56949667">
        <ele>1074.0</ele>
        <time>2022-11-13T11:54:05.000Z</time>
      </trkpt>
      <trkpt lat="37.27870167" lon="-3.56949">
        <ele>1074.0</ele>
        <time>2022-11-13T11:54:06.000Z</time>
      </trkpt>
      <trkpt lat="37.27871167" lon="-3.56948167">
        <ele>1074.0</ele>
        <time>2022-11-13T11:54:07.000Z</time>
      </trkpt>
      <trkpt lat="37.27872167" lon="-3.56947333">
        <ele>1074.0</ele>
        <time>2022-11-13T11:54:08.000Z</time>
      </trkpt>
      <trkpt lat="37.27873" lon="-3.569465">
        <ele>1074.0</ele>
        <time>2022-11-13T11:54:09.000Z</time>
      </trkpt>
      <trkpt lat="37.27874" lon="-3.56945833">
        <ele>1074.0</ele>
        <time>2022-11-13T11:54:10.000Z</time>
      </trkpt>
      <trkpt lat="37.27875167" lon="-3.56945">
        <ele>1074.0</ele>
        <time>2022-11-13T11:54:11.000Z</time>
      </trkpt>
      <trkpt lat="37.27876167" lon="-3.56944167">
        <ele>1075.0</ele>
        <time>2022-11-13T11:54:12.000Z</time>
      </trkpt>
      <trkpt lat="37.27877167" lon="-3.569435">
        <ele>1075.0</ele>
        <time>2022-11-13T11:54:13.000Z</time>
      </trkpt>
      <trkpt lat="37.27878333" lon="-3.56942833">
        <ele>1075.0</ele>
        <time>2022-11-13T11:54:14.000Z</time>
      </trkpt>
      <trkpt lat="37.27879333" lon="-3.56942167">
        <ele>1075.0</ele>
        <time>2022-11-13T11:54:15.000Z</time>
      </trkpt>
      <trkpt lat="37.278805" lon="-3.56941333">
        <ele>1075.0</ele>
        <time>2022-11-13T11:54:16.000Z</time>
      </trkpt>
      <trkpt lat="37.27881667" lon="-3.56940667">
        <ele>1075.0</ele>
        <time>2022-11-13T11:54:17.000Z</time>
      </trkpt>
      <trkpt lat="37.27882833" lon="-3.56939833">
        <ele>1075.0</ele>
        <time>2022-11-13T11:54:18.000Z</time>
      </trkpt>
      <trkpt lat="37.27884" lon="-3.56939">
        <ele>1076.0</ele>
        <time>2022-11-13T11:54:19.000Z</time>
      </trkpt>
      <trkpt lat="37.27885167" lon="-3.56938167">
        <ele>1076.0</ele>
        <time>2022-11-13T11:54:20.000Z</time>
      </trkpt>
      <trkpt lat="37.27886167" lon="-3.56937333">
        <ele>1076.0</ele>
        <time>2022-11-13T11:54:21.000Z</time>
      </trkpt>
      <trkpt lat="37.27887167" lon="-3.56936667">
        <ele>1076.0</ele>
        <time>2022-11-13T11:54:22.000Z</time>
      </trkpt>
      <trkpt lat="37.27888167" lon="-3.56936167">
        <ele>1076.0</ele>
        <time>2022-11-13T11:54:23.000Z</time>
      </trkpt>
      <trkpt lat="37.27889" lon="-3.56935667">
        <ele>1076.0</ele>
        <time>2022-11-13T11:54:24.000Z</time>
      </trkpt>
      <trkpt lat="37.2789" lon="-3.56935">
        <ele>1076.0</ele>
        <time>2022-11-13T11:54:25.000Z</time>
      </trkpt>
      <trkpt lat="37.27890833" lon="-3.56934333">
        <ele>1076.0</ele>
        <time>2022-11-13T11:54:26.000Z</time>
      </trkpt>
      <trkpt lat="37.27891833" lon="-3.56933833">
        <ele>1076.0</ele>
        <time>2022-11-13T11:54:27.000Z</time>
      </trkpt>
      <trkpt lat="37.27893" lon="-3.56933333">
        <ele>1076.0</ele>
        <time>2022-11-13T11:54:28.000Z</time>
      </trkpt>
      <trkpt lat="37.27894" lon="-3.56932833">
        <ele>1077.0</ele>
        <time>2022-11-13T11:54:29.000Z</time>
      </trkpt>
      <trkpt lat="37.27895333" lon="-3.56932167">
        <ele>1077.0</ele>
        <time>2022-11-13T11:54:30.000Z</time>
      </trkpt>
      <trkpt lat="37.278965" lon="-3.56931667">
        <ele>1077.0</ele>
        <time>2022-11-13T11:54:31.000Z</time>
      </trkpt>
      <trkpt lat="37.27897833" lon="-3.56931">
        <ele>1077.0</ele>
        <time>2022-11-13T11:54:32.000Z</time>
      </trkpt>
      <trkpt lat="37.27899167" lon="-3.56930333">
        <ele>1077.0</ele>
        <time>2022-11-13T11:54:33.000Z</time>
      </trkpt>
      <trkpt lat="37.27900333" lon="-3.56929667">
        <ele>1077.0</ele>
        <time>2022-11-13T11:54:34.000Z</time>
      </trkpt>
      <trkpt lat="37.27901667" lon="-3.56929167">
        <ele>1077.0</ele>
        <time>2022-11-13T11:54:35.000Z</time>
      </trkpt>
      <trkpt lat="37.27903167" lon="-3.56928667">
        <ele>1077.0</ele>
        <time>2022-11-13T11:54:36.000Z</time>
      </trkpt>
      <trkpt lat="37.27904667" lon="-3.56927833">
        <ele>1077.0</ele>
        <time>2022-11-13T11:54:37.000Z</time>
      </trkpt>
      <trkpt lat="37.27906" lon="-3.56927167">
        <ele>1078.0</ele>
        <time>2022-11-13T11:54:38.000Z</time>
      </trkpt>
      <trkpt lat="37.279075" lon="-3.569265">
        <ele>1078.0</ele>
        <time>2022-11-13T11:54:39.000Z</time>
      </trkpt>
      <trkpt lat="37.27908833" lon="-3.56925833">
        <ele>1078.0</ele>
        <time>2022-11-13T11:54:40.000Z</time>
      </trkpt>
      <trkpt lat="37.27910167" lon="-3.56925167">
        <ele>1078.0</ele>
        <time>2022-11-13T11:54:41.000Z</time>
      </trkpt>
      <trkpt lat="37.279115" lon="-3.569245">
        <ele>1078.0</ele>
        <time>2022-11-13T11:54:42.000Z</time>
      </trkpt>
      <trkpt lat="37.27912667" lon="-3.56923833">
        <ele>1078.0</ele>
        <time>2022-11-13T11:54:43.000Z</time>
      </trkpt>
      <trkpt lat="37.27913833" lon="-3.56923167">
        <ele>1079.0</ele>
        <time>2022-11-13T11:54:44.000Z</time>
      </trkpt>
      <trkpt lat="37.27915333" lon="-3.56922667">
        <ele>1079.0</ele>
        <time>2022-11-13T11:54:45.000Z</time>
      </trkpt>
      <trkpt lat="37.279165" lon="-3.56922167">
        <ele>1079.0</ele>
        <time>2022-11-13T11:54:46.000Z</time>
      </trkpt>
      <trkpt lat="37.27917833" lon="-3.569215">
        <ele>1079.0</ele>
        <time>2022-11-13T11:54:47.000Z</time>
      </trkpt>
      <trkpt lat="37.27919167" lon="-3.56920833">
        <ele>1079.0</ele>
        <time>2022-11-13T11:54:48.000Z</time>
      </trkpt>
      <trkpt lat="37.27920667" lon="-3.56920167">
        <ele>1079.0</ele>
        <time>2022-11-13T11:54:49.000Z</time>
      </trkpt>
      <trkpt lat="37.27921833" lon="-3.56919667">
        <ele>1079.0</ele>
        <time>2022-11-13T11:54:50.000Z</time>
      </trkpt>
      <trkpt lat="37.27923167" lon="-3.56919167">
        <ele>1080.0</ele>
        <time>2022-11-13T11:54:51.000Z</time>
      </trkpt>
      <trkpt lat="37.279245" lon="-3.56918667">
        <ele>1080.0</ele>
        <time>2022-11-13T11:54:52.000Z</time>
      </trkpt>
      <trkpt lat="37.27925667" lon="-3.56918">
        <ele>1080.0</ele>
        <time>2022-11-13T11:54:53.000Z</time>
      </trkpt>
      <trkpt lat="37.27926833" lon="-3.569175">
        <ele>1080.0</ele>
        <time>2022-11-13T11:54:54.000Z</time>
      </trkpt>
      <trkpt lat="37.27928" lon="-3.56916833">
        <ele>1080.0</ele>
        <time>2022-11-13T11:54:55.000Z</time>
      </trkpt>
      <trkpt lat="37.27929167" lon="-3.56916">
        <ele>1080.0</ele>
        <time>2022-11-13T11:54:56.000Z</time>
      </trkpt>
      <trkpt lat="37.27930333" lon="-3.56915333">
        <ele>1080.0</ele>
        <time>2022-11-13T11:54:57.000Z</time>
      </trkpt>
      <trkpt lat="37.279315" lon="-3.56914667">
        <ele>1081.0</ele>
        <time>2022-11-13T11:54:58.000Z</time>
      </trkpt>
      <trkpt lat="37.27932833" lon="-3.56914">
        <ele>1081.0</ele>
        <time>2022-11-13T11:54:59.000Z</time>
      </trkpt>
      <trkpt lat="37.27934" lon="-3.56913333">
        <ele>1081.0</ele>
        <time>2022-11-13T11:55:00.000Z</time>
      </trkpt>
      <trkpt lat="37.27935333" lon="-3.569125">
        <ele>1081.0</ele>
        <time>2022-11-13T11:55:01.000Z</time>
      </trkpt>
      <trkpt lat="37.279365" lon="-3.56911833">
        <ele>1081.0</ele>
        <time>2022-11-13T11:55:02.000Z</time>
      </trkpt>
      <trkpt lat="37.27937667" lon="-3.56911">
        <ele>1081.0</ele>
        <time>2022-11-13T11:55:03.000Z</time>
      </trkpt>
      <trkpt lat="37.27938833" lon="-3.56910167">
        <ele>1081.0</ele>
        <time>2022-11-13T11:55:04.000Z</time>
      </trkpt>
      <trkpt lat="37.2794" lon="-3.56909333">
        <ele>1081.0</ele>
        <time>2022-11-13T11:55:05.000Z</time>
      </trkpt>
      <trkpt lat="37.27941" lon="-3.56908167">
        <ele>1081.0</ele>
        <time>2022-11-13T11:55:06.000Z</time>
      </trkpt>
      <trkpt lat="37.27941833" lon="-3.56907167">
        <ele>1081.0</ele>
        <time>2022-11-13T11:55:07.000Z</time>
      </trkpt>
      <trkpt lat="37.27943" lon="-3.56906">
        <ele>1081.0</ele>
        <time>2022-11-13T11:55:08.000Z</time>
      </trkpt>
      <trkpt lat="37.27944" lon="-3.56904833">
        <ele>1081.0</ele>
        <time>2022-11-13T11:55:09.000Z</time>
      </trkpt>
      <trkpt lat="37.27945" lon="-3.569035">
        <ele>1081.0</ele>
        <time>2022-11-13T11:55:10.000Z</time>
      </trkpt>
      <trkpt lat="37.27946" lon="-3.56902333">
        <ele>1081.0</ele>
        <time>2022-11-13T11:55:11.000Z</time>
      </trkpt>
      <trkpt lat="37.27947" lon="-3.56901167">
        <ele>1081.0</ele>
        <time>2022-11-13T11:55:12.000Z</time>
      </trkpt>
      <trkpt lat="37.27948" lon="-3.569">
        <ele>1081.0</ele>
        <time>2022-11-13T11:55:13.000Z</time>
      </trkpt>
      <trkpt lat="37.27949" lon="-3.56898833">
        <ele>1080.0</ele>
        <time>2022-11-13T11:55:14.000Z</time>
      </trkpt>
      <trkpt lat="37.27949833" lon="-3.56897667">
        <ele>1080.0</ele>
        <time>2022-11-13T11:55:15.000Z</time>
      </trkpt>
      <trkpt lat="37.27951" lon="-3.56896333">
        <ele>1080.0</ele>
        <time>2022-11-13T11:55:16.000Z</time>
      </trkpt>
      <trkpt lat="37.27951833" lon="-3.56895">
        <ele>1080.0</ele>
        <time>2022-11-13T11:55:17.000Z</time>
      </trkpt>
      <trkpt lat="37.27952833" lon="-3.56894">
        <ele>1080.0</ele>
        <time>2022-11-13T11:55:18.000Z</time>
      </trkpt>
      <trkpt lat="37.27953833" lon="-3.56892833">
        <ele>1080.0</ele>
        <time>2022-11-13T11:55:19.000Z</time>
      </trkpt>
      <trkpt lat="37.27954833" lon="-3.56891667">
        <ele>1080.0</ele>
        <time>2022-11-13T11:55:20.000Z</time>
      </trkpt>
      <trkpt lat="37.27956" lon="-3.56890833">
        <ele>1080.0</ele>
        <time>2022-11-13T11:55:21.000Z</time>
      </trkpt>
      <trkpt lat="37.27957" lon="-3.56889667">
        <ele>1080.0</ele>
        <time>2022-11-13T11:55:22.000Z</time>
      </trkpt>
      <trkpt lat="37.27958" lon="-3.56888333">
        <ele>1080.0</ele>
        <time>2022-11-13T11:55:23.000Z</time>
      </trkpt>
      <trkpt lat="37.27959" lon="-3.56887167">
        <ele>1080.0</ele>
        <time>2022-11-13T11:55:24.000Z</time>
      </trkpt>
      <trkpt lat="37.2796" lon="-3.56886">
        <ele>1080.0</ele>
        <time>2022-11-13T11:55:25.000Z</time>
      </trkpt>
      <trkpt lat="37.27961" lon="-3.56884667">
        <ele>1079.0</ele>
        <time>2022-11-13T11:55:26.000Z</time>
      </trkpt>
      <trkpt lat="37.27962167" lon="-3.568835">
        <ele>1079.0</ele>
        <time>2022-11-13T11:55:27.000Z</time>
      </trkpt>
      <trkpt lat="37.27963333" lon="-3.568825">
        <ele>1079.0</ele>
        <time>2022-11-13T11:55:28.000Z</time>
      </trkpt>
      <trkpt lat="37.279645" lon="-3.56881333">
        <ele>1079.0</ele>
        <time>2022-11-13T11:55:29.000Z</time>
      </trkpt>
      <trkpt lat="37.279655" lon="-3.56880333">
        <ele>1079.0</ele>
        <time>2022-11-13T11:55:30.000Z</time>
      </trkpt>
      <trkpt lat="37.27966667" lon="-3.56879167">
        <ele>1079.0</ele>
        <time>2022-11-13T11:55:31.000Z</time>
      </trkpt>
      <trkpt lat="37.27967833" lon="-3.56878">
        <ele>1079.0</ele>
        <time>2022-11-13T11:55:32.000Z</time>
      </trkpt>
      <trkpt lat="37.27969" lon="-3.56876833">
        <ele>1079.0</ele>
        <time>2022-11-13T11:55:33.000Z</time>
      </trkpt>
      <trkpt lat="37.27970167" lon="-3.56875667">
        <ele>1079.0</ele>
        <time>2022-11-13T11:55:34.000Z</time>
      </trkpt>
      <trkpt lat="37.27971167" lon="-3.56874667">
        <ele>1078.0</ele>
        <time>2022-11-13T11:55:35.000Z</time>
      </trkpt>
      <trkpt lat="37.27972333" lon="-3.56873667">
        <ele>1078.0</ele>
        <time>2022-11-13T11:55:36.000Z</time>
      </trkpt>
      <trkpt lat="37.27973333" lon="-3.568725">
        <ele>1078.0</ele>
        <time>2022-11-13T11:55:37.000Z</time>
      </trkpt>
      <trkpt lat="37.279745" lon="-3.56871333">
        <ele>1078.0</ele>
        <time>2022-11-13T11:55:38.000Z</time>
      </trkpt>
      <trkpt lat="37.27975833" lon="-3.568705">
        <ele>1078.0</ele>
        <time>2022-11-13T11:55:39.000Z</time>
      </trkpt>
      <trkpt lat="37.27976833" lon="-3.56869167">
        <ele>1078.0</ele>
        <time>2022-11-13T11:55:40.000Z</time>
      </trkpt>
      <trkpt lat="37.27978" lon="-3.56867833">
        <ele>1078.0</ele>
        <time>2022-11-13T11:55:41.000Z</time>
      </trkpt>
      <trkpt lat="37.27979333" lon="-3.56867">
        <ele>1078.0</ele>
        <time>2022-11-13T11:55:42.000Z</time>
      </trkpt>
      <trkpt lat="37.279805" lon="-3.56866333">
        <ele>1078.0</ele>
        <time>2022-11-13T11:55:43.000Z</time>
      </trkpt>
      <trkpt lat="37.279815" lon="-3.568655">
        <ele>1078.0</ele>
        <time>2022-11-13T11:55:44.000Z</time>
      </trkpt>
      <trkpt lat="37.27982667" lon="-3.568645">
        <ele>1077.0</ele>
        <time>2022-11-13T11:55:45.000Z</time>
      </trkpt>
      <trkpt lat="37.27983833" lon="-3.568635">
        <ele>1077.0</ele>
        <time>2022-11-13T11:55:46.000Z</time>
      </trkpt>
      <trkpt lat="37.27985167" lon="-3.56862667">
        <ele>1077.0</ele>
        <time>2022-11-13T11:55:47.000Z</time>
      </trkpt>
      <trkpt lat="37.27986167" lon="-3.56861667">
        <ele>1077.0</ele>
        <time>2022-11-13T11:55:48.000Z</time>
      </trkpt>
      <trkpt lat="37.279875" lon="-3.56860667">
        <ele>1077.0</ele>
        <time>2022-11-13T11:55:49.000Z</time>
      </trkpt>
      <trkpt lat="37.279885" lon="-3.56859667">
        <ele>1077.0</ele>
        <time>2022-11-13T11:55:50.000Z</time>
      </trkpt>
      <trkpt lat="37.279895" lon="-3.568585">
        <ele>1077.0</ele>
        <time>2022-11-13T11:55:51.000Z</time>
      </trkpt>
      <trkpt lat="37.27990667" lon="-3.56857333">
        <ele>1077.0</ele>
        <time>2022-11-13T11:55:52.000Z</time>
      </trkpt>
      <trkpt lat="37.279915" lon="-3.56856333">
        <ele>1077.0</ele>
        <time>2022-11-13T11:55:53.000Z</time>
      </trkpt>
      <trkpt lat="37.27992667" lon="-3.56855167">
        <ele>1076.0</ele>
        <time>2022-11-13T11:55:54.000Z</time>
      </trkpt>
      <trkpt lat="37.27993833" lon="-3.56853833">
        <ele>1076.0</ele>
        <time>2022-11-13T11:55:55.000Z</time>
      </trkpt>
      <trkpt lat="37.27994833" lon="-3.56852833">
        <ele>1076.0</ele>
        <time>2022-11-13T11:55:56.000Z</time>
      </trkpt>
      <trkpt lat="37.27995833" lon="-3.568515">
        <ele>1076.0</ele>
        <time>2022-11-13T11:55:57.000Z</time>
      </trkpt>
      <trkpt lat="37.27996667" lon="-3.56850333">
        <ele>1076.0</ele>
        <time>2022-11-13T11:55:58.000Z</time>
      </trkpt>
      <trkpt lat="37.27997667" lon="-3.56849167">
        <ele>1076.0</ele>
        <time>2022-11-13T11:55:59.000Z</time>
      </trkpt>
      <trkpt lat="37.279985" lon="-3.56848">
        <ele>1076.0</ele>
        <time>2022-11-13T11:56:00.000Z</time>
      </trkpt>
      <trkpt lat="37.279995" lon="-3.56846833">
        <ele>1076.0</ele>
        <time>2022-11-13T11:56:01.000Z</time>
      </trkpt>
      <trkpt lat="37.280005" lon="-3.56845667">
        <ele>1076.0</ele>
        <time>2022-11-13T11:56:02.000Z</time>
      </trkpt>
      <trkpt lat="37.28001333" lon="-3.568445">
        <ele>1076.0</ele>
        <time>2022-11-13T11:56:03.000Z</time>
      </trkpt>
      <trkpt lat="37.28002167" lon="-3.56843333">
        <ele>1076.0</ele>
        <time>2022-11-13T11:56:04.000Z</time>
      </trkpt>
      <trkpt lat="37.28003" lon="-3.56842">
        <ele>1076.0</ele>
        <time>2022-11-13T11:56:05.000Z</time>
      </trkpt>
      <trkpt lat="37.28003833" lon="-3.56840667">
        <ele>1076.0</ele>
        <time>2022-11-13T11:56:06.000Z</time>
      </trkpt>
      <trkpt lat="37.28004667" lon="-3.568395">
        <ele>1076.0</ele>
        <time>2022-11-13T11:56:07.000Z</time>
      </trkpt>
      <trkpt lat="37.280055" lon="-3.56838333">
        <ele>1076.0</ele>
        <time>2022-11-13T11:56:08.000Z</time>
      </trkpt>
      <trkpt lat="37.28006167" lon="-3.568375">
        <ele>1076.0</ele>
        <time>2022-11-13T11:56:09.000Z</time>
      </trkpt>
      <trkpt lat="37.28007" lon="-3.56836333">
        <ele>1076.0</ele>
        <time>2022-11-13T11:56:10.000Z</time>
      </trkpt>
      <trkpt lat="37.28007833" lon="-3.56835167">
        <ele>1076.0</ele>
        <time>2022-11-13T11:56:11.000Z</time>
      </trkpt>
      <trkpt lat="37.280085" lon="-3.56834">
        <ele>1076.0</ele>
        <time>2022-11-13T11:56:12.000Z</time>
      </trkpt>
      <trkpt lat="37.28009333" lon="-3.56833">
        <ele>1076.0</ele>
        <time>2022-11-13T11:56:13.000Z</time>
      </trkpt>
      <trkpt lat="37.28010333" lon="-3.56832">
        <ele>1076.0</ele>
        <time>2022-11-13T11:56:14.000Z</time>
      </trkpt>
      <trkpt lat="37.28011167" lon="-3.56831">
        <ele>1077.0</ele>
        <time>2022-11-13T11:56:15.000Z</time>
      </trkpt>
      <trkpt lat="37.28012" lon="-3.56829833">
        <ele>1077.0</ele>
        <time>2022-11-13T11:56:16.000Z</time>
      </trkpt>
      <trkpt lat="37.28012667" lon="-3.56828333">
        <ele>1077.0</ele>
        <time>2022-11-13T11:56:17.000Z</time>
      </trkpt>
      <trkpt lat="37.28013667" lon="-3.56827">
        <ele>1077.0</ele>
        <time>2022-11-13T11:56:18.000Z</time>
      </trkpt>
      <trkpt lat="37.280145" lon="-3.56825667">
        <ele>1077.0</ele>
        <time>2022-11-13T11:56:19.000Z</time>
      </trkpt>
      <trkpt lat="37.28015667" lon="-3.56824667">
        <ele>1077.0</ele>
        <time>2022-11-13T11:56:20.000Z</time>
      </trkpt>
      <trkpt lat="37.28016667" lon="-3.56823667">
        <ele>1077.0</ele>
        <time>2022-11-13T11:56:21.000Z</time>
      </trkpt>
      <trkpt lat="37.280175" lon="-3.56822667">
        <ele>1077.0</ele>
        <time>2022-11-13T11:56:22.000Z</time>
      </trkpt>
      <trkpt lat="37.280185" lon="-3.56821667">
        <ele>1077.0</ele>
        <time>2022-11-13T11:56:23.000Z</time>
      </trkpt>
      <trkpt lat="37.280195" lon="-3.56820667">
        <ele>1077.0</ele>
        <time>2022-11-13T11:56:24.000Z</time>
      </trkpt>
      <trkpt lat="37.280205" lon="-3.56819667">
        <ele>1077.0</ele>
        <time>2022-11-13T11:56:25.000Z</time>
      </trkpt>
      <trkpt lat="37.28021667" lon="-3.56818833">
        <ele>1077.0</ele>
        <time>2022-11-13T11:56:26.000Z</time>
      </trkpt>
      <trkpt lat="37.28022833" lon="-3.56818167">
        <ele>1077.0</ele>
        <time>2022-11-13T11:56:27.000Z</time>
      </trkpt>
      <trkpt lat="37.28023833" lon="-3.56817167">
        <ele>1077.0</ele>
        <time>2022-11-13T11:56:28.000Z</time>
      </trkpt>
      <trkpt lat="37.28025" lon="-3.56816333">
        <ele>1077.0</ele>
        <time>2022-11-13T11:56:29.000Z</time>
      </trkpt>
      <trkpt lat="37.28026167" lon="-3.56815667">
        <ele>1077.0</ele>
        <time>2022-11-13T11:56:30.000Z</time>
      </trkpt>
      <trkpt lat="37.28027333" lon="-3.56815">
        <ele>1077.0</ele>
        <time>2022-11-13T11:56:31.000Z</time>
      </trkpt>
      <trkpt lat="37.280285" lon="-3.56814333">
        <ele>1077.0</ele>
        <time>2022-11-13T11:56:32.000Z</time>
      </trkpt>
      <trkpt lat="37.28029667" lon="-3.568135">
        <ele>1077.0</ele>
        <time>2022-11-13T11:56:33.000Z</time>
      </trkpt>
      <trkpt lat="37.28030667" lon="-3.56813">
        <ele>1077.0</ele>
        <time>2022-11-13T11:56:34.000Z</time>
      </trkpt>
      <trkpt lat="37.28031667" lon="-3.56812167">
        <ele>1077.0</ele>
        <time>2022-11-13T11:56:35.000Z</time>
      </trkpt>
      <trkpt lat="37.280325" lon="-3.56811167">
        <ele>1077.0</ele>
        <time>2022-11-13T11:56:36.000Z</time>
      </trkpt>
      <trkpt lat="37.28033667" lon="-3.56810167">
        <ele>1077.0</ele>
        <time>2022-11-13T11:56:37.000Z</time>
      </trkpt>
      <trkpt lat="37.28034667" lon="-3.56809">
        <ele>1077.0</ele>
        <time>2022-11-13T11:56:38.000Z</time>
      </trkpt>
      <trkpt lat="37.28035667" lon="-3.56807667">
        <ele>1077.0</ele>
        <time>2022-11-13T11:56:39.000Z</time>
      </trkpt>
      <trkpt lat="37.28036667" lon="-3.56806833">
        <ele>1077.0</ele>
        <time>2022-11-13T11:56:40.000Z</time>
      </trkpt>
      <trkpt lat="37.28037667" lon="-3.56805833">
        <ele>1077.0</ele>
        <time>2022-11-13T11:56:41.000Z</time>
      </trkpt>
      <trkpt lat="37.28038667" lon="-3.56805">
        <ele>1077.0</ele>
        <time>2022-11-13T11:56:42.000Z</time>
      </trkpt>
      <trkpt lat="37.280395" lon="-3.56803833">
        <ele>1077.0</ele>
        <time>2022-11-13T11:56:43.000Z</time>
      </trkpt>
      <trkpt lat="37.280405" lon="-3.56802833">
        <ele>1078.0</ele>
        <time>2022-11-13T11:56:44.000Z</time>
      </trkpt>
      <trkpt lat="37.280415" lon="-3.56801833">
        <ele>1078.0</ele>
        <time>2022-11-13T11:56:45.000Z</time>
      </trkpt>
      <trkpt lat="37.28042333" lon="-3.56800833">
        <ele>1078.0</ele>
        <time>2022-11-13T11:56:46.000Z</time>
      </trkpt>
      <trkpt lat="37.28043333" lon="-3.56799833">
        <ele>1078.0</ele>
        <time>2022-11-13T11:56:47.000Z</time>
      </trkpt>
      <trkpt lat="37.28044333" lon="-3.56798833">
        <ele>1078.0</ele>
        <time>2022-11-13T11:56:48.000Z</time>
      </trkpt>
      <trkpt lat="37.28045333" lon="-3.56797833">
        <ele>1078.0</ele>
        <time>2022-11-13T11:56:49.000Z</time>
      </trkpt>
      <trkpt lat="37.28046167" lon="-3.56796667">
        <ele>1078.0</ele>
        <time>2022-11-13T11:56:50.000Z</time>
      </trkpt>
      <trkpt lat="37.28047167" lon="-3.56795667">
        <ele>1078.0</ele>
        <time>2022-11-13T11:56:51.000Z</time>
      </trkpt>
      <trkpt lat="37.28048167" lon="-3.56794333">
        <ele>1078.0</ele>
        <time>2022-11-13T11:56:52.000Z</time>
      </trkpt>
      <trkpt lat="37.28049" lon="-3.56793167">
        <ele>1079.0</ele>
        <time>2022-11-13T11:56:53.000Z</time>
      </trkpt>
      <trkpt lat="37.28049833" lon="-3.56792167">
        <ele>1079.0</ele>
        <time>2022-11-13T11:56:54.000Z</time>
      </trkpt>
      <trkpt lat="37.28050833" lon="-3.56791167">
        <ele>1079.0</ele>
        <time>2022-11-13T11:56:55.000Z</time>
      </trkpt>
      <trkpt lat="37.28051833" lon="-3.56790333">
        <ele>1079.0</ele>
        <time>2022-11-13T11:56:56.000Z</time>
      </trkpt>
      <trkpt lat="37.28052833" lon="-3.56789333">
        <ele>1079.0</ele>
        <time>2022-11-13T11:56:57.000Z</time>
      </trkpt>
      <trkpt lat="37.28053667" lon="-3.56788333">
        <ele>1079.0</ele>
        <time>2022-11-13T11:56:58.000Z</time>
      </trkpt>
      <trkpt lat="37.280545" lon="-3.56787167">
        <ele>1079.0</ele>
        <time>2022-11-13T11:56:59.000Z</time>
      </trkpt>
      <trkpt lat="37.28055333" lon="-3.56786167">
        <ele>1079.0</ele>
        <time>2022-11-13T11:57:00.000Z</time>
      </trkpt>
      <trkpt lat="37.28056" lon="-3.56784833">
        <ele>1079.0</ele>
        <time>2022-11-13T11:57:01.000Z</time>
      </trkpt>
      <trkpt lat="37.28056833" lon="-3.56783833">
        <ele>1079.0</ele>
        <time>2022-11-13T11:57:02.000Z</time>
      </trkpt>
      <trkpt lat="37.28057833" lon="-3.56782667">
        <ele>1079.0</ele>
        <time>2022-11-13T11:57:03.000Z</time>
      </trkpt>
      <trkpt lat="37.28058667" lon="-3.56781667">
        <ele>1079.0</ele>
        <time>2022-11-13T11:57:04.000Z</time>
      </trkpt>
      <trkpt lat="37.280595" lon="-3.567805">
        <ele>1079.0</ele>
        <time>2022-11-13T11:57:05.000Z</time>
      </trkpt>
      <trkpt lat="37.28060333" lon="-3.56779333">
        <ele>1079.0</ele>
        <time>2022-11-13T11:57:06.000Z</time>
      </trkpt>
      <trkpt lat="37.28061167" lon="-3.56778333">
        <ele>1079.0</ele>
        <time>2022-11-13T11:57:07.000Z</time>
      </trkpt>
      <trkpt lat="37.28062167" lon="-3.56777167">
        <ele>1080.0</ele>
        <time>2022-11-13T11:57:08.000Z</time>
      </trkpt>
      <trkpt lat="37.28063167" lon="-3.56776">
        <ele>1080.0</ele>
        <time>2022-11-13T11:57:09.000Z</time>
      </trkpt>
      <trkpt lat="37.28064" lon="-3.56774833">
        <ele>1080.0</ele>
        <time>2022-11-13T11:57:10.000Z</time>
      </trkpt>
      <trkpt lat="37.28064833" lon="-3.567735">
        <ele>1080.0</ele>
        <time>2022-11-13T11:57:11.000Z</time>
      </trkpt>
      <trkpt lat="37.28065833" lon="-3.56772333">
        <ele>1080.0</ele>
        <time>2022-11-13T11:57:12.000Z</time>
      </trkpt>
      <trkpt lat="37.28066667" lon="-3.56771333">
        <ele>1080.0</ele>
        <time>2022-11-13T11:57:13.000Z</time>
      </trkpt>
      <trkpt lat="37.28067667" lon="-3.56770333">
        <ele>1080.0</ele>
        <time>2022-11-13T11:57:14.000Z</time>
      </trkpt>
      <trkpt lat="37.28068667" lon="-3.56769333">
        <ele>1080.0</ele>
        <time>2022-11-13T11:57:15.000Z</time>
      </trkpt>
      <trkpt lat="37.280695" lon="-3.56768333">
        <ele>1080.0</ele>
        <time>2022-11-13T11:57:16.000Z</time>
      </trkpt>
      <trkpt lat="37.280705" lon="-3.56767333">
        <ele>1081.0</ele>
        <time>2022-11-13T11:57:17.000Z</time>
      </trkpt>
      <trkpt lat="37.28071333" lon="-3.56766333">
        <ele>1081.0</ele>
        <time>2022-11-13T11:57:18.000Z</time>
      </trkpt>
      <trkpt lat="37.28072333" lon="-3.56765333">
        <ele>1081.0</ele>
        <time>2022-11-13T11:57:19.000Z</time>
      </trkpt>
      <trkpt lat="37.28073167" lon="-3.56764333">
        <ele>1081.0</ele>
        <time>2022-11-13T11:57:20.000Z</time>
      </trkpt>
      <trkpt lat="37.28074167" lon="-3.56763167">
        <ele>1081.0</ele>
        <time>2022-11-13T11:57:21.000Z</time>
      </trkpt>
      <trkpt lat="37.28075167" lon="-3.56762167">
        <ele>1081.0</ele>
        <time>2022-11-13T11:57:22.000Z</time>
      </trkpt>
      <trkpt lat="37.28076" lon="-3.56761167">
        <ele>1081.0</ele>
        <time>2022-11-13T11:57:23.000Z</time>
      </trkpt>
      <trkpt lat="37.28076833" lon="-3.5676">
        <ele>1081.0</ele>
        <time>2022-11-13T11:57:24.000Z</time>
      </trkpt>
      <trkpt lat="37.28077667" lon="-3.56758833">
        <ele>1081.0</ele>
        <time>2022-11-13T11:57:25.000Z</time>
      </trkpt>
      <trkpt lat="37.28078667" lon="-3.56757833">
        <ele>1081.0</ele>
        <time>2022-11-13T11:57:26.000Z</time>
      </trkpt>
      <trkpt lat="37.280795" lon="-3.56757">
        <ele>1081.0</ele>
        <time>2022-11-13T11:57:27.000Z</time>
      </trkpt>
      <trkpt lat="37.28080333" lon="-3.56756">
        <ele>1081.0</ele>
        <time>2022-11-13T11:57:28.000Z</time>
      </trkpt>
      <trkpt lat="37.28081333" lon="-3.56755">
        <ele>1081.0</ele>
        <time>2022-11-13T11:57:29.000Z</time>
      </trkpt>
      <trkpt lat="37.28082333" lon="-3.56753833">
        <ele>1081.0</ele>
        <time>2022-11-13T11:57:30.000Z</time>
      </trkpt>
      <trkpt lat="37.280835" lon="-3.56752833">
        <ele>1081.0</ele>
        <time>2022-11-13T11:57:31.000Z</time>
      </trkpt>
      <trkpt lat="37.280845" lon="-3.56751833">
        <ele>1081.0</ele>
        <time>2022-11-13T11:57:32.000Z</time>
      </trkpt>
      <trkpt lat="37.280855" lon="-3.56751">
        <ele>1081.0</ele>
        <time>2022-11-13T11:57:33.000Z</time>
      </trkpt>
      <trkpt lat="37.28086167" lon="-3.56750167">
        <ele>1081.0</ele>
        <time>2022-11-13T11:57:34.000Z</time>
      </trkpt>
      <trkpt lat="37.28087167" lon="-3.56749167">
        <ele>1081.0</ele>
        <time>2022-11-13T11:57:35.000Z</time>
      </trkpt>
      <trkpt lat="37.28088167" lon="-3.56748167">
        <ele>1081.0</ele>
        <time>2022-11-13T11:57:36.000Z</time>
      </trkpt>
      <trkpt lat="37.28089" lon="-3.56747167">
        <ele>1081.0</ele>
        <time>2022-11-13T11:57:37.000Z</time>
      </trkpt>
      <trkpt lat="37.28089667" lon="-3.56746">
        <ele>1081.0</ele>
        <time>2022-11-13T11:57:38.000Z</time>
      </trkpt>
      <trkpt lat="37.28090167" lon="-3.56744833">
        <ele>1082.0</ele>
        <time>2022-11-13T11:57:39.000Z</time>
      </trkpt>
      <trkpt lat="37.28090333" lon="-3.56744">
        <ele>1082.0</ele>
        <time>2022-11-13T11:57:40.000Z</time>
      </trkpt>
      <trkpt lat="37.280905" lon="-3.56743333">
        <ele>1082.0</ele>
        <time>2022-11-13T11:57:41.000Z</time>
      </trkpt>
      <trkpt lat="37.28090667" lon="-3.56742833">
        <ele>1082.0</ele>
        <time>2022-11-13T11:57:42.000Z</time>
      </trkpt>
      <trkpt lat="37.28091167" lon="-3.567425">
        <ele>1082.0</ele>
        <time>2022-11-13T11:57:43.000Z</time>
      </trkpt>
      <trkpt lat="37.28091833" lon="-3.56742">
        <ele>1082.0</ele>
        <time>2022-11-13T11:57:44.000Z</time>
      </trkpt>
      <trkpt lat="37.28092667" lon="-3.56741333">
        <ele>1082.0</ele>
        <time>2022-11-13T11:57:45.000Z</time>
      </trkpt>
      <trkpt lat="37.28093333" lon="-3.56740667">
        <ele>1082.0</ele>
        <time>2022-11-13T11:57:46.000Z</time>
      </trkpt>
      <trkpt lat="37.28093833" lon="-3.56739667">
        <ele>1082.0</ele>
        <time>2022-11-13T11:57:47.000Z</time>
      </trkpt>
      <trkpt lat="37.28094333" lon="-3.567385">
        <ele>1082.0</ele>
        <time>2022-11-13T11:57:48.000Z</time>
      </trkpt>
      <trkpt lat="37.28094833" lon="-3.56737333">
        <ele>1082.0</ele>
        <time>2022-11-13T11:57:49.000Z</time>
      </trkpt>
      <trkpt lat="37.280955" lon="-3.56736167">
        <ele>1082.0</ele>
        <time>2022-11-13T11:57:50.000Z</time>
      </trkpt>
      <trkpt lat="37.28096" lon="-3.56735167">
        <ele>1082.0</ele>
        <time>2022-11-13T11:57:51.000Z</time>
      </trkpt>
      <trkpt lat="37.28096333" lon="-3.56734167">
        <ele>1082.0</ele>
        <time>2022-11-13T11:57:52.000Z</time>
      </trkpt>
      <trkpt lat="37.280965" lon="-3.56733">
        <ele>1083.0</ele>
        <time>2022-11-13T11:57:53.000Z</time>
      </trkpt>
      <trkpt lat="37.28096833" lon="-3.56731833">
        <ele>1083.0</ele>
        <time>2022-11-13T11:57:54.000Z</time>
      </trkpt>
      <trkpt lat="37.28097" lon="-3.56730667">
        <ele>1083.0</ele>
        <time>2022-11-13T11:57:55.000Z</time>
      </trkpt>
      <trkpt lat="37.28097" lon="-3.56729333">
        <ele>1083.0</ele>
        <time>2022-11-13T11:57:56.000Z</time>
      </trkpt>
      <trkpt lat="37.28097" lon="-3.56728167">
        <ele>1083.0</ele>
        <time>2022-11-13T11:57:57.000Z</time>
      </trkpt>
      <trkpt lat="37.28097" lon="-3.56727167">
        <ele>1084.0</ele>
        <time>2022-11-13T11:57:58.000Z</time>
      </trkpt>
      <trkpt lat="37.28096833" lon="-3.56725833">
        <ele>1084.0</ele>
        <time>2022-11-13T11:57:59.000Z</time>
      </trkpt>
      <trkpt lat="37.28096667" lon="-3.567245">
        <ele>1084.0</ele>
        <time>2022-11-13T11:58:00.000Z</time>
      </trkpt>
      <trkpt lat="37.28096167" lon="-3.56723333">
        <ele>1084.0</ele>
        <time>2022-11-13T11:58:01.000Z</time>
      </trkpt>
      <trkpt lat="37.28095833" lon="-3.56721833">
        <ele>1084.0</ele>
        <time>2022-11-13T11:58:02.000Z</time>
      </trkpt>
      <trkpt lat="37.280955" lon="-3.56720333">
        <ele>1084.0</ele>
        <time>2022-11-13T11:58:03.000Z</time>
      </trkpt>
      <trkpt lat="37.28095" lon="-3.56719167">
        <ele>1085.0</ele>
        <time>2022-11-13T11:58:04.000Z</time>
      </trkpt>
      <trkpt lat="37.280945" lon="-3.56718">
        <ele>1085.0</ele>
        <time>2022-11-13T11:58:05.000Z</time>
      </trkpt>
      <trkpt lat="37.28094167" lon="-3.56716833">
        <ele>1085.0</ele>
        <time>2022-11-13T11:58:06.000Z</time>
      </trkpt>
      <trkpt lat="37.28093667" lon="-3.567155">
        <ele>1086.0</ele>
        <time>2022-11-13T11:58:07.000Z</time>
      </trkpt>
      <trkpt lat="37.28093333" lon="-3.56714167">
        <ele>1086.0</ele>
        <time>2022-11-13T11:58:08.000Z</time>
      </trkpt>
      <trkpt lat="37.28092833" lon="-3.56712667">
        <ele>1086.0</ele>
        <time>2022-11-13T11:58:09.000Z</time>
      </trkpt>
      <trkpt lat="37.280925" lon="-3.56711167">
        <ele>1086.0</ele>
        <time>2022-11-13T11:58:10.000Z</time>
      </trkpt>
      <trkpt lat="37.28092167" lon="-3.56709667">
        <ele>1087.0</ele>
        <time>2022-11-13T11:58:11.000Z</time>
      </trkpt>
      <trkpt lat="37.28092" lon="-3.56708167">
        <ele>1087.0</ele>
        <time>2022-11-13T11:58:12.000Z</time>
      </trkpt>
      <trkpt lat="37.28092" lon="-3.567065">
        <ele>1087.0</ele>
        <time>2022-11-13T11:58:13.000Z</time>
      </trkpt>
      <trkpt lat="37.28092167" lon="-3.56705">
        <ele>1087.0</ele>
        <time>2022-11-13T11:58:14.000Z</time>
      </trkpt>
      <trkpt lat="37.280925" lon="-3.567035">
        <ele>1088.0</ele>
        <time>2022-11-13T11:58:15.000Z</time>
      </trkpt>
      <trkpt lat="37.28092833" lon="-3.56702167">
        <ele>1088.0</ele>
        <time>2022-11-13T11:58:16.000Z</time>
      </trkpt>
      <trkpt lat="37.280935" lon="-3.56700667">
        <ele>1088.0</ele>
        <time>2022-11-13T11:58:17.000Z</time>
      </trkpt>
      <trkpt lat="37.28094167" lon="-3.56699333">
        <ele>1088.0</ele>
        <time>2022-11-13T11:58:18.000Z</time>
      </trkpt>
      <trkpt lat="37.28095" lon="-3.56698167">
        <ele>1088.0</ele>
        <time>2022-11-13T11:58:19.000Z</time>
      </trkpt>
      <trkpt lat="37.28096" lon="-3.56697">
        <ele>1088.0</ele>
        <time>2022-11-13T11:58:20.000Z</time>
      </trkpt>
      <trkpt lat="37.28097" lon="-3.56696">
        <ele>1088.0</ele>
        <time>2022-11-13T11:58:21.000Z</time>
      </trkpt>
      <trkpt lat="37.28098" lon="-3.56694833">
        <ele>1088.0</ele>
        <time>2022-11-13T11:58:22.000Z</time>
      </trkpt>
      <trkpt lat="37.28099" lon="-3.56694">
        <ele>1088.0</ele>
        <time>2022-11-13T11:58:23.000Z</time>
      </trkpt>
      <trkpt lat="37.281" lon="-3.56693">
        <ele>1088.0</ele>
        <time>2022-11-13T11:58:24.000Z</time>
      </trkpt>
      <trkpt lat="37.28101167" lon="-3.56691833">
        <ele>1088.0</ele>
        <time>2022-11-13T11:58:25.000Z</time>
      </trkpt>
      <trkpt lat="37.28102167" lon="-3.56690833">
        <ele>1088.0</ele>
        <time>2022-11-13T11:58:26.000Z</time>
      </trkpt>
      <trkpt lat="37.28103333" lon="-3.56690167">
        <ele>1088.0</ele>
        <time>2022-11-13T11:58:27.000Z</time>
      </trkpt>
      <trkpt lat="37.28104333" lon="-3.56689167">
        <ele>1088.0</ele>
        <time>2022-11-13T11:58:28.000Z</time>
      </trkpt>
      <trkpt lat="37.28105167" lon="-3.56688">
        <ele>1088.0</ele>
        <time>2022-11-13T11:58:29.000Z</time>
      </trkpt>
      <trkpt lat="37.28106" lon="-3.56686667">
        <ele>1088.0</ele>
        <time>2022-11-13T11:58:30.000Z</time>
      </trkpt>
      <trkpt lat="37.28106833" lon="-3.566855">
        <ele>1088.0</ele>
        <time>2022-11-13T11:58:31.000Z</time>
      </trkpt>
      <trkpt lat="37.28107833" lon="-3.566845">
        <ele>1088.0</ele>
        <time>2022-11-13T11:58:32.000Z</time>
      </trkpt>
      <trkpt lat="37.28108667" lon="-3.56683167">
        <ele>1088.0</ele>
        <time>2022-11-13T11:58:33.000Z</time>
      </trkpt>
      <trkpt lat="37.28109333" lon="-3.56682">
        <ele>1088.0</ele>
        <time>2022-11-13T11:58:34.000Z</time>
      </trkpt>
      <trkpt lat="37.28110167" lon="-3.56680833">
        <ele>1088.0</ele>
        <time>2022-11-13T11:58:35.000Z</time>
      </trkpt>
      <trkpt lat="37.28111167" lon="-3.56679667">
        <ele>1088.0</ele>
        <time>2022-11-13T11:58:36.000Z</time>
      </trkpt>
      <trkpt lat="37.28112167" lon="-3.56678667">
        <ele>1088.0</ele>
        <time>2022-11-13T11:58:37.000Z</time>
      </trkpt>
      <trkpt lat="37.28113" lon="-3.566775">
        <ele>1089.0</ele>
        <time>2022-11-13T11:58:38.000Z</time>
      </trkpt>
      <trkpt lat="37.28113833" lon="-3.56676333">
        <ele>1089.0</ele>
        <time>2022-11-13T11:58:39.000Z</time>
      </trkpt>
      <trkpt lat="37.28114667" lon="-3.56675167">
        <ele>1089.0</ele>
        <time>2022-11-13T11:58:40.000Z</time>
      </trkpt>
      <trkpt lat="37.28115667" lon="-3.56674">
        <ele>1089.0</ele>
        <time>2022-11-13T11:58:41.000Z</time>
      </trkpt>
      <trkpt lat="37.28116667" lon="-3.56672833">
        <ele>1089.0</ele>
        <time>2022-11-13T11:58:42.000Z</time>
      </trkpt>
      <trkpt lat="37.281175" lon="-3.566715">
        <ele>1089.0</ele>
        <time>2022-11-13T11:58:43.000Z</time>
      </trkpt>
      <trkpt lat="37.281185" lon="-3.56670667">
        <ele>1089.0</ele>
        <time>2022-11-13T11:58:44.000Z</time>
      </trkpt>
      <trkpt lat="37.281195" lon="-3.56669667">
        <ele>1089.0</ele>
        <time>2022-11-13T11:58:45.000Z</time>
      </trkpt>
      <trkpt lat="37.281205" lon="-3.56668667">
        <ele>1089.0</ele>
        <time>2022-11-13T11:58:46.000Z</time>
      </trkpt>
      <trkpt lat="37.281215" lon="-3.566675">
        <ele>1089.0</ele>
        <time>2022-11-13T11:58:47.000Z</time>
      </trkpt>
      <trkpt lat="37.281225" lon="-3.56666667">
        <ele>1089.0</ele>
        <time>2022-11-13T11:58:48.000Z</time>
      </trkpt>
      <trkpt lat="37.28123667" lon="-3.56666">
        <ele>1090.0</ele>
        <time>2022-11-13T11:58:49.000Z</time>
      </trkpt>
      <trkpt lat="37.28124833" lon="-3.56665167">
        <ele>1090.0</ele>
        <time>2022-11-13T11:58:50.000Z</time>
      </trkpt>
      <trkpt lat="37.28126" lon="-3.56664333">
        <ele>1090.0</ele>
        <time>2022-11-13T11:58:51.000Z</time>
      </trkpt>
      <trkpt lat="37.28127167" lon="-3.56663667">
        <ele>1090.0</ele>
        <time>2022-11-13T11:58:52.000Z</time>
      </trkpt>
      <trkpt lat="37.28128333" lon="-3.56662667">
        <ele>1090.0</ele>
        <time>2022-11-13T11:58:53.000Z</time>
      </trkpt>
      <trkpt lat="37.28129333" lon="-3.56661833">
        <ele>1090.0</ele>
        <time>2022-11-13T11:58:54.000Z</time>
      </trkpt>
      <trkpt lat="37.28130333" lon="-3.56660833">
        <ele>1090.0</ele>
        <time>2022-11-13T11:58:55.000Z</time>
      </trkpt>
      <trkpt lat="37.281315" lon="-3.56659833">
        <ele>1090.0</ele>
        <time>2022-11-13T11:58:56.000Z</time>
      </trkpt>
      <trkpt lat="37.281325" lon="-3.56658833">
        <ele>1090.0</ele>
        <time>2022-11-13T11:58:57.000Z</time>
      </trkpt>
      <trkpt lat="37.28133333" lon="-3.56657667">
        <ele>1090.0</ele>
        <time>2022-11-13T11:58:58.000Z</time>
      </trkpt>
      <trkpt lat="37.28134167" lon="-3.56656333">
        <ele>1090.0</ele>
        <time>2022-11-13T11:58:59.000Z</time>
      </trkpt>
      <trkpt lat="37.28135" lon="-3.56655">
        <ele>1090.0</ele>
        <time>2022-11-13T11:59:00.000Z</time>
      </trkpt>
      <trkpt lat="37.28135833" lon="-3.56653667">
        <ele>1090.0</ele>
        <time>2022-11-13T11:59:01.000Z</time>
      </trkpt>
      <trkpt lat="37.281365" lon="-3.56652167">
        <ele>1090.0</ele>
        <time>2022-11-13T11:59:02.000Z</time>
      </trkpt>
      <trkpt lat="37.28137333" lon="-3.56650833">
        <ele>1090.0</ele>
        <time>2022-11-13T11:59:03.000Z</time>
      </trkpt>
      <trkpt lat="37.28138167" lon="-3.566495">
        <ele>1091.0</ele>
        <time>2022-11-13T11:59:04.000Z</time>
      </trkpt>
      <trkpt lat="37.28138833" lon="-3.56648">
        <ele>1091.0</ele>
        <time>2022-11-13T11:59:05.000Z</time>
      </trkpt>
      <trkpt lat="37.281395" lon="-3.56646667">
        <ele>1091.0</ele>
        <time>2022-11-13T11:59:06.000Z</time>
      </trkpt>
      <trkpt lat="37.28140167" lon="-3.56645167">
        <ele>1091.0</ele>
        <time>2022-11-13T11:59:07.000Z</time>
      </trkpt>
      <trkpt lat="37.28140667" lon="-3.56643667">
        <ele>1091.0</ele>
        <time>2022-11-13T11:59:08.000Z</time>
      </trkpt>
      <trkpt lat="37.28141167" lon="-3.56642167">
        <ele>1091.0</ele>
        <time>2022-11-13T11:59:09.000Z</time>
      </trkpt>
      <trkpt lat="37.28141667" lon="-3.56640833">
        <ele>1091.0</ele>
        <time>2022-11-13T11:59:10.000Z</time>
      </trkpt>
      <trkpt lat="37.28142333" lon="-3.56639333">
        <ele>1091.0</ele>
        <time>2022-11-13T11:59:11.000Z</time>
      </trkpt>
      <trkpt lat="37.28143" lon="-3.56638">
        <ele>1092.0</ele>
        <time>2022-11-13T11:59:12.000Z</time>
      </trkpt>
      <trkpt lat="37.281435" lon="-3.566365">
        <ele>1092.0</ele>
        <time>2022-11-13T11:59:13.000Z</time>
      </trkpt>
      <trkpt lat="37.28144167" lon="-3.56635">
        <ele>1092.0</ele>
        <time>2022-11-13T11:59:14.000Z</time>
      </trkpt>
      <trkpt lat="37.28144833" lon="-3.56633667">
        <ele>1092.0</ele>
        <time>2022-11-13T11:59:15.000Z</time>
      </trkpt>
      <trkpt lat="37.28145333" lon="-3.56632333">
        <ele>1092.0</ele>
        <time>2022-11-13T11:59:16.000Z</time>
      </trkpt>
      <trkpt lat="37.28145833" lon="-3.56630833">
        <ele>1093.0</ele>
        <time>2022-11-13T11:59:17.000Z</time>
      </trkpt>
      <trkpt lat="37.281465" lon="-3.566295">
        <ele>1093.0</ele>
        <time>2022-11-13T11:59:18.000Z</time>
      </trkpt>
      <trkpt lat="37.28147167" lon="-3.56628333">
        <ele>1093.0</ele>
        <time>2022-11-13T11:59:19.000Z</time>
      </trkpt>
      <trkpt lat="37.28147667" lon="-3.56627167">
        <ele>1093.0</ele>
        <time>2022-11-13T11:59:20.000Z</time>
      </trkpt>
      <trkpt lat="37.28148167" lon="-3.56626">
        <ele>1093.0</ele>
        <time>2022-11-13T11:59:21.000Z</time>
      </trkpt>
      <trkpt lat="37.281485" lon="-3.56624667">
        <ele>1093.0</ele>
        <time>2022-11-13T11:59:22.000Z</time>
      </trkpt>
      <trkpt lat="37.28148833" lon="-3.566235">
        <ele>1094.0</ele>
        <time>2022-11-13T11:59:23.000Z</time>
      </trkpt>
      <trkpt lat="37.28149" lon="-3.56622167">
        <ele>1094.0</ele>
        <time>2022-11-13T11:59:24.000Z</time>
      </trkpt>
      <trkpt lat="37.28149333" lon="-3.56621167">
        <ele>1094.0</ele>
        <time>2022-11-13T11:59:25.000Z</time>
      </trkpt>
      <trkpt lat="37.28149333" lon="-3.5662">
        <ele>1094.0</ele>
        <time>2022-11-13T11:59:26.000Z</time>
      </trkpt>
      <trkpt lat="37.28149333" lon="-3.56618667">
        <ele>1094.0</ele>
        <time>2022-11-13T11:59:27.000Z</time>
      </trkpt>
      <trkpt lat="37.28149167" lon="-3.56617333">
        <ele>1094.0</ele>
        <time>2022-11-13T11:59:28.000Z</time>
      </trkpt>
      <trkpt lat="37.28149167" lon="-3.56615833">
        <ele>1094.0</ele>
        <time>2022-11-13T11:59:29.000Z</time>
      </trkpt>
      <trkpt lat="37.28149333" lon="-3.566145">
        <ele>1094.0</ele>
        <time>2022-11-13T11:59:30.000Z</time>
      </trkpt>
      <trkpt lat="37.28149" lon="-3.56613167">
        <ele>1094.0</ele>
        <time>2022-11-13T11:59:31.000Z</time>
      </trkpt>
      <trkpt lat="37.28148833" lon="-3.56612">
        <ele>1094.0</ele>
        <time>2022-11-13T11:59:32.000Z</time>
      </trkpt>
      <trkpt lat="37.281485" lon="-3.56610667">
        <ele>1094.0</ele>
        <time>2022-11-13T11:59:33.000Z</time>
      </trkpt>
      <trkpt lat="37.28148333" lon="-3.56609333">
        <ele>1095.0</ele>
        <time>2022-11-13T11:59:34.000Z</time>
      </trkpt>
      <trkpt lat="37.28148333" lon="-3.56608167">
        <ele>1095.0</ele>
        <time>2022-11-13T11:59:35.000Z</time>
      </trkpt>
      <trkpt lat="37.28148333" lon="-3.56607167">
        <ele>1095.0</ele>
        <time>2022-11-13T11:59:36.000Z</time>
      </trkpt>
      <trkpt lat="37.28148167" lon="-3.56606">
        <ele>1095.0</ele>
        <time>2022-11-13T11:59:37.000Z</time>
      </trkpt>
      <trkpt lat="37.28147833" lon="-3.56605">
        <ele>1095.0</ele>
        <time>2022-11-13T11:59:38.000Z</time>
      </trkpt>
      <trkpt lat="37.281475" lon="-3.56603833">
        <ele>1095.0</ele>
        <time>2022-11-13T11:59:39.000Z</time>
      </trkpt>
      <trkpt lat="37.28147167" lon="-3.56602667">
        <ele>1095.0</ele>
        <time>2022-11-13T11:59:40.000Z</time>
      </trkpt>
      <trkpt lat="37.28147" lon="-3.566015">
        <ele>1095.0</ele>
        <time>2022-11-13T11:59:41.000Z</time>
      </trkpt>
      <trkpt lat="37.28146833" lon="-3.56600333">
        <ele>1095.0</ele>
        <time>2022-11-13T11:59:42.000Z</time>
      </trkpt>
      <trkpt lat="37.281465" lon="-3.56599167">
        <ele>1095.0</ele>
        <time>2022-11-13T11:59:43.000Z</time>
      </trkpt>
      <trkpt lat="37.28146167" lon="-3.56597833">
        <ele>1096.0</ele>
        <time>2022-11-13T11:59:44.000Z</time>
      </trkpt>
      <trkpt lat="37.28145833" lon="-3.565965">
        <ele>1096.0</ele>
        <time>2022-11-13T11:59:45.000Z</time>
      </trkpt>
      <trkpt lat="37.281455" lon="-3.56595167">
        <ele>1096.0</ele>
        <time>2022-11-13T11:59:46.000Z</time>
      </trkpt>
      <trkpt lat="37.28145333" lon="-3.56593833">
        <ele>1096.0</ele>
        <time>2022-11-13T11:59:47.000Z</time>
      </trkpt>
      <trkpt lat="37.28144833" lon="-3.56592667">
        <ele>1096.0</ele>
        <time>2022-11-13T11:59:48.000Z</time>
      </trkpt>
      <trkpt lat="37.281445" lon="-3.565915">
        <ele>1096.0</ele>
        <time>2022-11-13T11:59:49.000Z</time>
      </trkpt>
      <trkpt lat="37.28144" lon="-3.56590333">
        <ele>1096.0</ele>
        <time>2022-11-13T11:59:50.000Z</time>
      </trkpt>
      <trkpt lat="37.281435" lon="-3.56589">
        <ele>1096.0</ele>
        <time>2022-11-13T11:59:51.000Z</time>
      </trkpt>
      <trkpt lat="37.28143" lon="-3.56587667">
        <ele>1096.0</ele>
        <time>2022-11-13T11:59:52.000Z</time>
      </trkpt>
      <trkpt lat="37.28142333" lon="-3.565865">
        <ele>1096.0</ele>
        <time>2022-11-13T11:59:53.000Z</time>
      </trkpt>
      <trkpt lat="37.28141667" lon="-3.56585333">
        <ele>1096.0</ele>
        <time>2022-11-13T11:59:54.000Z</time>
      </trkpt>
      <trkpt lat="37.28141" lon="-3.56584">
        <ele>1096.0</ele>
        <time>2022-11-13T11:59:55.000Z</time>
      </trkpt>
      <trkpt lat="37.28140333" lon="-3.56582833">
        <ele>1096.0</ele>
        <time>2022-11-13T11:59:56.000Z</time>
      </trkpt>
      <trkpt lat="37.28139833" lon="-3.565815">
        <ele>1097.0</ele>
        <time>2022-11-13T11:59:57.000Z</time>
      </trkpt>
      <trkpt lat="37.28139167" lon="-3.56580333">
        <ele>1097.0</ele>
        <time>2022-11-13T11:59:58.000Z</time>
      </trkpt>
      <trkpt lat="37.281385" lon="-3.56579167">
        <ele>1097.0</ele>
        <time>2022-11-13T11:59:59.000Z</time>
      </trkpt>
      <trkpt lat="37.28138" lon="-3.56577833">
        <ele>1097.0</ele>
        <time>2022-11-13T12:00:00.000Z</time>
      </trkpt>
      <trkpt lat="37.281375" lon="-3.56576667">
        <ele>1097.0</ele>
        <time>2022-11-13T12:00:01.000Z</time>
      </trkpt>
      <trkpt lat="37.28137" lon="-3.56575333">
        <ele>1097.0</ele>
        <time>2022-11-13T12:00:02.000Z</time>
      </trkpt>
      <trkpt lat="37.28136333" lon="-3.56574167">
        <ele>1097.0</ele>
        <time>2022-11-13T12:00:03.000Z</time>
      </trkpt>
      <trkpt lat="37.28135833" lon="-3.56573">
        <ele>1097.0</ele>
        <time>2022-11-13T12:00:04.000Z</time>
      </trkpt>
      <trkpt lat="37.28135167" lon="-3.56571833">
        <ele>1098.0</ele>
        <time>2022-11-13T12:00:05.000Z</time>
      </trkpt>
      <trkpt lat="37.28134667" lon="-3.565705">
        <ele>1098.0</ele>
        <time>2022-11-13T12:00:06.000Z</time>
      </trkpt>
      <trkpt lat="37.28134167" lon="-3.56569333">
        <ele>1098.0</ele>
        <time>2022-11-13T12:00:07.000Z</time>
      </trkpt>
      <trkpt lat="37.28133667" lon="-3.56568">
        <ele>1098.0</ele>
        <time>2022-11-13T12:00:08.000Z</time>
      </trkpt>
      <trkpt lat="37.28133333" lon="-3.56566833">
        <ele>1099.0</ele>
        <time>2022-11-13T12:00:09.000Z</time>
      </trkpt>
      <trkpt lat="37.28133" lon="-3.565655">
        <ele>1099.0</ele>
        <time>2022-11-13T12:00:10.000Z</time>
      </trkpt>
      <trkpt lat="37.28132667" lon="-3.56564333">
        <ele>1099.0</ele>
        <time>2022-11-13T12:00:11.000Z</time>
      </trkpt>
      <trkpt lat="37.281325" lon="-3.56563">
        <ele>1099.0</ele>
        <time>2022-11-13T12:00:12.000Z</time>
      </trkpt>
      <trkpt lat="37.28132" lon="-3.56561833">
        <ele>1099.0</ele>
        <time>2022-11-13T12:00:13.000Z</time>
      </trkpt>
      <trkpt lat="37.28131667" lon="-3.565605">
        <ele>1099.0</ele>
        <time>2022-11-13T12:00:14.000Z</time>
      </trkpt>
      <trkpt lat="37.281315" lon="-3.56559333">
        <ele>1099.0</ele>
        <time>2022-11-13T12:00:15.000Z</time>
      </trkpt>
      <trkpt lat="37.28131333" lon="-3.56558167">
        <ele>1099.0</ele>
        <time>2022-11-13T12:00:16.000Z</time>
      </trkpt>
      <trkpt lat="37.28131" lon="-3.56557167">
        <ele>1099.0</ele>
        <time>2022-11-13T12:00:17.000Z</time>
      </trkpt>
      <trkpt lat="37.28130667" lon="-3.56556">
        <ele>1099.0</ele>
        <time>2022-11-13T12:00:18.000Z</time>
      </trkpt>
      <trkpt lat="37.281305" lon="-3.56554833">
        <ele>1100.0</ele>
        <time>2022-11-13T12:00:19.000Z</time>
      </trkpt>
      <trkpt lat="37.28130167" lon="-3.56553667">
        <ele>1100.0</ele>
        <time>2022-11-13T12:00:20.000Z</time>
      </trkpt>
      <trkpt lat="37.28129833" lon="-3.565525">
        <ele>1100.0</ele>
        <time>2022-11-13T12:00:21.000Z</time>
      </trkpt>
      <trkpt lat="37.281295" lon="-3.56551333">
        <ele>1100.0</ele>
        <time>2022-11-13T12:00:22.000Z</time>
      </trkpt>
      <trkpt lat="37.28129333" lon="-3.56550167">
        <ele>1100.0</ele>
        <time>2022-11-13T12:00:23.000Z</time>
      </trkpt>
      <trkpt lat="37.28129167" lon="-3.56549">
        <ele>1100.0</ele>
        <time>2022-11-13T12:00:24.000Z</time>
      </trkpt>
      <trkpt lat="37.28129" lon="-3.56547833">
        <ele>1100.0</ele>
        <time>2022-11-13T12:00:25.000Z</time>
      </trkpt>
      <trkpt lat="37.28128667" lon="-3.565465">
        <ele>1101.0</ele>
        <time>2022-11-13T12:00:26.000Z</time>
      </trkpt>
      <trkpt lat="37.281285" lon="-3.565455">
        <ele>1101.0</ele>
        <time>2022-11-13T12:00:27.000Z</time>
      </trkpt>
      <trkpt lat="37.28128333" lon="-3.56544333">
        <ele>1101.0</ele>
        <time>2022-11-13T12:00:28.000Z</time>
      </trkpt>
      <trkpt lat="37.28128167" lon="-3.56543333">
        <ele>1101.0</ele>
        <time>2022-11-13T12:00:29.000Z</time>
      </trkpt>
      <trkpt lat="37.28128" lon="-3.56542">
        <ele>1101.0</ele>
        <time>2022-11-13T12:00:30.000Z</time>
      </trkpt>
      <trkpt lat="37.28127833" lon="-3.56541">
        <ele>1101.0</ele>
        <time>2022-11-13T12:00:31.000Z</time>
      </trkpt>
      <trkpt lat="37.28127667" lon="-3.5654">
        <ele>1101.0</ele>
        <time>2022-11-13T12:00:32.000Z</time>
      </trkpt>
      <trkpt lat="37.28127333" lon="-3.56538833">
        <ele>1101.0</ele>
        <time>2022-11-13T12:00:33.000Z</time>
      </trkpt>
      <trkpt lat="37.28127333" lon="-3.56538">
        <ele>1101.0</ele>
        <time>2022-11-13T12:00:34.000Z</time>
      </trkpt>
      <trkpt lat="37.28127167" lon="-3.56536833">
        <ele>1101.0</ele>
        <time>2022-11-13T12:00:35.000Z</time>
      </trkpt>
      <trkpt lat="37.28126833" lon="-3.56535667">
        <ele>1102.0</ele>
        <time>2022-11-13T12:00:36.000Z</time>
      </trkpt>
      <trkpt lat="37.281265" lon="-3.565345">
        <ele>1102.0</ele>
        <time>2022-11-13T12:00:37.000Z</time>
      </trkpt>
      <trkpt lat="37.28126333" lon="-3.565335">
        <ele>1102.0</ele>
        <time>2022-11-13T12:00:38.000Z</time>
      </trkpt>
      <trkpt lat="37.28126" lon="-3.56532333">
        <ele>1102.0</ele>
        <time>2022-11-13T12:00:39.000Z</time>
      </trkpt>
      <trkpt lat="37.28125667" lon="-3.56531">
        <ele>1102.0</ele>
        <time>2022-11-13T12:00:40.000Z</time>
      </trkpt>
      <trkpt lat="37.28125333" lon="-3.56529833">
        <ele>1103.0</ele>
        <time>2022-11-13T12:00:41.000Z</time>
      </trkpt>
      <trkpt lat="37.28125333" lon="-3.56528833">
        <ele>1103.0</ele>
        <time>2022-11-13T12:00:42.000Z</time>
      </trkpt>
      <trkpt lat="37.28125" lon="-3.56527833">
        <ele>1103.0</ele>
        <time>2022-11-13T12:00:43.000Z</time>
      </trkpt>
      <trkpt lat="37.28124833" lon="-3.56526667">
        <ele>1103.0</ele>
        <time>2022-11-13T12:00:44.000Z</time>
      </trkpt>
      <trkpt lat="37.281245" lon="-3.56525333">
        <ele>1103.0</ele>
        <time>2022-11-13T12:00:45.000Z</time>
      </trkpt>
      <trkpt lat="37.28124" lon="-3.56524167">
        <ele>1103.0</ele>
        <time>2022-11-13T12:00:46.000Z</time>
      </trkpt>
      <trkpt lat="37.28123667" lon="-3.56522833">
        <ele>1103.0</ele>
        <time>2022-11-13T12:00:47.000Z</time>
      </trkpt>
      <trkpt lat="37.28123167" lon="-3.56521833">
        <ele>1103.0</ele>
        <time>2022-11-13T12:00:48.000Z</time>
      </trkpt>
      <trkpt lat="37.28123" lon="-3.56520667">
        <ele>1104.0</ele>
        <time>2022-11-13T12:00:49.000Z</time>
      </trkpt>
      <trkpt lat="37.28122667" lon="-3.56519333">
        <ele>1104.0</ele>
        <time>2022-11-13T12:00:50.000Z</time>
      </trkpt>
      <trkpt lat="37.28122667" lon="-3.56518167">
        <ele>1104.0</ele>
        <time>2022-11-13T12:00:51.000Z</time>
      </trkpt>
      <trkpt lat="37.28122333" lon="-3.56517">
        <ele>1104.0</ele>
        <time>2022-11-13T12:00:52.000Z</time>
      </trkpt>
      <trkpt lat="37.28122167" lon="-3.56515667">
        <ele>1104.0</ele>
        <time>2022-11-13T12:00:53.000Z</time>
      </trkpt>
      <trkpt lat="37.28122" lon="-3.56514333">
        <ele>1105.0</ele>
        <time>2022-11-13T12:00:54.000Z</time>
      </trkpt>
      <trkpt lat="37.28121667" lon="-3.56513">
        <ele>1105.0</ele>
        <time>2022-11-13T12:00:55.000Z</time>
      </trkpt>
      <trkpt lat="37.28121333" lon="-3.56511667">
        <ele>1105.0</ele>
        <time>2022-11-13T12:00:56.000Z</time>
      </trkpt>
      <trkpt lat="37.28121" lon="-3.56510167">
        <ele>1105.0</ele>
        <time>2022-11-13T12:00:57.000Z</time>
      </trkpt>
      <trkpt lat="37.28120833" lon="-3.56508833">
        <ele>1105.0</ele>
        <time>2022-11-13T12:00:58.000Z</time>
      </trkpt>
      <trkpt lat="37.28120667" lon="-3.565075">
        <ele>1106.0</ele>
        <time>2022-11-13T12:00:59.000Z</time>
      </trkpt>
      <trkpt lat="37.281205" lon="-3.56506167">
        <ele>1106.0</ele>
        <time>2022-11-13T12:01:00.000Z</time>
      </trkpt>
      <trkpt lat="37.28120167" lon="-3.56504833">
        <ele>1106.0</ele>
        <time>2022-11-13T12:01:01.000Z</time>
      </trkpt>
      <trkpt lat="37.2812" lon="-3.56503667">
        <ele>1106.0</ele>
        <time>2022-11-13T12:01:02.000Z</time>
      </trkpt>
      <trkpt lat="37.28119833" lon="-3.56502167">
        <ele>1106.0</ele>
        <time>2022-11-13T12:01:03.000Z</time>
      </trkpt>
      <trkpt lat="37.28119833" lon="-3.56500833">
        <ele>1107.0</ele>
        <time>2022-11-13T12:01:04.000Z</time>
      </trkpt>
      <trkpt lat="37.28119667" lon="-3.564995">
        <ele>1107.0</ele>
        <time>2022-11-13T12:01:05.000Z</time>
      </trkpt>
      <trkpt lat="37.28119667" lon="-3.56498">
        <ele>1107.0</ele>
        <time>2022-11-13T12:01:06.000Z</time>
      </trkpt>
      <trkpt lat="37.28119667" lon="-3.56496667">
        <ele>1107.0</ele>
        <time>2022-11-13T12:01:07.000Z</time>
      </trkpt>
      <trkpt lat="37.28119667" lon="-3.56495167">
        <ele>1107.0</ele>
        <time>2022-11-13T12:01:08.000Z</time>
      </trkpt>
      <trkpt lat="37.28119667" lon="-3.56493667">
        <ele>1108.0</ele>
        <time>2022-11-13T12:01:09.000Z</time>
      </trkpt>
      <trkpt lat="37.28119833" lon="-3.56492167">
        <ele>1108.0</ele>
        <time>2022-11-13T12:01:10.000Z</time>
      </trkpt>
      <trkpt lat="37.28119833" lon="-3.56490833">
        <ele>1108.0</ele>
        <time>2022-11-13T12:01:11.000Z</time>
      </trkpt>
      <trkpt lat="37.28119667" lon="-3.564895">
        <ele>1108.0</ele>
        <time>2022-11-13T12:01:12.000Z</time>
      </trkpt>
      <trkpt lat="37.28119667" lon="-3.56488">
        <ele>1108.0</ele>
        <time>2022-11-13T12:01:13.000Z</time>
      </trkpt>
      <trkpt lat="37.281195" lon="-3.56486667">
        <ele>1109.0</ele>
        <time>2022-11-13T12:01:14.000Z</time>
      </trkpt>
      <trkpt lat="37.281195" lon="-3.56485167">
        <ele>1109.0</ele>
        <time>2022-11-13T12:01:15.000Z</time>
      </trkpt>
      <trkpt lat="37.28119333" lon="-3.56483667">
        <ele>1109.0</ele>
        <time>2022-11-13T12:01:16.000Z</time>
      </trkpt>
      <trkpt lat="37.28119333" lon="-3.56482333">
        <ele>1109.0</ele>
        <time>2022-11-13T12:01:17.000Z</time>
      </trkpt>
      <trkpt lat="37.28119167" lon="-3.56481">
        <ele>1110.0</ele>
        <time>2022-11-13T12:01:18.000Z</time>
      </trkpt>
      <trkpt lat="37.28119167" lon="-3.56479667">
        <ele>1110.0</ele>
        <time>2022-11-13T12:01:19.000Z</time>
      </trkpt>
      <trkpt lat="37.28119167" lon="-3.56478167">
        <ele>1110.0</ele>
        <time>2022-11-13T12:01:20.000Z</time>
      </trkpt>
      <trkpt lat="37.28119167" lon="-3.56476833">
        <ele>1111.0</ele>
        <time>2022-11-13T12:01:21.000Z</time>
      </trkpt>
      <trkpt lat="37.28119" lon="-3.56475333">
        <ele>1111.0</ele>
        <time>2022-11-13T12:01:22.000Z</time>
      </trkpt>
      <trkpt lat="37.28119" lon="-3.56473833">
        <ele>1111.0</ele>
        <time>2022-11-13T12:01:23.000Z</time>
      </trkpt>
      <trkpt lat="37.28118833" lon="-3.564725">
        <ele>1111.0</ele>
        <time>2022-11-13T12:01:24.000Z</time>
      </trkpt>
      <trkpt lat="37.28118833" lon="-3.56471">
        <ele>1112.0</ele>
        <time>2022-11-13T12:01:25.000Z</time>
      </trkpt>
      <trkpt lat="37.28118833" lon="-3.564695">
        <ele>1112.0</ele>
        <time>2022-11-13T12:01:26.000Z</time>
      </trkpt>
      <trkpt lat="37.28118833" lon="-3.56468">
        <ele>1112.0</ele>
        <time>2022-11-13T12:01:27.000Z</time>
      </trkpt>
      <trkpt lat="37.28118833" lon="-3.564665">
        <ele>1112.0</ele>
        <time>2022-11-13T12:01:28.000Z</time>
      </trkpt>
      <trkpt lat="37.28118833" lon="-3.56465">
        <ele>1112.0</ele>
        <time>2022-11-13T12:01:29.000Z</time>
      </trkpt>
      <trkpt lat="37.28118667" lon="-3.564635">
        <ele>1112.0</ele>
        <time>2022-11-13T12:01:30.000Z</time>
      </trkpt>
      <trkpt lat="37.28118667" lon="-3.56462167">
        <ele>1112.0</ele>
        <time>2022-11-13T12:01:31.000Z</time>
      </trkpt>
      <trkpt lat="37.28118667" lon="-3.56460667">
        <ele>1113.0</ele>
        <time>2022-11-13T12:01:32.000Z</time>
      </trkpt>
      <trkpt lat="37.28118667" lon="-3.56459167">
        <ele>1113.0</ele>
        <time>2022-11-13T12:01:33.000Z</time>
      </trkpt>
      <trkpt lat="37.28118667" lon="-3.56457833">
        <ele>1113.0</ele>
        <time>2022-11-13T12:01:34.000Z</time>
      </trkpt>
      <trkpt lat="37.281185" lon="-3.56456333">
        <ele>1113.0</ele>
        <time>2022-11-13T12:01:35.000Z</time>
      </trkpt>
      <trkpt lat="37.28118333" lon="-3.56454833">
        <ele>1113.0</ele>
        <time>2022-11-13T12:01:36.000Z</time>
      </trkpt>
      <trkpt lat="37.28118167" lon="-3.56453333">
        <ele>1113.0</ele>
        <time>2022-11-13T12:01:37.000Z</time>
      </trkpt>
      <trkpt lat="37.28118333" lon="-3.56452">
        <ele>1114.0</ele>
        <time>2022-11-13T12:01:38.000Z</time>
      </trkpt>
      <trkpt lat="37.28118333" lon="-3.56450333">
        <ele>1114.0</ele>
        <time>2022-11-13T12:01:39.000Z</time>
      </trkpt>
      <trkpt lat="37.28118167" lon="-3.56449167">
        <ele>1114.0</ele>
        <time>2022-11-13T12:01:40.000Z</time>
      </trkpt>
      <trkpt lat="37.28118" lon="-3.56448">
        <ele>1114.0</ele>
        <time>2022-11-13T12:01:41.000Z</time>
      </trkpt>
      <trkpt lat="37.28117667" lon="-3.564465">
        <ele>1114.0</ele>
        <time>2022-11-13T12:01:42.000Z</time>
      </trkpt>
      <trkpt lat="37.281175" lon="-3.56445167">
        <ele>1114.0</ele>
        <time>2022-11-13T12:01:43.000Z</time>
      </trkpt>
      <trkpt lat="37.28117167" lon="-3.56443667">
        <ele>1114.0</ele>
        <time>2022-11-13T12:01:44.000Z</time>
      </trkpt>
      <trkpt lat="37.28117" lon="-3.56442167">
        <ele>1114.0</ele>
        <time>2022-11-13T12:01:45.000Z</time>
      </trkpt>
      <trkpt lat="37.28116833" lon="-3.56440667">
        <ele>1114.0</ele>
        <time>2022-11-13T12:01:46.000Z</time>
      </trkpt>
      <trkpt lat="37.28116833" lon="-3.56439">
        <ele>1114.0</ele>
        <time>2022-11-13T12:01:47.000Z</time>
      </trkpt>
      <trkpt lat="37.281165" lon="-3.56437833">
        <ele>1114.0</ele>
        <time>2022-11-13T12:01:48.000Z</time>
      </trkpt>
      <trkpt lat="37.28116167" lon="-3.564365">
        <ele>1115.0</ele>
        <time>2022-11-13T12:01:49.000Z</time>
      </trkpt>
      <trkpt lat="37.28115667" lon="-3.56435167">
        <ele>1115.0</ele>
        <time>2022-11-13T12:01:50.000Z</time>
      </trkpt>
      <trkpt lat="37.28115333" lon="-3.56433667">
        <ele>1115.0</ele>
        <time>2022-11-13T12:01:51.000Z</time>
      </trkpt>
      <trkpt lat="37.28115" lon="-3.56432333">
        <ele>1115.0</ele>
        <time>2022-11-13T12:01:52.000Z</time>
      </trkpt>
      <trkpt lat="37.28114833" lon="-3.56430833">
        <ele>1115.0</ele>
        <time>2022-11-13T12:01:53.000Z</time>
      </trkpt>
      <trkpt lat="37.281145" lon="-3.564295">
        <ele>1115.0</ele>
        <time>2022-11-13T12:01:54.000Z</time>
      </trkpt>
      <trkpt lat="37.28114" lon="-3.56428">
        <ele>1115.0</ele>
        <time>2022-11-13T12:01:55.000Z</time>
      </trkpt>
      <trkpt lat="37.28113667" lon="-3.564265">
        <ele>1116.0</ele>
        <time>2022-11-13T12:01:56.000Z</time>
      </trkpt>
      <trkpt lat="37.28113333" lon="-3.56424833">
        <ele>1116.0</ele>
        <time>2022-11-13T12:01:57.000Z</time>
      </trkpt>
      <trkpt lat="37.28113167" lon="-3.56423167">
        <ele>1116.0</ele>
        <time>2022-11-13T12:01:58.000Z</time>
      </trkpt>
      <trkpt lat="37.28113167" lon="-3.564215">
        <ele>1116.0</ele>
        <time>2022-11-13T12:01:59.000Z</time>
      </trkpt>
      <trkpt lat="37.28113167" lon="-3.56420167">
        <ele>1116.0</ele>
        <time>2022-11-13T12:02:00.000Z</time>
      </trkpt>
      <trkpt lat="37.28113" lon="-3.564185">
        <ele>1116.0</ele>
        <time>2022-11-13T12:02:01.000Z</time>
      </trkpt>
      <trkpt lat="37.28112833" lon="-3.56417">
        <ele>1116.0</ele>
        <time>2022-11-13T12:02:02.000Z</time>
      </trkpt>
      <trkpt lat="37.28112833" lon="-3.564155">
        <ele>1116.0</ele>
        <time>2022-11-13T12:02:03.000Z</time>
      </trkpt>
      <trkpt lat="37.28112833" lon="-3.56413833">
        <ele>1116.0</ele>
        <time>2022-11-13T12:02:04.000Z</time>
      </trkpt>
      <trkpt lat="37.28112833" lon="-3.56412333">
        <ele>1117.0</ele>
        <time>2022-11-13T12:02:05.000Z</time>
      </trkpt>
      <trkpt lat="37.28112833" lon="-3.56410667">
        <ele>1117.0</ele>
        <time>2022-11-13T12:02:06.000Z</time>
      </trkpt>
      <trkpt lat="37.28113" lon="-3.56409">
        <ele>1117.0</ele>
        <time>2022-11-13T12:02:07.000Z</time>
      </trkpt>
      <trkpt lat="37.28113333" lon="-3.56407167">
        <ele>1117.0</ele>
        <time>2022-11-13T12:02:08.000Z</time>
      </trkpt>
      <trkpt lat="37.281135" lon="-3.56405667">
        <ele>1117.0</ele>
        <time>2022-11-13T12:02:09.000Z</time>
      </trkpt>
      <trkpt lat="37.28113667" lon="-3.56404">
        <ele>1117.0</ele>
        <time>2022-11-13T12:02:10.000Z</time>
      </trkpt>
      <trkpt lat="37.28114" lon="-3.564025">
        <ele>1117.0</ele>
        <time>2022-11-13T12:02:11.000Z</time>
      </trkpt>
      <trkpt lat="37.28114167" lon="-3.56401">
        <ele>1117.0</ele>
        <time>2022-11-13T12:02:12.000Z</time>
      </trkpt>
      <trkpt lat="37.28114333" lon="-3.56399333">
        <ele>1117.0</ele>
        <time>2022-11-13T12:02:13.000Z</time>
      </trkpt>
      <trkpt lat="37.28114667" lon="-3.56397833">
        <ele>1118.0</ele>
        <time>2022-11-13T12:02:14.000Z</time>
      </trkpt>
      <trkpt lat="37.28115" lon="-3.56396333">
        <ele>1118.0</ele>
        <time>2022-11-13T12:02:15.000Z</time>
      </trkpt>
      <trkpt lat="37.281155" lon="-3.56395">
        <ele>1118.0</ele>
        <time>2022-11-13T12:02:16.000Z</time>
      </trkpt>
      <trkpt lat="37.28115833" lon="-3.56393667">
        <ele>1118.0</ele>
        <time>2022-11-13T12:02:17.000Z</time>
      </trkpt>
      <trkpt lat="37.28116167" lon="-3.56392333">
        <ele>1118.0</ele>
        <time>2022-11-13T12:02:18.000Z</time>
      </trkpt>
      <trkpt lat="37.28116333" lon="-3.56390833">
        <ele>1118.0</ele>
        <time>2022-11-13T12:02:19.000Z</time>
      </trkpt>
      <trkpt lat="37.28116667" lon="-3.563895">
        <ele>1118.0</ele>
        <time>2022-11-13T12:02:20.000Z</time>
      </trkpt>
      <trkpt lat="37.28117" lon="-3.56388167">
        <ele>1118.0</ele>
        <time>2022-11-13T12:02:21.000Z</time>
      </trkpt>
      <trkpt lat="37.28117333" lon="-3.56386667">
        <ele>1118.0</ele>
        <time>2022-11-13T12:02:22.000Z</time>
      </trkpt>
      <trkpt lat="37.281175" lon="-3.56385333">
        <ele>1118.0</ele>
        <time>2022-11-13T12:02:23.000Z</time>
      </trkpt>
      <trkpt lat="37.28118" lon="-3.56383833">
        <ele>1119.0</ele>
        <time>2022-11-13T12:02:24.000Z</time>
      </trkpt>
      <trkpt lat="37.28118333" lon="-3.563825">
        <ele>1119.0</ele>
        <time>2022-11-13T12:02:25.000Z</time>
      </trkpt>
      <trkpt lat="37.28118667" lon="-3.56381167">
        <ele>1119.0</ele>
        <time>2022-11-13T12:02:26.000Z</time>
      </trkpt>
      <trkpt lat="37.28119167" lon="-3.56379667">
        <ele>1119.0</ele>
        <time>2022-11-13T12:02:27.000Z</time>
      </trkpt>
      <trkpt lat="37.281195" lon="-3.56378333">
        <ele>1119.0</ele>
        <time>2022-11-13T12:02:28.000Z</time>
      </trkpt>
      <trkpt lat="37.28119833" lon="-3.56377">
        <ele>1119.0</ele>
        <time>2022-11-13T12:02:29.000Z</time>
      </trkpt>
      <trkpt lat="37.28120167" lon="-3.56375667">
        <ele>1119.0</ele>
        <time>2022-11-13T12:02:30.000Z</time>
      </trkpt>
      <trkpt lat="37.28120667" lon="-3.563745">
        <ele>1119.0</ele>
        <time>2022-11-13T12:02:31.000Z</time>
      </trkpt>
      <trkpt lat="37.28121167" lon="-3.56373167">
        <ele>1119.0</ele>
        <time>2022-11-13T12:02:32.000Z</time>
      </trkpt>
      <trkpt lat="37.28121667" lon="-3.56371833">
        <ele>1119.0</ele>
        <time>2022-11-13T12:02:33.000Z</time>
      </trkpt>
      <trkpt lat="37.28122333" lon="-3.563705">
        <ele>1119.0</ele>
        <time>2022-11-13T12:02:34.000Z</time>
      </trkpt>
      <trkpt lat="37.28122833" lon="-3.56369333">
        <ele>1119.0</ele>
        <time>2022-11-13T12:02:35.000Z</time>
      </trkpt>
      <trkpt lat="37.28123333" lon="-3.56367833">
        <ele>1119.0</ele>
        <time>2022-11-13T12:02:36.000Z</time>
      </trkpt>
      <trkpt lat="37.28124" lon="-3.56366667">
        <ele>1119.0</ele>
        <time>2022-11-13T12:02:37.000Z</time>
      </trkpt>
      <trkpt lat="37.281245" lon="-3.563655">
        <ele>1119.0</ele>
        <time>2022-11-13T12:02:38.000Z</time>
      </trkpt>
      <trkpt lat="37.28125167" lon="-3.56364">
        <ele>1119.0</ele>
        <time>2022-11-13T12:02:39.000Z</time>
      </trkpt>
      <trkpt lat="37.28125667" lon="-3.56362833">
        <ele>1119.0</ele>
        <time>2022-11-13T12:02:40.000Z</time>
      </trkpt>
      <trkpt lat="37.28126167" lon="-3.56361833">
        <ele>1119.0</ele>
        <time>2022-11-13T12:02:41.000Z</time>
      </trkpt>
      <trkpt lat="37.28126667" lon="-3.56360667">
        <ele>1120.0</ele>
        <time>2022-11-13T12:02:42.000Z</time>
      </trkpt>
      <trkpt lat="37.28127167" lon="-3.563595">
        <ele>1120.0</ele>
        <time>2022-11-13T12:02:43.000Z</time>
      </trkpt>
      <trkpt lat="37.281275" lon="-3.56358333">
        <ele>1120.0</ele>
        <time>2022-11-13T12:02:44.000Z</time>
      </trkpt>
      <trkpt lat="37.28127667" lon="-3.56357167">
        <ele>1120.0</ele>
        <time>2022-11-13T12:02:45.000Z</time>
      </trkpt>
      <trkpt lat="37.28128" lon="-3.56355667">
        <ele>1120.0</ele>
        <time>2022-11-13T12:02:46.000Z</time>
      </trkpt>
      <trkpt lat="37.28128167" lon="-3.56354167">
        <ele>1120.0</ele>
        <time>2022-11-13T12:02:47.000Z</time>
      </trkpt>
      <trkpt lat="37.28128167" lon="-3.56352667">
        <ele>1120.0</ele>
        <time>2022-11-13T12:02:48.000Z</time>
      </trkpt>
      <trkpt lat="37.28128167" lon="-3.56351167">
        <ele>1120.0</ele>
        <time>2022-11-13T12:02:49.000Z</time>
      </trkpt>
      <trkpt lat="37.28127833" lon="-3.56350167">
        <ele>1120.0</ele>
        <time>2022-11-13T12:02:50.000Z</time>
      </trkpt>
      <trkpt lat="37.28127333" lon="-3.56349167">
        <ele>1120.0</ele>
        <time>2022-11-13T12:02:51.000Z</time>
      </trkpt>
      <trkpt lat="37.28126833" lon="-3.56348333">
        <ele>1121.0</ele>
        <time>2022-11-13T12:02:52.000Z</time>
      </trkpt>
      <trkpt lat="37.281265" lon="-3.56347333">
        <ele>1121.0</ele>
        <time>2022-11-13T12:02:53.000Z</time>
      </trkpt>
      <trkpt lat="37.28126667" lon="-3.56346667">
        <ele>1121.0</ele>
        <time>2022-11-13T12:02:54.000Z</time>
      </trkpt>
      <trkpt lat="37.28126667" lon="-3.56346">
        <ele>1121.0</ele>
        <time>2022-11-13T12:02:55.000Z</time>
      </trkpt>
      <trkpt lat="37.28126667" lon="-3.56345833">
        <ele>1121.0</ele>
        <time>2022-11-13T12:02:56.000Z</time>
      </trkpt>
      <trkpt lat="37.28126833" lon="-3.56345833">
        <ele>1121.0</ele>
        <time>2022-11-13T12:02:57.000Z</time>
      </trkpt>
      <trkpt lat="37.28126833" lon="-3.56345667">
        <ele>1121.0</ele>
        <time>2022-11-13T12:02:58.000Z</time>
      </trkpt>
      <trkpt lat="37.28126833" lon="-3.563455">
        <ele>1121.0</ele>
        <time>2022-11-13T12:02:59.000Z</time>
      </trkpt>
      <trkpt lat="37.28127" lon="-3.56345333">
        <ele>1121.0</ele>
        <time>2022-11-13T12:03:00.000Z</time>
      </trkpt>
      <trkpt lat="37.28127" lon="-3.56345167">
        <ele>1121.0</ele>
        <time>2022-11-13T12:03:01.000Z</time>
      </trkpt>
      <trkpt lat="37.28127" lon="-3.56345">
        <ele>1121.0</ele>
        <time>2022-11-13T12:03:02.000Z</time>
      </trkpt>
      <trkpt lat="37.28127" lon="-3.56344833">
        <ele>1121.0</ele>
        <time>2022-11-13T12:03:03.000Z</time>
      </trkpt>
      <trkpt lat="37.28127" lon="-3.56344667">
        <ele>1121.0</ele>
        <time>2022-11-13T12:03:04.000Z</time>
      </trkpt>
      <trkpt lat="37.28127" lon="-3.563445">
        <ele>1121.0</ele>
        <time>2022-11-13T12:03:05.000Z</time>
      </trkpt>
      <trkpt lat="37.28127167" lon="-3.56344333">
        <ele>1121.0</ele>
        <time>2022-11-13T12:03:06.000Z</time>
      </trkpt>
      <trkpt lat="37.28127167" lon="-3.56344167">
        <ele>1121.0</ele>
        <time>2022-11-13T12:03:07.000Z</time>
      </trkpt>
      <trkpt lat="37.28127333" lon="-3.56344">
        <ele>1121.0</ele>
        <time>2022-11-13T12:03:08.000Z</time>
      </trkpt>
      <trkpt lat="37.28127333" lon="-3.56344">
        <ele>1121.0</ele>
        <time>2022-11-13T12:03:09.000Z</time>
      </trkpt>
      <trkpt lat="37.28127333" lon="-3.56344167">
        <ele>1121.0</ele>
        <time>2022-11-13T12:03:10.000Z</time>
      </trkpt>
      <trkpt lat="37.281275" lon="-3.56343833">
        <ele>1121.0</ele>
        <time>2022-11-13T12:03:11.000Z</time>
      </trkpt>
      <trkpt lat="37.281275" lon="-3.56343833">
        <ele>1121.0</ele>
        <time>2022-11-13T12:03:12.000Z</time>
      </trkpt>
      <trkpt lat="37.281275" lon="-3.56343667">
        <ele>1121.0</ele>
        <time>2022-11-13T12:03:13.000Z</time>
      </trkpt>
      <trkpt lat="37.28127167" lon="-3.563435">
        <ele>1121.0</ele>
        <time>2022-11-13T12:03:14.000Z</time>
      </trkpt>
      <trkpt lat="37.28127333" lon="-3.56343333">
        <ele>1121.0</ele>
        <time>2022-11-13T12:03:15.000Z</time>
      </trkpt>
      <trkpt lat="37.28127333" lon="-3.56343333">
        <ele>1121.0</ele>
        <time>2022-11-13T12:03:16.000Z</time>
      </trkpt>
      <trkpt lat="37.28127333" lon="-3.56343167">
        <ele>1121.0</ele>
        <time>2022-11-13T12:03:17.000Z</time>
      </trkpt>
      <trkpt lat="37.281275" lon="-3.56342667">
        <ele>1121.0</ele>
        <time>2022-11-13T12:03:18.000Z</time>
      </trkpt>
      <trkpt lat="37.281275" lon="-3.56342667">
        <ele>1122.0</ele>
        <time>2022-11-13T12:03:19.000Z</time>
      </trkpt>
      <trkpt lat="37.281275" lon="-3.56342667">
        <ele>1122.0</ele>
        <time>2022-11-13T12:03:20.000Z</time>
      </trkpt>
      <trkpt lat="37.28127833" lon="-3.56342833">
        <ele>1122.0</ele>
        <time>2022-11-13T12:03:21.000Z</time>
      </trkpt>
      <trkpt lat="37.28128" lon="-3.56343333">
        <ele>1122.0</ele>
        <time>2022-11-13T12:03:22.000Z</time>
      </trkpt>
      <trkpt lat="37.28128167" lon="-3.563435">
        <ele>1122.0</ele>
        <time>2022-11-13T12:03:23.000Z</time>
      </trkpt>
      <trkpt lat="37.28128167" lon="-3.56343667">
        <ele>1122.0</ele>
        <time>2022-11-13T12:03:24.000Z</time>
      </trkpt>
      <trkpt lat="37.28128333" lon="-3.56343667">
        <ele>1122.0</ele>
        <time>2022-11-13T12:03:25.000Z</time>
      </trkpt>
      <trkpt lat="37.28128333" lon="-3.563435">
        <ele>1122.0</ele>
        <time>2022-11-13T12:03:26.000Z</time>
      </trkpt>
      <trkpt lat="37.281285" lon="-3.56343">
        <ele>1122.0</ele>
        <time>2022-11-13T12:03:27.000Z</time>
      </trkpt>
      <trkpt lat="37.28128667" lon="-3.56342333">
        <ele>1122.0</ele>
        <time>2022-11-13T12:03:28.000Z</time>
      </trkpt>
      <trkpt lat="37.28128833" lon="-3.56341833">
        <ele>1122.0</ele>
        <time>2022-11-13T12:03:29.000Z</time>
      </trkpt>
      <trkpt lat="37.28129167" lon="-3.56341333">
        <ele>1122.0</ele>
        <time>2022-11-13T12:03:30.000Z</time>
      </trkpt>
      <trkpt lat="37.28129667" lon="-3.56340667">
        <ele>1122.0</ele>
        <time>2022-11-13T12:03:31.000Z</time>
      </trkpt>
      <trkpt lat="37.28130167" lon="-3.5634">
        <ele>1122.0</ele>
        <time>2022-11-13T12:03:32.000Z</time>
      </trkpt>
      <trkpt lat="37.281305" lon="-3.563395">
        <ele>1122.0</ele>
        <time>2022-11-13T12:03:33.000Z</time>
      </trkpt>
      <trkpt lat="37.28130833" lon="-3.56338667">
        <ele>1122.0</ele>
        <time>2022-11-13T12:03:34.000Z</time>
      </trkpt>
      <trkpt lat="37.28131167" lon="-3.56337667">
        <ele>1122.0</ele>
        <time>2022-11-13T12:03:35.000Z</time>
      </trkpt>
      <trkpt lat="37.281315" lon="-3.56336667">
        <ele>1122.0</ele>
        <time>2022-11-13T12:03:36.000Z</time>
      </trkpt>
      <trkpt lat="37.28131667" lon="-3.56335667">
        <ele>1122.0</ele>
        <time>2022-11-13T12:03:37.000Z</time>
      </trkpt>
      <trkpt lat="37.28131833" lon="-3.563345">
        <ele>1122.0</ele>
        <time>2022-11-13T12:03:38.000Z</time>
      </trkpt>
      <trkpt lat="37.28132167" lon="-3.56333333">
        <ele>1122.0</ele>
        <time>2022-11-13T12:03:39.000Z</time>
      </trkpt>
      <trkpt lat="37.281325" lon="-3.56332">
        <ele>1122.0</ele>
        <time>2022-11-13T12:03:40.000Z</time>
      </trkpt>
      <trkpt lat="37.28132833" lon="-3.56331">
        <ele>1122.0</ele>
        <time>2022-11-13T12:03:41.000Z</time>
      </trkpt>
      <trkpt lat="37.28133167" lon="-3.56329833">
        <ele>1122.0</ele>
        <time>2022-11-13T12:03:42.000Z</time>
      </trkpt>
      <trkpt lat="37.28133333" lon="-3.563285">
        <ele>1122.0</ele>
        <time>2022-11-13T12:03:43.000Z</time>
      </trkpt>
      <trkpt lat="37.28133667" lon="-3.56327167">
        <ele>1122.0</ele>
        <time>2022-11-13T12:03:44.000Z</time>
      </trkpt>
      <trkpt lat="37.28134" lon="-3.56325833">
        <ele>1122.0</ele>
        <time>2022-11-13T12:03:45.000Z</time>
      </trkpt>
      <trkpt lat="37.281345" lon="-3.56324667">
        <ele>1122.0</ele>
        <time>2022-11-13T12:03:46.000Z</time>
      </trkpt>
      <trkpt lat="37.28135" lon="-3.56323333">
        <ele>1122.0</ele>
        <time>2022-11-13T12:03:47.000Z</time>
      </trkpt>
      <trkpt lat="37.281355" lon="-3.56322">
        <ele>1122.0</ele>
        <time>2022-11-13T12:03:48.000Z</time>
      </trkpt>
      <trkpt lat="37.28136167" lon="-3.563205">
        <ele>1122.0</ele>
        <time>2022-11-13T12:03:49.000Z</time>
      </trkpt>
      <trkpt lat="37.28136667" lon="-3.56319">
        <ele>1122.0</ele>
        <time>2022-11-13T12:03:50.000Z</time>
      </trkpt>
      <trkpt lat="37.281375" lon="-3.563175">
        <ele>1122.0</ele>
        <time>2022-11-13T12:03:51.000Z</time>
      </trkpt>
      <trkpt lat="37.281385" lon="-3.56316">
        <ele>1122.0</ele>
        <time>2022-11-13T12:03:52.000Z</time>
      </trkpt>
      <trkpt lat="37.281395" lon="-3.563145">
        <ele>1122.0</ele>
        <time>2022-11-13T12:03:53.000Z</time>
      </trkpt>
      <trkpt lat="37.28140667" lon="-3.563135">
        <ele>1122.0</ele>
        <time>2022-11-13T12:03:54.000Z</time>
      </trkpt>
      <trkpt lat="37.28142" lon="-3.56312167">
        <ele>1122.0</ele>
        <time>2022-11-13T12:03:55.000Z</time>
      </trkpt>
      <trkpt lat="37.28143667" lon="-3.56311333">
        <ele>1122.0</ele>
        <time>2022-11-13T12:03:56.000Z</time>
      </trkpt>
      <trkpt lat="37.28145167" lon="-3.56310833">
        <ele>1123.0</ele>
        <time>2022-11-13T12:03:57.000Z</time>
      </trkpt>
      <trkpt lat="37.28146667" lon="-3.56310667">
        <ele>1123.0</ele>
        <time>2022-11-13T12:03:58.000Z</time>
      </trkpt>
      <trkpt lat="37.28148" lon="-3.563105">
        <ele>1123.0</ele>
        <time>2022-11-13T12:03:59.000Z</time>
      </trkpt>
      <trkpt lat="37.28149333" lon="-3.56310667">
        <ele>1123.0</ele>
        <time>2022-11-13T12:04:00.000Z</time>
      </trkpt>
      <trkpt lat="37.28150667" lon="-3.56310833">
        <ele>1123.0</ele>
        <time>2022-11-13T12:04:01.000Z</time>
      </trkpt>
      <trkpt lat="37.28151833" lon="-3.56311167">
        <ele>1123.0</ele>
        <time>2022-11-13T12:04:02.000Z</time>
      </trkpt>
      <trkpt lat="37.28153" lon="-3.563115">
        <ele>1123.0</ele>
        <time>2022-11-13T12:04:03.000Z</time>
      </trkpt>
      <trkpt lat="37.28154167" lon="-3.56311833">
        <ele>1123.0</ele>
        <time>2022-11-13T12:04:04.000Z</time>
      </trkpt>
      <trkpt lat="37.28155333" lon="-3.56312333">
        <ele>1123.0</ele>
        <time>2022-11-13T12:04:05.000Z</time>
      </trkpt>
      <trkpt lat="37.28156667" lon="-3.56312667">
        <ele>1123.0</ele>
        <time>2022-11-13T12:04:06.000Z</time>
      </trkpt>
      <trkpt lat="37.28158" lon="-3.56313167">
        <ele>1123.0</ele>
        <time>2022-11-13T12:04:07.000Z</time>
      </trkpt>
      <trkpt lat="37.28159167" lon="-3.56313667">
        <ele>1123.0</ele>
        <time>2022-11-13T12:04:08.000Z</time>
      </trkpt>
      <trkpt lat="37.281605" lon="-3.56314">
        <ele>1123.0</ele>
        <time>2022-11-13T12:04:09.000Z</time>
      </trkpt>
      <trkpt lat="37.28161667" lon="-3.563145">
        <ele>1123.0</ele>
        <time>2022-11-13T12:04:10.000Z</time>
      </trkpt>
      <trkpt lat="37.28163" lon="-3.56314667">
        <ele>1123.0</ele>
        <time>2022-11-13T12:04:11.000Z</time>
      </trkpt>
      <trkpt lat="37.28164167" lon="-3.56314833">
        <ele>1123.0</ele>
        <time>2022-11-13T12:04:12.000Z</time>
      </trkpt>
      <trkpt lat="37.281655" lon="-3.56314833">
        <ele>1123.0</ele>
        <time>2022-11-13T12:04:13.000Z</time>
      </trkpt>
      <trkpt lat="37.28166667" lon="-3.56315">
        <ele>1123.0</ele>
        <time>2022-11-13T12:04:14.000Z</time>
      </trkpt>
      <trkpt lat="37.28168167" lon="-3.56315167">
        <ele>1123.0</ele>
        <time>2022-11-13T12:04:15.000Z</time>
      </trkpt>
      <trkpt lat="37.281695" lon="-3.56315333">
        <ele>1123.0</ele>
        <time>2022-11-13T12:04:16.000Z</time>
      </trkpt>
      <trkpt lat="37.28171" lon="-3.56315667">
        <ele>1123.0</ele>
        <time>2022-11-13T12:04:17.000Z</time>
      </trkpt>
      <trkpt lat="37.28172167" lon="-3.56315667">
        <ele>1123.0</ele>
        <time>2022-11-13T12:04:18.000Z</time>
      </trkpt>
      <trkpt lat="37.28173333" lon="-3.56315667">
        <ele>1123.0</ele>
        <time>2022-11-13T12:04:19.000Z</time>
      </trkpt>
      <trkpt lat="37.28174667" lon="-3.56316">
        <ele>1123.0</ele>
        <time>2022-11-13T12:04:20.000Z</time>
      </trkpt>
      <trkpt lat="37.28176" lon="-3.56316167">
        <ele>1123.0</ele>
        <time>2022-11-13T12:04:21.000Z</time>
      </trkpt>
      <trkpt lat="37.281775" lon="-3.56316333">
        <ele>1123.0</ele>
        <time>2022-11-13T12:04:22.000Z</time>
      </trkpt>
      <trkpt lat="37.28179" lon="-3.56316667">
        <ele>1123.0</ele>
        <time>2022-11-13T12:04:23.000Z</time>
      </trkpt>
      <trkpt lat="37.28180667" lon="-3.56317">
        <ele>1123.0</ele>
        <time>2022-11-13T12:04:24.000Z</time>
      </trkpt>
      <trkpt lat="37.28182" lon="-3.56317333">
        <ele>1123.0</ele>
        <time>2022-11-13T12:04:25.000Z</time>
      </trkpt>
      <trkpt lat="37.28183333" lon="-3.56317333">
        <ele>1123.0</ele>
        <time>2022-11-13T12:04:26.000Z</time>
      </trkpt>
      <trkpt lat="37.28184667" lon="-3.56317667">
        <ele>1123.0</ele>
        <time>2022-11-13T12:04:27.000Z</time>
      </trkpt>
      <trkpt lat="37.28186167" lon="-3.56318167">
        <ele>1123.0</ele>
        <time>2022-11-13T12:04:28.000Z</time>
      </trkpt>
      <trkpt lat="37.281875" lon="-3.563185">
        <ele>1123.0</ele>
        <time>2022-11-13T12:04:29.000Z</time>
      </trkpt>
      <trkpt lat="37.28188833" lon="-3.56318833">
        <ele>1123.0</ele>
        <time>2022-11-13T12:04:30.000Z</time>
      </trkpt>
      <trkpt lat="37.28190167" lon="-3.56319167">
        <ele>1123.0</ele>
        <time>2022-11-13T12:04:31.000Z</time>
      </trkpt>
      <trkpt lat="37.281915" lon="-3.56319333">
        <ele>1123.0</ele>
        <time>2022-11-13T12:04:32.000Z</time>
      </trkpt>
      <trkpt lat="37.28192833" lon="-3.563195">
        <ele>1123.0</ele>
        <time>2022-11-13T12:04:33.000Z</time>
      </trkpt>
      <trkpt lat="37.28194167" lon="-3.56319667">
        <ele>1123.0</ele>
        <time>2022-11-13T12:04:34.000Z</time>
      </trkpt>
      <trkpt lat="37.28195667" lon="-3.56319833">
        <ele>1123.0</ele>
        <time>2022-11-13T12:04:35.000Z</time>
      </trkpt>
      <trkpt lat="37.28197" lon="-3.5632">
        <ele>1123.0</ele>
        <time>2022-11-13T12:04:36.000Z</time>
      </trkpt>
      <trkpt lat="37.28198" lon="-3.56319833">
        <ele>1123.0</ele>
        <time>2022-11-13T12:04:37.000Z</time>
      </trkpt>
      <trkpt lat="37.28199" lon="-3.56319833">
        <ele>1123.0</ele>
        <time>2022-11-13T12:04:38.000Z</time>
      </trkpt>
      <trkpt lat="37.28200167" lon="-3.5632">
        <ele>1123.0</ele>
        <time>2022-11-13T12:04:39.000Z</time>
      </trkpt>
      <trkpt lat="37.282015" lon="-3.56320167">
        <ele>1123.0</ele>
        <time>2022-11-13T12:04:40.000Z</time>
      </trkpt>
      <trkpt lat="37.28202833" lon="-3.56320333">
        <ele>1123.0</ele>
        <time>2022-11-13T12:04:41.000Z</time>
      </trkpt>
      <trkpt lat="37.28204" lon="-3.56320667">
        <ele>1123.0</ele>
        <time>2022-11-13T12:04:42.000Z</time>
      </trkpt>
      <trkpt lat="37.28204167" lon="-3.56320667">
        <ele>1123.0</ele>
        <time>2022-11-13T12:04:43.000Z</time>
      </trkpt>
      <trkpt lat="37.282045" lon="-3.56320667">
        <ele>1122.0</ele>
        <time>2022-11-13T12:04:44.000Z</time>
      </trkpt>
      <trkpt lat="37.28205167" lon="-3.563205">
        <ele>1122.0</ele>
        <time>2022-11-13T12:04:45.000Z</time>
      </trkpt>
      <trkpt lat="37.28206333" lon="-3.56320833">
        <ele>1122.0</ele>
        <time>2022-11-13T12:04:46.000Z</time>
      </trkpt>
      <trkpt lat="37.28207667" lon="-3.56321">
        <ele>1122.0</ele>
        <time>2022-11-13T12:04:47.000Z</time>
      </trkpt>
      <trkpt lat="37.28208833" lon="-3.56321333">
        <ele>1122.0</ele>
        <time>2022-11-13T12:04:48.000Z</time>
      </trkpt>
      <trkpt lat="37.2821" lon="-3.563215">
        <ele>1122.0</ele>
        <time>2022-11-13T12:04:49.000Z</time>
      </trkpt>
      <trkpt lat="37.282115" lon="-3.56321833">
        <ele>1122.0</ele>
        <time>2022-11-13T12:04:50.000Z</time>
      </trkpt>
      <trkpt lat="37.28213" lon="-3.56322167">
        <ele>1122.0</ele>
        <time>2022-11-13T12:04:51.000Z</time>
      </trkpt>
      <trkpt lat="37.282145" lon="-3.56322167">
        <ele>1122.0</ele>
        <time>2022-11-13T12:04:52.000Z</time>
      </trkpt>
      <trkpt lat="37.28215833" lon="-3.56322167">
        <ele>1122.0</ele>
        <time>2022-11-13T12:04:53.000Z</time>
      </trkpt>
      <trkpt lat="37.28217167" lon="-3.56322333">
        <ele>1122.0</ele>
        <time>2022-11-13T12:04:54.000Z</time>
      </trkpt>
      <trkpt lat="37.282185" lon="-3.56322333">
        <ele>1122.0</ele>
        <time>2022-11-13T12:04:55.000Z</time>
      </trkpt>
      <trkpt lat="37.28219833" lon="-3.56322333">
        <ele>1122.0</ele>
        <time>2022-11-13T12:04:56.000Z</time>
      </trkpt>
      <trkpt lat="37.28221333" lon="-3.563225">
        <ele>1122.0</ele>
        <time>2022-11-13T12:04:57.000Z</time>
      </trkpt>
      <trkpt lat="37.282225" lon="-3.56322667">
        <ele>1122.0</ele>
        <time>2022-11-13T12:04:58.000Z</time>
      </trkpt>
      <trkpt lat="37.28224" lon="-3.56323">
        <ele>1121.0</ele>
        <time>2022-11-13T12:04:59.000Z</time>
      </trkpt>
      <trkpt lat="37.282255" lon="-3.56323333">
        <ele>1121.0</ele>
        <time>2022-11-13T12:05:00.000Z</time>
      </trkpt>
      <trkpt lat="37.28227167" lon="-3.56323833">
        <ele>1121.0</ele>
        <time>2022-11-13T12:05:01.000Z</time>
      </trkpt>
      <trkpt lat="37.28228667" lon="-3.56324167">
        <ele>1121.0</ele>
        <time>2022-11-13T12:05:02.000Z</time>
      </trkpt>
      <trkpt lat="37.28230167" lon="-3.563245">
        <ele>1121.0</ele>
        <time>2022-11-13T12:05:03.000Z</time>
      </trkpt>
      <trkpt lat="37.28231667" lon="-3.56324833">
        <ele>1121.0</ele>
        <time>2022-11-13T12:05:04.000Z</time>
      </trkpt>
      <trkpt lat="37.28233167" lon="-3.56325333">
        <ele>1121.0</ele>
        <time>2022-11-13T12:05:05.000Z</time>
      </trkpt>
      <trkpt lat="37.28234833" lon="-3.56325833">
        <ele>1121.0</ele>
        <time>2022-11-13T12:05:06.000Z</time>
      </trkpt>
      <trkpt lat="37.28236333" lon="-3.563265">
        <ele>1121.0</ele>
        <time>2022-11-13T12:05:07.000Z</time>
      </trkpt>
      <trkpt lat="37.28237833" lon="-3.56327167">
        <ele>1121.0</ele>
        <time>2022-11-13T12:05:08.000Z</time>
      </trkpt>
      <trkpt lat="37.28239333" lon="-3.56327667">
        <ele>1121.0</ele>
        <time>2022-11-13T12:05:09.000Z</time>
      </trkpt>
      <trkpt lat="37.28240833" lon="-3.56328167">
        <ele>1120.0</ele>
        <time>2022-11-13T12:05:10.000Z</time>
      </trkpt>
      <trkpt lat="37.28242167" lon="-3.563285">
        <ele>1120.0</ele>
        <time>2022-11-13T12:05:11.000Z</time>
      </trkpt>
      <trkpt lat="37.282435" lon="-3.56328833">
        <ele>1120.0</ele>
        <time>2022-11-13T12:05:12.000Z</time>
      </trkpt>
      <trkpt lat="37.28245" lon="-3.56328833">
        <ele>1120.0</ele>
        <time>2022-11-13T12:05:13.000Z</time>
      </trkpt>
      <trkpt lat="37.28246167" lon="-3.56328667">
        <ele>1120.0</ele>
        <time>2022-11-13T12:05:14.000Z</time>
      </trkpt>
      <trkpt lat="37.282475" lon="-3.56328333">
        <ele>1119.0</ele>
        <time>2022-11-13T12:05:15.000Z</time>
      </trkpt>
      <trkpt lat="37.28248833" lon="-3.56327833">
        <ele>1119.0</ele>
        <time>2022-11-13T12:05:16.000Z</time>
      </trkpt>
      <trkpt lat="37.2825" lon="-3.56327333">
        <ele>1119.0</ele>
        <time>2022-11-13T12:05:17.000Z</time>
      </trkpt>
      <trkpt lat="37.28251167" lon="-3.56326833">
        <ele>1119.0</ele>
        <time>2022-11-13T12:05:18.000Z</time>
      </trkpt>
      <trkpt lat="37.28252333" lon="-3.56326167">
        <ele>1119.0</ele>
        <time>2022-11-13T12:05:19.000Z</time>
      </trkpt>
      <trkpt lat="37.282535" lon="-3.563255">
        <ele>1118.0</ele>
        <time>2022-11-13T12:05:20.000Z</time>
      </trkpt>
      <trkpt lat="37.28254667" lon="-3.56324833">
        <ele>1118.0</ele>
        <time>2022-11-13T12:05:21.000Z</time>
      </trkpt>
      <trkpt lat="37.28255667" lon="-3.56324167">
        <ele>1118.0</ele>
        <time>2022-11-13T12:05:22.000Z</time>
      </trkpt>
      <trkpt lat="37.28256667" lon="-3.56323333">
        <ele>1118.0</ele>
        <time>2022-11-13T12:05:23.000Z</time>
      </trkpt>
      <trkpt lat="37.28257667" lon="-3.56322333">
        <ele>1118.0</ele>
        <time>2022-11-13T12:05:24.000Z</time>
      </trkpt>
      <trkpt lat="37.28258667" lon="-3.56321667">
        <ele>1118.0</ele>
        <time>2022-11-13T12:05:25.000Z</time>
      </trkpt>
      <trkpt lat="37.282595" lon="-3.56321">
        <ele>1118.0</ele>
        <time>2022-11-13T12:05:26.000Z</time>
      </trkpt>
      <trkpt lat="37.28260333" lon="-3.56320333">
        <ele>1117.0</ele>
        <time>2022-11-13T12:05:27.000Z</time>
      </trkpt>
      <trkpt lat="37.28261333" lon="-3.563195">
        <ele>1117.0</ele>
        <time>2022-11-13T12:05:28.000Z</time>
      </trkpt>
      <trkpt lat="37.28262167" lon="-3.56318833">
        <ele>1117.0</ele>
        <time>2022-11-13T12:05:29.000Z</time>
      </trkpt>
      <trkpt lat="37.28263" lon="-3.56318167">
        <ele>1117.0</ele>
        <time>2022-11-13T12:05:30.000Z</time>
      </trkpt>
      <trkpt lat="37.28263667" lon="-3.563175">
        <ele>1117.0</ele>
        <time>2022-11-13T12:05:31.000Z</time>
      </trkpt>
      <trkpt lat="37.28264333" lon="-3.56316833">
        <ele>1117.0</ele>
        <time>2022-11-13T12:05:32.000Z</time>
      </trkpt>
      <trkpt lat="37.28265167" lon="-3.56316">
        <ele>1117.0</ele>
        <time>2022-11-13T12:05:33.000Z</time>
      </trkpt>
      <trkpt lat="37.28266" lon="-3.56315167">
        <ele>1116.0</ele>
        <time>2022-11-13T12:05:34.000Z</time>
      </trkpt>
      <trkpt lat="37.28266667" lon="-3.56314333">
        <ele>1116.0</ele>
        <time>2022-11-13T12:05:35.000Z</time>
      </trkpt>
      <trkpt lat="37.28267333" lon="-3.563135">
        <ele>1116.0</ele>
        <time>2022-11-13T12:05:36.000Z</time>
      </trkpt>
      <trkpt lat="37.28268333" lon="-3.56312833">
        <ele>1116.0</ele>
        <time>2022-11-13T12:05:37.000Z</time>
      </trkpt>
      <trkpt lat="37.28269167" lon="-3.56312167">
        <ele>1116.0</ele>
        <time>2022-11-13T12:05:38.000Z</time>
      </trkpt>
      <trkpt lat="37.2827" lon="-3.56311333">
        <ele>1116.0</ele>
        <time>2022-11-13T12:05:39.000Z</time>
      </trkpt>
      <trkpt lat="37.28270833" lon="-3.56310667">
        <ele>1117.0</ele>
        <time>2022-11-13T12:05:40.000Z</time>
      </trkpt>
      <trkpt lat="37.28271667" lon="-3.56310167">
        <ele>1117.0</ele>
        <time>2022-11-13T12:05:41.000Z</time>
      </trkpt>
      <trkpt lat="37.282725" lon="-3.563095">
        <ele>1117.0</ele>
        <time>2022-11-13T12:05:42.000Z</time>
      </trkpt>
      <trkpt lat="37.28273333" lon="-3.56308667">
        <ele>1117.0</ele>
        <time>2022-11-13T12:05:43.000Z</time>
      </trkpt>
      <trkpt lat="37.28274167" lon="-3.56308">
        <ele>1117.0</ele>
        <time>2022-11-13T12:05:44.000Z</time>
      </trkpt>
      <trkpt lat="37.28275" lon="-3.56307333">
        <ele>1117.0</ele>
        <time>2022-11-13T12:05:45.000Z</time>
      </trkpt>
      <trkpt lat="37.28275833" lon="-3.56306833">
        <ele>1117.0</ele>
        <time>2022-11-13T12:05:46.000Z</time>
      </trkpt>
      <trkpt lat="37.28276667" lon="-3.56306167">
        <ele>1117.0</ele>
        <time>2022-11-13T12:05:47.000Z</time>
      </trkpt>
      <trkpt lat="37.282775" lon="-3.56305667">
        <ele>1118.0</ele>
        <time>2022-11-13T12:05:48.000Z</time>
      </trkpt>
      <trkpt lat="37.282785" lon="-3.56305167">
        <ele>1118.0</ele>
        <time>2022-11-13T12:05:49.000Z</time>
      </trkpt>
      <trkpt lat="37.28279333" lon="-3.563045">
        <ele>1118.0</ele>
        <time>2022-11-13T12:05:50.000Z</time>
      </trkpt>
      <trkpt lat="37.28280167" lon="-3.56303833">
        <ele>1118.0</ele>
        <time>2022-11-13T12:05:51.000Z</time>
      </trkpt>
      <trkpt lat="37.28281" lon="-3.56303333">
        <ele>1118.0</ele>
        <time>2022-11-13T12:05:52.000Z</time>
      </trkpt>
      <trkpt lat="37.28282" lon="-3.56303">
        <ele>1119.0</ele>
        <time>2022-11-13T12:05:53.000Z</time>
      </trkpt>
      <trkpt lat="37.28283" lon="-3.56302333">
        <ele>1119.0</ele>
        <time>2022-11-13T12:05:54.000Z</time>
      </trkpt>
      <trkpt lat="37.28283833" lon="-3.56301667">
        <ele>1119.0</ele>
        <time>2022-11-13T12:05:55.000Z</time>
      </trkpt>
      <trkpt lat="37.28284667" lon="-3.56301167">
        <ele>1119.0</ele>
        <time>2022-11-13T12:05:56.000Z</time>
      </trkpt>
      <trkpt lat="37.282855" lon="-3.563005">
        <ele>1119.0</ele>
        <time>2022-11-13T12:05:57.000Z</time>
      </trkpt>
      <trkpt lat="37.28286333" lon="-3.56299667">
        <ele>1120.0</ele>
        <time>2022-11-13T12:05:58.000Z</time>
      </trkpt>
      <trkpt lat="37.28287167" lon="-3.56298833">
        <ele>1120.0</ele>
        <time>2022-11-13T12:05:59.000Z</time>
      </trkpt>
      <trkpt lat="37.28288" lon="-3.56298">
        <ele>1120.0</ele>
        <time>2022-11-13T12:06:00.000Z</time>
      </trkpt>
      <trkpt lat="37.28289" lon="-3.562975">
        <ele>1120.0</ele>
        <time>2022-11-13T12:06:01.000Z</time>
      </trkpt>
      <trkpt lat="37.28289833" lon="-3.56296833">
        <ele>1121.0</ele>
        <time>2022-11-13T12:06:02.000Z</time>
      </trkpt>
      <trkpt lat="37.28290833" lon="-3.56296167">
        <ele>1121.0</ele>
        <time>2022-11-13T12:06:03.000Z</time>
      </trkpt>
      <trkpt lat="37.282915" lon="-3.56295667">
        <ele>1121.0</ele>
        <time>2022-11-13T12:06:04.000Z</time>
      </trkpt>
      <trkpt lat="37.28292333" lon="-3.56295">
        <ele>1121.0</ele>
        <time>2022-11-13T12:06:05.000Z</time>
      </trkpt>
      <trkpt lat="37.28293333" lon="-3.562945">
        <ele>1121.0</ele>
        <time>2022-11-13T12:06:06.000Z</time>
      </trkpt>
      <trkpt lat="37.28294333" lon="-3.56293833">
        <ele>1121.0</ele>
        <time>2022-11-13T12:06:07.000Z</time>
      </trkpt>
      <trkpt lat="37.28295167" lon="-3.56293333">
        <ele>1122.0</ele>
        <time>2022-11-13T12:06:08.000Z</time>
      </trkpt>
      <trkpt lat="37.28296" lon="-3.56292833">
        <ele>1122.0</ele>
        <time>2022-11-13T12:06:09.000Z</time>
      </trkpt>
      <trkpt lat="37.28297" lon="-3.56292333">
        <ele>1122.0</ele>
        <time>2022-11-13T12:06:10.000Z</time>
      </trkpt>
      <trkpt lat="37.28298167" lon="-3.56291833">
        <ele>1122.0</ele>
        <time>2022-11-13T12:06:11.000Z</time>
      </trkpt>
      <trkpt lat="37.28299167" lon="-3.562915">
        <ele>1122.0</ele>
        <time>2022-11-13T12:06:12.000Z</time>
      </trkpt>
      <trkpt lat="37.28300167" lon="-3.56290833">
        <ele>1123.0</ele>
        <time>2022-11-13T12:06:13.000Z</time>
      </trkpt>
      <trkpt lat="37.28301167" lon="-3.56290333">
        <ele>1123.0</ele>
        <time>2022-11-13T12:06:14.000Z</time>
      </trkpt>
      <trkpt lat="37.28302" lon="-3.5629">
        <ele>1123.0</ele>
        <time>2022-11-13T12:06:15.000Z</time>
      </trkpt>
      <trkpt lat="37.28303167" lon="-3.56289667">
        <ele>1123.0</ele>
        <time>2022-11-13T12:06:16.000Z</time>
      </trkpt>
      <trkpt lat="37.28304333" lon="-3.56289333">
        <ele>1123.0</ele>
        <time>2022-11-13T12:06:17.000Z</time>
      </trkpt>
      <trkpt lat="37.283055" lon="-3.56289">
        <ele>1123.0</ele>
        <time>2022-11-13T12:06:18.000Z</time>
      </trkpt>
      <trkpt lat="37.28306667" lon="-3.56288667">
        <ele>1123.0</ele>
        <time>2022-11-13T12:06:19.000Z</time>
      </trkpt>
      <trkpt lat="37.28307667" lon="-3.56288667">
        <ele>1123.0</ele>
        <time>2022-11-13T12:06:20.000Z</time>
      </trkpt>
      <trkpt lat="37.28308667" lon="-3.562885">
        <ele>1123.0</ele>
        <time>2022-11-13T12:06:21.000Z</time>
      </trkpt>
      <trkpt lat="37.28309833" lon="-3.56288333">
        <ele>1124.0</ele>
        <time>2022-11-13T12:06:22.000Z</time>
      </trkpt>
      <trkpt lat="37.28310833" lon="-3.56288333">
        <ele>1124.0</ele>
        <time>2022-11-13T12:06:23.000Z</time>
      </trkpt>
      <trkpt lat="37.28311833" lon="-3.56288167">
        <ele>1124.0</ele>
        <time>2022-11-13T12:06:24.000Z</time>
      </trkpt>
      <trkpt lat="37.28312833" lon="-3.56288167">
        <ele>1124.0</ele>
        <time>2022-11-13T12:06:25.000Z</time>
      </trkpt>
      <trkpt lat="37.28313833" lon="-3.56288">
        <ele>1124.0</ele>
        <time>2022-11-13T12:06:26.000Z</time>
      </trkpt>
      <trkpt lat="37.28314833" lon="-3.56288">
        <ele>1124.0</ele>
        <time>2022-11-13T12:06:27.000Z</time>
      </trkpt>
      <trkpt lat="37.28315833" lon="-3.56287667">
        <ele>1124.0</ele>
        <time>2022-11-13T12:06:28.000Z</time>
      </trkpt>
      <trkpt lat="37.28316667" lon="-3.56287167">
        <ele>1125.0</ele>
        <time>2022-11-13T12:06:29.000Z</time>
      </trkpt>
      <trkpt lat="37.283175" lon="-3.56286667">
        <ele>1125.0</ele>
        <time>2022-11-13T12:06:30.000Z</time>
      </trkpt>
      <trkpt lat="37.283185" lon="-3.56286">
        <ele>1125.0</ele>
        <time>2022-11-13T12:06:31.000Z</time>
      </trkpt>
      <trkpt lat="37.28319333" lon="-3.56285333">
        <ele>1125.0</ele>
        <time>2022-11-13T12:06:32.000Z</time>
      </trkpt>
      <trkpt lat="37.28320167" lon="-3.56284667">
        <ele>1126.0</ele>
        <time>2022-11-13T12:06:33.000Z</time>
      </trkpt>
      <trkpt lat="37.28320833" lon="-3.56284">
        <ele>1126.0</ele>
        <time>2022-11-13T12:06:34.000Z</time>
      </trkpt>
      <trkpt lat="37.28321167" lon="-3.56283167">
        <ele>1126.0</ele>
        <time>2022-11-13T12:06:35.000Z</time>
      </trkpt>
      <trkpt lat="37.28321667" lon="-3.56282167">
        <ele>1126.0</ele>
        <time>2022-11-13T12:06:36.000Z</time>
      </trkpt>
      <trkpt lat="37.28322333" lon="-3.562815">
        <ele>1126.0</ele>
        <time>2022-11-13T12:06:37.000Z</time>
      </trkpt>
      <trkpt lat="37.28323167" lon="-3.56280833">
        <ele>1127.0</ele>
        <time>2022-11-13T12:06:38.000Z</time>
      </trkpt>
      <trkpt lat="37.28323833" lon="-3.56280167">
        <ele>1127.0</ele>
        <time>2022-11-13T12:06:39.000Z</time>
      </trkpt>
      <trkpt lat="37.283245" lon="-3.56279333">
        <ele>1127.0</ele>
        <time>2022-11-13T12:06:40.000Z</time>
      </trkpt>
      <trkpt lat="37.28325" lon="-3.562785">
        <ele>1127.0</ele>
        <time>2022-11-13T12:06:41.000Z</time>
      </trkpt>
      <trkpt lat="37.283255" lon="-3.562775">
        <ele>1127.0</ele>
        <time>2022-11-13T12:06:42.000Z</time>
      </trkpt>
      <trkpt lat="37.28326" lon="-3.562765">
        <ele>1128.0</ele>
        <time>2022-11-13T12:06:43.000Z</time>
      </trkpt>
      <trkpt lat="37.28326667" lon="-3.56275667">
        <ele>1128.0</ele>
        <time>2022-11-13T12:06:44.000Z</time>
      </trkpt>
      <trkpt lat="37.28327167" lon="-3.56274833">
        <ele>1128.0</ele>
        <time>2022-11-13T12:06:45.000Z</time>
      </trkpt>
      <trkpt lat="37.28327833" lon="-3.56273833">
        <ele>1128.0</ele>
        <time>2022-11-13T12:06:46.000Z</time>
      </trkpt>
      <trkpt lat="37.28328333" lon="-3.56273">
        <ele>1129.0</ele>
        <time>2022-11-13T12:06:47.000Z</time>
      </trkpt>
      <trkpt lat="37.28328833" lon="-3.56272">
        <ele>1129.0</ele>
        <time>2022-11-13T12:06:48.000Z</time>
      </trkpt>
      <trkpt lat="37.283295" lon="-3.56271167">
        <ele>1129.0</ele>
        <time>2022-11-13T12:06:49.000Z</time>
      </trkpt>
      <trkpt lat="37.28330167" lon="-3.562705">
        <ele>1129.0</ele>
        <time>2022-11-13T12:06:50.000Z</time>
      </trkpt>
      <trkpt lat="37.28330667" lon="-3.562695">
        <ele>1129.0</ele>
        <time>2022-11-13T12:06:51.000Z</time>
      </trkpt>
      <trkpt lat="37.28331" lon="-3.56268333">
        <ele>1130.0</ele>
        <time>2022-11-13T12:06:52.000Z</time>
      </trkpt>
      <trkpt lat="37.283315" lon="-3.56267333">
        <ele>1130.0</ele>
        <time>2022-11-13T12:06:53.000Z</time>
      </trkpt>
      <trkpt lat="37.28332" lon="-3.56266167">
        <ele>1130.0</ele>
        <time>2022-11-13T12:06:54.000Z</time>
      </trkpt>
      <trkpt lat="37.283325" lon="-3.56265333">
        <ele>1130.0</ele>
        <time>2022-11-13T12:06:55.000Z</time>
      </trkpt>
      <trkpt lat="37.28333167" lon="-3.56264333">
        <ele>1130.0</ele>
        <time>2022-11-13T12:06:56.000Z</time>
      </trkpt>
      <trkpt lat="37.28333667" lon="-3.56263333">
        <ele>1131.0</ele>
        <time>2022-11-13T12:06:57.000Z</time>
      </trkpt>
      <trkpt lat="37.28334167" lon="-3.562625">
        <ele>1131.0</ele>
        <time>2022-11-13T12:06:58.000Z</time>
      </trkpt>
      <trkpt lat="37.283345" lon="-3.56261667">
        <ele>1131.0</ele>
        <time>2022-11-13T12:06:59.000Z</time>
      </trkpt>
      <trkpt lat="37.28334833" lon="-3.56260667">
        <ele>1131.0</ele>
        <time>2022-11-13T12:07:00.000Z</time>
      </trkpt>
      <trkpt lat="37.28335333" lon="-3.56259667">
        <ele>1131.0</ele>
        <time>2022-11-13T12:07:01.000Z</time>
      </trkpt>
      <trkpt lat="37.28335833" lon="-3.56258667">
        <ele>1131.0</ele>
        <time>2022-11-13T12:07:02.000Z</time>
      </trkpt>
      <trkpt lat="37.28336333" lon="-3.56257667">
        <ele>1132.0</ele>
        <time>2022-11-13T12:07:03.000Z</time>
      </trkpt>
      <trkpt lat="37.28337" lon="-3.56256667">
        <ele>1132.0</ele>
        <time>2022-11-13T12:07:04.000Z</time>
      </trkpt>
      <trkpt lat="37.28337667" lon="-3.56255667">
        <ele>1132.0</ele>
        <time>2022-11-13T12:07:05.000Z</time>
      </trkpt>
      <trkpt lat="37.28338167" lon="-3.56254833">
        <ele>1132.0</ele>
        <time>2022-11-13T12:07:06.000Z</time>
      </trkpt>
      <trkpt lat="37.28338667" lon="-3.56254">
        <ele>1132.0</ele>
        <time>2022-11-13T12:07:07.000Z</time>
      </trkpt>
      <trkpt lat="37.28339167" lon="-3.562535">
        <ele>1133.0</ele>
        <time>2022-11-13T12:07:08.000Z</time>
      </trkpt>
      <trkpt lat="37.28339667" lon="-3.562525">
        <ele>1133.0</ele>
        <time>2022-11-13T12:07:09.000Z</time>
      </trkpt>
      <trkpt lat="37.28340167" lon="-3.562515">
        <ele>1133.0</ele>
        <time>2022-11-13T12:07:10.000Z</time>
      </trkpt>
      <trkpt lat="37.28340667" lon="-3.56250667">
        <ele>1133.0</ele>
        <time>2022-11-13T12:07:11.000Z</time>
      </trkpt>
      <trkpt lat="37.28341333" lon="-3.56249833">
        <ele>1134.0</ele>
        <time>2022-11-13T12:07:12.000Z</time>
      </trkpt>
      <trkpt lat="37.28341833" lon="-3.56248833">
        <ele>1134.0</ele>
        <time>2022-11-13T12:07:13.000Z</time>
      </trkpt>
      <trkpt lat="37.28342333" lon="-3.56247833">
        <ele>1134.0</ele>
        <time>2022-11-13T12:07:14.000Z</time>
      </trkpt>
      <trkpt lat="37.28342833" lon="-3.56247">
        <ele>1135.0</ele>
        <time>2022-11-13T12:07:15.000Z</time>
      </trkpt>
      <trkpt lat="37.28343333" lon="-3.56246">
        <ele>1135.0</ele>
        <time>2022-11-13T12:07:16.000Z</time>
      </trkpt>
      <trkpt lat="37.28344" lon="-3.56245167">
        <ele>1135.0</ele>
        <time>2022-11-13T12:07:17.000Z</time>
      </trkpt>
      <trkpt lat="37.283445" lon="-3.56244167">
        <ele>1135.0</ele>
        <time>2022-11-13T12:07:18.000Z</time>
      </trkpt>
      <trkpt lat="37.28345" lon="-3.56243333">
        <ele>1135.0</ele>
        <time>2022-11-13T12:07:19.000Z</time>
      </trkpt>
      <trkpt lat="37.283455" lon="-3.562425">
        <ele>1136.0</ele>
        <time>2022-11-13T12:07:20.000Z</time>
      </trkpt>
      <trkpt lat="37.28346" lon="-3.562415">
        <ele>1136.0</ele>
        <time>2022-11-13T12:07:21.000Z</time>
      </trkpt>
      <trkpt lat="37.283465" lon="-3.562405">
        <ele>1136.0</ele>
        <time>2022-11-13T12:07:22.000Z</time>
      </trkpt>
      <trkpt lat="37.28347" lon="-3.56239833">
        <ele>1136.0</ele>
        <time>2022-11-13T12:07:23.000Z</time>
      </trkpt>
      <trkpt lat="37.28347667" lon="-3.56239167">
        <ele>1137.0</ele>
        <time>2022-11-13T12:07:24.000Z</time>
      </trkpt>
      <trkpt lat="37.28348167" lon="-3.56238667">
        <ele>1137.0</ele>
        <time>2022-11-13T12:07:25.000Z</time>
      </trkpt>
      <trkpt lat="37.28348833" lon="-3.56238167">
        <ele>1137.0</ele>
        <time>2022-11-13T12:07:26.000Z</time>
      </trkpt>
      <trkpt lat="37.28349667" lon="-3.562375">
        <ele>1137.0</ele>
        <time>2022-11-13T12:07:27.000Z</time>
      </trkpt>
      <trkpt lat="37.28350333" lon="-3.56236833">
        <ele>1137.0</ele>
        <time>2022-11-13T12:07:28.000Z</time>
      </trkpt>
      <trkpt lat="37.28351" lon="-3.56236333">
        <ele>1137.0</ele>
        <time>2022-11-13T12:07:29.000Z</time>
      </trkpt>
      <trkpt lat="37.28351667" lon="-3.56235667">
        <ele>1138.0</ele>
        <time>2022-11-13T12:07:30.000Z</time>
      </trkpt>
      <trkpt lat="37.28352333" lon="-3.56235167">
        <ele>1138.0</ele>
        <time>2022-11-13T12:07:31.000Z</time>
      </trkpt>
      <trkpt lat="37.28353" lon="-3.56234667">
        <ele>1138.0</ele>
        <time>2022-11-13T12:07:32.000Z</time>
      </trkpt>
      <trkpt lat="37.28353667" lon="-3.56234333">
        <ele>1138.0</ele>
        <time>2022-11-13T12:07:33.000Z</time>
      </trkpt>
      <trkpt lat="37.28354333" lon="-3.56234">
        <ele>1138.0</ele>
        <time>2022-11-13T12:07:34.000Z</time>
      </trkpt>
      <trkpt lat="37.28355" lon="-3.562335">
        <ele>1138.0</ele>
        <time>2022-11-13T12:07:35.000Z</time>
      </trkpt>
      <trkpt lat="37.283555" lon="-3.56233">
        <ele>1139.0</ele>
        <time>2022-11-13T12:07:36.000Z</time>
      </trkpt>
      <trkpt lat="37.28356" lon="-3.562325">
        <ele>1139.0</ele>
        <time>2022-11-13T12:07:37.000Z</time>
      </trkpt>
      <trkpt lat="37.28356333" lon="-3.56232">
        <ele>1139.0</ele>
        <time>2022-11-13T12:07:38.000Z</time>
      </trkpt>
      <trkpt lat="37.28356833" lon="-3.56231333">
        <ele>1139.0</ele>
        <time>2022-11-13T12:07:39.000Z</time>
      </trkpt>
      <trkpt lat="37.28357167" lon="-3.56230833">
        <ele>1139.0</ele>
        <time>2022-11-13T12:07:40.000Z</time>
      </trkpt>
      <trkpt lat="37.28357667" lon="-3.56230333">
        <ele>1140.0</ele>
        <time>2022-11-13T12:07:41.000Z</time>
      </trkpt>
      <trkpt lat="37.28358" lon="-3.56229667">
        <ele>1140.0</ele>
        <time>2022-11-13T12:07:42.000Z</time>
      </trkpt>
      <trkpt lat="37.28358333" lon="-3.56229167">
        <ele>1140.0</ele>
        <time>2022-11-13T12:07:43.000Z</time>
      </trkpt>
      <trkpt lat="37.28358833" lon="-3.56228667">
        <ele>1140.0</ele>
        <time>2022-11-13T12:07:44.000Z</time>
      </trkpt>
      <trkpt lat="37.28359167" lon="-3.56228">
        <ele>1141.0</ele>
        <time>2022-11-13T12:07:45.000Z</time>
      </trkpt>
      <trkpt lat="37.28359667" lon="-3.562275">
        <ele>1141.0</ele>
        <time>2022-11-13T12:07:46.000Z</time>
      </trkpt>
      <trkpt lat="37.2836" lon="-3.56227">
        <ele>1141.0</ele>
        <time>2022-11-13T12:07:47.000Z</time>
      </trkpt>
      <trkpt lat="37.28360333" lon="-3.56226333">
        <ele>1141.0</ele>
        <time>2022-11-13T12:07:48.000Z</time>
      </trkpt>
      <trkpt lat="37.28360833" lon="-3.56225667">
        <ele>1141.0</ele>
        <time>2022-11-13T12:07:49.000Z</time>
      </trkpt>
      <trkpt lat="37.28361" lon="-3.56225167">
        <ele>1142.0</ele>
        <time>2022-11-13T12:07:50.000Z</time>
      </trkpt>
      <trkpt lat="37.28361333" lon="-3.562245">
        <ele>1142.0</ele>
        <time>2022-11-13T12:07:51.000Z</time>
      </trkpt>
      <trkpt lat="37.283615" lon="-3.56224">
        <ele>1142.0</ele>
        <time>2022-11-13T12:07:52.000Z</time>
      </trkpt>
      <trkpt lat="37.28361667" lon="-3.56223333">
        <ele>1142.0</ele>
        <time>2022-11-13T12:07:53.000Z</time>
      </trkpt>
      <trkpt lat="37.28362" lon="-3.56222667">
        <ele>1142.0</ele>
        <time>2022-11-13T12:07:54.000Z</time>
      </trkpt>
      <trkpt lat="37.28362333" lon="-3.56222">
        <ele>1142.0</ele>
        <time>2022-11-13T12:07:55.000Z</time>
      </trkpt>
      <trkpt lat="37.28362667" lon="-3.56221333">
        <ele>1143.0</ele>
        <time>2022-11-13T12:07:56.000Z</time>
      </trkpt>
      <trkpt lat="37.28363167" lon="-3.56220667">
        <ele>1143.0</ele>
        <time>2022-11-13T12:07:57.000Z</time>
      </trkpt>
      <trkpt lat="37.28363667" lon="-3.5622">
        <ele>1143.0</ele>
        <time>2022-11-13T12:07:58.000Z</time>
      </trkpt>
      <trkpt lat="37.28364167" lon="-3.562195">
        <ele>1143.0</ele>
        <time>2022-11-13T12:07:59.000Z</time>
      </trkpt>
      <trkpt lat="37.283645" lon="-3.56218833">
        <ele>1144.0</ele>
        <time>2022-11-13T12:08:00.000Z</time>
      </trkpt>
      <trkpt lat="37.28365" lon="-3.56218">
        <ele>1144.0</ele>
        <time>2022-11-13T12:08:01.000Z</time>
      </trkpt>
      <trkpt lat="37.283655" lon="-3.56217167">
        <ele>1144.0</ele>
        <time>2022-11-13T12:08:02.000Z</time>
      </trkpt>
      <trkpt lat="37.28366" lon="-3.562165">
        <ele>1144.0</ele>
        <time>2022-11-13T12:08:03.000Z</time>
      </trkpt>
      <trkpt lat="37.283665" lon="-3.56215833">
        <ele>1144.0</ele>
        <time>2022-11-13T12:08:04.000Z</time>
      </trkpt>
      <trkpt lat="37.28367" lon="-3.56215">
        <ele>1145.0</ele>
        <time>2022-11-13T12:08:05.000Z</time>
      </trkpt>
      <trkpt lat="37.283675" lon="-3.562145">
        <ele>1145.0</ele>
        <time>2022-11-13T12:08:06.000Z</time>
      </trkpt>
      <trkpt lat="37.28368" lon="-3.56213833">
        <ele>1145.0</ele>
        <time>2022-11-13T12:08:07.000Z</time>
      </trkpt>
      <trkpt lat="37.28368667" lon="-3.56213167">
        <ele>1145.0</ele>
        <time>2022-11-13T12:08:08.000Z</time>
      </trkpt>
      <trkpt lat="37.28369167" lon="-3.56212333">
        <ele>1146.0</ele>
        <time>2022-11-13T12:08:09.000Z</time>
      </trkpt>
      <trkpt lat="37.28369667" lon="-3.56211667">
        <ele>1146.0</ele>
        <time>2022-11-13T12:08:10.000Z</time>
      </trkpt>
      <trkpt lat="37.28370167" lon="-3.56210833">
        <ele>1146.0</ele>
        <time>2022-11-13T12:08:11.000Z</time>
      </trkpt>
      <trkpt lat="37.28370667" lon="-3.56210167">
        <ele>1147.0</ele>
        <time>2022-11-13T12:08:12.000Z</time>
      </trkpt>
      <trkpt lat="37.28371333" lon="-3.562095">
        <ele>1147.0</ele>
        <time>2022-11-13T12:08:13.000Z</time>
      </trkpt>
      <trkpt lat="37.28371833" lon="-3.56208667">
        <ele>1147.0</ele>
        <time>2022-11-13T12:08:14.000Z</time>
      </trkpt>
      <trkpt lat="37.28372333" lon="-3.56208">
        <ele>1147.0</ele>
        <time>2022-11-13T12:08:15.000Z</time>
      </trkpt>
      <trkpt lat="37.28372833" lon="-3.56207">
        <ele>1147.0</ele>
        <time>2022-11-13T12:08:16.000Z</time>
      </trkpt>
      <trkpt lat="37.28373333" lon="-3.56206333">
        <ele>1147.0</ele>
        <time>2022-11-13T12:08:17.000Z</time>
      </trkpt>
      <trkpt lat="37.28374" lon="-3.56205667">
        <ele>1148.0</ele>
        <time>2022-11-13T12:08:18.000Z</time>
      </trkpt>
      <trkpt lat="37.283745" lon="-3.56204833">
        <ele>1148.0</ele>
        <time>2022-11-13T12:08:19.000Z</time>
      </trkpt>
      <trkpt lat="37.28375" lon="-3.56204167">
        <ele>1148.0</ele>
        <time>2022-11-13T12:08:20.000Z</time>
      </trkpt>
      <trkpt lat="37.28375667" lon="-3.56203333">
        <ele>1148.0</ele>
        <time>2022-11-13T12:08:21.000Z</time>
      </trkpt>
      <trkpt lat="37.28376333" lon="-3.56202667">
        <ele>1149.0</ele>
        <time>2022-11-13T12:08:22.000Z</time>
      </trkpt>
      <trkpt lat="37.28377" lon="-3.56202">
        <ele>1149.0</ele>
        <time>2022-11-13T12:08:23.000Z</time>
      </trkpt>
      <trkpt lat="37.28377333" lon="-3.56201167">
        <ele>1149.0</ele>
        <time>2022-11-13T12:08:24.000Z</time>
      </trkpt>
      <trkpt lat="37.28377667" lon="-3.56200333">
        <ele>1149.0</ele>
        <time>2022-11-13T12:08:25.000Z</time>
      </trkpt>
      <trkpt lat="37.28378" lon="-3.561995">
        <ele>1150.0</ele>
        <time>2022-11-13T12:08:26.000Z</time>
      </trkpt>
      <trkpt lat="37.283785" lon="-3.56198667">
        <ele>1150.0</ele>
        <time>2022-11-13T12:08:27.000Z</time>
      </trkpt>
      <trkpt lat="37.28379" lon="-3.56197833">
        <ele>1150.0</ele>
        <time>2022-11-13T12:08:28.000Z</time>
      </trkpt>
      <trkpt lat="37.28379167" lon="-3.56196833">
        <ele>1150.0</ele>
        <time>2022-11-13T12:08:29.000Z</time>
      </trkpt>
      <trkpt lat="37.283795" lon="-3.56195833">
        <ele>1151.0</ele>
        <time>2022-11-13T12:08:30.000Z</time>
      </trkpt>
      <trkpt lat="37.28379833" lon="-3.56194833">
        <ele>1151.0</ele>
        <time>2022-11-13T12:08:31.000Z</time>
      </trkpt>
      <trkpt lat="37.28380167" lon="-3.56193833">
        <ele>1151.0</ele>
        <time>2022-11-13T12:08:32.000Z</time>
      </trkpt>
      <trkpt lat="37.283805" lon="-3.56192833">
        <ele>1152.0</ele>
        <time>2022-11-13T12:08:33.000Z</time>
      </trkpt>
      <trkpt lat="37.28381" lon="-3.56192">
        <ele>1152.0</ele>
        <time>2022-11-13T12:08:34.000Z</time>
      </trkpt>
      <trkpt lat="37.28381333" lon="-3.56191333">
        <ele>1152.0</ele>
        <time>2022-11-13T12:08:35.000Z</time>
      </trkpt>
      <trkpt lat="37.28381833" lon="-3.561905">
        <ele>1153.0</ele>
        <time>2022-11-13T12:08:36.000Z</time>
      </trkpt>
      <trkpt lat="37.28382333" lon="-3.5619">
        <ele>1153.0</ele>
        <time>2022-11-13T12:08:37.000Z</time>
      </trkpt>
      <trkpt lat="37.28383167" lon="-3.56189167">
        <ele>1153.0</ele>
        <time>2022-11-13T12:08:38.000Z</time>
      </trkpt>
      <trkpt lat="37.28383667" lon="-3.56188333">
        <ele>1153.0</ele>
        <time>2022-11-13T12:08:39.000Z</time>
      </trkpt>
      <trkpt lat="37.28384333" lon="-3.56187333">
        <ele>1154.0</ele>
        <time>2022-11-13T12:08:40.000Z</time>
      </trkpt>
      <trkpt lat="37.28385" lon="-3.561865">
        <ele>1154.0</ele>
        <time>2022-11-13T12:08:41.000Z</time>
      </trkpt>
      <trkpt lat="37.28385833" lon="-3.56186">
        <ele>1154.0</ele>
        <time>2022-11-13T12:08:42.000Z</time>
      </trkpt>
      <trkpt lat="37.28386667" lon="-3.561855">
        <ele>1155.0</ele>
        <time>2022-11-13T12:08:43.000Z</time>
      </trkpt>
      <trkpt lat="37.28387667" lon="-3.56185167">
        <ele>1155.0</ele>
        <time>2022-11-13T12:08:44.000Z</time>
      </trkpt>
      <trkpt lat="37.283885" lon="-3.56184833">
        <ele>1155.0</ele>
        <time>2022-11-13T12:08:45.000Z</time>
      </trkpt>
      <trkpt lat="37.283895" lon="-3.56184333">
        <ele>1155.0</ele>
        <time>2022-11-13T12:08:46.000Z</time>
      </trkpt>
      <trkpt lat="37.28390333" lon="-3.56183833">
        <ele>1156.0</ele>
        <time>2022-11-13T12:08:47.000Z</time>
      </trkpt>
      <trkpt lat="37.28391333" lon="-3.56183333">
        <ele>1156.0</ele>
        <time>2022-11-13T12:08:48.000Z</time>
      </trkpt>
      <trkpt lat="37.283925" lon="-3.56182833">
        <ele>1156.0</ele>
        <time>2022-11-13T12:08:49.000Z</time>
      </trkpt>
      <trkpt lat="37.28393667" lon="-3.561825">
        <ele>1156.0</ele>
        <time>2022-11-13T12:08:50.000Z</time>
      </trkpt>
      <trkpt lat="37.283945" lon="-3.56182">
        <ele>1156.0</ele>
        <time>2022-11-13T12:08:51.000Z</time>
      </trkpt>
      <trkpt lat="37.28395333" lon="-3.56181333">
        <ele>1157.0</ele>
        <time>2022-11-13T12:08:52.000Z</time>
      </trkpt>
      <trkpt lat="37.28396167" lon="-3.56180833">
        <ele>1157.0</ele>
        <time>2022-11-13T12:08:53.000Z</time>
      </trkpt>
      <trkpt lat="37.28397" lon="-3.56180333">
        <ele>1157.0</ele>
        <time>2022-11-13T12:08:54.000Z</time>
      </trkpt>
      <trkpt lat="37.28397833" lon="-3.56180167">
        <ele>1157.0</ele>
        <time>2022-11-13T12:08:55.000Z</time>
      </trkpt>
      <trkpt lat="37.28399" lon="-3.56179833">
        <ele>1158.0</ele>
        <time>2022-11-13T12:08:56.000Z</time>
      </trkpt>
      <trkpt lat="37.28400167" lon="-3.56179333">
        <ele>1158.0</ele>
        <time>2022-11-13T12:08:57.000Z</time>
      </trkpt>
      <trkpt lat="37.28401333" lon="-3.56178667">
        <ele>1158.0</ele>
        <time>2022-11-13T12:08:58.000Z</time>
      </trkpt>
      <trkpt lat="37.28402333" lon="-3.56178167">
        <ele>1158.0</ele>
        <time>2022-11-13T12:08:59.000Z</time>
      </trkpt>
      <trkpt lat="37.284035" lon="-3.56177833">
        <ele>1158.0</ele>
        <time>2022-11-13T12:09:00.000Z</time>
      </trkpt>
      <trkpt lat="37.284045" lon="-3.56177167">
        <ele>1159.0</ele>
        <time>2022-11-13T12:09:01.000Z</time>
      </trkpt>
      <trkpt lat="37.284055" lon="-3.56176667">
        <ele>1159.0</ele>
        <time>2022-11-13T12:09:02.000Z</time>
      </trkpt>
      <trkpt lat="37.284065" lon="-3.56175833">
        <ele>1159.0</ele>
        <time>2022-11-13T12:09:03.000Z</time>
      </trkpt>
      <trkpt lat="37.28407333" lon="-3.56175">
        <ele>1159.0</ele>
        <time>2022-11-13T12:09:04.000Z</time>
      </trkpt>
      <trkpt lat="37.28408167" lon="-3.56174167">
        <ele>1159.0</ele>
        <time>2022-11-13T12:09:05.000Z</time>
      </trkpt>
      <trkpt lat="37.28409167" lon="-3.56173333">
        <ele>1159.0</ele>
        <time>2022-11-13T12:09:06.000Z</time>
      </trkpt>
      <trkpt lat="37.28410167" lon="-3.561725">
        <ele>1159.0</ele>
        <time>2022-11-13T12:09:07.000Z</time>
      </trkpt>
      <trkpt lat="37.28411" lon="-3.561715">
        <ele>1159.0</ele>
        <time>2022-11-13T12:09:08.000Z</time>
      </trkpt>
      <trkpt lat="37.28412167" lon="-3.56170667">
        <ele>1159.0</ele>
        <time>2022-11-13T12:09:09.000Z</time>
      </trkpt>
      <trkpt lat="37.28413167" lon="-3.56169667">
        <ele>1160.0</ele>
        <time>2022-11-13T12:09:10.000Z</time>
      </trkpt>
      <trkpt lat="37.28414167" lon="-3.56168667">
        <ele>1160.0</ele>
        <time>2022-11-13T12:09:11.000Z</time>
      </trkpt>
      <trkpt lat="37.28415167" lon="-3.56167833">
        <ele>1160.0</ele>
        <time>2022-11-13T12:09:12.000Z</time>
      </trkpt>
      <trkpt lat="37.28416" lon="-3.56166833">
        <ele>1160.0</ele>
        <time>2022-11-13T12:09:13.000Z</time>
      </trkpt>
      <trkpt lat="37.28417" lon="-3.56166">
        <ele>1159.0</ele>
        <time>2022-11-13T12:09:14.000Z</time>
      </trkpt>
      <trkpt lat="37.28418" lon="-3.56165167">
        <ele>1159.0</ele>
        <time>2022-11-13T12:09:15.000Z</time>
      </trkpt>
      <trkpt lat="37.28419" lon="-3.56164167">
        <ele>1159.0</ele>
        <time>2022-11-13T12:09:16.000Z</time>
      </trkpt>
      <trkpt lat="37.28419833" lon="-3.56163333">
        <ele>1159.0</ele>
        <time>2022-11-13T12:09:17.000Z</time>
      </trkpt>
      <trkpt lat="37.28420667" lon="-3.56162333">
        <ele>1159.0</ele>
        <time>2022-11-13T12:09:18.000Z</time>
      </trkpt>
      <trkpt lat="37.284215" lon="-3.561615">
        <ele>1159.0</ele>
        <time>2022-11-13T12:09:19.000Z</time>
      </trkpt>
      <trkpt lat="37.28422333" lon="-3.561605">
        <ele>1159.0</ele>
        <time>2022-11-13T12:09:20.000Z</time>
      </trkpt>
      <trkpt lat="37.28422833" lon="-3.56159667">
        <ele>1159.0</ele>
        <time>2022-11-13T12:09:21.000Z</time>
      </trkpt>
      <trkpt lat="37.284235" lon="-3.56158667">
        <ele>1159.0</ele>
        <time>2022-11-13T12:09:22.000Z</time>
      </trkpt>
      <trkpt lat="37.28424333" lon="-3.56157333">
        <ele>1159.0</ele>
        <time>2022-11-13T12:09:23.000Z</time>
      </trkpt>
      <trkpt lat="37.28425167" lon="-3.56156333">
        <ele>1159.0</ele>
        <time>2022-11-13T12:09:24.000Z</time>
      </trkpt>
      <trkpt lat="37.28425667" lon="-3.56155167">
        <ele>1159.0</ele>
        <time>2022-11-13T12:09:25.000Z</time>
      </trkpt>
      <trkpt lat="37.28426333" lon="-3.56154167">
        <ele>1159.0</ele>
        <time>2022-11-13T12:09:26.000Z</time>
      </trkpt>
      <trkpt lat="37.28427" lon="-3.56153167">
        <ele>1159.0</ele>
        <time>2022-11-13T12:09:27.000Z</time>
      </trkpt>
      <trkpt lat="37.28427667" lon="-3.56152167">
        <ele>1159.0</ele>
        <time>2022-11-13T12:09:28.000Z</time>
      </trkpt>
      <trkpt lat="37.28428167" lon="-3.56151333">
        <ele>1159.0</ele>
        <time>2022-11-13T12:09:29.000Z</time>
      </trkpt>
      <trkpt lat="37.28428833" lon="-3.56150333">
        <ele>1158.0</ele>
        <time>2022-11-13T12:09:30.000Z</time>
      </trkpt>
      <trkpt lat="37.284295" lon="-3.56149167">
        <ele>1158.0</ele>
        <time>2022-11-13T12:09:31.000Z</time>
      </trkpt>
      <trkpt lat="37.28430333" lon="-3.56147833">
        <ele>1158.0</ele>
        <time>2022-11-13T12:09:32.000Z</time>
      </trkpt>
      <trkpt lat="37.28431167" lon="-3.56146333">
        <ele>1158.0</ele>
        <time>2022-11-13T12:09:33.000Z</time>
      </trkpt>
      <trkpt lat="37.28431833" lon="-3.56145">
        <ele>1158.0</ele>
        <time>2022-11-13T12:09:34.000Z</time>
      </trkpt>
      <trkpt lat="37.28432667" lon="-3.561435">
        <ele>1158.0</ele>
        <time>2022-11-13T12:09:35.000Z</time>
      </trkpt>
      <trkpt lat="37.284335" lon="-3.56142">
        <ele>1158.0</ele>
        <time>2022-11-13T12:09:36.000Z</time>
      </trkpt>
      <trkpt lat="37.28434" lon="-3.561405">
        <ele>1158.0</ele>
        <time>2022-11-13T12:09:37.000Z</time>
      </trkpt>
      <trkpt lat="37.28434667" lon="-3.56139167">
        <ele>1157.0</ele>
        <time>2022-11-13T12:09:38.000Z</time>
      </trkpt>
      <trkpt lat="37.28435333" lon="-3.56138">
        <ele>1157.0</ele>
        <time>2022-11-13T12:09:39.000Z</time>
      </trkpt>
      <trkpt lat="37.28436" lon="-3.56136667">
        <ele>1157.0</ele>
        <time>2022-11-13T12:09:40.000Z</time>
      </trkpt>
      <trkpt lat="37.28436667" lon="-3.56135333">
        <ele>1157.0</ele>
        <time>2022-11-13T12:09:41.000Z</time>
      </trkpt>
      <trkpt lat="37.28437333" lon="-3.56134333">
        <ele>1157.0</ele>
        <time>2022-11-13T12:09:42.000Z</time>
      </trkpt>
      <trkpt lat="37.28437833" lon="-3.56133167">
        <ele>1157.0</ele>
        <time>2022-11-13T12:09:43.000Z</time>
      </trkpt>
      <trkpt lat="37.284385" lon="-3.56132">
        <ele>1157.0</ele>
        <time>2022-11-13T12:09:44.000Z</time>
      </trkpt>
      <trkpt lat="37.28439167" lon="-3.56130667">
        <ele>1157.0</ele>
        <time>2022-11-13T12:09:45.000Z</time>
      </trkpt>
      <trkpt lat="37.2844" lon="-3.561295">
        <ele>1157.0</ele>
        <time>2022-11-13T12:09:46.000Z</time>
      </trkpt>
      <trkpt lat="37.28440667" lon="-3.56128167">
        <ele>1157.0</ele>
        <time>2022-11-13T12:09:47.000Z</time>
      </trkpt>
      <trkpt lat="37.284415" lon="-3.56126833">
        <ele>1157.0</ele>
        <time>2022-11-13T12:09:48.000Z</time>
      </trkpt>
      <trkpt lat="37.28442167" lon="-3.561255">
        <ele>1157.0</ele>
        <time>2022-11-13T12:09:49.000Z</time>
      </trkpt>
      <trkpt lat="37.28442833" lon="-3.56124167">
        <ele>1156.0</ele>
        <time>2022-11-13T12:09:50.000Z</time>
      </trkpt>
      <trkpt lat="37.28443667" lon="-3.56122833">
        <ele>1156.0</ele>
        <time>2022-11-13T12:09:51.000Z</time>
      </trkpt>
      <trkpt lat="37.28444333" lon="-3.561215">
        <ele>1156.0</ele>
        <time>2022-11-13T12:09:52.000Z</time>
      </trkpt>
      <trkpt lat="37.28444833" lon="-3.5612">
        <ele>1156.0</ele>
        <time>2022-11-13T12:09:53.000Z</time>
      </trkpt>
      <trkpt lat="37.284455" lon="-3.56118667">
        <ele>1156.0</ele>
        <time>2022-11-13T12:09:54.000Z</time>
      </trkpt>
      <trkpt lat="37.28446167" lon="-3.56117333">
        <ele>1156.0</ele>
        <time>2022-11-13T12:09:55.000Z</time>
      </trkpt>
      <trkpt lat="37.284465" lon="-3.56116167">
        <ele>1156.0</ele>
        <time>2022-11-13T12:09:56.000Z</time>
      </trkpt>
      <trkpt lat="37.28447" lon="-3.56115">
        <ele>1156.0</ele>
        <time>2022-11-13T12:09:57.000Z</time>
      </trkpt>
      <trkpt lat="37.284475" lon="-3.56113667">
        <ele>1156.0</ele>
        <time>2022-11-13T12:09:58.000Z</time>
      </trkpt>
      <trkpt lat="37.28448" lon="-3.56112167">
        <ele>1155.0</ele>
        <time>2022-11-13T12:09:59.000Z</time>
      </trkpt>
      <trkpt lat="37.284485" lon="-3.56110833">
        <ele>1155.0</ele>
        <time>2022-11-13T12:10:00.000Z</time>
      </trkpt>
      <trkpt lat="37.28449" lon="-3.561095">
        <ele>1155.0</ele>
        <time>2022-11-13T12:10:01.000Z</time>
      </trkpt>
      <trkpt lat="37.28449333" lon="-3.56108333">
        <ele>1155.0</ele>
        <time>2022-11-13T12:10:02.000Z</time>
      </trkpt>
      <trkpt lat="37.28449667" lon="-3.56107">
        <ele>1155.0</ele>
        <time>2022-11-13T12:10:03.000Z</time>
      </trkpt>
      <trkpt lat="37.2845" lon="-3.561055">
        <ele>1155.0</ele>
        <time>2022-11-13T12:10:04.000Z</time>
      </trkpt>
      <trkpt lat="37.28450333" lon="-3.56104">
        <ele>1155.0</ele>
        <time>2022-11-13T12:10:05.000Z</time>
      </trkpt>
      <trkpt lat="37.28450667" lon="-3.561025">
        <ele>1155.0</ele>
        <time>2022-11-13T12:10:06.000Z</time>
      </trkpt>
      <trkpt lat="37.28451" lon="-3.56100833">
        <ele>1155.0</ele>
        <time>2022-11-13T12:10:07.000Z</time>
      </trkpt>
      <trkpt lat="37.28451" lon="-3.56099333">
        <ele>1155.0</ele>
        <time>2022-11-13T12:10:08.000Z</time>
      </trkpt>
      <trkpt lat="37.28451333" lon="-3.560975">
        <ele>1155.0</ele>
        <time>2022-11-13T12:10:09.000Z</time>
      </trkpt>
      <trkpt lat="37.28451333" lon="-3.56095833">
        <ele>1155.0</ele>
        <time>2022-11-13T12:10:10.000Z</time>
      </trkpt>
      <trkpt lat="37.284515" lon="-3.56094167">
        <ele>1155.0</ele>
        <time>2022-11-13T12:10:11.000Z</time>
      </trkpt>
      <trkpt lat="37.28451833" lon="-3.560925">
        <ele>1155.0</ele>
        <time>2022-11-13T12:10:12.000Z</time>
      </trkpt>
      <trkpt lat="37.28452" lon="-3.56090833">
        <ele>1155.0</ele>
        <time>2022-11-13T12:10:13.000Z</time>
      </trkpt>
      <trkpt lat="37.28452167" lon="-3.56089167">
        <ele>1155.0</ele>
        <time>2022-11-13T12:10:14.000Z</time>
      </trkpt>
      <trkpt lat="37.28452333" lon="-3.560875">
        <ele>1155.0</ele>
        <time>2022-11-13T12:10:15.000Z</time>
      </trkpt>
      <trkpt lat="37.28452833" lon="-3.56085667">
        <ele>1155.0</ele>
        <time>2022-11-13T12:10:16.000Z</time>
      </trkpt>
      <trkpt lat="37.28453333" lon="-3.56083833">
        <ele>1155.0</ele>
        <time>2022-11-13T12:10:17.000Z</time>
      </trkpt>
      <trkpt lat="37.28453833" lon="-3.56082167">
        <ele>1155.0</ele>
        <time>2022-11-13T12:10:18.000Z</time>
      </trkpt>
      <trkpt lat="37.28454333" lon="-3.56080833">
        <ele>1155.0</ele>
        <time>2022-11-13T12:10:19.000Z</time>
      </trkpt>
      <trkpt lat="37.28454833" lon="-3.560795">
        <ele>1155.0</ele>
        <time>2022-11-13T12:10:20.000Z</time>
      </trkpt>
      <trkpt lat="37.28455167" lon="-3.56078">
        <ele>1154.0</ele>
        <time>2022-11-13T12:10:21.000Z</time>
      </trkpt>
      <trkpt lat="37.28455833" lon="-3.56076667">
        <ele>1154.0</ele>
        <time>2022-11-13T12:10:22.000Z</time>
      </trkpt>
      <trkpt lat="37.28456167" lon="-3.560755">
        <ele>1154.0</ele>
        <time>2022-11-13T12:10:23.000Z</time>
      </trkpt>
      <trkpt lat="37.28456667" lon="-3.56074">
        <ele>1154.0</ele>
        <time>2022-11-13T12:10:24.000Z</time>
      </trkpt>
      <trkpt lat="37.28457" lon="-3.56072333">
        <ele>1154.0</ele>
        <time>2022-11-13T12:10:25.000Z</time>
      </trkpt>
      <trkpt lat="37.284575" lon="-3.56070667">
        <ele>1154.0</ele>
        <time>2022-11-13T12:10:26.000Z</time>
      </trkpt>
      <trkpt lat="37.28458167" lon="-3.56069167">
        <ele>1154.0</ele>
        <time>2022-11-13T12:10:27.000Z</time>
      </trkpt>
      <trkpt lat="37.28458833" lon="-3.56067833">
        <ele>1154.0</ele>
        <time>2022-11-13T12:10:28.000Z</time>
      </trkpt>
      <trkpt lat="37.28459333" lon="-3.560665">
        <ele>1154.0</ele>
        <time>2022-11-13T12:10:29.000Z</time>
      </trkpt>
      <trkpt lat="37.28459833" lon="-3.56065167">
        <ele>1154.0</ele>
        <time>2022-11-13T12:10:30.000Z</time>
      </trkpt>
      <trkpt lat="37.28460167" lon="-3.56063833">
        <ele>1154.0</ele>
        <time>2022-11-13T12:10:31.000Z</time>
      </trkpt>
      <trkpt lat="37.284605" lon="-3.560625">
        <ele>1154.0</ele>
        <time>2022-11-13T12:10:32.000Z</time>
      </trkpt>
      <trkpt lat="37.28460667" lon="-3.56061">
        <ele>1154.0</ele>
        <time>2022-11-13T12:10:33.000Z</time>
      </trkpt>
      <trkpt lat="37.28461167" lon="-3.56059333">
        <ele>1154.0</ele>
        <time>2022-11-13T12:10:34.000Z</time>
      </trkpt>
      <trkpt lat="37.28461667" lon="-3.56057667">
        <ele>1154.0</ele>
        <time>2022-11-13T12:10:35.000Z</time>
      </trkpt>
      <trkpt lat="37.28462333" lon="-3.56056">
        <ele>1154.0</ele>
        <time>2022-11-13T12:10:36.000Z</time>
      </trkpt>
      <trkpt lat="37.28463" lon="-3.56054333">
        <ele>1153.0</ele>
        <time>2022-11-13T12:10:37.000Z</time>
      </trkpt>
      <trkpt lat="37.28463667" lon="-3.560525">
        <ele>1153.0</ele>
        <time>2022-11-13T12:10:38.000Z</time>
      </trkpt>
      <trkpt lat="37.28464333" lon="-3.56050833">
        <ele>1153.0</ele>
        <time>2022-11-13T12:10:39.000Z</time>
      </trkpt>
      <trkpt lat="37.28465" lon="-3.56049167">
        <ele>1153.0</ele>
        <time>2022-11-13T12:10:40.000Z</time>
      </trkpt>
      <trkpt lat="37.28465833" lon="-3.560475">
        <ele>1153.0</ele>
        <time>2022-11-13T12:10:41.000Z</time>
      </trkpt>
      <trkpt lat="37.284665" lon="-3.56045833">
        <ele>1153.0</ele>
        <time>2022-11-13T12:10:42.000Z</time>
      </trkpt>
      <trkpt lat="37.28467333" lon="-3.56044333">
        <ele>1153.0</ele>
        <time>2022-11-13T12:10:43.000Z</time>
      </trkpt>
      <trkpt lat="37.28468" lon="-3.56043">
        <ele>1153.0</ele>
        <time>2022-11-13T12:10:44.000Z</time>
      </trkpt>
      <trkpt lat="37.28468667" lon="-3.560415">
        <ele>1153.0</ele>
        <time>2022-11-13T12:10:45.000Z</time>
      </trkpt>
      <trkpt lat="37.28469667" lon="-3.56040333">
        <ele>1153.0</ele>
        <time>2022-11-13T12:10:46.000Z</time>
      </trkpt>
      <trkpt lat="37.28470833" lon="-3.56039333">
        <ele>1152.0</ele>
        <time>2022-11-13T12:10:47.000Z</time>
      </trkpt>
      <trkpt lat="37.28472" lon="-3.56038">
        <ele>1152.0</ele>
        <time>2022-11-13T12:10:48.000Z</time>
      </trkpt>
      <trkpt lat="37.28473167" lon="-3.56036833">
        <ele>1152.0</ele>
        <time>2022-11-13T12:10:49.000Z</time>
      </trkpt>
      <trkpt lat="37.284745" lon="-3.56036167">
        <ele>1152.0</ele>
        <time>2022-11-13T12:10:50.000Z</time>
      </trkpt>
      <trkpt lat="37.28475833" lon="-3.560355">
        <ele>1152.0</ele>
        <time>2022-11-13T12:10:51.000Z</time>
      </trkpt>
      <trkpt lat="37.28477" lon="-3.56035">
        <ele>1152.0</ele>
        <time>2022-11-13T12:10:52.000Z</time>
      </trkpt>
      <trkpt lat="37.28478167" lon="-3.56034167">
        <ele>1152.0</ele>
        <time>2022-11-13T12:10:53.000Z</time>
      </trkpt>
      <trkpt lat="37.28479167" lon="-3.560335">
        <ele>1152.0</ele>
        <time>2022-11-13T12:10:54.000Z</time>
      </trkpt>
      <trkpt lat="37.28480333" lon="-3.56032667">
        <ele>1152.0</ele>
        <time>2022-11-13T12:10:55.000Z</time>
      </trkpt>
      <trkpt lat="37.28481333" lon="-3.56032167">
        <ele>1152.0</ele>
        <time>2022-11-13T12:10:56.000Z</time>
      </trkpt>
      <trkpt lat="37.28482167" lon="-3.56032">
        <ele>1151.0</ele>
        <time>2022-11-13T12:10:57.000Z</time>
      </trkpt>
      <trkpt lat="37.28483" lon="-3.56031833">
        <ele>1151.0</ele>
        <time>2022-11-13T12:10:58.000Z</time>
      </trkpt>
      <trkpt lat="37.28484167" lon="-3.56031667">
        <ele>1151.0</ele>
        <time>2022-11-13T12:10:59.000Z</time>
      </trkpt>
      <trkpt lat="37.28485167" lon="-3.56032">
        <ele>1151.0</ele>
        <time>2022-11-13T12:11:00.000Z</time>
      </trkpt>
      <trkpt lat="37.28486333" lon="-3.56033333">
        <ele>1151.0</ele>
        <time>2022-11-13T12:11:01.000Z</time>
      </trkpt>
      <trkpt lat="37.28487167" lon="-3.56035333">
        <ele>1151.0</ele>
        <time>2022-11-13T12:11:02.000Z</time>
      </trkpt>
      <trkpt lat="37.28487667" lon="-3.56037">
        <ele>1151.0</ele>
        <time>2022-11-13T12:11:03.000Z</time>
      </trkpt>
      <trkpt lat="37.28488" lon="-3.56038667">
        <ele>1150.0</ele>
        <time>2022-11-13T12:11:04.000Z</time>
      </trkpt>
      <trkpt lat="37.28488167" lon="-3.56040167">
        <ele>1150.0</ele>
        <time>2022-11-13T12:11:05.000Z</time>
      </trkpt>
      <trkpt lat="37.28488333" lon="-3.56041667">
        <ele>1150.0</ele>
        <time>2022-11-13T12:11:06.000Z</time>
      </trkpt>
      <trkpt lat="37.28488833" lon="-3.56043">
        <ele>1149.0</ele>
        <time>2022-11-13T12:11:07.000Z</time>
      </trkpt>
      <trkpt lat="37.28489333" lon="-3.56043833">
        <ele>1149.0</ele>
        <time>2022-11-13T12:11:08.000Z</time>
      </trkpt>
      <trkpt lat="37.28490167" lon="-3.56044333">
        <ele>1149.0</ele>
        <time>2022-11-13T12:11:09.000Z</time>
      </trkpt>
      <trkpt lat="37.28491" lon="-3.560445">
        <ele>1149.0</ele>
        <time>2022-11-13T12:11:10.000Z</time>
      </trkpt>
      <trkpt lat="37.28492" lon="-3.56043833">
        <ele>1148.0</ele>
        <time>2022-11-13T12:11:11.000Z</time>
      </trkpt>
      <trkpt lat="37.28492833" lon="-3.56043">
        <ele>1148.0</ele>
        <time>2022-11-13T12:11:12.000Z</time>
      </trkpt>
      <trkpt lat="37.28493667" lon="-3.56042167">
        <ele>1148.0</ele>
        <time>2022-11-13T12:11:13.000Z</time>
      </trkpt>
      <trkpt lat="37.28494333" lon="-3.56041167">
        <ele>1148.0</ele>
        <time>2022-11-13T12:11:14.000Z</time>
      </trkpt>
      <trkpt lat="37.28495" lon="-3.5604">
        <ele>1147.0</ele>
        <time>2022-11-13T12:11:15.000Z</time>
      </trkpt>
      <trkpt lat="37.28495667" lon="-3.560385">
        <ele>1147.0</ele>
        <time>2022-11-13T12:11:16.000Z</time>
      </trkpt>
      <trkpt lat="37.284965" lon="-3.56036833">
        <ele>1147.0</ele>
        <time>2022-11-13T12:11:17.000Z</time>
      </trkpt>
      <trkpt lat="37.28497667" lon="-3.56035167">
        <ele>1146.0</ele>
        <time>2022-11-13T12:11:18.000Z</time>
      </trkpt>
      <trkpt lat="37.28498667" lon="-3.56033833">
        <ele>1146.0</ele>
        <time>2022-11-13T12:11:19.000Z</time>
      </trkpt>
      <trkpt lat="37.285" lon="-3.560325">
        <ele>1146.0</ele>
        <time>2022-11-13T12:11:20.000Z</time>
      </trkpt>
      <trkpt lat="37.28501167" lon="-3.56031167">
        <ele>1146.0</ele>
        <time>2022-11-13T12:11:21.000Z</time>
      </trkpt>
      <trkpt lat="37.28502167" lon="-3.5603">
        <ele>1145.0</ele>
        <time>2022-11-13T12:11:22.000Z</time>
      </trkpt>
      <trkpt lat="37.28503167" lon="-3.56029">
        <ele>1145.0</ele>
        <time>2022-11-13T12:11:23.000Z</time>
      </trkpt>
      <trkpt lat="37.28504333" lon="-3.56027833">
        <ele>1145.0</ele>
        <time>2022-11-13T12:11:24.000Z</time>
      </trkpt>
      <trkpt lat="37.285055" lon="-3.56026667">
        <ele>1144.0</ele>
        <time>2022-11-13T12:11:25.000Z</time>
      </trkpt>
      <trkpt lat="37.28506833" lon="-3.56025667">
        <ele>1144.0</ele>
        <time>2022-11-13T12:11:26.000Z</time>
      </trkpt>
      <trkpt lat="37.28508167" lon="-3.56024667">
        <ele>1144.0</ele>
        <time>2022-11-13T12:11:27.000Z</time>
      </trkpt>
      <trkpt lat="37.28509667" lon="-3.56023667">
        <ele>1144.0</ele>
        <time>2022-11-13T12:11:28.000Z</time>
      </trkpt>
      <trkpt lat="37.28511333" lon="-3.56022667">
        <ele>1143.0</ele>
        <time>2022-11-13T12:11:29.000Z</time>
      </trkpt>
      <trkpt lat="37.28512833" lon="-3.56021833">
        <ele>1143.0</ele>
        <time>2022-11-13T12:11:30.000Z</time>
      </trkpt>
      <trkpt lat="37.28514333" lon="-3.560215">
        <ele>1143.0</ele>
        <time>2022-11-13T12:11:31.000Z</time>
      </trkpt>
      <trkpt lat="37.28515667" lon="-3.56021">
        <ele>1143.0</ele>
        <time>2022-11-13T12:11:32.000Z</time>
      </trkpt>
      <trkpt lat="37.28517167" lon="-3.560205">
        <ele>1142.0</ele>
        <time>2022-11-13T12:11:33.000Z</time>
      </trkpt>
      <trkpt lat="37.28518667" lon="-3.56020333">
        <ele>1142.0</ele>
        <time>2022-11-13T12:11:34.000Z</time>
      </trkpt>
      <trkpt lat="37.28520167" lon="-3.56020333">
        <ele>1142.0</ele>
        <time>2022-11-13T12:11:35.000Z</time>
      </trkpt>
      <trkpt lat="37.28521667" lon="-3.560205">
        <ele>1141.0</ele>
        <time>2022-11-13T12:11:36.000Z</time>
      </trkpt>
      <trkpt lat="37.28523167" lon="-3.560205">
        <ele>1141.0</ele>
        <time>2022-11-13T12:11:37.000Z</time>
      </trkpt>
      <trkpt lat="37.28524833" lon="-3.56020167">
        <ele>1141.0</ele>
        <time>2022-11-13T12:11:38.000Z</time>
      </trkpt>
      <trkpt lat="37.28526333" lon="-3.56020333">
        <ele>1141.0</ele>
        <time>2022-11-13T12:11:39.000Z</time>
      </trkpt>
      <trkpt lat="37.28527667" lon="-3.56020833">
        <ele>1140.0</ele>
        <time>2022-11-13T12:11:40.000Z</time>
      </trkpt>
      <trkpt lat="37.28529" lon="-3.56021333">
        <ele>1140.0</ele>
        <time>2022-11-13T12:11:41.000Z</time>
      </trkpt>
      <trkpt lat="37.28530333" lon="-3.56022">
        <ele>1140.0</ele>
        <time>2022-11-13T12:11:42.000Z</time>
      </trkpt>
      <trkpt lat="37.285315" lon="-3.56022833">
        <ele>1140.0</ele>
        <time>2022-11-13T12:11:43.000Z</time>
      </trkpt>
      <trkpt lat="37.28532333" lon="-3.56024167">
        <ele>1139.0</ele>
        <time>2022-11-13T12:11:44.000Z</time>
      </trkpt>
      <trkpt lat="37.28532833" lon="-3.56025833">
        <ele>1139.0</ele>
        <time>2022-11-13T12:11:45.000Z</time>
      </trkpt>
      <trkpt lat="37.28533167" lon="-3.56027833">
        <ele>1139.0</ele>
        <time>2022-11-13T12:11:46.000Z</time>
      </trkpt>
      <trkpt lat="37.28533333" lon="-3.560295">
        <ele>1139.0</ele>
        <time>2022-11-13T12:11:47.000Z</time>
      </trkpt>
      <trkpt lat="37.28533167" lon="-3.56031333">
        <ele>1138.0</ele>
        <time>2022-11-13T12:11:48.000Z</time>
      </trkpt>
      <trkpt lat="37.28533167" lon="-3.56033333">
        <ele>1138.0</ele>
        <time>2022-11-13T12:11:49.000Z</time>
      </trkpt>
      <trkpt lat="37.28533" lon="-3.56035333">
        <ele>1138.0</ele>
        <time>2022-11-13T12:11:50.000Z</time>
      </trkpt>
      <trkpt lat="37.28532833" lon="-3.56037167">
        <ele>1138.0</ele>
        <time>2022-11-13T12:11:51.000Z</time>
      </trkpt>
      <trkpt lat="37.28532333" lon="-3.56038833">
        <ele>1137.0</ele>
        <time>2022-11-13T12:11:52.000Z</time>
      </trkpt>
      <trkpt lat="37.28532167" lon="-3.560405">
        <ele>1137.0</ele>
        <time>2022-11-13T12:11:53.000Z</time>
      </trkpt>
      <trkpt lat="37.28531667" lon="-3.56042333">
        <ele>1137.0</ele>
        <time>2022-11-13T12:11:54.000Z</time>
      </trkpt>
      <trkpt lat="37.285315" lon="-3.56043833">
        <ele>1136.0</ele>
        <time>2022-11-13T12:11:55.000Z</time>
      </trkpt>
      <trkpt lat="37.285315" lon="-3.56045667">
        <ele>1136.0</ele>
        <time>2022-11-13T12:11:56.000Z</time>
      </trkpt>
      <trkpt lat="37.28531333" lon="-3.560475">
        <ele>1136.0</ele>
        <time>2022-11-13T12:11:57.000Z</time>
      </trkpt>
      <trkpt lat="37.28531333" lon="-3.560495">
        <ele>1135.0</ele>
        <time>2022-11-13T12:11:58.000Z</time>
      </trkpt>
      <trkpt lat="37.285315" lon="-3.560515">
        <ele>1135.0</ele>
        <time>2022-11-13T12:11:59.000Z</time>
      </trkpt>
      <trkpt lat="37.28532" lon="-3.56053333">
        <ele>1135.0</ele>
        <time>2022-11-13T12:12:00.000Z</time>
      </trkpt>
      <trkpt lat="37.285325" lon="-3.56055167">
        <ele>1135.0</ele>
        <time>2022-11-13T12:12:01.000Z</time>
      </trkpt>
      <trkpt lat="37.28533167" lon="-3.56057333">
        <ele>1135.0</ele>
        <time>2022-11-13T12:12:02.000Z</time>
      </trkpt>
      <trkpt lat="37.28533833" lon="-3.560595">
        <ele>1135.0</ele>
        <time>2022-11-13T12:12:03.000Z</time>
      </trkpt>
      <trkpt lat="37.28534333" lon="-3.560615">
        <ele>1134.0</ele>
        <time>2022-11-13T12:12:04.000Z</time>
      </trkpt>
      <trkpt lat="37.285345" lon="-3.56063333">
        <ele>1134.0</ele>
        <time>2022-11-13T12:12:05.000Z</time>
      </trkpt>
      <trkpt lat="37.28534833" lon="-3.56064833">
        <ele>1134.0</ele>
        <time>2022-11-13T12:12:06.000Z</time>
      </trkpt>
      <trkpt lat="37.285355" lon="-3.56066333">
        <ele>1134.0</ele>
        <time>2022-11-13T12:12:07.000Z</time>
      </trkpt>
      <trkpt lat="37.28536" lon="-3.56068">
        <ele>1133.0</ele>
        <time>2022-11-13T12:12:08.000Z</time>
      </trkpt>
      <trkpt lat="37.285365" lon="-3.56069667">
        <ele>1133.0</ele>
        <time>2022-11-13T12:12:09.000Z</time>
      </trkpt>
      <trkpt lat="37.28537" lon="-3.56071333">
        <ele>1133.0</ele>
        <time>2022-11-13T12:12:10.000Z</time>
      </trkpt>
      <trkpt lat="37.285375" lon="-3.56073">
        <ele>1133.0</ele>
        <time>2022-11-13T12:12:11.000Z</time>
      </trkpt>
      <trkpt lat="37.28538" lon="-3.560745">
        <ele>1133.0</ele>
        <time>2022-11-13T12:12:12.000Z</time>
      </trkpt>
      <trkpt lat="37.28538333" lon="-3.56075833">
        <ele>1133.0</ele>
        <time>2022-11-13T12:12:13.000Z</time>
      </trkpt>
      <trkpt lat="37.28538833" lon="-3.56077167">
        <ele>1133.0</ele>
        <time>2022-11-13T12:12:14.000Z</time>
      </trkpt>
      <trkpt lat="37.28539333" lon="-3.56078667">
        <ele>1133.0</ele>
        <time>2022-11-13T12:12:15.000Z</time>
      </trkpt>
      <trkpt lat="37.28539667" lon="-3.56080167">
        <ele>1132.0</ele>
        <time>2022-11-13T12:12:16.000Z</time>
      </trkpt>
      <trkpt lat="37.2854" lon="-3.56081667">
        <ele>1132.0</ele>
        <time>2022-11-13T12:12:17.000Z</time>
      </trkpt>
      <trkpt lat="37.28540333" lon="-3.56083333">
        <ele>1132.0</ele>
        <time>2022-11-13T12:12:18.000Z</time>
      </trkpt>
      <trkpt lat="37.285405" lon="-3.56085">
        <ele>1132.0</ele>
        <time>2022-11-13T12:12:19.000Z</time>
      </trkpt>
      <trkpt lat="37.28541167" lon="-3.560865">
        <ele>1132.0</ele>
        <time>2022-11-13T12:12:20.000Z</time>
      </trkpt>
      <trkpt lat="37.28541667" lon="-3.56088">
        <ele>1131.0</ele>
        <time>2022-11-13T12:12:21.000Z</time>
      </trkpt>
      <trkpt lat="37.28542167" lon="-3.56089333">
        <ele>1131.0</ele>
        <time>2022-11-13T12:12:22.000Z</time>
      </trkpt>
      <trkpt lat="37.28542833" lon="-3.56090833">
        <ele>1131.0</ele>
        <time>2022-11-13T12:12:23.000Z</time>
      </trkpt>
      <trkpt lat="37.285435" lon="-3.560925">
        <ele>1131.0</ele>
        <time>2022-11-13T12:12:24.000Z</time>
      </trkpt>
      <trkpt lat="37.28544" lon="-3.56094167">
        <ele>1131.0</ele>
        <time>2022-11-13T12:12:25.000Z</time>
      </trkpt>
      <trkpt lat="37.28544667" lon="-3.56095667">
        <ele>1131.0</ele>
        <time>2022-11-13T12:12:26.000Z</time>
      </trkpt>
      <trkpt lat="37.28545333" lon="-3.56097">
        <ele>1131.0</ele>
        <time>2022-11-13T12:12:27.000Z</time>
      </trkpt>
      <trkpt lat="37.28546167" lon="-3.56098333">
        <ele>1131.0</ele>
        <time>2022-11-13T12:12:28.000Z</time>
      </trkpt>
      <trkpt lat="37.28546833" lon="-3.56099333">
        <ele>1130.0</ele>
        <time>2022-11-13T12:12:29.000Z</time>
      </trkpt>
      <trkpt lat="37.28547833" lon="-3.561005">
        <ele>1130.0</ele>
        <time>2022-11-13T12:12:30.000Z</time>
      </trkpt>
      <trkpt lat="37.28548667" lon="-3.561015">
        <ele>1130.0</ele>
        <time>2022-11-13T12:12:31.000Z</time>
      </trkpt>
      <trkpt lat="37.285495" lon="-3.561025">
        <ele>1130.0</ele>
        <time>2022-11-13T12:12:32.000Z</time>
      </trkpt>
      <trkpt lat="37.285505" lon="-3.56103333">
        <ele>1130.0</ele>
        <time>2022-11-13T12:12:33.000Z</time>
      </trkpt>
      <trkpt lat="37.285515" lon="-3.56104167">
        <ele>1130.0</ele>
        <time>2022-11-13T12:12:34.000Z</time>
      </trkpt>
      <trkpt lat="37.285525" lon="-3.56105">
        <ele>1130.0</ele>
        <time>2022-11-13T12:12:35.000Z</time>
      </trkpt>
      <trkpt lat="37.28553667" lon="-3.56105667">
        <ele>1130.0</ele>
        <time>2022-11-13T12:12:36.000Z</time>
      </trkpt>
      <trkpt lat="37.28554833" lon="-3.56106167">
        <ele>1129.0</ele>
        <time>2022-11-13T12:12:37.000Z</time>
      </trkpt>
      <trkpt lat="37.28555833" lon="-3.56106667">
        <ele>1129.0</ele>
        <time>2022-11-13T12:12:38.000Z</time>
      </trkpt>
      <trkpt lat="37.28557" lon="-3.56107167">
        <ele>1129.0</ele>
        <time>2022-11-13T12:12:39.000Z</time>
      </trkpt>
      <trkpt lat="37.28558333" lon="-3.561075">
        <ele>1129.0</ele>
        <time>2022-11-13T12:12:40.000Z</time>
      </trkpt>
      <trkpt lat="37.285595" lon="-3.56107833">
        <ele>1129.0</ele>
        <time>2022-11-13T12:12:41.000Z</time>
      </trkpt>
      <trkpt lat="37.28560667" lon="-3.56108">
        <ele>1129.0</ele>
        <time>2022-11-13T12:12:42.000Z</time>
      </trkpt>
      <trkpt lat="37.28561833" lon="-3.56108">
        <ele>1129.0</ele>
        <time>2022-11-13T12:12:43.000Z</time>
      </trkpt>
      <trkpt lat="37.28563" lon="-3.56108167">
        <ele>1129.0</ele>
        <time>2022-11-13T12:12:44.000Z</time>
      </trkpt>
      <trkpt lat="37.28564333" lon="-3.56108333">
        <ele>1129.0</ele>
        <time>2022-11-13T12:12:45.000Z</time>
      </trkpt>
      <trkpt lat="37.285655" lon="-3.56108333">
        <ele>1129.0</ele>
        <time>2022-11-13T12:12:46.000Z</time>
      </trkpt>
      <trkpt lat="37.28566833" lon="-3.56108167">
        <ele>1129.0</ele>
        <time>2022-11-13T12:12:47.000Z</time>
      </trkpt>
      <trkpt lat="37.28568167" lon="-3.56108167">
        <ele>1129.0</ele>
        <time>2022-11-13T12:12:48.000Z</time>
      </trkpt>
      <trkpt lat="37.285695" lon="-3.56108333">
        <ele>1129.0</ele>
        <time>2022-11-13T12:12:49.000Z</time>
      </trkpt>
      <trkpt lat="37.28570667" lon="-3.561085">
        <ele>1129.0</ele>
        <time>2022-11-13T12:12:50.000Z</time>
      </trkpt>
      <trkpt lat="37.28572" lon="-3.56109167">
        <ele>1129.0</ele>
        <time>2022-11-13T12:12:51.000Z</time>
      </trkpt>
      <trkpt lat="37.28573167" lon="-3.5611">
        <ele>1129.0</ele>
        <time>2022-11-13T12:12:52.000Z</time>
      </trkpt>
      <trkpt lat="37.28574667" lon="-3.56111167">
        <ele>1129.0</ele>
        <time>2022-11-13T12:12:53.000Z</time>
      </trkpt>
      <trkpt lat="37.28575667" lon="-3.561125">
        <ele>1129.0</ele>
        <time>2022-11-13T12:12:54.000Z</time>
      </trkpt>
      <trkpt lat="37.28576667" lon="-3.56113833">
        <ele>1129.0</ele>
        <time>2022-11-13T12:12:55.000Z</time>
      </trkpt>
      <trkpt lat="37.285775" lon="-3.56115167">
        <ele>1129.0</ele>
        <time>2022-11-13T12:12:56.000Z</time>
      </trkpt>
      <trkpt lat="37.28578333" lon="-3.56116333">
        <ele>1129.0</ele>
        <time>2022-11-13T12:12:57.000Z</time>
      </trkpt>
      <trkpt lat="37.28579333" lon="-3.56117667">
        <ele>1128.0</ele>
        <time>2022-11-13T12:12:58.000Z</time>
      </trkpt>
      <trkpt lat="37.28580167" lon="-3.56119167">
        <ele>1128.0</ele>
        <time>2022-11-13T12:12:59.000Z</time>
      </trkpt>
      <trkpt lat="37.28581" lon="-3.561205">
        <ele>1128.0</ele>
        <time>2022-11-13T12:13:00.000Z</time>
      </trkpt>
      <trkpt lat="37.28581667" lon="-3.56122">
        <ele>1128.0</ele>
        <time>2022-11-13T12:13:01.000Z</time>
      </trkpt>
      <trkpt lat="37.28582333" lon="-3.56123667">
        <ele>1127.0</ele>
        <time>2022-11-13T12:13:02.000Z</time>
      </trkpt>
      <trkpt lat="37.28583" lon="-3.56125333">
        <ele>1127.0</ele>
        <time>2022-11-13T12:13:03.000Z</time>
      </trkpt>
      <trkpt lat="37.28583667" lon="-3.56127">
        <ele>1127.0</ele>
        <time>2022-11-13T12:13:04.000Z</time>
      </trkpt>
      <trkpt lat="37.28584333" lon="-3.561285">
        <ele>1127.0</ele>
        <time>2022-11-13T12:13:05.000Z</time>
      </trkpt>
      <trkpt lat="37.28585" lon="-3.56130167">
        <ele>1127.0</ele>
        <time>2022-11-13T12:13:06.000Z</time>
      </trkpt>
      <trkpt lat="37.285855" lon="-3.56131833">
        <ele>1127.0</ele>
        <time>2022-11-13T12:13:07.000Z</time>
      </trkpt>
      <trkpt lat="37.28586167" lon="-3.561335">
        <ele>1127.0</ele>
        <time>2022-11-13T12:13:08.000Z</time>
      </trkpt>
      <trkpt lat="37.28586833" lon="-3.56135167">
        <ele>1127.0</ele>
        <time>2022-11-13T12:13:09.000Z</time>
      </trkpt>
      <trkpt lat="37.28587667" lon="-3.561365">
        <ele>1127.0</ele>
        <time>2022-11-13T12:13:10.000Z</time>
      </trkpt>
      <trkpt lat="37.285885" lon="-3.56138167">
        <ele>1126.0</ele>
        <time>2022-11-13T12:13:11.000Z</time>
      </trkpt>
      <trkpt lat="37.28589333" lon="-3.56139667">
        <ele>1126.0</ele>
        <time>2022-11-13T12:13:12.000Z</time>
      </trkpt>
      <trkpt lat="37.2859" lon="-3.56141">
        <ele>1126.0</ele>
        <time>2022-11-13T12:13:13.000Z</time>
      </trkpt>
      <trkpt lat="37.28590667" lon="-3.561425">
        <ele>1126.0</ele>
        <time>2022-11-13T12:13:14.000Z</time>
      </trkpt>
      <trkpt lat="37.28591167" lon="-3.56144167">
        <ele>1127.0</ele>
        <time>2022-11-13T12:13:15.000Z</time>
      </trkpt>
      <trkpt lat="37.28591833" lon="-3.561455">
        <ele>1127.0</ele>
        <time>2022-11-13T12:13:16.000Z</time>
      </trkpt>
      <trkpt lat="37.285925" lon="-3.56147">
        <ele>1127.0</ele>
        <time>2022-11-13T12:13:17.000Z</time>
      </trkpt>
      <trkpt lat="37.28593167" lon="-3.56148333">
        <ele>1127.0</ele>
        <time>2022-11-13T12:13:18.000Z</time>
      </trkpt>
      <trkpt lat="37.28594" lon="-3.56149833">
        <ele>1127.0</ele>
        <time>2022-11-13T12:13:19.000Z</time>
      </trkpt>
      <trkpt lat="37.28594667" lon="-3.56151333">
        <ele>1127.0</ele>
        <time>2022-11-13T12:13:20.000Z</time>
      </trkpt>
      <trkpt lat="37.28595167" lon="-3.561525">
        <ele>1127.0</ele>
        <time>2022-11-13T12:13:21.000Z</time>
      </trkpt>
      <trkpt lat="37.28595833" lon="-3.56153833">
        <ele>1127.0</ele>
        <time>2022-11-13T12:13:22.000Z</time>
      </trkpt>
      <trkpt lat="37.285965" lon="-3.56155167">
        <ele>1127.0</ele>
        <time>2022-11-13T12:13:23.000Z</time>
      </trkpt>
      <trkpt lat="37.28597" lon="-3.56157">
        <ele>1128.0</ele>
        <time>2022-11-13T12:13:24.000Z</time>
      </trkpt>
      <trkpt lat="37.285975" lon="-3.56158167">
        <ele>1128.0</ele>
        <time>2022-11-13T12:13:25.000Z</time>
      </trkpt>
      <trkpt lat="37.28598" lon="-3.561595">
        <ele>1128.0</ele>
        <time>2022-11-13T12:13:26.000Z</time>
      </trkpt>
      <trkpt lat="37.28598667" lon="-3.56160667">
        <ele>1128.0</ele>
        <time>2022-11-13T12:13:27.000Z</time>
      </trkpt>
      <trkpt lat="37.28599167" lon="-3.56161833">
        <ele>1128.0</ele>
        <time>2022-11-13T12:13:28.000Z</time>
      </trkpt>
      <trkpt lat="37.285995" lon="-3.56163">
        <ele>1128.0</ele>
        <time>2022-11-13T12:13:29.000Z</time>
      </trkpt>
      <trkpt lat="37.28599833" lon="-3.56164">
        <ele>1128.0</ele>
        <time>2022-11-13T12:13:30.000Z</time>
      </trkpt>
      <trkpt lat="37.28600167" lon="-3.56164833">
        <ele>1128.0</ele>
        <time>2022-11-13T12:13:31.000Z</time>
      </trkpt>
      <trkpt lat="37.28600667" lon="-3.56165667">
        <ele>1128.0</ele>
        <time>2022-11-13T12:13:32.000Z</time>
      </trkpt>
      <trkpt lat="37.28601167" lon="-3.561665">
        <ele>1128.0</ele>
        <time>2022-11-13T12:13:33.000Z</time>
      </trkpt>
      <trkpt lat="37.28601833" lon="-3.56167167">
        <ele>1128.0</ele>
        <time>2022-11-13T12:13:34.000Z</time>
      </trkpt>
      <trkpt lat="37.28602667" lon="-3.56167833">
        <ele>1128.0</ele>
        <time>2022-11-13T12:13:35.000Z</time>
      </trkpt>
      <trkpt lat="37.286035" lon="-3.561685">
        <ele>1128.0</ele>
        <time>2022-11-13T12:13:36.000Z</time>
      </trkpt>
      <trkpt lat="37.286045" lon="-3.56168833">
        <ele>1128.0</ele>
        <time>2022-11-13T12:13:37.000Z</time>
      </trkpt>
      <trkpt lat="37.28605667" lon="-3.56169">
        <ele>1128.0</ele>
        <time>2022-11-13T12:13:38.000Z</time>
      </trkpt>
      <trkpt lat="37.28606667" lon="-3.56168833">
        <ele>1128.0</ele>
        <time>2022-11-13T12:13:39.000Z</time>
      </trkpt>
      <trkpt lat="37.28607667" lon="-3.56168667">
        <ele>1128.0</ele>
        <time>2022-11-13T12:13:40.000Z</time>
      </trkpt>
      <trkpt lat="37.28608667" lon="-3.56168333">
        <ele>1129.0</ele>
        <time>2022-11-13T12:13:41.000Z</time>
      </trkpt>
      <trkpt lat="37.28609667" lon="-3.56168">
        <ele>1129.0</ele>
        <time>2022-11-13T12:13:42.000Z</time>
      </trkpt>
      <trkpt lat="37.28610667" lon="-3.561675">
        <ele>1129.0</ele>
        <time>2022-11-13T12:13:43.000Z</time>
      </trkpt>
      <trkpt lat="37.28611833" lon="-3.56167">
        <ele>1129.0</ele>
        <time>2022-11-13T12:13:44.000Z</time>
      </trkpt>
      <trkpt lat="37.28612833" lon="-3.56166667">
        <ele>1129.0</ele>
        <time>2022-11-13T12:13:45.000Z</time>
      </trkpt>
      <trkpt lat="37.28613833" lon="-3.56166167">
        <ele>1129.0</ele>
        <time>2022-11-13T12:13:46.000Z</time>
      </trkpt>
      <trkpt lat="37.28615" lon="-3.56166">
        <ele>1129.0</ele>
        <time>2022-11-13T12:13:47.000Z</time>
      </trkpt>
      <trkpt lat="37.28616167" lon="-3.56165667">
        <ele>1129.0</ele>
        <time>2022-11-13T12:13:48.000Z</time>
      </trkpt>
      <trkpt lat="37.28617167" lon="-3.56165167">
        <ele>1129.0</ele>
        <time>2022-11-13T12:13:49.000Z</time>
      </trkpt>
      <trkpt lat="37.28618167" lon="-3.56164667">
        <ele>1129.0</ele>
        <time>2022-11-13T12:13:50.000Z</time>
      </trkpt>
      <trkpt lat="37.28619333" lon="-3.56164333">
        <ele>1129.0</ele>
        <time>2022-11-13T12:13:51.000Z</time>
      </trkpt>
      <trkpt lat="37.28620667" lon="-3.56164">
        <ele>1129.0</ele>
        <time>2022-11-13T12:13:52.000Z</time>
      </trkpt>
      <trkpt lat="37.28621833" lon="-3.56163833">
        <ele>1129.0</ele>
        <time>2022-11-13T12:13:53.000Z</time>
      </trkpt>
      <trkpt lat="37.28623" lon="-3.56163667">
        <ele>1129.0</ele>
        <time>2022-11-13T12:13:54.000Z</time>
      </trkpt>
      <trkpt lat="37.28624167" lon="-3.561635">
        <ele>1129.0</ele>
        <time>2022-11-13T12:13:55.000Z</time>
      </trkpt>
      <trkpt lat="37.286255" lon="-3.56163833">
        <ele>1129.0</ele>
        <time>2022-11-13T12:13:56.000Z</time>
      </trkpt>
      <trkpt lat="37.28626667" lon="-3.56164">
        <ele>1129.0</ele>
        <time>2022-11-13T12:13:57.000Z</time>
      </trkpt>
      <trkpt lat="37.28628" lon="-3.561645">
        <ele>1129.0</ele>
        <time>2022-11-13T12:13:58.000Z</time>
      </trkpt>
      <trkpt lat="37.28629167" lon="-3.56164833">
        <ele>1129.0</ele>
        <time>2022-11-13T12:13:59.000Z</time>
      </trkpt>
      <trkpt lat="37.286305" lon="-3.56165167">
        <ele>1129.0</ele>
        <time>2022-11-13T12:14:00.000Z</time>
      </trkpt>
      <trkpt lat="37.28631667" lon="-3.561655">
        <ele>1129.0</ele>
        <time>2022-11-13T12:14:01.000Z</time>
      </trkpt>
      <trkpt lat="37.28633" lon="-3.56165833">
        <ele>1129.0</ele>
        <time>2022-11-13T12:14:02.000Z</time>
      </trkpt>
      <trkpt lat="37.28634333" lon="-3.56166167">
        <ele>1129.0</ele>
        <time>2022-11-13T12:14:03.000Z</time>
      </trkpt>
      <trkpt lat="37.28635667" lon="-3.56166667">
        <ele>1129.0</ele>
        <time>2022-11-13T12:14:04.000Z</time>
      </trkpt>
      <trkpt lat="37.28637" lon="-3.56166833">
        <ele>1129.0</ele>
        <time>2022-11-13T12:14:05.000Z</time>
      </trkpt>
      <trkpt lat="37.28638167" lon="-3.56167333">
        <ele>1129.0</ele>
        <time>2022-11-13T12:14:06.000Z</time>
      </trkpt>
      <trkpt lat="37.286395" lon="-3.56167833">
        <ele>1130.0</ele>
        <time>2022-11-13T12:14:07.000Z</time>
      </trkpt>
      <trkpt lat="37.28640833" lon="-3.56168333">
        <ele>1130.0</ele>
        <time>2022-11-13T12:14:08.000Z</time>
      </trkpt>
      <trkpt lat="37.28642167" lon="-3.56169167">
        <ele>1130.0</ele>
        <time>2022-11-13T12:14:09.000Z</time>
      </trkpt>
      <trkpt lat="37.28643667" lon="-3.56169833">
        <ele>1130.0</ele>
        <time>2022-11-13T12:14:10.000Z</time>
      </trkpt>
      <trkpt lat="37.28644667" lon="-3.56170667">
        <ele>1130.0</ele>
        <time>2022-11-13T12:14:11.000Z</time>
      </trkpt>
      <trkpt lat="37.286455" lon="-3.56171667">
        <ele>1130.0</ele>
        <time>2022-11-13T12:14:12.000Z</time>
      </trkpt>
      <trkpt lat="37.286465" lon="-3.56172833">
        <ele>1130.0</ele>
        <time>2022-11-13T12:14:13.000Z</time>
      </trkpt>
      <trkpt lat="37.286475" lon="-3.56174">
        <ele>1130.0</ele>
        <time>2022-11-13T12:14:14.000Z</time>
      </trkpt>
      <trkpt lat="37.28648333" lon="-3.56175167">
        <ele>1130.0</ele>
        <time>2022-11-13T12:14:15.000Z</time>
      </trkpt>
      <trkpt lat="37.28649333" lon="-3.56176333">
        <ele>1130.0</ele>
        <time>2022-11-13T12:14:16.000Z</time>
      </trkpt>
      <trkpt lat="37.28650333" lon="-3.561775">
        <ele>1130.0</ele>
        <time>2022-11-13T12:14:17.000Z</time>
      </trkpt>
      <trkpt lat="37.28651167" lon="-3.561785">
        <ele>1130.0</ele>
        <time>2022-11-13T12:14:18.000Z</time>
      </trkpt>
      <trkpt lat="37.28652167" lon="-3.56179667">
        <ele>1130.0</ele>
        <time>2022-11-13T12:14:19.000Z</time>
      </trkpt>
      <trkpt lat="37.28653167" lon="-3.56181">
        <ele>1130.0</ele>
        <time>2022-11-13T12:14:20.000Z</time>
      </trkpt>
      <trkpt lat="37.28654" lon="-3.56182333">
        <ele>1130.0</ele>
        <time>2022-11-13T12:14:21.000Z</time>
      </trkpt>
      <trkpt lat="37.28654167" lon="-3.561825">
        <ele>1130.0</ele>
        <time>2022-11-13T12:14:22.000Z</time>
      </trkpt>
      <trkpt lat="37.28654333" lon="-3.56183167">
        <ele>1130.0</ele>
        <time>2022-11-13T12:14:23.000Z</time>
      </trkpt>
      <trkpt lat="37.28654667" lon="-3.56184667">
        <ele>1130.0</ele>
        <time>2022-11-13T12:14:24.000Z</time>
      </trkpt>
      <trkpt lat="37.28655167" lon="-3.56186167">
        <ele>1130.0</ele>
        <time>2022-11-13T12:14:25.000Z</time>
      </trkpt>
      <trkpt lat="37.28656167" lon="-3.56187667">
        <ele>1130.0</ele>
        <time>2022-11-13T12:14:26.000Z</time>
      </trkpt>
      <trkpt lat="37.28656833" lon="-3.56189333">
        <ele>1130.0</ele>
        <time>2022-11-13T12:14:27.000Z</time>
      </trkpt>
      <trkpt lat="37.28657833" lon="-3.56190833">
        <ele>1130.0</ele>
        <time>2022-11-13T12:14:28.000Z</time>
      </trkpt>
      <trkpt lat="37.28658667" lon="-3.56192333">
        <ele>1130.0</ele>
        <time>2022-11-13T12:14:29.000Z</time>
      </trkpt>
      <trkpt lat="37.28659667" lon="-3.56193833">
        <ele>1130.0</ele>
        <time>2022-11-13T12:14:30.000Z</time>
      </trkpt>
      <trkpt lat="37.28660667" lon="-3.56195333">
        <ele>1130.0</ele>
        <time>2022-11-13T12:14:31.000Z</time>
      </trkpt>
      <trkpt lat="37.28661667" lon="-3.56196833">
        <ele>1130.0</ele>
        <time>2022-11-13T12:14:32.000Z</time>
      </trkpt>
      <trkpt lat="37.286625" lon="-3.56198333">
        <ele>1130.0</ele>
        <time>2022-11-13T12:14:33.000Z</time>
      </trkpt>
      <trkpt lat="37.28663333" lon="-3.56199667">
        <ele>1130.0</ele>
        <time>2022-11-13T12:14:34.000Z</time>
      </trkpt>
      <trkpt lat="37.28664167" lon="-3.56201">
        <ele>1130.0</ele>
        <time>2022-11-13T12:14:35.000Z</time>
      </trkpt>
      <trkpt lat="37.28665167" lon="-3.56202333">
        <ele>1130.0</ele>
        <time>2022-11-13T12:14:36.000Z</time>
      </trkpt>
      <trkpt lat="37.28666167" lon="-3.56203833">
        <ele>1129.0</ele>
        <time>2022-11-13T12:14:37.000Z</time>
      </trkpt>
      <trkpt lat="37.28667333" lon="-3.56205333">
        <ele>1129.0</ele>
        <time>2022-11-13T12:14:38.000Z</time>
      </trkpt>
      <trkpt lat="37.28668167" lon="-3.56206833">
        <ele>1129.0</ele>
        <time>2022-11-13T12:14:39.000Z</time>
      </trkpt>
      <trkpt lat="37.28669167" lon="-3.56208333">
        <ele>1129.0</ele>
        <time>2022-11-13T12:14:40.000Z</time>
      </trkpt>
      <trkpt lat="37.28670167" lon="-3.56209667">
        <ele>1129.0</ele>
        <time>2022-11-13T12:14:41.000Z</time>
      </trkpt>
      <trkpt lat="37.28670833" lon="-3.56211333">
        <ele>1129.0</ele>
        <time>2022-11-13T12:14:42.000Z</time>
      </trkpt>
      <trkpt lat="37.28671667" lon="-3.56212833">
        <ele>1129.0</ele>
        <time>2022-11-13T12:14:43.000Z</time>
      </trkpt>
      <trkpt lat="37.286725" lon="-3.562145">
        <ele>1129.0</ele>
        <time>2022-11-13T12:14:44.000Z</time>
      </trkpt>
      <trkpt lat="37.28673167" lon="-3.56216">
        <ele>1129.0</ele>
        <time>2022-11-13T12:14:45.000Z</time>
      </trkpt>
      <trkpt lat="37.28673833" lon="-3.562175">
        <ele>1129.0</ele>
        <time>2022-11-13T12:14:46.000Z</time>
      </trkpt>
      <trkpt lat="37.28674333" lon="-3.56219167">
        <ele>1129.0</ele>
        <time>2022-11-13T12:14:47.000Z</time>
      </trkpt>
      <trkpt lat="37.28675" lon="-3.56220833">
        <ele>1129.0</ele>
        <time>2022-11-13T12:14:48.000Z</time>
      </trkpt>
      <trkpt lat="37.286755" lon="-3.562225">
        <ele>1129.0</ele>
        <time>2022-11-13T12:14:49.000Z</time>
      </trkpt>
      <trkpt lat="37.28676333" lon="-3.56224">
        <ele>1128.0</ele>
        <time>2022-11-13T12:14:50.000Z</time>
      </trkpt>
      <trkpt lat="37.28677167" lon="-3.56225333">
        <ele>1128.0</ele>
        <time>2022-11-13T12:14:51.000Z</time>
      </trkpt>
      <trkpt lat="37.28677833" lon="-3.56226667">
        <ele>1128.0</ele>
        <time>2022-11-13T12:14:52.000Z</time>
      </trkpt>
      <trkpt lat="37.28678667" lon="-3.56228333">
        <ele>1128.0</ele>
        <time>2022-11-13T12:14:53.000Z</time>
      </trkpt>
      <trkpt lat="37.28679333" lon="-3.5623">
        <ele>1128.0</ele>
        <time>2022-11-13T12:14:54.000Z</time>
      </trkpt>
      <trkpt lat="37.2868" lon="-3.562315">
        <ele>1128.0</ele>
        <time>2022-11-13T12:14:55.000Z</time>
      </trkpt>
      <trkpt lat="37.28680833" lon="-3.56232833">
        <ele>1127.0</ele>
        <time>2022-11-13T12:14:56.000Z</time>
      </trkpt>
      <trkpt lat="37.28681667" lon="-3.56234">
        <ele>1127.0</ele>
        <time>2022-11-13T12:14:57.000Z</time>
      </trkpt>
      <trkpt lat="37.286825" lon="-3.56235">
        <ele>1127.0</ele>
        <time>2022-11-13T12:14:58.000Z</time>
      </trkpt>
      <trkpt lat="37.28683667" lon="-3.56236167">
        <ele>1127.0</ele>
        <time>2022-11-13T12:14:59.000Z</time>
      </trkpt>
      <trkpt lat="37.28684667" lon="-3.56237333">
        <ele>1127.0</ele>
        <time>2022-11-13T12:15:00.000Z</time>
      </trkpt>
      <trkpt lat="37.28685667" lon="-3.562385">
        <ele>1127.0</ele>
        <time>2022-11-13T12:15:01.000Z</time>
      </trkpt>
      <trkpt lat="37.28686667" lon="-3.56239667">
        <ele>1127.0</ele>
        <time>2022-11-13T12:15:02.000Z</time>
      </trkpt>
      <trkpt lat="37.286875" lon="-3.56240833">
        <ele>1127.0</ele>
        <time>2022-11-13T12:15:03.000Z</time>
      </trkpt>
      <trkpt lat="37.28688333" lon="-3.56242167">
        <ele>1127.0</ele>
        <time>2022-11-13T12:15:04.000Z</time>
      </trkpt>
      <trkpt lat="37.28689333" lon="-3.562435">
        <ele>1126.0</ele>
        <time>2022-11-13T12:15:05.000Z</time>
      </trkpt>
      <trkpt lat="37.28690167" lon="-3.56244833">
        <ele>1126.0</ele>
        <time>2022-11-13T12:15:06.000Z</time>
      </trkpt>
      <trkpt lat="37.28691167" lon="-3.56246167">
        <ele>1126.0</ele>
        <time>2022-11-13T12:15:07.000Z</time>
      </trkpt>
      <trkpt lat="37.28692167" lon="-3.56247167">
        <ele>1126.0</ele>
        <time>2022-11-13T12:15:08.000Z</time>
      </trkpt>
      <trkpt lat="37.28693167" lon="-3.56248333">
        <ele>1126.0</ele>
        <time>2022-11-13T12:15:09.000Z</time>
      </trkpt>
      <trkpt lat="37.28694" lon="-3.56249667">
        <ele>1126.0</ele>
        <time>2022-11-13T12:15:10.000Z</time>
      </trkpt>
      <trkpt lat="37.28694833" lon="-3.56250667">
        <ele>1126.0</ele>
        <time>2022-11-13T12:15:11.000Z</time>
      </trkpt>
      <trkpt lat="37.28695667" lon="-3.562515">
        <ele>1126.0</ele>
        <time>2022-11-13T12:15:12.000Z</time>
      </trkpt>
      <trkpt lat="37.28696667" lon="-3.56252667">
        <ele>1126.0</ele>
        <time>2022-11-13T12:15:13.000Z</time>
      </trkpt>
      <trkpt lat="37.28697667" lon="-3.56254">
        <ele>1126.0</ele>
        <time>2022-11-13T12:15:14.000Z</time>
      </trkpt>
      <trkpt lat="37.28698667" lon="-3.56255167">
        <ele>1126.0</ele>
        <time>2022-11-13T12:15:15.000Z</time>
      </trkpt>
      <trkpt lat="37.28699667" lon="-3.56256333">
        <ele>1126.0</ele>
        <time>2022-11-13T12:15:16.000Z</time>
      </trkpt>
      <trkpt lat="37.28700667" lon="-3.562575">
        <ele>1126.0</ele>
        <time>2022-11-13T12:15:17.000Z</time>
      </trkpt>
      <trkpt lat="37.28701667" lon="-3.562585">
        <ele>1126.0</ele>
        <time>2022-11-13T12:15:18.000Z</time>
      </trkpt>
      <trkpt lat="37.28702667" lon="-3.56259833">
        <ele>1126.0</ele>
        <time>2022-11-13T12:15:19.000Z</time>
      </trkpt>
      <trkpt lat="37.28703833" lon="-3.56261">
        <ele>1126.0</ele>
        <time>2022-11-13T12:15:20.000Z</time>
      </trkpt>
      <trkpt lat="37.28704667" lon="-3.56262">
        <ele>1126.0</ele>
        <time>2022-11-13T12:15:21.000Z</time>
      </trkpt>
      <trkpt lat="37.28705833" lon="-3.56263333">
        <ele>1126.0</ele>
        <time>2022-11-13T12:15:22.000Z</time>
      </trkpt>
      <trkpt lat="37.28706833" lon="-3.562645">
        <ele>1126.0</ele>
        <time>2022-11-13T12:15:23.000Z</time>
      </trkpt>
      <trkpt lat="37.28707833" lon="-3.56265667">
        <ele>1126.0</ele>
        <time>2022-11-13T12:15:24.000Z</time>
      </trkpt>
      <trkpt lat="37.28709" lon="-3.56266667">
        <ele>1126.0</ele>
        <time>2022-11-13T12:15:25.000Z</time>
      </trkpt>
      <trkpt lat="37.28709833" lon="-3.56267833">
        <ele>1126.0</ele>
        <time>2022-11-13T12:15:26.000Z</time>
      </trkpt>
      <trkpt lat="37.28710833" lon="-3.56269167">
        <ele>1126.0</ele>
        <time>2022-11-13T12:15:27.000Z</time>
      </trkpt>
      <trkpt lat="37.28712" lon="-3.56270333">
        <ele>1126.0</ele>
        <time>2022-11-13T12:15:28.000Z</time>
      </trkpt>
      <trkpt lat="37.28713" lon="-3.56271667">
        <ele>1126.0</ele>
        <time>2022-11-13T12:15:29.000Z</time>
      </trkpt>
      <trkpt lat="37.28714" lon="-3.56272833">
        <ele>1126.0</ele>
        <time>2022-11-13T12:15:30.000Z</time>
      </trkpt>
      <trkpt lat="37.28715" lon="-3.56274">
        <ele>1126.0</ele>
        <time>2022-11-13T12:15:31.000Z</time>
      </trkpt>
      <trkpt lat="37.28715833" lon="-3.56275167">
        <ele>1126.0</ele>
        <time>2022-11-13T12:15:32.000Z</time>
      </trkpt>
      <trkpt lat="37.28716833" lon="-3.56276167">
        <ele>1126.0</ele>
        <time>2022-11-13T12:15:33.000Z</time>
      </trkpt>
      <trkpt lat="37.28717833" lon="-3.562775">
        <ele>1126.0</ele>
        <time>2022-11-13T12:15:34.000Z</time>
      </trkpt>
      <trkpt lat="37.28719" lon="-3.56278833">
        <ele>1126.0</ele>
        <time>2022-11-13T12:15:35.000Z</time>
      </trkpt>
      <trkpt lat="37.28720167" lon="-3.5628">
        <ele>1126.0</ele>
        <time>2022-11-13T12:15:36.000Z</time>
      </trkpt>
      <trkpt lat="37.28721167" lon="-3.56281333">
        <ele>1126.0</ele>
        <time>2022-11-13T12:15:37.000Z</time>
      </trkpt>
      <trkpt lat="37.28722333" lon="-3.56282667">
        <ele>1126.0</ele>
        <time>2022-11-13T12:15:38.000Z</time>
      </trkpt>
      <trkpt lat="37.287235" lon="-3.562835">
        <ele>1126.0</ele>
        <time>2022-11-13T12:15:39.000Z</time>
      </trkpt>
      <trkpt lat="37.28724667" lon="-3.56284333">
        <ele>1126.0</ele>
        <time>2022-11-13T12:15:40.000Z</time>
      </trkpt>
      <trkpt lat="37.28725833" lon="-3.56285167">
        <ele>1126.0</ele>
        <time>2022-11-13T12:15:41.000Z</time>
      </trkpt>
      <trkpt lat="37.28726833" lon="-3.56285833">
        <ele>1126.0</ele>
        <time>2022-11-13T12:15:42.000Z</time>
      </trkpt>
      <trkpt lat="37.28727833" lon="-3.56286333">
        <ele>1126.0</ele>
        <time>2022-11-13T12:15:43.000Z</time>
      </trkpt>
      <trkpt lat="37.28729" lon="-3.56287">
        <ele>1126.0</ele>
        <time>2022-11-13T12:15:44.000Z</time>
      </trkpt>
      <trkpt lat="37.28730167" lon="-3.562875">
        <ele>1126.0</ele>
        <time>2022-11-13T12:15:45.000Z</time>
      </trkpt>
      <trkpt lat="37.28731333" lon="-3.56288">
        <ele>1125.0</ele>
        <time>2022-11-13T12:15:46.000Z</time>
      </trkpt>
      <trkpt lat="37.28732667" lon="-3.56288667">
        <ele>1125.0</ele>
        <time>2022-11-13T12:15:47.000Z</time>
      </trkpt>
      <trkpt lat="37.28733833" lon="-3.56289167">
        <ele>1125.0</ele>
        <time>2022-11-13T12:15:48.000Z</time>
      </trkpt>
      <trkpt lat="37.28735333" lon="-3.56289667">
        <ele>1125.0</ele>
        <time>2022-11-13T12:15:49.000Z</time>
      </trkpt>
      <trkpt lat="37.28736667" lon="-3.5629">
        <ele>1125.0</ele>
        <time>2022-11-13T12:15:50.000Z</time>
      </trkpt>
      <trkpt lat="37.28738" lon="-3.562905">
        <ele>1125.0</ele>
        <time>2022-11-13T12:15:51.000Z</time>
      </trkpt>
      <trkpt lat="37.28739333" lon="-3.56290833">
        <ele>1125.0</ele>
        <time>2022-11-13T12:15:52.000Z</time>
      </trkpt>
      <trkpt lat="37.28740667" lon="-3.56291167">
        <ele>1125.0</ele>
        <time>2022-11-13T12:15:53.000Z</time>
      </trkpt>
      <trkpt lat="37.28742" lon="-3.56291667">
        <ele>1125.0</ele>
        <time>2022-11-13T12:15:54.000Z</time>
      </trkpt>
      <trkpt lat="37.287435" lon="-3.56291833">
        <ele>1125.0</ele>
        <time>2022-11-13T12:15:55.000Z</time>
      </trkpt>
      <trkpt lat="37.28745" lon="-3.56292333">
        <ele>1125.0</ele>
        <time>2022-11-13T12:15:56.000Z</time>
      </trkpt>
      <trkpt lat="37.28746333" lon="-3.562925">
        <ele>1125.0</ele>
        <time>2022-11-13T12:15:57.000Z</time>
      </trkpt>
      <trkpt lat="37.28747833" lon="-3.56292833">
        <ele>1125.0</ele>
        <time>2022-11-13T12:15:58.000Z</time>
      </trkpt>
      <trkpt lat="37.28749167" lon="-3.56293167">
        <ele>1125.0</ele>
        <time>2022-11-13T12:15:59.000Z</time>
      </trkpt>
      <trkpt lat="37.28750667" lon="-3.56293667">
        <ele>1125.0</ele>
        <time>2022-11-13T12:16:00.000Z</time>
      </trkpt>
      <trkpt lat="37.28752167" lon="-3.56293833">
        <ele>1125.0</ele>
        <time>2022-11-13T12:16:01.000Z</time>
      </trkpt>
      <trkpt lat="37.28753667" lon="-3.56294">
        <ele>1125.0</ele>
        <time>2022-11-13T12:16:02.000Z</time>
      </trkpt>
      <trkpt lat="37.28754833" lon="-3.56294167">
        <ele>1125.0</ele>
        <time>2022-11-13T12:16:03.000Z</time>
      </trkpt>
      <trkpt lat="37.28756" lon="-3.56294333">
        <ele>1125.0</ele>
        <time>2022-11-13T12:16:04.000Z</time>
      </trkpt>
      <trkpt lat="37.28757333" lon="-3.56294667">
        <ele>1125.0</ele>
        <time>2022-11-13T12:16:05.000Z</time>
      </trkpt>
      <trkpt lat="37.28758667" lon="-3.56295">
        <ele>1125.0</ele>
        <time>2022-11-13T12:16:06.000Z</time>
      </trkpt>
      <trkpt lat="37.28760333" lon="-3.56295167">
        <ele>1125.0</ele>
        <time>2022-11-13T12:16:07.000Z</time>
      </trkpt>
      <trkpt lat="37.28761667" lon="-3.56295333">
        <ele>1125.0</ele>
        <time>2022-11-13T12:16:08.000Z</time>
      </trkpt>
      <trkpt lat="37.28763" lon="-3.562955">
        <ele>1125.0</ele>
        <time>2022-11-13T12:16:09.000Z</time>
      </trkpt>
      <trkpt lat="37.287645" lon="-3.56296">
        <ele>1125.0</ele>
        <time>2022-11-13T12:16:10.000Z</time>
      </trkpt>
      <trkpt lat="37.28765833" lon="-3.56296167">
        <ele>1125.0</ele>
        <time>2022-11-13T12:16:11.000Z</time>
      </trkpt>
      <trkpt lat="37.28767167" lon="-3.562965">
        <ele>1125.0</ele>
        <time>2022-11-13T12:16:12.000Z</time>
      </trkpt>
      <trkpt lat="37.28768667" lon="-3.56296667">
        <ele>1125.0</ele>
        <time>2022-11-13T12:16:13.000Z</time>
      </trkpt>
      <trkpt lat="37.28770167" lon="-3.56297">
        <ele>1125.0</ele>
        <time>2022-11-13T12:16:14.000Z</time>
      </trkpt>
      <trkpt lat="37.287715" lon="-3.56297333">
        <ele>1125.0</ele>
        <time>2022-11-13T12:16:15.000Z</time>
      </trkpt>
      <trkpt lat="37.28772833" lon="-3.562975">
        <ele>1125.0</ele>
        <time>2022-11-13T12:16:16.000Z</time>
      </trkpt>
      <trkpt lat="37.28774167" lon="-3.56297667">
        <ele>1124.0</ele>
        <time>2022-11-13T12:16:17.000Z</time>
      </trkpt>
      <trkpt lat="37.28775333" lon="-3.56297667">
        <ele>1124.0</ele>
        <time>2022-11-13T12:16:18.000Z</time>
      </trkpt>
      <trkpt lat="37.28776833" lon="-3.56298">
        <ele>1124.0</ele>
        <time>2022-11-13T12:16:19.000Z</time>
      </trkpt>
      <trkpt lat="37.28778167" lon="-3.56298333">
        <ele>1124.0</ele>
        <time>2022-11-13T12:16:20.000Z</time>
      </trkpt>
      <trkpt lat="37.28779667" lon="-3.562985">
        <ele>1124.0</ele>
        <time>2022-11-13T12:16:21.000Z</time>
      </trkpt>
      <trkpt lat="37.28780833" lon="-3.56299">
        <ele>1124.0</ele>
        <time>2022-11-13T12:16:22.000Z</time>
      </trkpt>
      <trkpt lat="37.28782333" lon="-3.56299167">
        <ele>1124.0</ele>
        <time>2022-11-13T12:16:23.000Z</time>
      </trkpt>
      <trkpt lat="37.28783667" lon="-3.56299167">
        <ele>1124.0</ele>
        <time>2022-11-13T12:16:24.000Z</time>
      </trkpt>
      <trkpt lat="37.28785" lon="-3.56299333">
        <ele>1124.0</ele>
        <time>2022-11-13T12:16:25.000Z</time>
      </trkpt>
      <trkpt lat="37.287865" lon="-3.56299667">
        <ele>1124.0</ele>
        <time>2022-11-13T12:16:26.000Z</time>
      </trkpt>
      <trkpt lat="37.28787667" lon="-3.56299833">
        <ele>1124.0</ele>
        <time>2022-11-13T12:16:27.000Z</time>
      </trkpt>
      <trkpt lat="37.28788667" lon="-3.56300167">
        <ele>1124.0</ele>
        <time>2022-11-13T12:16:28.000Z</time>
      </trkpt>
      <trkpt lat="37.2879" lon="-3.56300333">
        <ele>1124.0</ele>
        <time>2022-11-13T12:16:29.000Z</time>
      </trkpt>
      <trkpt lat="37.28791667" lon="-3.56300333">
        <ele>1124.0</ele>
        <time>2022-11-13T12:16:30.000Z</time>
      </trkpt>
      <trkpt lat="37.28793333" lon="-3.563005">
        <ele>1124.0</ele>
        <time>2022-11-13T12:16:31.000Z</time>
      </trkpt>
      <trkpt lat="37.28794833" lon="-3.56300667">
        <ele>1124.0</ele>
        <time>2022-11-13T12:16:32.000Z</time>
      </trkpt>
      <trkpt lat="37.28796167" lon="-3.56300833">
        <ele>1124.0</ele>
        <time>2022-11-13T12:16:33.000Z</time>
      </trkpt>
      <trkpt lat="37.287975" lon="-3.56301">
        <ele>1123.0</ele>
        <time>2022-11-13T12:16:34.000Z</time>
      </trkpt>
      <trkpt lat="37.28798833" lon="-3.563015">
        <ele>1123.0</ele>
        <time>2022-11-13T12:16:35.000Z</time>
      </trkpt>
      <trkpt lat="37.28800333" lon="-3.56302">
        <ele>1123.0</ele>
        <time>2022-11-13T12:16:36.000Z</time>
      </trkpt>
      <trkpt lat="37.288015" lon="-3.56302167">
        <ele>1123.0</ele>
        <time>2022-11-13T12:16:37.000Z</time>
      </trkpt>
      <trkpt lat="37.28802833" lon="-3.563025">
        <ele>1123.0</ele>
        <time>2022-11-13T12:16:38.000Z</time>
      </trkpt>
      <trkpt lat="37.28804167" lon="-3.56303">
        <ele>1123.0</ele>
        <time>2022-11-13T12:16:39.000Z</time>
      </trkpt>
      <trkpt lat="37.288055" lon="-3.56303167">
        <ele>1122.0</ele>
        <time>2022-11-13T12:16:40.000Z</time>
      </trkpt>
      <trkpt lat="37.28807" lon="-3.563035">
        <ele>1122.0</ele>
        <time>2022-11-13T12:16:41.000Z</time>
      </trkpt>
      <trkpt lat="37.28808333" lon="-3.56303667">
        <ele>1122.0</ele>
        <time>2022-11-13T12:16:42.000Z</time>
      </trkpt>
      <trkpt lat="37.28809667" lon="-3.56304">
        <ele>1122.0</ele>
        <time>2022-11-13T12:16:43.000Z</time>
      </trkpt>
      <trkpt lat="37.28811" lon="-3.56304167">
        <ele>1122.0</ele>
        <time>2022-11-13T12:16:44.000Z</time>
      </trkpt>
      <trkpt lat="37.288125" lon="-3.56304333">
        <ele>1122.0</ele>
        <time>2022-11-13T12:16:45.000Z</time>
      </trkpt>
      <trkpt lat="37.28814" lon="-3.563045">
        <ele>1122.0</ele>
        <time>2022-11-13T12:16:46.000Z</time>
      </trkpt>
      <trkpt lat="37.28815" lon="-3.563045">
        <ele>1122.0</ele>
        <time>2022-11-13T12:16:47.000Z</time>
      </trkpt>
      <trkpt lat="37.28816333" lon="-3.56304667">
        <ele>1121.0</ele>
        <time>2022-11-13T12:16:48.000Z</time>
      </trkpt>
      <trkpt lat="37.28817667" lon="-3.56305">
        <ele>1121.0</ele>
        <time>2022-11-13T12:16:49.000Z</time>
      </trkpt>
      <trkpt lat="37.28819" lon="-3.56305167">
        <ele>1121.0</ele>
        <time>2022-11-13T12:16:50.000Z</time>
      </trkpt>
      <trkpt lat="37.28820167" lon="-3.56305167">
        <ele>1121.0</ele>
        <time>2022-11-13T12:16:51.000Z</time>
      </trkpt>
      <trkpt lat="37.288215" lon="-3.56305333">
        <ele>1121.0</ele>
        <time>2022-11-13T12:16:52.000Z</time>
      </trkpt>
      <trkpt lat="37.28822833" lon="-3.56305833">
        <ele>1121.0</ele>
        <time>2022-11-13T12:16:53.000Z</time>
      </trkpt>
      <trkpt lat="37.28824" lon="-3.56306167">
        <ele>1121.0</ele>
        <time>2022-11-13T12:16:54.000Z</time>
      </trkpt>
      <trkpt lat="37.28825333" lon="-3.563065">
        <ele>1121.0</ele>
        <time>2022-11-13T12:16:55.000Z</time>
      </trkpt>
      <trkpt lat="37.28826833" lon="-3.56306833">
        <ele>1120.0</ele>
        <time>2022-11-13T12:16:56.000Z</time>
      </trkpt>
      <trkpt lat="37.28828167" lon="-3.56307">
        <ele>1120.0</ele>
        <time>2022-11-13T12:16:57.000Z</time>
      </trkpt>
      <trkpt lat="37.288295" lon="-3.56307167">
        <ele>1120.0</ele>
        <time>2022-11-13T12:16:58.000Z</time>
      </trkpt>
      <trkpt lat="37.28830833" lon="-3.56307333">
        <ele>1120.0</ele>
        <time>2022-11-13T12:16:59.000Z</time>
      </trkpt>
      <trkpt lat="37.28832167" lon="-3.56307333">
        <ele>1120.0</ele>
        <time>2022-11-13T12:17:00.000Z</time>
      </trkpt>
      <trkpt lat="37.28833833" lon="-3.56307167">
        <ele>1120.0</ele>
        <time>2022-11-13T12:17:01.000Z</time>
      </trkpt>
      <trkpt lat="37.28835333" lon="-3.56307167">
        <ele>1120.0</ele>
        <time>2022-11-13T12:17:02.000Z</time>
      </trkpt>
      <trkpt lat="37.28837" lon="-3.56307167">
        <ele>1120.0</ele>
        <time>2022-11-13T12:17:03.000Z</time>
      </trkpt>
      <trkpt lat="37.288385" lon="-3.563075">
        <ele>1120.0</ele>
        <time>2022-11-13T12:17:04.000Z</time>
      </trkpt>
      <trkpt lat="37.2884" lon="-3.56307667">
        <ele>1120.0</ele>
        <time>2022-11-13T12:17:05.000Z</time>
      </trkpt>
      <trkpt lat="37.28841333" lon="-3.56307833">
        <ele>1120.0</ele>
        <time>2022-11-13T12:17:06.000Z</time>
      </trkpt>
      <trkpt lat="37.28843" lon="-3.56307833">
        <ele>1119.0</ele>
        <time>2022-11-13T12:17:07.000Z</time>
      </trkpt>
      <trkpt lat="37.288445" lon="-3.56308">
        <ele>1119.0</ele>
        <time>2022-11-13T12:17:08.000Z</time>
      </trkpt>
      <trkpt lat="37.28845833" lon="-3.56308">
        <ele>1119.0</ele>
        <time>2022-11-13T12:17:09.000Z</time>
      </trkpt>
      <trkpt lat="37.28847333" lon="-3.56308167">
        <ele>1119.0</ele>
        <time>2022-11-13T12:17:10.000Z</time>
      </trkpt>
      <trkpt lat="37.28848667" lon="-3.56308167">
        <ele>1119.0</ele>
        <time>2022-11-13T12:17:11.000Z</time>
      </trkpt>
      <trkpt lat="37.2885" lon="-3.56308">
        <ele>1119.0</ele>
        <time>2022-11-13T12:17:12.000Z</time>
      </trkpt>
      <trkpt lat="37.28851333" lon="-3.56308">
        <ele>1119.0</ele>
        <time>2022-11-13T12:17:13.000Z</time>
      </trkpt>
      <trkpt lat="37.288525" lon="-3.56307833">
        <ele>1119.0</ele>
        <time>2022-11-13T12:17:14.000Z</time>
      </trkpt>
      <trkpt lat="37.28854" lon="-3.56307667">
        <ele>1119.0</ele>
        <time>2022-11-13T12:17:15.000Z</time>
      </trkpt>
      <trkpt lat="37.28855333" lon="-3.563075">
        <ele>1119.0</ele>
        <time>2022-11-13T12:17:16.000Z</time>
      </trkpt>
      <trkpt lat="37.28856833" lon="-3.56307667">
        <ele>1119.0</ele>
        <time>2022-11-13T12:17:17.000Z</time>
      </trkpt>
      <trkpt lat="37.28858167" lon="-3.56307667">
        <ele>1118.0</ele>
        <time>2022-11-13T12:17:18.000Z</time>
      </trkpt>
      <trkpt lat="37.28859833" lon="-3.56307667">
        <ele>1118.0</ele>
        <time>2022-11-13T12:17:19.000Z</time>
      </trkpt>
      <trkpt lat="37.28861167" lon="-3.56307667">
        <ele>1118.0</ele>
        <time>2022-11-13T12:17:20.000Z</time>
      </trkpt>
      <trkpt lat="37.28862667" lon="-3.563075">
        <ele>1118.0</ele>
        <time>2022-11-13T12:17:21.000Z</time>
      </trkpt>
      <trkpt lat="37.28864" lon="-3.56307333">
        <ele>1118.0</ele>
        <time>2022-11-13T12:17:22.000Z</time>
      </trkpt>
      <trkpt lat="37.288655" lon="-3.56307167">
        <ele>1118.0</ele>
        <time>2022-11-13T12:17:23.000Z</time>
      </trkpt>
      <trkpt lat="37.28867" lon="-3.56307">
        <ele>1118.0</ele>
        <time>2022-11-13T12:17:24.000Z</time>
      </trkpt>
      <trkpt lat="37.288685" lon="-3.56306833">
        <ele>1118.0</ele>
        <time>2022-11-13T12:17:25.000Z</time>
      </trkpt>
      <trkpt lat="37.28869833" lon="-3.56306667">
        <ele>1118.0</ele>
        <time>2022-11-13T12:17:26.000Z</time>
      </trkpt>
      <trkpt lat="37.28871" lon="-3.563065">
        <ele>1118.0</ele>
        <time>2022-11-13T12:17:27.000Z</time>
      </trkpt>
      <trkpt lat="37.28872333" lon="-3.56306333">
        <ele>1117.0</ele>
        <time>2022-11-13T12:17:28.000Z</time>
      </trkpt>
      <trkpt lat="37.28873667" lon="-3.56306167">
        <ele>1117.0</ele>
        <time>2022-11-13T12:17:29.000Z</time>
      </trkpt>
      <trkpt lat="37.28875167" lon="-3.56306167">
        <ele>1117.0</ele>
        <time>2022-11-13T12:17:30.000Z</time>
      </trkpt>
      <trkpt lat="37.288765" lon="-3.56306">
        <ele>1117.0</ele>
        <time>2022-11-13T12:17:31.000Z</time>
      </trkpt>
      <trkpt lat="37.28878" lon="-3.56305833">
        <ele>1117.0</ele>
        <time>2022-11-13T12:17:32.000Z</time>
      </trkpt>
      <trkpt lat="37.28879167" lon="-3.56305667">
        <ele>1117.0</ele>
        <time>2022-11-13T12:17:33.000Z</time>
      </trkpt>
      <trkpt lat="37.288805" lon="-3.56305667">
        <ele>1117.0</ele>
        <time>2022-11-13T12:17:34.000Z</time>
      </trkpt>
      <trkpt lat="37.28881833" lon="-3.563055">
        <ele>1117.0</ele>
        <time>2022-11-13T12:17:35.000Z</time>
      </trkpt>
      <trkpt lat="37.28883333" lon="-3.563055">
        <ele>1117.0</ele>
        <time>2022-11-13T12:17:36.000Z</time>
      </trkpt>
      <trkpt lat="37.28884667" lon="-3.563055">
        <ele>1117.0</ele>
        <time>2022-11-13T12:17:37.000Z</time>
      </trkpt>
      <trkpt lat="37.28886" lon="-3.56305667">
        <ele>1117.0</ele>
        <time>2022-11-13T12:17:38.000Z</time>
      </trkpt>
      <trkpt lat="37.288875" lon="-3.563055">
        <ele>1117.0</ele>
        <time>2022-11-13T12:17:39.000Z</time>
      </trkpt>
      <trkpt lat="37.28888833" lon="-3.56305333">
        <ele>1117.0</ele>
        <time>2022-11-13T12:17:40.000Z</time>
      </trkpt>
      <trkpt lat="37.2889" lon="-3.56305333">
        <ele>1117.0</ele>
        <time>2022-11-13T12:17:41.000Z</time>
      </trkpt>
      <trkpt lat="37.28891333" lon="-3.56305167">
        <ele>1117.0</ele>
        <time>2022-11-13T12:17:42.000Z</time>
      </trkpt>
      <trkpt lat="37.288925" lon="-3.56305">
        <ele>1117.0</ele>
        <time>2022-11-13T12:17:43.000Z</time>
      </trkpt>
      <trkpt lat="37.28893667" lon="-3.56304833">
        <ele>1117.0</ele>
        <time>2022-11-13T12:17:44.000Z</time>
      </trkpt>
      <trkpt lat="37.28894833" lon="-3.56304667">
        <ele>1117.0</ele>
        <time>2022-11-13T12:17:45.000Z</time>
      </trkpt>
      <trkpt lat="37.28896" lon="-3.563045">
        <ele>1117.0</ele>
        <time>2022-11-13T12:17:46.000Z</time>
      </trkpt>
      <trkpt lat="37.28897333" lon="-3.56304333">
        <ele>1117.0</ele>
        <time>2022-11-13T12:17:47.000Z</time>
      </trkpt>
      <trkpt lat="37.288985" lon="-3.56304">
        <ele>1117.0</ele>
        <time>2022-11-13T12:17:48.000Z</time>
      </trkpt>
      <trkpt lat="37.288995" lon="-3.56303833">
        <ele>1117.0</ele>
        <time>2022-11-13T12:17:49.000Z</time>
      </trkpt>
      <trkpt lat="37.289005" lon="-3.56303833">
        <ele>1117.0</ele>
        <time>2022-11-13T12:17:50.000Z</time>
      </trkpt>
      <trkpt lat="37.289015" lon="-3.56303667">
        <ele>1117.0</ele>
        <time>2022-11-13T12:17:51.000Z</time>
      </trkpt>
      <trkpt lat="37.28902667" lon="-3.56303333">
        <ele>1116.0</ele>
        <time>2022-11-13T12:17:52.000Z</time>
      </trkpt>
      <trkpt lat="37.28903667" lon="-3.56303167">
        <ele>1116.0</ele>
        <time>2022-11-13T12:17:53.000Z</time>
      </trkpt>
      <trkpt lat="37.28904833" lon="-3.56303">
        <ele>1116.0</ele>
        <time>2022-11-13T12:17:54.000Z</time>
      </trkpt>
      <trkpt lat="37.28906333" lon="-3.56302833">
        <ele>1116.0</ele>
        <time>2022-11-13T12:17:55.000Z</time>
      </trkpt>
      <trkpt lat="37.28907667" lon="-3.56302833">
        <ele>1116.0</ele>
        <time>2022-11-13T12:17:56.000Z</time>
      </trkpt>
      <trkpt lat="37.28909" lon="-3.563025">
        <ele>1116.0</ele>
        <time>2022-11-13T12:17:57.000Z</time>
      </trkpt>
      <trkpt lat="37.28910333" lon="-3.56302333">
        <ele>1116.0</ele>
        <time>2022-11-13T12:17:58.000Z</time>
      </trkpt>
      <trkpt lat="37.28911833" lon="-3.56301833">
        <ele>1116.0</ele>
        <time>2022-11-13T12:17:59.000Z</time>
      </trkpt>
      <trkpt lat="37.28913167" lon="-3.56301667">
        <ele>1116.0</ele>
        <time>2022-11-13T12:18:00.000Z</time>
      </trkpt>
      <trkpt lat="37.289145" lon="-3.563015">
        <ele>1116.0</ele>
        <time>2022-11-13T12:18:01.000Z</time>
      </trkpt>
      <trkpt lat="37.28915833" lon="-3.56301167">
        <ele>1116.0</ele>
        <time>2022-11-13T12:18:02.000Z</time>
      </trkpt>
      <trkpt lat="37.28917167" lon="-3.56301">
        <ele>1116.0</ele>
        <time>2022-11-13T12:18:03.000Z</time>
      </trkpt>
      <trkpt lat="37.289185" lon="-3.56300667">
        <ele>1116.0</ele>
        <time>2022-11-13T12:18:04.000Z</time>
      </trkpt>
      <trkpt lat="37.2892" lon="-3.56300167">
        <ele>1116.0</ele>
        <time>2022-11-13T12:18:05.000Z</time>
      </trkpt>
      <trkpt lat="37.28921333" lon="-3.56299833">
        <ele>1116.0</ele>
        <time>2022-11-13T12:18:06.000Z</time>
      </trkpt>
      <trkpt lat="37.28922833" lon="-3.56299667">
        <ele>1116.0</ele>
        <time>2022-11-13T12:18:07.000Z</time>
      </trkpt>
      <trkpt lat="37.28924167" lon="-3.56299333">
        <ele>1116.0</ele>
        <time>2022-11-13T12:18:08.000Z</time>
      </trkpt>
      <trkpt lat="37.289255" lon="-3.56299">
        <ele>1116.0</ele>
        <time>2022-11-13T12:18:09.000Z</time>
      </trkpt>
      <trkpt lat="37.28926833" lon="-3.56298667">
        <ele>1116.0</ele>
        <time>2022-11-13T12:18:10.000Z</time>
      </trkpt>
      <trkpt lat="37.28928167" lon="-3.56298333">
        <ele>1115.0</ele>
        <time>2022-11-13T12:18:11.000Z</time>
      </trkpt>
      <trkpt lat="37.289295" lon="-3.56297833">
        <ele>1115.0</ele>
        <time>2022-11-13T12:18:12.000Z</time>
      </trkpt>
      <trkpt lat="37.28930833" lon="-3.562975">
        <ele>1115.0</ele>
        <time>2022-11-13T12:18:13.000Z</time>
      </trkpt>
      <trkpt lat="37.28932167" lon="-3.56297">
        <ele>1115.0</ele>
        <time>2022-11-13T12:18:14.000Z</time>
      </trkpt>
      <trkpt lat="37.28933333" lon="-3.562965">
        <ele>1115.0</ele>
        <time>2022-11-13T12:18:15.000Z</time>
      </trkpt>
      <trkpt lat="37.28934667" lon="-3.56296">
        <ele>1115.0</ele>
        <time>2022-11-13T12:18:16.000Z</time>
      </trkpt>
      <trkpt lat="37.28935833" lon="-3.562955">
        <ele>1115.0</ele>
        <time>2022-11-13T12:18:17.000Z</time>
      </trkpt>
      <trkpt lat="37.28937167" lon="-3.56295">
        <ele>1115.0</ele>
        <time>2022-11-13T12:18:18.000Z</time>
      </trkpt>
      <trkpt lat="37.28938333" lon="-3.562945">
        <ele>1115.0</ele>
        <time>2022-11-13T12:18:19.000Z</time>
      </trkpt>
      <trkpt lat="37.28939667" lon="-3.56293833">
        <ele>1115.0</ele>
        <time>2022-11-13T12:18:20.000Z</time>
      </trkpt>
      <trkpt lat="37.28941" lon="-3.56293">
        <ele>1115.0</ele>
        <time>2022-11-13T12:18:21.000Z</time>
      </trkpt>
      <trkpt lat="37.28942167" lon="-3.56292333">
        <ele>1115.0</ele>
        <time>2022-11-13T12:18:22.000Z</time>
      </trkpt>
      <trkpt lat="37.28943333" lon="-3.56291667">
        <ele>1115.0</ele>
        <time>2022-11-13T12:18:23.000Z</time>
      </trkpt>
      <trkpt lat="37.289445" lon="-3.56291333">
        <ele>1115.0</ele>
        <time>2022-11-13T12:18:24.000Z</time>
      </trkpt>
      <trkpt lat="37.28945667" lon="-3.56291">
        <ele>1115.0</ele>
        <time>2022-11-13T12:18:25.000Z</time>
      </trkpt>
      <trkpt lat="37.28946667" lon="-3.562905">
        <ele>1115.0</ele>
        <time>2022-11-13T12:18:26.000Z</time>
      </trkpt>
      <trkpt lat="37.28947667" lon="-3.56289833">
        <ele>1115.0</ele>
        <time>2022-11-13T12:18:27.000Z</time>
      </trkpt>
      <trkpt lat="37.28948667" lon="-3.56289167">
        <ele>1115.0</ele>
        <time>2022-11-13T12:18:28.000Z</time>
      </trkpt>
      <trkpt lat="37.28949667" lon="-3.562885">
        <ele>1115.0</ele>
        <time>2022-11-13T12:18:29.000Z</time>
      </trkpt>
      <trkpt lat="37.28950667" lon="-3.56288">
        <ele>1115.0</ele>
        <time>2022-11-13T12:18:30.000Z</time>
      </trkpt>
      <trkpt lat="37.28951667" lon="-3.56287333">
        <ele>1115.0</ele>
        <time>2022-11-13T12:18:31.000Z</time>
      </trkpt>
      <trkpt lat="37.28952667" lon="-3.56287">
        <ele>1115.0</ele>
        <time>2022-11-13T12:18:32.000Z</time>
      </trkpt>
      <trkpt lat="37.289535" lon="-3.56286333">
        <ele>1115.0</ele>
        <time>2022-11-13T12:18:33.000Z</time>
      </trkpt>
      <trkpt lat="37.289545" lon="-3.56285833">
        <ele>1115.0</ele>
        <time>2022-11-13T12:18:34.000Z</time>
      </trkpt>
      <trkpt lat="37.28955333" lon="-3.56285167">
        <ele>1115.0</ele>
        <time>2022-11-13T12:18:35.000Z</time>
      </trkpt>
      <trkpt lat="37.28956333" lon="-3.562845">
        <ele>1115.0</ele>
        <time>2022-11-13T12:18:36.000Z</time>
      </trkpt>
      <trkpt lat="37.28957167" lon="-3.56283833">
        <ele>1115.0</ele>
        <time>2022-11-13T12:18:37.000Z</time>
      </trkpt>
      <trkpt lat="37.28958167" lon="-3.56283333">
        <ele>1115.0</ele>
        <time>2022-11-13T12:18:38.000Z</time>
      </trkpt>
      <trkpt lat="37.28959167" lon="-3.56283">
        <ele>1115.0</ele>
        <time>2022-11-13T12:18:39.000Z</time>
      </trkpt>
      <trkpt lat="37.28960167" lon="-3.56282333">
        <ele>1115.0</ele>
        <time>2022-11-13T12:18:40.000Z</time>
      </trkpt>
      <trkpt lat="37.28961167" lon="-3.56282">
        <ele>1115.0</ele>
        <time>2022-11-13T12:18:41.000Z</time>
      </trkpt>
      <trkpt lat="37.28961833" lon="-3.562815">
        <ele>1115.0</ele>
        <time>2022-11-13T12:18:42.000Z</time>
      </trkpt>
      <trkpt lat="37.28962667" lon="-3.56280833">
        <ele>1115.0</ele>
        <time>2022-11-13T12:18:43.000Z</time>
      </trkpt>
      <trkpt lat="37.28963833" lon="-3.56280333">
        <ele>1115.0</ele>
        <time>2022-11-13T12:18:44.000Z</time>
      </trkpt>
      <trkpt lat="37.28964667" lon="-3.56279833">
        <ele>1115.0</ele>
        <time>2022-11-13T12:18:45.000Z</time>
      </trkpt>
      <trkpt lat="37.28965667" lon="-3.56279167">
        <ele>1115.0</ele>
        <time>2022-11-13T12:18:46.000Z</time>
      </trkpt>
      <trkpt lat="37.28966667" lon="-3.562785">
        <ele>1115.0</ele>
        <time>2022-11-13T12:18:47.000Z</time>
      </trkpt>
      <trkpt lat="37.28967667" lon="-3.56277833">
        <ele>1115.0</ele>
        <time>2022-11-13T12:18:48.000Z</time>
      </trkpt>
      <trkpt lat="37.28968667" lon="-3.56277">
        <ele>1115.0</ele>
        <time>2022-11-13T12:18:49.000Z</time>
      </trkpt>
      <trkpt lat="37.28969833" lon="-3.562765">
        <ele>1115.0</ele>
        <time>2022-11-13T12:18:50.000Z</time>
      </trkpt>
      <trkpt lat="37.28970833" lon="-3.56275833">
        <ele>1115.0</ele>
        <time>2022-11-13T12:18:51.000Z</time>
      </trkpt>
      <trkpt lat="37.28971833" lon="-3.56275333">
        <ele>1115.0</ele>
        <time>2022-11-13T12:18:52.000Z</time>
      </trkpt>
      <trkpt lat="37.28972833" lon="-3.56274833">
        <ele>1115.0</ele>
        <time>2022-11-13T12:18:53.000Z</time>
      </trkpt>
      <trkpt lat="37.28973833" lon="-3.56274333">
        <ele>1115.0</ele>
        <time>2022-11-13T12:18:54.000Z</time>
      </trkpt>
      <trkpt lat="37.28974667" lon="-3.56274167">
        <ele>1114.0</ele>
        <time>2022-11-13T12:18:55.000Z</time>
      </trkpt>
      <trkpt lat="37.28975667" lon="-3.56274">
        <ele>1114.0</ele>
        <time>2022-11-13T12:18:56.000Z</time>
      </trkpt>
      <trkpt lat="37.28976833" lon="-3.56273667">
        <ele>1114.0</ele>
        <time>2022-11-13T12:18:57.000Z</time>
      </trkpt>
      <trkpt lat="37.28977833" lon="-3.562735">
        <ele>1114.0</ele>
        <time>2022-11-13T12:18:58.000Z</time>
      </trkpt>
      <trkpt lat="37.28979" lon="-3.56273167">
        <ele>1114.0</ele>
        <time>2022-11-13T12:18:59.000Z</time>
      </trkpt>
      <trkpt lat="37.2898" lon="-3.56272833">
        <ele>1114.0</ele>
        <time>2022-11-13T12:19:00.000Z</time>
      </trkpt>
      <trkpt lat="37.28980833" lon="-3.562725">
        <ele>1114.0</ele>
        <time>2022-11-13T12:19:01.000Z</time>
      </trkpt>
      <trkpt lat="37.28980833" lon="-3.562725">
        <ele>1114.0</ele>
        <time>2022-11-13T12:19:02.000Z</time>
      </trkpt>
      <trkpt lat="37.28980833" lon="-3.562725">
        <ele>1114.0</ele>
        <time>2022-11-13T12:19:03.000Z</time>
      </trkpt>
      <trkpt lat="37.28980833" lon="-3.562725">
        <ele>1114.0</ele>
        <time>2022-11-13T12:19:04.000Z</time>
      </trkpt>
      <trkpt lat="37.28980833" lon="-3.562725">
        <ele>1114.0</ele>
        <time>2022-11-13T12:19:05.000Z</time>
      </trkpt>
      <trkpt lat="37.28980833" lon="-3.562725">
        <ele>1114.0</ele>
        <time>2022-11-13T12:19:06.000Z</time>
      </trkpt>
      <trkpt lat="37.28980833" lon="-3.562725">
        <ele>1114.0</ele>
        <time>2022-11-13T12:19:07.000Z</time>
      </trkpt>
      <trkpt lat="37.28980833" lon="-3.562725">
        <ele>1114.0</ele>
        <time>2022-11-13T12:19:08.000Z</time>
      </trkpt>
      <trkpt lat="37.28980667" lon="-3.56272333">
        <ele>1114.0</ele>
        <time>2022-11-13T12:19:09.000Z</time>
      </trkpt>
      <trkpt lat="37.28980667" lon="-3.56272333">
        <ele>1114.0</ele>
        <time>2022-11-13T12:19:10.000Z</time>
      </trkpt>
      <trkpt lat="37.28981" lon="-3.56272167">
        <ele>1114.0</ele>
        <time>2022-11-13T12:19:11.000Z</time>
      </trkpt>
      <trkpt lat="37.28981667" lon="-3.56271833">
        <ele>1113.0</ele>
        <time>2022-11-13T12:19:12.000Z</time>
      </trkpt>
      <trkpt lat="37.289825" lon="-3.562715">
        <ele>1113.0</ele>
        <time>2022-11-13T12:19:13.000Z</time>
      </trkpt>
      <trkpt lat="37.289835" lon="-3.56271">
        <ele>1113.0</ele>
        <time>2022-11-13T12:19:14.000Z</time>
      </trkpt>
      <trkpt lat="37.28984667" lon="-3.56270333">
        <ele>1113.0</ele>
        <time>2022-11-13T12:19:15.000Z</time>
      </trkpt>
      <trkpt lat="37.28985667" lon="-3.56269833">
        <ele>1113.0</ele>
        <time>2022-11-13T12:19:16.000Z</time>
      </trkpt>
      <trkpt lat="37.28986833" lon="-3.56269167">
        <ele>1113.0</ele>
        <time>2022-11-13T12:19:17.000Z</time>
      </trkpt>
      <trkpt lat="37.28988" lon="-3.562685">
        <ele>1113.0</ele>
        <time>2022-11-13T12:19:18.000Z</time>
      </trkpt>
      <trkpt lat="37.28989167" lon="-3.562675">
        <ele>1113.0</ele>
        <time>2022-11-13T12:19:19.000Z</time>
      </trkpt>
      <trkpt lat="37.28990333" lon="-3.56266667">
        <ele>1113.0</ele>
        <time>2022-11-13T12:19:20.000Z</time>
      </trkpt>
      <trkpt lat="37.28991667" lon="-3.56266">
        <ele>1113.0</ele>
        <time>2022-11-13T12:19:21.000Z</time>
      </trkpt>
      <trkpt lat="37.28992833" lon="-3.562655">
        <ele>1112.0</ele>
        <time>2022-11-13T12:19:22.000Z</time>
      </trkpt>
      <trkpt lat="37.28994333" lon="-3.56264833">
        <ele>1112.0</ele>
        <time>2022-11-13T12:19:23.000Z</time>
      </trkpt>
      <trkpt lat="37.28995667" lon="-3.56264">
        <ele>1112.0</ele>
        <time>2022-11-13T12:19:24.000Z</time>
      </trkpt>
      <trkpt lat="37.28997" lon="-3.56262833">
        <ele>1112.0</ele>
        <time>2022-11-13T12:19:25.000Z</time>
      </trkpt>
      <trkpt lat="37.28998" lon="-3.56261833">
        <ele>1112.0</ele>
        <time>2022-11-13T12:19:26.000Z</time>
      </trkpt>
      <trkpt lat="37.28999333" lon="-3.56261">
        <ele>1112.0</ele>
        <time>2022-11-13T12:19:27.000Z</time>
      </trkpt>
      <trkpt lat="37.29000333" lon="-3.56260333">
        <ele>1112.0</ele>
        <time>2022-11-13T12:19:28.000Z</time>
      </trkpt>
      <trkpt lat="37.29001667" lon="-3.56259333">
        <ele>1112.0</ele>
        <time>2022-11-13T12:19:29.000Z</time>
      </trkpt>
      <trkpt lat="37.29002833" lon="-3.562585">
        <ele>1112.0</ele>
        <time>2022-11-13T12:19:30.000Z</time>
      </trkpt>
      <trkpt lat="37.29004167" lon="-3.56257667">
        <ele>1111.0</ele>
        <time>2022-11-13T12:19:31.000Z</time>
      </trkpt>
      <trkpt lat="37.290055" lon="-3.56256833">
        <ele>1111.0</ele>
        <time>2022-11-13T12:19:32.000Z</time>
      </trkpt>
      <trkpt lat="37.29006833" lon="-3.56256167">
        <ele>1111.0</ele>
        <time>2022-11-13T12:19:33.000Z</time>
      </trkpt>
      <trkpt lat="37.29008" lon="-3.56255">
        <ele>1111.0</ele>
        <time>2022-11-13T12:19:34.000Z</time>
      </trkpt>
      <trkpt lat="37.29009" lon="-3.56254167">
        <ele>1111.0</ele>
        <time>2022-11-13T12:19:35.000Z</time>
      </trkpt>
      <trkpt lat="37.29010167" lon="-3.56253167">
        <ele>1111.0</ele>
        <time>2022-11-13T12:19:36.000Z</time>
      </trkpt>
      <trkpt lat="37.29011333" lon="-3.56252167">
        <ele>1111.0</ele>
        <time>2022-11-13T12:19:37.000Z</time>
      </trkpt>
      <trkpt lat="37.29012667" lon="-3.562515">
        <ele>1111.0</ele>
        <time>2022-11-13T12:19:38.000Z</time>
      </trkpt>
      <trkpt lat="37.29014" lon="-3.56250833">
        <ele>1111.0</ele>
        <time>2022-11-13T12:19:39.000Z</time>
      </trkpt>
      <trkpt lat="37.29015333" lon="-3.5625">
        <ele>1110.0</ele>
        <time>2022-11-13T12:19:40.000Z</time>
      </trkpt>
      <trkpt lat="37.29016667" lon="-3.56249167">
        <ele>1110.0</ele>
        <time>2022-11-13T12:19:41.000Z</time>
      </trkpt>
      <trkpt lat="37.29018" lon="-3.56248333">
        <ele>1110.0</ele>
        <time>2022-11-13T12:19:42.000Z</time>
      </trkpt>
      <trkpt lat="37.29019167" lon="-3.562475">
        <ele>1110.0</ele>
        <time>2022-11-13T12:19:43.000Z</time>
      </trkpt>
      <trkpt lat="37.29020333" lon="-3.56246667">
        <ele>1110.0</ele>
        <time>2022-11-13T12:19:44.000Z</time>
      </trkpt>
      <trkpt lat="37.290215" lon="-3.56245667">
        <ele>1110.0</ele>
        <time>2022-11-13T12:19:45.000Z</time>
      </trkpt>
      <trkpt lat="37.29022667" lon="-3.56244833">
        <ele>1110.0</ele>
        <time>2022-11-13T12:19:46.000Z</time>
      </trkpt>
      <trkpt lat="37.29023833" lon="-3.56243833">
        <ele>1110.0</ele>
        <time>2022-11-13T12:19:47.000Z</time>
      </trkpt>
      <trkpt lat="37.29025167" lon="-3.56243">
        <ele>1110.0</ele>
        <time>2022-11-13T12:19:48.000Z</time>
      </trkpt>
      <trkpt lat="37.29026333" lon="-3.56242333">
        <ele>1110.0</ele>
        <time>2022-11-13T12:19:49.000Z</time>
      </trkpt>
      <trkpt lat="37.29027333" lon="-3.56241667">
        <ele>1110.0</ele>
        <time>2022-11-13T12:19:50.000Z</time>
      </trkpt>
      <trkpt lat="37.290285" lon="-3.56240833">
        <ele>1110.0</ele>
        <time>2022-11-13T12:19:51.000Z</time>
      </trkpt>
      <trkpt lat="37.29029667" lon="-3.56239833">
        <ele>1110.0</ele>
        <time>2022-11-13T12:19:52.000Z</time>
      </trkpt>
      <trkpt lat="37.29030833" lon="-3.56239">
        <ele>1110.0</ele>
        <time>2022-11-13T12:19:53.000Z</time>
      </trkpt>
      <trkpt lat="37.29032" lon="-3.56238167">
        <ele>1110.0</ele>
        <time>2022-11-13T12:19:54.000Z</time>
      </trkpt>
      <trkpt lat="37.29033167" lon="-3.56237167">
        <ele>1110.0</ele>
        <time>2022-11-13T12:19:55.000Z</time>
      </trkpt>
      <trkpt lat="37.29034333" lon="-3.56236167">
        <ele>1110.0</ele>
        <time>2022-11-13T12:19:56.000Z</time>
      </trkpt>
      <trkpt lat="37.29035333" lon="-3.56235">
        <ele>1109.0</ele>
        <time>2022-11-13T12:19:57.000Z</time>
      </trkpt>
      <trkpt lat="37.290365" lon="-3.56234">
        <ele>1109.0</ele>
        <time>2022-11-13T12:19:58.000Z</time>
      </trkpt>
      <trkpt lat="37.290375" lon="-3.56233167">
        <ele>1109.0</ele>
        <time>2022-11-13T12:19:59.000Z</time>
      </trkpt>
      <trkpt lat="37.290385" lon="-3.56232">
        <ele>1109.0</ele>
        <time>2022-11-13T12:20:00.000Z</time>
      </trkpt>
      <trkpt lat="37.290395" lon="-3.56231">
        <ele>1109.0</ele>
        <time>2022-11-13T12:20:01.000Z</time>
      </trkpt>
      <trkpt lat="37.29040333" lon="-3.56229833">
        <ele>1109.0</ele>
        <time>2022-11-13T12:20:02.000Z</time>
      </trkpt>
      <trkpt lat="37.29041333" lon="-3.56228667">
        <ele>1109.0</ele>
        <time>2022-11-13T12:20:03.000Z</time>
      </trkpt>
      <trkpt lat="37.29042333" lon="-3.56227667">
        <ele>1109.0</ele>
        <time>2022-11-13T12:20:04.000Z</time>
      </trkpt>
      <trkpt lat="37.29043333" lon="-3.562265">
        <ele>1109.0</ele>
        <time>2022-11-13T12:20:05.000Z</time>
      </trkpt>
      <trkpt lat="37.29044167" lon="-3.562255">
        <ele>1109.0</ele>
        <time>2022-11-13T12:20:06.000Z</time>
      </trkpt>
      <trkpt lat="37.29045167" lon="-3.56224333">
        <ele>1109.0</ele>
        <time>2022-11-13T12:20:07.000Z</time>
      </trkpt>
      <trkpt lat="37.29046" lon="-3.56223333">
        <ele>1109.0</ele>
        <time>2022-11-13T12:20:08.000Z</time>
      </trkpt>
      <trkpt lat="37.29046833" lon="-3.56222">
        <ele>1109.0</ele>
        <time>2022-11-13T12:20:09.000Z</time>
      </trkpt>
      <trkpt lat="37.29047833" lon="-3.56220667">
        <ele>1109.0</ele>
        <time>2022-11-13T12:20:10.000Z</time>
      </trkpt>
      <trkpt lat="37.290485" lon="-3.56219167">
        <ele>1109.0</ele>
        <time>2022-11-13T12:20:11.000Z</time>
      </trkpt>
      <trkpt lat="37.29049167" lon="-3.56218">
        <ele>1109.0</ele>
        <time>2022-11-13T12:20:12.000Z</time>
      </trkpt>
      <trkpt lat="37.29049833" lon="-3.56216667">
        <ele>1109.0</ele>
        <time>2022-11-13T12:20:13.000Z</time>
      </trkpt>
      <trkpt lat="37.29050667" lon="-3.562155">
        <ele>1109.0</ele>
        <time>2022-11-13T12:20:14.000Z</time>
      </trkpt>
      <trkpt lat="37.290515" lon="-3.56214">
        <ele>1109.0</ele>
        <time>2022-11-13T12:20:15.000Z</time>
      </trkpt>
      <trkpt lat="37.29052167" lon="-3.56212667">
        <ele>1108.0</ele>
        <time>2022-11-13T12:20:16.000Z</time>
      </trkpt>
      <trkpt lat="37.29053" lon="-3.56211333">
        <ele>1108.0</ele>
        <time>2022-11-13T12:20:17.000Z</time>
      </trkpt>
      <trkpt lat="37.29053667" lon="-3.56209833">
        <ele>1108.0</ele>
        <time>2022-11-13T12:20:18.000Z</time>
      </trkpt>
      <trkpt lat="37.290545" lon="-3.562085">
        <ele>1108.0</ele>
        <time>2022-11-13T12:20:19.000Z</time>
      </trkpt>
      <trkpt lat="37.29055167" lon="-3.56207167">
        <ele>1108.0</ele>
        <time>2022-11-13T12:20:20.000Z</time>
      </trkpt>
      <trkpt lat="37.29055833" lon="-3.56205667">
        <ele>1108.0</ele>
        <time>2022-11-13T12:20:21.000Z</time>
      </trkpt>
      <trkpt lat="37.290565" lon="-3.56204167">
        <ele>1108.0</ele>
        <time>2022-11-13T12:20:22.000Z</time>
      </trkpt>
      <trkpt lat="37.29057167" lon="-3.56202667">
        <ele>1108.0</ele>
        <time>2022-11-13T12:20:23.000Z</time>
      </trkpt>
      <trkpt lat="37.29057833" lon="-3.56201167">
        <ele>1108.0</ele>
        <time>2022-11-13T12:20:24.000Z</time>
      </trkpt>
      <trkpt lat="37.290585" lon="-3.56199667">
        <ele>1108.0</ele>
        <time>2022-11-13T12:20:25.000Z</time>
      </trkpt>
      <trkpt lat="37.29059167" lon="-3.56198333">
        <ele>1108.0</ele>
        <time>2022-11-13T12:20:26.000Z</time>
      </trkpt>
      <trkpt lat="37.29059667" lon="-3.56196833">
        <ele>1108.0</ele>
        <time>2022-11-13T12:20:27.000Z</time>
      </trkpt>
      <trkpt lat="37.29060333" lon="-3.56195333">
        <ele>1108.0</ele>
        <time>2022-11-13T12:20:28.000Z</time>
      </trkpt>
      <trkpt lat="37.29061" lon="-3.56193833">
        <ele>1108.0</ele>
        <time>2022-11-13T12:20:29.000Z</time>
      </trkpt>
      <trkpt lat="37.29061667" lon="-3.56192333">
        <ele>1108.0</ele>
        <time>2022-11-13T12:20:30.000Z</time>
      </trkpt>
      <trkpt lat="37.29062667" lon="-3.56190667">
        <ele>1108.0</ele>
        <time>2022-11-13T12:20:31.000Z</time>
      </trkpt>
      <trkpt lat="37.29063667" lon="-3.56189167">
        <ele>1108.0</ele>
        <time>2022-11-13T12:20:32.000Z</time>
      </trkpt>
      <trkpt lat="37.290645" lon="-3.56187667">
        <ele>1109.0</ele>
        <time>2022-11-13T12:20:33.000Z</time>
      </trkpt>
      <trkpt lat="37.29065333" lon="-3.56186167">
        <ele>1109.0</ele>
        <time>2022-11-13T12:20:34.000Z</time>
      </trkpt>
      <trkpt lat="37.29066167" lon="-3.56185">
        <ele>1109.0</ele>
        <time>2022-11-13T12:20:35.000Z</time>
      </trkpt>
      <trkpt lat="37.29067" lon="-3.56183833">
        <ele>1109.0</ele>
        <time>2022-11-13T12:20:36.000Z</time>
      </trkpt>
      <trkpt lat="37.29067833" lon="-3.56182667">
        <ele>1109.0</ele>
        <time>2022-11-13T12:20:37.000Z</time>
      </trkpt>
      <trkpt lat="37.29068833" lon="-3.56181333">
        <ele>1109.0</ele>
        <time>2022-11-13T12:20:38.000Z</time>
      </trkpt>
      <trkpt lat="37.290695" lon="-3.56179667">
        <ele>1109.0</ele>
        <time>2022-11-13T12:20:39.000Z</time>
      </trkpt>
      <trkpt lat="37.29070167" lon="-3.56178">
        <ele>1109.0</ele>
        <time>2022-11-13T12:20:40.000Z</time>
      </trkpt>
      <trkpt lat="37.29070833" lon="-3.561765">
        <ele>1109.0</ele>
        <time>2022-11-13T12:20:41.000Z</time>
      </trkpt>
      <trkpt lat="37.29071667" lon="-3.56175167">
        <ele>1109.0</ele>
        <time>2022-11-13T12:20:42.000Z</time>
      </trkpt>
      <trkpt lat="37.290725" lon="-3.56174">
        <ele>1109.0</ele>
        <time>2022-11-13T12:20:43.000Z</time>
      </trkpt>
      <trkpt lat="37.29073333" lon="-3.56172833">
        <ele>1109.0</ele>
        <time>2022-11-13T12:20:44.000Z</time>
      </trkpt>
      <trkpt lat="37.29074167" lon="-3.561715">
        <ele>1109.0</ele>
        <time>2022-11-13T12:20:45.000Z</time>
      </trkpt>
      <trkpt lat="37.29075" lon="-3.561705">
        <ele>1109.0</ele>
        <time>2022-11-13T12:20:46.000Z</time>
      </trkpt>
      <trkpt lat="37.29075833" lon="-3.56169333">
        <ele>1109.0</ele>
        <time>2022-11-13T12:20:47.000Z</time>
      </trkpt>
      <trkpt lat="37.29076667" lon="-3.561685">
        <ele>1108.0</ele>
        <time>2022-11-13T12:20:48.000Z</time>
      </trkpt>
      <trkpt lat="37.29077333" lon="-3.561675">
        <ele>1108.0</ele>
        <time>2022-11-13T12:20:49.000Z</time>
      </trkpt>
      <trkpt lat="37.29078167" lon="-3.56166167">
        <ele>1108.0</ele>
        <time>2022-11-13T12:20:50.000Z</time>
      </trkpt>
      <trkpt lat="37.29078833" lon="-3.56164667">
        <ele>1108.0</ele>
        <time>2022-11-13T12:20:51.000Z</time>
      </trkpt>
      <trkpt lat="37.290795" lon="-3.56163333">
        <ele>1108.0</ele>
        <time>2022-11-13T12:20:52.000Z</time>
      </trkpt>
      <trkpt lat="37.29080333" lon="-3.56161833">
        <ele>1108.0</ele>
        <time>2022-11-13T12:20:53.000Z</time>
      </trkpt>
      <trkpt lat="37.29081" lon="-3.56160667">
        <ele>1108.0</ele>
        <time>2022-11-13T12:20:54.000Z</time>
      </trkpt>
      <trkpt lat="37.290815" lon="-3.56159167">
        <ele>1108.0</ele>
        <time>2022-11-13T12:20:55.000Z</time>
      </trkpt>
      <trkpt lat="37.29082167" lon="-3.56157667">
        <ele>1108.0</ele>
        <time>2022-11-13T12:20:56.000Z</time>
      </trkpt>
      <trkpt lat="37.29082833" lon="-3.561565">
        <ele>1108.0</ele>
        <time>2022-11-13T12:20:57.000Z</time>
      </trkpt>
      <trkpt lat="37.290835" lon="-3.56155333">
        <ele>1108.0</ele>
        <time>2022-11-13T12:20:58.000Z</time>
      </trkpt>
      <trkpt lat="37.29084167" lon="-3.56154">
        <ele>1108.0</ele>
        <time>2022-11-13T12:20:59.000Z</time>
      </trkpt>
      <trkpt lat="37.29085" lon="-3.56152667">
        <ele>1108.0</ele>
        <time>2022-11-13T12:21:00.000Z</time>
      </trkpt>
      <trkpt lat="37.29085667" lon="-3.56151333">
        <ele>1108.0</ele>
        <time>2022-11-13T12:21:01.000Z</time>
      </trkpt>
      <trkpt lat="37.29086167" lon="-3.5615">
        <ele>1108.0</ele>
        <time>2022-11-13T12:21:02.000Z</time>
      </trkpt>
      <trkpt lat="37.29087" lon="-3.56148667">
        <ele>1108.0</ele>
        <time>2022-11-13T12:21:03.000Z</time>
      </trkpt>
      <trkpt lat="37.290875" lon="-3.56147333">
        <ele>1108.0</ele>
        <time>2022-11-13T12:21:04.000Z</time>
      </trkpt>
      <trkpt lat="37.29088333" lon="-3.56146333">
        <ele>1108.0</ele>
        <time>2022-11-13T12:21:05.000Z</time>
      </trkpt>
      <trkpt lat="37.29088833" lon="-3.56145">
        <ele>1108.0</ele>
        <time>2022-11-13T12:21:06.000Z</time>
      </trkpt>
      <trkpt lat="37.29089333" lon="-3.56143833">
        <ele>1108.0</ele>
        <time>2022-11-13T12:21:07.000Z</time>
      </trkpt>
      <trkpt lat="37.29089833" lon="-3.56142667">
        <ele>1108.0</ele>
        <time>2022-11-13T12:21:08.000Z</time>
      </trkpt>
      <trkpt lat="37.29090333" lon="-3.561415">
        <ele>1108.0</ele>
        <time>2022-11-13T12:21:09.000Z</time>
      </trkpt>
      <trkpt lat="37.29090833" lon="-3.561405">
        <ele>1108.0</ele>
        <time>2022-11-13T12:21:10.000Z</time>
      </trkpt>
      <trkpt lat="37.290915" lon="-3.56139167">
        <ele>1108.0</ele>
        <time>2022-11-13T12:21:11.000Z</time>
      </trkpt>
      <trkpt lat="37.29092" lon="-3.56138333">
        <ele>1108.0</ele>
        <time>2022-11-13T12:21:12.000Z</time>
      </trkpt>
      <trkpt lat="37.29092167" lon="-3.561375">
        <ele>1108.0</ele>
        <time>2022-11-13T12:21:13.000Z</time>
      </trkpt>
      <trkpt lat="37.29092667" lon="-3.56136667">
        <ele>1108.0</ele>
        <time>2022-11-13T12:21:14.000Z</time>
      </trkpt>
      <trkpt lat="37.29093333" lon="-3.56135833">
        <ele>1108.0</ele>
        <time>2022-11-13T12:21:15.000Z</time>
      </trkpt>
      <trkpt lat="37.29094" lon="-3.56134667">
        <ele>1108.0</ele>
        <time>2022-11-13T12:21:16.000Z</time>
      </trkpt>
      <trkpt lat="37.29094667" lon="-3.561335">
        <ele>1108.0</ele>
        <time>2022-11-13T12:21:17.000Z</time>
      </trkpt>
      <trkpt lat="37.29095167" lon="-3.56132167">
        <ele>1108.0</ele>
        <time>2022-11-13T12:21:18.000Z</time>
      </trkpt>
      <trkpt lat="37.29095833" lon="-3.56130833">
        <ele>1108.0</ele>
        <time>2022-11-13T12:21:19.000Z</time>
      </trkpt>
      <trkpt lat="37.29096333" lon="-3.561295">
        <ele>1108.0</ele>
        <time>2022-11-13T12:21:20.000Z</time>
      </trkpt>
      <trkpt lat="37.29096833" lon="-3.56128333">
        <ele>1108.0</ele>
        <time>2022-11-13T12:21:21.000Z</time>
      </trkpt>
      <trkpt lat="37.29097333" lon="-3.56127167">
        <ele>1108.0</ele>
        <time>2022-11-13T12:21:22.000Z</time>
      </trkpt>
      <trkpt lat="37.29097667" lon="-3.56125833">
        <ele>1108.0</ele>
        <time>2022-11-13T12:21:23.000Z</time>
      </trkpt>
      <trkpt lat="37.29098167" lon="-3.56124667">
        <ele>1108.0</ele>
        <time>2022-11-13T12:21:24.000Z</time>
      </trkpt>
      <trkpt lat="37.29098667" lon="-3.56123333">
        <ele>1108.0</ele>
        <time>2022-11-13T12:21:25.000Z</time>
      </trkpt>
      <trkpt lat="37.29099" lon="-3.56122">
        <ele>1108.0</ele>
        <time>2022-11-13T12:21:26.000Z</time>
      </trkpt>
      <trkpt lat="37.29099333" lon="-3.56120667">
        <ele>1108.0</ele>
        <time>2022-11-13T12:21:27.000Z</time>
      </trkpt>
      <trkpt lat="37.29099667" lon="-3.56119333">
        <ele>1108.0</ele>
        <time>2022-11-13T12:21:28.000Z</time>
      </trkpt>
      <trkpt lat="37.291" lon="-3.56117667">
        <ele>1108.0</ele>
        <time>2022-11-13T12:21:29.000Z</time>
      </trkpt>
      <trkpt lat="37.291005" lon="-3.56116167">
        <ele>1108.0</ele>
        <time>2022-11-13T12:21:30.000Z</time>
      </trkpt>
      <trkpt lat="37.29101" lon="-3.56114667">
        <ele>1108.0</ele>
        <time>2022-11-13T12:21:31.000Z</time>
      </trkpt>
      <trkpt lat="37.291015" lon="-3.561135">
        <ele>1108.0</ele>
        <time>2022-11-13T12:21:32.000Z</time>
      </trkpt>
      <trkpt lat="37.29102" lon="-3.56112333">
        <ele>1108.0</ele>
        <time>2022-11-13T12:21:33.000Z</time>
      </trkpt>
      <trkpt lat="37.29102833" lon="-3.56111">
        <ele>1108.0</ele>
        <time>2022-11-13T12:21:34.000Z</time>
      </trkpt>
      <trkpt lat="37.29103833" lon="-3.56109667">
        <ele>1108.0</ele>
        <time>2022-11-13T12:21:35.000Z</time>
      </trkpt>
      <trkpt lat="37.29105167" lon="-3.561085">
        <ele>1109.0</ele>
        <time>2022-11-13T12:21:36.000Z</time>
      </trkpt>
      <trkpt lat="37.29106167" lon="-3.561075">
        <ele>1109.0</ele>
        <time>2022-11-13T12:21:37.000Z</time>
      </trkpt>
      <trkpt lat="37.29107" lon="-3.56106833">
        <ele>1109.0</ele>
        <time>2022-11-13T12:21:38.000Z</time>
      </trkpt>
      <trkpt lat="37.29108" lon="-3.56106167">
        <ele>1109.0</ele>
        <time>2022-11-13T12:21:39.000Z</time>
      </trkpt>
      <trkpt lat="37.29109167" lon="-3.56105667">
        <ele>1109.0</ele>
        <time>2022-11-13T12:21:40.000Z</time>
      </trkpt>
      <trkpt lat="37.2911" lon="-3.56105167">
        <ele>1109.0</ele>
        <time>2022-11-13T12:21:41.000Z</time>
      </trkpt>
      <trkpt lat="37.29111" lon="-3.56104833">
        <ele>1109.0</ele>
        <time>2022-11-13T12:21:42.000Z</time>
      </trkpt>
      <trkpt lat="37.29112" lon="-3.561045">
        <ele>1109.0</ele>
        <time>2022-11-13T12:21:43.000Z</time>
      </trkpt>
      <trkpt lat="37.29113167" lon="-3.56104">
        <ele>1110.0</ele>
        <time>2022-11-13T12:21:44.000Z</time>
      </trkpt>
      <trkpt lat="37.29114" lon="-3.56103667">
        <ele>1110.0</ele>
        <time>2022-11-13T12:21:45.000Z</time>
      </trkpt>
      <trkpt lat="37.29115" lon="-3.56103333">
        <ele>1110.0</ele>
        <time>2022-11-13T12:21:46.000Z</time>
      </trkpt>
      <trkpt lat="37.29116167" lon="-3.56103">
        <ele>1110.0</ele>
        <time>2022-11-13T12:21:47.000Z</time>
      </trkpt>
      <trkpt lat="37.29117333" lon="-3.56102667">
        <ele>1110.0</ele>
        <time>2022-11-13T12:21:48.000Z</time>
      </trkpt>
      <trkpt lat="37.29118333" lon="-3.56102333">
        <ele>1110.0</ele>
        <time>2022-11-13T12:21:49.000Z</time>
      </trkpt>
      <trkpt lat="37.29119333" lon="-3.56102">
        <ele>1110.0</ele>
        <time>2022-11-13T12:21:50.000Z</time>
      </trkpt>
      <trkpt lat="37.291205" lon="-3.56101667">
        <ele>1110.0</ele>
        <time>2022-11-13T12:21:51.000Z</time>
      </trkpt>
      <trkpt lat="37.29121667" lon="-3.56101167">
        <ele>1110.0</ele>
        <time>2022-11-13T12:21:52.000Z</time>
      </trkpt>
      <trkpt lat="37.29122833" lon="-3.56100667">
        <ele>1110.0</ele>
        <time>2022-11-13T12:21:53.000Z</time>
      </trkpt>
      <trkpt lat="37.29124" lon="-3.56100167">
        <ele>1110.0</ele>
        <time>2022-11-13T12:21:54.000Z</time>
      </trkpt>
      <trkpt lat="37.29125" lon="-3.56099667">
        <ele>1110.0</ele>
        <time>2022-11-13T12:21:55.000Z</time>
      </trkpt>
      <trkpt lat="37.29126167" lon="-3.56099333">
        <ele>1110.0</ele>
        <time>2022-11-13T12:21:56.000Z</time>
      </trkpt>
      <trkpt lat="37.29127333" lon="-3.56098833">
        <ele>1111.0</ele>
        <time>2022-11-13T12:21:57.000Z</time>
      </trkpt>
      <trkpt lat="37.29128333" lon="-3.56098167">
        <ele>1111.0</ele>
        <time>2022-11-13T12:21:58.000Z</time>
      </trkpt>
      <trkpt lat="37.29129167" lon="-3.56097667">
        <ele>1111.0</ele>
        <time>2022-11-13T12:21:59.000Z</time>
      </trkpt>
      <trkpt lat="37.29129833" lon="-3.56097167">
        <ele>1111.0</ele>
        <time>2022-11-13T12:22:00.000Z</time>
      </trkpt>
      <trkpt lat="37.29130333" lon="-3.56097">
        <ele>1111.0</ele>
        <time>2022-11-13T12:22:01.000Z</time>
      </trkpt>
      <trkpt lat="37.29131" lon="-3.56097">
        <ele>1111.0</ele>
        <time>2022-11-13T12:22:02.000Z</time>
      </trkpt>
      <trkpt lat="37.29131833" lon="-3.56096833">
        <ele>1111.0</ele>
        <time>2022-11-13T12:22:03.000Z</time>
      </trkpt>
      <trkpt lat="37.29132833" lon="-3.56096167">
        <ele>1111.0</ele>
        <time>2022-11-13T12:22:04.000Z</time>
      </trkpt>
      <trkpt lat="37.29133833" lon="-3.560955">
        <ele>1111.0</ele>
        <time>2022-11-13T12:22:05.000Z</time>
      </trkpt>
      <trkpt lat="37.29134833" lon="-3.56094667">
        <ele>1111.0</ele>
        <time>2022-11-13T12:22:06.000Z</time>
      </trkpt>
      <trkpt lat="37.29135833" lon="-3.56093667">
        <ele>1111.0</ele>
        <time>2022-11-13T12:22:07.000Z</time>
      </trkpt>
      <trkpt lat="37.29137" lon="-3.56092833">
        <ele>1111.0</ele>
        <time>2022-11-13T12:22:08.000Z</time>
      </trkpt>
      <trkpt lat="37.29137833" lon="-3.56092">
        <ele>1111.0</ele>
        <time>2022-11-13T12:22:09.000Z</time>
      </trkpt>
      <trkpt lat="37.29139" lon="-3.56091333">
        <ele>1111.0</ele>
        <time>2022-11-13T12:22:10.000Z</time>
      </trkpt>
      <trkpt lat="37.2914" lon="-3.560905">
        <ele>1111.0</ele>
        <time>2022-11-13T12:22:11.000Z</time>
      </trkpt>
      <trkpt lat="37.29140833" lon="-3.56089667">
        <ele>1112.0</ele>
        <time>2022-11-13T12:22:12.000Z</time>
      </trkpt>
      <trkpt lat="37.29141667" lon="-3.56089167">
        <ele>1112.0</ele>
        <time>2022-11-13T12:22:13.000Z</time>
      </trkpt>
      <trkpt lat="37.291425" lon="-3.560885">
        <ele>1112.0</ele>
        <time>2022-11-13T12:22:14.000Z</time>
      </trkpt>
      <trkpt lat="37.29143333" lon="-3.56087833">
        <ele>1112.0</ele>
        <time>2022-11-13T12:22:15.000Z</time>
      </trkpt>
      <trkpt lat="37.29144" lon="-3.56087167">
        <ele>1112.0</ele>
        <time>2022-11-13T12:22:16.000Z</time>
      </trkpt>
      <trkpt lat="37.29144667" lon="-3.56086333">
        <ele>1112.0</ele>
        <time>2022-11-13T12:22:17.000Z</time>
      </trkpt>
      <trkpt lat="37.291455" lon="-3.56085667">
        <ele>1112.0</ele>
        <time>2022-11-13T12:22:18.000Z</time>
      </trkpt>
      <trkpt lat="37.29146333" lon="-3.56084833">
        <ele>1112.0</ele>
        <time>2022-11-13T12:22:19.000Z</time>
      </trkpt>
      <trkpt lat="37.29147333" lon="-3.56083833">
        <ele>1112.0</ele>
        <time>2022-11-13T12:22:20.000Z</time>
      </trkpt>
      <trkpt lat="37.29148167" lon="-3.56083">
        <ele>1112.0</ele>
        <time>2022-11-13T12:22:21.000Z</time>
      </trkpt>
      <trkpt lat="37.29148833" lon="-3.56082167">
        <ele>1112.0</ele>
        <time>2022-11-13T12:22:22.000Z</time>
      </trkpt>
      <trkpt lat="37.29149667" lon="-3.56081333">
        <ele>1112.0</ele>
        <time>2022-11-13T12:22:23.000Z</time>
      </trkpt>
      <trkpt lat="37.291505" lon="-3.560805">
        <ele>1112.0</ele>
        <time>2022-11-13T12:22:24.000Z</time>
      </trkpt>
      <trkpt lat="37.291515" lon="-3.56079833">
        <ele>1112.0</ele>
        <time>2022-11-13T12:22:25.000Z</time>
      </trkpt>
      <trkpt lat="37.29152333" lon="-3.56079">
        <ele>1112.0</ele>
        <time>2022-11-13T12:22:26.000Z</time>
      </trkpt>
      <trkpt lat="37.29153" lon="-3.56078167">
        <ele>1113.0</ele>
        <time>2022-11-13T12:22:27.000Z</time>
      </trkpt>
      <trkpt lat="37.29153833" lon="-3.56077167">
        <ele>1113.0</ele>
        <time>2022-11-13T12:22:28.000Z</time>
      </trkpt>
      <trkpt lat="37.29154667" lon="-3.56076167">
        <ele>1113.0</ele>
        <time>2022-11-13T12:22:29.000Z</time>
      </trkpt>
      <trkpt lat="37.291555" lon="-3.56075333">
        <ele>1113.0</ele>
        <time>2022-11-13T12:22:30.000Z</time>
      </trkpt>
      <trkpt lat="37.29156333" lon="-3.56074333">
        <ele>1113.0</ele>
        <time>2022-11-13T12:22:31.000Z</time>
      </trkpt>
      <trkpt lat="37.29157167" lon="-3.56073333">
        <ele>1113.0</ele>
        <time>2022-11-13T12:22:32.000Z</time>
      </trkpt>
      <trkpt lat="37.29158167" lon="-3.56072167">
        <ele>1113.0</ele>
        <time>2022-11-13T12:22:33.000Z</time>
      </trkpt>
      <trkpt lat="37.29159167" lon="-3.56071167">
        <ele>1113.0</ele>
        <time>2022-11-13T12:22:34.000Z</time>
      </trkpt>
      <trkpt lat="37.29160333" lon="-3.5607">
        <ele>1113.0</ele>
        <time>2022-11-13T12:22:35.000Z</time>
      </trkpt>
      <trkpt lat="37.29161333" lon="-3.56069">
        <ele>1113.0</ele>
        <time>2022-11-13T12:22:36.000Z</time>
      </trkpt>
      <trkpt lat="37.291625" lon="-3.56067833">
        <ele>1113.0</ele>
        <time>2022-11-13T12:22:37.000Z</time>
      </trkpt>
      <trkpt lat="37.29163667" lon="-3.56067">
        <ele>1113.0</ele>
        <time>2022-11-13T12:22:38.000Z</time>
      </trkpt>
      <trkpt lat="37.29165" lon="-3.560665">
        <ele>1113.0</ele>
        <time>2022-11-13T12:22:39.000Z</time>
      </trkpt>
      <trkpt lat="37.29166333" lon="-3.56065833">
        <ele>1113.0</ele>
        <time>2022-11-13T12:22:40.000Z</time>
      </trkpt>
      <trkpt lat="37.29167667" lon="-3.56065333">
        <ele>1114.0</ele>
        <time>2022-11-13T12:22:41.000Z</time>
      </trkpt>
      <trkpt lat="37.29169" lon="-3.56064833">
        <ele>1114.0</ele>
        <time>2022-11-13T12:22:42.000Z</time>
      </trkpt>
      <trkpt lat="37.29170167" lon="-3.56064167">
        <ele>1114.0</ele>
        <time>2022-11-13T12:22:43.000Z</time>
      </trkpt>
      <trkpt lat="37.291715" lon="-3.56063667">
        <ele>1114.0</ele>
        <time>2022-11-13T12:22:44.000Z</time>
      </trkpt>
      <trkpt lat="37.29172833" lon="-3.56062833">
        <ele>1114.0</ele>
        <time>2022-11-13T12:22:45.000Z</time>
      </trkpt>
      <trkpt lat="37.29174333" lon="-3.56062167">
        <ele>1114.0</ele>
        <time>2022-11-13T12:22:46.000Z</time>
      </trkpt>
      <trkpt lat="37.29175667" lon="-3.560615">
        <ele>1114.0</ele>
        <time>2022-11-13T12:22:47.000Z</time>
      </trkpt>
      <trkpt lat="37.29176833" lon="-3.56060833">
        <ele>1114.0</ele>
        <time>2022-11-13T12:22:48.000Z</time>
      </trkpt>
      <trkpt lat="37.29178167" lon="-3.5606">
        <ele>1114.0</ele>
        <time>2022-11-13T12:22:49.000Z</time>
      </trkpt>
      <trkpt lat="37.29179333" lon="-3.56059333">
        <ele>1114.0</ele>
        <time>2022-11-13T12:22:50.000Z</time>
      </trkpt>
      <trkpt lat="37.291805" lon="-3.560585">
        <ele>1114.0</ele>
        <time>2022-11-13T12:22:51.000Z</time>
      </trkpt>
      <trkpt lat="37.29181667" lon="-3.560575">
        <ele>1115.0</ele>
        <time>2022-11-13T12:22:52.000Z</time>
      </trkpt>
      <trkpt lat="37.29182833" lon="-3.560565">
        <ele>1115.0</ele>
        <time>2022-11-13T12:22:53.000Z</time>
      </trkpt>
      <trkpt lat="37.29183833" lon="-3.560555">
        <ele>1115.0</ele>
        <time>2022-11-13T12:22:54.000Z</time>
      </trkpt>
      <trkpt lat="37.29185167" lon="-3.56054667">
        <ele>1115.0</ele>
        <time>2022-11-13T12:22:55.000Z</time>
      </trkpt>
      <trkpt lat="37.29186333" lon="-3.56053667">
        <ele>1115.0</ele>
        <time>2022-11-13T12:22:56.000Z</time>
      </trkpt>
      <trkpt lat="37.291875" lon="-3.56052833">
        <ele>1115.0</ele>
        <time>2022-11-13T12:22:57.000Z</time>
      </trkpt>
      <trkpt lat="37.29188833" lon="-3.56052">
        <ele>1116.0</ele>
        <time>2022-11-13T12:22:58.000Z</time>
      </trkpt>
      <trkpt lat="37.2919" lon="-3.56051">
        <ele>1116.0</ele>
        <time>2022-11-13T12:22:59.000Z</time>
      </trkpt>
      <trkpt lat="37.29191167" lon="-3.56050333">
        <ele>1116.0</ele>
        <time>2022-11-13T12:23:00.000Z</time>
      </trkpt>
      <trkpt lat="37.29192333" lon="-3.560495">
        <ele>1116.0</ele>
        <time>2022-11-13T12:23:01.000Z</time>
      </trkpt>
      <trkpt lat="37.29193333" lon="-3.560485">
        <ele>1116.0</ele>
        <time>2022-11-13T12:23:02.000Z</time>
      </trkpt>
      <trkpt lat="37.291945" lon="-3.56047667">
        <ele>1116.0</ele>
        <time>2022-11-13T12:23:03.000Z</time>
      </trkpt>
      <trkpt lat="37.291955" lon="-3.56046667">
        <ele>1117.0</ele>
        <time>2022-11-13T12:23:04.000Z</time>
      </trkpt>
      <trkpt lat="37.29196667" lon="-3.56045833">
        <ele>1117.0</ele>
        <time>2022-11-13T12:23:05.000Z</time>
      </trkpt>
      <trkpt lat="37.29197667" lon="-3.56044833">
        <ele>1117.0</ele>
        <time>2022-11-13T12:23:06.000Z</time>
      </trkpt>
      <trkpt lat="37.29198833" lon="-3.56043833">
        <ele>1117.0</ele>
        <time>2022-11-13T12:23:07.000Z</time>
      </trkpt>
      <trkpt lat="37.292" lon="-3.56042833">
        <ele>1117.0</ele>
        <time>2022-11-13T12:23:08.000Z</time>
      </trkpt>
      <trkpt lat="37.29201167" lon="-3.56042">
        <ele>1117.0</ele>
        <time>2022-11-13T12:23:09.000Z</time>
      </trkpt>
      <trkpt lat="37.29202333" lon="-3.56041">
        <ele>1118.0</ele>
        <time>2022-11-13T12:23:10.000Z</time>
      </trkpt>
      <trkpt lat="37.292035" lon="-3.5604">
        <ele>1118.0</ele>
        <time>2022-11-13T12:23:11.000Z</time>
      </trkpt>
      <trkpt lat="37.292045" lon="-3.56039">
        <ele>1118.0</ele>
        <time>2022-11-13T12:23:12.000Z</time>
      </trkpt>
      <trkpt lat="37.29205667" lon="-3.56038167">
        <ele>1118.0</ele>
        <time>2022-11-13T12:23:13.000Z</time>
      </trkpt>
      <trkpt lat="37.29206667" lon="-3.56037333">
        <ele>1118.0</ele>
        <time>2022-11-13T12:23:14.000Z</time>
      </trkpt>
      <trkpt lat="37.29207833" lon="-3.56036333">
        <ele>1118.0</ele>
        <time>2022-11-13T12:23:15.000Z</time>
      </trkpt>
      <trkpt lat="37.29208833" lon="-3.56035333">
        <ele>1118.0</ele>
        <time>2022-11-13T12:23:16.000Z</time>
      </trkpt>
      <trkpt lat="37.2921" lon="-3.560345">
        <ele>1118.0</ele>
        <time>2022-11-13T12:23:17.000Z</time>
      </trkpt>
      <trkpt lat="37.29211" lon="-3.56033667">
        <ele>1118.0</ele>
        <time>2022-11-13T12:23:18.000Z</time>
      </trkpt>
      <trkpt lat="37.29212167" lon="-3.56032833">
        <ele>1118.0</ele>
        <time>2022-11-13T12:23:19.000Z</time>
      </trkpt>
      <trkpt lat="37.29213333" lon="-3.56031833">
        <ele>1119.0</ele>
        <time>2022-11-13T12:23:20.000Z</time>
      </trkpt>
      <trkpt lat="37.292145" lon="-3.56031">
        <ele>1119.0</ele>
        <time>2022-11-13T12:23:21.000Z</time>
      </trkpt>
      <trkpt lat="37.29215833" lon="-3.56030167">
        <ele>1119.0</ele>
        <time>2022-11-13T12:23:22.000Z</time>
      </trkpt>
      <trkpt lat="37.29216833" lon="-3.56029333">
        <ele>1119.0</ele>
        <time>2022-11-13T12:23:23.000Z</time>
      </trkpt>
      <trkpt lat="37.29218" lon="-3.560285">
        <ele>1119.0</ele>
        <time>2022-11-13T12:23:24.000Z</time>
      </trkpt>
      <trkpt lat="37.29219167" lon="-3.56027833">
        <ele>1119.0</ele>
        <time>2022-11-13T12:23:25.000Z</time>
      </trkpt>
      <trkpt lat="37.292205" lon="-3.56027167">
        <ele>1119.0</ele>
        <time>2022-11-13T12:23:26.000Z</time>
      </trkpt>
      <trkpt lat="37.292215" lon="-3.560265">
        <ele>1119.0</ele>
        <time>2022-11-13T12:23:27.000Z</time>
      </trkpt>
      <trkpt lat="37.29222667" lon="-3.56025833">
        <ele>1119.0</ele>
        <time>2022-11-13T12:23:28.000Z</time>
      </trkpt>
      <trkpt lat="37.29224" lon="-3.56025167">
        <ele>1119.0</ele>
        <time>2022-11-13T12:23:29.000Z</time>
      </trkpt>
      <trkpt lat="37.29225333" lon="-3.560245">
        <ele>1119.0</ele>
        <time>2022-11-13T12:23:30.000Z</time>
      </trkpt>
      <trkpt lat="37.292265" lon="-3.56023833">
        <ele>1119.0</ele>
        <time>2022-11-13T12:23:31.000Z</time>
      </trkpt>
      <trkpt lat="37.29227833" lon="-3.56023333">
        <ele>1119.0</ele>
        <time>2022-11-13T12:23:32.000Z</time>
      </trkpt>
      <trkpt lat="37.29229" lon="-3.56022833">
        <ele>1119.0</ele>
        <time>2022-11-13T12:23:33.000Z</time>
      </trkpt>
      <trkpt lat="37.29230333" lon="-3.56022167">
        <ele>1120.0</ele>
        <time>2022-11-13T12:23:34.000Z</time>
      </trkpt>
      <trkpt lat="37.292315" lon="-3.560215">
        <ele>1120.0</ele>
        <time>2022-11-13T12:23:35.000Z</time>
      </trkpt>
      <trkpt lat="37.292325" lon="-3.56020833">
        <ele>1120.0</ele>
        <time>2022-11-13T12:23:36.000Z</time>
      </trkpt>
      <trkpt lat="37.29233667" lon="-3.56020167">
        <ele>1120.0</ele>
        <time>2022-11-13T12:23:37.000Z</time>
      </trkpt>
      <trkpt lat="37.29234833" lon="-3.56019667">
        <ele>1120.0</ele>
        <time>2022-11-13T12:23:38.000Z</time>
      </trkpt>
      <trkpt lat="37.29236" lon="-3.56019">
        <ele>1120.0</ele>
        <time>2022-11-13T12:23:39.000Z</time>
      </trkpt>
      <trkpt lat="37.29237167" lon="-3.56018333">
        <ele>1120.0</ele>
        <time>2022-11-13T12:23:40.000Z</time>
      </trkpt>
      <trkpt lat="37.29238333" lon="-3.56017833">
        <ele>1120.0</ele>
        <time>2022-11-13T12:23:41.000Z</time>
      </trkpt>
      <trkpt lat="37.292395" lon="-3.56017167">
        <ele>1120.0</ele>
        <time>2022-11-13T12:23:42.000Z</time>
      </trkpt>
      <trkpt lat="37.29240667" lon="-3.560165">
        <ele>1120.0</ele>
        <time>2022-11-13T12:23:43.000Z</time>
      </trkpt>
      <trkpt lat="37.29241833" lon="-3.56015667">
        <ele>1120.0</ele>
        <time>2022-11-13T12:23:44.000Z</time>
      </trkpt>
      <trkpt lat="37.29243" lon="-3.56015">
        <ele>1121.0</ele>
        <time>2022-11-13T12:23:45.000Z</time>
      </trkpt>
      <trkpt lat="37.29244167" lon="-3.56014167">
        <ele>1121.0</ele>
        <time>2022-11-13T12:23:46.000Z</time>
      </trkpt>
      <trkpt lat="37.29245333" lon="-3.56013333">
        <ele>1121.0</ele>
        <time>2022-11-13T12:23:47.000Z</time>
      </trkpt>
      <trkpt lat="37.292465" lon="-3.560125">
        <ele>1121.0</ele>
        <time>2022-11-13T12:23:48.000Z</time>
      </trkpt>
      <trkpt lat="37.292475" lon="-3.56011667">
        <ele>1121.0</ele>
        <time>2022-11-13T12:23:49.000Z</time>
      </trkpt>
      <trkpt lat="37.29248667" lon="-3.56010667">
        <ele>1122.0</ele>
        <time>2022-11-13T12:23:50.000Z</time>
      </trkpt>
      <trkpt lat="37.29249667" lon="-3.56009667">
        <ele>1122.0</ele>
        <time>2022-11-13T12:23:51.000Z</time>
      </trkpt>
      <trkpt lat="37.29250667" lon="-3.56008833">
        <ele>1122.0</ele>
        <time>2022-11-13T12:23:52.000Z</time>
      </trkpt>
      <trkpt lat="37.29251667" lon="-3.56007667">
        <ele>1122.0</ele>
        <time>2022-11-13T12:23:53.000Z</time>
      </trkpt>
      <trkpt lat="37.29252667" lon="-3.56006667">
        <ele>1122.0</ele>
        <time>2022-11-13T12:23:54.000Z</time>
      </trkpt>
      <trkpt lat="37.292535" lon="-3.560055">
        <ele>1122.0</ele>
        <time>2022-11-13T12:23:55.000Z</time>
      </trkpt>
      <trkpt lat="37.29254333" lon="-3.56004333">
        <ele>1122.0</ele>
        <time>2022-11-13T12:23:56.000Z</time>
      </trkpt>
      <trkpt lat="37.29255167" lon="-3.56002833">
        <ele>1122.0</ele>
        <time>2022-11-13T12:23:57.000Z</time>
      </trkpt>
      <trkpt lat="37.29256" lon="-3.560015">
        <ele>1122.0</ele>
        <time>2022-11-13T12:23:58.000Z</time>
      </trkpt>
      <trkpt lat="37.29256667" lon="-3.56">
        <ele>1122.0</ele>
        <time>2022-11-13T12:23:59.000Z</time>
      </trkpt>
      <trkpt lat="37.29257333" lon="-3.55998667">
        <ele>1122.0</ele>
        <time>2022-11-13T12:24:00.000Z</time>
      </trkpt>
      <trkpt lat="37.29258" lon="-3.55997167">
        <ele>1123.0</ele>
        <time>2022-11-13T12:24:01.000Z</time>
      </trkpt>
      <trkpt lat="37.29258667" lon="-3.55995833">
        <ele>1123.0</ele>
        <time>2022-11-13T12:24:02.000Z</time>
      </trkpt>
      <trkpt lat="37.29259333" lon="-3.55994333">
        <ele>1123.0</ele>
        <time>2022-11-13T12:24:03.000Z</time>
      </trkpt>
      <trkpt lat="37.2926" lon="-3.55992667">
        <ele>1123.0</ele>
        <time>2022-11-13T12:24:04.000Z</time>
      </trkpt>
      <trkpt lat="37.29260667" lon="-3.55991167">
        <ele>1123.0</ele>
        <time>2022-11-13T12:24:05.000Z</time>
      </trkpt>
      <trkpt lat="37.29261167" lon="-3.55989667">
        <ele>1123.0</ele>
        <time>2022-11-13T12:24:06.000Z</time>
      </trkpt>
      <trkpt lat="37.29261667" lon="-3.55988167">
        <ele>1123.0</ele>
        <time>2022-11-13T12:24:07.000Z</time>
      </trkpt>
      <trkpt lat="37.29262167" lon="-3.559865">
        <ele>1123.0</ele>
        <time>2022-11-13T12:24:08.000Z</time>
      </trkpt>
      <trkpt lat="37.292625" lon="-3.55984833">
        <ele>1123.0</ele>
        <time>2022-11-13T12:24:09.000Z</time>
      </trkpt>
      <trkpt lat="37.29263167" lon="-3.55983167">
        <ele>1123.0</ele>
        <time>2022-11-13T12:24:10.000Z</time>
      </trkpt>
      <trkpt lat="37.29263667" lon="-3.559815">
        <ele>1123.0</ele>
        <time>2022-11-13T12:24:11.000Z</time>
      </trkpt>
      <trkpt lat="37.29264167" lon="-3.55979833">
        <ele>1123.0</ele>
        <time>2022-11-13T12:24:12.000Z</time>
      </trkpt>
      <trkpt lat="37.29264833" lon="-3.55978">
        <ele>1123.0</ele>
        <time>2022-11-13T12:24:13.000Z</time>
      </trkpt>
      <trkpt lat="37.29265333" lon="-3.559765">
        <ele>1123.0</ele>
        <time>2022-11-13T12:24:14.000Z</time>
      </trkpt>
      <trkpt lat="37.29266" lon="-3.55975167">
        <ele>1123.0</ele>
        <time>2022-11-13T12:24:15.000Z</time>
      </trkpt>
      <trkpt lat="37.29266667" lon="-3.55973833">
        <ele>1123.0</ele>
        <time>2022-11-13T12:24:16.000Z</time>
      </trkpt>
      <trkpt lat="37.29267667" lon="-3.55972333">
        <ele>1123.0</ele>
        <time>2022-11-13T12:24:17.000Z</time>
      </trkpt>
      <trkpt lat="37.29268667" lon="-3.55971">
        <ele>1123.0</ele>
        <time>2022-11-13T12:24:18.000Z</time>
      </trkpt>
      <trkpt lat="37.29269833" lon="-3.559695">
        <ele>1123.0</ele>
        <time>2022-11-13T12:24:19.000Z</time>
      </trkpt>
      <trkpt lat="37.29271167" lon="-3.55968">
        <ele>1123.0</ele>
        <time>2022-11-13T12:24:20.000Z</time>
      </trkpt>
      <trkpt lat="37.29272167" lon="-3.55966667">
        <ele>1123.0</ele>
        <time>2022-11-13T12:24:21.000Z</time>
      </trkpt>
      <trkpt lat="37.29273167" lon="-3.55965333">
        <ele>1123.0</ele>
        <time>2022-11-13T12:24:22.000Z</time>
      </trkpt>
      <trkpt lat="37.29274167" lon="-3.55964167">
        <ele>1123.0</ele>
        <time>2022-11-13T12:24:23.000Z</time>
      </trkpt>
      <trkpt lat="37.29275167" lon="-3.55962833">
        <ele>1123.0</ele>
        <time>2022-11-13T12:24:24.000Z</time>
      </trkpt>
      <trkpt lat="37.29276167" lon="-3.559615">
        <ele>1123.0</ele>
        <time>2022-11-13T12:24:25.000Z</time>
      </trkpt>
      <trkpt lat="37.29277" lon="-3.55960333">
        <ele>1123.0</ele>
        <time>2022-11-13T12:24:26.000Z</time>
      </trkpt>
      <trkpt lat="37.29277833" lon="-3.55959">
        <ele>1123.0</ele>
        <time>2022-11-13T12:24:27.000Z</time>
      </trkpt>
      <trkpt lat="37.292785" lon="-3.55957667">
        <ele>1123.0</ele>
        <time>2022-11-13T12:24:28.000Z</time>
      </trkpt>
      <trkpt lat="37.29279333" lon="-3.55956167">
        <ele>1122.0</ele>
        <time>2022-11-13T12:24:29.000Z</time>
      </trkpt>
      <trkpt lat="37.2928" lon="-3.55954667">
        <ele>1122.0</ele>
        <time>2022-11-13T12:24:30.000Z</time>
      </trkpt>
      <trkpt lat="37.29281" lon="-3.55953167">
        <ele>1122.0</ele>
        <time>2022-11-13T12:24:31.000Z</time>
      </trkpt>
      <trkpt lat="37.29281833" lon="-3.55951833">
        <ele>1122.0</ele>
        <time>2022-11-13T12:24:32.000Z</time>
      </trkpt>
      <trkpt lat="37.29282667" lon="-3.55950333">
        <ele>1122.0</ele>
        <time>2022-11-13T12:24:33.000Z</time>
      </trkpt>
      <trkpt lat="37.292835" lon="-3.55949167">
        <ele>1122.0</ele>
        <time>2022-11-13T12:24:34.000Z</time>
      </trkpt>
      <trkpt lat="37.29284333" lon="-3.55947833">
        <ele>1122.0</ele>
        <time>2022-11-13T12:24:35.000Z</time>
      </trkpt>
      <trkpt lat="37.29285333" lon="-3.559465">
        <ele>1122.0</ele>
        <time>2022-11-13T12:24:36.000Z</time>
      </trkpt>
      <trkpt lat="37.29286167" lon="-3.55945333">
        <ele>1122.0</ele>
        <time>2022-11-13T12:24:37.000Z</time>
      </trkpt>
      <trkpt lat="37.29287" lon="-3.55944333">
        <ele>1122.0</ele>
        <time>2022-11-13T12:24:38.000Z</time>
      </trkpt>
      <trkpt lat="37.29288167" lon="-3.55943167">
        <ele>1123.0</ele>
        <time>2022-11-13T12:24:39.000Z</time>
      </trkpt>
      <trkpt lat="37.29289167" lon="-3.55942167">
        <ele>1123.0</ele>
        <time>2022-11-13T12:24:40.000Z</time>
      </trkpt>
      <trkpt lat="37.29290333" lon="-3.55941167">
        <ele>1123.0</ele>
        <time>2022-11-13T12:24:41.000Z</time>
      </trkpt>
      <trkpt lat="37.29291333" lon="-3.55940333">
        <ele>1123.0</ele>
        <time>2022-11-13T12:24:42.000Z</time>
      </trkpt>
      <trkpt lat="37.292925" lon="-3.55939333">
        <ele>1123.0</ele>
        <time>2022-11-13T12:24:43.000Z</time>
      </trkpt>
      <trkpt lat="37.292935" lon="-3.55938333">
        <ele>1123.0</ele>
        <time>2022-11-13T12:24:44.000Z</time>
      </trkpt>
      <trkpt lat="37.29294667" lon="-3.55937333">
        <ele>1123.0</ele>
        <time>2022-11-13T12:24:45.000Z</time>
      </trkpt>
      <trkpt lat="37.29295667" lon="-3.55936667">
        <ele>1123.0</ele>
        <time>2022-11-13T12:24:46.000Z</time>
      </trkpt>
      <trkpt lat="37.29296833" lon="-3.55935833">
        <ele>1123.0</ele>
        <time>2022-11-13T12:24:47.000Z</time>
      </trkpt>
      <trkpt lat="37.29297833" lon="-3.55934833">
        <ele>1123.0</ele>
        <time>2022-11-13T12:24:48.000Z</time>
      </trkpt>
      <trkpt lat="37.29298833" lon="-3.55933667">
        <ele>1123.0</ele>
        <time>2022-11-13T12:24:49.000Z</time>
      </trkpt>
      <trkpt lat="37.293" lon="-3.55932667">
        <ele>1123.0</ele>
        <time>2022-11-13T12:24:50.000Z</time>
      </trkpt>
      <trkpt lat="37.29301167" lon="-3.559315">
        <ele>1123.0</ele>
        <time>2022-11-13T12:24:51.000Z</time>
      </trkpt>
      <trkpt lat="37.293025" lon="-3.55930167">
        <ele>1123.0</ele>
        <time>2022-11-13T12:24:52.000Z</time>
      </trkpt>
      <trkpt lat="37.29303833" lon="-3.55928667">
        <ele>1123.0</ele>
        <time>2022-11-13T12:24:53.000Z</time>
      </trkpt>
      <trkpt lat="37.29305" lon="-3.559275">
        <ele>1123.0</ele>
        <time>2022-11-13T12:24:54.000Z</time>
      </trkpt>
      <trkpt lat="37.29306167" lon="-3.559265">
        <ele>1123.0</ele>
        <time>2022-11-13T12:24:55.000Z</time>
      </trkpt>
      <trkpt lat="37.29307333" lon="-3.55925333">
        <ele>1123.0</ele>
        <time>2022-11-13T12:24:56.000Z</time>
      </trkpt>
      <trkpt lat="37.293085" lon="-3.55924333">
        <ele>1123.0</ele>
        <time>2022-11-13T12:24:57.000Z</time>
      </trkpt>
      <trkpt lat="37.293095" lon="-3.55923167">
        <ele>1123.0</ele>
        <time>2022-11-13T12:24:58.000Z</time>
      </trkpt>
      <trkpt lat="37.29310667" lon="-3.55922167">
        <ele>1123.0</ele>
        <time>2022-11-13T12:24:59.000Z</time>
      </trkpt>
      <trkpt lat="37.29311833" lon="-3.55921167">
        <ele>1123.0</ele>
        <time>2022-11-13T12:25:00.000Z</time>
      </trkpt>
      <trkpt lat="37.29313" lon="-3.55920167">
        <ele>1123.0</ele>
        <time>2022-11-13T12:25:01.000Z</time>
      </trkpt>
      <trkpt lat="37.29314167" lon="-3.55919167">
        <ele>1123.0</ele>
        <time>2022-11-13T12:25:02.000Z</time>
      </trkpt>
      <trkpt lat="37.29315333" lon="-3.55918167">
        <ele>1123.0</ele>
        <time>2022-11-13T12:25:03.000Z</time>
      </trkpt>
      <trkpt lat="37.293165" lon="-3.55917167">
        <ele>1123.0</ele>
        <time>2022-11-13T12:25:04.000Z</time>
      </trkpt>
      <trkpt lat="37.29317667" lon="-3.55916">
        <ele>1123.0</ele>
        <time>2022-11-13T12:25:05.000Z</time>
      </trkpt>
      <trkpt lat="37.29318833" lon="-3.55915167">
        <ele>1123.0</ele>
        <time>2022-11-13T12:25:06.000Z</time>
      </trkpt>
      <trkpt lat="37.29319833" lon="-3.55914333">
        <ele>1123.0</ele>
        <time>2022-11-13T12:25:07.000Z</time>
      </trkpt>
      <trkpt lat="37.29321167" lon="-3.55913167">
        <ele>1123.0</ele>
        <time>2022-11-13T12:25:08.000Z</time>
      </trkpt>
      <trkpt lat="37.29322333" lon="-3.55912">
        <ele>1123.0</ele>
        <time>2022-11-13T12:25:09.000Z</time>
      </trkpt>
      <trkpt lat="37.29323333" lon="-3.55911167">
        <ele>1123.0</ele>
        <time>2022-11-13T12:25:10.000Z</time>
      </trkpt>
      <trkpt lat="37.29324333" lon="-3.55910167">
        <ele>1123.0</ele>
        <time>2022-11-13T12:25:11.000Z</time>
      </trkpt>
      <trkpt lat="37.293255" lon="-3.55909167">
        <ele>1123.0</ele>
        <time>2022-11-13T12:25:12.000Z</time>
      </trkpt>
      <trkpt lat="37.29326333" lon="-3.55908">
        <ele>1123.0</ele>
        <time>2022-11-13T12:25:13.000Z</time>
      </trkpt>
      <trkpt lat="37.293275" lon="-3.55906833">
        <ele>1123.0</ele>
        <time>2022-11-13T12:25:14.000Z</time>
      </trkpt>
      <trkpt lat="37.293285" lon="-3.55905667">
        <ele>1123.0</ele>
        <time>2022-11-13T12:25:15.000Z</time>
      </trkpt>
      <trkpt lat="37.29329333" lon="-3.559045">
        <ele>1123.0</ele>
        <time>2022-11-13T12:25:16.000Z</time>
      </trkpt>
      <trkpt lat="37.29330333" lon="-3.55903167">
        <ele>1123.0</ele>
        <time>2022-11-13T12:25:17.000Z</time>
      </trkpt>
      <trkpt lat="37.29331167" lon="-3.55901833">
        <ele>1123.0</ele>
        <time>2022-11-13T12:25:18.000Z</time>
      </trkpt>
      <trkpt lat="37.29332" lon="-3.55900667">
        <ele>1123.0</ele>
        <time>2022-11-13T12:25:19.000Z</time>
      </trkpt>
      <trkpt lat="37.29332667" lon="-3.55899333">
        <ele>1123.0</ele>
        <time>2022-11-13T12:25:20.000Z</time>
      </trkpt>
      <trkpt lat="37.293335" lon="-3.55898">
        <ele>1123.0</ele>
        <time>2022-11-13T12:25:21.000Z</time>
      </trkpt>
      <trkpt lat="37.293345" lon="-3.55896333">
        <ele>1123.0</ele>
        <time>2022-11-13T12:25:22.000Z</time>
      </trkpt>
      <trkpt lat="37.29335333" lon="-3.55894833">
        <ele>1123.0</ele>
        <time>2022-11-13T12:25:23.000Z</time>
      </trkpt>
      <trkpt lat="37.29336167" lon="-3.558935">
        <ele>1123.0</ele>
        <time>2022-11-13T12:25:24.000Z</time>
      </trkpt>
      <trkpt lat="37.29337" lon="-3.55892">
        <ele>1123.0</ele>
        <time>2022-11-13T12:25:25.000Z</time>
      </trkpt>
      <trkpt lat="37.29338" lon="-3.55890667">
        <ele>1123.0</ele>
        <time>2022-11-13T12:25:26.000Z</time>
      </trkpt>
      <trkpt lat="37.29339" lon="-3.55889333">
        <ele>1123.0</ele>
        <time>2022-11-13T12:25:27.000Z</time>
      </trkpt>
      <trkpt lat="37.2934" lon="-3.55888">
        <ele>1124.0</ele>
        <time>2022-11-13T12:25:28.000Z</time>
      </trkpt>
      <trkpt lat="37.29341167" lon="-3.55886833">
        <ele>1124.0</ele>
        <time>2022-11-13T12:25:29.000Z</time>
      </trkpt>
      <trkpt lat="37.29342333" lon="-3.55885667">
        <ele>1124.0</ele>
        <time>2022-11-13T12:25:30.000Z</time>
      </trkpt>
      <trkpt lat="37.29343333" lon="-3.55884667">
        <ele>1124.0</ele>
        <time>2022-11-13T12:25:31.000Z</time>
      </trkpt>
      <trkpt lat="37.293445" lon="-3.558835">
        <ele>1124.0</ele>
        <time>2022-11-13T12:25:32.000Z</time>
      </trkpt>
      <trkpt lat="37.29345667" lon="-3.55882667">
        <ele>1124.0</ele>
        <time>2022-11-13T12:25:33.000Z</time>
      </trkpt>
      <trkpt lat="37.29346833" lon="-3.55881833">
        <ele>1124.0</ele>
        <time>2022-11-13T12:25:34.000Z</time>
      </trkpt>
      <trkpt lat="37.29348167" lon="-3.55881">
        <ele>1124.0</ele>
        <time>2022-11-13T12:25:35.000Z</time>
      </trkpt>
      <trkpt lat="37.29349167" lon="-3.55880167">
        <ele>1124.0</ele>
        <time>2022-11-13T12:25:36.000Z</time>
      </trkpt>
      <trkpt lat="37.29350333" lon="-3.55879333">
        <ele>1124.0</ele>
        <time>2022-11-13T12:25:37.000Z</time>
      </trkpt>
      <trkpt lat="37.29351667" lon="-3.55878667">
        <ele>1125.0</ele>
        <time>2022-11-13T12:25:38.000Z</time>
      </trkpt>
      <trkpt lat="37.29352833" lon="-3.55877833">
        <ele>1125.0</ele>
        <time>2022-11-13T12:25:39.000Z</time>
      </trkpt>
      <trkpt lat="37.29353833" lon="-3.55877167">
        <ele>1125.0</ele>
        <time>2022-11-13T12:25:40.000Z</time>
      </trkpt>
      <trkpt lat="37.29354833" lon="-3.55876">
        <ele>1125.0</ele>
        <time>2022-11-13T12:25:41.000Z</time>
      </trkpt>
      <trkpt lat="37.29355667" lon="-3.55875">
        <ele>1125.0</ele>
        <time>2022-11-13T12:25:42.000Z</time>
      </trkpt>
      <trkpt lat="37.29356667" lon="-3.55873833">
        <ele>1125.0</ele>
        <time>2022-11-13T12:25:43.000Z</time>
      </trkpt>
      <trkpt lat="37.293575" lon="-3.558725">
        <ele>1125.0</ele>
        <time>2022-11-13T12:25:44.000Z</time>
      </trkpt>
      <trkpt lat="37.29358167" lon="-3.55871167">
        <ele>1125.0</ele>
        <time>2022-11-13T12:25:45.000Z</time>
      </trkpt>
      <trkpt lat="37.29358833" lon="-3.55869833">
        <ele>1125.0</ele>
        <time>2022-11-13T12:25:46.000Z</time>
      </trkpt>
      <trkpt lat="37.293595" lon="-3.55868667">
        <ele>1125.0</ele>
        <time>2022-11-13T12:25:47.000Z</time>
      </trkpt>
      <trkpt lat="37.29360167" lon="-3.55867333">
        <ele>1125.0</ele>
        <time>2022-11-13T12:25:48.000Z</time>
      </trkpt>
      <trkpt lat="37.29360667" lon="-3.55866167">
        <ele>1125.0</ele>
        <time>2022-11-13T12:25:49.000Z</time>
      </trkpt>
      <trkpt lat="37.29361333" lon="-3.55865">
        <ele>1125.0</ele>
        <time>2022-11-13T12:25:50.000Z</time>
      </trkpt>
      <trkpt lat="37.29362167" lon="-3.55863667">
        <ele>1125.0</ele>
        <time>2022-11-13T12:25:51.000Z</time>
      </trkpt>
      <trkpt lat="37.29363" lon="-3.558625">
        <ele>1125.0</ele>
        <time>2022-11-13T12:25:52.000Z</time>
      </trkpt>
      <trkpt lat="37.29363833" lon="-3.55861167">
        <ele>1125.0</ele>
        <time>2022-11-13T12:25:53.000Z</time>
      </trkpt>
      <trkpt lat="37.29364667" lon="-3.5586">
        <ele>1125.0</ele>
        <time>2022-11-13T12:25:54.000Z</time>
      </trkpt>
      <trkpt lat="37.29365667" lon="-3.55858667">
        <ele>1125.0</ele>
        <time>2022-11-13T12:25:55.000Z</time>
      </trkpt>
      <trkpt lat="37.293665" lon="-3.55857333">
        <ele>1125.0</ele>
        <time>2022-11-13T12:25:56.000Z</time>
      </trkpt>
      <trkpt lat="37.29367333" lon="-3.55856">
        <ele>1125.0</ele>
        <time>2022-11-13T12:25:57.000Z</time>
      </trkpt>
      <trkpt lat="37.29368" lon="-3.558545">
        <ele>1125.0</ele>
        <time>2022-11-13T12:25:58.000Z</time>
      </trkpt>
      <trkpt lat="37.29368667" lon="-3.55853">
        <ele>1125.0</ele>
        <time>2022-11-13T12:25:59.000Z</time>
      </trkpt>
      <trkpt lat="37.293695" lon="-3.55851833">
        <ele>1125.0</ele>
        <time>2022-11-13T12:26:00.000Z</time>
      </trkpt>
      <trkpt lat="37.2937" lon="-3.558505">
        <ele>1125.0</ele>
        <time>2022-11-13T12:26:01.000Z</time>
      </trkpt>
      <trkpt lat="37.29370333" lon="-3.55849167">
        <ele>1125.0</ele>
        <time>2022-11-13T12:26:02.000Z</time>
      </trkpt>
      <trkpt lat="37.29370667" lon="-3.55847833">
        <ele>1125.0</ele>
        <time>2022-11-13T12:26:03.000Z</time>
      </trkpt>
      <trkpt lat="37.29370833" lon="-3.558465">
        <ele>1125.0</ele>
        <time>2022-11-13T12:26:04.000Z</time>
      </trkpt>
      <trkpt lat="37.29371" lon="-3.55845167">
        <ele>1125.0</ele>
        <time>2022-11-13T12:26:05.000Z</time>
      </trkpt>
      <trkpt lat="37.293715" lon="-3.55844333">
        <ele>1125.0</ele>
        <time>2022-11-13T12:26:06.000Z</time>
      </trkpt>
      <trkpt lat="37.29371833" lon="-3.55843333">
        <ele>1125.0</ele>
        <time>2022-11-13T12:26:07.000Z</time>
      </trkpt>
      <trkpt lat="37.29372333" lon="-3.55842167">
        <ele>1125.0</ele>
        <time>2022-11-13T12:26:08.000Z</time>
      </trkpt>
      <trkpt lat="37.29373" lon="-3.55840833">
        <ele>1125.0</ele>
        <time>2022-11-13T12:26:09.000Z</time>
      </trkpt>
      <trkpt lat="37.29373833" lon="-3.558395">
        <ele>1125.0</ele>
        <time>2022-11-13T12:26:10.000Z</time>
      </trkpt>
      <trkpt lat="37.29374333" lon="-3.55838333">
        <ele>1125.0</ele>
        <time>2022-11-13T12:26:11.000Z</time>
      </trkpt>
      <trkpt lat="37.29375167" lon="-3.55837167">
        <ele>1125.0</ele>
        <time>2022-11-13T12:26:12.000Z</time>
      </trkpt>
      <trkpt lat="37.29376" lon="-3.55835833">
        <ele>1125.0</ele>
        <time>2022-11-13T12:26:13.000Z</time>
      </trkpt>
      <trkpt lat="37.29376667" lon="-3.558345">
        <ele>1125.0</ele>
        <time>2022-11-13T12:26:14.000Z</time>
      </trkpt>
      <trkpt lat="37.29377333" lon="-3.558335">
        <ele>1125.0</ele>
        <time>2022-11-13T12:26:15.000Z</time>
      </trkpt>
      <trkpt lat="37.29378167" lon="-3.55832667">
        <ele>1125.0</ele>
        <time>2022-11-13T12:26:16.000Z</time>
      </trkpt>
      <trkpt lat="37.29379167" lon="-3.55831667">
        <ele>1125.0</ele>
        <time>2022-11-13T12:26:17.000Z</time>
      </trkpt>
      <trkpt lat="37.29379833" lon="-3.55830667">
        <ele>1125.0</ele>
        <time>2022-11-13T12:26:18.000Z</time>
      </trkpt>
      <trkpt lat="37.29380667" lon="-3.558295">
        <ele>1125.0</ele>
        <time>2022-11-13T12:26:19.000Z</time>
      </trkpt>
      <trkpt lat="37.29381333" lon="-3.558285">
        <ele>1125.0</ele>
        <time>2022-11-13T12:26:20.000Z</time>
      </trkpt>
      <trkpt lat="37.29381833" lon="-3.55827333">
        <ele>1125.0</ele>
        <time>2022-11-13T12:26:21.000Z</time>
      </trkpt>
      <trkpt lat="37.293825" lon="-3.55826167">
        <ele>1125.0</ele>
        <time>2022-11-13T12:26:22.000Z</time>
      </trkpt>
      <trkpt lat="37.29383" lon="-3.55825">
        <ele>1125.0</ele>
        <time>2022-11-13T12:26:23.000Z</time>
      </trkpt>
      <trkpt lat="37.29383333" lon="-3.55823667">
        <ele>1125.0</ele>
        <time>2022-11-13T12:26:24.000Z</time>
      </trkpt>
      <trkpt lat="37.29383833" lon="-3.55822333">
        <ele>1125.0</ele>
        <time>2022-11-13T12:26:25.000Z</time>
      </trkpt>
      <trkpt lat="37.29384167" lon="-3.55820833">
        <ele>1125.0</ele>
        <time>2022-11-13T12:26:26.000Z</time>
      </trkpt>
      <trkpt lat="37.29384667" lon="-3.55819333">
        <ele>1126.0</ele>
        <time>2022-11-13T12:26:27.000Z</time>
      </trkpt>
      <trkpt lat="37.29385167" lon="-3.55818">
        <ele>1126.0</ele>
        <time>2022-11-13T12:26:28.000Z</time>
      </trkpt>
      <trkpt lat="37.293855" lon="-3.558165">
        <ele>1126.0</ele>
        <time>2022-11-13T12:26:29.000Z</time>
      </trkpt>
      <trkpt lat="37.29386" lon="-3.55815">
        <ele>1126.0</ele>
        <time>2022-11-13T12:26:30.000Z</time>
      </trkpt>
      <trkpt lat="37.29386667" lon="-3.558135">
        <ele>1126.0</ele>
        <time>2022-11-13T12:26:31.000Z</time>
      </trkpt>
      <trkpt lat="37.29387" lon="-3.55812167">
        <ele>1126.0</ele>
        <time>2022-11-13T12:26:32.000Z</time>
      </trkpt>
      <trkpt lat="37.293875" lon="-3.55810667">
        <ele>1126.0</ele>
        <time>2022-11-13T12:26:33.000Z</time>
      </trkpt>
      <trkpt lat="37.29388" lon="-3.55809167">
        <ele>1126.0</ele>
        <time>2022-11-13T12:26:34.000Z</time>
      </trkpt>
      <trkpt lat="37.293885" lon="-3.55807667">
        <ele>1126.0</ele>
        <time>2022-11-13T12:26:35.000Z</time>
      </trkpt>
      <trkpt lat="37.29389" lon="-3.55805833">
        <ele>1126.0</ele>
        <time>2022-11-13T12:26:36.000Z</time>
      </trkpt>
      <trkpt lat="37.293895" lon="-3.55804167">
        <ele>1126.0</ele>
        <time>2022-11-13T12:26:37.000Z</time>
      </trkpt>
      <trkpt lat="37.29389833" lon="-3.55802667">
        <ele>1126.0</ele>
        <time>2022-11-13T12:26:38.000Z</time>
      </trkpt>
      <trkpt lat="37.29390333" lon="-3.55801">
        <ele>1126.0</ele>
        <time>2022-11-13T12:26:39.000Z</time>
      </trkpt>
      <trkpt lat="37.29390833" lon="-3.55799333">
        <ele>1126.0</ele>
        <time>2022-11-13T12:26:40.000Z</time>
      </trkpt>
      <trkpt lat="37.29391167" lon="-3.55797833">
        <ele>1126.0</ele>
        <time>2022-11-13T12:26:41.000Z</time>
      </trkpt>
      <trkpt lat="37.293915" lon="-3.55796167">
        <ele>1126.0</ele>
        <time>2022-11-13T12:26:42.000Z</time>
      </trkpt>
      <trkpt lat="37.29391667" lon="-3.557945">
        <ele>1126.0</ele>
        <time>2022-11-13T12:26:43.000Z</time>
      </trkpt>
      <trkpt lat="37.29392" lon="-3.55792833">
        <ele>1126.0</ele>
        <time>2022-11-13T12:26:44.000Z</time>
      </trkpt>
      <trkpt lat="37.29392167" lon="-3.55791167">
        <ele>1126.0</ele>
        <time>2022-11-13T12:26:45.000Z</time>
      </trkpt>
      <trkpt lat="37.29392333" lon="-3.557895">
        <ele>1126.0</ele>
        <time>2022-11-13T12:26:46.000Z</time>
      </trkpt>
      <trkpt lat="37.29392667" lon="-3.55787667">
        <ele>1126.0</ele>
        <time>2022-11-13T12:26:47.000Z</time>
      </trkpt>
      <trkpt lat="37.29392833" lon="-3.55785833">
        <ele>1127.0</ele>
        <time>2022-11-13T12:26:48.000Z</time>
      </trkpt>
      <trkpt lat="37.29393167" lon="-3.55784333">
        <ele>1127.0</ele>
        <time>2022-11-13T12:26:49.000Z</time>
      </trkpt>
      <trkpt lat="37.29393333" lon="-3.55782667">
        <ele>1127.0</ele>
        <time>2022-11-13T12:26:50.000Z</time>
      </trkpt>
      <trkpt lat="37.29393667" lon="-3.55781167">
        <ele>1127.0</ele>
        <time>2022-11-13T12:26:51.000Z</time>
      </trkpt>
      <trkpt lat="37.29394" lon="-3.55779333">
        <ele>1127.0</ele>
        <time>2022-11-13T12:26:52.000Z</time>
      </trkpt>
      <trkpt lat="37.29394333" lon="-3.55777667">
        <ele>1127.0</ele>
        <time>2022-11-13T12:26:53.000Z</time>
      </trkpt>
      <trkpt lat="37.29394667" lon="-3.55775833">
        <ele>1127.0</ele>
        <time>2022-11-13T12:26:54.000Z</time>
      </trkpt>
      <trkpt lat="37.29395167" lon="-3.55774">
        <ele>1127.0</ele>
        <time>2022-11-13T12:26:55.000Z</time>
      </trkpt>
      <trkpt lat="37.29395667" lon="-3.55772333">
        <ele>1127.0</ele>
        <time>2022-11-13T12:26:56.000Z</time>
      </trkpt>
      <trkpt lat="37.29396167" lon="-3.55770667">
        <ele>1127.0</ele>
        <time>2022-11-13T12:26:57.000Z</time>
      </trkpt>
      <trkpt lat="37.29396667" lon="-3.55769">
        <ele>1127.0</ele>
        <time>2022-11-13T12:26:58.000Z</time>
      </trkpt>
      <trkpt lat="37.29397333" lon="-3.55767167">
        <ele>1127.0</ele>
        <time>2022-11-13T12:26:59.000Z</time>
      </trkpt>
      <trkpt lat="37.29397833" lon="-3.557655">
        <ele>1127.0</ele>
        <time>2022-11-13T12:27:00.000Z</time>
      </trkpt>
      <trkpt lat="37.293985" lon="-3.55763833">
        <ele>1127.0</ele>
        <time>2022-11-13T12:27:01.000Z</time>
      </trkpt>
      <trkpt lat="37.29399" lon="-3.55762167">
        <ele>1127.0</ele>
        <time>2022-11-13T12:27:02.000Z</time>
      </trkpt>
      <trkpt lat="37.29399667" lon="-3.557605">
        <ele>1127.0</ele>
        <time>2022-11-13T12:27:03.000Z</time>
      </trkpt>
      <trkpt lat="37.29400167" lon="-3.55758833">
        <ele>1127.0</ele>
        <time>2022-11-13T12:27:04.000Z</time>
      </trkpt>
      <trkpt lat="37.29400667" lon="-3.55757">
        <ele>1127.0</ele>
        <time>2022-11-13T12:27:05.000Z</time>
      </trkpt>
      <trkpt lat="37.29401333" lon="-3.557555">
        <ele>1127.0</ele>
        <time>2022-11-13T12:27:06.000Z</time>
      </trkpt>
      <trkpt lat="37.29401833" lon="-3.55754">
        <ele>1127.0</ele>
        <time>2022-11-13T12:27:07.000Z</time>
      </trkpt>
      <trkpt lat="37.29402333" lon="-3.55752333">
        <ele>1127.0</ele>
        <time>2022-11-13T12:27:08.000Z</time>
      </trkpt>
      <trkpt lat="37.29403" lon="-3.55750667">
        <ele>1127.0</ele>
        <time>2022-11-13T12:27:09.000Z</time>
      </trkpt>
      <trkpt lat="37.29403667" lon="-3.55748833">
        <ele>1127.0</ele>
        <time>2022-11-13T12:27:10.000Z</time>
      </trkpt>
      <trkpt lat="37.294045" lon="-3.55747167">
        <ele>1127.0</ele>
        <time>2022-11-13T12:27:11.000Z</time>
      </trkpt>
      <trkpt lat="37.29405333" lon="-3.55745333">
        <ele>1127.0</ele>
        <time>2022-11-13T12:27:12.000Z</time>
      </trkpt>
      <trkpt lat="37.29405833" lon="-3.557435">
        <ele>1127.0</ele>
        <time>2022-11-13T12:27:13.000Z</time>
      </trkpt>
      <trkpt lat="37.294065" lon="-3.55741667">
        <ele>1127.0</ele>
        <time>2022-11-13T12:27:14.000Z</time>
      </trkpt>
      <trkpt lat="37.29407167" lon="-3.55739833">
        <ele>1127.0</ele>
        <time>2022-11-13T12:27:15.000Z</time>
      </trkpt>
      <trkpt lat="37.29407833" lon="-3.55738">
        <ele>1127.0</ele>
        <time>2022-11-13T12:27:16.000Z</time>
      </trkpt>
      <trkpt lat="37.294085" lon="-3.55736333">
        <ele>1128.0</ele>
        <time>2022-11-13T12:27:17.000Z</time>
      </trkpt>
      <trkpt lat="37.29409167" lon="-3.55734667">
        <ele>1128.0</ele>
        <time>2022-11-13T12:27:18.000Z</time>
      </trkpt>
      <trkpt lat="37.29409667" lon="-3.55732833">
        <ele>1128.0</ele>
        <time>2022-11-13T12:27:19.000Z</time>
      </trkpt>
      <trkpt lat="37.2941" lon="-3.55731">
        <ele>1128.0</ele>
        <time>2022-11-13T12:27:20.000Z</time>
      </trkpt>
      <trkpt lat="37.29410333" lon="-3.55729333">
        <ele>1128.0</ele>
        <time>2022-11-13T12:27:21.000Z</time>
      </trkpt>
      <trkpt lat="37.29410667" lon="-3.55727667">
        <ele>1128.0</ele>
        <time>2022-11-13T12:27:22.000Z</time>
      </trkpt>
      <trkpt lat="37.29411167" lon="-3.55726">
        <ele>1128.0</ele>
        <time>2022-11-13T12:27:23.000Z</time>
      </trkpt>
      <trkpt lat="37.29411667" lon="-3.55724333">
        <ele>1128.0</ele>
        <time>2022-11-13T12:27:24.000Z</time>
      </trkpt>
      <trkpt lat="37.29412167" lon="-3.557225">
        <ele>1128.0</ele>
        <time>2022-11-13T12:27:25.000Z</time>
      </trkpt>
      <trkpt lat="37.29412667" lon="-3.55720833">
        <ele>1128.0</ele>
        <time>2022-11-13T12:27:26.000Z</time>
      </trkpt>
      <trkpt lat="37.29413167" lon="-3.55719">
        <ele>1128.0</ele>
        <time>2022-11-13T12:27:27.000Z</time>
      </trkpt>
      <trkpt lat="37.29413667" lon="-3.55717333">
        <ele>1128.0</ele>
        <time>2022-11-13T12:27:28.000Z</time>
      </trkpt>
      <trkpt lat="37.29414" lon="-3.557155">
        <ele>1129.0</ele>
        <time>2022-11-13T12:27:29.000Z</time>
      </trkpt>
      <trkpt lat="37.29414667" lon="-3.55713667">
        <ele>1129.0</ele>
        <time>2022-11-13T12:27:30.000Z</time>
      </trkpt>
      <trkpt lat="37.29415167" lon="-3.55712">
        <ele>1129.0</ele>
        <time>2022-11-13T12:27:31.000Z</time>
      </trkpt>
      <trkpt lat="37.294155" lon="-3.55710333">
        <ele>1129.0</ele>
        <time>2022-11-13T12:27:32.000Z</time>
      </trkpt>
      <trkpt lat="37.29416" lon="-3.557085">
        <ele>1129.0</ele>
        <time>2022-11-13T12:27:33.000Z</time>
      </trkpt>
      <trkpt lat="37.29416667" lon="-3.55706667">
        <ele>1129.0</ele>
        <time>2022-11-13T12:27:34.000Z</time>
      </trkpt>
      <trkpt lat="37.29417167" lon="-3.55704833">
        <ele>1129.0</ele>
        <time>2022-11-13T12:27:35.000Z</time>
      </trkpt>
      <trkpt lat="37.29417667" lon="-3.55703167">
        <ele>1129.0</ele>
        <time>2022-11-13T12:27:36.000Z</time>
      </trkpt>
      <trkpt lat="37.29418167" lon="-3.557015">
        <ele>1129.0</ele>
        <time>2022-11-13T12:27:37.000Z</time>
      </trkpt>
      <trkpt lat="37.29418667" lon="-3.55699833">
        <ele>1129.0</ele>
        <time>2022-11-13T12:27:38.000Z</time>
      </trkpt>
      <trkpt lat="37.29419" lon="-3.55698167">
        <ele>1129.0</ele>
        <time>2022-11-13T12:27:39.000Z</time>
      </trkpt>
      <trkpt lat="37.294195" lon="-3.556965">
        <ele>1129.0</ele>
        <time>2022-11-13T12:27:40.000Z</time>
      </trkpt>
      <trkpt lat="37.29420167" lon="-3.55694833">
        <ele>1129.0</ele>
        <time>2022-11-13T12:27:41.000Z</time>
      </trkpt>
      <trkpt lat="37.29420667" lon="-3.55693">
        <ele>1129.0</ele>
        <time>2022-11-13T12:27:42.000Z</time>
      </trkpt>
      <trkpt lat="37.29421167" lon="-3.556915">
        <ele>1129.0</ele>
        <time>2022-11-13T12:27:43.000Z</time>
      </trkpt>
      <trkpt lat="37.29421667" lon="-3.55689833">
        <ele>1130.0</ele>
        <time>2022-11-13T12:27:44.000Z</time>
      </trkpt>
      <trkpt lat="37.29422333" lon="-3.55688333">
        <ele>1130.0</ele>
        <time>2022-11-13T12:27:45.000Z</time>
      </trkpt>
      <trkpt lat="37.29423" lon="-3.55686667">
        <ele>1130.0</ele>
        <time>2022-11-13T12:27:46.000Z</time>
      </trkpt>
      <trkpt lat="37.29423833" lon="-3.55685">
        <ele>1130.0</ele>
        <time>2022-11-13T12:27:47.000Z</time>
      </trkpt>
      <trkpt lat="37.294245" lon="-3.556835">
        <ele>1130.0</ele>
        <time>2022-11-13T12:27:48.000Z</time>
      </trkpt>
      <trkpt lat="37.29425167" lon="-3.55682">
        <ele>1130.0</ele>
        <time>2022-11-13T12:27:49.000Z</time>
      </trkpt>
      <trkpt lat="37.29425833" lon="-3.55680333">
        <ele>1130.0</ele>
        <time>2022-11-13T12:27:50.000Z</time>
      </trkpt>
      <trkpt lat="37.29425833" lon="-3.55680167">
        <ele>1130.0</ele>
        <time>2022-11-13T12:27:51.000Z</time>
      </trkpt>
      <trkpt lat="37.29426167" lon="-3.556795">
        <ele>1130.0</ele>
        <time>2022-11-13T12:27:52.000Z</time>
      </trkpt>
      <trkpt lat="37.29426833" lon="-3.55678167">
        <ele>1130.0</ele>
        <time>2022-11-13T12:27:53.000Z</time>
      </trkpt>
      <trkpt lat="37.294275" lon="-3.55677">
        <ele>1130.0</ele>
        <time>2022-11-13T12:27:54.000Z</time>
      </trkpt>
      <trkpt lat="37.29428333" lon="-3.556755">
        <ele>1130.0</ele>
        <time>2022-11-13T12:27:55.000Z</time>
      </trkpt>
      <trkpt lat="37.29429167" lon="-3.55674167">
        <ele>1130.0</ele>
        <time>2022-11-13T12:27:56.000Z</time>
      </trkpt>
      <trkpt lat="37.29429833" lon="-3.556725">
        <ele>1130.0</ele>
        <time>2022-11-13T12:27:57.000Z</time>
      </trkpt>
      <trkpt lat="37.29430833" lon="-3.55671">
        <ele>1130.0</ele>
        <time>2022-11-13T12:27:58.000Z</time>
      </trkpt>
      <trkpt lat="37.29431667" lon="-3.556695">
        <ele>1130.0</ele>
        <time>2022-11-13T12:27:59.000Z</time>
      </trkpt>
      <trkpt lat="37.29432333" lon="-3.55668">
        <ele>1130.0</ele>
        <time>2022-11-13T12:28:00.000Z</time>
      </trkpt>
      <trkpt lat="37.29433" lon="-3.55666333">
        <ele>1130.0</ele>
        <time>2022-11-13T12:28:01.000Z</time>
      </trkpt>
      <trkpt lat="37.29433833" lon="-3.55664667">
        <ele>1130.0</ele>
        <time>2022-11-13T12:28:02.000Z</time>
      </trkpt>
      <trkpt lat="37.294345" lon="-3.55663167">
        <ele>1131.0</ele>
        <time>2022-11-13T12:28:03.000Z</time>
      </trkpt>
      <trkpt lat="37.29435167" lon="-3.556615">
        <ele>1131.0</ele>
        <time>2022-11-13T12:28:04.000Z</time>
      </trkpt>
      <trkpt lat="37.29435833" lon="-3.5566">
        <ele>1131.0</ele>
        <time>2022-11-13T12:28:05.000Z</time>
      </trkpt>
      <trkpt lat="37.294365" lon="-3.556585">
        <ele>1131.0</ele>
        <time>2022-11-13T12:28:06.000Z</time>
      </trkpt>
      <trkpt lat="37.29437" lon="-3.55657">
        <ele>1131.0</ele>
        <time>2022-11-13T12:28:07.000Z</time>
      </trkpt>
      <trkpt lat="37.294375" lon="-3.55655333">
        <ele>1131.0</ele>
        <time>2022-11-13T12:28:08.000Z</time>
      </trkpt>
      <trkpt lat="37.29438" lon="-3.55653833">
        <ele>1131.0</ele>
        <time>2022-11-13T12:28:09.000Z</time>
      </trkpt>
      <trkpt lat="37.29438333" lon="-3.55652">
        <ele>1131.0</ele>
        <time>2022-11-13T12:28:10.000Z</time>
      </trkpt>
      <trkpt lat="37.29438833" lon="-3.55650333">
        <ele>1131.0</ele>
        <time>2022-11-13T12:28:11.000Z</time>
      </trkpt>
      <trkpt lat="37.29439167" lon="-3.556485">
        <ele>1131.0</ele>
        <time>2022-11-13T12:28:12.000Z</time>
      </trkpt>
      <trkpt lat="37.29439667" lon="-3.55646667">
        <ele>1131.0</ele>
        <time>2022-11-13T12:28:13.000Z</time>
      </trkpt>
      <trkpt lat="37.2944" lon="-3.55645">
        <ele>1131.0</ele>
        <time>2022-11-13T12:28:14.000Z</time>
      </trkpt>
      <trkpt lat="37.29440333" lon="-3.55643">
        <ele>1131.0</ele>
        <time>2022-11-13T12:28:15.000Z</time>
      </trkpt>
      <trkpt lat="37.29440833" lon="-3.55641">
        <ele>1131.0</ele>
        <time>2022-11-13T12:28:16.000Z</time>
      </trkpt>
      <trkpt lat="37.29441333" lon="-3.55639">
        <ele>1131.0</ele>
        <time>2022-11-13T12:28:17.000Z</time>
      </trkpt>
      <trkpt lat="37.29441833" lon="-3.55637">
        <ele>1131.0</ele>
        <time>2022-11-13T12:28:18.000Z</time>
      </trkpt>
      <trkpt lat="37.29442167" lon="-3.55635333">
        <ele>1131.0</ele>
        <time>2022-11-13T12:28:19.000Z</time>
      </trkpt>
      <trkpt lat="37.29442833" lon="-3.55633667">
        <ele>1131.0</ele>
        <time>2022-11-13T12:28:20.000Z</time>
      </trkpt>
      <trkpt lat="37.29443333" lon="-3.55632167">
        <ele>1131.0</ele>
        <time>2022-11-13T12:28:21.000Z</time>
      </trkpt>
      <trkpt lat="37.29444167" lon="-3.55630333">
        <ele>1131.0</ele>
        <time>2022-11-13T12:28:22.000Z</time>
      </trkpt>
      <trkpt lat="37.29444833" lon="-3.55628667">
        <ele>1131.0</ele>
        <time>2022-11-13T12:28:23.000Z</time>
      </trkpt>
      <trkpt lat="37.29445667" lon="-3.55627167">
        <ele>1131.0</ele>
        <time>2022-11-13T12:28:24.000Z</time>
      </trkpt>
      <trkpt lat="37.294465" lon="-3.55625667">
        <ele>1131.0</ele>
        <time>2022-11-13T12:28:25.000Z</time>
      </trkpt>
      <trkpt lat="37.29447333" lon="-3.55624167">
        <ele>1131.0</ele>
        <time>2022-11-13T12:28:26.000Z</time>
      </trkpt>
      <trkpt lat="37.29448333" lon="-3.55622667">
        <ele>1131.0</ele>
        <time>2022-11-13T12:28:27.000Z</time>
      </trkpt>
      <trkpt lat="37.294495" lon="-3.55621333">
        <ele>1131.0</ele>
        <time>2022-11-13T12:28:28.000Z</time>
      </trkpt>
      <trkpt lat="37.294505" lon="-3.55620167">
        <ele>1131.0</ele>
        <time>2022-11-13T12:28:29.000Z</time>
      </trkpt>
      <trkpt lat="37.294515" lon="-3.55619">
        <ele>1132.0</ele>
        <time>2022-11-13T12:28:30.000Z</time>
      </trkpt>
      <trkpt lat="37.294525" lon="-3.55618">
        <ele>1132.0</ele>
        <time>2022-11-13T12:28:31.000Z</time>
      </trkpt>
      <trkpt lat="37.294535" lon="-3.55616667">
        <ele>1132.0</ele>
        <time>2022-11-13T12:28:32.000Z</time>
      </trkpt>
      <trkpt lat="37.29454333" lon="-3.55615333">
        <ele>1132.0</ele>
        <time>2022-11-13T12:28:33.000Z</time>
      </trkpt>
      <trkpt lat="37.29455167" lon="-3.55614">
        <ele>1132.0</ele>
        <time>2022-11-13T12:28:34.000Z</time>
      </trkpt>
      <trkpt lat="37.29456" lon="-3.55612667">
        <ele>1132.0</ele>
        <time>2022-11-13T12:28:35.000Z</time>
      </trkpt>
      <trkpt lat="37.29457" lon="-3.55611167">
        <ele>1132.0</ele>
        <time>2022-11-13T12:28:36.000Z</time>
      </trkpt>
      <trkpt lat="37.29457833" lon="-3.55609667">
        <ele>1132.0</ele>
        <time>2022-11-13T12:28:37.000Z</time>
      </trkpt>
      <trkpt lat="37.29458667" lon="-3.55608333">
        <ele>1132.0</ele>
        <time>2022-11-13T12:28:38.000Z</time>
      </trkpt>
      <trkpt lat="37.29459667" lon="-3.55606833">
        <ele>1132.0</ele>
        <time>2022-11-13T12:28:39.000Z</time>
      </trkpt>
      <trkpt lat="37.29460833" lon="-3.556055">
        <ele>1132.0</ele>
        <time>2022-11-13T12:28:40.000Z</time>
      </trkpt>
      <trkpt lat="37.29461833" lon="-3.55604333">
        <ele>1132.0</ele>
        <time>2022-11-13T12:28:41.000Z</time>
      </trkpt>
      <trkpt lat="37.29462667" lon="-3.55603">
        <ele>1132.0</ele>
        <time>2022-11-13T12:28:42.000Z</time>
      </trkpt>
      <trkpt lat="37.294635" lon="-3.55601667">
        <ele>1132.0</ele>
        <time>2022-11-13T12:28:43.000Z</time>
      </trkpt>
      <trkpt lat="37.29464167" lon="-3.55600333">
        <ele>1132.0</ele>
        <time>2022-11-13T12:28:44.000Z</time>
      </trkpt>
      <trkpt lat="37.29464833" lon="-3.55599">
        <ele>1133.0</ele>
        <time>2022-11-13T12:28:45.000Z</time>
      </trkpt>
      <trkpt lat="37.294655" lon="-3.55597833">
        <ele>1133.0</ele>
        <time>2022-11-13T12:28:46.000Z</time>
      </trkpt>
      <trkpt lat="37.29466" lon="-3.55596667">
        <ele>1133.0</ele>
        <time>2022-11-13T12:28:47.000Z</time>
      </trkpt>
      <trkpt lat="37.294665" lon="-3.55595333">
        <ele>1133.0</ele>
        <time>2022-11-13T12:28:48.000Z</time>
      </trkpt>
      <trkpt lat="37.29467" lon="-3.55594">
        <ele>1133.0</ele>
        <time>2022-11-13T12:28:49.000Z</time>
      </trkpt>
      <trkpt lat="37.29467667" lon="-3.555925">
        <ele>1133.0</ele>
        <time>2022-11-13T12:28:50.000Z</time>
      </trkpt>
      <trkpt lat="37.29468167" lon="-3.55591167">
        <ele>1133.0</ele>
        <time>2022-11-13T12:28:51.000Z</time>
      </trkpt>
      <trkpt lat="37.29468667" lon="-3.5559">
        <ele>1133.0</ele>
        <time>2022-11-13T12:28:52.000Z</time>
      </trkpt>
      <trkpt lat="37.29469167" lon="-3.55588833">
        <ele>1133.0</ele>
        <time>2022-11-13T12:28:53.000Z</time>
      </trkpt>
      <trkpt lat="37.294695" lon="-3.55588">
        <ele>1134.0</ele>
        <time>2022-11-13T12:28:54.000Z</time>
      </trkpt>
      <trkpt lat="37.29469833" lon="-3.55587">
        <ele>1134.0</ele>
        <time>2022-11-13T12:28:55.000Z</time>
      </trkpt>
      <trkpt lat="37.29470167" lon="-3.55585667">
        <ele>1134.0</ele>
        <time>2022-11-13T12:28:56.000Z</time>
      </trkpt>
      <trkpt lat="37.294705" lon="-3.555845">
        <ele>1134.0</ele>
        <time>2022-11-13T12:28:57.000Z</time>
      </trkpt>
      <trkpt lat="37.29471167" lon="-3.55583167">
        <ele>1134.0</ele>
        <time>2022-11-13T12:28:58.000Z</time>
      </trkpt>
      <trkpt lat="37.294715" lon="-3.55582">
        <ele>1134.0</ele>
        <time>2022-11-13T12:28:59.000Z</time>
      </trkpt>
      <trkpt lat="37.29472" lon="-3.555805">
        <ele>1134.0</ele>
        <time>2022-11-13T12:29:00.000Z</time>
      </trkpt>
      <trkpt lat="37.294725" lon="-3.55579">
        <ele>1134.0</ele>
        <time>2022-11-13T12:29:01.000Z</time>
      </trkpt>
      <trkpt lat="37.29473" lon="-3.555775">
        <ele>1134.0</ele>
        <time>2022-11-13T12:29:02.000Z</time>
      </trkpt>
      <trkpt lat="37.29473333" lon="-3.55576">
        <ele>1134.0</ele>
        <time>2022-11-13T12:29:03.000Z</time>
      </trkpt>
      <trkpt lat="37.29473667" lon="-3.55574333">
        <ele>1134.0</ele>
        <time>2022-11-13T12:29:04.000Z</time>
      </trkpt>
      <trkpt lat="37.29474" lon="-3.555725">
        <ele>1134.0</ele>
        <time>2022-11-13T12:29:05.000Z</time>
      </trkpt>
      <trkpt lat="37.29474333" lon="-3.55570833">
        <ele>1135.0</ele>
        <time>2022-11-13T12:29:06.000Z</time>
      </trkpt>
      <trkpt lat="37.29474667" lon="-3.55569167">
        <ele>1135.0</ele>
        <time>2022-11-13T12:29:07.000Z</time>
      </trkpt>
      <trkpt lat="37.29475" lon="-3.555675">
        <ele>1135.0</ele>
        <time>2022-11-13T12:29:08.000Z</time>
      </trkpt>
      <trkpt lat="37.29475333" lon="-3.55565667">
        <ele>1135.0</ele>
        <time>2022-11-13T12:29:09.000Z</time>
      </trkpt>
      <trkpt lat="37.29475667" lon="-3.55563833">
        <ele>1135.0</ele>
        <time>2022-11-13T12:29:10.000Z</time>
      </trkpt>
      <trkpt lat="37.29476" lon="-3.55562167">
        <ele>1135.0</ele>
        <time>2022-11-13T12:29:11.000Z</time>
      </trkpt>
      <trkpt lat="37.29476333" lon="-3.55560667">
        <ele>1135.0</ele>
        <time>2022-11-13T12:29:12.000Z</time>
      </trkpt>
      <trkpt lat="37.29476833" lon="-3.55559">
        <ele>1135.0</ele>
        <time>2022-11-13T12:29:13.000Z</time>
      </trkpt>
      <trkpt lat="37.29477333" lon="-3.555575">
        <ele>1135.0</ele>
        <time>2022-11-13T12:29:14.000Z</time>
      </trkpt>
      <trkpt lat="37.29477833" lon="-3.55556">
        <ele>1135.0</ele>
        <time>2022-11-13T12:29:15.000Z</time>
      </trkpt>
      <trkpt lat="37.294785" lon="-3.55554667">
        <ele>1135.0</ele>
        <time>2022-11-13T12:29:16.000Z</time>
      </trkpt>
      <trkpt lat="37.29479" lon="-3.55553167">
        <ele>1135.0</ele>
        <time>2022-11-13T12:29:17.000Z</time>
      </trkpt>
      <trkpt lat="37.29479667" lon="-3.55551667">
        <ele>1135.0</ele>
        <time>2022-11-13T12:29:18.000Z</time>
      </trkpt>
      <trkpt lat="37.294805" lon="-3.55550167">
        <ele>1135.0</ele>
        <time>2022-11-13T12:29:19.000Z</time>
      </trkpt>
      <trkpt lat="37.29481333" lon="-3.55549">
        <ele>1135.0</ele>
        <time>2022-11-13T12:29:20.000Z</time>
      </trkpt>
      <trkpt lat="37.29482167" lon="-3.55547833">
        <ele>1135.0</ele>
        <time>2022-11-13T12:29:21.000Z</time>
      </trkpt>
      <trkpt lat="37.29483" lon="-3.55546667">
        <ele>1135.0</ele>
        <time>2022-11-13T12:29:22.000Z</time>
      </trkpt>
      <trkpt lat="37.29484" lon="-3.55545333">
        <ele>1135.0</ele>
        <time>2022-11-13T12:29:23.000Z</time>
      </trkpt>
      <trkpt lat="37.29485" lon="-3.55544167">
        <ele>1135.0</ele>
        <time>2022-11-13T12:29:24.000Z</time>
      </trkpt>
      <trkpt lat="37.29485833" lon="-3.55542833">
        <ele>1136.0</ele>
        <time>2022-11-13T12:29:25.000Z</time>
      </trkpt>
      <trkpt lat="37.29486667" lon="-3.555415">
        <ele>1136.0</ele>
        <time>2022-11-13T12:29:26.000Z</time>
      </trkpt>
      <trkpt lat="37.294875" lon="-3.55540333">
        <ele>1136.0</ele>
        <time>2022-11-13T12:29:27.000Z</time>
      </trkpt>
      <trkpt lat="37.29488333" lon="-3.55538833">
        <ele>1136.0</ele>
        <time>2022-11-13T12:29:28.000Z</time>
      </trkpt>
      <trkpt lat="37.29489" lon="-3.55537333">
        <ele>1136.0</ele>
        <time>2022-11-13T12:29:29.000Z</time>
      </trkpt>
      <trkpt lat="37.29489667" lon="-3.55535833">
        <ele>1136.0</ele>
        <time>2022-11-13T12:29:30.000Z</time>
      </trkpt>
      <trkpt lat="37.29490333" lon="-3.55534667">
        <ele>1136.0</ele>
        <time>2022-11-13T12:29:31.000Z</time>
      </trkpt>
      <trkpt lat="37.29491" lon="-3.55533333">
        <ele>1136.0</ele>
        <time>2022-11-13T12:29:32.000Z</time>
      </trkpt>
      <trkpt lat="37.29491667" lon="-3.55532167">
        <ele>1136.0</ele>
        <time>2022-11-13T12:29:33.000Z</time>
      </trkpt>
      <trkpt lat="37.29492333" lon="-3.55531">
        <ele>1136.0</ele>
        <time>2022-11-13T12:29:34.000Z</time>
      </trkpt>
      <trkpt lat="37.29492833" lon="-3.5553">
        <ele>1136.0</ele>
        <time>2022-11-13T12:29:35.000Z</time>
      </trkpt>
      <trkpt lat="37.29493333" lon="-3.55528833">
        <ele>1136.0</ele>
        <time>2022-11-13T12:29:36.000Z</time>
      </trkpt>
      <trkpt lat="37.29493833" lon="-3.55527667">
        <ele>1136.0</ele>
        <time>2022-11-13T12:29:37.000Z</time>
      </trkpt>
      <trkpt lat="37.294945" lon="-3.555265">
        <ele>1136.0</ele>
        <time>2022-11-13T12:29:38.000Z</time>
      </trkpt>
      <trkpt lat="37.29495167" lon="-3.55525167">
        <ele>1136.0</ele>
        <time>2022-11-13T12:29:39.000Z</time>
      </trkpt>
      <trkpt lat="37.29495667" lon="-3.55523833">
        <ele>1137.0</ele>
        <time>2022-11-13T12:29:40.000Z</time>
      </trkpt>
      <trkpt lat="37.29496167" lon="-3.555225">
        <ele>1137.0</ele>
        <time>2022-11-13T12:29:41.000Z</time>
      </trkpt>
      <trkpt lat="37.29496667" lon="-3.55521333">
        <ele>1137.0</ele>
        <time>2022-11-13T12:29:42.000Z</time>
      </trkpt>
      <trkpt lat="37.29497167" lon="-3.5552">
        <ele>1137.0</ele>
        <time>2022-11-13T12:29:43.000Z</time>
      </trkpt>
      <trkpt lat="37.29497833" lon="-3.55518667">
        <ele>1137.0</ele>
        <time>2022-11-13T12:29:44.000Z</time>
      </trkpt>
      <trkpt lat="37.294985" lon="-3.555175">
        <ele>1137.0</ele>
        <time>2022-11-13T12:29:45.000Z</time>
      </trkpt>
      <trkpt lat="37.29499167" lon="-3.55516333">
        <ele>1137.0</ele>
        <time>2022-11-13T12:29:46.000Z</time>
      </trkpt>
      <trkpt lat="37.29499833" lon="-3.55515">
        <ele>1137.0</ele>
        <time>2022-11-13T12:29:47.000Z</time>
      </trkpt>
      <trkpt lat="37.29500667" lon="-3.55514">
        <ele>1137.0</ele>
        <time>2022-11-13T12:29:48.000Z</time>
      </trkpt>
      <trkpt lat="37.295015" lon="-3.55513">
        <ele>1137.0</ele>
        <time>2022-11-13T12:29:49.000Z</time>
      </trkpt>
      <trkpt lat="37.29502333" lon="-3.55512">
        <ele>1137.0</ele>
        <time>2022-11-13T12:29:50.000Z</time>
      </trkpt>
      <trkpt lat="37.29503333" lon="-3.55510833">
        <ele>1137.0</ele>
        <time>2022-11-13T12:29:51.000Z</time>
      </trkpt>
      <trkpt lat="37.29504167" lon="-3.55509667">
        <ele>1138.0</ele>
        <time>2022-11-13T12:29:52.000Z</time>
      </trkpt>
      <trkpt lat="37.29505" lon="-3.55508333">
        <ele>1138.0</ele>
        <time>2022-11-13T12:29:53.000Z</time>
      </trkpt>
      <trkpt lat="37.29505833" lon="-3.55507333">
        <ele>1138.0</ele>
        <time>2022-11-13T12:29:54.000Z</time>
      </trkpt>
      <trkpt lat="37.29506833" lon="-3.55506333">
        <ele>1138.0</ele>
        <time>2022-11-13T12:29:55.000Z</time>
      </trkpt>
      <trkpt lat="37.29507667" lon="-3.55505333">
        <ele>1138.0</ele>
        <time>2022-11-13T12:29:56.000Z</time>
      </trkpt>
      <trkpt lat="37.295085" lon="-3.55504333">
        <ele>1138.0</ele>
        <time>2022-11-13T12:29:57.000Z</time>
      </trkpt>
      <trkpt lat="37.295095" lon="-3.55503333">
        <ele>1138.0</ele>
        <time>2022-11-13T12:29:58.000Z</time>
      </trkpt>
      <trkpt lat="37.29510667" lon="-3.55502333">
        <ele>1139.0</ele>
        <time>2022-11-13T12:29:59.000Z</time>
      </trkpt>
      <trkpt lat="37.295115" lon="-3.55501167">
        <ele>1139.0</ele>
        <time>2022-11-13T12:30:00.000Z</time>
      </trkpt>
      <trkpt lat="37.29512667" lon="-3.55500167">
        <ele>1139.0</ele>
        <time>2022-11-13T12:30:01.000Z</time>
      </trkpt>
      <trkpt lat="37.29513667" lon="-3.55499">
        <ele>1139.0</ele>
        <time>2022-11-13T12:30:02.000Z</time>
      </trkpt>
      <trkpt lat="37.29514833" lon="-3.55497833">
        <ele>1140.0</ele>
        <time>2022-11-13T12:30:03.000Z</time>
      </trkpt>
      <trkpt lat="37.29516" lon="-3.55496833">
        <ele>1140.0</ele>
        <time>2022-11-13T12:30:04.000Z</time>
      </trkpt>
      <trkpt lat="37.29517167" lon="-3.55496">
        <ele>1140.0</ele>
        <time>2022-11-13T12:30:05.000Z</time>
      </trkpt>
      <trkpt lat="37.29518167" lon="-3.55495333">
        <ele>1140.0</ele>
        <time>2022-11-13T12:30:06.000Z</time>
      </trkpt>
      <trkpt lat="37.29519167" lon="-3.554945">
        <ele>1141.0</ele>
        <time>2022-11-13T12:30:07.000Z</time>
      </trkpt>
      <trkpt lat="37.29520333" lon="-3.55493667">
        <ele>1141.0</ele>
        <time>2022-11-13T12:30:08.000Z</time>
      </trkpt>
      <trkpt lat="37.29521333" lon="-3.55493">
        <ele>1141.0</ele>
        <time>2022-11-13T12:30:09.000Z</time>
      </trkpt>
      <trkpt lat="37.29522333" lon="-3.55492333">
        <ele>1141.0</ele>
        <time>2022-11-13T12:30:10.000Z</time>
      </trkpt>
      <trkpt lat="37.29523333" lon="-3.55491333">
        <ele>1141.0</ele>
        <time>2022-11-13T12:30:11.000Z</time>
      </trkpt>
      <trkpt lat="37.295245" lon="-3.55490667">
        <ele>1142.0</ele>
        <time>2022-11-13T12:30:12.000Z</time>
      </trkpt>
      <trkpt lat="37.295255" lon="-3.55490167">
        <ele>1142.0</ele>
        <time>2022-11-13T12:30:13.000Z</time>
      </trkpt>
      <trkpt lat="37.295265" lon="-3.55489333">
        <ele>1142.0</ele>
        <time>2022-11-13T12:30:14.000Z</time>
      </trkpt>
      <trkpt lat="37.29527667" lon="-3.55488833">
        <ele>1142.0</ele>
        <time>2022-11-13T12:30:15.000Z</time>
      </trkpt>
      <trkpt lat="37.29528667" lon="-3.55488">
        <ele>1142.0</ele>
        <time>2022-11-13T12:30:16.000Z</time>
      </trkpt>
      <trkpt lat="37.29529667" lon="-3.55487333">
        <ele>1142.0</ele>
        <time>2022-11-13T12:30:17.000Z</time>
      </trkpt>
      <trkpt lat="37.29530833" lon="-3.554865">
        <ele>1143.0</ele>
        <time>2022-11-13T12:30:18.000Z</time>
      </trkpt>
      <trkpt lat="37.29531833" lon="-3.55485833">
        <ele>1143.0</ele>
        <time>2022-11-13T12:30:19.000Z</time>
      </trkpt>
      <trkpt lat="37.29533" lon="-3.55485167">
        <ele>1143.0</ele>
        <time>2022-11-13T12:30:20.000Z</time>
      </trkpt>
      <trkpt lat="37.29534" lon="-3.554845">
        <ele>1143.0</ele>
        <time>2022-11-13T12:30:21.000Z</time>
      </trkpt>
      <trkpt lat="37.29534833" lon="-3.55483833">
        <ele>1143.0</ele>
        <time>2022-11-13T12:30:22.000Z</time>
      </trkpt>
      <trkpt lat="37.29535833" lon="-3.55483">
        <ele>1143.0</ele>
        <time>2022-11-13T12:30:23.000Z</time>
      </trkpt>
      <trkpt lat="37.29536833" lon="-3.55482">
        <ele>1143.0</ele>
        <time>2022-11-13T12:30:24.000Z</time>
      </trkpt>
      <trkpt lat="37.29537833" lon="-3.55481">
        <ele>1144.0</ele>
        <time>2022-11-13T12:30:25.000Z</time>
      </trkpt>
      <trkpt lat="37.29538667" lon="-3.5548">
        <ele>1144.0</ele>
        <time>2022-11-13T12:30:26.000Z</time>
      </trkpt>
      <trkpt lat="37.295395" lon="-3.55478833">
        <ele>1144.0</ele>
        <time>2022-11-13T12:30:27.000Z</time>
      </trkpt>
      <trkpt lat="37.295405" lon="-3.55478">
        <ele>1144.0</ele>
        <time>2022-11-13T12:30:28.000Z</time>
      </trkpt>
      <trkpt lat="37.29541333" lon="-3.55477167">
        <ele>1144.0</ele>
        <time>2022-11-13T12:30:29.000Z</time>
      </trkpt>
      <trkpt lat="37.29542333" lon="-3.55476167">
        <ele>1145.0</ele>
        <time>2022-11-13T12:30:30.000Z</time>
      </trkpt>
      <trkpt lat="37.29543333" lon="-3.55475">
        <ele>1145.0</ele>
        <time>2022-11-13T12:30:31.000Z</time>
      </trkpt>
      <trkpt lat="37.29544167" lon="-3.55473833">
        <ele>1145.0</ele>
        <time>2022-11-13T12:30:32.000Z</time>
      </trkpt>
      <trkpt lat="37.29544833" lon="-3.55472667">
        <ele>1145.0</ele>
        <time>2022-11-13T12:30:33.000Z</time>
      </trkpt>
      <trkpt lat="37.29545833" lon="-3.554715">
        <ele>1145.0</ele>
        <time>2022-11-13T12:30:34.000Z</time>
      </trkpt>
      <trkpt lat="37.29546667" lon="-3.55470333">
        <ele>1145.0</ele>
        <time>2022-11-13T12:30:35.000Z</time>
      </trkpt>
      <trkpt lat="37.295475" lon="-3.55469167">
        <ele>1145.0</ele>
        <time>2022-11-13T12:30:36.000Z</time>
      </trkpt>
      <trkpt lat="37.295485" lon="-3.55468">
        <ele>1146.0</ele>
        <time>2022-11-13T12:30:37.000Z</time>
      </trkpt>
      <trkpt lat="37.29549167" lon="-3.55466833">
        <ele>1146.0</ele>
        <time>2022-11-13T12:30:38.000Z</time>
      </trkpt>
      <trkpt lat="37.2955" lon="-3.55465667">
        <ele>1146.0</ele>
        <time>2022-11-13T12:30:39.000Z</time>
      </trkpt>
      <trkpt lat="37.29550833" lon="-3.554645">
        <ele>1146.0</ele>
        <time>2022-11-13T12:30:40.000Z</time>
      </trkpt>
      <trkpt lat="37.295515" lon="-3.55463">
        <ele>1146.0</ele>
        <time>2022-11-13T12:30:41.000Z</time>
      </trkpt>
      <trkpt lat="37.29552333" lon="-3.55461667">
        <ele>1146.0</ele>
        <time>2022-11-13T12:30:42.000Z</time>
      </trkpt>
      <trkpt lat="37.29553167" lon="-3.55460333">
        <ele>1146.0</ele>
        <time>2022-11-13T12:30:43.000Z</time>
      </trkpt>
      <trkpt lat="37.29554" lon="-3.55459">
        <ele>1146.0</ele>
        <time>2022-11-13T12:30:44.000Z</time>
      </trkpt>
      <trkpt lat="37.29554833" lon="-3.55457833">
        <ele>1146.0</ele>
        <time>2022-11-13T12:30:45.000Z</time>
      </trkpt>
      <trkpt lat="37.29555667" lon="-3.55456667">
        <ele>1146.0</ele>
        <time>2022-11-13T12:30:46.000Z</time>
      </trkpt>
      <trkpt lat="37.29556333" lon="-3.554555">
        <ele>1146.0</ele>
        <time>2022-11-13T12:30:47.000Z</time>
      </trkpt>
      <trkpt lat="37.29557167" lon="-3.55454333">
        <ele>1146.0</ele>
        <time>2022-11-13T12:30:48.000Z</time>
      </trkpt>
      <trkpt lat="37.29557833" lon="-3.55453167">
        <ele>1146.0</ele>
        <time>2022-11-13T12:30:49.000Z</time>
      </trkpt>
      <trkpt lat="37.295585" lon="-3.55451833">
        <ele>1146.0</ele>
        <time>2022-11-13T12:30:50.000Z</time>
      </trkpt>
      <trkpt lat="37.29559167" lon="-3.554505">
        <ele>1146.0</ele>
        <time>2022-11-13T12:30:51.000Z</time>
      </trkpt>
      <trkpt lat="37.2956" lon="-3.55449167">
        <ele>1146.0</ele>
        <time>2022-11-13T12:30:52.000Z</time>
      </trkpt>
      <trkpt lat="37.29560667" lon="-3.55448">
        <ele>1146.0</ele>
        <time>2022-11-13T12:30:53.000Z</time>
      </trkpt>
      <trkpt lat="37.295615" lon="-3.55446667">
        <ele>1146.0</ele>
        <time>2022-11-13T12:30:54.000Z</time>
      </trkpt>
      <trkpt lat="37.29562333" lon="-3.55445333">
        <ele>1147.0</ele>
        <time>2022-11-13T12:30:55.000Z</time>
      </trkpt>
      <trkpt lat="37.29563167" lon="-3.55444167">
        <ele>1147.0</ele>
        <time>2022-11-13T12:30:56.000Z</time>
      </trkpt>
      <trkpt lat="37.29564" lon="-3.55443">
        <ele>1147.0</ele>
        <time>2022-11-13T12:30:57.000Z</time>
      </trkpt>
      <trkpt lat="37.29564833" lon="-3.55441833">
        <ele>1147.0</ele>
        <time>2022-11-13T12:30:58.000Z</time>
      </trkpt>
      <trkpt lat="37.295655" lon="-3.554405">
        <ele>1147.0</ele>
        <time>2022-11-13T12:30:59.000Z</time>
      </trkpt>
      <trkpt lat="37.29566333" lon="-3.55439333">
        <ele>1147.0</ele>
        <time>2022-11-13T12:31:00.000Z</time>
      </trkpt>
      <trkpt lat="37.29567167" lon="-3.55438">
        <ele>1147.0</ele>
        <time>2022-11-13T12:31:01.000Z</time>
      </trkpt>
      <trkpt lat="37.29568" lon="-3.55436667">
        <ele>1147.0</ele>
        <time>2022-11-13T12:31:02.000Z</time>
      </trkpt>
      <trkpt lat="37.29568667" lon="-3.554355">
        <ele>1147.0</ele>
        <time>2022-11-13T12:31:03.000Z</time>
      </trkpt>
      <trkpt lat="37.29569333" lon="-3.55434167">
        <ele>1147.0</ele>
        <time>2022-11-13T12:31:04.000Z</time>
      </trkpt>
      <trkpt lat="37.29570167" lon="-3.55432833">
        <ele>1147.0</ele>
        <time>2022-11-13T12:31:05.000Z</time>
      </trkpt>
      <trkpt lat="37.29570833" lon="-3.554315">
        <ele>1147.0</ele>
        <time>2022-11-13T12:31:06.000Z</time>
      </trkpt>
      <trkpt lat="37.29571333" lon="-3.554305">
        <ele>1147.0</ele>
        <time>2022-11-13T12:31:07.000Z</time>
      </trkpt>
      <trkpt lat="37.29572" lon="-3.55429167">
        <ele>1147.0</ele>
        <time>2022-11-13T12:31:08.000Z</time>
      </trkpt>
      <trkpt lat="37.29572667" lon="-3.55427833">
        <ele>1147.0</ele>
        <time>2022-11-13T12:31:09.000Z</time>
      </trkpt>
      <trkpt lat="37.29573333" lon="-3.55426667">
        <ele>1147.0</ele>
        <time>2022-11-13T12:31:10.000Z</time>
      </trkpt>
      <trkpt lat="37.29573667" lon="-3.55425">
        <ele>1147.0</ele>
        <time>2022-11-13T12:31:11.000Z</time>
      </trkpt>
      <trkpt lat="37.29574167" lon="-3.554235">
        <ele>1147.0</ele>
        <time>2022-11-13T12:31:12.000Z</time>
      </trkpt>
      <trkpt lat="37.29574833" lon="-3.55421833">
        <ele>1147.0</ele>
        <time>2022-11-13T12:31:13.000Z</time>
      </trkpt>
      <trkpt lat="37.29575167" lon="-3.55420333">
        <ele>1147.0</ele>
        <time>2022-11-13T12:31:14.000Z</time>
      </trkpt>
      <trkpt lat="37.295755" lon="-3.55419">
        <ele>1147.0</ele>
        <time>2022-11-13T12:31:15.000Z</time>
      </trkpt>
      <trkpt lat="37.29575833" lon="-3.55417333">
        <ele>1147.0</ele>
        <time>2022-11-13T12:31:16.000Z</time>
      </trkpt>
      <trkpt lat="37.29576167" lon="-3.55415667">
        <ele>1147.0</ele>
        <time>2022-11-13T12:31:17.000Z</time>
      </trkpt>
      <trkpt lat="37.29576667" lon="-3.55414">
        <ele>1147.0</ele>
        <time>2022-11-13T12:31:18.000Z</time>
      </trkpt>
      <trkpt lat="37.29577" lon="-3.55412333">
        <ele>1147.0</ele>
        <time>2022-11-13T12:31:19.000Z</time>
      </trkpt>
      <trkpt lat="37.29577333" lon="-3.55410667">
        <ele>1147.0</ele>
        <time>2022-11-13T12:31:20.000Z</time>
      </trkpt>
      <trkpt lat="37.29577667" lon="-3.55409167">
        <ele>1147.0</ele>
        <time>2022-11-13T12:31:21.000Z</time>
      </trkpt>
      <trkpt lat="37.29577833" lon="-3.554075">
        <ele>1147.0</ele>
        <time>2022-11-13T12:31:22.000Z</time>
      </trkpt>
      <trkpt lat="37.29578" lon="-3.55405833">
        <ele>1147.0</ele>
        <time>2022-11-13T12:31:23.000Z</time>
      </trkpt>
      <trkpt lat="37.29578167" lon="-3.55404333">
        <ele>1147.0</ele>
        <time>2022-11-13T12:31:24.000Z</time>
      </trkpt>
      <trkpt lat="37.29578333" lon="-3.55402833">
        <ele>1147.0</ele>
        <time>2022-11-13T12:31:25.000Z</time>
      </trkpt>
      <trkpt lat="37.29578333" lon="-3.55401167">
        <ele>1147.0</ele>
        <time>2022-11-13T12:31:26.000Z</time>
      </trkpt>
      <trkpt lat="37.295785" lon="-3.55399833">
        <ele>1147.0</ele>
        <time>2022-11-13T12:31:27.000Z</time>
      </trkpt>
      <trkpt lat="37.29578333" lon="-3.55398333">
        <ele>1147.0</ele>
        <time>2022-11-13T12:31:28.000Z</time>
      </trkpt>
      <trkpt lat="37.29578333" lon="-3.55396667">
        <ele>1147.0</ele>
        <time>2022-11-13T12:31:29.000Z</time>
      </trkpt>
      <trkpt lat="37.29578167" lon="-3.55394833">
        <ele>1147.0</ele>
        <time>2022-11-13T12:31:30.000Z</time>
      </trkpt>
      <trkpt lat="37.29578" lon="-3.55393333">
        <ele>1147.0</ele>
        <time>2022-11-13T12:31:31.000Z</time>
      </trkpt>
      <trkpt lat="37.29577833" lon="-3.55391667">
        <ele>1147.0</ele>
        <time>2022-11-13T12:31:32.000Z</time>
      </trkpt>
      <trkpt lat="37.29577667" lon="-3.55389833">
        <ele>1147.0</ele>
        <time>2022-11-13T12:31:33.000Z</time>
      </trkpt>
      <trkpt lat="37.29577333" lon="-3.55388">
        <ele>1147.0</ele>
        <time>2022-11-13T12:31:34.000Z</time>
      </trkpt>
      <trkpt lat="37.29577" lon="-3.55386167">
        <ele>1147.0</ele>
        <time>2022-11-13T12:31:35.000Z</time>
      </trkpt>
      <trkpt lat="37.29576667" lon="-3.553845">
        <ele>1147.0</ele>
        <time>2022-11-13T12:31:36.000Z</time>
      </trkpt>
      <trkpt lat="37.295765" lon="-3.55382667">
        <ele>1147.0</ele>
        <time>2022-11-13T12:31:37.000Z</time>
      </trkpt>
      <trkpt lat="37.29576667" lon="-3.55380833">
        <ele>1147.0</ele>
        <time>2022-11-13T12:31:38.000Z</time>
      </trkpt>
      <trkpt lat="37.295765" lon="-3.55379167">
        <ele>1147.0</ele>
        <time>2022-11-13T12:31:39.000Z</time>
      </trkpt>
      <trkpt lat="37.295765" lon="-3.553775">
        <ele>1147.0</ele>
        <time>2022-11-13T12:31:40.000Z</time>
      </trkpt>
      <trkpt lat="37.29576667" lon="-3.55375667">
        <ele>1147.0</ele>
        <time>2022-11-13T12:31:41.000Z</time>
      </trkpt>
      <trkpt lat="37.29576667" lon="-3.55373833">
        <ele>1147.0</ele>
        <time>2022-11-13T12:31:42.000Z</time>
      </trkpt>
      <trkpt lat="37.29576833" lon="-3.55372167">
        <ele>1147.0</ele>
        <time>2022-11-13T12:31:43.000Z</time>
      </trkpt>
      <trkpt lat="37.29577" lon="-3.55370333">
        <ele>1147.0</ele>
        <time>2022-11-13T12:31:44.000Z</time>
      </trkpt>
      <trkpt lat="37.29577" lon="-3.55368667">
        <ele>1147.0</ele>
        <time>2022-11-13T12:31:45.000Z</time>
      </trkpt>
      <trkpt lat="37.29577" lon="-3.55367">
        <ele>1147.0</ele>
        <time>2022-11-13T12:31:46.000Z</time>
      </trkpt>
      <trkpt lat="37.29577167" lon="-3.55365">
        <ele>1147.0</ele>
        <time>2022-11-13T12:31:47.000Z</time>
      </trkpt>
      <trkpt lat="37.29577333" lon="-3.55363">
        <ele>1147.0</ele>
        <time>2022-11-13T12:31:48.000Z</time>
      </trkpt>
      <trkpt lat="37.29577667" lon="-3.55361167">
        <ele>1147.0</ele>
        <time>2022-11-13T12:31:49.000Z</time>
      </trkpt>
      <trkpt lat="37.29578167" lon="-3.55359167">
        <ele>1148.0</ele>
        <time>2022-11-13T12:31:50.000Z</time>
      </trkpt>
      <trkpt lat="37.29578667" lon="-3.553575">
        <ele>1148.0</ele>
        <time>2022-11-13T12:31:51.000Z</time>
      </trkpt>
      <trkpt lat="37.29579167" lon="-3.55355833">
        <ele>1148.0</ele>
        <time>2022-11-13T12:31:52.000Z</time>
      </trkpt>
      <trkpt lat="37.29579667" lon="-3.55354">
        <ele>1148.0</ele>
        <time>2022-11-13T12:31:53.000Z</time>
      </trkpt>
      <trkpt lat="37.29580167" lon="-3.55352167">
        <ele>1148.0</ele>
        <time>2022-11-13T12:31:54.000Z</time>
      </trkpt>
      <trkpt lat="37.29580667" lon="-3.553505">
        <ele>1148.0</ele>
        <time>2022-11-13T12:31:55.000Z</time>
      </trkpt>
      <trkpt lat="37.29581333" lon="-3.55348833">
        <ele>1148.0</ele>
        <time>2022-11-13T12:31:56.000Z</time>
      </trkpt>
      <trkpt lat="37.29581833" lon="-3.55347333">
        <ele>1148.0</ele>
        <time>2022-11-13T12:31:57.000Z</time>
      </trkpt>
      <trkpt lat="37.295825" lon="-3.55345667">
        <ele>1148.0</ele>
        <time>2022-11-13T12:31:58.000Z</time>
      </trkpt>
      <trkpt lat="37.29583" lon="-3.55344167">
        <ele>1148.0</ele>
        <time>2022-11-13T12:31:59.000Z</time>
      </trkpt>
      <trkpt lat="37.295835" lon="-3.553425">
        <ele>1148.0</ele>
        <time>2022-11-13T12:32:00.000Z</time>
      </trkpt>
      <trkpt lat="37.29584167" lon="-3.55340833">
        <ele>1148.0</ele>
        <time>2022-11-13T12:32:01.000Z</time>
      </trkpt>
      <trkpt lat="37.29584667" lon="-3.55339333">
        <ele>1148.0</ele>
        <time>2022-11-13T12:32:02.000Z</time>
      </trkpt>
      <trkpt lat="37.29585167" lon="-3.55337833">
        <ele>1148.0</ele>
        <time>2022-11-13T12:32:03.000Z</time>
      </trkpt>
      <trkpt lat="37.29585833" lon="-3.55336333">
        <ele>1148.0</ele>
        <time>2022-11-13T12:32:04.000Z</time>
      </trkpt>
      <trkpt lat="37.29586333" lon="-3.55335">
        <ele>1148.0</ele>
        <time>2022-11-13T12:32:05.000Z</time>
      </trkpt>
      <trkpt lat="37.29586833" lon="-3.553335">
        <ele>1148.0</ele>
        <time>2022-11-13T12:32:06.000Z</time>
      </trkpt>
      <trkpt lat="37.29587167" lon="-3.55331833">
        <ele>1148.0</ele>
        <time>2022-11-13T12:32:07.000Z</time>
      </trkpt>
      <trkpt lat="37.29587667" lon="-3.55330333">
        <ele>1148.0</ele>
        <time>2022-11-13T12:32:08.000Z</time>
      </trkpt>
      <trkpt lat="37.29588" lon="-3.55328667">
        <ele>1148.0</ele>
        <time>2022-11-13T12:32:09.000Z</time>
      </trkpt>
      <trkpt lat="37.295885" lon="-3.55327">
        <ele>1148.0</ele>
        <time>2022-11-13T12:32:10.000Z</time>
      </trkpt>
      <trkpt lat="37.29589" lon="-3.55325167">
        <ele>1148.0</ele>
        <time>2022-11-13T12:32:11.000Z</time>
      </trkpt>
      <trkpt lat="37.29589333" lon="-3.553235">
        <ele>1148.0</ele>
        <time>2022-11-13T12:32:12.000Z</time>
      </trkpt>
      <trkpt lat="37.29589667" lon="-3.55321667">
        <ele>1148.0</ele>
        <time>2022-11-13T12:32:13.000Z</time>
      </trkpt>
      <trkpt lat="37.2959" lon="-3.5532">
        <ele>1148.0</ele>
        <time>2022-11-13T12:32:14.000Z</time>
      </trkpt>
      <trkpt lat="37.295905" lon="-3.55318167">
        <ele>1148.0</ele>
        <time>2022-11-13T12:32:15.000Z</time>
      </trkpt>
      <trkpt lat="37.29590833" lon="-3.55316167">
        <ele>1148.0</ele>
        <time>2022-11-13T12:32:16.000Z</time>
      </trkpt>
      <trkpt lat="37.295915" lon="-3.553145">
        <ele>1148.0</ele>
        <time>2022-11-13T12:32:17.000Z</time>
      </trkpt>
      <trkpt lat="37.29592" lon="-3.55312667">
        <ele>1148.0</ele>
        <time>2022-11-13T12:32:18.000Z</time>
      </trkpt>
      <trkpt lat="37.295925" lon="-3.55311167">
        <ele>1148.0</ele>
        <time>2022-11-13T12:32:19.000Z</time>
      </trkpt>
      <trkpt lat="37.29592833" lon="-3.553095">
        <ele>1148.0</ele>
        <time>2022-11-13T12:32:20.000Z</time>
      </trkpt>
      <trkpt lat="37.29593333" lon="-3.55307667">
        <ele>1148.0</ele>
        <time>2022-11-13T12:32:21.000Z</time>
      </trkpt>
      <trkpt lat="37.29593667" lon="-3.55306">
        <ele>1148.0</ele>
        <time>2022-11-13T12:32:22.000Z</time>
      </trkpt>
      <trkpt lat="37.29594167" lon="-3.55304167">
        <ele>1148.0</ele>
        <time>2022-11-13T12:32:23.000Z</time>
      </trkpt>
      <trkpt lat="37.295945" lon="-3.553025">
        <ele>1148.0</ele>
        <time>2022-11-13T12:32:24.000Z</time>
      </trkpt>
      <trkpt lat="37.29595" lon="-3.55300833">
        <ele>1148.0</ele>
        <time>2022-11-13T12:32:25.000Z</time>
      </trkpt>
      <trkpt lat="37.295955" lon="-3.55299">
        <ele>1148.0</ele>
        <time>2022-11-13T12:32:26.000Z</time>
      </trkpt>
      <trkpt lat="37.29596" lon="-3.55297167">
        <ele>1148.0</ele>
        <time>2022-11-13T12:32:27.000Z</time>
      </trkpt>
      <trkpt lat="37.29596667" lon="-3.55295833">
        <ele>1148.0</ele>
        <time>2022-11-13T12:32:28.000Z</time>
      </trkpt>
      <trkpt lat="37.29597" lon="-3.55294167">
        <ele>1148.0</ele>
        <time>2022-11-13T12:32:29.000Z</time>
      </trkpt>
      <trkpt lat="37.29597667" lon="-3.55292667">
        <ele>1148.0</ele>
        <time>2022-11-13T12:32:30.000Z</time>
      </trkpt>
      <trkpt lat="37.29598333" lon="-3.55291">
        <ele>1148.0</ele>
        <time>2022-11-13T12:32:31.000Z</time>
      </trkpt>
      <trkpt lat="37.29599" lon="-3.55289333">
        <ele>1148.0</ele>
        <time>2022-11-13T12:32:32.000Z</time>
      </trkpt>
      <trkpt lat="37.295995" lon="-3.55287667">
        <ele>1148.0</ele>
        <time>2022-11-13T12:32:33.000Z</time>
      </trkpt>
      <trkpt lat="37.29600167" lon="-3.55286167">
        <ele>1148.0</ele>
        <time>2022-11-13T12:32:34.000Z</time>
      </trkpt>
      <trkpt lat="37.29601" lon="-3.55284333">
        <ele>1148.0</ele>
        <time>2022-11-13T12:32:35.000Z</time>
      </trkpt>
      <trkpt lat="37.29601667" lon="-3.552825">
        <ele>1148.0</ele>
        <time>2022-11-13T12:32:36.000Z</time>
      </trkpt>
      <trkpt lat="37.296025" lon="-3.55281">
        <ele>1148.0</ele>
        <time>2022-11-13T12:32:37.000Z</time>
      </trkpt>
      <trkpt lat="37.29603333" lon="-3.552795">
        <ele>1148.0</ele>
        <time>2022-11-13T12:32:38.000Z</time>
      </trkpt>
      <trkpt lat="37.29604333" lon="-3.55278">
        <ele>1148.0</ele>
        <time>2022-11-13T12:32:39.000Z</time>
      </trkpt>
      <trkpt lat="37.29605333" lon="-3.55276667">
        <ele>1148.0</ele>
        <time>2022-11-13T12:32:40.000Z</time>
      </trkpt>
      <trkpt lat="37.29606333" lon="-3.55275167">
        <ele>1148.0</ele>
        <time>2022-11-13T12:32:41.000Z</time>
      </trkpt>
      <trkpt lat="37.29607333" lon="-3.55273667">
        <ele>1148.0</ele>
        <time>2022-11-13T12:32:42.000Z</time>
      </trkpt>
      <trkpt lat="37.296085" lon="-3.55272167">
        <ele>1148.0</ele>
        <time>2022-11-13T12:32:43.000Z</time>
      </trkpt>
      <trkpt lat="37.296095" lon="-3.552705">
        <ele>1148.0</ele>
        <time>2022-11-13T12:32:44.000Z</time>
      </trkpt>
      <trkpt lat="37.296105" lon="-3.55269167">
        <ele>1148.0</ele>
        <time>2022-11-13T12:32:45.000Z</time>
      </trkpt>
      <trkpt lat="37.296115" lon="-3.55267833">
        <ele>1148.0</ele>
        <time>2022-11-13T12:32:46.000Z</time>
      </trkpt>
      <trkpt lat="37.29612667" lon="-3.552665">
        <ele>1148.0</ele>
        <time>2022-11-13T12:32:47.000Z</time>
      </trkpt>
      <trkpt lat="37.29613667" lon="-3.55265">
        <ele>1149.0</ele>
        <time>2022-11-13T12:32:48.000Z</time>
      </trkpt>
      <trkpt lat="37.29614667" lon="-3.552635">
        <ele>1149.0</ele>
        <time>2022-11-13T12:32:49.000Z</time>
      </trkpt>
      <trkpt lat="37.29615667" lon="-3.55262">
        <ele>1149.0</ele>
        <time>2022-11-13T12:32:50.000Z</time>
      </trkpt>
      <trkpt lat="37.29616667" lon="-3.55260667">
        <ele>1149.0</ele>
        <time>2022-11-13T12:32:51.000Z</time>
      </trkpt>
      <trkpt lat="37.29617667" lon="-3.55259167">
        <ele>1149.0</ele>
        <time>2022-11-13T12:32:52.000Z</time>
      </trkpt>
      <trkpt lat="37.29618667" lon="-3.55257833">
        <ele>1149.0</ele>
        <time>2022-11-13T12:32:53.000Z</time>
      </trkpt>
      <trkpt lat="37.29619667" lon="-3.55256333">
        <ele>1149.0</ele>
        <time>2022-11-13T12:32:54.000Z</time>
      </trkpt>
      <trkpt lat="37.29620833" lon="-3.55255">
        <ele>1149.0</ele>
        <time>2022-11-13T12:32:55.000Z</time>
      </trkpt>
      <trkpt lat="37.29621833" lon="-3.55253667">
        <ele>1149.0</ele>
        <time>2022-11-13T12:32:56.000Z</time>
      </trkpt>
      <trkpt lat="37.29622833" lon="-3.552525">
        <ele>1149.0</ele>
        <time>2022-11-13T12:32:57.000Z</time>
      </trkpt>
      <trkpt lat="37.29624" lon="-3.55251167">
        <ele>1149.0</ele>
        <time>2022-11-13T12:32:58.000Z</time>
      </trkpt>
      <trkpt lat="37.29625" lon="-3.55249833">
        <ele>1149.0</ele>
        <time>2022-11-13T12:32:59.000Z</time>
      </trkpt>
      <trkpt lat="37.29626" lon="-3.552485">
        <ele>1149.0</ele>
        <time>2022-11-13T12:33:00.000Z</time>
      </trkpt>
      <trkpt lat="37.29627" lon="-3.55247167">
        <ele>1149.0</ele>
        <time>2022-11-13T12:33:01.000Z</time>
      </trkpt>
      <trkpt lat="37.29628167" lon="-3.55246">
        <ele>1149.0</ele>
        <time>2022-11-13T12:33:02.000Z</time>
      </trkpt>
      <trkpt lat="37.29629167" lon="-3.55244667">
        <ele>1149.0</ele>
        <time>2022-11-13T12:33:03.000Z</time>
      </trkpt>
      <trkpt lat="37.29630333" lon="-3.55243333">
        <ele>1149.0</ele>
        <time>2022-11-13T12:33:04.000Z</time>
      </trkpt>
      <trkpt lat="37.29631333" lon="-3.55242">
        <ele>1149.0</ele>
        <time>2022-11-13T12:33:05.000Z</time>
      </trkpt>
      <trkpt lat="37.29632333" lon="-3.552405">
        <ele>1149.0</ele>
        <time>2022-11-13T12:33:06.000Z</time>
      </trkpt>
      <trkpt lat="37.29633333" lon="-3.55239167">
        <ele>1149.0</ele>
        <time>2022-11-13T12:33:07.000Z</time>
      </trkpt>
      <trkpt lat="37.29634333" lon="-3.55238">
        <ele>1149.0</ele>
        <time>2022-11-13T12:33:08.000Z</time>
      </trkpt>
      <trkpt lat="37.296355" lon="-3.55236667">
        <ele>1149.0</ele>
        <time>2022-11-13T12:33:09.000Z</time>
      </trkpt>
      <trkpt lat="37.29636667" lon="-3.552355">
        <ele>1149.0</ele>
        <time>2022-11-13T12:33:10.000Z</time>
      </trkpt>
      <trkpt lat="37.29637667" lon="-3.552345">
        <ele>1150.0</ele>
        <time>2022-11-13T12:33:11.000Z</time>
      </trkpt>
      <trkpt lat="37.29638667" lon="-3.55233333">
        <ele>1150.0</ele>
        <time>2022-11-13T12:33:12.000Z</time>
      </trkpt>
      <trkpt lat="37.29639833" lon="-3.55232167">
        <ele>1150.0</ele>
        <time>2022-11-13T12:33:13.000Z</time>
      </trkpt>
      <trkpt lat="37.29641" lon="-3.55231">
        <ele>1150.0</ele>
        <time>2022-11-13T12:33:14.000Z</time>
      </trkpt>
      <trkpt lat="37.29642" lon="-3.55229667">
        <ele>1150.0</ele>
        <time>2022-11-13T12:33:15.000Z</time>
      </trkpt>
      <trkpt lat="37.29643" lon="-3.552285">
        <ele>1150.0</ele>
        <time>2022-11-13T12:33:16.000Z</time>
      </trkpt>
      <trkpt lat="37.29644167" lon="-3.55227167">
        <ele>1150.0</ele>
        <time>2022-11-13T12:33:17.000Z</time>
      </trkpt>
      <trkpt lat="37.29645" lon="-3.55225833">
        <ele>1150.0</ele>
        <time>2022-11-13T12:33:18.000Z</time>
      </trkpt>
      <trkpt lat="37.29646" lon="-3.552245">
        <ele>1150.0</ele>
        <time>2022-11-13T12:33:19.000Z</time>
      </trkpt>
      <trkpt lat="37.29646833" lon="-3.55223167">
        <ele>1150.0</ele>
        <time>2022-11-13T12:33:20.000Z</time>
      </trkpt>
      <trkpt lat="37.29647667" lon="-3.55221833">
        <ele>1150.0</ele>
        <time>2022-11-13T12:33:21.000Z</time>
      </trkpt>
      <trkpt lat="37.296485" lon="-3.55220333">
        <ele>1151.0</ele>
        <time>2022-11-13T12:33:22.000Z</time>
      </trkpt>
      <trkpt lat="37.29649167" lon="-3.55218833">
        <ele>1151.0</ele>
        <time>2022-11-13T12:33:23.000Z</time>
      </trkpt>
      <trkpt lat="37.2965" lon="-3.552175">
        <ele>1151.0</ele>
        <time>2022-11-13T12:33:24.000Z</time>
      </trkpt>
      <trkpt lat="37.29650667" lon="-3.55216167">
        <ele>1151.0</ele>
        <time>2022-11-13T12:33:25.000Z</time>
      </trkpt>
      <trkpt lat="37.296515" lon="-3.552145">
        <ele>1151.0</ele>
        <time>2022-11-13T12:33:26.000Z</time>
      </trkpt>
      <trkpt lat="37.29652167" lon="-3.55213">
        <ele>1151.0</ele>
        <time>2022-11-13T12:33:27.000Z</time>
      </trkpt>
      <trkpt lat="37.29652833" lon="-3.552115">
        <ele>1151.0</ele>
        <time>2022-11-13T12:33:28.000Z</time>
      </trkpt>
      <trkpt lat="37.29653333" lon="-3.55210167">
        <ele>1151.0</ele>
        <time>2022-11-13T12:33:29.000Z</time>
      </trkpt>
      <trkpt lat="37.29654" lon="-3.55208667">
        <ele>1151.0</ele>
        <time>2022-11-13T12:33:30.000Z</time>
      </trkpt>
      <trkpt lat="37.29654667" lon="-3.55207167">
        <ele>1151.0</ele>
        <time>2022-11-13T12:33:31.000Z</time>
      </trkpt>
      <trkpt lat="37.29655167" lon="-3.552055">
        <ele>1151.0</ele>
        <time>2022-11-13T12:33:32.000Z</time>
      </trkpt>
      <trkpt lat="37.29655833" lon="-3.55204">
        <ele>1151.0</ele>
        <time>2022-11-13T12:33:33.000Z</time>
      </trkpt>
      <trkpt lat="37.29656333" lon="-3.552025">
        <ele>1151.0</ele>
        <time>2022-11-13T12:33:34.000Z</time>
      </trkpt>
      <trkpt lat="37.29656833" lon="-3.55200833">
        <ele>1151.0</ele>
        <time>2022-11-13T12:33:35.000Z</time>
      </trkpt>
      <trkpt lat="37.29657333" lon="-3.551995">
        <ele>1151.0</ele>
        <time>2022-11-13T12:33:36.000Z</time>
      </trkpt>
      <trkpt lat="37.29657833" lon="-3.55197833">
        <ele>1151.0</ele>
        <time>2022-11-13T12:33:37.000Z</time>
      </trkpt>
      <trkpt lat="37.29658167" lon="-3.551965">
        <ele>1151.0</ele>
        <time>2022-11-13T12:33:38.000Z</time>
      </trkpt>
      <trkpt lat="37.296585" lon="-3.55194833">
        <ele>1151.0</ele>
        <time>2022-11-13T12:33:39.000Z</time>
      </trkpt>
      <trkpt lat="37.29658833" lon="-3.55193333">
        <ele>1151.0</ele>
        <time>2022-11-13T12:33:40.000Z</time>
      </trkpt>
      <trkpt lat="37.29659" lon="-3.55191833">
        <ele>1151.0</ele>
        <time>2022-11-13T12:33:41.000Z</time>
      </trkpt>
      <trkpt lat="37.29659167" lon="-3.55190333">
        <ele>1152.0</ele>
        <time>2022-11-13T12:33:42.000Z</time>
      </trkpt>
      <trkpt lat="37.29659333" lon="-3.55188833">
        <ele>1152.0</ele>
        <time>2022-11-13T12:33:43.000Z</time>
      </trkpt>
      <trkpt lat="37.29659667" lon="-3.55187333">
        <ele>1152.0</ele>
        <time>2022-11-13T12:33:44.000Z</time>
      </trkpt>
      <trkpt lat="37.29659833" lon="-3.55185833">
        <ele>1152.0</ele>
        <time>2022-11-13T12:33:45.000Z</time>
      </trkpt>
      <trkpt lat="37.2966" lon="-3.551845">
        <ele>1152.0</ele>
        <time>2022-11-13T12:33:46.000Z</time>
      </trkpt>
      <trkpt lat="37.29660333" lon="-3.55183">
        <ele>1152.0</ele>
        <time>2022-11-13T12:33:47.000Z</time>
      </trkpt>
      <trkpt lat="37.29660667" lon="-3.55181333">
        <ele>1152.0</ele>
        <time>2022-11-13T12:33:48.000Z</time>
      </trkpt>
      <trkpt lat="37.29660833" lon="-3.55179833">
        <ele>1152.0</ele>
        <time>2022-11-13T12:33:49.000Z</time>
      </trkpt>
      <trkpt lat="37.29661" lon="-3.551785">
        <ele>1152.0</ele>
        <time>2022-11-13T12:33:50.000Z</time>
      </trkpt>
      <trkpt lat="37.29661333" lon="-3.55177">
        <ele>1152.0</ele>
        <time>2022-11-13T12:33:51.000Z</time>
      </trkpt>
      <trkpt lat="37.296615" lon="-3.55175333">
        <ele>1152.0</ele>
        <time>2022-11-13T12:33:52.000Z</time>
      </trkpt>
      <trkpt lat="37.29661667" lon="-3.55173833">
        <ele>1152.0</ele>
        <time>2022-11-13T12:33:53.000Z</time>
      </trkpt>
      <trkpt lat="37.29662167" lon="-3.55172333">
        <ele>1152.0</ele>
        <time>2022-11-13T12:33:54.000Z</time>
      </trkpt>
      <trkpt lat="37.29662333" lon="-3.55170833">
        <ele>1153.0</ele>
        <time>2022-11-13T12:33:55.000Z</time>
      </trkpt>
      <trkpt lat="37.29662667" lon="-3.55169333">
        <ele>1153.0</ele>
        <time>2022-11-13T12:33:56.000Z</time>
      </trkpt>
      <trkpt lat="37.29662833" lon="-3.55168">
        <ele>1153.0</ele>
        <time>2022-11-13T12:33:57.000Z</time>
      </trkpt>
      <trkpt lat="37.29663" lon="-3.55166333">
        <ele>1153.0</ele>
        <time>2022-11-13T12:33:58.000Z</time>
      </trkpt>
      <trkpt lat="37.29663333" lon="-3.55164667">
        <ele>1153.0</ele>
        <time>2022-11-13T12:33:59.000Z</time>
      </trkpt>
      <trkpt lat="37.29663833" lon="-3.55163167">
        <ele>1152.0</ele>
        <time>2022-11-13T12:34:00.000Z</time>
      </trkpt>
      <trkpt lat="37.29664167" lon="-3.55161667">
        <ele>1152.0</ele>
        <time>2022-11-13T12:34:01.000Z</time>
      </trkpt>
      <trkpt lat="37.29664667" lon="-3.55160167">
        <ele>1152.0</ele>
        <time>2022-11-13T12:34:02.000Z</time>
      </trkpt>
      <trkpt lat="37.29665" lon="-3.551585">
        <ele>1152.0</ele>
        <time>2022-11-13T12:34:03.000Z</time>
      </trkpt>
      <trkpt lat="37.29665333" lon="-3.55157">
        <ele>1152.0</ele>
        <time>2022-11-13T12:34:04.000Z</time>
      </trkpt>
      <trkpt lat="37.29665833" lon="-3.551555">
        <ele>1152.0</ele>
        <time>2022-11-13T12:34:05.000Z</time>
      </trkpt>
      <trkpt lat="37.29666167" lon="-3.55154">
        <ele>1152.0</ele>
        <time>2022-11-13T12:34:06.000Z</time>
      </trkpt>
      <trkpt lat="37.296665" lon="-3.551525">
        <ele>1152.0</ele>
        <time>2022-11-13T12:34:07.000Z</time>
      </trkpt>
      <trkpt lat="37.29666667" lon="-3.55151">
        <ele>1152.0</ele>
        <time>2022-11-13T12:34:08.000Z</time>
      </trkpt>
      <trkpt lat="37.29667" lon="-3.551495">
        <ele>1152.0</ele>
        <time>2022-11-13T12:34:09.000Z</time>
      </trkpt>
      <trkpt lat="37.29667333" lon="-3.55148">
        <ele>1152.0</ele>
        <time>2022-11-13T12:34:10.000Z</time>
      </trkpt>
      <trkpt lat="37.296675" lon="-3.55146333">
        <ele>1152.0</ele>
        <time>2022-11-13T12:34:11.000Z</time>
      </trkpt>
      <trkpt lat="37.29667833" lon="-3.55144667">
        <ele>1152.0</ele>
        <time>2022-11-13T12:34:12.000Z</time>
      </trkpt>
      <trkpt lat="37.29668167" lon="-3.55142833">
        <ele>1152.0</ele>
        <time>2022-11-13T12:34:13.000Z</time>
      </trkpt>
      <trkpt lat="37.29668667" lon="-3.55141">
        <ele>1152.0</ele>
        <time>2022-11-13T12:34:14.000Z</time>
      </trkpt>
      <trkpt lat="37.29669" lon="-3.55139167">
        <ele>1152.0</ele>
        <time>2022-11-13T12:34:15.000Z</time>
      </trkpt>
      <trkpt lat="37.296695" lon="-3.55137333">
        <ele>1152.0</ele>
        <time>2022-11-13T12:34:16.000Z</time>
      </trkpt>
      <trkpt lat="37.2967" lon="-3.55135667">
        <ele>1152.0</ele>
        <time>2022-11-13T12:34:17.000Z</time>
      </trkpt>
      <trkpt lat="37.296705" lon="-3.55134167">
        <ele>1152.0</ele>
        <time>2022-11-13T12:34:18.000Z</time>
      </trkpt>
      <trkpt lat="37.29670833" lon="-3.55132333">
        <ele>1152.0</ele>
        <time>2022-11-13T12:34:19.000Z</time>
      </trkpt>
      <trkpt lat="37.29671167" lon="-3.551305">
        <ele>1152.0</ele>
        <time>2022-11-13T12:34:20.000Z</time>
      </trkpt>
      <trkpt lat="37.296715" lon="-3.55128833">
        <ele>1152.0</ele>
        <time>2022-11-13T12:34:21.000Z</time>
      </trkpt>
      <trkpt lat="37.29671833" lon="-3.55127167">
        <ele>1152.0</ele>
        <time>2022-11-13T12:34:22.000Z</time>
      </trkpt>
      <trkpt lat="37.29672167" lon="-3.551255">
        <ele>1152.0</ele>
        <time>2022-11-13T12:34:23.000Z</time>
      </trkpt>
      <trkpt lat="37.29672667" lon="-3.55123667">
        <ele>1152.0</ele>
        <time>2022-11-13T12:34:24.000Z</time>
      </trkpt>
      <trkpt lat="37.29672833" lon="-3.55121833">
        <ele>1152.0</ele>
        <time>2022-11-13T12:34:25.000Z</time>
      </trkpt>
      <trkpt lat="37.29673167" lon="-3.5512">
        <ele>1152.0</ele>
        <time>2022-11-13T12:34:26.000Z</time>
      </trkpt>
      <trkpt lat="37.29673333" lon="-3.55118333">
        <ele>1152.0</ele>
        <time>2022-11-13T12:34:27.000Z</time>
      </trkpt>
      <trkpt lat="37.29673667" lon="-3.551165">
        <ele>1152.0</ele>
        <time>2022-11-13T12:34:28.000Z</time>
      </trkpt>
      <trkpt lat="37.29673833" lon="-3.551145">
        <ele>1152.0</ele>
        <time>2022-11-13T12:34:29.000Z</time>
      </trkpt>
      <trkpt lat="37.29674167" lon="-3.55112667">
        <ele>1152.0</ele>
        <time>2022-11-13T12:34:30.000Z</time>
      </trkpt>
      <trkpt lat="37.29674667" lon="-3.55111">
        <ele>1152.0</ele>
        <time>2022-11-13T12:34:31.000Z</time>
      </trkpt>
      <trkpt lat="37.29675" lon="-3.55109333">
        <ele>1152.0</ele>
        <time>2022-11-13T12:34:32.000Z</time>
      </trkpt>
      <trkpt lat="37.29675333" lon="-3.55107667">
        <ele>1152.0</ele>
        <time>2022-11-13T12:34:33.000Z</time>
      </trkpt>
      <trkpt lat="37.29675667" lon="-3.55105833">
        <ele>1152.0</ele>
        <time>2022-11-13T12:34:34.000Z</time>
      </trkpt>
      <trkpt lat="37.29675833" lon="-3.55104167">
        <ele>1152.0</ele>
        <time>2022-11-13T12:34:35.000Z</time>
      </trkpt>
      <trkpt lat="37.29676167" lon="-3.551025">
        <ele>1152.0</ele>
        <time>2022-11-13T12:34:36.000Z</time>
      </trkpt>
      <trkpt lat="37.296765" lon="-3.55100667">
        <ele>1152.0</ele>
        <time>2022-11-13T12:34:37.000Z</time>
      </trkpt>
      <trkpt lat="37.29676833" lon="-3.55099">
        <ele>1152.0</ele>
        <time>2022-11-13T12:34:38.000Z</time>
      </trkpt>
      <trkpt lat="37.29677167" lon="-3.55097167">
        <ele>1152.0</ele>
        <time>2022-11-13T12:34:39.000Z</time>
      </trkpt>
      <trkpt lat="37.29677667" lon="-3.550955">
        <ele>1152.0</ele>
        <time>2022-11-13T12:34:40.000Z</time>
      </trkpt>
      <trkpt lat="37.29678167" lon="-3.55093833">
        <ele>1152.0</ele>
        <time>2022-11-13T12:34:41.000Z</time>
      </trkpt>
      <trkpt lat="37.296785" lon="-3.55092">
        <ele>1152.0</ele>
        <time>2022-11-13T12:34:42.000Z</time>
      </trkpt>
      <trkpt lat="37.29678833" lon="-3.55090333">
        <ele>1152.0</ele>
        <time>2022-11-13T12:34:43.000Z</time>
      </trkpt>
      <trkpt lat="37.29679" lon="-3.55088667">
        <ele>1152.0</ele>
        <time>2022-11-13T12:34:44.000Z</time>
      </trkpt>
      <trkpt lat="37.29679333" lon="-3.55087">
        <ele>1152.0</ele>
        <time>2022-11-13T12:34:45.000Z</time>
      </trkpt>
      <trkpt lat="37.29679667" lon="-3.55085167">
        <ele>1152.0</ele>
        <time>2022-11-13T12:34:46.000Z</time>
      </trkpt>
      <trkpt lat="37.2968" lon="-3.55083333">
        <ele>1152.0</ele>
        <time>2022-11-13T12:34:47.000Z</time>
      </trkpt>
      <trkpt lat="37.29680333" lon="-3.550815">
        <ele>1152.0</ele>
        <time>2022-11-13T12:34:48.000Z</time>
      </trkpt>
      <trkpt lat="37.29680667" lon="-3.55079833">
        <ele>1152.0</ele>
        <time>2022-11-13T12:34:49.000Z</time>
      </trkpt>
      <trkpt lat="37.29681" lon="-3.55078167">
        <ele>1152.0</ele>
        <time>2022-11-13T12:34:50.000Z</time>
      </trkpt>
      <trkpt lat="37.29681167" lon="-3.55076333">
        <ele>1152.0</ele>
        <time>2022-11-13T12:34:51.000Z</time>
      </trkpt>
      <trkpt lat="37.29681333" lon="-3.55074667">
        <ele>1152.0</ele>
        <time>2022-11-13T12:34:52.000Z</time>
      </trkpt>
      <trkpt lat="37.29681667" lon="-3.55073">
        <ele>1152.0</ele>
        <time>2022-11-13T12:34:53.000Z</time>
      </trkpt>
      <trkpt lat="37.29681667" lon="-3.55071333">
        <ele>1152.0</ele>
        <time>2022-11-13T12:34:54.000Z</time>
      </trkpt>
      <trkpt lat="37.29682" lon="-3.55069667">
        <ele>1152.0</ele>
        <time>2022-11-13T12:34:55.000Z</time>
      </trkpt>
      <trkpt lat="37.29682167" lon="-3.55068167">
        <ele>1152.0</ele>
        <time>2022-11-13T12:34:56.000Z</time>
      </trkpt>
      <trkpt lat="37.296825" lon="-3.550665">
        <ele>1152.0</ele>
        <time>2022-11-13T12:34:57.000Z</time>
      </trkpt>
      <trkpt lat="37.29682667" lon="-3.55064833">
        <ele>1152.0</ele>
        <time>2022-11-13T12:34:58.000Z</time>
      </trkpt>
      <trkpt lat="37.29682833" lon="-3.55063333">
        <ele>1152.0</ele>
        <time>2022-11-13T12:34:59.000Z</time>
      </trkpt>
      <trkpt lat="37.29683167" lon="-3.55061667">
        <ele>1152.0</ele>
        <time>2022-11-13T12:35:00.000Z</time>
      </trkpt>
      <trkpt lat="37.296835" lon="-3.5506">
        <ele>1152.0</ele>
        <time>2022-11-13T12:35:01.000Z</time>
      </trkpt>
      <trkpt lat="37.29683667" lon="-3.55058333">
        <ele>1151.0</ele>
        <time>2022-11-13T12:35:02.000Z</time>
      </trkpt>
      <trkpt lat="37.29683833" lon="-3.55056667">
        <ele>1151.0</ele>
        <time>2022-11-13T12:35:03.000Z</time>
      </trkpt>
      <trkpt lat="37.29684" lon="-3.55054833">
        <ele>1151.0</ele>
        <time>2022-11-13T12:35:04.000Z</time>
      </trkpt>
      <trkpt lat="37.29684333" lon="-3.55053167">
        <ele>1151.0</ele>
        <time>2022-11-13T12:35:05.000Z</time>
      </trkpt>
      <trkpt lat="37.296845" lon="-3.550515">
        <ele>1151.0</ele>
        <time>2022-11-13T12:35:06.000Z</time>
      </trkpt>
      <trkpt lat="37.29684667" lon="-3.55049833">
        <ele>1151.0</ele>
        <time>2022-11-13T12:35:07.000Z</time>
      </trkpt>
      <trkpt lat="37.29685" lon="-3.55048">
        <ele>1151.0</ele>
        <time>2022-11-13T12:35:08.000Z</time>
      </trkpt>
      <trkpt lat="37.29685333" lon="-3.55046167">
        <ele>1151.0</ele>
        <time>2022-11-13T12:35:09.000Z</time>
      </trkpt>
      <trkpt lat="37.296855" lon="-3.550445">
        <ele>1151.0</ele>
        <time>2022-11-13T12:35:10.000Z</time>
      </trkpt>
      <trkpt lat="37.29685833" lon="-3.55043">
        <ele>1151.0</ele>
        <time>2022-11-13T12:35:11.000Z</time>
      </trkpt>
      <trkpt lat="37.29686167" lon="-3.55041333">
        <ele>1151.0</ele>
        <time>2022-11-13T12:35:12.000Z</time>
      </trkpt>
      <trkpt lat="37.29686333" lon="-3.550395">
        <ele>1152.0</ele>
        <time>2022-11-13T12:35:13.000Z</time>
      </trkpt>
      <trkpt lat="37.296865" lon="-3.55037667">
        <ele>1152.0</ele>
        <time>2022-11-13T12:35:14.000Z</time>
      </trkpt>
      <trkpt lat="37.29686667" lon="-3.55035833">
        <ele>1152.0</ele>
        <time>2022-11-13T12:35:15.000Z</time>
      </trkpt>
      <trkpt lat="37.29687" lon="-3.55034167">
        <ele>1152.0</ele>
        <time>2022-11-13T12:35:16.000Z</time>
      </trkpt>
      <trkpt lat="37.29687333" lon="-3.55032333">
        <ele>1152.0</ele>
        <time>2022-11-13T12:35:17.000Z</time>
      </trkpt>
      <trkpt lat="37.29687667" lon="-3.55030333">
        <ele>1152.0</ele>
        <time>2022-11-13T12:35:18.000Z</time>
      </trkpt>
      <trkpt lat="37.29688" lon="-3.55028667">
        <ele>1152.0</ele>
        <time>2022-11-13T12:35:19.000Z</time>
      </trkpt>
      <trkpt lat="37.296885" lon="-3.55027">
        <ele>1152.0</ele>
        <time>2022-11-13T12:35:20.000Z</time>
      </trkpt>
      <trkpt lat="37.29688833" lon="-3.55025333">
        <ele>1152.0</ele>
        <time>2022-11-13T12:35:21.000Z</time>
      </trkpt>
      <trkpt lat="37.29689" lon="-3.55023667">
        <ele>1152.0</ele>
        <time>2022-11-13T12:35:22.000Z</time>
      </trkpt>
      <trkpt lat="37.29689167" lon="-3.55022167">
        <ele>1152.0</ele>
        <time>2022-11-13T12:35:23.000Z</time>
      </trkpt>
      <trkpt lat="37.29689333" lon="-3.55020833">
        <ele>1152.0</ele>
        <time>2022-11-13T12:35:24.000Z</time>
      </trkpt>
      <trkpt lat="37.296895" lon="-3.55019333">
        <ele>1152.0</ele>
        <time>2022-11-13T12:35:25.000Z</time>
      </trkpt>
      <trkpt lat="37.29689667" lon="-3.55017833">
        <ele>1152.0</ele>
        <time>2022-11-13T12:35:26.000Z</time>
      </trkpt>
      <trkpt lat="37.29689833" lon="-3.55016167">
        <ele>1152.0</ele>
        <time>2022-11-13T12:35:27.000Z</time>
      </trkpt>
      <trkpt lat="37.29690167" lon="-3.550145">
        <ele>1152.0</ele>
        <time>2022-11-13T12:35:28.000Z</time>
      </trkpt>
      <trkpt lat="37.29690333" lon="-3.55012833">
        <ele>1153.0</ele>
        <time>2022-11-13T12:35:29.000Z</time>
      </trkpt>
      <trkpt lat="37.29690667" lon="-3.55011333">
        <ele>1153.0</ele>
        <time>2022-11-13T12:35:30.000Z</time>
      </trkpt>
      <trkpt lat="37.29690833" lon="-3.55009667">
        <ele>1153.0</ele>
        <time>2022-11-13T12:35:31.000Z</time>
      </trkpt>
      <trkpt lat="37.29691167" lon="-3.55008167">
        <ele>1153.0</ele>
        <time>2022-11-13T12:35:32.000Z</time>
      </trkpt>
      <trkpt lat="37.29691333" lon="-3.55006667">
        <ele>1153.0</ele>
        <time>2022-11-13T12:35:33.000Z</time>
      </trkpt>
      <trkpt lat="37.29691667" lon="-3.55005">
        <ele>1153.0</ele>
        <time>2022-11-13T12:35:34.000Z</time>
      </trkpt>
      <trkpt lat="37.29691833" lon="-3.55003333">
        <ele>1153.0</ele>
        <time>2022-11-13T12:35:35.000Z</time>
      </trkpt>
      <trkpt lat="37.29692167" lon="-3.55001833">
        <ele>1153.0</ele>
        <time>2022-11-13T12:35:36.000Z</time>
      </trkpt>
      <trkpt lat="37.29692333" lon="-3.55000167">
        <ele>1153.0</ele>
        <time>2022-11-13T12:35:37.000Z</time>
      </trkpt>
      <trkpt lat="37.296925" lon="-3.54998667">
        <ele>1154.0</ele>
        <time>2022-11-13T12:35:38.000Z</time>
      </trkpt>
      <trkpt lat="37.29692833" lon="-3.54997">
        <ele>1154.0</ele>
        <time>2022-11-13T12:35:39.000Z</time>
      </trkpt>
      <trkpt lat="37.29693" lon="-3.549955">
        <ele>1154.0</ele>
        <time>2022-11-13T12:35:40.000Z</time>
      </trkpt>
      <trkpt lat="37.29693167" lon="-3.54993833">
        <ele>1154.0</ele>
        <time>2022-11-13T12:35:41.000Z</time>
      </trkpt>
      <trkpt lat="37.29693333" lon="-3.54992333">
        <ele>1154.0</ele>
        <time>2022-11-13T12:35:42.000Z</time>
      </trkpt>
      <trkpt lat="37.296935" lon="-3.54990667">
        <ele>1154.0</ele>
        <time>2022-11-13T12:35:43.000Z</time>
      </trkpt>
      <trkpt lat="37.29693667" lon="-3.54989">
        <ele>1154.0</ele>
        <time>2022-11-13T12:35:44.000Z</time>
      </trkpt>
      <trkpt lat="37.29693667" lon="-3.54987333">
        <ele>1154.0</ele>
        <time>2022-11-13T12:35:45.000Z</time>
      </trkpt>
      <trkpt lat="37.29693833" lon="-3.54985667">
        <ele>1154.0</ele>
        <time>2022-11-13T12:35:46.000Z</time>
      </trkpt>
      <trkpt lat="37.29693833" lon="-3.54984167">
        <ele>1155.0</ele>
        <time>2022-11-13T12:35:47.000Z</time>
      </trkpt>
      <trkpt lat="37.29693833" lon="-3.549825">
        <ele>1155.0</ele>
        <time>2022-11-13T12:35:48.000Z</time>
      </trkpt>
      <trkpt lat="37.29694" lon="-3.54980833">
        <ele>1155.0</ele>
        <time>2022-11-13T12:35:49.000Z</time>
      </trkpt>
      <trkpt lat="37.29694167" lon="-3.54979333">
        <ele>1155.0</ele>
        <time>2022-11-13T12:35:50.000Z</time>
      </trkpt>
      <trkpt lat="37.29694167" lon="-3.549775">
        <ele>1155.0</ele>
        <time>2022-11-13T12:35:51.000Z</time>
      </trkpt>
      <trkpt lat="37.29694333" lon="-3.54975833">
        <ele>1155.0</ele>
        <time>2022-11-13T12:35:52.000Z</time>
      </trkpt>
      <trkpt lat="37.29694333" lon="-3.54974333">
        <ele>1155.0</ele>
        <time>2022-11-13T12:35:53.000Z</time>
      </trkpt>
      <trkpt lat="37.29694333" lon="-3.54972667">
        <ele>1156.0</ele>
        <time>2022-11-13T12:35:54.000Z</time>
      </trkpt>
      <trkpt lat="37.296945" lon="-3.54971167">
        <ele>1156.0</ele>
        <time>2022-11-13T12:35:55.000Z</time>
      </trkpt>
      <trkpt lat="37.296945" lon="-3.549695">
        <ele>1156.0</ele>
        <time>2022-11-13T12:35:56.000Z</time>
      </trkpt>
      <trkpt lat="37.296945" lon="-3.54968">
        <ele>1156.0</ele>
        <time>2022-11-13T12:35:57.000Z</time>
      </trkpt>
      <trkpt lat="37.29694667" lon="-3.549665">
        <ele>1156.0</ele>
        <time>2022-11-13T12:35:58.000Z</time>
      </trkpt>
      <trkpt lat="37.29694667" lon="-3.54965167">
        <ele>1156.0</ele>
        <time>2022-11-13T12:35:59.000Z</time>
      </trkpt>
      <trkpt lat="37.29694833" lon="-3.549635">
        <ele>1156.0</ele>
        <time>2022-11-13T12:36:00.000Z</time>
      </trkpt>
      <trkpt lat="37.29694833" lon="-3.54962">
        <ele>1157.0</ele>
        <time>2022-11-13T12:36:01.000Z</time>
      </trkpt>
      <trkpt lat="37.29695" lon="-3.549605">
        <ele>1157.0</ele>
        <time>2022-11-13T12:36:02.000Z</time>
      </trkpt>
      <trkpt lat="37.29695" lon="-3.54958833">
        <ele>1157.0</ele>
        <time>2022-11-13T12:36:03.000Z</time>
      </trkpt>
      <trkpt lat="37.29695167" lon="-3.54957333">
        <ele>1157.0</ele>
        <time>2022-11-13T12:36:04.000Z</time>
      </trkpt>
      <trkpt lat="37.29695167" lon="-3.54955833">
        <ele>1157.0</ele>
        <time>2022-11-13T12:36:05.000Z</time>
      </trkpt>
      <trkpt lat="37.29695333" lon="-3.54954333">
        <ele>1157.0</ele>
        <time>2022-11-13T12:36:06.000Z</time>
      </trkpt>
      <trkpt lat="37.29695333" lon="-3.54952667">
        <ele>1157.0</ele>
        <time>2022-11-13T12:36:07.000Z</time>
      </trkpt>
      <trkpt lat="37.296955" lon="-3.54951167">
        <ele>1157.0</ele>
        <time>2022-11-13T12:36:08.000Z</time>
      </trkpt>
      <trkpt lat="37.29695667" lon="-3.54949667">
        <ele>1157.0</ele>
        <time>2022-11-13T12:36:09.000Z</time>
      </trkpt>
      <trkpt lat="37.29695833" lon="-3.54948">
        <ele>1158.0</ele>
        <time>2022-11-13T12:36:10.000Z</time>
      </trkpt>
      <trkpt lat="37.29696167" lon="-3.549465">
        <ele>1158.0</ele>
        <time>2022-11-13T12:36:11.000Z</time>
      </trkpt>
      <trkpt lat="37.296965" lon="-3.54944833">
        <ele>1158.0</ele>
        <time>2022-11-13T12:36:12.000Z</time>
      </trkpt>
      <trkpt lat="37.29696833" lon="-3.54943333">
        <ele>1158.0</ele>
        <time>2022-11-13T12:36:13.000Z</time>
      </trkpt>
      <trkpt lat="37.29697167" lon="-3.54941667">
        <ele>1158.0</ele>
        <time>2022-11-13T12:36:14.000Z</time>
      </trkpt>
      <trkpt lat="37.296975" lon="-3.54940167">
        <ele>1158.0</ele>
        <time>2022-11-13T12:36:15.000Z</time>
      </trkpt>
      <trkpt lat="37.29698" lon="-3.54938667">
        <ele>1158.0</ele>
        <time>2022-11-13T12:36:16.000Z</time>
      </trkpt>
      <trkpt lat="37.29698333" lon="-3.54937">
        <ele>1158.0</ele>
        <time>2022-11-13T12:36:17.000Z</time>
      </trkpt>
      <trkpt lat="37.29698667" lon="-3.54935167">
        <ele>1158.0</ele>
        <time>2022-11-13T12:36:18.000Z</time>
      </trkpt>
      <trkpt lat="37.29699167" lon="-3.549335">
        <ele>1159.0</ele>
        <time>2022-11-13T12:36:19.000Z</time>
      </trkpt>
      <trkpt lat="37.29699667" lon="-3.54932">
        <ele>1159.0</ele>
        <time>2022-11-13T12:36:20.000Z</time>
      </trkpt>
      <trkpt lat="37.29700167" lon="-3.549305">
        <ele>1159.0</ele>
        <time>2022-11-13T12:36:21.000Z</time>
      </trkpt>
      <trkpt lat="37.297005" lon="-3.54929167">
        <ele>1159.0</ele>
        <time>2022-11-13T12:36:22.000Z</time>
      </trkpt>
      <trkpt lat="37.29700667" lon="-3.549275">
        <ele>1159.0</ele>
        <time>2022-11-13T12:36:23.000Z</time>
      </trkpt>
      <trkpt lat="37.29701167" lon="-3.54926">
        <ele>1159.0</ele>
        <time>2022-11-13T12:36:24.000Z</time>
      </trkpt>
      <trkpt lat="37.29701667" lon="-3.54924167">
        <ele>1159.0</ele>
        <time>2022-11-13T12:36:25.000Z</time>
      </trkpt>
      <trkpt lat="37.29702" lon="-3.549225">
        <ele>1159.0</ele>
        <time>2022-11-13T12:36:26.000Z</time>
      </trkpt>
      <trkpt lat="37.297025" lon="-3.54920667">
        <ele>1160.0</ele>
        <time>2022-11-13T12:36:27.000Z</time>
      </trkpt>
      <trkpt lat="37.29702833" lon="-3.54919">
        <ele>1160.0</ele>
        <time>2022-11-13T12:36:28.000Z</time>
      </trkpt>
      <trkpt lat="37.29703167" lon="-3.54917167">
        <ele>1160.0</ele>
        <time>2022-11-13T12:36:29.000Z</time>
      </trkpt>
      <trkpt lat="37.297035" lon="-3.549155">
        <ele>1160.0</ele>
        <time>2022-11-13T12:36:30.000Z</time>
      </trkpt>
      <trkpt lat="37.29703667" lon="-3.54913667">
        <ele>1160.0</ele>
        <time>2022-11-13T12:36:31.000Z</time>
      </trkpt>
      <trkpt lat="37.29703833" lon="-3.54912">
        <ele>1160.0</ele>
        <time>2022-11-13T12:36:32.000Z</time>
      </trkpt>
      <trkpt lat="37.29704" lon="-3.54910167">
        <ele>1160.0</ele>
        <time>2022-11-13T12:36:33.000Z</time>
      </trkpt>
      <trkpt lat="37.29704167" lon="-3.549085">
        <ele>1161.0</ele>
        <time>2022-11-13T12:36:34.000Z</time>
      </trkpt>
      <trkpt lat="37.29704167" lon="-3.549065">
        <ele>1161.0</ele>
        <time>2022-11-13T12:36:35.000Z</time>
      </trkpt>
      <trkpt lat="37.29704167" lon="-3.54904833">
        <ele>1161.0</ele>
        <time>2022-11-13T12:36:36.000Z</time>
      </trkpt>
      <trkpt lat="37.29704167" lon="-3.54903333">
        <ele>1161.0</ele>
        <time>2022-11-13T12:36:37.000Z</time>
      </trkpt>
      <trkpt lat="37.29704167" lon="-3.54901667">
        <ele>1161.0</ele>
        <time>2022-11-13T12:36:38.000Z</time>
      </trkpt>
      <trkpt lat="37.29704167" lon="-3.549">
        <ele>1161.0</ele>
        <time>2022-11-13T12:36:39.000Z</time>
      </trkpt>
      <trkpt lat="37.29704" lon="-3.54898333">
        <ele>1161.0</ele>
        <time>2022-11-13T12:36:40.000Z</time>
      </trkpt>
      <trkpt lat="37.29704167" lon="-3.54896667">
        <ele>1161.0</ele>
        <time>2022-11-13T12:36:41.000Z</time>
      </trkpt>
      <trkpt lat="37.29704167" lon="-3.54895167">
        <ele>1161.0</ele>
        <time>2022-11-13T12:36:42.000Z</time>
      </trkpt>
      <trkpt lat="37.29704333" lon="-3.548935">
        <ele>1162.0</ele>
        <time>2022-11-13T12:36:43.000Z</time>
      </trkpt>
      <trkpt lat="37.29704333" lon="-3.54891667">
        <ele>1162.0</ele>
        <time>2022-11-13T12:36:44.000Z</time>
      </trkpt>
      <trkpt lat="37.297045" lon="-3.5489">
        <ele>1162.0</ele>
        <time>2022-11-13T12:36:45.000Z</time>
      </trkpt>
      <trkpt lat="37.297045" lon="-3.54888333">
        <ele>1162.0</ele>
        <time>2022-11-13T12:36:46.000Z</time>
      </trkpt>
      <trkpt lat="37.297045" lon="-3.54886667">
        <ele>1162.0</ele>
        <time>2022-11-13T12:36:47.000Z</time>
      </trkpt>
      <trkpt lat="37.297045" lon="-3.54885">
        <ele>1162.0</ele>
        <time>2022-11-13T12:36:48.000Z</time>
      </trkpt>
      <trkpt lat="37.297045" lon="-3.548835">
        <ele>1162.0</ele>
        <time>2022-11-13T12:36:49.000Z</time>
      </trkpt>
      <trkpt lat="37.297045" lon="-3.54881833">
        <ele>1162.0</ele>
        <time>2022-11-13T12:36:50.000Z</time>
      </trkpt>
      <trkpt lat="37.29704667" lon="-3.54880167">
        <ele>1163.0</ele>
        <time>2022-11-13T12:36:51.000Z</time>
      </trkpt>
      <trkpt lat="37.29705" lon="-3.548785">
        <ele>1163.0</ele>
        <time>2022-11-13T12:36:52.000Z</time>
      </trkpt>
      <trkpt lat="37.29705167" lon="-3.54876667">
        <ele>1163.0</ele>
        <time>2022-11-13T12:36:53.000Z</time>
      </trkpt>
      <trkpt lat="37.29705333" lon="-3.54875">
        <ele>1163.0</ele>
        <time>2022-11-13T12:36:54.000Z</time>
      </trkpt>
      <trkpt lat="37.297055" lon="-3.54873333">
        <ele>1163.0</ele>
        <time>2022-11-13T12:36:55.000Z</time>
      </trkpt>
      <trkpt lat="37.29705667" lon="-3.54871667">
        <ele>1163.0</ele>
        <time>2022-11-13T12:36:56.000Z</time>
      </trkpt>
      <trkpt lat="37.29705833" lon="-3.5487">
        <ele>1163.0</ele>
        <time>2022-11-13T12:36:57.000Z</time>
      </trkpt>
      <trkpt lat="37.29706" lon="-3.54868333">
        <ele>1163.0</ele>
        <time>2022-11-13T12:36:58.000Z</time>
      </trkpt>
      <trkpt lat="37.29706167" lon="-3.548665">
        <ele>1163.0</ele>
        <time>2022-11-13T12:36:59.000Z</time>
      </trkpt>
      <trkpt lat="37.29706333" lon="-3.54865">
        <ele>1163.0</ele>
        <time>2022-11-13T12:37:00.000Z</time>
      </trkpt>
      <trkpt lat="37.29706333" lon="-3.548635">
        <ele>1163.0</ele>
        <time>2022-11-13T12:37:01.000Z</time>
      </trkpt>
      <trkpt lat="37.29706667" lon="-3.54862">
        <ele>1163.0</ele>
        <time>2022-11-13T12:37:02.000Z</time>
      </trkpt>
      <trkpt lat="37.29707" lon="-3.548605">
        <ele>1163.0</ele>
        <time>2022-11-13T12:37:03.000Z</time>
      </trkpt>
      <trkpt lat="37.29707167" lon="-3.54858833">
        <ele>1163.0</ele>
        <time>2022-11-13T12:37:04.000Z</time>
      </trkpt>
      <trkpt lat="37.297075" lon="-3.54857167">
        <ele>1163.0</ele>
        <time>2022-11-13T12:37:05.000Z</time>
      </trkpt>
      <trkpt lat="37.29707667" lon="-3.548555">
        <ele>1163.0</ele>
        <time>2022-11-13T12:37:06.000Z</time>
      </trkpt>
      <trkpt lat="37.29707833" lon="-3.54854">
        <ele>1163.0</ele>
        <time>2022-11-13T12:37:07.000Z</time>
      </trkpt>
      <trkpt lat="37.29708167" lon="-3.54852333">
        <ele>1163.0</ele>
        <time>2022-11-13T12:37:08.000Z</time>
      </trkpt>
      <trkpt lat="37.29708333" lon="-3.548505">
        <ele>1163.0</ele>
        <time>2022-11-13T12:37:09.000Z</time>
      </trkpt>
      <trkpt lat="37.297085" lon="-3.54848833">
        <ele>1162.0</ele>
        <time>2022-11-13T12:37:10.000Z</time>
      </trkpt>
      <trkpt lat="37.29708667" lon="-3.54847333">
        <ele>1162.0</ele>
        <time>2022-11-13T12:37:11.000Z</time>
      </trkpt>
      <trkpt lat="37.29708833" lon="-3.54845667">
        <ele>1162.0</ele>
        <time>2022-11-13T12:37:12.000Z</time>
      </trkpt>
      <trkpt lat="37.29709" lon="-3.54844">
        <ele>1162.0</ele>
        <time>2022-11-13T12:37:13.000Z</time>
      </trkpt>
      <trkpt lat="37.29709333" lon="-3.54842333">
        <ele>1162.0</ele>
        <time>2022-11-13T12:37:14.000Z</time>
      </trkpt>
      <trkpt lat="37.297095" lon="-3.54840833">
        <ele>1162.0</ele>
        <time>2022-11-13T12:37:15.000Z</time>
      </trkpt>
      <trkpt lat="37.297095" lon="-3.54839333">
        <ele>1162.0</ele>
        <time>2022-11-13T12:37:16.000Z</time>
      </trkpt>
      <trkpt lat="37.29709667" lon="-3.54837833">
        <ele>1162.0</ele>
        <time>2022-11-13T12:37:17.000Z</time>
      </trkpt>
      <trkpt lat="37.29709833" lon="-3.54836333">
        <ele>1162.0</ele>
        <time>2022-11-13T12:37:18.000Z</time>
      </trkpt>
      <trkpt lat="37.29709833" lon="-3.54834833">
        <ele>1162.0</ele>
        <time>2022-11-13T12:37:19.000Z</time>
      </trkpt>
      <trkpt lat="37.2971" lon="-3.54833167">
        <ele>1162.0</ele>
        <time>2022-11-13T12:37:20.000Z</time>
      </trkpt>
      <trkpt lat="37.29710167" lon="-3.548315">
        <ele>1162.0</ele>
        <time>2022-11-13T12:37:21.000Z</time>
      </trkpt>
      <trkpt lat="37.297105" lon="-3.54829833">
        <ele>1162.0</ele>
        <time>2022-11-13T12:37:22.000Z</time>
      </trkpt>
      <trkpt lat="37.29710667" lon="-3.54828">
        <ele>1163.0</ele>
        <time>2022-11-13T12:37:23.000Z</time>
      </trkpt>
      <trkpt lat="37.29710833" lon="-3.54826333">
        <ele>1163.0</ele>
        <time>2022-11-13T12:37:24.000Z</time>
      </trkpt>
      <trkpt lat="37.29711" lon="-3.54824833">
        <ele>1163.0</ele>
        <time>2022-11-13T12:37:25.000Z</time>
      </trkpt>
      <trkpt lat="37.29711333" lon="-3.548235">
        <ele>1162.0</ele>
        <time>2022-11-13T12:37:26.000Z</time>
      </trkpt>
      <trkpt lat="37.29711667" lon="-3.54822">
        <ele>1162.0</ele>
        <time>2022-11-13T12:37:27.000Z</time>
      </trkpt>
      <trkpt lat="37.29712" lon="-3.54820333">
        <ele>1162.0</ele>
        <time>2022-11-13T12:37:28.000Z</time>
      </trkpt>
      <trkpt lat="37.29712333" lon="-3.54818833">
        <ele>1162.0</ele>
        <time>2022-11-13T12:37:29.000Z</time>
      </trkpt>
      <trkpt lat="37.29712833" lon="-3.54817333">
        <ele>1162.0</ele>
        <time>2022-11-13T12:37:30.000Z</time>
      </trkpt>
      <trkpt lat="37.29713167" lon="-3.54815833">
        <ele>1162.0</ele>
        <time>2022-11-13T12:37:31.000Z</time>
      </trkpt>
      <trkpt lat="37.297135" lon="-3.54814333">
        <ele>1162.0</ele>
        <time>2022-11-13T12:37:32.000Z</time>
      </trkpt>
      <trkpt lat="37.29714" lon="-3.54812833">
        <ele>1162.0</ele>
        <time>2022-11-13T12:37:33.000Z</time>
      </trkpt>
      <trkpt lat="37.297145" lon="-3.54811333">
        <ele>1162.0</ele>
        <time>2022-11-13T12:37:34.000Z</time>
      </trkpt>
      <trkpt lat="37.29715" lon="-3.54809833">
        <ele>1162.0</ele>
        <time>2022-11-13T12:37:35.000Z</time>
      </trkpt>
      <trkpt lat="37.29715333" lon="-3.548085">
        <ele>1162.0</ele>
        <time>2022-11-13T12:37:36.000Z</time>
      </trkpt>
      <trkpt lat="37.29715833" lon="-3.54807">
        <ele>1162.0</ele>
        <time>2022-11-13T12:37:37.000Z</time>
      </trkpt>
      <trkpt lat="37.29716333" lon="-3.54805667">
        <ele>1162.0</ele>
        <time>2022-11-13T12:37:38.000Z</time>
      </trkpt>
      <trkpt lat="37.29716833" lon="-3.54804167">
        <ele>1162.0</ele>
        <time>2022-11-13T12:37:39.000Z</time>
      </trkpt>
      <trkpt lat="37.29717333" lon="-3.54802833">
        <ele>1162.0</ele>
        <time>2022-11-13T12:37:40.000Z</time>
      </trkpt>
      <trkpt lat="37.29718" lon="-3.54801333">
        <ele>1162.0</ele>
        <time>2022-11-13T12:37:41.000Z</time>
      </trkpt>
      <trkpt lat="37.29718333" lon="-3.54799667">
        <ele>1162.0</ele>
        <time>2022-11-13T12:37:42.000Z</time>
      </trkpt>
      <trkpt lat="37.29718833" lon="-3.54798">
        <ele>1162.0</ele>
        <time>2022-11-13T12:37:43.000Z</time>
      </trkpt>
      <trkpt lat="37.297195" lon="-3.547965">
        <ele>1162.0</ele>
        <time>2022-11-13T12:37:44.000Z</time>
      </trkpt>
      <trkpt lat="37.2972" lon="-3.54795">
        <ele>1162.0</ele>
        <time>2022-11-13T12:37:45.000Z</time>
      </trkpt>
      <trkpt lat="37.297205" lon="-3.547935">
        <ele>1162.0</ele>
        <time>2022-11-13T12:37:46.000Z</time>
      </trkpt>
      <trkpt lat="37.29721167" lon="-3.54792">
        <ele>1162.0</ele>
        <time>2022-11-13T12:37:47.000Z</time>
      </trkpt>
      <trkpt lat="37.29721667" lon="-3.547905">
        <ele>1162.0</ele>
        <time>2022-11-13T12:37:48.000Z</time>
      </trkpt>
      <trkpt lat="37.29722333" lon="-3.54789">
        <ele>1162.0</ele>
        <time>2022-11-13T12:37:49.000Z</time>
      </trkpt>
      <trkpt lat="37.29722833" lon="-3.54787667">
        <ele>1162.0</ele>
        <time>2022-11-13T12:37:50.000Z</time>
      </trkpt>
      <trkpt lat="37.29723667" lon="-3.54786167">
        <ele>1162.0</ele>
        <time>2022-11-13T12:37:51.000Z</time>
      </trkpt>
      <trkpt lat="37.297245" lon="-3.54785">
        <ele>1162.0</ele>
        <time>2022-11-13T12:37:52.000Z</time>
      </trkpt>
      <trkpt lat="37.297255" lon="-3.54783667">
        <ele>1162.0</ele>
        <time>2022-11-13T12:37:53.000Z</time>
      </trkpt>
      <trkpt lat="37.29726167" lon="-3.547825">
        <ele>1163.0</ele>
        <time>2022-11-13T12:37:54.000Z</time>
      </trkpt>
      <trkpt lat="37.29727167" lon="-3.54781167">
        <ele>1162.0</ele>
        <time>2022-11-13T12:37:55.000Z</time>
      </trkpt>
      <trkpt lat="37.29728167" lon="-3.54779833">
        <ele>1163.0</ele>
        <time>2022-11-13T12:37:56.000Z</time>
      </trkpt>
      <trkpt lat="37.29729" lon="-3.54778667">
        <ele>1163.0</ele>
        <time>2022-11-13T12:37:57.000Z</time>
      </trkpt>
      <trkpt lat="37.29730167" lon="-3.547775">
        <ele>1163.0</ele>
        <time>2022-11-13T12:37:58.000Z</time>
      </trkpt>
      <trkpt lat="37.29731" lon="-3.54776333">
        <ele>1163.0</ele>
        <time>2022-11-13T12:37:59.000Z</time>
      </trkpt>
      <trkpt lat="37.29732" lon="-3.54775167">
        <ele>1163.0</ele>
        <time>2022-11-13T12:38:00.000Z</time>
      </trkpt>
      <trkpt lat="37.29732833" lon="-3.54773833">
        <ele>1163.0</ele>
        <time>2022-11-13T12:38:01.000Z</time>
      </trkpt>
      <trkpt lat="37.29733833" lon="-3.54772333">
        <ele>1163.0</ele>
        <time>2022-11-13T12:38:02.000Z</time>
      </trkpt>
      <trkpt lat="37.29734667" lon="-3.54771167">
        <ele>1163.0</ele>
        <time>2022-11-13T12:38:03.000Z</time>
      </trkpt>
      <trkpt lat="37.29735667" lon="-3.54769833">
        <ele>1163.0</ele>
        <time>2022-11-13T12:38:04.000Z</time>
      </trkpt>
      <trkpt lat="37.29736667" lon="-3.547685">
        <ele>1163.0</ele>
        <time>2022-11-13T12:38:05.000Z</time>
      </trkpt>
      <trkpt lat="37.297375" lon="-3.547675">
        <ele>1164.0</ele>
        <time>2022-11-13T12:38:06.000Z</time>
      </trkpt>
      <trkpt lat="37.29738333" lon="-3.54766333">
        <ele>1164.0</ele>
        <time>2022-11-13T12:38:07.000Z</time>
      </trkpt>
      <trkpt lat="37.29739167" lon="-3.54765167">
        <ele>1164.0</ele>
        <time>2022-11-13T12:38:08.000Z</time>
      </trkpt>
      <trkpt lat="37.2974" lon="-3.54763833">
        <ele>1164.0</ele>
        <time>2022-11-13T12:38:09.000Z</time>
      </trkpt>
      <trkpt lat="37.29740833" lon="-3.54762333">
        <ele>1164.0</ele>
        <time>2022-11-13T12:38:10.000Z</time>
      </trkpt>
      <trkpt lat="37.29741667" lon="-3.54761">
        <ele>1164.0</ele>
        <time>2022-11-13T12:38:11.000Z</time>
      </trkpt>
      <trkpt lat="37.297425" lon="-3.547595">
        <ele>1164.0</ele>
        <time>2022-11-13T12:38:12.000Z</time>
      </trkpt>
      <trkpt lat="37.29743167" lon="-3.54758">
        <ele>1165.0</ele>
        <time>2022-11-13T12:38:13.000Z</time>
      </trkpt>
      <trkpt lat="37.29743833" lon="-3.547565">
        <ele>1165.0</ele>
        <time>2022-11-13T12:38:14.000Z</time>
      </trkpt>
      <trkpt lat="37.29744333" lon="-3.54754833">
        <ele>1165.0</ele>
        <time>2022-11-13T12:38:15.000Z</time>
      </trkpt>
      <trkpt lat="37.29745" lon="-3.54753167">
        <ele>1165.0</ele>
        <time>2022-11-13T12:38:16.000Z</time>
      </trkpt>
      <trkpt lat="37.29745667" lon="-3.54751667">
        <ele>1165.0</ele>
        <time>2022-11-13T12:38:17.000Z</time>
      </trkpt>
      <trkpt lat="37.29746333" lon="-3.5475">
        <ele>1165.0</ele>
        <time>2022-11-13T12:38:18.000Z</time>
      </trkpt>
      <trkpt lat="37.29746833" lon="-3.547485">
        <ele>1165.0</ele>
        <time>2022-11-13T12:38:19.000Z</time>
      </trkpt>
      <trkpt lat="37.29747333" lon="-3.54746833">
        <ele>1166.0</ele>
        <time>2022-11-13T12:38:20.000Z</time>
      </trkpt>
      <trkpt lat="37.29747833" lon="-3.54745167">
        <ele>1166.0</ele>
        <time>2022-11-13T12:38:21.000Z</time>
      </trkpt>
      <trkpt lat="37.297485" lon="-3.54743667">
        <ele>1166.0</ele>
        <time>2022-11-13T12:38:22.000Z</time>
      </trkpt>
      <trkpt lat="37.29749167" lon="-3.54742">
        <ele>1166.0</ele>
        <time>2022-11-13T12:38:23.000Z</time>
      </trkpt>
      <trkpt lat="37.29749667" lon="-3.547405">
        <ele>1166.0</ele>
        <time>2022-11-13T12:38:24.000Z</time>
      </trkpt>
      <trkpt lat="37.29750167" lon="-3.54738667">
        <ele>1166.0</ele>
        <time>2022-11-13T12:38:25.000Z</time>
      </trkpt>
      <trkpt lat="37.29750667" lon="-3.54737333">
        <ele>1166.0</ele>
        <time>2022-11-13T12:38:26.000Z</time>
      </trkpt>
      <trkpt lat="37.29751" lon="-3.54735667">
        <ele>1166.0</ele>
        <time>2022-11-13T12:38:27.000Z</time>
      </trkpt>
      <trkpt lat="37.297515" lon="-3.54734167">
        <ele>1166.0</ele>
        <time>2022-11-13T12:38:28.000Z</time>
      </trkpt>
      <trkpt lat="37.29752" lon="-3.54732333">
        <ele>1166.0</ele>
        <time>2022-11-13T12:38:29.000Z</time>
      </trkpt>
      <trkpt lat="37.297525" lon="-3.54730667">
        <ele>1166.0</ele>
        <time>2022-11-13T12:38:30.000Z</time>
      </trkpt>
      <trkpt lat="37.29752833" lon="-3.54729">
        <ele>1166.0</ele>
        <time>2022-11-13T12:38:31.000Z</time>
      </trkpt>
      <trkpt lat="37.29753333" lon="-3.54727167">
        <ele>1166.0</ele>
        <time>2022-11-13T12:38:32.000Z</time>
      </trkpt>
      <trkpt lat="37.29754" lon="-3.547255">
        <ele>1166.0</ele>
        <time>2022-11-13T12:38:33.000Z</time>
      </trkpt>
      <trkpt lat="37.297545" lon="-3.54724">
        <ele>1166.0</ele>
        <time>2022-11-13T12:38:34.000Z</time>
      </trkpt>
      <trkpt lat="37.29754833" lon="-3.54722667">
        <ele>1166.0</ele>
        <time>2022-11-13T12:38:35.000Z</time>
      </trkpt>
      <trkpt lat="37.29755167" lon="-3.54721167">
        <ele>1166.0</ele>
        <time>2022-11-13T12:38:36.000Z</time>
      </trkpt>
      <trkpt lat="37.297555" lon="-3.547195">
        <ele>1166.0</ele>
        <time>2022-11-13T12:38:37.000Z</time>
      </trkpt>
      <trkpt lat="37.29756167" lon="-3.54718">
        <ele>1166.0</ele>
        <time>2022-11-13T12:38:38.000Z</time>
      </trkpt>
      <trkpt lat="37.29756667" lon="-3.54716667">
        <ele>1166.0</ele>
        <time>2022-11-13T12:38:39.000Z</time>
      </trkpt>
      <trkpt lat="37.297575" lon="-3.54715333">
        <ele>1166.0</ele>
        <time>2022-11-13T12:38:40.000Z</time>
      </trkpt>
      <trkpt lat="37.29758167" lon="-3.54713833">
        <ele>1166.0</ele>
        <time>2022-11-13T12:38:41.000Z</time>
      </trkpt>
      <trkpt lat="37.29759" lon="-3.54712667">
        <ele>1167.0</ele>
        <time>2022-11-13T12:38:42.000Z</time>
      </trkpt>
      <trkpt lat="37.29759833" lon="-3.54711333">
        <ele>1167.0</ele>
        <time>2022-11-13T12:38:43.000Z</time>
      </trkpt>
      <trkpt lat="37.29760833" lon="-3.54710167">
        <ele>1167.0</ele>
        <time>2022-11-13T12:38:44.000Z</time>
      </trkpt>
      <trkpt lat="37.29761667" lon="-3.54708833">
        <ele>1167.0</ele>
        <time>2022-11-13T12:38:45.000Z</time>
      </trkpt>
      <trkpt lat="37.29762833" lon="-3.54707667">
        <ele>1167.0</ele>
        <time>2022-11-13T12:38:46.000Z</time>
      </trkpt>
      <trkpt lat="37.29763833" lon="-3.54706333">
        <ele>1167.0</ele>
        <time>2022-11-13T12:38:47.000Z</time>
      </trkpt>
      <trkpt lat="37.29764833" lon="-3.54705167">
        <ele>1167.0</ele>
        <time>2022-11-13T12:38:48.000Z</time>
      </trkpt>
      <trkpt lat="37.29765667" lon="-3.54703833">
        <ele>1167.0</ele>
        <time>2022-11-13T12:38:49.000Z</time>
      </trkpt>
      <trkpt lat="37.29766667" lon="-3.547025">
        <ele>1167.0</ele>
        <time>2022-11-13T12:38:50.000Z</time>
      </trkpt>
      <trkpt lat="37.297675" lon="-3.54701333">
        <ele>1167.0</ele>
        <time>2022-11-13T12:38:51.000Z</time>
      </trkpt>
      <trkpt lat="37.29768333" lon="-3.54700167">
        <ele>1167.0</ele>
        <time>2022-11-13T12:38:52.000Z</time>
      </trkpt>
      <trkpt lat="37.29769333" lon="-3.54699">
        <ele>1168.0</ele>
        <time>2022-11-13T12:38:53.000Z</time>
      </trkpt>
      <trkpt lat="37.29770167" lon="-3.546975">
        <ele>1168.0</ele>
        <time>2022-11-13T12:38:54.000Z</time>
      </trkpt>
      <trkpt lat="37.29770833" lon="-3.54696167">
        <ele>1168.0</ele>
        <time>2022-11-13T12:38:55.000Z</time>
      </trkpt>
      <trkpt lat="37.29771667" lon="-3.546945">
        <ele>1168.0</ele>
        <time>2022-11-13T12:38:56.000Z</time>
      </trkpt>
      <trkpt lat="37.29772333" lon="-3.54693">
        <ele>1168.0</ele>
        <time>2022-11-13T12:38:57.000Z</time>
      </trkpt>
      <trkpt lat="37.29773" lon="-3.54691333">
        <ele>1168.0</ele>
        <time>2022-11-13T12:38:58.000Z</time>
      </trkpt>
      <trkpt lat="37.29773667" lon="-3.5469">
        <ele>1168.0</ele>
        <time>2022-11-13T12:38:59.000Z</time>
      </trkpt>
      <trkpt lat="37.29774333" lon="-3.546885">
        <ele>1168.0</ele>
        <time>2022-11-13T12:39:00.000Z</time>
      </trkpt>
      <trkpt lat="37.29775" lon="-3.54687167">
        <ele>1168.0</ele>
        <time>2022-11-13T12:39:01.000Z</time>
      </trkpt>
      <trkpt lat="37.29775667" lon="-3.54685667">
        <ele>1168.0</ele>
        <time>2022-11-13T12:39:02.000Z</time>
      </trkpt>
      <trkpt lat="37.29776333" lon="-3.54684333">
        <ele>1168.0</ele>
        <time>2022-11-13T12:39:03.000Z</time>
      </trkpt>
      <trkpt lat="37.29776833" lon="-3.54683">
        <ele>1168.0</ele>
        <time>2022-11-13T12:39:04.000Z</time>
      </trkpt>
      <trkpt lat="37.29777333" lon="-3.546815">
        <ele>1168.0</ele>
        <time>2022-11-13T12:39:05.000Z</time>
      </trkpt>
      <trkpt lat="37.29778167" lon="-3.54679833">
        <ele>1168.0</ele>
        <time>2022-11-13T12:39:06.000Z</time>
      </trkpt>
      <trkpt lat="37.29778667" lon="-3.54678167">
        <ele>1168.0</ele>
        <time>2022-11-13T12:39:07.000Z</time>
      </trkpt>
      <trkpt lat="37.29779333" lon="-3.546765">
        <ele>1168.0</ele>
        <time>2022-11-13T12:39:08.000Z</time>
      </trkpt>
      <trkpt lat="37.2978" lon="-3.54675167">
        <ele>1167.0</ele>
        <time>2022-11-13T12:39:09.000Z</time>
      </trkpt>
      <trkpt lat="37.29780667" lon="-3.54673667">
        <ele>1167.0</ele>
        <time>2022-11-13T12:39:10.000Z</time>
      </trkpt>
      <trkpt lat="37.297815" lon="-3.54672167">
        <ele>1167.0</ele>
        <time>2022-11-13T12:39:11.000Z</time>
      </trkpt>
      <trkpt lat="37.29782333" lon="-3.54670667">
        <ele>1167.0</ele>
        <time>2022-11-13T12:39:12.000Z</time>
      </trkpt>
      <trkpt lat="37.29783" lon="-3.54669">
        <ele>1167.0</ele>
        <time>2022-11-13T12:39:13.000Z</time>
      </trkpt>
      <trkpt lat="37.29783833" lon="-3.546675">
        <ele>1168.0</ele>
        <time>2022-11-13T12:39:14.000Z</time>
      </trkpt>
      <trkpt lat="37.297845" lon="-3.54665833">
        <ele>1168.0</ele>
        <time>2022-11-13T12:39:15.000Z</time>
      </trkpt>
      <trkpt lat="37.29785333" lon="-3.546645">
        <ele>1168.0</ele>
        <time>2022-11-13T12:39:16.000Z</time>
      </trkpt>
      <trkpt lat="37.29786333" lon="-3.54663">
        <ele>1168.0</ele>
        <time>2022-11-13T12:39:17.000Z</time>
      </trkpt>
      <trkpt lat="37.29787167" lon="-3.54661667">
        <ele>1168.0</ele>
        <time>2022-11-13T12:39:18.000Z</time>
      </trkpt>
      <trkpt lat="37.29787833" lon="-3.54660167">
        <ele>1168.0</ele>
        <time>2022-11-13T12:39:19.000Z</time>
      </trkpt>
      <trkpt lat="37.29788667" lon="-3.54658833">
        <ele>1168.0</ele>
        <time>2022-11-13T12:39:20.000Z</time>
      </trkpt>
      <trkpt lat="37.297895" lon="-3.54657333">
        <ele>1168.0</ele>
        <time>2022-11-13T12:39:21.000Z</time>
      </trkpt>
      <trkpt lat="37.29790333" lon="-3.54655833">
        <ele>1168.0</ele>
        <time>2022-11-13T12:39:22.000Z</time>
      </trkpt>
      <trkpt lat="37.29791167" lon="-3.54654333">
        <ele>1168.0</ele>
        <time>2022-11-13T12:39:23.000Z</time>
      </trkpt>
      <trkpt lat="37.29792" lon="-3.54653">
        <ele>1168.0</ele>
        <time>2022-11-13T12:39:24.000Z</time>
      </trkpt>
      <trkpt lat="37.29792667" lon="-3.546515">
        <ele>1168.0</ele>
        <time>2022-11-13T12:39:25.000Z</time>
      </trkpt>
      <trkpt lat="37.297935" lon="-3.54650167">
        <ele>1169.0</ele>
        <time>2022-11-13T12:39:26.000Z</time>
      </trkpt>
      <trkpt lat="37.29794333" lon="-3.54648833">
        <ele>1169.0</ele>
        <time>2022-11-13T12:39:27.000Z</time>
      </trkpt>
      <trkpt lat="37.29795167" lon="-3.546475">
        <ele>1169.0</ele>
        <time>2022-11-13T12:39:28.000Z</time>
      </trkpt>
      <trkpt lat="37.29796" lon="-3.54646">
        <ele>1169.0</ele>
        <time>2022-11-13T12:39:29.000Z</time>
      </trkpt>
      <trkpt lat="37.29796833" lon="-3.54644667">
        <ele>1169.0</ele>
        <time>2022-11-13T12:39:30.000Z</time>
      </trkpt>
      <trkpt lat="37.29797667" lon="-3.54643333">
        <ele>1169.0</ele>
        <time>2022-11-13T12:39:31.000Z</time>
      </trkpt>
      <trkpt lat="37.297985" lon="-3.54641833">
        <ele>1169.0</ele>
        <time>2022-11-13T12:39:32.000Z</time>
      </trkpt>
      <trkpt lat="37.29799333" lon="-3.54640333">
        <ele>1169.0</ele>
        <time>2022-11-13T12:39:33.000Z</time>
      </trkpt>
      <trkpt lat="37.29800167" lon="-3.54638833">
        <ele>1169.0</ele>
        <time>2022-11-13T12:39:34.000Z</time>
      </trkpt>
      <trkpt lat="37.29801" lon="-3.546375">
        <ele>1170.0</ele>
        <time>2022-11-13T12:39:35.000Z</time>
      </trkpt>
      <trkpt lat="37.29801667" lon="-3.54636">
        <ele>1170.0</ele>
        <time>2022-11-13T12:39:36.000Z</time>
      </trkpt>
      <trkpt lat="37.298025" lon="-3.54634667">
        <ele>1170.0</ele>
        <time>2022-11-13T12:39:37.000Z</time>
      </trkpt>
      <trkpt lat="37.29803333" lon="-3.54633">
        <ele>1170.0</ele>
        <time>2022-11-13T12:39:38.000Z</time>
      </trkpt>
      <trkpt lat="37.29804167" lon="-3.54631667">
        <ele>1170.0</ele>
        <time>2022-11-13T12:39:39.000Z</time>
      </trkpt>
      <trkpt lat="37.29805" lon="-3.54630333">
        <ele>1170.0</ele>
        <time>2022-11-13T12:39:40.000Z</time>
      </trkpt>
      <trkpt lat="37.29805833" lon="-3.54629">
        <ele>1170.0</ele>
        <time>2022-11-13T12:39:41.000Z</time>
      </trkpt>
      <trkpt lat="37.298065" lon="-3.54627667">
        <ele>1170.0</ele>
        <time>2022-11-13T12:39:42.000Z</time>
      </trkpt>
      <trkpt lat="37.29807333" lon="-3.54626167">
        <ele>1171.0</ele>
        <time>2022-11-13T12:39:43.000Z</time>
      </trkpt>
      <trkpt lat="37.29808333" lon="-3.54624833">
        <ele>1171.0</ele>
        <time>2022-11-13T12:39:44.000Z</time>
      </trkpt>
      <trkpt lat="37.29809167" lon="-3.546235">
        <ele>1171.0</ele>
        <time>2022-11-13T12:39:45.000Z</time>
      </trkpt>
      <trkpt lat="37.2981" lon="-3.54622">
        <ele>1171.0</ele>
        <time>2022-11-13T12:39:46.000Z</time>
      </trkpt>
      <trkpt lat="37.29810833" lon="-3.546205">
        <ele>1171.0</ele>
        <time>2022-11-13T12:39:47.000Z</time>
      </trkpt>
      <trkpt lat="37.29811667" lon="-3.54619167">
        <ele>1171.0</ele>
        <time>2022-11-13T12:39:48.000Z</time>
      </trkpt>
      <trkpt lat="37.298125" lon="-3.54617833">
        <ele>1171.0</ele>
        <time>2022-11-13T12:39:49.000Z</time>
      </trkpt>
      <trkpt lat="37.29813167" lon="-3.54616333">
        <ele>1171.0</ele>
        <time>2022-11-13T12:39:50.000Z</time>
      </trkpt>
      <trkpt lat="37.29813833" lon="-3.54614833">
        <ele>1171.0</ele>
        <time>2022-11-13T12:39:51.000Z</time>
      </trkpt>
      <trkpt lat="37.298145" lon="-3.546135">
        <ele>1171.0</ele>
        <time>2022-11-13T12:39:52.000Z</time>
      </trkpt>
      <trkpt lat="37.29815333" lon="-3.54612">
        <ele>1172.0</ele>
        <time>2022-11-13T12:39:53.000Z</time>
      </trkpt>
      <trkpt lat="37.29816" lon="-3.54610667">
        <ele>1172.0</ele>
        <time>2022-11-13T12:39:54.000Z</time>
      </trkpt>
      <trkpt lat="37.29816833" lon="-3.54609333">
        <ele>1172.0</ele>
        <time>2022-11-13T12:39:55.000Z</time>
      </trkpt>
      <trkpt lat="37.298175" lon="-3.54608">
        <ele>1172.0</ele>
        <time>2022-11-13T12:39:56.000Z</time>
      </trkpt>
      <trkpt lat="37.29818167" lon="-3.546065">
        <ele>1172.0</ele>
        <time>2022-11-13T12:39:57.000Z</time>
      </trkpt>
      <trkpt lat="37.29818667" lon="-3.54605167">
        <ele>1172.0</ele>
        <time>2022-11-13T12:39:58.000Z</time>
      </trkpt>
      <trkpt lat="37.29819167" lon="-3.54603667">
        <ele>1172.0</ele>
        <time>2022-11-13T12:39:59.000Z</time>
      </trkpt>
      <trkpt lat="37.29819833" lon="-3.54602167">
        <ele>1172.0</ele>
        <time>2022-11-13T12:40:00.000Z</time>
      </trkpt>
      <trkpt lat="37.29820333" lon="-3.54600667">
        <ele>1172.0</ele>
        <time>2022-11-13T12:40:01.000Z</time>
      </trkpt>
      <trkpt lat="37.29820667" lon="-3.54599">
        <ele>1172.0</ele>
        <time>2022-11-13T12:40:02.000Z</time>
      </trkpt>
      <trkpt lat="37.29821" lon="-3.545975">
        <ele>1172.0</ele>
        <time>2022-11-13T12:40:03.000Z</time>
      </trkpt>
      <trkpt lat="37.298215" lon="-3.54596">
        <ele>1172.0</ele>
        <time>2022-11-13T12:40:04.000Z</time>
      </trkpt>
      <trkpt lat="37.29822" lon="-3.545945">
        <ele>1172.0</ele>
        <time>2022-11-13T12:40:05.000Z</time>
      </trkpt>
      <trkpt lat="37.298225" lon="-3.54593">
        <ele>1173.0</ele>
        <time>2022-11-13T12:40:06.000Z</time>
      </trkpt>
      <trkpt lat="37.29823167" lon="-3.54591333">
        <ele>1173.0</ele>
        <time>2022-11-13T12:40:07.000Z</time>
      </trkpt>
      <trkpt lat="37.29823667" lon="-3.5459">
        <ele>1173.0</ele>
        <time>2022-11-13T12:40:08.000Z</time>
      </trkpt>
      <trkpt lat="37.29824167" lon="-3.54588667">
        <ele>1173.0</ele>
        <time>2022-11-13T12:40:09.000Z</time>
      </trkpt>
      <trkpt lat="37.29824667" lon="-3.54587333">
        <ele>1173.0</ele>
        <time>2022-11-13T12:40:10.000Z</time>
      </trkpt>
      <trkpt lat="37.29825333" lon="-3.54585833">
        <ele>1173.0</ele>
        <time>2022-11-13T12:40:11.000Z</time>
      </trkpt>
      <trkpt lat="37.29825833" lon="-3.545845">
        <ele>1173.0</ele>
        <time>2022-11-13T12:40:12.000Z</time>
      </trkpt>
      <trkpt lat="37.29826333" lon="-3.54583167">
        <ele>1173.0</ele>
        <time>2022-11-13T12:40:13.000Z</time>
      </trkpt>
      <trkpt lat="37.29826833" lon="-3.54582">
        <ele>1173.0</ele>
        <time>2022-11-13T12:40:14.000Z</time>
      </trkpt>
      <trkpt lat="37.29827333" lon="-3.54580833">
        <ele>1173.0</ele>
        <time>2022-11-13T12:40:15.000Z</time>
      </trkpt>
      <trkpt lat="37.29827667" lon="-3.54579333">
        <ele>1174.0</ele>
        <time>2022-11-13T12:40:16.000Z</time>
      </trkpt>
      <trkpt lat="37.29828" lon="-3.54578">
        <ele>1174.0</ele>
        <time>2022-11-13T12:40:17.000Z</time>
      </trkpt>
      <trkpt lat="37.29828" lon="-3.54576833">
        <ele>1174.0</ele>
        <time>2022-11-13T12:40:18.000Z</time>
      </trkpt>
      <trkpt lat="37.29828" lon="-3.54576167">
        <ele>1174.0</ele>
        <time>2022-11-13T12:40:19.000Z</time>
      </trkpt>
      <trkpt lat="37.29828" lon="-3.54575833">
        <ele>1174.0</ele>
        <time>2022-11-13T12:40:20.000Z</time>
      </trkpt>
      <trkpt lat="37.29828167" lon="-3.54575667">
        <ele>1174.0</ele>
        <time>2022-11-13T12:40:21.000Z</time>
      </trkpt>
      <trkpt lat="37.29828167" lon="-3.54575667">
        <ele>1174.0</ele>
        <time>2022-11-13T12:40:22.000Z</time>
      </trkpt>
      <trkpt lat="37.29828333" lon="-3.54575667">
        <ele>1174.0</ele>
        <time>2022-11-13T12:40:23.000Z</time>
      </trkpt>
      <trkpt lat="37.298285" lon="-3.54575833">
        <ele>1174.0</ele>
        <time>2022-11-13T12:40:24.000Z</time>
      </trkpt>
      <trkpt lat="37.298285" lon="-3.54575833">
        <ele>1174.0</ele>
        <time>2022-11-13T12:40:25.000Z</time>
      </trkpt>
      <trkpt lat="37.29828667" lon="-3.54575833">
        <ele>1174.0</ele>
        <time>2022-11-13T12:40:26.000Z</time>
      </trkpt>
      <trkpt lat="37.29828667" lon="-3.54575833">
        <ele>1174.0</ele>
        <time>2022-11-13T12:40:27.000Z</time>
      </trkpt>
      <trkpt lat="37.29828833" lon="-3.54576">
        <ele>1174.0</ele>
        <time>2022-11-13T12:40:28.000Z</time>
      </trkpt>
      <trkpt lat="37.29828833" lon="-3.54576">
        <ele>1174.0</ele>
        <time>2022-11-13T12:40:29.000Z</time>
      </trkpt>
      <trkpt lat="37.29829" lon="-3.54576">
        <ele>1174.0</ele>
        <time>2022-11-13T12:40:30.000Z</time>
      </trkpt>
      <trkpt lat="37.29829" lon="-3.54576">
        <ele>1174.0</ele>
        <time>2022-11-13T12:40:31.000Z</time>
      </trkpt>
      <trkpt lat="37.29829" lon="-3.54576">
        <ele>1174.0</ele>
        <time>2022-11-13T12:40:32.000Z</time>
      </trkpt>
      <trkpt lat="37.29828667" lon="-3.54575833">
        <ele>1174.0</ele>
        <time>2022-11-13T12:40:33.000Z</time>
      </trkpt>
      <trkpt lat="37.29828333" lon="-3.54575667">
        <ele>1174.0</ele>
        <time>2022-11-13T12:40:34.000Z</time>
      </trkpt>
      <trkpt lat="37.29827833" lon="-3.54575167">
        <ele>1175.0</ele>
        <time>2022-11-13T12:40:35.000Z</time>
      </trkpt>
      <trkpt lat="37.29827667" lon="-3.54574667">
        <ele>1175.0</ele>
        <time>2022-11-13T12:40:36.000Z</time>
      </trkpt>
      <trkpt lat="37.29827833" lon="-3.54574333">
        <ele>1175.0</ele>
        <time>2022-11-13T12:40:37.000Z</time>
      </trkpt>
      <trkpt lat="37.29828" lon="-3.54573833">
        <ele>1175.0</ele>
        <time>2022-11-13T12:40:38.000Z</time>
      </trkpt>
      <trkpt lat="37.29828167" lon="-3.54573667">
        <ele>1175.0</ele>
        <time>2022-11-13T12:40:39.000Z</time>
      </trkpt>
      <trkpt lat="37.29828167" lon="-3.54573833">
        <ele>1175.0</ele>
        <time>2022-11-13T12:40:40.000Z</time>
      </trkpt>
      <trkpt lat="37.29828333" lon="-3.54574">
        <ele>1175.0</ele>
        <time>2022-11-13T12:40:41.000Z</time>
      </trkpt>
      <trkpt lat="37.29828333" lon="-3.54574167">
        <ele>1175.0</ele>
        <time>2022-11-13T12:40:42.000Z</time>
      </trkpt>
      <trkpt lat="37.29828333" lon="-3.54574167">
        <ele>1175.0</ele>
        <time>2022-11-13T12:40:43.000Z</time>
      </trkpt>
      <trkpt lat="37.29828333" lon="-3.54574167">
        <ele>1175.0</ele>
        <time>2022-11-13T12:40:44.000Z</time>
      </trkpt>
      <trkpt lat="37.29828333" lon="-3.54574167">
        <ele>1175.0</ele>
        <time>2022-11-13T12:40:45.000Z</time>
      </trkpt>
      <trkpt lat="37.29828167" lon="-3.54574333">
        <ele>1175.0</ele>
        <time>2022-11-13T12:40:46.000Z</time>
      </trkpt>
      <trkpt lat="37.29828167" lon="-3.54574333">
        <ele>1175.0</ele>
        <time>2022-11-13T12:40:47.000Z</time>
      </trkpt>
      <trkpt lat="37.29828167" lon="-3.545745">
        <ele>1175.0</ele>
        <time>2022-11-13T12:40:48.000Z</time>
      </trkpt>
      <trkpt lat="37.29828167" lon="-3.545745">
        <ele>1175.0</ele>
        <time>2022-11-13T12:40:49.000Z</time>
      </trkpt>
      <trkpt lat="37.29828167" lon="-3.54574667">
        <ele>1175.0</ele>
        <time>2022-11-13T12:40:50.000Z</time>
      </trkpt>
      <trkpt lat="37.29828167" lon="-3.54574667">
        <ele>1175.0</ele>
        <time>2022-11-13T12:40:51.000Z</time>
      </trkpt>
      <trkpt lat="37.29828167" lon="-3.54574667">
        <ele>1175.0</ele>
        <time>2022-11-13T12:40:52.000Z</time>
      </trkpt>
      <trkpt lat="37.29828167" lon="-3.54574833">
        <ele>1175.0</ele>
        <time>2022-11-13T12:40:53.000Z</time>
      </trkpt>
      <trkpt lat="37.29828167" lon="-3.54574833">
        <ele>1175.0</ele>
        <time>2022-11-13T12:40:54.000Z</time>
      </trkpt>
      <trkpt lat="37.29828" lon="-3.54574833">
        <ele>1175.0</ele>
        <time>2022-11-13T12:40:55.000Z</time>
      </trkpt>
      <trkpt lat="37.29828" lon="-3.54575">
        <ele>1175.0</ele>
        <time>2022-11-13T12:40:56.000Z</time>
      </trkpt>
      <trkpt lat="37.29828" lon="-3.54575">
        <ele>1175.0</ele>
        <time>2022-11-13T12:40:57.000Z</time>
      </trkpt>
      <trkpt lat="37.29828" lon="-3.54575">
        <ele>1175.0</ele>
        <time>2022-11-13T12:40:58.000Z</time>
      </trkpt>
      <trkpt lat="37.29828" lon="-3.54575">
        <ele>1175.0</ele>
        <time>2022-11-13T12:40:59.000Z</time>
      </trkpt>
      <trkpt lat="37.29828" lon="-3.54575">
        <ele>1175.0</ele>
        <time>2022-11-13T12:41:00.000Z</time>
      </trkpt>
      <trkpt lat="37.29828333" lon="-3.54574833">
        <ele>1175.0</ele>
        <time>2022-11-13T12:41:01.000Z</time>
      </trkpt>
      <trkpt lat="37.29828333" lon="-3.54574667">
        <ele>1175.0</ele>
        <time>2022-11-13T12:41:02.000Z</time>
      </trkpt>
      <trkpt lat="37.29828333" lon="-3.54574833">
        <ele>1175.0</ele>
        <time>2022-11-13T12:41:03.000Z</time>
      </trkpt>
      <trkpt lat="37.29828333" lon="-3.54575">
        <ele>1175.0</ele>
        <time>2022-11-13T12:41:04.000Z</time>
      </trkpt>
      <trkpt lat="37.29828333" lon="-3.54575">
        <ele>1175.0</ele>
        <time>2022-11-13T12:41:05.000Z</time>
      </trkpt>
      <trkpt lat="37.29828333" lon="-3.54575167">
        <ele>1175.0</ele>
        <time>2022-11-13T12:41:06.000Z</time>
      </trkpt>
      <trkpt lat="37.29828333" lon="-3.54575333">
        <ele>1175.0</ele>
        <time>2022-11-13T12:41:07.000Z</time>
      </trkpt>
      <trkpt lat="37.29828333" lon="-3.54575333">
        <ele>1175.0</ele>
        <time>2022-11-13T12:41:08.000Z</time>
      </trkpt>
      <trkpt lat="37.29828333" lon="-3.54575167">
        <ele>1175.0</ele>
        <time>2022-11-13T12:41:09.000Z</time>
      </trkpt>
      <trkpt lat="37.29828333" lon="-3.54575167">
        <ele>1175.0</ele>
        <time>2022-11-13T12:41:10.000Z</time>
      </trkpt>
      <trkpt lat="37.29828333" lon="-3.54575">
        <ele>1175.0</ele>
        <time>2022-11-13T12:41:11.000Z</time>
      </trkpt>
      <trkpt lat="37.29828333" lon="-3.54575">
        <ele>1175.0</ele>
        <time>2022-11-13T12:41:12.000Z</time>
      </trkpt>
      <trkpt lat="37.29828333" lon="-3.54575167">
        <ele>1175.0</ele>
        <time>2022-11-13T12:41:13.000Z</time>
      </trkpt>
      <trkpt lat="37.29828333" lon="-3.54575">
        <ele>1175.0</ele>
        <time>2022-11-13T12:41:14.000Z</time>
      </trkpt>
      <trkpt lat="37.29828333" lon="-3.54575333">
        <ele>1175.0</ele>
        <time>2022-11-13T12:41:15.000Z</time>
      </trkpt>
      <trkpt lat="37.298285" lon="-3.54575333">
        <ele>1175.0</ele>
        <time>2022-11-13T12:41:16.000Z</time>
      </trkpt>
      <trkpt lat="37.298285" lon="-3.54575333">
        <ele>1175.0</ele>
        <time>2022-11-13T12:41:17.000Z</time>
      </trkpt>
      <trkpt lat="37.298285" lon="-3.54575333">
        <ele>1175.0</ele>
        <time>2022-11-13T12:41:18.000Z</time>
      </trkpt>
      <trkpt lat="37.298285" lon="-3.545755">
        <ele>1175.0</ele>
        <time>2022-11-13T12:41:19.000Z</time>
      </trkpt>
      <trkpt lat="37.298285" lon="-3.54575333">
        <ele>1175.0</ele>
        <time>2022-11-13T12:41:20.000Z</time>
      </trkpt>
      <trkpt lat="37.298285" lon="-3.54575333">
        <ele>1175.0</ele>
        <time>2022-11-13T12:41:21.000Z</time>
      </trkpt>
      <trkpt lat="37.298285" lon="-3.545755">
        <ele>1175.0</ele>
        <time>2022-11-13T12:41:22.000Z</time>
      </trkpt>
      <trkpt lat="37.298285" lon="-3.545755">
        <ele>1175.0</ele>
        <time>2022-11-13T12:41:23.000Z</time>
      </trkpt>
      <trkpt lat="37.298285" lon="-3.545755">
        <ele>1175.0</ele>
        <time>2022-11-13T12:41:24.000Z</time>
      </trkpt>
      <trkpt lat="37.298285" lon="-3.545755">
        <ele>1175.0</ele>
        <time>2022-11-13T12:41:25.000Z</time>
      </trkpt>
      <trkpt lat="37.29828333" lon="-3.545755">
        <ele>1175.0</ele>
        <time>2022-11-13T12:41:26.000Z</time>
      </trkpt>
      <trkpt lat="37.29828333" lon="-3.545755">
        <ele>1175.0</ele>
        <time>2022-11-13T12:41:27.000Z</time>
      </trkpt>
      <trkpt lat="37.29828333" lon="-3.545755">
        <ele>1175.0</ele>
        <time>2022-11-13T12:41:28.000Z</time>
      </trkpt>
      <trkpt lat="37.29828333" lon="-3.545755">
        <ele>1175.0</ele>
        <time>2022-11-13T12:41:29.000Z</time>
      </trkpt>
      <trkpt lat="37.298285" lon="-3.545755">
        <ele>1175.0</ele>
        <time>2022-11-13T12:41:30.000Z</time>
      </trkpt>
      <trkpt lat="37.298285" lon="-3.545755">
        <ele>1175.0</ele>
        <time>2022-11-13T12:41:31.000Z</time>
      </trkpt>
      <trkpt lat="37.29828667" lon="-3.545755">
        <ele>1175.0</ele>
        <time>2022-11-13T12:41:32.000Z</time>
      </trkpt>
      <trkpt lat="37.29828667" lon="-3.54575333">
        <ele>1175.0</ele>
        <time>2022-11-13T12:41:33.000Z</time>
      </trkpt>
      <trkpt lat="37.29828667" lon="-3.54575333">
        <ele>1175.0</ele>
        <time>2022-11-13T12:41:34.000Z</time>
      </trkpt>
      <trkpt lat="37.29828667" lon="-3.54575167">
        <ele>1175.0</ele>
        <time>2022-11-13T12:41:35.000Z</time>
      </trkpt>
      <trkpt lat="37.29828667" lon="-3.54575">
        <ele>1175.0</ele>
        <time>2022-11-13T12:41:36.000Z</time>
      </trkpt>
      <trkpt lat="37.29828833" lon="-3.54575">
        <ele>1175.0</ele>
        <time>2022-11-13T12:41:37.000Z</time>
      </trkpt>
      <trkpt lat="37.29828833" lon="-3.54575">
        <ele>1175.0</ele>
        <time>2022-11-13T12:41:38.000Z</time>
      </trkpt>
      <trkpt lat="37.29828833" lon="-3.54575">
        <ele>1175.0</ele>
        <time>2022-11-13T12:41:39.000Z</time>
      </trkpt>
      <trkpt lat="37.29828833" lon="-3.54575">
        <ele>1175.0</ele>
        <time>2022-11-13T12:41:40.000Z</time>
      </trkpt>
      <trkpt lat="37.29828833" lon="-3.54575">
        <ele>1175.0</ele>
        <time>2022-11-13T12:41:41.000Z</time>
      </trkpt>
      <trkpt lat="37.29828833" lon="-3.54575">
        <ele>1175.0</ele>
        <time>2022-11-13T12:41:42.000Z</time>
      </trkpt>
      <trkpt lat="37.29828833" lon="-3.54575">
        <ele>1175.0</ele>
        <time>2022-11-13T12:41:43.000Z</time>
      </trkpt>
      <trkpt lat="37.29828833" lon="-3.54575">
        <ele>1175.0</ele>
        <time>2022-11-13T12:41:44.000Z</time>
      </trkpt>
      <trkpt lat="37.29828833" lon="-3.54575">
        <ele>1175.0</ele>
        <time>2022-11-13T12:41:45.000Z</time>
      </trkpt>
      <trkpt lat="37.29828833" lon="-3.54575">
        <ele>1175.0</ele>
        <time>2022-11-13T12:41:46.000Z</time>
      </trkpt>
      <trkpt lat="37.29829" lon="-3.54575">
        <ele>1175.0</ele>
        <time>2022-11-13T12:41:47.000Z</time>
      </trkpt>
      <trkpt lat="37.29829" lon="-3.54574833">
        <ele>1175.0</ele>
        <time>2022-11-13T12:41:48.000Z</time>
      </trkpt>
      <trkpt lat="37.29829" lon="-3.54574833">
        <ele>1175.0</ele>
        <time>2022-11-13T12:41:49.000Z</time>
      </trkpt>
      <trkpt lat="37.29829" lon="-3.54575">
        <ele>1175.0</ele>
        <time>2022-11-13T12:41:50.000Z</time>
      </trkpt>
      <trkpt lat="37.29829" lon="-3.54575">
        <ele>1175.0</ele>
        <time>2022-11-13T12:41:51.000Z</time>
      </trkpt>
      <trkpt lat="37.29829" lon="-3.54575">
        <ele>1175.0</ele>
        <time>2022-11-13T12:41:52.000Z</time>
      </trkpt>
      <trkpt lat="37.29829" lon="-3.54575">
        <ele>1175.0</ele>
        <time>2022-11-13T12:41:53.000Z</time>
      </trkpt>
      <trkpt lat="37.29829" lon="-3.54574833">
        <ele>1175.0</ele>
        <time>2022-11-13T12:41:54.000Z</time>
      </trkpt>
      <trkpt lat="37.29829" lon="-3.54574833">
        <ele>1174.0</ele>
        <time>2022-11-13T12:41:55.000Z</time>
      </trkpt>
      <trkpt lat="37.29829167" lon="-3.54574833">
        <ele>1174.0</ele>
        <time>2022-11-13T12:41:56.000Z</time>
      </trkpt>
      <trkpt lat="37.29829167" lon="-3.54574833">
        <ele>1174.0</ele>
        <time>2022-11-13T12:41:57.000Z</time>
      </trkpt>
      <trkpt lat="37.29829333" lon="-3.54574833">
        <ele>1174.0</ele>
        <time>2022-11-13T12:41:58.000Z</time>
      </trkpt>
      <trkpt lat="37.29829167" lon="-3.54574833">
        <ele>1174.0</ele>
        <time>2022-11-13T12:41:59.000Z</time>
      </trkpt>
      <trkpt lat="37.29829167" lon="-3.54574833">
        <ele>1174.0</ele>
        <time>2022-11-13T12:42:00.000Z</time>
      </trkpt>
      <trkpt lat="37.29829167" lon="-3.54575">
        <ele>1174.0</ele>
        <time>2022-11-13T12:42:01.000Z</time>
      </trkpt>
      <trkpt lat="37.29829333" lon="-3.54575">
        <ele>1174.0</ele>
        <time>2022-11-13T12:42:02.000Z</time>
      </trkpt>
      <trkpt lat="37.298295" lon="-3.54575">
        <ele>1174.0</ele>
        <time>2022-11-13T12:42:03.000Z</time>
      </trkpt>
      <trkpt lat="37.298295" lon="-3.54575">
        <ele>1174.0</ele>
        <time>2022-11-13T12:42:04.000Z</time>
      </trkpt>
      <trkpt lat="37.298295" lon="-3.54575">
        <ele>1174.0</ele>
        <time>2022-11-13T12:42:05.000Z</time>
      </trkpt>
      <trkpt lat="37.29829667" lon="-3.54575">
        <ele>1174.0</ele>
        <time>2022-11-13T12:42:06.000Z</time>
      </trkpt>
      <trkpt lat="37.29829667" lon="-3.54574833">
        <ele>1174.0</ele>
        <time>2022-11-13T12:42:07.000Z</time>
      </trkpt>
      <trkpt lat="37.29829667" lon="-3.545745">
        <ele>1174.0</ele>
        <time>2022-11-13T12:42:08.000Z</time>
      </trkpt>
      <trkpt lat="37.29829667" lon="-3.54574333">
        <ele>1174.0</ele>
        <time>2022-11-13T12:42:09.000Z</time>
      </trkpt>
      <trkpt lat="37.29829667" lon="-3.54574167">
        <ele>1174.0</ele>
        <time>2022-11-13T12:42:10.000Z</time>
      </trkpt>
      <trkpt lat="37.29829667" lon="-3.54574167">
        <ele>1174.0</ele>
        <time>2022-11-13T12:42:11.000Z</time>
      </trkpt>
      <trkpt lat="37.29829667" lon="-3.54574333">
        <ele>1174.0</ele>
        <time>2022-11-13T12:42:12.000Z</time>
      </trkpt>
      <trkpt lat="37.29829667" lon="-3.545745">
        <ele>1174.0</ele>
        <time>2022-11-13T12:42:13.000Z</time>
      </trkpt>
      <trkpt lat="37.29829667" lon="-3.545745">
        <ele>1174.0</ele>
        <time>2022-11-13T12:42:14.000Z</time>
      </trkpt>
      <trkpt lat="37.298295" lon="-3.54574667">
        <ele>1174.0</ele>
        <time>2022-11-13T12:42:15.000Z</time>
      </trkpt>
      <trkpt lat="37.29829333" lon="-3.54574667">
        <ele>1174.0</ele>
        <time>2022-11-13T12:42:16.000Z</time>
      </trkpt>
      <trkpt lat="37.29829333" lon="-3.54574833">
        <ele>1174.0</ele>
        <time>2022-11-13T12:42:17.000Z</time>
      </trkpt>
      <trkpt lat="37.29829167" lon="-3.54574833">
        <ele>1174.0</ele>
        <time>2022-11-13T12:42:18.000Z</time>
      </trkpt>
      <trkpt lat="37.29829167" lon="-3.54575">
        <ele>1174.0</ele>
        <time>2022-11-13T12:42:19.000Z</time>
      </trkpt>
      <trkpt lat="37.29829" lon="-3.54575167">
        <ele>1174.0</ele>
        <time>2022-11-13T12:42:20.000Z</time>
      </trkpt>
      <trkpt lat="37.29829" lon="-3.54575167">
        <ele>1174.0</ele>
        <time>2022-11-13T12:42:21.000Z</time>
      </trkpt>
      <trkpt lat="37.29829" lon="-3.54575167">
        <ele>1174.0</ele>
        <time>2022-11-13T12:42:22.000Z</time>
      </trkpt>
      <trkpt lat="37.29829" lon="-3.54575167">
        <ele>1174.0</ele>
        <time>2022-11-13T12:42:23.000Z</time>
      </trkpt>
      <trkpt lat="37.29828833" lon="-3.54575167">
        <ele>1174.0</ele>
        <time>2022-11-13T12:42:24.000Z</time>
      </trkpt>
      <trkpt lat="37.29828833" lon="-3.54575333">
        <ele>1174.0</ele>
        <time>2022-11-13T12:42:25.000Z</time>
      </trkpt>
      <trkpt lat="37.29828833" lon="-3.54575333">
        <ele>1174.0</ele>
        <time>2022-11-13T12:42:26.000Z</time>
      </trkpt>
      <trkpt lat="37.29828667" lon="-3.545755">
        <ele>1174.0</ele>
        <time>2022-11-13T12:42:27.000Z</time>
      </trkpt>
      <trkpt lat="37.29828667" lon="-3.545755">
        <ele>1174.0</ele>
        <time>2022-11-13T12:42:28.000Z</time>
      </trkpt>
      <trkpt lat="37.29828667" lon="-3.545755">
        <ele>1174.0</ele>
        <time>2022-11-13T12:42:29.000Z</time>
      </trkpt>
      <trkpt lat="37.29828667" lon="-3.545755">
        <ele>1174.0</ele>
        <time>2022-11-13T12:42:30.000Z</time>
      </trkpt>
      <trkpt lat="37.29828667" lon="-3.545755">
        <ele>1174.0</ele>
        <time>2022-11-13T12:42:31.000Z</time>
      </trkpt>
      <trkpt lat="37.29828667" lon="-3.545755">
        <ele>1175.0</ele>
        <time>2022-11-13T12:42:32.000Z</time>
      </trkpt>
      <trkpt lat="37.29828833" lon="-3.54575667">
        <ele>1175.0</ele>
        <time>2022-11-13T12:42:33.000Z</time>
      </trkpt>
      <trkpt lat="37.29829" lon="-3.54575667">
        <ele>1175.0</ele>
        <time>2022-11-13T12:42:34.000Z</time>
      </trkpt>
      <trkpt lat="37.29829" lon="-3.54575667">
        <ele>1175.0</ele>
        <time>2022-11-13T12:42:35.000Z</time>
      </trkpt>
      <trkpt lat="37.29829" lon="-3.545755">
        <ele>1175.0</ele>
        <time>2022-11-13T12:42:36.000Z</time>
      </trkpt>
      <trkpt lat="37.29829" lon="-3.545755">
        <ele>1175.0</ele>
        <time>2022-11-13T12:42:37.000Z</time>
      </trkpt>
      <trkpt lat="37.29829" lon="-3.54575667">
        <ele>1175.0</ele>
        <time>2022-11-13T12:42:38.000Z</time>
      </trkpt>
      <trkpt lat="37.29829" lon="-3.54575667">
        <ele>1175.0</ele>
        <time>2022-11-13T12:42:39.000Z</time>
      </trkpt>
      <trkpt lat="37.29829" lon="-3.54575667">
        <ele>1175.0</ele>
        <time>2022-11-13T12:42:40.000Z</time>
      </trkpt>
      <trkpt lat="37.29829" lon="-3.54575667">
        <ele>1175.0</ele>
        <time>2022-11-13T12:42:41.000Z</time>
      </trkpt>
      <trkpt lat="37.29828833" lon="-3.54575667">
        <ele>1175.0</ele>
        <time>2022-11-13T12:42:42.000Z</time>
      </trkpt>
      <trkpt lat="37.29828833" lon="-3.54575833">
        <ele>1175.0</ele>
        <time>2022-11-13T12:42:43.000Z</time>
      </trkpt>
      <trkpt lat="37.29828833" lon="-3.54575833">
        <ele>1175.0</ele>
        <time>2022-11-13T12:42:44.000Z</time>
      </trkpt>
      <trkpt lat="37.29828833" lon="-3.54575833">
        <ele>1175.0</ele>
        <time>2022-11-13T12:42:45.000Z</time>
      </trkpt>
      <trkpt lat="37.29828833" lon="-3.54575833">
        <ele>1175.0</ele>
        <time>2022-11-13T12:42:46.000Z</time>
      </trkpt>
      <trkpt lat="37.29828833" lon="-3.54575833">
        <ele>1175.0</ele>
        <time>2022-11-13T12:42:47.000Z</time>
      </trkpt>
      <trkpt lat="37.29828833" lon="-3.54575833">
        <ele>1175.0</ele>
        <time>2022-11-13T12:42:48.000Z</time>
      </trkpt>
      <trkpt lat="37.29828833" lon="-3.54575833">
        <ele>1175.0</ele>
        <time>2022-11-13T12:42:49.000Z</time>
      </trkpt>
      <trkpt lat="37.29828833" lon="-3.54575833">
        <ele>1175.0</ele>
        <time>2022-11-13T12:42:50.000Z</time>
      </trkpt>
      <trkpt lat="37.29828833" lon="-3.54575833">
        <ele>1175.0</ele>
        <time>2022-11-13T12:42:51.000Z</time>
      </trkpt>
      <trkpt lat="37.29828833" lon="-3.54576">
        <ele>1175.0</ele>
        <time>2022-11-13T12:42:52.000Z</time>
      </trkpt>
      <trkpt lat="37.29828833" lon="-3.54576">
        <ele>1175.0</ele>
        <time>2022-11-13T12:42:53.000Z</time>
      </trkpt>
      <trkpt lat="37.29828833" lon="-3.54576">
        <ele>1175.0</ele>
        <time>2022-11-13T12:42:54.000Z</time>
      </trkpt>
      <trkpt lat="37.29828833" lon="-3.54576">
        <ele>1175.0</ele>
        <time>2022-11-13T12:42:55.000Z</time>
      </trkpt>
      <trkpt lat="37.29828833" lon="-3.54576">
        <ele>1175.0</ele>
        <time>2022-11-13T12:42:56.000Z</time>
      </trkpt>
      <trkpt lat="37.29828833" lon="-3.54576">
        <ele>1175.0</ele>
        <time>2022-11-13T12:42:57.000Z</time>
      </trkpt>
      <trkpt lat="37.29828833" lon="-3.54576">
        <ele>1175.0</ele>
        <time>2022-11-13T12:42:58.000Z</time>
      </trkpt>
      <trkpt lat="37.29828833" lon="-3.54576">
        <ele>1175.0</ele>
        <time>2022-11-13T12:42:59.000Z</time>
      </trkpt>
      <trkpt lat="37.29828833" lon="-3.54576">
        <ele>1175.0</ele>
        <time>2022-11-13T12:43:00.000Z</time>
      </trkpt>
      <trkpt lat="37.29828833" lon="-3.54576">
        <ele>1175.0</ele>
        <time>2022-11-13T12:43:01.000Z</time>
      </trkpt>
      <trkpt lat="37.29828833" lon="-3.54576">
        <ele>1175.0</ele>
        <time>2022-11-13T12:43:02.000Z</time>
      </trkpt>
      <trkpt lat="37.29828833" lon="-3.54576">
        <ele>1175.0</ele>
        <time>2022-11-13T12:43:03.000Z</time>
      </trkpt>
      <trkpt lat="37.29828833" lon="-3.54576">
        <ele>1175.0</ele>
        <time>2022-11-13T12:43:04.000Z</time>
      </trkpt>
      <trkpt lat="37.29828833" lon="-3.54576">
        <ele>1175.0</ele>
        <time>2022-11-13T12:43:05.000Z</time>
      </trkpt>
      <trkpt lat="37.29828833" lon="-3.54576">
        <ele>1175.0</ele>
        <time>2022-11-13T12:43:06.000Z</time>
      </trkpt>
      <trkpt lat="37.29828833" lon="-3.54576">
        <ele>1175.0</ele>
        <time>2022-11-13T12:43:07.000Z</time>
      </trkpt>
      <trkpt lat="37.29828833" lon="-3.54576">
        <ele>1175.0</ele>
        <time>2022-11-13T12:43:08.000Z</time>
      </trkpt>
      <trkpt lat="37.29828833" lon="-3.54576">
        <ele>1175.0</ele>
        <time>2022-11-13T12:43:09.000Z</time>
      </trkpt>
      <trkpt lat="37.29828833" lon="-3.54576">
        <ele>1175.0</ele>
        <time>2022-11-13T12:43:10.000Z</time>
      </trkpt>
      <trkpt lat="37.29828833" lon="-3.54576">
        <ele>1175.0</ele>
        <time>2022-11-13T12:43:11.000Z</time>
      </trkpt>
      <trkpt lat="37.29828833" lon="-3.54576">
        <ele>1175.0</ele>
        <time>2022-11-13T12:43:12.000Z</time>
      </trkpt>
      <trkpt lat="37.29828833" lon="-3.54576">
        <ele>1175.0</ele>
        <time>2022-11-13T12:43:13.000Z</time>
      </trkpt>
      <trkpt lat="37.29828833" lon="-3.54576">
        <ele>1175.0</ele>
        <time>2022-11-13T12:43:14.000Z</time>
      </trkpt>
      <trkpt lat="37.29828833" lon="-3.54576">
        <ele>1175.0</ele>
        <time>2022-11-13T12:43:15.000Z</time>
      </trkpt>
      <trkpt lat="37.29828833" lon="-3.54576">
        <ele>1175.0</ele>
        <time>2022-11-13T12:43:16.000Z</time>
      </trkpt>
      <trkpt lat="37.29828833" lon="-3.54576">
        <ele>1175.0</ele>
        <time>2022-11-13T12:43:17.000Z</time>
      </trkpt>
      <trkpt lat="37.29828833" lon="-3.54576">
        <ele>1175.0</ele>
        <time>2022-11-13T12:43:18.000Z</time>
      </trkpt>
      <trkpt lat="37.29828833" lon="-3.54576">
        <ele>1175.0</ele>
        <time>2022-11-13T12:43:19.000Z</time>
      </trkpt>
      <trkpt lat="37.29828833" lon="-3.54576">
        <ele>1175.0</ele>
        <time>2022-11-13T12:43:20.000Z</time>
      </trkpt>
      <trkpt lat="37.29828833" lon="-3.54576">
        <ele>1175.0</ele>
        <time>2022-11-13T12:43:21.000Z</time>
      </trkpt>
      <trkpt lat="37.29828833" lon="-3.54576">
        <ele>1175.0</ele>
        <time>2022-11-13T12:43:22.000Z</time>
      </trkpt>
      <trkpt lat="37.29828833" lon="-3.54576">
        <ele>1175.0</ele>
        <time>2022-11-13T12:43:23.000Z</time>
      </trkpt>
      <trkpt lat="37.29828833" lon="-3.54576">
        <ele>1175.0</ele>
        <time>2022-11-13T12:43:24.000Z</time>
      </trkpt>
      <trkpt lat="37.29828833" lon="-3.54576">
        <ele>1175.0</ele>
        <time>2022-11-13T12:43:25.000Z</time>
      </trkpt>
      <trkpt lat="37.29828833" lon="-3.54576">
        <ele>1175.0</ele>
        <time>2022-11-13T12:43:26.000Z</time>
      </trkpt>
      <trkpt lat="37.29828833" lon="-3.54576">
        <ele>1175.0</ele>
        <time>2022-11-13T12:43:27.000Z</time>
      </trkpt>
      <trkpt lat="37.29828833" lon="-3.54576">
        <ele>1175.0</ele>
        <time>2022-11-13T12:43:28.000Z</time>
      </trkpt>
      <trkpt lat="37.29828833" lon="-3.54576">
        <ele>1175.0</ele>
        <time>2022-11-13T12:43:29.000Z</time>
      </trkpt>
      <trkpt lat="37.29828667" lon="-3.54576">
        <ele>1175.0</ele>
        <time>2022-11-13T12:43:30.000Z</time>
      </trkpt>
      <trkpt lat="37.29828667" lon="-3.54576">
        <ele>1175.0</ele>
        <time>2022-11-13T12:43:31.000Z</time>
      </trkpt>
      <trkpt lat="37.29828667" lon="-3.54576">
        <ele>1175.0</ele>
        <time>2022-11-13T12:43:32.000Z</time>
      </trkpt>
      <trkpt lat="37.29828667" lon="-3.54576">
        <ele>1175.0</ele>
        <time>2022-11-13T12:43:33.000Z</time>
      </trkpt>
      <trkpt lat="37.29828667" lon="-3.54576">
        <ele>1175.0</ele>
        <time>2022-11-13T12:43:34.000Z</time>
      </trkpt>
      <trkpt lat="37.29828833" lon="-3.54576">
        <ele>1175.0</ele>
        <time>2022-11-13T12:43:35.000Z</time>
      </trkpt>
      <trkpt lat="37.29828833" lon="-3.54576">
        <ele>1175.0</ele>
        <time>2022-11-13T12:43:36.000Z</time>
      </trkpt>
      <trkpt lat="37.29828833" lon="-3.54576">
        <ele>1175.0</ele>
        <time>2022-11-13T12:43:37.000Z</time>
      </trkpt>
      <trkpt lat="37.29828833" lon="-3.54576">
        <ele>1175.0</ele>
        <time>2022-11-13T12:43:38.000Z</time>
      </trkpt>
      <trkpt lat="37.29828833" lon="-3.54576">
        <ele>1175.0</ele>
        <time>2022-11-13T12:43:39.000Z</time>
      </trkpt>
      <trkpt lat="37.29828833" lon="-3.54576">
        <ele>1175.0</ele>
        <time>2022-11-13T12:43:40.000Z</time>
      </trkpt>
      <trkpt lat="37.29828833" lon="-3.54576">
        <ele>1175.0</ele>
        <time>2022-11-13T12:43:41.000Z</time>
      </trkpt>
      <trkpt lat="37.29828833" lon="-3.54576">
        <ele>1175.0</ele>
        <time>2022-11-13T12:43:42.000Z</time>
      </trkpt>
      <trkpt lat="37.29828833" lon="-3.54576">
        <ele>1175.0</ele>
        <time>2022-11-13T12:43:43.000Z</time>
      </trkpt>
      <trkpt lat="37.29828833" lon="-3.54576">
        <ele>1175.0</ele>
        <time>2022-11-13T12:43:44.000Z</time>
      </trkpt>
      <trkpt lat="37.29828833" lon="-3.54576">
        <ele>1175.0</ele>
        <time>2022-11-13T12:43:45.000Z</time>
      </trkpt>
      <trkpt lat="37.29828833" lon="-3.54576">
        <ele>1175.0</ele>
        <time>2022-11-13T12:43:46.000Z</time>
      </trkpt>
      <trkpt lat="37.29828833" lon="-3.54576">
        <ele>1175.0</ele>
        <time>2022-11-13T12:43:47.000Z</time>
      </trkpt>
      <trkpt lat="37.29828833" lon="-3.54576">
        <ele>1175.0</ele>
        <time>2022-11-13T12:43:48.000Z</time>
      </trkpt>
      <trkpt lat="37.29828833" lon="-3.54576">
        <ele>1175.0</ele>
        <time>2022-11-13T12:43:49.000Z</time>
      </trkpt>
      <trkpt lat="37.29828833" lon="-3.54576">
        <ele>1175.0</ele>
        <time>2022-11-13T12:43:50.000Z</time>
      </trkpt>
      <trkpt lat="37.29828833" lon="-3.54576">
        <ele>1175.0</ele>
        <time>2022-11-13T12:43:51.000Z</time>
      </trkpt>
      <trkpt lat="37.29829" lon="-3.54576">
        <ele>1175.0</ele>
        <time>2022-11-13T12:43:52.000Z</time>
      </trkpt>
      <trkpt lat="37.29829" lon="-3.54576">
        <ele>1175.0</ele>
        <time>2022-11-13T12:43:53.000Z</time>
      </trkpt>
      <trkpt lat="37.29829" lon="-3.54576">
        <ele>1175.0</ele>
        <time>2022-11-13T12:43:54.000Z</time>
      </trkpt>
      <trkpt lat="37.29829" lon="-3.54576">
        <ele>1175.0</ele>
        <time>2022-11-13T12:43:55.000Z</time>
      </trkpt>
      <trkpt lat="37.29829" lon="-3.54576">
        <ele>1175.0</ele>
        <time>2022-11-13T12:43:56.000Z</time>
      </trkpt>
      <trkpt lat="37.29829" lon="-3.54576">
        <ele>1175.0</ele>
        <time>2022-11-13T12:43:57.000Z</time>
      </trkpt>
      <trkpt lat="37.29829" lon="-3.54576">
        <ele>1175.0</ele>
        <time>2022-11-13T12:43:58.000Z</time>
      </trkpt>
      <trkpt lat="37.29829" lon="-3.54576">
        <ele>1175.0</ele>
        <time>2022-11-13T12:43:59.000Z</time>
      </trkpt>
      <trkpt lat="37.29828833" lon="-3.54576">
        <ele>1175.0</ele>
        <time>2022-11-13T12:44:00.000Z</time>
      </trkpt>
      <trkpt lat="37.29828833" lon="-3.54576">
        <ele>1175.0</ele>
        <time>2022-11-13T12:44:01.000Z</time>
      </trkpt>
      <trkpt lat="37.29828833" lon="-3.54576">
        <ele>1175.0</ele>
        <time>2022-11-13T12:44:02.000Z</time>
      </trkpt>
      <trkpt lat="37.29828833" lon="-3.54576">
        <ele>1175.0</ele>
        <time>2022-11-13T12:44:03.000Z</time>
      </trkpt>
      <trkpt lat="37.29829" lon="-3.54576">
        <ele>1175.0</ele>
        <time>2022-11-13T12:44:04.000Z</time>
      </trkpt>
      <trkpt lat="37.29829" lon="-3.54576">
        <ele>1175.0</ele>
        <time>2022-11-13T12:44:05.000Z</time>
      </trkpt>
      <trkpt lat="37.29829" lon="-3.54576">
        <ele>1175.0</ele>
        <time>2022-11-13T12:44:06.000Z</time>
      </trkpt>
      <trkpt lat="37.29829" lon="-3.54576">
        <ele>1175.0</ele>
        <time>2022-11-13T12:44:07.000Z</time>
      </trkpt>
      <trkpt lat="37.29829" lon="-3.54576">
        <ele>1175.0</ele>
        <time>2022-11-13T12:44:08.000Z</time>
      </trkpt>
      <trkpt lat="37.29829" lon="-3.54576">
        <ele>1175.0</ele>
        <time>2022-11-13T12:44:09.000Z</time>
      </trkpt>
      <trkpt lat="37.29829" lon="-3.54576">
        <ele>1175.0</ele>
        <time>2022-11-13T12:44:10.000Z</time>
      </trkpt>
      <trkpt lat="37.29829" lon="-3.54576">
        <ele>1175.0</ele>
        <time>2022-11-13T12:44:11.000Z</time>
      </trkpt>
      <trkpt lat="37.29829" lon="-3.54576">
        <ele>1175.0</ele>
        <time>2022-11-13T12:44:12.000Z</time>
      </trkpt>
      <trkpt lat="37.29829" lon="-3.54576">
        <ele>1175.0</ele>
        <time>2022-11-13T12:44:13.000Z</time>
      </trkpt>
      <trkpt lat="37.29829" lon="-3.54576">
        <ele>1175.0</ele>
        <time>2022-11-13T12:44:14.000Z</time>
      </trkpt>
      <trkpt lat="37.29829" lon="-3.54576">
        <ele>1175.0</ele>
        <time>2022-11-13T12:44:15.000Z</time>
      </trkpt>
      <trkpt lat="37.29829" lon="-3.54576">
        <ele>1175.0</ele>
        <time>2022-11-13T12:44:16.000Z</time>
      </trkpt>
      <trkpt lat="37.29829167" lon="-3.54576">
        <ele>1175.0</ele>
        <time>2022-11-13T12:44:17.000Z</time>
      </trkpt>
      <trkpt lat="37.29829167" lon="-3.54576">
        <ele>1175.0</ele>
        <time>2022-11-13T12:44:18.000Z</time>
      </trkpt>
      <trkpt lat="37.29829167" lon="-3.54576">
        <ele>1175.0</ele>
        <time>2022-11-13T12:44:19.000Z</time>
      </trkpt>
      <trkpt lat="37.29829167" lon="-3.54576">
        <ele>1175.0</ele>
        <time>2022-11-13T12:44:20.000Z</time>
      </trkpt>
      <trkpt lat="37.29829167" lon="-3.54576">
        <ele>1175.0</ele>
        <time>2022-11-13T12:44:21.000Z</time>
      </trkpt>
      <trkpt lat="37.29829167" lon="-3.54576">
        <ele>1175.0</ele>
        <time>2022-11-13T12:44:22.000Z</time>
      </trkpt>
      <trkpt lat="37.29829167" lon="-3.54576">
        <ele>1175.0</ele>
        <time>2022-11-13T12:44:23.000Z</time>
      </trkpt>
      <trkpt lat="37.29829167" lon="-3.54576">
        <ele>1175.0</ele>
        <time>2022-11-13T12:44:24.000Z</time>
      </trkpt>
      <trkpt lat="37.29829167" lon="-3.54576">
        <ele>1175.0</ele>
        <time>2022-11-13T12:44:25.000Z</time>
      </trkpt>
      <trkpt lat="37.29829167" lon="-3.54576">
        <ele>1175.0</ele>
        <time>2022-11-13T12:44:26.000Z</time>
      </trkpt>
      <trkpt lat="37.29829167" lon="-3.54576">
        <ele>1175.0</ele>
        <time>2022-11-13T12:44:27.000Z</time>
      </trkpt>
      <trkpt lat="37.29829167" lon="-3.54576">
        <ele>1175.0</ele>
        <time>2022-11-13T12:44:28.000Z</time>
      </trkpt>
      <trkpt lat="37.29829167" lon="-3.54576">
        <ele>1175.0</ele>
        <time>2022-11-13T12:44:29.000Z</time>
      </trkpt>
      <trkpt lat="37.29829167" lon="-3.54576">
        <ele>1175.0</ele>
        <time>2022-11-13T12:44:30.000Z</time>
      </trkpt>
      <trkpt lat="37.29829167" lon="-3.54576">
        <ele>1175.0</ele>
        <time>2022-11-13T12:44:31.000Z</time>
      </trkpt>
      <trkpt lat="37.29829167" lon="-3.54576">
        <ele>1175.0</ele>
        <time>2022-11-13T12:44:32.000Z</time>
      </trkpt>
      <trkpt lat="37.29829167" lon="-3.54576">
        <ele>1175.0</ele>
        <time>2022-11-13T12:44:33.000Z</time>
      </trkpt>
      <trkpt lat="37.29829167" lon="-3.54576">
        <ele>1175.0</ele>
        <time>2022-11-13T12:44:34.000Z</time>
      </trkpt>
      <trkpt lat="37.29829167" lon="-3.54576">
        <ele>1175.0</ele>
        <time>2022-11-13T12:44:35.000Z</time>
      </trkpt>
      <trkpt lat="37.29829167" lon="-3.54576167">
        <ele>1175.0</ele>
        <time>2022-11-13T12:44:36.000Z</time>
      </trkpt>
      <trkpt lat="37.29829167" lon="-3.54576167">
        <ele>1175.0</ele>
        <time>2022-11-13T12:44:37.000Z</time>
      </trkpt>
      <trkpt lat="37.29829167" lon="-3.54576167">
        <ele>1175.0</ele>
        <time>2022-11-13T12:44:38.000Z</time>
      </trkpt>
      <trkpt lat="37.29829167" lon="-3.54576167">
        <ele>1175.0</ele>
        <time>2022-11-13T12:44:39.000Z</time>
      </trkpt>
      <trkpt lat="37.29829167" lon="-3.54576167">
        <ele>1175.0</ele>
        <time>2022-11-13T12:44:40.000Z</time>
      </trkpt>
      <trkpt lat="37.29829167" lon="-3.54576167">
        <ele>1175.0</ele>
        <time>2022-11-13T12:44:41.000Z</time>
      </trkpt>
      <trkpt lat="37.29829167" lon="-3.54576167">
        <ele>1175.0</ele>
        <time>2022-11-13T12:44:42.000Z</time>
      </trkpt>
      <trkpt lat="37.29829167" lon="-3.54576167">
        <ele>1175.0</ele>
        <time>2022-11-13T12:44:43.000Z</time>
      </trkpt>
      <trkpt lat="37.29829167" lon="-3.54576167">
        <ele>1175.0</ele>
        <time>2022-11-13T12:44:44.000Z</time>
      </trkpt>
      <trkpt lat="37.29829167" lon="-3.54576167">
        <ele>1175.0</ele>
        <time>2022-11-13T12:44:45.000Z</time>
      </trkpt>
      <trkpt lat="37.29829167" lon="-3.54576167">
        <ele>1175.0</ele>
        <time>2022-11-13T12:44:46.000Z</time>
      </trkpt>
      <trkpt lat="37.29829167" lon="-3.54576167">
        <ele>1175.0</ele>
        <time>2022-11-13T12:44:47.000Z</time>
      </trkpt>
      <trkpt lat="37.29829167" lon="-3.54576167">
        <ele>1175.0</ele>
        <time>2022-11-13T12:44:48.000Z</time>
      </trkpt>
      <trkpt lat="37.29829167" lon="-3.54576167">
        <ele>1175.0</ele>
        <time>2022-11-13T12:44:49.000Z</time>
      </trkpt>
      <trkpt lat="37.29829167" lon="-3.54576167">
        <ele>1175.0</ele>
        <time>2022-11-13T12:44:50.000Z</time>
      </trkpt>
      <trkpt lat="37.29829167" lon="-3.54576167">
        <ele>1175.0</ele>
        <time>2022-11-13T12:44:51.000Z</time>
      </trkpt>
      <trkpt lat="37.29829167" lon="-3.54576167">
        <ele>1175.0</ele>
        <time>2022-11-13T12:44:52.000Z</time>
      </trkpt>
      <trkpt lat="37.29829167" lon="-3.54576167">
        <ele>1175.0</ele>
        <time>2022-11-13T12:44:53.000Z</time>
      </trkpt>
      <trkpt lat="37.29829167" lon="-3.54576167">
        <ele>1175.0</ele>
        <time>2022-11-13T12:44:54.000Z</time>
      </trkpt>
      <trkpt lat="37.29829167" lon="-3.54576167">
        <ele>1175.0</ele>
        <time>2022-11-13T12:44:55.000Z</time>
      </trkpt>
      <trkpt lat="37.29829167" lon="-3.54576167">
        <ele>1175.0</ele>
        <time>2022-11-13T12:44:56.000Z</time>
      </trkpt>
      <trkpt lat="37.29829167" lon="-3.54576167">
        <ele>1175.0</ele>
        <time>2022-11-13T12:44:57.000Z</time>
      </trkpt>
      <trkpt lat="37.29829167" lon="-3.54576167">
        <ele>1175.0</ele>
        <time>2022-11-13T12:44:58.000Z</time>
      </trkpt>
      <trkpt lat="37.29829167" lon="-3.54576167">
        <ele>1175.0</ele>
        <time>2022-11-13T12:44:59.000Z</time>
      </trkpt>
      <trkpt lat="37.29829167" lon="-3.54576167">
        <ele>1175.0</ele>
        <time>2022-11-13T12:45:00.000Z</time>
      </trkpt>
      <trkpt lat="37.29829167" lon="-3.54576">
        <ele>1175.0</ele>
        <time>2022-11-13T12:45:01.000Z</time>
      </trkpt>
      <trkpt lat="37.29829333" lon="-3.54576">
        <ele>1175.0</ele>
        <time>2022-11-13T12:45:02.000Z</time>
      </trkpt>
      <trkpt lat="37.29829333" lon="-3.54576">
        <ele>1175.0</ele>
        <time>2022-11-13T12:45:03.000Z</time>
      </trkpt>
      <trkpt lat="37.29829333" lon="-3.54576">
        <ele>1175.0</ele>
        <time>2022-11-13T12:45:04.000Z</time>
      </trkpt>
      <trkpt lat="37.29829333" lon="-3.54576167">
        <ele>1175.0</ele>
        <time>2022-11-13T12:45:05.000Z</time>
      </trkpt>
      <trkpt lat="37.29829333" lon="-3.54576167">
        <ele>1175.0</ele>
        <time>2022-11-13T12:45:06.000Z</time>
      </trkpt>
      <trkpt lat="37.298295" lon="-3.54576167">
        <ele>1175.0</ele>
        <time>2022-11-13T12:45:07.000Z</time>
      </trkpt>
      <trkpt lat="37.298295" lon="-3.54576167">
        <ele>1175.0</ele>
        <time>2022-11-13T12:45:08.000Z</time>
      </trkpt>
      <trkpt lat="37.298295" lon="-3.54576167">
        <ele>1175.0</ele>
        <time>2022-11-13T12:45:09.000Z</time>
      </trkpt>
      <trkpt lat="37.298295" lon="-3.54576167">
        <ele>1175.0</ele>
        <time>2022-11-13T12:45:10.000Z</time>
      </trkpt>
      <trkpt lat="37.298295" lon="-3.54576167">
        <ele>1175.0</ele>
        <time>2022-11-13T12:45:11.000Z</time>
      </trkpt>
      <trkpt lat="37.298295" lon="-3.54576167">
        <ele>1175.0</ele>
        <time>2022-11-13T12:45:12.000Z</time>
      </trkpt>
      <trkpt lat="37.298295" lon="-3.54576167">
        <ele>1175.0</ele>
        <time>2022-11-13T12:45:13.000Z</time>
      </trkpt>
      <trkpt lat="37.298295" lon="-3.54576167">
        <ele>1175.0</ele>
        <time>2022-11-13T12:45:14.000Z</time>
      </trkpt>
      <trkpt lat="37.298295" lon="-3.54576167">
        <ele>1175.0</ele>
        <time>2022-11-13T12:45:15.000Z</time>
      </trkpt>
      <trkpt lat="37.298295" lon="-3.54576167">
        <ele>1175.0</ele>
        <time>2022-11-13T12:45:16.000Z</time>
      </trkpt>
      <trkpt lat="37.29829667" lon="-3.54576167">
        <ele>1175.0</ele>
        <time>2022-11-13T12:45:17.000Z</time>
      </trkpt>
      <trkpt lat="37.29829667" lon="-3.54576167">
        <ele>1175.0</ele>
        <time>2022-11-13T12:45:18.000Z</time>
      </trkpt>
      <trkpt lat="37.298295" lon="-3.54576">
        <ele>1175.0</ele>
        <time>2022-11-13T12:45:19.000Z</time>
      </trkpt>
      <trkpt lat="37.298295" lon="-3.54575833">
        <ele>1175.0</ele>
        <time>2022-11-13T12:45:20.000Z</time>
      </trkpt>
      <trkpt lat="37.298295" lon="-3.54576">
        <ele>1175.0</ele>
        <time>2022-11-13T12:45:21.000Z</time>
      </trkpt>
      <trkpt lat="37.29829333" lon="-3.54576">
        <ele>1175.0</ele>
        <time>2022-11-13T12:45:22.000Z</time>
      </trkpt>
      <trkpt lat="37.29829167" lon="-3.54575667">
        <ele>1175.0</ele>
        <time>2022-11-13T12:45:23.000Z</time>
      </trkpt>
      <trkpt lat="37.29829167" lon="-3.54575667">
        <ele>1175.0</ele>
        <time>2022-11-13T12:45:24.000Z</time>
      </trkpt>
      <trkpt lat="37.29829167" lon="-3.54575667">
        <ele>1175.0</ele>
        <time>2022-11-13T12:45:25.000Z</time>
      </trkpt>
      <trkpt lat="37.29829" lon="-3.545755">
        <ele>1175.0</ele>
        <time>2022-11-13T12:45:26.000Z</time>
      </trkpt>
      <trkpt lat="37.29829" lon="-3.545755">
        <ele>1175.0</ele>
        <time>2022-11-13T12:45:27.000Z</time>
      </trkpt>
      <trkpt lat="37.29829" lon="-3.545755">
        <ele>1175.0</ele>
        <time>2022-11-13T12:45:28.000Z</time>
      </trkpt>
      <trkpt lat="37.29829" lon="-3.545755">
        <ele>1175.0</ele>
        <time>2022-11-13T12:45:29.000Z</time>
      </trkpt>
      <trkpt lat="37.29828833" lon="-3.545755">
        <ele>1175.0</ele>
        <time>2022-11-13T12:45:30.000Z</time>
      </trkpt>
      <trkpt lat="37.29828833" lon="-3.545755">
        <ele>1175.0</ele>
        <time>2022-11-13T12:45:31.000Z</time>
      </trkpt>
      <trkpt lat="37.29828833" lon="-3.545755">
        <ele>1175.0</ele>
        <time>2022-11-13T12:45:32.000Z</time>
      </trkpt>
      <trkpt lat="37.29828833" lon="-3.545755">
        <ele>1175.0</ele>
        <time>2022-11-13T12:45:33.000Z</time>
      </trkpt>
      <trkpt lat="37.29828667" lon="-3.545755">
        <ele>1175.0</ele>
        <time>2022-11-13T12:45:34.000Z</time>
      </trkpt>
      <trkpt lat="37.29828667" lon="-3.545755">
        <ele>1175.0</ele>
        <time>2022-11-13T12:45:35.000Z</time>
      </trkpt>
      <trkpt lat="37.29828667" lon="-3.545755">
        <ele>1175.0</ele>
        <time>2022-11-13T12:45:36.000Z</time>
      </trkpt>
      <trkpt lat="37.29828667" lon="-3.545755">
        <ele>1175.0</ele>
        <time>2022-11-13T12:45:37.000Z</time>
      </trkpt>
      <trkpt lat="37.29828667" lon="-3.54575833">
        <ele>1175.0</ele>
        <time>2022-11-13T12:45:38.000Z</time>
      </trkpt>
      <trkpt lat="37.29828667" lon="-3.54575833">
        <ele>1175.0</ele>
        <time>2022-11-13T12:45:39.000Z</time>
      </trkpt>
      <trkpt lat="37.29828667" lon="-3.54575833">
        <ele>1175.0</ele>
        <time>2022-11-13T12:45:40.000Z</time>
      </trkpt>
      <trkpt lat="37.29828667" lon="-3.54575833">
        <ele>1175.0</ele>
        <time>2022-11-13T12:45:41.000Z</time>
      </trkpt>
      <trkpt lat="37.29828667" lon="-3.54575833">
        <ele>1175.0</ele>
        <time>2022-11-13T12:45:42.000Z</time>
      </trkpt>
      <trkpt lat="37.29828667" lon="-3.54575833">
        <ele>1175.0</ele>
        <time>2022-11-13T12:45:43.000Z</time>
      </trkpt>
      <trkpt lat="37.29828667" lon="-3.54575833">
        <ele>1175.0</ele>
        <time>2022-11-13T12:45:44.000Z</time>
      </trkpt>
      <trkpt lat="37.29828667" lon="-3.54575833">
        <ele>1175.0</ele>
        <time>2022-11-13T12:45:45.000Z</time>
      </trkpt>
      <trkpt lat="37.298285" lon="-3.54575833">
        <ele>1175.0</ele>
        <time>2022-11-13T12:45:46.000Z</time>
      </trkpt>
      <trkpt lat="37.298285" lon="-3.54575833">
        <ele>1175.0</ele>
        <time>2022-11-13T12:45:47.000Z</time>
      </trkpt>
      <trkpt lat="37.298285" lon="-3.54575833">
        <ele>1175.0</ele>
        <time>2022-11-13T12:45:48.000Z</time>
      </trkpt>
      <trkpt lat="37.298285" lon="-3.54575833">
        <ele>1175.0</ele>
        <time>2022-11-13T12:45:49.000Z</time>
      </trkpt>
      <trkpt lat="37.298285" lon="-3.54575833">
        <ele>1175.0</ele>
        <time>2022-11-13T12:45:50.000Z</time>
      </trkpt>
      <trkpt lat="37.298285" lon="-3.54575833">
        <ele>1175.0</ele>
        <time>2022-11-13T12:45:51.000Z</time>
      </trkpt>
      <trkpt lat="37.298285" lon="-3.54575833">
        <ele>1175.0</ele>
        <time>2022-11-13T12:45:52.000Z</time>
      </trkpt>
      <trkpt lat="37.298285" lon="-3.54575833">
        <ele>1175.0</ele>
        <time>2022-11-13T12:45:53.000Z</time>
      </trkpt>
      <trkpt lat="37.29828333" lon="-3.54575833">
        <ele>1175.0</ele>
        <time>2022-11-13T12:45:54.000Z</time>
      </trkpt>
      <trkpt lat="37.29828333" lon="-3.54575833">
        <ele>1175.0</ele>
        <time>2022-11-13T12:45:55.000Z</time>
      </trkpt>
      <trkpt lat="37.29828333" lon="-3.54575833">
        <ele>1175.0</ele>
        <time>2022-11-13T12:45:56.000Z</time>
      </trkpt>
      <trkpt lat="37.29828333" lon="-3.54575833">
        <ele>1175.0</ele>
        <time>2022-11-13T12:45:57.000Z</time>
      </trkpt>
      <trkpt lat="37.29828333" lon="-3.54575667">
        <ele>1175.0</ele>
        <time>2022-11-13T12:45:58.000Z</time>
      </trkpt>
      <trkpt lat="37.29828333" lon="-3.54575667">
        <ele>1175.0</ele>
        <time>2022-11-13T12:45:59.000Z</time>
      </trkpt>
      <trkpt lat="37.29828333" lon="-3.54575667">
        <ele>1175.0</ele>
        <time>2022-11-13T12:46:00.000Z</time>
      </trkpt>
      <trkpt lat="37.29828333" lon="-3.54575667">
        <ele>1175.0</ele>
        <time>2022-11-13T12:46:01.000Z</time>
      </trkpt>
      <trkpt lat="37.29828333" lon="-3.54575667">
        <ele>1175.0</ele>
        <time>2022-11-13T12:46:02.000Z</time>
      </trkpt>
      <trkpt lat="37.29828333" lon="-3.54575833">
        <ele>1175.0</ele>
        <time>2022-11-13T12:46:03.000Z</time>
      </trkpt>
      <trkpt lat="37.29828333" lon="-3.54575833">
        <ele>1175.0</ele>
        <time>2022-11-13T12:46:04.000Z</time>
      </trkpt>
      <trkpt lat="37.29828333" lon="-3.54575833">
        <ele>1175.0</ele>
        <time>2022-11-13T12:46:05.000Z</time>
      </trkpt>
      <trkpt lat="37.29828333" lon="-3.54575833">
        <ele>1175.0</ele>
        <time>2022-11-13T12:46:06.000Z</time>
      </trkpt>
      <trkpt lat="37.29828333" lon="-3.54575833">
        <ele>1175.0</ele>
        <time>2022-11-13T12:46:07.000Z</time>
      </trkpt>
      <trkpt lat="37.29828333" lon="-3.54575833">
        <ele>1175.0</ele>
        <time>2022-11-13T12:46:08.000Z</time>
      </trkpt>
      <trkpt lat="37.29828333" lon="-3.54575833">
        <ele>1175.0</ele>
        <time>2022-11-13T12:46:09.000Z</time>
      </trkpt>
      <trkpt lat="37.29828333" lon="-3.54575833">
        <ele>1175.0</ele>
        <time>2022-11-13T12:46:10.000Z</time>
      </trkpt>
      <trkpt lat="37.29828333" lon="-3.54575833">
        <ele>1175.0</ele>
        <time>2022-11-13T12:46:11.000Z</time>
      </trkpt>
      <trkpt lat="37.29828333" lon="-3.54575833">
        <ele>1175.0</ele>
        <time>2022-11-13T12:46:12.000Z</time>
      </trkpt>
      <trkpt lat="37.29828333" lon="-3.54575833">
        <ele>1175.0</ele>
        <time>2022-11-13T12:46:13.000Z</time>
      </trkpt>
      <trkpt lat="37.29828333" lon="-3.54575667">
        <ele>1175.0</ele>
        <time>2022-11-13T12:46:14.000Z</time>
      </trkpt>
      <trkpt lat="37.29828333" lon="-3.54575667">
        <ele>1175.0</ele>
        <time>2022-11-13T12:46:15.000Z</time>
      </trkpt>
      <trkpt lat="37.29828333" lon="-3.54575667">
        <ele>1175.0</ele>
        <time>2022-11-13T12:46:16.000Z</time>
      </trkpt>
      <trkpt lat="37.29828333" lon="-3.54575667">
        <ele>1175.0</ele>
        <time>2022-11-13T12:46:17.000Z</time>
      </trkpt>
      <trkpt lat="37.29828333" lon="-3.54575667">
        <ele>1175.0</ele>
        <time>2022-11-13T12:46:18.000Z</time>
      </trkpt>
      <trkpt lat="37.29828333" lon="-3.54575667">
        <ele>1175.0</ele>
        <time>2022-11-13T12:46:19.000Z</time>
      </trkpt>
      <trkpt lat="37.29828167" lon="-3.54575833">
        <ele>1175.0</ele>
        <time>2022-11-13T12:46:20.000Z</time>
      </trkpt>
      <trkpt lat="37.29828167" lon="-3.54575833">
        <ele>1175.0</ele>
        <time>2022-11-13T12:46:21.000Z</time>
      </trkpt>
      <trkpt lat="37.29828167" lon="-3.54575833">
        <ele>1175.0</ele>
        <time>2022-11-13T12:46:22.000Z</time>
      </trkpt>
      <trkpt lat="37.29828167" lon="-3.54575833">
        <ele>1175.0</ele>
        <time>2022-11-13T12:46:23.000Z</time>
      </trkpt>
      <trkpt lat="37.29828167" lon="-3.54575833">
        <ele>1175.0</ele>
        <time>2022-11-13T12:46:24.000Z</time>
      </trkpt>
      <trkpt lat="37.29828167" lon="-3.54575833">
        <ele>1175.0</ele>
        <time>2022-11-13T12:46:25.000Z</time>
      </trkpt>
      <trkpt lat="37.29828167" lon="-3.54575833">
        <ele>1175.0</ele>
        <time>2022-11-13T12:46:26.000Z</time>
      </trkpt>
      <trkpt lat="37.29828167" lon="-3.54575833">
        <ele>1175.0</ele>
        <time>2022-11-13T12:46:27.000Z</time>
      </trkpt>
      <trkpt lat="37.29828167" lon="-3.54575833">
        <ele>1175.0</ele>
        <time>2022-11-13T12:46:28.000Z</time>
      </trkpt>
      <trkpt lat="37.29828167" lon="-3.54575833">
        <ele>1175.0</ele>
        <time>2022-11-13T12:46:29.000Z</time>
      </trkpt>
      <trkpt lat="37.29828167" lon="-3.54575833">
        <ele>1175.0</ele>
        <time>2022-11-13T12:46:30.000Z</time>
      </trkpt>
      <trkpt lat="37.29828167" lon="-3.54575667">
        <ele>1175.0</ele>
        <time>2022-11-13T12:46:31.000Z</time>
      </trkpt>
      <trkpt lat="37.29828167" lon="-3.54575667">
        <ele>1174.0</ele>
        <time>2022-11-13T12:46:32.000Z</time>
      </trkpt>
      <trkpt lat="37.29828167" lon="-3.54575667">
        <ele>1174.0</ele>
        <time>2022-11-13T12:46:33.000Z</time>
      </trkpt>
      <trkpt lat="37.29828167" lon="-3.54575667">
        <ele>1174.0</ele>
        <time>2022-11-13T12:46:34.000Z</time>
      </trkpt>
      <trkpt lat="37.29828167" lon="-3.54575667">
        <ele>1174.0</ele>
        <time>2022-11-13T12:46:35.000Z</time>
      </trkpt>
      <trkpt lat="37.29828167" lon="-3.54575667">
        <ele>1174.0</ele>
        <time>2022-11-13T12:46:36.000Z</time>
      </trkpt>
      <trkpt lat="37.29828167" lon="-3.545755">
        <ele>1174.0</ele>
        <time>2022-11-13T12:46:37.000Z</time>
      </trkpt>
      <trkpt lat="37.29828167" lon="-3.54575333">
        <ele>1175.0</ele>
        <time>2022-11-13T12:46:38.000Z</time>
      </trkpt>
      <trkpt lat="37.29828333" lon="-3.54575">
        <ele>1175.0</ele>
        <time>2022-11-13T12:46:39.000Z</time>
      </trkpt>
      <trkpt lat="37.29828167" lon="-3.54575333">
        <ele>1175.0</ele>
        <time>2022-11-13T12:46:40.000Z</time>
      </trkpt>
      <trkpt lat="37.29828167" lon="-3.54575167">
        <ele>1175.0</ele>
        <time>2022-11-13T12:46:41.000Z</time>
      </trkpt>
      <trkpt lat="37.29828167" lon="-3.54575167">
        <ele>1175.0</ele>
        <time>2022-11-13T12:46:42.000Z</time>
      </trkpt>
      <trkpt lat="37.29828167" lon="-3.54575167">
        <ele>1175.0</ele>
        <time>2022-11-13T12:46:43.000Z</time>
      </trkpt>
      <trkpt lat="37.29828167" lon="-3.54575167">
        <ele>1175.0</ele>
        <time>2022-11-13T12:46:44.000Z</time>
      </trkpt>
      <trkpt lat="37.29828167" lon="-3.54575167">
        <ele>1175.0</ele>
        <time>2022-11-13T12:46:45.000Z</time>
      </trkpt>
      <trkpt lat="37.29828167" lon="-3.54575167">
        <ele>1175.0</ele>
        <time>2022-11-13T12:46:46.000Z</time>
      </trkpt>
      <trkpt lat="37.29828167" lon="-3.54575167">
        <ele>1175.0</ele>
        <time>2022-11-13T12:46:47.000Z</time>
      </trkpt>
      <trkpt lat="37.29828167" lon="-3.54575">
        <ele>1175.0</ele>
        <time>2022-11-13T12:46:48.000Z</time>
      </trkpt>
      <trkpt lat="37.29828167" lon="-3.54574833">
        <ele>1175.0</ele>
        <time>2022-11-13T12:46:49.000Z</time>
      </trkpt>
      <trkpt lat="37.29828167" lon="-3.54574833">
        <ele>1175.0</ele>
        <time>2022-11-13T12:46:50.000Z</time>
      </trkpt>
      <trkpt lat="37.29828167" lon="-3.54574833">
        <ele>1175.0</ele>
        <time>2022-11-13T12:46:51.000Z</time>
      </trkpt>
      <trkpt lat="37.29828167" lon="-3.54574833">
        <ele>1175.0</ele>
        <time>2022-11-13T12:46:52.000Z</time>
      </trkpt>
      <trkpt lat="37.29828167" lon="-3.54574833">
        <ele>1175.0</ele>
        <time>2022-11-13T12:46:53.000Z</time>
      </trkpt>
      <trkpt lat="37.29828167" lon="-3.54574833">
        <ele>1175.0</ele>
        <time>2022-11-13T12:46:54.000Z</time>
      </trkpt>
      <trkpt lat="37.29828167" lon="-3.54574833">
        <ele>1175.0</ele>
        <time>2022-11-13T12:46:55.000Z</time>
      </trkpt>
      <trkpt lat="37.29828167" lon="-3.54575">
        <ele>1175.0</ele>
        <time>2022-11-13T12:46:56.000Z</time>
      </trkpt>
      <trkpt lat="37.29828167" lon="-3.54575">
        <ele>1175.0</ele>
        <time>2022-11-13T12:46:57.000Z</time>
      </trkpt>
      <trkpt lat="37.29828167" lon="-3.54575">
        <ele>1175.0</ele>
        <time>2022-11-13T12:46:58.000Z</time>
      </trkpt>
      <trkpt lat="37.29828333" lon="-3.54575">
        <ele>1175.0</ele>
        <time>2022-11-13T12:46:59.000Z</time>
      </trkpt>
      <trkpt lat="37.29828333" lon="-3.54575">
        <ele>1175.0</ele>
        <time>2022-11-13T12:47:00.000Z</time>
      </trkpt>
      <trkpt lat="37.29828333" lon="-3.54575167">
        <ele>1175.0</ele>
        <time>2022-11-13T12:47:01.000Z</time>
      </trkpt>
      <trkpt lat="37.298285" lon="-3.54575333">
        <ele>1175.0</ele>
        <time>2022-11-13T12:47:02.000Z</time>
      </trkpt>
      <trkpt lat="37.298285" lon="-3.54575333">
        <ele>1175.0</ele>
        <time>2022-11-13T12:47:03.000Z</time>
      </trkpt>
      <trkpt lat="37.298285" lon="-3.54575333">
        <ele>1175.0</ele>
        <time>2022-11-13T12:47:04.000Z</time>
      </trkpt>
      <trkpt lat="37.298285" lon="-3.54575333">
        <ele>1175.0</ele>
        <time>2022-11-13T12:47:05.000Z</time>
      </trkpt>
      <trkpt lat="37.298285" lon="-3.54575333">
        <ele>1175.0</ele>
        <time>2022-11-13T12:47:06.000Z</time>
      </trkpt>
      <trkpt lat="37.298285" lon="-3.54575333">
        <ele>1175.0</ele>
        <time>2022-11-13T12:47:07.000Z</time>
      </trkpt>
      <trkpt lat="37.298285" lon="-3.54575333">
        <ele>1175.0</ele>
        <time>2022-11-13T12:47:08.000Z</time>
      </trkpt>
      <trkpt lat="37.298285" lon="-3.54575333">
        <ele>1175.0</ele>
        <time>2022-11-13T12:47:09.000Z</time>
      </trkpt>
      <trkpt lat="37.298285" lon="-3.54575333">
        <ele>1175.0</ele>
        <time>2022-11-13T12:47:10.000Z</time>
      </trkpt>
      <trkpt lat="37.298285" lon="-3.54575333">
        <ele>1175.0</ele>
        <time>2022-11-13T12:47:11.000Z</time>
      </trkpt>
      <trkpt lat="37.298285" lon="-3.54575333">
        <ele>1175.0</ele>
        <time>2022-11-13T12:47:12.000Z</time>
      </trkpt>
      <trkpt lat="37.298285" lon="-3.54575333">
        <ele>1175.0</ele>
        <time>2022-11-13T12:47:13.000Z</time>
      </trkpt>
      <trkpt lat="37.298285" lon="-3.54575333">
        <ele>1175.0</ele>
        <time>2022-11-13T12:47:14.000Z</time>
      </trkpt>
      <trkpt lat="37.298285" lon="-3.54575333">
        <ele>1175.0</ele>
        <time>2022-11-13T12:47:15.000Z</time>
      </trkpt>
      <trkpt lat="37.298285" lon="-3.54575333">
        <ele>1175.0</ele>
        <time>2022-11-13T12:47:16.000Z</time>
      </trkpt>
      <trkpt lat="37.29828667" lon="-3.54575333">
        <ele>1175.0</ele>
        <time>2022-11-13T12:47:17.000Z</time>
      </trkpt>
      <trkpt lat="37.29828667" lon="-3.54575333">
        <ele>1175.0</ele>
        <time>2022-11-13T12:47:18.000Z</time>
      </trkpt>
      <trkpt lat="37.29828667" lon="-3.54575333">
        <ele>1175.0</ele>
        <time>2022-11-13T12:47:19.000Z</time>
      </trkpt>
      <trkpt lat="37.29828667" lon="-3.54575333">
        <ele>1175.0</ele>
        <time>2022-11-13T12:47:20.000Z</time>
      </trkpt>
      <trkpt lat="37.29828667" lon="-3.545755">
        <ele>1175.0</ele>
        <time>2022-11-13T12:47:21.000Z</time>
      </trkpt>
      <trkpt lat="37.29828667" lon="-3.545755">
        <ele>1175.0</ele>
        <time>2022-11-13T12:47:22.000Z</time>
      </trkpt>
      <trkpt lat="37.298285" lon="-3.54575333">
        <ele>1175.0</ele>
        <time>2022-11-13T12:47:23.000Z</time>
      </trkpt>
      <trkpt lat="37.298285" lon="-3.54575333">
        <ele>1175.0</ele>
        <time>2022-11-13T12:47:24.000Z</time>
      </trkpt>
      <trkpt lat="37.298285" lon="-3.54575333">
        <ele>1175.0</ele>
        <time>2022-11-13T12:47:25.000Z</time>
      </trkpt>
      <trkpt lat="37.298285" lon="-3.54575333">
        <ele>1175.0</ele>
        <time>2022-11-13T12:47:26.000Z</time>
      </trkpt>
      <trkpt lat="37.298285" lon="-3.545755">
        <ele>1175.0</ele>
        <time>2022-11-13T12:47:27.000Z</time>
      </trkpt>
      <trkpt lat="37.298285" lon="-3.545755">
        <ele>1175.0</ele>
        <time>2022-11-13T12:47:28.000Z</time>
      </trkpt>
      <trkpt lat="37.298285" lon="-3.545755">
        <ele>1175.0</ele>
        <time>2022-11-13T12:47:29.000Z</time>
      </trkpt>
      <trkpt lat="37.298285" lon="-3.545755">
        <ele>1175.0</ele>
        <time>2022-11-13T12:47:30.000Z</time>
      </trkpt>
      <trkpt lat="37.29828667" lon="-3.545755">
        <ele>1175.0</ele>
        <time>2022-11-13T12:47:31.000Z</time>
      </trkpt>
      <trkpt lat="37.29828667" lon="-3.545755">
        <ele>1175.0</ele>
        <time>2022-11-13T12:47:32.000Z</time>
      </trkpt>
      <trkpt lat="37.29828667" lon="-3.545755">
        <ele>1175.0</ele>
        <time>2022-11-13T12:47:33.000Z</time>
      </trkpt>
      <trkpt lat="37.29828667" lon="-3.545755">
        <ele>1175.0</ele>
        <time>2022-11-13T12:47:34.000Z</time>
      </trkpt>
      <trkpt lat="37.29828667" lon="-3.545755">
        <ele>1175.0</ele>
        <time>2022-11-13T12:47:35.000Z</time>
      </trkpt>
      <trkpt lat="37.29828667" lon="-3.545755">
        <ele>1175.0</ele>
        <time>2022-11-13T12:47:36.000Z</time>
      </trkpt>
      <trkpt lat="37.29828667" lon="-3.545755">
        <ele>1175.0</ele>
        <time>2022-11-13T12:47:37.000Z</time>
      </trkpt>
      <trkpt lat="37.29828667" lon="-3.545755">
        <ele>1175.0</ele>
        <time>2022-11-13T12:47:38.000Z</time>
      </trkpt>
      <trkpt lat="37.29828667" lon="-3.545755">
        <ele>1175.0</ele>
        <time>2022-11-13T12:47:39.000Z</time>
      </trkpt>
      <trkpt lat="37.29828667" lon="-3.545755">
        <ele>1175.0</ele>
        <time>2022-11-13T12:47:40.000Z</time>
      </trkpt>
      <trkpt lat="37.29828667" lon="-3.545755">
        <ele>1175.0</ele>
        <time>2022-11-13T12:47:41.000Z</time>
      </trkpt>
      <trkpt lat="37.29828667" lon="-3.545755">
        <ele>1175.0</ele>
        <time>2022-11-13T12:47:42.000Z</time>
      </trkpt>
      <trkpt lat="37.29828667" lon="-3.545755">
        <ele>1175.0</ele>
        <time>2022-11-13T12:47:43.000Z</time>
      </trkpt>
      <trkpt lat="37.29828667" lon="-3.545755">
        <ele>1175.0</ele>
        <time>2022-11-13T12:47:44.000Z</time>
      </trkpt>
      <trkpt lat="37.29828667" lon="-3.545755">
        <ele>1175.0</ele>
        <time>2022-11-13T12:47:45.000Z</time>
      </trkpt>
      <trkpt lat="37.29828667" lon="-3.545755">
        <ele>1175.0</ele>
        <time>2022-11-13T12:47:46.000Z</time>
      </trkpt>
      <trkpt lat="37.29828667" lon="-3.545755">
        <ele>1175.0</ele>
        <time>2022-11-13T12:47:47.000Z</time>
      </trkpt>
      <trkpt lat="37.29828667" lon="-3.545755">
        <ele>1175.0</ele>
        <time>2022-11-13T12:47:48.000Z</time>
      </trkpt>
      <trkpt lat="37.29828667" lon="-3.545755">
        <ele>1175.0</ele>
        <time>2022-11-13T12:47:49.000Z</time>
      </trkpt>
      <trkpt lat="37.298285" lon="-3.54575667">
        <ele>1175.0</ele>
        <time>2022-11-13T12:47:50.000Z</time>
      </trkpt>
      <trkpt lat="37.298285" lon="-3.54575667">
        <ele>1175.0</ele>
        <time>2022-11-13T12:47:51.000Z</time>
      </trkpt>
      <trkpt lat="37.298285" lon="-3.54575667">
        <ele>1175.0</ele>
        <time>2022-11-13T12:47:52.000Z</time>
      </trkpt>
      <trkpt lat="37.29828667" lon="-3.54575667">
        <ele>1175.0</ele>
        <time>2022-11-13T12:47:53.000Z</time>
      </trkpt>
      <trkpt lat="37.29828667" lon="-3.54575667">
        <ele>1175.0</ele>
        <time>2022-11-13T12:47:54.000Z</time>
      </trkpt>
      <trkpt lat="37.29828667" lon="-3.54575667">
        <ele>1175.0</ele>
        <time>2022-11-13T12:47:55.000Z</time>
      </trkpt>
      <trkpt lat="37.29828667" lon="-3.54575667">
        <ele>1175.0</ele>
        <time>2022-11-13T12:47:56.000Z</time>
      </trkpt>
      <trkpt lat="37.29828667" lon="-3.54575667">
        <ele>1175.0</ele>
        <time>2022-11-13T12:47:57.000Z</time>
      </trkpt>
      <trkpt lat="37.29828667" lon="-3.54575667">
        <ele>1175.0</ele>
        <time>2022-11-13T12:47:58.000Z</time>
      </trkpt>
      <trkpt lat="37.29828667" lon="-3.54575667">
        <ele>1175.0</ele>
        <time>2022-11-13T12:47:59.000Z</time>
      </trkpt>
      <trkpt lat="37.29828667" lon="-3.54575667">
        <ele>1175.0</ele>
        <time>2022-11-13T12:48:00.000Z</time>
      </trkpt>
      <trkpt lat="37.29828667" lon="-3.54575667">
        <ele>1175.0</ele>
        <time>2022-11-13T12:48:01.000Z</time>
      </trkpt>
      <trkpt lat="37.29828667" lon="-3.54575667">
        <ele>1175.0</ele>
        <time>2022-11-13T12:48:02.000Z</time>
      </trkpt>
      <trkpt lat="37.29828667" lon="-3.54575667">
        <ele>1175.0</ele>
        <time>2022-11-13T12:48:03.000Z</time>
      </trkpt>
      <trkpt lat="37.29828667" lon="-3.54575667">
        <ele>1175.0</ele>
        <time>2022-11-13T12:48:04.000Z</time>
      </trkpt>
      <trkpt lat="37.29828667" lon="-3.54575667">
        <ele>1175.0</ele>
        <time>2022-11-13T12:48:05.000Z</time>
      </trkpt>
      <trkpt lat="37.29828667" lon="-3.54575667">
        <ele>1175.0</ele>
        <time>2022-11-13T12:48:06.000Z</time>
      </trkpt>
      <trkpt lat="37.29828667" lon="-3.54575667">
        <ele>1175.0</ele>
        <time>2022-11-13T12:48:07.000Z</time>
      </trkpt>
      <trkpt lat="37.29828667" lon="-3.54575667">
        <ele>1175.0</ele>
        <time>2022-11-13T12:48:08.000Z</time>
      </trkpt>
      <trkpt lat="37.29828667" lon="-3.54575667">
        <ele>1175.0</ele>
        <time>2022-11-13T12:48:09.000Z</time>
      </trkpt>
      <trkpt lat="37.29828667" lon="-3.545755">
        <ele>1175.0</ele>
        <time>2022-11-13T12:48:10.000Z</time>
      </trkpt>
      <trkpt lat="37.29828667" lon="-3.545755">
        <ele>1175.0</ele>
        <time>2022-11-13T12:48:11.000Z</time>
      </trkpt>
      <trkpt lat="37.29828667" lon="-3.545755">
        <ele>1175.0</ele>
        <time>2022-11-13T12:48:12.000Z</time>
      </trkpt>
      <trkpt lat="37.29828667" lon="-3.545755">
        <ele>1175.0</ele>
        <time>2022-11-13T12:48:13.000Z</time>
      </trkpt>
      <trkpt lat="37.29828667" lon="-3.545755">
        <ele>1175.0</ele>
        <time>2022-11-13T12:48:14.000Z</time>
      </trkpt>
      <trkpt lat="37.29828667" lon="-3.545755">
        <ele>1175.0</ele>
        <time>2022-11-13T12:48:15.000Z</time>
      </trkpt>
      <trkpt lat="37.29828667" lon="-3.545755">
        <ele>1175.0</ele>
        <time>2022-11-13T12:48:16.000Z</time>
      </trkpt>
      <trkpt lat="37.29828667" lon="-3.545755">
        <ele>1175.0</ele>
        <time>2022-11-13T12:48:17.000Z</time>
      </trkpt>
      <trkpt lat="37.29828667" lon="-3.545755">
        <ele>1175.0</ele>
        <time>2022-11-13T12:48:18.000Z</time>
      </trkpt>
      <trkpt lat="37.29828667" lon="-3.545755">
        <ele>1175.0</ele>
        <time>2022-11-13T12:48:19.000Z</time>
      </trkpt>
      <trkpt lat="37.29828667" lon="-3.545755">
        <ele>1175.0</ele>
        <time>2022-11-13T12:48:20.000Z</time>
      </trkpt>
      <trkpt lat="37.29828667" lon="-3.545755">
        <ele>1175.0</ele>
        <time>2022-11-13T12:48:21.000Z</time>
      </trkpt>
      <trkpt lat="37.29828833" lon="-3.545755">
        <ele>1175.0</ele>
        <time>2022-11-13T12:48:22.000Z</time>
      </trkpt>
      <trkpt lat="37.29828833" lon="-3.545755">
        <ele>1175.0</ele>
        <time>2022-11-13T12:48:23.000Z</time>
      </trkpt>
      <trkpt lat="37.29828833" lon="-3.545755">
        <ele>1175.0</ele>
        <time>2022-11-13T12:48:24.000Z</time>
      </trkpt>
      <trkpt lat="37.29828833" lon="-3.545755">
        <ele>1175.0</ele>
        <time>2022-11-13T12:48:25.000Z</time>
      </trkpt>
      <trkpt lat="37.29828833" lon="-3.545755">
        <ele>1175.0</ele>
        <time>2022-11-13T12:48:26.000Z</time>
      </trkpt>
      <trkpt lat="37.29828833" lon="-3.545755">
        <ele>1175.0</ele>
        <time>2022-11-13T12:48:27.000Z</time>
      </trkpt>
      <trkpt lat="37.29828833" lon="-3.545755">
        <ele>1175.0</ele>
        <time>2022-11-13T12:48:28.000Z</time>
      </trkpt>
      <trkpt lat="37.29828833" lon="-3.545755">
        <ele>1175.0</ele>
        <time>2022-11-13T12:48:29.000Z</time>
      </trkpt>
      <trkpt lat="37.29828833" lon="-3.545755">
        <ele>1175.0</ele>
        <time>2022-11-13T12:48:30.000Z</time>
      </trkpt>
      <trkpt lat="37.29828833" lon="-3.545755">
        <ele>1175.0</ele>
        <time>2022-11-13T12:48:31.000Z</time>
      </trkpt>
      <trkpt lat="37.29828833" lon="-3.545755">
        <ele>1175.0</ele>
        <time>2022-11-13T12:48:32.000Z</time>
      </trkpt>
      <trkpt lat="37.29828833" lon="-3.545755">
        <ele>1175.0</ele>
        <time>2022-11-13T12:48:33.000Z</time>
      </trkpt>
      <trkpt lat="37.29828833" lon="-3.545755">
        <ele>1174.0</ele>
        <time>2022-11-13T12:48:34.000Z</time>
      </trkpt>
      <trkpt lat="37.29828833" lon="-3.545755">
        <ele>1174.0</ele>
        <time>2022-11-13T12:48:35.000Z</time>
      </trkpt>
      <trkpt lat="37.29828833" lon="-3.545755">
        <ele>1174.0</ele>
        <time>2022-11-13T12:48:36.000Z</time>
      </trkpt>
      <trkpt lat="37.29828833" lon="-3.545755">
        <ele>1174.0</ele>
        <time>2022-11-13T12:48:37.000Z</time>
      </trkpt>
      <trkpt lat="37.29828833" lon="-3.545755">
        <ele>1174.0</ele>
        <time>2022-11-13T12:48:38.000Z</time>
      </trkpt>
      <trkpt lat="37.29828833" lon="-3.545755">
        <ele>1174.0</ele>
        <time>2022-11-13T12:48:39.000Z</time>
      </trkpt>
      <trkpt lat="37.29828833" lon="-3.545755">
        <ele>1174.0</ele>
        <time>2022-11-13T12:48:40.000Z</time>
      </trkpt>
      <trkpt lat="37.29828833" lon="-3.545755">
        <ele>1174.0</ele>
        <time>2022-11-13T12:48:41.000Z</time>
      </trkpt>
      <trkpt lat="37.29828833" lon="-3.545755">
        <ele>1174.0</ele>
        <time>2022-11-13T12:48:42.000Z</time>
      </trkpt>
      <trkpt lat="37.29828833" lon="-3.545755">
        <ele>1174.0</ele>
        <time>2022-11-13T12:48:43.000Z</time>
      </trkpt>
      <trkpt lat="37.29828667" lon="-3.545755">
        <ele>1174.0</ele>
        <time>2022-11-13T12:48:44.000Z</time>
      </trkpt>
      <trkpt lat="37.298285" lon="-3.545755">
        <ele>1174.0</ele>
        <time>2022-11-13T12:48:45.000Z</time>
      </trkpt>
      <trkpt lat="37.298285" lon="-3.545755">
        <ele>1174.0</ele>
        <time>2022-11-13T12:48:46.000Z</time>
      </trkpt>
      <trkpt lat="37.298285" lon="-3.545755">
        <ele>1174.0</ele>
        <time>2022-11-13T12:48:47.000Z</time>
      </trkpt>
      <trkpt lat="37.298285" lon="-3.545755">
        <ele>1174.0</ele>
        <time>2022-11-13T12:48:48.000Z</time>
      </trkpt>
      <trkpt lat="37.298285" lon="-3.545755">
        <ele>1174.0</ele>
        <time>2022-11-13T12:48:49.000Z</time>
      </trkpt>
      <trkpt lat="37.298285" lon="-3.545755">
        <ele>1174.0</ele>
        <time>2022-11-13T12:48:50.000Z</time>
      </trkpt>
      <trkpt lat="37.298285" lon="-3.545755">
        <ele>1174.0</ele>
        <time>2022-11-13T12:48:51.000Z</time>
      </trkpt>
      <trkpt lat="37.298285" lon="-3.545755">
        <ele>1174.0</ele>
        <time>2022-11-13T12:48:52.000Z</time>
      </trkpt>
      <trkpt lat="37.298285" lon="-3.545755">
        <ele>1174.0</ele>
        <time>2022-11-13T12:48:53.000Z</time>
      </trkpt>
      <trkpt lat="37.298285" lon="-3.545755">
        <ele>1174.0</ele>
        <time>2022-11-13T12:48:54.000Z</time>
      </trkpt>
      <trkpt lat="37.298285" lon="-3.545755">
        <ele>1174.0</ele>
        <time>2022-11-13T12:48:55.000Z</time>
      </trkpt>
      <trkpt lat="37.298285" lon="-3.545755">
        <ele>1174.0</ele>
        <time>2022-11-13T12:48:56.000Z</time>
      </trkpt>
      <trkpt lat="37.298285" lon="-3.545755">
        <ele>1174.0</ele>
        <time>2022-11-13T12:48:57.000Z</time>
      </trkpt>
      <trkpt lat="37.29828333" lon="-3.54575167">
        <ele>1174.0</ele>
        <time>2022-11-13T12:48:58.000Z</time>
      </trkpt>
      <trkpt lat="37.29828333" lon="-3.545755">
        <ele>1174.0</ele>
        <time>2022-11-13T12:48:59.000Z</time>
      </trkpt>
      <trkpt lat="37.29828333" lon="-3.54575167">
        <ele>1174.0</ele>
        <time>2022-11-13T12:49:00.000Z</time>
      </trkpt>
      <trkpt lat="37.29828333" lon="-3.54575">
        <ele>1174.0</ele>
        <time>2022-11-13T12:49:01.000Z</time>
      </trkpt>
      <trkpt lat="37.298285" lon="-3.54575167">
        <ele>1174.0</ele>
        <time>2022-11-13T12:49:02.000Z</time>
      </trkpt>
      <trkpt lat="37.298285" lon="-3.54575167">
        <ele>1174.0</ele>
        <time>2022-11-13T12:49:03.000Z</time>
      </trkpt>
      <trkpt lat="37.298285" lon="-3.54575167">
        <ele>1174.0</ele>
        <time>2022-11-13T12:49:04.000Z</time>
      </trkpt>
      <trkpt lat="37.29828333" lon="-3.54575667">
        <ele>1174.0</ele>
        <time>2022-11-13T12:49:05.000Z</time>
      </trkpt>
      <trkpt lat="37.298285" lon="-3.545755">
        <ele>1174.0</ele>
        <time>2022-11-13T12:49:06.000Z</time>
      </trkpt>
      <trkpt lat="37.29828667" lon="-3.54575667">
        <ele>1174.0</ele>
        <time>2022-11-13T12:49:07.000Z</time>
      </trkpt>
      <trkpt lat="37.29828833" lon="-3.54576167">
        <ele>1174.0</ele>
        <time>2022-11-13T12:49:08.000Z</time>
      </trkpt>
      <trkpt lat="37.298295" lon="-3.545765">
        <ele>1174.0</ele>
        <time>2022-11-13T12:49:09.000Z</time>
      </trkpt>
      <trkpt lat="37.298305" lon="-3.54576833">
        <ele>1174.0</ele>
        <time>2022-11-13T12:49:10.000Z</time>
      </trkpt>
      <trkpt lat="37.298315" lon="-3.54576667">
        <ele>1174.0</ele>
        <time>2022-11-13T12:49:11.000Z</time>
      </trkpt>
      <trkpt lat="37.29832333" lon="-3.54576167">
        <ele>1174.0</ele>
        <time>2022-11-13T12:49:12.000Z</time>
      </trkpt>
      <trkpt lat="37.29833" lon="-3.54575333">
        <ele>1174.0</ele>
        <time>2022-11-13T12:49:13.000Z</time>
      </trkpt>
      <trkpt lat="37.298335" lon="-3.54574333">
        <ele>1174.0</ele>
        <time>2022-11-13T12:49:14.000Z</time>
      </trkpt>
      <trkpt lat="37.29833833" lon="-3.54573333">
        <ele>1174.0</ele>
        <time>2022-11-13T12:49:15.000Z</time>
      </trkpt>
      <trkpt lat="37.29834167" lon="-3.54572167">
        <ele>1174.0</ele>
        <time>2022-11-13T12:49:16.000Z</time>
      </trkpt>
      <trkpt lat="37.298345" lon="-3.54571333">
        <ele>1174.0</ele>
        <time>2022-11-13T12:49:17.000Z</time>
      </trkpt>
      <trkpt lat="37.29834667" lon="-3.5457">
        <ele>1174.0</ele>
        <time>2022-11-13T12:49:18.000Z</time>
      </trkpt>
      <trkpt lat="37.29835" lon="-3.54568667">
        <ele>1174.0</ele>
        <time>2022-11-13T12:49:19.000Z</time>
      </trkpt>
      <trkpt lat="37.298355" lon="-3.545675">
        <ele>1174.0</ele>
        <time>2022-11-13T12:49:20.000Z</time>
      </trkpt>
      <trkpt lat="37.29835833" lon="-3.545665">
        <ele>1174.0</ele>
        <time>2022-11-13T12:49:21.000Z</time>
      </trkpt>
      <trkpt lat="37.29836333" lon="-3.545655">
        <ele>1174.0</ele>
        <time>2022-11-13T12:49:22.000Z</time>
      </trkpt>
      <trkpt lat="37.29836667" lon="-3.54564333">
        <ele>1174.0</ele>
        <time>2022-11-13T12:49:23.000Z</time>
      </trkpt>
      <trkpt lat="37.29837" lon="-3.54563">
        <ele>1174.0</ele>
        <time>2022-11-13T12:49:24.000Z</time>
      </trkpt>
      <trkpt lat="37.29837167" lon="-3.54561833">
        <ele>1174.0</ele>
        <time>2022-11-13T12:49:25.000Z</time>
      </trkpt>
      <trkpt lat="37.29837333" lon="-3.54561">
        <ele>1174.0</ele>
        <time>2022-11-13T12:49:26.000Z</time>
      </trkpt>
      <trkpt lat="37.29837667" lon="-3.54560833">
        <ele>1174.0</ele>
        <time>2022-11-13T12:49:27.000Z</time>
      </trkpt>
      <trkpt lat="37.29837833" lon="-3.54560333">
        <ele>1174.0</ele>
        <time>2022-11-13T12:49:28.000Z</time>
      </trkpt>
      <trkpt lat="37.29838167" lon="-3.5456">
        <ele>1174.0</ele>
        <time>2022-11-13T12:49:29.000Z</time>
      </trkpt>
      <trkpt lat="37.29838333" lon="-3.54559833">
        <ele>1174.0</ele>
        <time>2022-11-13T12:49:30.000Z</time>
      </trkpt>
      <trkpt lat="37.29838333" lon="-3.54559667">
        <ele>1174.0</ele>
        <time>2022-11-13T12:49:31.000Z</time>
      </trkpt>
      <trkpt lat="37.29838333" lon="-3.54559667">
        <ele>1174.0</ele>
        <time>2022-11-13T12:49:32.000Z</time>
      </trkpt>
      <trkpt lat="37.29838333" lon="-3.54559667">
        <ele>1174.0</ele>
        <time>2022-11-13T12:49:33.000Z</time>
      </trkpt>
      <trkpt lat="37.29838333" lon="-3.54559667">
        <ele>1174.0</ele>
        <time>2022-11-13T12:49:34.000Z</time>
      </trkpt>
      <trkpt lat="37.29838333" lon="-3.54559667">
        <ele>1174.0</ele>
        <time>2022-11-13T12:49:35.000Z</time>
      </trkpt>
      <trkpt lat="37.29838333" lon="-3.545595">
        <ele>1174.0</ele>
        <time>2022-11-13T12:49:36.000Z</time>
      </trkpt>
      <trkpt lat="37.29838333" lon="-3.54559333">
        <ele>1174.0</ele>
        <time>2022-11-13T12:49:37.000Z</time>
      </trkpt>
      <trkpt lat="37.29838333" lon="-3.54559333">
        <ele>1174.0</ele>
        <time>2022-11-13T12:49:38.000Z</time>
      </trkpt>
      <trkpt lat="37.29838333" lon="-3.54559167">
        <ele>1174.0</ele>
        <time>2022-11-13T12:49:39.000Z</time>
      </trkpt>
      <trkpt lat="37.29838333" lon="-3.54559167">
        <ele>1174.0</ele>
        <time>2022-11-13T12:49:40.000Z</time>
      </trkpt>
      <trkpt lat="37.29838333" lon="-3.54559333">
        <ele>1175.0</ele>
        <time>2022-11-13T12:49:41.000Z</time>
      </trkpt>
      <trkpt lat="37.29838333" lon="-3.54559167">
        <ele>1175.0</ele>
        <time>2022-11-13T12:49:42.000Z</time>
      </trkpt>
      <trkpt lat="37.29838667" lon="-3.54558833">
        <ele>1175.0</ele>
        <time>2022-11-13T12:49:43.000Z</time>
      </trkpt>
      <trkpt lat="37.29838833" lon="-3.54558333">
        <ele>1175.0</ele>
        <time>2022-11-13T12:49:44.000Z</time>
      </trkpt>
      <trkpt lat="37.29839167" lon="-3.54557667">
        <ele>1175.0</ele>
        <time>2022-11-13T12:49:45.000Z</time>
      </trkpt>
      <trkpt lat="37.29839333" lon="-3.54557">
        <ele>1174.0</ele>
        <time>2022-11-13T12:49:46.000Z</time>
      </trkpt>
      <trkpt lat="37.29839667" lon="-3.54555833">
        <ele>1174.0</ele>
        <time>2022-11-13T12:49:47.000Z</time>
      </trkpt>
      <trkpt lat="37.29839833" lon="-3.54554667">
        <ele>1174.0</ele>
        <time>2022-11-13T12:49:48.000Z</time>
      </trkpt>
      <trkpt lat="37.29840333" lon="-3.54553667">
        <ele>1174.0</ele>
        <time>2022-11-13T12:49:49.000Z</time>
      </trkpt>
      <trkpt lat="37.29840667" lon="-3.545525">
        <ele>1174.0</ele>
        <time>2022-11-13T12:49:50.000Z</time>
      </trkpt>
      <trkpt lat="37.29840833" lon="-3.54551167">
        <ele>1174.0</ele>
        <time>2022-11-13T12:49:51.000Z</time>
      </trkpt>
      <trkpt lat="37.29841" lon="-3.54549833">
        <ele>1174.0</ele>
        <time>2022-11-13T12:49:52.000Z</time>
      </trkpt>
      <trkpt lat="37.29841167" lon="-3.54548333">
        <ele>1174.0</ele>
        <time>2022-11-13T12:49:53.000Z</time>
      </trkpt>
      <trkpt lat="37.29841333" lon="-3.54546833">
        <ele>1174.0</ele>
        <time>2022-11-13T12:49:54.000Z</time>
      </trkpt>
      <trkpt lat="37.298415" lon="-3.545455">
        <ele>1174.0</ele>
        <time>2022-11-13T12:49:55.000Z</time>
      </trkpt>
      <trkpt lat="37.29841667" lon="-3.54544167">
        <ele>1174.0</ele>
        <time>2022-11-13T12:49:56.000Z</time>
      </trkpt>
      <trkpt lat="37.29841833" lon="-3.54542667">
        <ele>1175.0</ele>
        <time>2022-11-13T12:49:57.000Z</time>
      </trkpt>
      <trkpt lat="37.29842" lon="-3.54541167">
        <ele>1175.0</ele>
        <time>2022-11-13T12:49:58.000Z</time>
      </trkpt>
      <trkpt lat="37.29842333" lon="-3.54539833">
        <ele>1175.0</ele>
        <time>2022-11-13T12:49:59.000Z</time>
      </trkpt>
      <trkpt lat="37.298425" lon="-3.545385">
        <ele>1175.0</ele>
        <time>2022-11-13T12:50:00.000Z</time>
      </trkpt>
      <trkpt lat="37.29842833" lon="-3.54537167">
        <ele>1175.0</ele>
        <time>2022-11-13T12:50:01.000Z</time>
      </trkpt>
      <trkpt lat="37.29843167" lon="-3.54535833">
        <ele>1175.0</ele>
        <time>2022-11-13T12:50:02.000Z</time>
      </trkpt>
      <trkpt lat="37.298435" lon="-3.54534167">
        <ele>1175.0</ele>
        <time>2022-11-13T12:50:03.000Z</time>
      </trkpt>
      <trkpt lat="37.29843667" lon="-3.54532833">
        <ele>1175.0</ele>
        <time>2022-11-13T12:50:04.000Z</time>
      </trkpt>
      <trkpt lat="37.29843833" lon="-3.54531333">
        <ele>1175.0</ele>
        <time>2022-11-13T12:50:05.000Z</time>
      </trkpt>
      <trkpt lat="37.29843833" lon="-3.54529833">
        <ele>1175.0</ele>
        <time>2022-11-13T12:50:06.000Z</time>
      </trkpt>
      <trkpt lat="37.29844" lon="-3.54528333">
        <ele>1175.0</ele>
        <time>2022-11-13T12:50:07.000Z</time>
      </trkpt>
      <trkpt lat="37.29843833" lon="-3.54526833">
        <ele>1175.0</ele>
        <time>2022-11-13T12:50:08.000Z</time>
      </trkpt>
      <trkpt lat="37.29843833" lon="-3.54525333">
        <ele>1175.0</ele>
        <time>2022-11-13T12:50:09.000Z</time>
      </trkpt>
      <trkpt lat="37.29843833" lon="-3.54524">
        <ele>1175.0</ele>
        <time>2022-11-13T12:50:10.000Z</time>
      </trkpt>
      <trkpt lat="37.29844" lon="-3.545225">
        <ele>1176.0</ele>
        <time>2022-11-13T12:50:11.000Z</time>
      </trkpt>
      <trkpt lat="37.29843833" lon="-3.54521">
        <ele>1176.0</ele>
        <time>2022-11-13T12:50:12.000Z</time>
      </trkpt>
      <trkpt lat="37.29843667" lon="-3.54519667">
        <ele>1176.0</ele>
        <time>2022-11-13T12:50:13.000Z</time>
      </trkpt>
      <trkpt lat="37.298435" lon="-3.54518167">
        <ele>1176.0</ele>
        <time>2022-11-13T12:50:14.000Z</time>
      </trkpt>
      <trkpt lat="37.29843333" lon="-3.54516667">
        <ele>1176.0</ele>
        <time>2022-11-13T12:50:15.000Z</time>
      </trkpt>
      <trkpt lat="37.29843" lon="-3.54515333">
        <ele>1176.0</ele>
        <time>2022-11-13T12:50:16.000Z</time>
      </trkpt>
      <trkpt lat="37.29842667" lon="-3.54513833">
        <ele>1176.0</ele>
        <time>2022-11-13T12:50:17.000Z</time>
      </trkpt>
      <trkpt lat="37.29842333" lon="-3.545125">
        <ele>1176.0</ele>
        <time>2022-11-13T12:50:18.000Z</time>
      </trkpt>
      <trkpt lat="37.29842167" lon="-3.54511">
        <ele>1176.0</ele>
        <time>2022-11-13T12:50:19.000Z</time>
      </trkpt>
      <trkpt lat="37.29842" lon="-3.54509833">
        <ele>1176.0</ele>
        <time>2022-11-13T12:50:20.000Z</time>
      </trkpt>
      <trkpt lat="37.29841833" lon="-3.54508333">
        <ele>1176.0</ele>
        <time>2022-11-13T12:50:21.000Z</time>
      </trkpt>
      <trkpt lat="37.298415" lon="-3.54507">
        <ele>1177.0</ele>
        <time>2022-11-13T12:50:22.000Z</time>
      </trkpt>
      <trkpt lat="37.29841167" lon="-3.54505667">
        <ele>1177.0</ele>
        <time>2022-11-13T12:50:23.000Z</time>
      </trkpt>
      <trkpt lat="37.29841167" lon="-3.54504667">
        <ele>1177.0</ele>
        <time>2022-11-13T12:50:24.000Z</time>
      </trkpt>
      <trkpt lat="37.29840833" lon="-3.54503667">
        <ele>1177.0</ele>
        <time>2022-11-13T12:50:25.000Z</time>
      </trkpt>
      <trkpt lat="37.298405" lon="-3.545025">
        <ele>1177.0</ele>
        <time>2022-11-13T12:50:26.000Z</time>
      </trkpt>
      <trkpt lat="37.29840167" lon="-3.54501333">
        <ele>1177.0</ele>
        <time>2022-11-13T12:50:27.000Z</time>
      </trkpt>
      <trkpt lat="37.2984" lon="-3.545">
        <ele>1177.0</ele>
        <time>2022-11-13T12:50:28.000Z</time>
      </trkpt>
      <trkpt lat="37.29839667" lon="-3.54498667">
        <ele>1177.0</ele>
        <time>2022-11-13T12:50:29.000Z</time>
      </trkpt>
      <trkpt lat="37.29839667" lon="-3.54497333">
        <ele>1177.0</ele>
        <time>2022-11-13T12:50:30.000Z</time>
      </trkpt>
      <trkpt lat="37.298395" lon="-3.54496167">
        <ele>1177.0</ele>
        <time>2022-11-13T12:50:31.000Z</time>
      </trkpt>
      <trkpt lat="37.298395" lon="-3.54495">
        <ele>1177.0</ele>
        <time>2022-11-13T12:50:32.000Z</time>
      </trkpt>
      <trkpt lat="37.298395" lon="-3.54493667">
        <ele>1178.0</ele>
        <time>2022-11-13T12:50:33.000Z</time>
      </trkpt>
      <trkpt lat="37.298395" lon="-3.544925">
        <ele>1178.0</ele>
        <time>2022-11-13T12:50:34.000Z</time>
      </trkpt>
      <trkpt lat="37.298395" lon="-3.54491167">
        <ele>1178.0</ele>
        <time>2022-11-13T12:50:35.000Z</time>
      </trkpt>
      <trkpt lat="37.298395" lon="-3.5449">
        <ele>1178.0</ele>
        <time>2022-11-13T12:50:36.000Z</time>
      </trkpt>
      <trkpt lat="37.29839333" lon="-3.54488833">
        <ele>1178.0</ele>
        <time>2022-11-13T12:50:37.000Z</time>
      </trkpt>
      <trkpt lat="37.29839333" lon="-3.544875">
        <ele>1178.0</ele>
        <time>2022-11-13T12:50:38.000Z</time>
      </trkpt>
      <trkpt lat="37.29839333" lon="-3.54486333">
        <ele>1178.0</ele>
        <time>2022-11-13T12:50:39.000Z</time>
      </trkpt>
      <trkpt lat="37.29839333" lon="-3.54485667">
        <ele>1178.0</ele>
        <time>2022-11-13T12:50:40.000Z</time>
      </trkpt>
      <trkpt lat="37.29839333" lon="-3.54485">
        <ele>1178.0</ele>
        <time>2022-11-13T12:50:41.000Z</time>
      </trkpt>
      <trkpt lat="37.29839333" lon="-3.54484167">
        <ele>1178.0</ele>
        <time>2022-11-13T12:50:42.000Z</time>
      </trkpt>
      <trkpt lat="37.298395" lon="-3.54483167">
        <ele>1178.0</ele>
        <time>2022-11-13T12:50:43.000Z</time>
      </trkpt>
      <trkpt lat="37.298395" lon="-3.54482167">
        <ele>1178.0</ele>
        <time>2022-11-13T12:50:44.000Z</time>
      </trkpt>
      <trkpt lat="37.29839667" lon="-3.54481">
        <ele>1178.0</ele>
        <time>2022-11-13T12:50:45.000Z</time>
      </trkpt>
      <trkpt lat="37.29839667" lon="-3.54480167">
        <ele>1178.0</ele>
        <time>2022-11-13T12:50:46.000Z</time>
      </trkpt>
      <trkpt lat="37.29839667" lon="-3.54479667">
        <ele>1178.0</ele>
        <time>2022-11-13T12:50:47.000Z</time>
      </trkpt>
      <trkpt lat="37.29839667" lon="-3.544795">
        <ele>1178.0</ele>
        <time>2022-11-13T12:50:48.000Z</time>
      </trkpt>
      <trkpt lat="37.29839667" lon="-3.54479333">
        <ele>1178.0</ele>
        <time>2022-11-13T12:50:49.000Z</time>
      </trkpt>
      <trkpt lat="37.29839667" lon="-3.54479333">
        <ele>1178.0</ele>
        <time>2022-11-13T12:50:50.000Z</time>
      </trkpt>
      <trkpt lat="37.29839667" lon="-3.54479333">
        <ele>1178.0</ele>
        <time>2022-11-13T12:50:51.000Z</time>
      </trkpt>
      <trkpt lat="37.29839833" lon="-3.54479333">
        <ele>1178.0</ele>
        <time>2022-11-13T12:50:52.000Z</time>
      </trkpt>
      <trkpt lat="37.29839833" lon="-3.54479167">
        <ele>1178.0</ele>
        <time>2022-11-13T12:50:53.000Z</time>
      </trkpt>
      <trkpt lat="37.29839833" lon="-3.54479167">
        <ele>1178.0</ele>
        <time>2022-11-13T12:50:54.000Z</time>
      </trkpt>
      <trkpt lat="37.29839833" lon="-3.54479167">
        <ele>1179.0</ele>
        <time>2022-11-13T12:50:55.000Z</time>
      </trkpt>
      <trkpt lat="37.29839833" lon="-3.54479167">
        <ele>1179.0</ele>
        <time>2022-11-13T12:50:56.000Z</time>
      </trkpt>
      <trkpt lat="37.29839833" lon="-3.54479167">
        <ele>1179.0</ele>
        <time>2022-11-13T12:50:57.000Z</time>
      </trkpt>
      <trkpt lat="37.29839833" lon="-3.54479">
        <ele>1179.0</ele>
        <time>2022-11-13T12:50:58.000Z</time>
      </trkpt>
      <trkpt lat="37.29839833" lon="-3.54479">
        <ele>1179.0</ele>
        <time>2022-11-13T12:50:59.000Z</time>
      </trkpt>
      <trkpt lat="37.29839833" lon="-3.54479">
        <ele>1179.0</ele>
        <time>2022-11-13T12:51:00.000Z</time>
      </trkpt>
      <trkpt lat="37.29839833" lon="-3.54479167">
        <ele>1179.0</ele>
        <time>2022-11-13T12:51:01.000Z</time>
      </trkpt>
      <trkpt lat="37.29839667" lon="-3.54479">
        <ele>1179.0</ele>
        <time>2022-11-13T12:51:02.000Z</time>
      </trkpt>
      <trkpt lat="37.29839333" lon="-3.54478333">
        <ele>1179.0</ele>
        <time>2022-11-13T12:51:03.000Z</time>
      </trkpt>
      <trkpt lat="37.29839167" lon="-3.54477167">
        <ele>1179.0</ele>
        <time>2022-11-13T12:51:04.000Z</time>
      </trkpt>
      <trkpt lat="37.29839" lon="-3.54475833">
        <ele>1179.0</ele>
        <time>2022-11-13T12:51:05.000Z</time>
      </trkpt>
      <trkpt lat="37.29839333" lon="-3.544745">
        <ele>1179.0</ele>
        <time>2022-11-13T12:51:06.000Z</time>
      </trkpt>
      <trkpt lat="37.298395" lon="-3.54473333">
        <ele>1179.0</ele>
        <time>2022-11-13T12:51:07.000Z</time>
      </trkpt>
      <trkpt lat="37.298395" lon="-3.544725">
        <ele>1179.0</ele>
        <time>2022-11-13T12:51:08.000Z</time>
      </trkpt>
      <trkpt lat="37.29839667" lon="-3.54472333">
        <ele>1179.0</ele>
        <time>2022-11-13T12:51:09.000Z</time>
      </trkpt>
      <trkpt lat="37.29839667" lon="-3.54472333">
        <ele>1179.0</ele>
        <time>2022-11-13T12:51:10.000Z</time>
      </trkpt>
      <trkpt lat="37.29839667" lon="-3.54472333">
        <ele>1179.0</ele>
        <time>2022-11-13T12:51:11.000Z</time>
      </trkpt>
      <trkpt lat="37.29839667" lon="-3.54472333">
        <ele>1179.0</ele>
        <time>2022-11-13T12:51:12.000Z</time>
      </trkpt>
      <trkpt lat="37.29839667" lon="-3.54472333">
        <ele>1179.0</ele>
        <time>2022-11-13T12:51:13.000Z</time>
      </trkpt>
      <trkpt lat="37.29839167" lon="-3.544715">
        <ele>1179.0</ele>
        <time>2022-11-13T12:51:14.000Z</time>
      </trkpt>
      <trkpt lat="37.29838667" lon="-3.544705">
        <ele>1179.0</ele>
        <time>2022-11-13T12:51:15.000Z</time>
      </trkpt>
      <trkpt lat="37.29838667" lon="-3.544695">
        <ele>1179.0</ele>
        <time>2022-11-13T12:51:16.000Z</time>
      </trkpt>
      <trkpt lat="37.29838833" lon="-3.54468333">
        <ele>1179.0</ele>
        <time>2022-11-13T12:51:17.000Z</time>
      </trkpt>
      <trkpt lat="37.29838833" lon="-3.54467167">
        <ele>1179.0</ele>
        <time>2022-11-13T12:51:18.000Z</time>
      </trkpt>
      <trkpt lat="37.29839" lon="-3.54465833">
        <ele>1179.0</ele>
        <time>2022-11-13T12:51:19.000Z</time>
      </trkpt>
      <trkpt lat="37.29839" lon="-3.544645">
        <ele>1179.0</ele>
        <time>2022-11-13T12:51:20.000Z</time>
      </trkpt>
      <trkpt lat="37.29839" lon="-3.54463333">
        <ele>1179.0</ele>
        <time>2022-11-13T12:51:21.000Z</time>
      </trkpt>
      <trkpt lat="37.29839" lon="-3.54462">
        <ele>1179.0</ele>
        <time>2022-11-13T12:51:22.000Z</time>
      </trkpt>
      <trkpt lat="37.29839167" lon="-3.54460667">
        <ele>1179.0</ele>
        <time>2022-11-13T12:51:23.000Z</time>
      </trkpt>
      <trkpt lat="37.298395" lon="-3.54459333">
        <ele>1179.0</ele>
        <time>2022-11-13T12:51:24.000Z</time>
      </trkpt>
      <trkpt lat="37.29839667" lon="-3.54458">
        <ele>1179.0</ele>
        <time>2022-11-13T12:51:25.000Z</time>
      </trkpt>
      <trkpt lat="37.29839667" lon="-3.54456667">
        <ele>1179.0</ele>
        <time>2022-11-13T12:51:26.000Z</time>
      </trkpt>
      <trkpt lat="37.29839833" lon="-3.544555">
        <ele>1179.0</ele>
        <time>2022-11-13T12:51:27.000Z</time>
      </trkpt>
      <trkpt lat="37.29839833" lon="-3.54454167">
        <ele>1179.0</ele>
        <time>2022-11-13T12:51:28.000Z</time>
      </trkpt>
      <trkpt lat="37.29839833" lon="-3.54452667">
        <ele>1179.0</ele>
        <time>2022-11-13T12:51:29.000Z</time>
      </trkpt>
      <trkpt lat="37.29839833" lon="-3.54451333">
        <ele>1179.0</ele>
        <time>2022-11-13T12:51:30.000Z</time>
      </trkpt>
      <trkpt lat="37.29839833" lon="-3.54449833">
        <ele>1179.0</ele>
        <time>2022-11-13T12:51:31.000Z</time>
      </trkpt>
      <trkpt lat="37.2984" lon="-3.544485">
        <ele>1179.0</ele>
        <time>2022-11-13T12:51:32.000Z</time>
      </trkpt>
      <trkpt lat="37.29840167" lon="-3.54447167">
        <ele>1179.0</ele>
        <time>2022-11-13T12:51:33.000Z</time>
      </trkpt>
      <trkpt lat="37.29840333" lon="-3.54446167">
        <ele>1179.0</ele>
        <time>2022-11-13T12:51:34.000Z</time>
      </trkpt>
      <trkpt lat="37.298405" lon="-3.54445333">
        <ele>1179.0</ele>
        <time>2022-11-13T12:51:35.000Z</time>
      </trkpt>
      <trkpt lat="37.29840667" lon="-3.54444333">
        <ele>1180.0</ele>
        <time>2022-11-13T12:51:36.000Z</time>
      </trkpt>
      <trkpt lat="37.298405" lon="-3.54443167">
        <ele>1180.0</ele>
        <time>2022-11-13T12:51:37.000Z</time>
      </trkpt>
      <trkpt lat="37.29840833" lon="-3.54443">
        <ele>1180.0</ele>
        <time>2022-11-13T12:51:38.000Z</time>
      </trkpt>
      <trkpt lat="37.29840833" lon="-3.54443">
        <ele>1180.0</ele>
        <time>2022-11-13T12:51:39.000Z</time>
      </trkpt>
      <trkpt lat="37.29840833" lon="-3.54442833">
        <ele>1180.0</ele>
        <time>2022-11-13T12:51:40.000Z</time>
      </trkpt>
      <trkpt lat="37.29840833" lon="-3.54442833">
        <ele>1180.0</ele>
        <time>2022-11-13T12:51:41.000Z</time>
      </trkpt>
      <trkpt lat="37.29840833" lon="-3.54442833">
        <ele>1180.0</ele>
        <time>2022-11-13T12:51:42.000Z</time>
      </trkpt>
      <trkpt lat="37.29840833" lon="-3.54442833">
        <ele>1180.0</ele>
        <time>2022-11-13T12:51:43.000Z</time>
      </trkpt>
      <trkpt lat="37.29840667" lon="-3.54442667">
        <ele>1180.0</ele>
        <time>2022-11-13T12:51:44.000Z</time>
      </trkpt>
      <trkpt lat="37.29840333" lon="-3.54442">
        <ele>1180.0</ele>
        <time>2022-11-13T12:51:45.000Z</time>
      </trkpt>
      <trkpt lat="37.2984" lon="-3.54440833">
        <ele>1180.0</ele>
        <time>2022-11-13T12:51:46.000Z</time>
      </trkpt>
      <trkpt lat="37.29839833" lon="-3.54439667">
        <ele>1180.0</ele>
        <time>2022-11-13T12:51:47.000Z</time>
      </trkpt>
      <trkpt lat="37.29839833" lon="-3.54438333">
        <ele>1180.0</ele>
        <time>2022-11-13T12:51:48.000Z</time>
      </trkpt>
      <trkpt lat="37.2984" lon="-3.54437">
        <ele>1180.0</ele>
        <time>2022-11-13T12:51:49.000Z</time>
      </trkpt>
      <trkpt lat="37.2984" lon="-3.54435833">
        <ele>1180.0</ele>
        <time>2022-11-13T12:51:50.000Z</time>
      </trkpt>
      <trkpt lat="37.29839833" lon="-3.544345">
        <ele>1180.0</ele>
        <time>2022-11-13T12:51:51.000Z</time>
      </trkpt>
      <trkpt lat="37.29839667" lon="-3.54433333">
        <ele>1180.0</ele>
        <time>2022-11-13T12:51:52.000Z</time>
      </trkpt>
      <trkpt lat="37.29839667" lon="-3.54432333">
        <ele>1180.0</ele>
        <time>2022-11-13T12:51:53.000Z</time>
      </trkpt>
      <trkpt lat="37.298395" lon="-3.544315">
        <ele>1180.0</ele>
        <time>2022-11-13T12:51:54.000Z</time>
      </trkpt>
      <trkpt lat="37.29839333" lon="-3.54430667">
        <ele>1180.0</ele>
        <time>2022-11-13T12:51:55.000Z</time>
      </trkpt>
      <trkpt lat="37.29839167" lon="-3.54429333">
        <ele>1180.0</ele>
        <time>2022-11-13T12:51:56.000Z</time>
      </trkpt>
      <trkpt lat="37.29839" lon="-3.54428">
        <ele>1180.0</ele>
        <time>2022-11-13T12:51:57.000Z</time>
      </trkpt>
      <trkpt lat="37.29839" lon="-3.544265">
        <ele>1180.0</ele>
        <time>2022-11-13T12:51:58.000Z</time>
      </trkpt>
      <trkpt lat="37.29839" lon="-3.54425">
        <ele>1180.0</ele>
        <time>2022-11-13T12:51:59.000Z</time>
      </trkpt>
      <trkpt lat="37.29838667" lon="-3.544235">
        <ele>1180.0</ele>
        <time>2022-11-13T12:52:00.000Z</time>
      </trkpt>
      <trkpt lat="37.29838333" lon="-3.54422167">
        <ele>1180.0</ele>
        <time>2022-11-13T12:52:01.000Z</time>
      </trkpt>
      <trkpt lat="37.29838" lon="-3.54420833">
        <ele>1180.0</ele>
        <time>2022-11-13T12:52:02.000Z</time>
      </trkpt>
      <trkpt lat="37.29837667" lon="-3.54419333">
        <ele>1180.0</ele>
        <time>2022-11-13T12:52:03.000Z</time>
      </trkpt>
      <trkpt lat="37.29837333" lon="-3.54418">
        <ele>1180.0</ele>
        <time>2022-11-13T12:52:04.000Z</time>
      </trkpt>
      <trkpt lat="37.29837167" lon="-3.54416667">
        <ele>1180.0</ele>
        <time>2022-11-13T12:52:05.000Z</time>
      </trkpt>
      <trkpt lat="37.29837" lon="-3.544155">
        <ele>1180.0</ele>
        <time>2022-11-13T12:52:06.000Z</time>
      </trkpt>
      <trkpt lat="37.29836667" lon="-3.544145">
        <ele>1180.0</ele>
        <time>2022-11-13T12:52:07.000Z</time>
      </trkpt>
      <trkpt lat="37.298365" lon="-3.544135">
        <ele>1180.0</ele>
        <time>2022-11-13T12:52:08.000Z</time>
      </trkpt>
      <trkpt lat="37.29836333" lon="-3.54412333">
        <ele>1180.0</ele>
        <time>2022-11-13T12:52:09.000Z</time>
      </trkpt>
      <trkpt lat="37.29836" lon="-3.54410833">
        <ele>1180.0</ele>
        <time>2022-11-13T12:52:10.000Z</time>
      </trkpt>
      <trkpt lat="37.29836" lon="-3.54409333">
        <ele>1180.0</ele>
        <time>2022-11-13T12:52:11.000Z</time>
      </trkpt>
      <trkpt lat="37.29835667" lon="-3.54408333">
        <ele>1180.0</ele>
        <time>2022-11-13T12:52:12.000Z</time>
      </trkpt>
      <trkpt lat="37.298355" lon="-3.54407">
        <ele>1180.0</ele>
        <time>2022-11-13T12:52:13.000Z</time>
      </trkpt>
      <trkpt lat="37.29835333" lon="-3.54405833">
        <ele>1180.0</ele>
        <time>2022-11-13T12:52:14.000Z</time>
      </trkpt>
      <trkpt lat="37.29835167" lon="-3.544045">
        <ele>1180.0</ele>
        <time>2022-11-13T12:52:15.000Z</time>
      </trkpt>
      <trkpt lat="37.29835" lon="-3.54403167">
        <ele>1180.0</ele>
        <time>2022-11-13T12:52:16.000Z</time>
      </trkpt>
      <trkpt lat="37.29834833" lon="-3.54401833">
        <ele>1180.0</ele>
        <time>2022-11-13T12:52:17.000Z</time>
      </trkpt>
      <trkpt lat="37.29834833" lon="-3.54400333">
        <ele>1180.0</ele>
        <time>2022-11-13T12:52:18.000Z</time>
      </trkpt>
      <trkpt lat="37.29834667" lon="-3.54398667">
        <ele>1180.0</ele>
        <time>2022-11-13T12:52:19.000Z</time>
      </trkpt>
      <trkpt lat="37.29834667" lon="-3.54397167">
        <ele>1180.0</ele>
        <time>2022-11-13T12:52:20.000Z</time>
      </trkpt>
      <trkpt lat="37.29834833" lon="-3.54395333">
        <ele>1180.0</ele>
        <time>2022-11-13T12:52:21.000Z</time>
      </trkpt>
      <trkpt lat="37.29834667" lon="-3.54393667">
        <ele>1181.0</ele>
        <time>2022-11-13T12:52:22.000Z</time>
      </trkpt>
      <trkpt lat="37.298345" lon="-3.54392">
        <ele>1181.0</ele>
        <time>2022-11-13T12:52:23.000Z</time>
      </trkpt>
      <trkpt lat="37.29834333" lon="-3.543905">
        <ele>1181.0</ele>
        <time>2022-11-13T12:52:24.000Z</time>
      </trkpt>
      <trkpt lat="37.29834167" lon="-3.54388833">
        <ele>1181.0</ele>
        <time>2022-11-13T12:52:25.000Z</time>
      </trkpt>
      <trkpt lat="37.29834" lon="-3.54387333">
        <ele>1181.0</ele>
        <time>2022-11-13T12:52:26.000Z</time>
      </trkpt>
      <trkpt lat="37.29833833" lon="-3.54385833">
        <ele>1181.0</ele>
        <time>2022-11-13T12:52:27.000Z</time>
      </trkpt>
      <trkpt lat="37.29833833" lon="-3.54384167">
        <ele>1181.0</ele>
        <time>2022-11-13T12:52:28.000Z</time>
      </trkpt>
      <trkpt lat="37.29833833" lon="-3.543825">
        <ele>1182.0</ele>
        <time>2022-11-13T12:52:29.000Z</time>
      </trkpt>
      <trkpt lat="37.29833833" lon="-3.54380833">
        <ele>1182.0</ele>
        <time>2022-11-13T12:52:30.000Z</time>
      </trkpt>
      <trkpt lat="37.29834" lon="-3.54379167">
        <ele>1182.0</ele>
        <time>2022-11-13T12:52:31.000Z</time>
      </trkpt>
      <trkpt lat="37.29834167" lon="-3.54377667">
        <ele>1182.0</ele>
        <time>2022-11-13T12:52:32.000Z</time>
      </trkpt>
      <trkpt lat="37.29834167" lon="-3.54376">
        <ele>1182.0</ele>
        <time>2022-11-13T12:52:33.000Z</time>
      </trkpt>
      <trkpt lat="37.29834167" lon="-3.54374333">
        <ele>1182.0</ele>
        <time>2022-11-13T12:52:34.000Z</time>
      </trkpt>
      <trkpt lat="37.29834333" lon="-3.54372667">
        <ele>1182.0</ele>
        <time>2022-11-13T12:52:35.000Z</time>
      </trkpt>
      <trkpt lat="37.298345" lon="-3.54371">
        <ele>1182.0</ele>
        <time>2022-11-13T12:52:36.000Z</time>
      </trkpt>
      <trkpt lat="37.29834667" lon="-3.54369333">
        <ele>1182.0</ele>
        <time>2022-11-13T12:52:37.000Z</time>
      </trkpt>
      <trkpt lat="37.29834833" lon="-3.54367667">
        <ele>1182.0</ele>
        <time>2022-11-13T12:52:38.000Z</time>
      </trkpt>
      <trkpt lat="37.29835" lon="-3.54366">
        <ele>1182.0</ele>
        <time>2022-11-13T12:52:39.000Z</time>
      </trkpt>
      <trkpt lat="37.29835" lon="-3.54364333">
        <ele>1182.0</ele>
        <time>2022-11-13T12:52:40.000Z</time>
      </trkpt>
      <trkpt lat="37.29835167" lon="-3.54362667">
        <ele>1182.0</ele>
        <time>2022-11-13T12:52:41.000Z</time>
      </trkpt>
      <trkpt lat="37.29835333" lon="-3.54361">
        <ele>1183.0</ele>
        <time>2022-11-13T12:52:42.000Z</time>
      </trkpt>
      <trkpt lat="37.298355" lon="-3.54359333">
        <ele>1183.0</ele>
        <time>2022-11-13T12:52:43.000Z</time>
      </trkpt>
      <trkpt lat="37.29835667" lon="-3.54357667">
        <ele>1183.0</ele>
        <time>2022-11-13T12:52:44.000Z</time>
      </trkpt>
      <trkpt lat="37.29835667" lon="-3.54356">
        <ele>1183.0</ele>
        <time>2022-11-13T12:52:45.000Z</time>
      </trkpt>
      <trkpt lat="37.29835833" lon="-3.543545">
        <ele>1183.0</ele>
        <time>2022-11-13T12:52:46.000Z</time>
      </trkpt>
      <trkpt lat="37.29835833" lon="-3.54353167">
        <ele>1183.0</ele>
        <time>2022-11-13T12:52:47.000Z</time>
      </trkpt>
      <trkpt lat="37.29836" lon="-3.54351833">
        <ele>1183.0</ele>
        <time>2022-11-13T12:52:48.000Z</time>
      </trkpt>
      <trkpt lat="37.29836" lon="-3.54350333">
        <ele>1183.0</ele>
        <time>2022-11-13T12:52:49.000Z</time>
      </trkpt>
      <trkpt lat="37.29836" lon="-3.54348667">
        <ele>1183.0</ele>
        <time>2022-11-13T12:52:50.000Z</time>
      </trkpt>
      <trkpt lat="37.29836" lon="-3.54347">
        <ele>1183.0</ele>
        <time>2022-11-13T12:52:51.000Z</time>
      </trkpt>
      <trkpt lat="37.29835833" lon="-3.54345333">
        <ele>1183.0</ele>
        <time>2022-11-13T12:52:52.000Z</time>
      </trkpt>
      <trkpt lat="37.29835833" lon="-3.54343833">
        <ele>1184.0</ele>
        <time>2022-11-13T12:52:53.000Z</time>
      </trkpt>
      <trkpt lat="37.298355" lon="-3.54342167">
        <ele>1184.0</ele>
        <time>2022-11-13T12:52:54.000Z</time>
      </trkpt>
      <trkpt lat="37.29835333" lon="-3.543405">
        <ele>1184.0</ele>
        <time>2022-11-13T12:52:55.000Z</time>
      </trkpt>
      <trkpt lat="37.29834833" lon="-3.54339">
        <ele>1184.0</ele>
        <time>2022-11-13T12:52:56.000Z</time>
      </trkpt>
      <trkpt lat="37.298345" lon="-3.54337333">
        <ele>1184.0</ele>
        <time>2022-11-13T12:52:57.000Z</time>
      </trkpt>
      <trkpt lat="37.29834" lon="-3.54335833">
        <ele>1184.0</ele>
        <time>2022-11-13T12:52:58.000Z</time>
      </trkpt>
      <trkpt lat="37.29833667" lon="-3.54334333">
        <ele>1184.0</ele>
        <time>2022-11-13T12:52:59.000Z</time>
      </trkpt>
      <trkpt lat="37.29833167" lon="-3.54332833">
        <ele>1184.0</ele>
        <time>2022-11-13T12:53:00.000Z</time>
      </trkpt>
      <trkpt lat="37.29833" lon="-3.54331333">
        <ele>1184.0</ele>
        <time>2022-11-13T12:53:01.000Z</time>
      </trkpt>
      <trkpt lat="37.29832833" lon="-3.5433">
        <ele>1185.0</ele>
        <time>2022-11-13T12:53:02.000Z</time>
      </trkpt>
      <trkpt lat="37.298325" lon="-3.54328667">
        <ele>1185.0</ele>
        <time>2022-11-13T12:53:03.000Z</time>
      </trkpt>
      <trkpt lat="37.29832333" lon="-3.543275">
        <ele>1185.0</ele>
        <time>2022-11-13T12:53:04.000Z</time>
      </trkpt>
      <trkpt lat="37.29832167" lon="-3.54326167">
        <ele>1185.0</ele>
        <time>2022-11-13T12:53:05.000Z</time>
      </trkpt>
      <trkpt lat="37.29831833" lon="-3.54324833">
        <ele>1185.0</ele>
        <time>2022-11-13T12:53:06.000Z</time>
      </trkpt>
      <trkpt lat="37.298315" lon="-3.54323833">
        <ele>1185.0</ele>
        <time>2022-11-13T12:53:07.000Z</time>
      </trkpt>
      <trkpt lat="37.29831" lon="-3.543225">
        <ele>1185.0</ele>
        <time>2022-11-13T12:53:08.000Z</time>
      </trkpt>
      <trkpt lat="37.29830667" lon="-3.54321333">
        <ele>1185.0</ele>
        <time>2022-11-13T12:53:09.000Z</time>
      </trkpt>
      <trkpt lat="37.2983" lon="-3.54320167">
        <ele>1185.0</ele>
        <time>2022-11-13T12:53:10.000Z</time>
      </trkpt>
      <trkpt lat="37.29829333" lon="-3.54319167">
        <ele>1185.0</ele>
        <time>2022-11-13T12:53:11.000Z</time>
      </trkpt>
      <trkpt lat="37.29828667" lon="-3.54318">
        <ele>1185.0</ele>
        <time>2022-11-13T12:53:12.000Z</time>
      </trkpt>
      <trkpt lat="37.29828167" lon="-3.54316833">
        <ele>1185.0</ele>
        <time>2022-11-13T12:53:13.000Z</time>
      </trkpt>
      <trkpt lat="37.29827667" lon="-3.54315667">
        <ele>1185.0</ele>
        <time>2022-11-13T12:53:14.000Z</time>
      </trkpt>
      <trkpt lat="37.29826833" lon="-3.54314667">
        <ele>1185.0</ele>
        <time>2022-11-13T12:53:15.000Z</time>
      </trkpt>
      <trkpt lat="37.29826" lon="-3.543135">
        <ele>1185.0</ele>
        <time>2022-11-13T12:53:16.000Z</time>
      </trkpt>
      <trkpt lat="37.29825167" lon="-3.54312167">
        <ele>1185.0</ele>
        <time>2022-11-13T12:53:17.000Z</time>
      </trkpt>
      <trkpt lat="37.29824333" lon="-3.54310833">
        <ele>1185.0</ele>
        <time>2022-11-13T12:53:18.000Z</time>
      </trkpt>
      <trkpt lat="37.298235" lon="-3.54309333">
        <ele>1185.0</ele>
        <time>2022-11-13T12:53:19.000Z</time>
      </trkpt>
      <trkpt lat="37.298225" lon="-3.54307833">
        <ele>1185.0</ele>
        <time>2022-11-13T12:53:20.000Z</time>
      </trkpt>
      <trkpt lat="37.29822" lon="-3.54306667">
        <ele>1185.0</ele>
        <time>2022-11-13T12:53:21.000Z</time>
      </trkpt>
      <trkpt lat="37.298215" lon="-3.543055">
        <ele>1185.0</ele>
        <time>2022-11-13T12:53:22.000Z</time>
      </trkpt>
      <trkpt lat="37.29821333" lon="-3.543045">
        <ele>1185.0</ele>
        <time>2022-11-13T12:53:23.000Z</time>
      </trkpt>
      <trkpt lat="37.29821167" lon="-3.54304">
        <ele>1185.0</ele>
        <time>2022-11-13T12:53:24.000Z</time>
      </trkpt>
      <trkpt lat="37.29821167" lon="-3.54304">
        <ele>1185.0</ele>
        <time>2022-11-13T12:53:25.000Z</time>
      </trkpt>
      <trkpt lat="37.29821167" lon="-3.54304">
        <ele>1185.0</ele>
        <time>2022-11-13T12:53:26.000Z</time>
      </trkpt>
      <trkpt lat="37.29821167" lon="-3.54303833">
        <ele>1185.0</ele>
        <time>2022-11-13T12:53:27.000Z</time>
      </trkpt>
      <trkpt lat="37.29821167" lon="-3.54303833">
        <ele>1185.0</ele>
        <time>2022-11-13T12:53:28.000Z</time>
      </trkpt>
      <trkpt lat="37.29821333" lon="-3.54303833">
        <ele>1185.0</ele>
        <time>2022-11-13T12:53:29.000Z</time>
      </trkpt>
      <trkpt lat="37.29821333" lon="-3.54303833">
        <ele>1185.0</ele>
        <time>2022-11-13T12:53:30.000Z</time>
      </trkpt>
      <trkpt lat="37.29820833" lon="-3.54304">
        <ele>1185.0</ele>
        <time>2022-11-13T12:53:31.000Z</time>
      </trkpt>
      <trkpt lat="37.298205" lon="-3.54303667">
        <ele>1185.0</ele>
        <time>2022-11-13T12:53:32.000Z</time>
      </trkpt>
      <trkpt lat="37.29819833" lon="-3.54302833">
        <ele>1185.0</ele>
        <time>2022-11-13T12:53:33.000Z</time>
      </trkpt>
      <trkpt lat="37.29819" lon="-3.54301667">
        <ele>1185.0</ele>
        <time>2022-11-13T12:53:34.000Z</time>
      </trkpt>
      <trkpt lat="37.29818167" lon="-3.543005">
        <ele>1185.0</ele>
        <time>2022-11-13T12:53:35.000Z</time>
      </trkpt>
      <trkpt lat="37.29817333" lon="-3.54299167">
        <ele>1185.0</ele>
        <time>2022-11-13T12:53:36.000Z</time>
      </trkpt>
      <trkpt lat="37.29816667" lon="-3.54297833">
        <ele>1184.0</ele>
        <time>2022-11-13T12:53:37.000Z</time>
      </trkpt>
      <trkpt lat="37.29816" lon="-3.54296333">
        <ele>1184.0</ele>
        <time>2022-11-13T12:53:38.000Z</time>
      </trkpt>
      <trkpt lat="37.29815167" lon="-3.54295">
        <ele>1184.0</ele>
        <time>2022-11-13T12:53:39.000Z</time>
      </trkpt>
      <trkpt lat="37.298145" lon="-3.542935">
        <ele>1184.0</ele>
        <time>2022-11-13T12:53:40.000Z</time>
      </trkpt>
      <trkpt lat="37.29813667" lon="-3.54292">
        <ele>1184.0</ele>
        <time>2022-11-13T12:53:41.000Z</time>
      </trkpt>
      <trkpt lat="37.29813" lon="-3.54290667">
        <ele>1184.0</ele>
        <time>2022-11-13T12:53:42.000Z</time>
      </trkpt>
      <trkpt lat="37.29812333" lon="-3.54289167">
        <ele>1184.0</ele>
        <time>2022-11-13T12:53:43.000Z</time>
      </trkpt>
      <trkpt lat="37.29811667" lon="-3.54287667">
        <ele>1184.0</ele>
        <time>2022-11-13T12:53:44.000Z</time>
      </trkpt>
      <trkpt lat="37.29810833" lon="-3.54286167">
        <ele>1184.0</ele>
        <time>2022-11-13T12:53:45.000Z</time>
      </trkpt>
      <trkpt lat="37.2981" lon="-3.54284833">
        <ele>1184.0</ele>
        <time>2022-11-13T12:53:46.000Z</time>
      </trkpt>
      <trkpt lat="37.29809167" lon="-3.54283333">
        <ele>1184.0</ele>
        <time>2022-11-13T12:53:47.000Z</time>
      </trkpt>
      <trkpt lat="37.29808167" lon="-3.54282">
        <ele>1184.0</ele>
        <time>2022-11-13T12:53:48.000Z</time>
      </trkpt>
      <trkpt lat="37.29807333" lon="-3.54280833">
        <ele>1184.0</ele>
        <time>2022-11-13T12:53:49.000Z</time>
      </trkpt>
      <trkpt lat="37.298065" lon="-3.542795">
        <ele>1184.0</ele>
        <time>2022-11-13T12:53:50.000Z</time>
      </trkpt>
      <trkpt lat="37.29805833" lon="-3.54278">
        <ele>1184.0</ele>
        <time>2022-11-13T12:53:51.000Z</time>
      </trkpt>
      <trkpt lat="37.29805167" lon="-3.54276667">
        <ele>1184.0</ele>
        <time>2022-11-13T12:53:52.000Z</time>
      </trkpt>
      <trkpt lat="37.298045" lon="-3.54275167">
        <ele>1184.0</ele>
        <time>2022-11-13T12:53:53.000Z</time>
      </trkpt>
      <trkpt lat="37.29804167" lon="-3.54273833">
        <ele>1184.0</ele>
        <time>2022-11-13T12:53:54.000Z</time>
      </trkpt>
      <trkpt lat="37.29803833" lon="-3.542725">
        <ele>1184.0</ele>
        <time>2022-11-13T12:53:55.000Z</time>
      </trkpt>
      <trkpt lat="37.29803333" lon="-3.54271167">
        <ele>1184.0</ele>
        <time>2022-11-13T12:53:56.000Z</time>
      </trkpt>
      <trkpt lat="37.29802833" lon="-3.542695">
        <ele>1184.0</ele>
        <time>2022-11-13T12:53:57.000Z</time>
      </trkpt>
      <trkpt lat="37.29802167" lon="-3.54267833">
        <ele>1184.0</ele>
        <time>2022-11-13T12:53:58.000Z</time>
      </trkpt>
      <trkpt lat="37.298015" lon="-3.54266333">
        <ele>1184.0</ele>
        <time>2022-11-13T12:53:59.000Z</time>
      </trkpt>
      <trkpt lat="37.29801" lon="-3.542645">
        <ele>1184.0</ele>
        <time>2022-11-13T12:54:00.000Z</time>
      </trkpt>
      <trkpt lat="37.298005" lon="-3.54263">
        <ele>1184.0</ele>
        <time>2022-11-13T12:54:01.000Z</time>
      </trkpt>
      <trkpt lat="37.29800167" lon="-3.54261167">
        <ele>1184.0</ele>
        <time>2022-11-13T12:54:02.000Z</time>
      </trkpt>
      <trkpt lat="37.29799667" lon="-3.54259333">
        <ele>1184.0</ele>
        <time>2022-11-13T12:54:03.000Z</time>
      </trkpt>
      <trkpt lat="37.297995" lon="-3.542575">
        <ele>1184.0</ele>
        <time>2022-11-13T12:54:04.000Z</time>
      </trkpt>
      <trkpt lat="37.29799333" lon="-3.54255667">
        <ele>1184.0</ele>
        <time>2022-11-13T12:54:05.000Z</time>
      </trkpt>
      <trkpt lat="37.29799333" lon="-3.54253833">
        <ele>1184.0</ele>
        <time>2022-11-13T12:54:06.000Z</time>
      </trkpt>
      <trkpt lat="37.29799333" lon="-3.54252">
        <ele>1184.0</ele>
        <time>2022-11-13T12:54:07.000Z</time>
      </trkpt>
      <trkpt lat="37.29799333" lon="-3.54250167">
        <ele>1184.0</ele>
        <time>2022-11-13T12:54:08.000Z</time>
      </trkpt>
      <trkpt lat="37.297995" lon="-3.54248167">
        <ele>1184.0</ele>
        <time>2022-11-13T12:54:09.000Z</time>
      </trkpt>
      <trkpt lat="37.29799667" lon="-3.54246167">
        <ele>1184.0</ele>
        <time>2022-11-13T12:54:10.000Z</time>
      </trkpt>
      <trkpt lat="37.29799833" lon="-3.54244167">
        <ele>1184.0</ele>
        <time>2022-11-13T12:54:11.000Z</time>
      </trkpt>
      <trkpt lat="37.298" lon="-3.54242333">
        <ele>1184.0</ele>
        <time>2022-11-13T12:54:12.000Z</time>
      </trkpt>
      <trkpt lat="37.29800167" lon="-3.542405">
        <ele>1184.0</ele>
        <time>2022-11-13T12:54:13.000Z</time>
      </trkpt>
      <trkpt lat="37.298005" lon="-3.542385">
        <ele>1184.0</ele>
        <time>2022-11-13T12:54:14.000Z</time>
      </trkpt>
      <trkpt lat="37.29800833" lon="-3.54236667">
        <ele>1184.0</ele>
        <time>2022-11-13T12:54:15.000Z</time>
      </trkpt>
      <trkpt lat="37.29801167" lon="-3.54235">
        <ele>1184.0</ele>
        <time>2022-11-13T12:54:16.000Z</time>
      </trkpt>
      <trkpt lat="37.29801333" lon="-3.54233333">
        <ele>1184.0</ele>
        <time>2022-11-13T12:54:17.000Z</time>
      </trkpt>
      <trkpt lat="37.29801667" lon="-3.54231667">
        <ele>1184.0</ele>
        <time>2022-11-13T12:54:18.000Z</time>
      </trkpt>
      <trkpt lat="37.29802" lon="-3.5423">
        <ele>1184.0</ele>
        <time>2022-11-13T12:54:19.000Z</time>
      </trkpt>
      <trkpt lat="37.29802167" lon="-3.54228333">
        <ele>1184.0</ele>
        <time>2022-11-13T12:54:20.000Z</time>
      </trkpt>
      <trkpt lat="37.298025" lon="-3.542265">
        <ele>1184.0</ele>
        <time>2022-11-13T12:54:21.000Z</time>
      </trkpt>
      <trkpt lat="37.29802833" lon="-3.54224833">
        <ele>1184.0</ele>
        <time>2022-11-13T12:54:22.000Z</time>
      </trkpt>
      <trkpt lat="37.29803" lon="-3.54223">
        <ele>1184.0</ele>
        <time>2022-11-13T12:54:23.000Z</time>
      </trkpt>
      <trkpt lat="37.29803167" lon="-3.54221333">
        <ele>1184.0</ele>
        <time>2022-11-13T12:54:24.000Z</time>
      </trkpt>
      <trkpt lat="37.298035" lon="-3.54219333">
        <ele>1184.0</ele>
        <time>2022-11-13T12:54:25.000Z</time>
      </trkpt>
      <trkpt lat="37.29803667" lon="-3.54217333">
        <ele>1184.0</ele>
        <time>2022-11-13T12:54:26.000Z</time>
      </trkpt>
      <trkpt lat="37.29804" lon="-3.542155">
        <ele>1184.0</ele>
        <time>2022-11-13T12:54:27.000Z</time>
      </trkpt>
      <trkpt lat="37.29804333" lon="-3.54213833">
        <ele>1184.0</ele>
        <time>2022-11-13T12:54:28.000Z</time>
      </trkpt>
      <trkpt lat="37.298045" lon="-3.54212167">
        <ele>1184.0</ele>
        <time>2022-11-13T12:54:29.000Z</time>
      </trkpt>
      <trkpt lat="37.29804667" lon="-3.54210333">
        <ele>1184.0</ele>
        <time>2022-11-13T12:54:30.000Z</time>
      </trkpt>
      <trkpt lat="37.29804833" lon="-3.542085">
        <ele>1184.0</ele>
        <time>2022-11-13T12:54:31.000Z</time>
      </trkpt>
      <trkpt lat="37.29805" lon="-3.54206667">
        <ele>1184.0</ele>
        <time>2022-11-13T12:54:32.000Z</time>
      </trkpt>
      <trkpt lat="37.29805167" lon="-3.54204833">
        <ele>1184.0</ele>
        <time>2022-11-13T12:54:33.000Z</time>
      </trkpt>
      <trkpt lat="37.29805167" lon="-3.54203">
        <ele>1184.0</ele>
        <time>2022-11-13T12:54:34.000Z</time>
      </trkpt>
      <trkpt lat="37.29805333" lon="-3.54201333">
        <ele>1183.0</ele>
        <time>2022-11-13T12:54:35.000Z</time>
      </trkpt>
      <trkpt lat="37.298055" lon="-3.54199667">
        <ele>1183.0</ele>
        <time>2022-11-13T12:54:36.000Z</time>
      </trkpt>
      <trkpt lat="37.29805667" lon="-3.54198">
        <ele>1183.0</ele>
        <time>2022-11-13T12:54:37.000Z</time>
      </trkpt>
      <trkpt lat="37.29805833" lon="-3.541965">
        <ele>1183.0</ele>
        <time>2022-11-13T12:54:38.000Z</time>
      </trkpt>
      <trkpt lat="37.29806" lon="-3.54194833">
        <ele>1183.0</ele>
        <time>2022-11-13T12:54:39.000Z</time>
      </trkpt>
      <trkpt lat="37.29806" lon="-3.54193333">
        <ele>1183.0</ele>
        <time>2022-11-13T12:54:40.000Z</time>
      </trkpt>
      <trkpt lat="37.29806" lon="-3.54191833">
        <ele>1183.0</ele>
        <time>2022-11-13T12:54:41.000Z</time>
      </trkpt>
      <trkpt lat="37.29806" lon="-3.54190167">
        <ele>1183.0</ele>
        <time>2022-11-13T12:54:42.000Z</time>
      </trkpt>
      <trkpt lat="37.29806" lon="-3.541885">
        <ele>1183.0</ele>
        <time>2022-11-13T12:54:43.000Z</time>
      </trkpt>
      <trkpt lat="37.29805833" lon="-3.54187">
        <ele>1183.0</ele>
        <time>2022-11-13T12:54:44.000Z</time>
      </trkpt>
      <trkpt lat="37.298055" lon="-3.54185667">
        <ele>1183.0</ele>
        <time>2022-11-13T12:54:45.000Z</time>
      </trkpt>
      <trkpt lat="37.298055" lon="-3.54184167">
        <ele>1183.0</ele>
        <time>2022-11-13T12:54:46.000Z</time>
      </trkpt>
      <trkpt lat="37.29805667" lon="-3.54183">
        <ele>1182.0</ele>
        <time>2022-11-13T12:54:47.000Z</time>
      </trkpt>
      <trkpt lat="37.29805667" lon="-3.54181833">
        <ele>1182.0</ele>
        <time>2022-11-13T12:54:48.000Z</time>
      </trkpt>
      <trkpt lat="37.29805833" lon="-3.541805">
        <ele>1182.0</ele>
        <time>2022-11-13T12:54:49.000Z</time>
      </trkpt>
      <trkpt lat="37.29806" lon="-3.54179167">
        <ele>1182.0</ele>
        <time>2022-11-13T12:54:50.000Z</time>
      </trkpt>
      <trkpt lat="37.29806333" lon="-3.54177833">
        <ele>1182.0</ele>
        <time>2022-11-13T12:54:51.000Z</time>
      </trkpt>
      <trkpt lat="37.29806667" lon="-3.54176667">
        <ele>1182.0</ele>
        <time>2022-11-13T12:54:52.000Z</time>
      </trkpt>
      <trkpt lat="37.29807" lon="-3.541755">
        <ele>1182.0</ele>
        <time>2022-11-13T12:54:53.000Z</time>
      </trkpt>
      <trkpt lat="37.29807333" lon="-3.54174167">
        <ele>1182.0</ele>
        <time>2022-11-13T12:54:54.000Z</time>
      </trkpt>
      <trkpt lat="37.29807667" lon="-3.54172667">
        <ele>1182.0</ele>
        <time>2022-11-13T12:54:55.000Z</time>
      </trkpt>
      <trkpt lat="37.29808" lon="-3.541715">
        <ele>1182.0</ele>
        <time>2022-11-13T12:54:56.000Z</time>
      </trkpt>
      <trkpt lat="37.298085" lon="-3.54170167">
        <ele>1182.0</ele>
        <time>2022-11-13T12:54:57.000Z</time>
      </trkpt>
      <trkpt lat="37.29808833" lon="-3.54169">
        <ele>1182.0</ele>
        <time>2022-11-13T12:54:58.000Z</time>
      </trkpt>
      <trkpt lat="37.29809" lon="-3.54167833">
        <ele>1182.0</ele>
        <time>2022-11-13T12:54:59.000Z</time>
      </trkpt>
      <trkpt lat="37.29809167" lon="-3.541665">
        <ele>1182.0</ele>
        <time>2022-11-13T12:55:00.000Z</time>
      </trkpt>
      <trkpt lat="37.298095" lon="-3.54165333">
        <ele>1182.0</ele>
        <time>2022-11-13T12:55:01.000Z</time>
      </trkpt>
      <trkpt lat="37.29809833" lon="-3.54164167">
        <ele>1183.0</ele>
        <time>2022-11-13T12:55:02.000Z</time>
      </trkpt>
      <trkpt lat="37.29810167" lon="-3.54163">
        <ele>1183.0</ele>
        <time>2022-11-13T12:55:03.000Z</time>
      </trkpt>
      <trkpt lat="37.298105" lon="-3.54161667">
        <ele>1183.0</ele>
        <time>2022-11-13T12:55:04.000Z</time>
      </trkpt>
      <trkpt lat="37.29810833" lon="-3.54160333">
        <ele>1183.0</ele>
        <time>2022-11-13T12:55:05.000Z</time>
      </trkpt>
      <trkpt lat="37.29811" lon="-3.54158833">
        <ele>1183.0</ele>
        <time>2022-11-13T12:55:06.000Z</time>
      </trkpt>
      <trkpt lat="37.29811167" lon="-3.541575">
        <ele>1183.0</ele>
        <time>2022-11-13T12:55:07.000Z</time>
      </trkpt>
      <trkpt lat="37.29811333" lon="-3.54156167">
        <ele>1183.0</ele>
        <time>2022-11-13T12:55:08.000Z</time>
      </trkpt>
      <trkpt lat="37.298115" lon="-3.54154667">
        <ele>1183.0</ele>
        <time>2022-11-13T12:55:09.000Z</time>
      </trkpt>
      <trkpt lat="37.298115" lon="-3.54153333">
        <ele>1183.0</ele>
        <time>2022-11-13T12:55:10.000Z</time>
      </trkpt>
      <trkpt lat="37.29811667" lon="-3.54151833">
        <ele>1183.0</ele>
        <time>2022-11-13T12:55:11.000Z</time>
      </trkpt>
      <trkpt lat="37.29811833" lon="-3.541505">
        <ele>1183.0</ele>
        <time>2022-11-13T12:55:12.000Z</time>
      </trkpt>
      <trkpt lat="37.29811833" lon="-3.54149167">
        <ele>1183.0</ele>
        <time>2022-11-13T12:55:13.000Z</time>
      </trkpt>
      <trkpt lat="37.29812" lon="-3.54147667">
        <ele>1183.0</ele>
        <time>2022-11-13T12:55:14.000Z</time>
      </trkpt>
      <trkpt lat="37.29811833" lon="-3.54146333">
        <ele>1183.0</ele>
        <time>2022-11-13T12:55:15.000Z</time>
      </trkpt>
      <trkpt lat="37.29811833" lon="-3.54144833">
        <ele>1183.0</ele>
        <time>2022-11-13T12:55:16.000Z</time>
      </trkpt>
      <trkpt lat="37.29811833" lon="-3.541435">
        <ele>1183.0</ele>
        <time>2022-11-13T12:55:17.000Z</time>
      </trkpt>
      <trkpt lat="37.29811667" lon="-3.54142167">
        <ele>1183.0</ele>
        <time>2022-11-13T12:55:18.000Z</time>
      </trkpt>
      <trkpt lat="37.298115" lon="-3.54140833">
        <ele>1183.0</ele>
        <time>2022-11-13T12:55:19.000Z</time>
      </trkpt>
      <trkpt lat="37.29811333" lon="-3.541395">
        <ele>1183.0</ele>
        <time>2022-11-13T12:55:20.000Z</time>
      </trkpt>
      <trkpt lat="37.29811167" lon="-3.54138167">
        <ele>1183.0</ele>
        <time>2022-11-13T12:55:21.000Z</time>
      </trkpt>
      <trkpt lat="37.29811" lon="-3.54137">
        <ele>1184.0</ele>
        <time>2022-11-13T12:55:22.000Z</time>
      </trkpt>
      <trkpt lat="37.29810833" lon="-3.54135667">
        <ele>1184.0</ele>
        <time>2022-11-13T12:55:23.000Z</time>
      </trkpt>
      <trkpt lat="37.29810667" lon="-3.541345">
        <ele>1184.0</ele>
        <time>2022-11-13T12:55:24.000Z</time>
      </trkpt>
      <trkpt lat="37.29810667" lon="-3.54133167">
        <ele>1184.0</ele>
        <time>2022-11-13T12:55:25.000Z</time>
      </trkpt>
      <trkpt lat="37.298105" lon="-3.54131667">
        <ele>1184.0</ele>
        <time>2022-11-13T12:55:26.000Z</time>
      </trkpt>
      <trkpt lat="37.29810333" lon="-3.54130167">
        <ele>1183.0</ele>
        <time>2022-11-13T12:55:27.000Z</time>
      </trkpt>
      <trkpt lat="37.2981" lon="-3.54128833">
        <ele>1183.0</ele>
        <time>2022-11-13T12:55:28.000Z</time>
      </trkpt>
      <trkpt lat="37.29809667" lon="-3.54127333">
        <ele>1183.0</ele>
        <time>2022-11-13T12:55:29.000Z</time>
      </trkpt>
      <trkpt lat="37.29809333" lon="-3.54125833">
        <ele>1183.0</ele>
        <time>2022-11-13T12:55:30.000Z</time>
      </trkpt>
      <trkpt lat="37.29809167" lon="-3.54124333">
        <ele>1183.0</ele>
        <time>2022-11-13T12:55:31.000Z</time>
      </trkpt>
      <trkpt lat="37.29809167" lon="-3.54122667">
        <ele>1183.0</ele>
        <time>2022-11-13T12:55:32.000Z</time>
      </trkpt>
      <trkpt lat="37.29809" lon="-3.54121333">
        <ele>1183.0</ele>
        <time>2022-11-13T12:55:33.000Z</time>
      </trkpt>
      <trkpt lat="37.29809" lon="-3.54119667">
        <ele>1183.0</ele>
        <time>2022-11-13T12:55:34.000Z</time>
      </trkpt>
      <trkpt lat="37.29808833" lon="-3.54118">
        <ele>1183.0</ele>
        <time>2022-11-13T12:55:35.000Z</time>
      </trkpt>
      <trkpt lat="37.29808833" lon="-3.54116333">
        <ele>1183.0</ele>
        <time>2022-11-13T12:55:36.000Z</time>
      </trkpt>
      <trkpt lat="37.29808833" lon="-3.54114667">
        <ele>1183.0</ele>
        <time>2022-11-13T12:55:37.000Z</time>
      </trkpt>
      <trkpt lat="37.29808667" lon="-3.54113167">
        <ele>1183.0</ele>
        <time>2022-11-13T12:55:38.000Z</time>
      </trkpt>
      <trkpt lat="37.298085" lon="-3.54111333">
        <ele>1183.0</ele>
        <time>2022-11-13T12:55:39.000Z</time>
      </trkpt>
      <trkpt lat="37.298085" lon="-3.54109667">
        <ele>1183.0</ele>
        <time>2022-11-13T12:55:40.000Z</time>
      </trkpt>
      <trkpt lat="37.298085" lon="-3.54108">
        <ele>1183.0</ele>
        <time>2022-11-13T12:55:41.000Z</time>
      </trkpt>
      <trkpt lat="37.29808333" lon="-3.54106333">
        <ele>1183.0</ele>
        <time>2022-11-13T12:55:42.000Z</time>
      </trkpt>
      <trkpt lat="37.29808167" lon="-3.54104667">
        <ele>1183.0</ele>
        <time>2022-11-13T12:55:43.000Z</time>
      </trkpt>
      <trkpt lat="37.29808" lon="-3.54103333">
        <ele>1183.0</ele>
        <time>2022-11-13T12:55:44.000Z</time>
      </trkpt>
      <trkpt lat="37.29807667" lon="-3.54101667">
        <ele>1182.0</ele>
        <time>2022-11-13T12:55:45.000Z</time>
      </trkpt>
      <trkpt lat="37.298075" lon="-3.541">
        <ele>1182.0</ele>
        <time>2022-11-13T12:55:46.000Z</time>
      </trkpt>
      <trkpt lat="37.29807167" lon="-3.540985">
        <ele>1182.0</ele>
        <time>2022-11-13T12:55:47.000Z</time>
      </trkpt>
      <trkpt lat="37.29806833" lon="-3.54097333">
        <ele>1182.0</ele>
        <time>2022-11-13T12:55:48.000Z</time>
      </trkpt>
      <trkpt lat="37.29806667" lon="-3.54095833">
        <ele>1182.0</ele>
        <time>2022-11-13T12:55:49.000Z</time>
      </trkpt>
      <trkpt lat="37.29806333" lon="-3.54094333">
        <ele>1182.0</ele>
        <time>2022-11-13T12:55:50.000Z</time>
      </trkpt>
      <trkpt lat="37.29806" lon="-3.54093">
        <ele>1182.0</ele>
        <time>2022-11-13T12:55:51.000Z</time>
      </trkpt>
      <trkpt lat="37.29805833" lon="-3.540915">
        <ele>1182.0</ele>
        <time>2022-11-13T12:55:52.000Z</time>
      </trkpt>
      <trkpt lat="37.298055" lon="-3.5409">
        <ele>1182.0</ele>
        <time>2022-11-13T12:55:53.000Z</time>
      </trkpt>
      <trkpt lat="37.29805167" lon="-3.54088333">
        <ele>1182.0</ele>
        <time>2022-11-13T12:55:54.000Z</time>
      </trkpt>
      <trkpt lat="37.29805" lon="-3.54086833">
        <ele>1182.0</ele>
        <time>2022-11-13T12:55:55.000Z</time>
      </trkpt>
      <trkpt lat="37.29804667" lon="-3.54085333">
        <ele>1182.0</ele>
        <time>2022-11-13T12:55:56.000Z</time>
      </trkpt>
      <trkpt lat="37.29804333" lon="-3.54084167">
        <ele>1182.0</ele>
        <time>2022-11-13T12:55:57.000Z</time>
      </trkpt>
      <trkpt lat="37.29804167" lon="-3.54082833">
        <ele>1182.0</ele>
        <time>2022-11-13T12:55:58.000Z</time>
      </trkpt>
      <trkpt lat="37.29804" lon="-3.540815">
        <ele>1182.0</ele>
        <time>2022-11-13T12:55:59.000Z</time>
      </trkpt>
      <trkpt lat="37.29803667" lon="-3.54080167">
        <ele>1182.0</ele>
        <time>2022-11-13T12:56:00.000Z</time>
      </trkpt>
      <trkpt lat="37.298035" lon="-3.54079">
        <ele>1182.0</ele>
        <time>2022-11-13T12:56:01.000Z</time>
      </trkpt>
      <trkpt lat="37.29803333" lon="-3.54077667">
        <ele>1182.0</ele>
        <time>2022-11-13T12:56:02.000Z</time>
      </trkpt>
      <trkpt lat="37.29803" lon="-3.54076333">
        <ele>1182.0</ele>
        <time>2022-11-13T12:56:03.000Z</time>
      </trkpt>
      <trkpt lat="37.29802833" lon="-3.54075">
        <ele>1182.0</ele>
        <time>2022-11-13T12:56:04.000Z</time>
      </trkpt>
      <trkpt lat="37.29802667" lon="-3.54073833">
        <ele>1182.0</ele>
        <time>2022-11-13T12:56:05.000Z</time>
      </trkpt>
      <trkpt lat="37.29802333" lon="-3.54072667">
        <ele>1182.0</ele>
        <time>2022-11-13T12:56:06.000Z</time>
      </trkpt>
      <trkpt lat="37.29802167" lon="-3.54071333">
        <ele>1182.0</ele>
        <time>2022-11-13T12:56:07.000Z</time>
      </trkpt>
      <trkpt lat="37.29802" lon="-3.54069833">
        <ele>1182.0</ele>
        <time>2022-11-13T12:56:08.000Z</time>
      </trkpt>
      <trkpt lat="37.29802" lon="-3.54068667">
        <ele>1182.0</ele>
        <time>2022-11-13T12:56:09.000Z</time>
      </trkpt>
      <trkpt lat="37.29802" lon="-3.54067333">
        <ele>1182.0</ele>
        <time>2022-11-13T12:56:10.000Z</time>
      </trkpt>
      <trkpt lat="37.29802" lon="-3.54066167">
        <ele>1182.0</ele>
        <time>2022-11-13T12:56:11.000Z</time>
      </trkpt>
      <trkpt lat="37.29802" lon="-3.54064833">
        <ele>1182.0</ele>
        <time>2022-11-13T12:56:12.000Z</time>
      </trkpt>
      <trkpt lat="37.29802" lon="-3.54063667">
        <ele>1182.0</ele>
        <time>2022-11-13T12:56:13.000Z</time>
      </trkpt>
      <trkpt lat="37.29802" lon="-3.540625">
        <ele>1182.0</ele>
        <time>2022-11-13T12:56:14.000Z</time>
      </trkpt>
      <trkpt lat="37.29802167" lon="-3.54061333">
        <ele>1182.0</ele>
        <time>2022-11-13T12:56:15.000Z</time>
      </trkpt>
      <trkpt lat="37.29802167" lon="-3.54060167">
        <ele>1182.0</ele>
        <time>2022-11-13T12:56:16.000Z</time>
      </trkpt>
      <trkpt lat="37.29802333" lon="-3.54058833">
        <ele>1182.0</ele>
        <time>2022-11-13T12:56:17.000Z</time>
      </trkpt>
      <trkpt lat="37.29802333" lon="-3.54057667">
        <ele>1182.0</ele>
        <time>2022-11-13T12:56:18.000Z</time>
      </trkpt>
      <trkpt lat="37.298025" lon="-3.54056667">
        <ele>1182.0</ele>
        <time>2022-11-13T12:56:19.000Z</time>
      </trkpt>
      <trkpt lat="37.298025" lon="-3.540555">
        <ele>1182.0</ele>
        <time>2022-11-13T12:56:20.000Z</time>
      </trkpt>
      <trkpt lat="37.298025" lon="-3.540545">
        <ele>1182.0</ele>
        <time>2022-11-13T12:56:21.000Z</time>
      </trkpt>
      <trkpt lat="37.298025" lon="-3.54053333">
        <ele>1182.0</ele>
        <time>2022-11-13T12:56:22.000Z</time>
      </trkpt>
      <trkpt lat="37.29802333" lon="-3.54052">
        <ele>1182.0</ele>
        <time>2022-11-13T12:56:23.000Z</time>
      </trkpt>
      <trkpt lat="37.29802333" lon="-3.54050833">
        <ele>1182.0</ele>
        <time>2022-11-13T12:56:24.000Z</time>
      </trkpt>
      <trkpt lat="37.29802167" lon="-3.54049667">
        <ele>1182.0</ele>
        <time>2022-11-13T12:56:25.000Z</time>
      </trkpt>
      <trkpt lat="37.29802167" lon="-3.54048333">
        <ele>1182.0</ele>
        <time>2022-11-13T12:56:26.000Z</time>
      </trkpt>
      <trkpt lat="37.29802167" lon="-3.54047">
        <ele>1183.0</ele>
        <time>2022-11-13T12:56:27.000Z</time>
      </trkpt>
      <trkpt lat="37.29802167" lon="-3.54045833">
        <ele>1183.0</ele>
        <time>2022-11-13T12:56:28.000Z</time>
      </trkpt>
      <trkpt lat="37.298025" lon="-3.54044667">
        <ele>1183.0</ele>
        <time>2022-11-13T12:56:29.000Z</time>
      </trkpt>
      <trkpt lat="37.29802667" lon="-3.540435">
        <ele>1183.0</ele>
        <time>2022-11-13T12:56:30.000Z</time>
      </trkpt>
      <trkpt lat="37.298025" lon="-3.54042167">
        <ele>1183.0</ele>
        <time>2022-11-13T12:56:31.000Z</time>
      </trkpt>
      <trkpt lat="37.298025" lon="-3.54040667">
        <ele>1183.0</ele>
        <time>2022-11-13T12:56:32.000Z</time>
      </trkpt>
      <trkpt lat="37.29802333" lon="-3.540395">
        <ele>1183.0</ele>
        <time>2022-11-13T12:56:33.000Z</time>
      </trkpt>
      <trkpt lat="37.29802333" lon="-3.54038333">
        <ele>1183.0</ele>
        <time>2022-11-13T12:56:34.000Z</time>
      </trkpt>
      <trkpt lat="37.29802167" lon="-3.54037">
        <ele>1183.0</ele>
        <time>2022-11-13T12:56:35.000Z</time>
      </trkpt>
      <trkpt lat="37.29802167" lon="-3.54035833">
        <ele>1183.0</ele>
        <time>2022-11-13T12:56:36.000Z</time>
      </trkpt>
      <trkpt lat="37.29802333" lon="-3.540345">
        <ele>1183.0</ele>
        <time>2022-11-13T12:56:37.000Z</time>
      </trkpt>
      <trkpt lat="37.29802333" lon="-3.54033333">
        <ele>1183.0</ele>
        <time>2022-11-13T12:56:38.000Z</time>
      </trkpt>
      <trkpt lat="37.29802333" lon="-3.54032167">
        <ele>1184.0</ele>
        <time>2022-11-13T12:56:39.000Z</time>
      </trkpt>
      <trkpt lat="37.29802333" lon="-3.54031">
        <ele>1184.0</ele>
        <time>2022-11-13T12:56:40.000Z</time>
      </trkpt>
      <trkpt lat="37.29802333" lon="-3.54029833">
        <ele>1184.0</ele>
        <time>2022-11-13T12:56:41.000Z</time>
      </trkpt>
      <trkpt lat="37.29802333" lon="-3.540285">
        <ele>1184.0</ele>
        <time>2022-11-13T12:56:42.000Z</time>
      </trkpt>
      <trkpt lat="37.29802167" lon="-3.54027">
        <ele>1184.0</ele>
        <time>2022-11-13T12:56:43.000Z</time>
      </trkpt>
      <trkpt lat="37.29802167" lon="-3.54025667">
        <ele>1184.0</ele>
        <time>2022-11-13T12:56:44.000Z</time>
      </trkpt>
      <trkpt lat="37.29802167" lon="-3.54024167">
        <ele>1184.0</ele>
        <time>2022-11-13T12:56:45.000Z</time>
      </trkpt>
      <trkpt lat="37.29802167" lon="-3.54022667">
        <ele>1184.0</ele>
        <time>2022-11-13T12:56:46.000Z</time>
      </trkpt>
      <trkpt lat="37.29802167" lon="-3.54021333">
        <ele>1185.0</ele>
        <time>2022-11-13T12:56:47.000Z</time>
      </trkpt>
      <trkpt lat="37.29802" lon="-3.54019833">
        <ele>1185.0</ele>
        <time>2022-11-13T12:56:48.000Z</time>
      </trkpt>
      <trkpt lat="37.29802" lon="-3.54018333">
        <ele>1185.0</ele>
        <time>2022-11-13T12:56:49.000Z</time>
      </trkpt>
      <trkpt lat="37.29802" lon="-3.54016833">
        <ele>1185.0</ele>
        <time>2022-11-13T12:56:50.000Z</time>
      </trkpt>
      <trkpt lat="37.29802" lon="-3.54015333">
        <ele>1185.0</ele>
        <time>2022-11-13T12:56:51.000Z</time>
      </trkpt>
      <trkpt lat="37.29802" lon="-3.54014">
        <ele>1186.0</ele>
        <time>2022-11-13T12:56:52.000Z</time>
      </trkpt>
      <trkpt lat="37.29802167" lon="-3.540125">
        <ele>1186.0</ele>
        <time>2022-11-13T12:56:53.000Z</time>
      </trkpt>
      <trkpt lat="37.29802333" lon="-3.54011">
        <ele>1186.0</ele>
        <time>2022-11-13T12:56:54.000Z</time>
      </trkpt>
      <trkpt lat="37.298025" lon="-3.540095">
        <ele>1186.0</ele>
        <time>2022-11-13T12:56:55.000Z</time>
      </trkpt>
      <trkpt lat="37.29802667" lon="-3.54008">
        <ele>1186.0</ele>
        <time>2022-11-13T12:56:56.000Z</time>
      </trkpt>
      <trkpt lat="37.29802833" lon="-3.54006333">
        <ele>1187.0</ele>
        <time>2022-11-13T12:56:57.000Z</time>
      </trkpt>
      <trkpt lat="37.29803167" lon="-3.54004833">
        <ele>1187.0</ele>
        <time>2022-11-13T12:56:58.000Z</time>
      </trkpt>
      <trkpt lat="37.29803333" lon="-3.54003333">
        <ele>1187.0</ele>
        <time>2022-11-13T12:56:59.000Z</time>
      </trkpt>
      <trkpt lat="37.29803667" lon="-3.54001667">
        <ele>1187.0</ele>
        <time>2022-11-13T12:57:00.000Z</time>
      </trkpt>
      <trkpt lat="37.29803833" lon="-3.54">
        <ele>1187.0</ele>
        <time>2022-11-13T12:57:01.000Z</time>
      </trkpt>
      <trkpt lat="37.29804" lon="-3.539985">
        <ele>1188.0</ele>
        <time>2022-11-13T12:57:02.000Z</time>
      </trkpt>
      <trkpt lat="37.29804333" lon="-3.53996833">
        <ele>1188.0</ele>
        <time>2022-11-13T12:57:03.000Z</time>
      </trkpt>
      <trkpt lat="37.298045" lon="-3.53995333">
        <ele>1188.0</ele>
        <time>2022-11-13T12:57:04.000Z</time>
      </trkpt>
      <trkpt lat="37.29805" lon="-3.53993833">
        <ele>1188.0</ele>
        <time>2022-11-13T12:57:05.000Z</time>
      </trkpt>
      <trkpt lat="37.29805333" lon="-3.539925">
        <ele>1188.0</ele>
        <time>2022-11-13T12:57:06.000Z</time>
      </trkpt>
      <trkpt lat="37.29805667" lon="-3.53991333">
        <ele>1188.0</ele>
        <time>2022-11-13T12:57:07.000Z</time>
      </trkpt>
      <trkpt lat="37.29805833" lon="-3.5399">
        <ele>1188.0</ele>
        <time>2022-11-13T12:57:08.000Z</time>
      </trkpt>
      <trkpt lat="37.29806" lon="-3.53988667">
        <ele>1188.0</ele>
        <time>2022-11-13T12:57:09.000Z</time>
      </trkpt>
      <trkpt lat="37.29805833" lon="-3.539875">
        <ele>1188.0</ele>
        <time>2022-11-13T12:57:10.000Z</time>
      </trkpt>
      <trkpt lat="37.29806" lon="-3.53986167">
        <ele>1188.0</ele>
        <time>2022-11-13T12:57:11.000Z</time>
      </trkpt>
      <trkpt lat="37.29806" lon="-3.53984833">
        <ele>1188.0</ele>
        <time>2022-11-13T12:57:12.000Z</time>
      </trkpt>
      <trkpt lat="37.29805833" lon="-3.53983167">
        <ele>1189.0</ele>
        <time>2022-11-13T12:57:13.000Z</time>
      </trkpt>
      <trkpt lat="37.29805833" lon="-3.539815">
        <ele>1189.0</ele>
        <time>2022-11-13T12:57:14.000Z</time>
      </trkpt>
      <trkpt lat="37.29805833" lon="-3.5398">
        <ele>1189.0</ele>
        <time>2022-11-13T12:57:15.000Z</time>
      </trkpt>
      <trkpt lat="37.29805667" lon="-3.539785">
        <ele>1189.0</ele>
        <time>2022-11-13T12:57:16.000Z</time>
      </trkpt>
      <trkpt lat="37.298055" lon="-3.53977167">
        <ele>1189.0</ele>
        <time>2022-11-13T12:57:17.000Z</time>
      </trkpt>
      <trkpt lat="37.29805167" lon="-3.53975667">
        <ele>1189.0</ele>
        <time>2022-11-13T12:57:18.000Z</time>
      </trkpt>
      <trkpt lat="37.29804667" lon="-3.539745">
        <ele>1189.0</ele>
        <time>2022-11-13T12:57:19.000Z</time>
      </trkpt>
      <trkpt lat="37.29804333" lon="-3.53973333">
        <ele>1189.0</ele>
        <time>2022-11-13T12:57:20.000Z</time>
      </trkpt>
      <trkpt lat="37.29804" lon="-3.53972">
        <ele>1189.0</ele>
        <time>2022-11-13T12:57:21.000Z</time>
      </trkpt>
      <trkpt lat="37.298035" lon="-3.53970667">
        <ele>1189.0</ele>
        <time>2022-11-13T12:57:22.000Z</time>
      </trkpt>
      <trkpt lat="37.29803" lon="-3.53969333">
        <ele>1189.0</ele>
        <time>2022-11-13T12:57:23.000Z</time>
      </trkpt>
      <trkpt lat="37.298025" lon="-3.53968">
        <ele>1189.0</ele>
        <time>2022-11-13T12:57:24.000Z</time>
      </trkpt>
      <trkpt lat="37.29802" lon="-3.53966667">
        <ele>1189.0</ele>
        <time>2022-11-13T12:57:25.000Z</time>
      </trkpt>
      <trkpt lat="37.29801667" lon="-3.53965333">
        <ele>1189.0</ele>
        <time>2022-11-13T12:57:26.000Z</time>
      </trkpt>
      <trkpt lat="37.29801167" lon="-3.53964333">
        <ele>1189.0</ele>
        <time>2022-11-13T12:57:27.000Z</time>
      </trkpt>
      <trkpt lat="37.29800833" lon="-3.53963">
        <ele>1189.0</ele>
        <time>2022-11-13T12:57:28.000Z</time>
      </trkpt>
      <trkpt lat="37.29800333" lon="-3.53961667">
        <ele>1189.0</ele>
        <time>2022-11-13T12:57:29.000Z</time>
      </trkpt>
      <trkpt lat="37.29799833" lon="-3.539605">
        <ele>1189.0</ele>
        <time>2022-11-13T12:57:30.000Z</time>
      </trkpt>
      <trkpt lat="37.29799333" lon="-3.53959333">
        <ele>1189.0</ele>
        <time>2022-11-13T12:57:31.000Z</time>
      </trkpt>
      <trkpt lat="37.29798833" lon="-3.53958">
        <ele>1190.0</ele>
        <time>2022-11-13T12:57:32.000Z</time>
      </trkpt>
      <trkpt lat="37.29798333" lon="-3.53956833">
        <ele>1190.0</ele>
        <time>2022-11-13T12:57:33.000Z</time>
      </trkpt>
      <trkpt lat="37.29797667" lon="-3.539555">
        <ele>1190.0</ele>
        <time>2022-11-13T12:57:34.000Z</time>
      </trkpt>
      <trkpt lat="37.29797167" lon="-3.53954">
        <ele>1190.0</ele>
        <time>2022-11-13T12:57:35.000Z</time>
      </trkpt>
      <trkpt lat="37.29796667" lon="-3.539525">
        <ele>1190.0</ele>
        <time>2022-11-13T12:57:36.000Z</time>
      </trkpt>
      <trkpt lat="37.29796" lon="-3.53951">
        <ele>1190.0</ele>
        <time>2022-11-13T12:57:37.000Z</time>
      </trkpt>
      <trkpt lat="37.297955" lon="-3.539495">
        <ele>1190.0</ele>
        <time>2022-11-13T12:57:38.000Z</time>
      </trkpt>
      <trkpt lat="37.29795" lon="-3.53948">
        <ele>1190.0</ele>
        <time>2022-11-13T12:57:39.000Z</time>
      </trkpt>
      <trkpt lat="37.29794333" lon="-3.53946667">
        <ele>1190.0</ele>
        <time>2022-11-13T12:57:40.000Z</time>
      </trkpt>
      <trkpt lat="37.29793667" lon="-3.539455">
        <ele>1190.0</ele>
        <time>2022-11-13T12:57:41.000Z</time>
      </trkpt>
      <trkpt lat="37.29793" lon="-3.53944">
        <ele>1191.0</ele>
        <time>2022-11-13T12:57:42.000Z</time>
      </trkpt>
      <trkpt lat="37.297925" lon="-3.53942833">
        <ele>1191.0</ele>
        <time>2022-11-13T12:57:43.000Z</time>
      </trkpt>
      <trkpt lat="37.29791833" lon="-3.53941333">
        <ele>1191.0</ele>
        <time>2022-11-13T12:57:44.000Z</time>
      </trkpt>
      <trkpt lat="37.29791333" lon="-3.5394">
        <ele>1191.0</ele>
        <time>2022-11-13T12:57:45.000Z</time>
      </trkpt>
      <trkpt lat="37.29790667" lon="-3.53938667">
        <ele>1191.0</ele>
        <time>2022-11-13T12:57:46.000Z</time>
      </trkpt>
      <trkpt lat="37.29790167" lon="-3.53937333">
        <ele>1191.0</ele>
        <time>2022-11-13T12:57:47.000Z</time>
      </trkpt>
      <trkpt lat="37.297895" lon="-3.53935833">
        <ele>1191.0</ele>
        <time>2022-11-13T12:57:48.000Z</time>
      </trkpt>
      <trkpt lat="37.29789" lon="-3.53934333">
        <ele>1191.0</ele>
        <time>2022-11-13T12:57:49.000Z</time>
      </trkpt>
      <trkpt lat="37.29788333" lon="-3.53933">
        <ele>1191.0</ele>
        <time>2022-11-13T12:57:50.000Z</time>
      </trkpt>
      <trkpt lat="37.29787833" lon="-3.53931667">
        <ele>1191.0</ele>
        <time>2022-11-13T12:57:51.000Z</time>
      </trkpt>
      <trkpt lat="37.297875" lon="-3.53930333">
        <ele>1191.0</ele>
        <time>2022-11-13T12:57:52.000Z</time>
      </trkpt>
      <trkpt lat="37.29787" lon="-3.53929">
        <ele>1191.0</ele>
        <time>2022-11-13T12:57:53.000Z</time>
      </trkpt>
      <trkpt lat="37.29786833" lon="-3.539275">
        <ele>1192.0</ele>
        <time>2022-11-13T12:57:54.000Z</time>
      </trkpt>
      <trkpt lat="37.29786333" lon="-3.53926">
        <ele>1192.0</ele>
        <time>2022-11-13T12:57:55.000Z</time>
      </trkpt>
      <trkpt lat="37.29786" lon="-3.539245">
        <ele>1192.0</ele>
        <time>2022-11-13T12:57:56.000Z</time>
      </trkpt>
      <trkpt lat="37.29785667" lon="-3.53923167">
        <ele>1192.0</ele>
        <time>2022-11-13T12:57:57.000Z</time>
      </trkpt>
      <trkpt lat="37.297855" lon="-3.53921833">
        <ele>1192.0</ele>
        <time>2022-11-13T12:57:58.000Z</time>
      </trkpt>
      <trkpt lat="37.29785333" lon="-3.539205">
        <ele>1192.0</ele>
        <time>2022-11-13T12:57:59.000Z</time>
      </trkpt>
      <trkpt lat="37.29785167" lon="-3.53919167">
        <ele>1192.0</ele>
        <time>2022-11-13T12:58:00.000Z</time>
      </trkpt>
      <trkpt lat="37.29785167" lon="-3.53917667">
        <ele>1192.0</ele>
        <time>2022-11-13T12:58:01.000Z</time>
      </trkpt>
      <trkpt lat="37.29785167" lon="-3.53916333">
        <ele>1192.0</ele>
        <time>2022-11-13T12:58:02.000Z</time>
      </trkpt>
      <trkpt lat="37.29785167" lon="-3.53914833">
        <ele>1192.0</ele>
        <time>2022-11-13T12:58:03.000Z</time>
      </trkpt>
      <trkpt lat="37.29784833" lon="-3.53913333">
        <ele>1192.0</ele>
        <time>2022-11-13T12:58:04.000Z</time>
      </trkpt>
      <trkpt lat="37.297845" lon="-3.53911833">
        <ele>1192.0</ele>
        <time>2022-11-13T12:58:05.000Z</time>
      </trkpt>
      <trkpt lat="37.29784333" lon="-3.53910167">
        <ele>1192.0</ele>
        <time>2022-11-13T12:58:06.000Z</time>
      </trkpt>
      <trkpt lat="37.29784167" lon="-3.53908667">
        <ele>1192.0</ele>
        <time>2022-11-13T12:58:07.000Z</time>
      </trkpt>
      <trkpt lat="37.29784" lon="-3.53907167">
        <ele>1192.0</ele>
        <time>2022-11-13T12:58:08.000Z</time>
      </trkpt>
      <trkpt lat="37.29783833" lon="-3.53905667">
        <ele>1192.0</ele>
        <time>2022-11-13T12:58:09.000Z</time>
      </trkpt>
      <trkpt lat="37.29783667" lon="-3.53904167">
        <ele>1191.0</ele>
        <time>2022-11-13T12:58:10.000Z</time>
      </trkpt>
      <trkpt lat="37.297835" lon="-3.53902833">
        <ele>1191.0</ele>
        <time>2022-11-13T12:58:11.000Z</time>
      </trkpt>
      <trkpt lat="37.29783333" lon="-3.539015">
        <ele>1191.0</ele>
        <time>2022-11-13T12:58:12.000Z</time>
      </trkpt>
      <trkpt lat="37.29783" lon="-3.53900167">
        <ele>1191.0</ele>
        <time>2022-11-13T12:58:13.000Z</time>
      </trkpt>
      <trkpt lat="37.29782833" lon="-3.53898833">
        <ele>1191.0</ele>
        <time>2022-11-13T12:58:14.000Z</time>
      </trkpt>
      <trkpt lat="37.29782667" lon="-3.53897333">
        <ele>1191.0</ele>
        <time>2022-11-13T12:58:15.000Z</time>
      </trkpt>
      <trkpt lat="37.297825" lon="-3.53896">
        <ele>1191.0</ele>
        <time>2022-11-13T12:58:16.000Z</time>
      </trkpt>
      <trkpt lat="37.29782167" lon="-3.53894667">
        <ele>1191.0</ele>
        <time>2022-11-13T12:58:17.000Z</time>
      </trkpt>
      <trkpt lat="37.29782" lon="-3.53893">
        <ele>1191.0</ele>
        <time>2022-11-13T12:58:18.000Z</time>
      </trkpt>
      <trkpt lat="37.29781833" lon="-3.538915">
        <ele>1191.0</ele>
        <time>2022-11-13T12:58:19.000Z</time>
      </trkpt>
      <trkpt lat="37.29781667" lon="-3.5389">
        <ele>1191.0</ele>
        <time>2022-11-13T12:58:20.000Z</time>
      </trkpt>
      <trkpt lat="37.297815" lon="-3.53888667">
        <ele>1191.0</ele>
        <time>2022-11-13T12:58:21.000Z</time>
      </trkpt>
      <trkpt lat="37.297815" lon="-3.53887333">
        <ele>1191.0</ele>
        <time>2022-11-13T12:58:22.000Z</time>
      </trkpt>
      <trkpt lat="37.29781333" lon="-3.53886167">
        <ele>1191.0</ele>
        <time>2022-11-13T12:58:23.000Z</time>
      </trkpt>
      <trkpt lat="37.29781" lon="-3.53884833">
        <ele>1191.0</ele>
        <time>2022-11-13T12:58:24.000Z</time>
      </trkpt>
      <trkpt lat="37.29781" lon="-3.538835">
        <ele>1191.0</ele>
        <time>2022-11-13T12:58:25.000Z</time>
      </trkpt>
      <trkpt lat="37.29781" lon="-3.53882">
        <ele>1191.0</ele>
        <time>2022-11-13T12:58:26.000Z</time>
      </trkpt>
      <trkpt lat="37.29780833" lon="-3.53880333">
        <ele>1191.0</ele>
        <time>2022-11-13T12:58:27.000Z</time>
      </trkpt>
      <trkpt lat="37.29780833" lon="-3.538785">
        <ele>1191.0</ele>
        <time>2022-11-13T12:58:28.000Z</time>
      </trkpt>
      <trkpt lat="37.29781" lon="-3.53876833">
        <ele>1191.0</ele>
        <time>2022-11-13T12:58:29.000Z</time>
      </trkpt>
      <trkpt lat="37.29781" lon="-3.53875">
        <ele>1191.0</ele>
        <time>2022-11-13T12:58:30.000Z</time>
      </trkpt>
      <trkpt lat="37.29781167" lon="-3.53873167">
        <ele>1191.0</ele>
        <time>2022-11-13T12:58:31.000Z</time>
      </trkpt>
      <trkpt lat="37.29781333" lon="-3.538715">
        <ele>1192.0</ele>
        <time>2022-11-13T12:58:32.000Z</time>
      </trkpt>
      <trkpt lat="37.297815" lon="-3.5387">
        <ele>1192.0</ele>
        <time>2022-11-13T12:58:33.000Z</time>
      </trkpt>
      <trkpt lat="37.29781667" lon="-3.538685">
        <ele>1192.0</ele>
        <time>2022-11-13T12:58:34.000Z</time>
      </trkpt>
      <trkpt lat="37.29781833" lon="-3.53866833">
        <ele>1192.0</ele>
        <time>2022-11-13T12:58:35.000Z</time>
      </trkpt>
      <trkpt lat="37.29782" lon="-3.53865167">
        <ele>1192.0</ele>
        <time>2022-11-13T12:58:36.000Z</time>
      </trkpt>
      <trkpt lat="37.29782167" lon="-3.538635">
        <ele>1193.0</ele>
        <time>2022-11-13T12:58:37.000Z</time>
      </trkpt>
      <trkpt lat="37.29782167" lon="-3.53861833">
        <ele>1193.0</ele>
        <time>2022-11-13T12:58:38.000Z</time>
      </trkpt>
      <trkpt lat="37.29782167" lon="-3.53860167">
        <ele>1193.0</ele>
        <time>2022-11-13T12:58:39.000Z</time>
      </trkpt>
      <trkpt lat="37.29782167" lon="-3.538585">
        <ele>1193.0</ele>
        <time>2022-11-13T12:58:40.000Z</time>
      </trkpt>
      <trkpt lat="37.29782167" lon="-3.53856833">
        <ele>1194.0</ele>
        <time>2022-11-13T12:58:41.000Z</time>
      </trkpt>
      <trkpt lat="37.29782333" lon="-3.53855">
        <ele>1194.0</ele>
        <time>2022-11-13T12:58:42.000Z</time>
      </trkpt>
      <trkpt lat="37.29782333" lon="-3.53853333">
        <ele>1194.0</ele>
        <time>2022-11-13T12:58:43.000Z</time>
      </trkpt>
      <trkpt lat="37.297825" lon="-3.53851667">
        <ele>1194.0</ele>
        <time>2022-11-13T12:58:44.000Z</time>
      </trkpt>
      <trkpt lat="37.297825" lon="-3.53850333">
        <ele>1194.0</ele>
        <time>2022-11-13T12:58:45.000Z</time>
      </trkpt>
      <trkpt lat="37.29782333" lon="-3.53848833">
        <ele>1194.0</ele>
        <time>2022-11-13T12:58:46.000Z</time>
      </trkpt>
      <trkpt lat="37.29782167" lon="-3.53847167">
        <ele>1195.0</ele>
        <time>2022-11-13T12:58:47.000Z</time>
      </trkpt>
      <trkpt lat="37.29782" lon="-3.53845667">
        <ele>1195.0</ele>
        <time>2022-11-13T12:58:48.000Z</time>
      </trkpt>
      <trkpt lat="37.29781667" lon="-3.53844333">
        <ele>1195.0</ele>
        <time>2022-11-13T12:58:49.000Z</time>
      </trkpt>
      <trkpt lat="37.29781333" lon="-3.53843">
        <ele>1195.0</ele>
        <time>2022-11-13T12:58:50.000Z</time>
      </trkpt>
      <trkpt lat="37.29780833" lon="-3.53841667">
        <ele>1195.0</ele>
        <time>2022-11-13T12:58:51.000Z</time>
      </trkpt>
      <trkpt lat="37.297805" lon="-3.53840167">
        <ele>1195.0</ele>
        <time>2022-11-13T12:58:52.000Z</time>
      </trkpt>
      <trkpt lat="37.2978" lon="-3.53838667">
        <ele>1195.0</ele>
        <time>2022-11-13T12:58:53.000Z</time>
      </trkpt>
      <trkpt lat="37.29779667" lon="-3.53837167">
        <ele>1195.0</ele>
        <time>2022-11-13T12:58:54.000Z</time>
      </trkpt>
      <trkpt lat="37.29779333" lon="-3.53835667">
        <ele>1195.0</ele>
        <time>2022-11-13T12:58:55.000Z</time>
      </trkpt>
      <trkpt lat="37.29778833" lon="-3.53834167">
        <ele>1195.0</ele>
        <time>2022-11-13T12:58:56.000Z</time>
      </trkpt>
      <trkpt lat="37.29778333" lon="-3.53832667">
        <ele>1195.0</ele>
        <time>2022-11-13T12:58:57.000Z</time>
      </trkpt>
      <trkpt lat="37.29778" lon="-3.53831333">
        <ele>1195.0</ele>
        <time>2022-11-13T12:58:58.000Z</time>
      </trkpt>
      <trkpt lat="37.297775" lon="-3.53829667">
        <ele>1195.0</ele>
        <time>2022-11-13T12:58:59.000Z</time>
      </trkpt>
      <trkpt lat="37.29777167" lon="-3.53828">
        <ele>1195.0</ele>
        <time>2022-11-13T12:59:00.000Z</time>
      </trkpt>
      <trkpt lat="37.29776667" lon="-3.538265">
        <ele>1195.0</ele>
        <time>2022-11-13T12:59:01.000Z</time>
      </trkpt>
      <trkpt lat="37.29776333" lon="-3.53824833">
        <ele>1195.0</ele>
        <time>2022-11-13T12:59:02.000Z</time>
      </trkpt>
      <trkpt lat="37.29775833" lon="-3.53823333">
        <ele>1195.0</ele>
        <time>2022-11-13T12:59:03.000Z</time>
      </trkpt>
      <trkpt lat="37.297755" lon="-3.53822">
        <ele>1195.0</ele>
        <time>2022-11-13T12:59:04.000Z</time>
      </trkpt>
      <trkpt lat="37.29774833" lon="-3.538205">
        <ele>1195.0</ele>
        <time>2022-11-13T12:59:05.000Z</time>
      </trkpt>
      <trkpt lat="37.29774333" lon="-3.53819167">
        <ele>1195.0</ele>
        <time>2022-11-13T12:59:06.000Z</time>
      </trkpt>
      <trkpt lat="37.29773833" lon="-3.53817833">
        <ele>1196.0</ele>
        <time>2022-11-13T12:59:07.000Z</time>
      </trkpt>
      <trkpt lat="37.29773167" lon="-3.53816333">
        <ele>1196.0</ele>
        <time>2022-11-13T12:59:08.000Z</time>
      </trkpt>
      <trkpt lat="37.29772667" lon="-3.53815">
        <ele>1196.0</ele>
        <time>2022-11-13T12:59:09.000Z</time>
      </trkpt>
      <trkpt lat="37.29772333" lon="-3.538135">
        <ele>1196.0</ele>
        <time>2022-11-13T12:59:10.000Z</time>
      </trkpt>
      <trkpt lat="37.29771833" lon="-3.53811833">
        <ele>1196.0</ele>
        <time>2022-11-13T12:59:11.000Z</time>
      </trkpt>
      <trkpt lat="37.29771333" lon="-3.53810333">
        <ele>1196.0</ele>
        <time>2022-11-13T12:59:12.000Z</time>
      </trkpt>
      <trkpt lat="37.29770833" lon="-3.53808833">
        <ele>1197.0</ele>
        <time>2022-11-13T12:59:13.000Z</time>
      </trkpt>
      <trkpt lat="37.29770333" lon="-3.53807333">
        <ele>1197.0</ele>
        <time>2022-11-13T12:59:14.000Z</time>
      </trkpt>
      <trkpt lat="37.29769833" lon="-3.53806">
        <ele>1197.0</ele>
        <time>2022-11-13T12:59:15.000Z</time>
      </trkpt>
      <trkpt lat="37.29769333" lon="-3.53804333">
        <ele>1197.0</ele>
        <time>2022-11-13T12:59:16.000Z</time>
      </trkpt>
      <trkpt lat="37.29769" lon="-3.53803">
        <ele>1197.0</ele>
        <time>2022-11-13T12:59:17.000Z</time>
      </trkpt>
      <trkpt lat="37.297685" lon="-3.538015">
        <ele>1197.0</ele>
        <time>2022-11-13T12:59:18.000Z</time>
      </trkpt>
      <trkpt lat="37.29767667" lon="-3.538">
        <ele>1197.0</ele>
        <time>2022-11-13T12:59:19.000Z</time>
      </trkpt>
      <trkpt lat="37.29767" lon="-3.537985">
        <ele>1197.0</ele>
        <time>2022-11-13T12:59:20.000Z</time>
      </trkpt>
      <trkpt lat="37.29766333" lon="-3.53797333">
        <ele>1198.0</ele>
        <time>2022-11-13T12:59:21.000Z</time>
      </trkpt>
      <trkpt lat="37.29765667" lon="-3.53795833">
        <ele>1198.0</ele>
        <time>2022-11-13T12:59:22.000Z</time>
      </trkpt>
      <trkpt lat="37.29765167" lon="-3.53794333">
        <ele>1198.0</ele>
        <time>2022-11-13T12:59:23.000Z</time>
      </trkpt>
      <trkpt lat="37.297645" lon="-3.53792833">
        <ele>1198.0</ele>
        <time>2022-11-13T12:59:24.000Z</time>
      </trkpt>
      <trkpt lat="37.29764167" lon="-3.53791333">
        <ele>1198.0</ele>
        <time>2022-11-13T12:59:25.000Z</time>
      </trkpt>
      <trkpt lat="37.29763667" lon="-3.53789833">
        <ele>1198.0</ele>
        <time>2022-11-13T12:59:26.000Z</time>
      </trkpt>
      <trkpt lat="37.29763" lon="-3.53788333">
        <ele>1198.0</ele>
        <time>2022-11-13T12:59:27.000Z</time>
      </trkpt>
      <trkpt lat="37.297625" lon="-3.53786833">
        <ele>1198.0</ele>
        <time>2022-11-13T12:59:28.000Z</time>
      </trkpt>
      <trkpt lat="37.29762" lon="-3.53785333">
        <ele>1198.0</ele>
        <time>2022-11-13T12:59:29.000Z</time>
      </trkpt>
      <trkpt lat="37.29761667" lon="-3.53783667">
        <ele>1198.0</ele>
        <time>2022-11-13T12:59:30.000Z</time>
      </trkpt>
      <trkpt lat="37.29761167" lon="-3.53782167">
        <ele>1198.0</ele>
        <time>2022-11-13T12:59:31.000Z</time>
      </trkpt>
      <trkpt lat="37.29760833" lon="-3.537805">
        <ele>1199.0</ele>
        <time>2022-11-13T12:59:32.000Z</time>
      </trkpt>
      <trkpt lat="37.29760333" lon="-3.53779">
        <ele>1199.0</ele>
        <time>2022-11-13T12:59:33.000Z</time>
      </trkpt>
      <trkpt lat="37.2976" lon="-3.53777333">
        <ele>1199.0</ele>
        <time>2022-11-13T12:59:34.000Z</time>
      </trkpt>
      <trkpt lat="37.29759833" lon="-3.53775667">
        <ele>1199.0</ele>
        <time>2022-11-13T12:59:35.000Z</time>
      </trkpt>
      <trkpt lat="37.297595" lon="-3.53774">
        <ele>1199.0</ele>
        <time>2022-11-13T12:59:36.000Z</time>
      </trkpt>
      <trkpt lat="37.29759333" lon="-3.53772167">
        <ele>1199.0</ele>
        <time>2022-11-13T12:59:37.000Z</time>
      </trkpt>
      <trkpt lat="37.29759167" lon="-3.53770667">
        <ele>1199.0</ele>
        <time>2022-11-13T12:59:38.000Z</time>
      </trkpt>
      <trkpt lat="37.29758833" lon="-3.53769">
        <ele>1200.0</ele>
        <time>2022-11-13T12:59:39.000Z</time>
      </trkpt>
      <trkpt lat="37.29758667" lon="-3.53767333">
        <ele>1200.0</ele>
        <time>2022-11-13T12:59:40.000Z</time>
      </trkpt>
      <trkpt lat="37.29758333" lon="-3.53765667">
        <ele>1200.0</ele>
        <time>2022-11-13T12:59:41.000Z</time>
      </trkpt>
      <trkpt lat="37.29758" lon="-3.53764">
        <ele>1200.0</ele>
        <time>2022-11-13T12:59:42.000Z</time>
      </trkpt>
      <trkpt lat="37.29757833" lon="-3.537625">
        <ele>1200.0</ele>
        <time>2022-11-13T12:59:43.000Z</time>
      </trkpt>
      <trkpt lat="37.297575" lon="-3.53761">
        <ele>1200.0</ele>
        <time>2022-11-13T12:59:44.000Z</time>
      </trkpt>
      <trkpt lat="37.29757333" lon="-3.537595">
        <ele>1200.0</ele>
        <time>2022-11-13T12:59:45.000Z</time>
      </trkpt>
      <trkpt lat="37.29757167" lon="-3.53758167">
        <ele>1200.0</ele>
        <time>2022-11-13T12:59:46.000Z</time>
      </trkpt>
      <trkpt lat="37.29756833" lon="-3.53756667">
        <ele>1200.0</ele>
        <time>2022-11-13T12:59:47.000Z</time>
      </trkpt>
      <trkpt lat="37.297565" lon="-3.53755167">
        <ele>1201.0</ele>
        <time>2022-11-13T12:59:48.000Z</time>
      </trkpt>
      <trkpt lat="37.29756333" lon="-3.53753333">
        <ele>1201.0</ele>
        <time>2022-11-13T12:59:49.000Z</time>
      </trkpt>
      <trkpt lat="37.29756167" lon="-3.53751667">
        <ele>1201.0</ele>
        <time>2022-11-13T12:59:50.000Z</time>
      </trkpt>
      <trkpt lat="37.29755833" lon="-3.537505">
        <ele>1201.0</ele>
        <time>2022-11-13T12:59:51.000Z</time>
      </trkpt>
      <trkpt lat="37.29755667" lon="-3.53749333">
        <ele>1201.0</ele>
        <time>2022-11-13T12:59:52.000Z</time>
      </trkpt>
      <trkpt lat="37.29755333" lon="-3.53748167">
        <ele>1201.0</ele>
        <time>2022-11-13T12:59:53.000Z</time>
      </trkpt>
      <trkpt lat="37.29755" lon="-3.53747">
        <ele>1201.0</ele>
        <time>2022-11-13T12:59:54.000Z</time>
      </trkpt>
      <trkpt lat="37.29754667" lon="-3.53746">
        <ele>1201.0</ele>
        <time>2022-11-13T12:59:55.000Z</time>
      </trkpt>
      <trkpt lat="37.29754333" lon="-3.53744833">
        <ele>1201.0</ele>
        <time>2022-11-13T12:59:56.000Z</time>
      </trkpt>
      <trkpt lat="37.29754" lon="-3.537435">
        <ele>1201.0</ele>
        <time>2022-11-13T12:59:57.000Z</time>
      </trkpt>
      <trkpt lat="37.297535" lon="-3.53742167">
        <ele>1201.0</ele>
        <time>2022-11-13T12:59:58.000Z</time>
      </trkpt>
      <trkpt lat="37.29753" lon="-3.53740833">
        <ele>1201.0</ele>
        <time>2022-11-13T12:59:59.000Z</time>
      </trkpt>
      <trkpt lat="37.297525" lon="-3.53739333">
        <ele>1201.0</ele>
        <time>2022-11-13T13:00:00.000Z</time>
      </trkpt>
      <trkpt lat="37.29752" lon="-3.53738">
        <ele>1201.0</ele>
        <time>2022-11-13T13:00:01.000Z</time>
      </trkpt>
      <trkpt lat="37.29751667" lon="-3.53736667">
        <ele>1201.0</ele>
        <time>2022-11-13T13:00:02.000Z</time>
      </trkpt>
      <trkpt lat="37.29751167" lon="-3.53735333">
        <ele>1201.0</ele>
        <time>2022-11-13T13:00:03.000Z</time>
      </trkpt>
      <trkpt lat="37.29750833" lon="-3.53734167">
        <ele>1201.0</ele>
        <time>2022-11-13T13:00:04.000Z</time>
      </trkpt>
      <trkpt lat="37.29750667" lon="-3.53732833">
        <ele>1201.0</ele>
        <time>2022-11-13T13:00:05.000Z</time>
      </trkpt>
      <trkpt lat="37.2975" lon="-3.537315">
        <ele>1201.0</ele>
        <time>2022-11-13T13:00:06.000Z</time>
      </trkpt>
      <trkpt lat="37.297495" lon="-3.5373">
        <ele>1201.0</ele>
        <time>2022-11-13T13:00:07.000Z</time>
      </trkpt>
      <trkpt lat="37.29749" lon="-3.53728667">
        <ele>1201.0</ele>
        <time>2022-11-13T13:00:08.000Z</time>
      </trkpt>
      <trkpt lat="37.297485" lon="-3.53727333">
        <ele>1201.0</ele>
        <time>2022-11-13T13:00:09.000Z</time>
      </trkpt>
      <trkpt lat="37.29748" lon="-3.53725833">
        <ele>1201.0</ele>
        <time>2022-11-13T13:00:10.000Z</time>
      </trkpt>
      <trkpt lat="37.29747333" lon="-3.537245">
        <ele>1201.0</ele>
        <time>2022-11-13T13:00:11.000Z</time>
      </trkpt>
      <trkpt lat="37.29746833" lon="-3.53723">
        <ele>1201.0</ele>
        <time>2022-11-13T13:00:12.000Z</time>
      </trkpt>
      <trkpt lat="37.29746167" lon="-3.537215">
        <ele>1201.0</ele>
        <time>2022-11-13T13:00:13.000Z</time>
      </trkpt>
      <trkpt lat="37.297455" lon="-3.53720167">
        <ele>1201.0</ele>
        <time>2022-11-13T13:00:14.000Z</time>
      </trkpt>
      <trkpt lat="37.29745167" lon="-3.53718833">
        <ele>1201.0</ele>
        <time>2022-11-13T13:00:15.000Z</time>
      </trkpt>
      <trkpt lat="37.29744667" lon="-3.537175">
        <ele>1201.0</ele>
        <time>2022-11-13T13:00:16.000Z</time>
      </trkpt>
      <trkpt lat="37.29744333" lon="-3.53716">
        <ele>1201.0</ele>
        <time>2022-11-13T13:00:17.000Z</time>
      </trkpt>
      <trkpt lat="37.29744167" lon="-3.53714333">
        <ele>1201.0</ele>
        <time>2022-11-13T13:00:18.000Z</time>
      </trkpt>
      <trkpt lat="37.29743833" lon="-3.53712833">
        <ele>1201.0</ele>
        <time>2022-11-13T13:00:19.000Z</time>
      </trkpt>
      <trkpt lat="37.29743667" lon="-3.537115">
        <ele>1201.0</ele>
        <time>2022-11-13T13:00:20.000Z</time>
      </trkpt>
      <trkpt lat="37.29743333" lon="-3.5371">
        <ele>1201.0</ele>
        <time>2022-11-13T13:00:21.000Z</time>
      </trkpt>
      <trkpt lat="37.29743167" lon="-3.53708333">
        <ele>1201.0</ele>
        <time>2022-11-13T13:00:22.000Z</time>
      </trkpt>
      <trkpt lat="37.29743" lon="-3.53706667">
        <ele>1201.0</ele>
        <time>2022-11-13T13:00:23.000Z</time>
      </trkpt>
      <trkpt lat="37.29742833" lon="-3.53704833">
        <ele>1201.0</ele>
        <time>2022-11-13T13:00:24.000Z</time>
      </trkpt>
      <trkpt lat="37.29742667" lon="-3.53703167">
        <ele>1201.0</ele>
        <time>2022-11-13T13:00:25.000Z</time>
      </trkpt>
      <trkpt lat="37.29742667" lon="-3.53701333">
        <ele>1202.0</ele>
        <time>2022-11-13T13:00:26.000Z</time>
      </trkpt>
      <trkpt lat="37.29742667" lon="-3.53699833">
        <ele>1202.0</ele>
        <time>2022-11-13T13:00:27.000Z</time>
      </trkpt>
      <trkpt lat="37.29742667" lon="-3.53698333">
        <ele>1202.0</ele>
        <time>2022-11-13T13:00:28.000Z</time>
      </trkpt>
      <trkpt lat="37.29742667" lon="-3.53696667">
        <ele>1202.0</ele>
        <time>2022-11-13T13:00:29.000Z</time>
      </trkpt>
      <trkpt lat="37.29742833" lon="-3.53695">
        <ele>1202.0</ele>
        <time>2022-11-13T13:00:30.000Z</time>
      </trkpt>
      <trkpt lat="37.29742833" lon="-3.53693167">
        <ele>1202.0</ele>
        <time>2022-11-13T13:00:31.000Z</time>
      </trkpt>
      <trkpt lat="37.29742833" lon="-3.53691333">
        <ele>1203.0</ele>
        <time>2022-11-13T13:00:32.000Z</time>
      </trkpt>
      <trkpt lat="37.29742833" lon="-3.536895">
        <ele>1203.0</ele>
        <time>2022-11-13T13:00:33.000Z</time>
      </trkpt>
      <trkpt lat="37.29743" lon="-3.53687833">
        <ele>1203.0</ele>
        <time>2022-11-13T13:00:34.000Z</time>
      </trkpt>
      <trkpt lat="37.29743" lon="-3.53686167">
        <ele>1203.0</ele>
        <time>2022-11-13T13:00:35.000Z</time>
      </trkpt>
      <trkpt lat="37.29743167" lon="-3.536845">
        <ele>1203.0</ele>
        <time>2022-11-13T13:00:36.000Z</time>
      </trkpt>
      <trkpt lat="37.29743167" lon="-3.53683">
        <ele>1203.0</ele>
        <time>2022-11-13T13:00:37.000Z</time>
      </trkpt>
      <trkpt lat="37.29743333" lon="-3.536815">
        <ele>1203.0</ele>
        <time>2022-11-13T13:00:38.000Z</time>
      </trkpt>
      <trkpt lat="37.29743333" lon="-3.5368">
        <ele>1204.0</ele>
        <time>2022-11-13T13:00:39.000Z</time>
      </trkpt>
      <trkpt lat="37.29743333" lon="-3.53678333">
        <ele>1204.0</ele>
        <time>2022-11-13T13:00:40.000Z</time>
      </trkpt>
      <trkpt lat="37.297435" lon="-3.53676667">
        <ele>1204.0</ele>
        <time>2022-11-13T13:00:41.000Z</time>
      </trkpt>
      <trkpt lat="37.29743667" lon="-3.53675167">
        <ele>1204.0</ele>
        <time>2022-11-13T13:00:42.000Z</time>
      </trkpt>
      <trkpt lat="37.29743833" lon="-3.53673833">
        <ele>1204.0</ele>
        <time>2022-11-13T13:00:43.000Z</time>
      </trkpt>
      <trkpt lat="37.29744" lon="-3.536725">
        <ele>1204.0</ele>
        <time>2022-11-13T13:00:44.000Z</time>
      </trkpt>
      <trkpt lat="37.29744167" lon="-3.53671">
        <ele>1204.0</ele>
        <time>2022-11-13T13:00:45.000Z</time>
      </trkpt>
      <trkpt lat="37.29744333" lon="-3.53669667">
        <ele>1204.0</ele>
        <time>2022-11-13T13:00:46.000Z</time>
      </trkpt>
      <trkpt lat="37.297445" lon="-3.53668333">
        <ele>1205.0</ele>
        <time>2022-11-13T13:00:47.000Z</time>
      </trkpt>
      <trkpt lat="37.29744833" lon="-3.53667">
        <ele>1205.0</ele>
        <time>2022-11-13T13:00:48.000Z</time>
      </trkpt>
      <trkpt lat="37.29745" lon="-3.53665667">
        <ele>1205.0</ele>
        <time>2022-11-13T13:00:49.000Z</time>
      </trkpt>
      <trkpt lat="37.29745333" lon="-3.536645">
        <ele>1205.0</ele>
        <time>2022-11-13T13:00:50.000Z</time>
      </trkpt>
      <trkpt lat="37.297455" lon="-3.53663333">
        <ele>1205.0</ele>
        <time>2022-11-13T13:00:51.000Z</time>
      </trkpt>
      <trkpt lat="37.29745667" lon="-3.53662">
        <ele>1205.0</ele>
        <time>2022-11-13T13:00:52.000Z</time>
      </trkpt>
      <trkpt lat="37.29746" lon="-3.53660833">
        <ele>1205.0</ele>
        <time>2022-11-13T13:00:53.000Z</time>
      </trkpt>
      <trkpt lat="37.29746333" lon="-3.536595">
        <ele>1206.0</ele>
        <time>2022-11-13T13:00:54.000Z</time>
      </trkpt>
      <trkpt lat="37.297465" lon="-3.53658167">
        <ele>1206.0</ele>
        <time>2022-11-13T13:00:55.000Z</time>
      </trkpt>
      <trkpt lat="37.29747" lon="-3.53657">
        <ele>1206.0</ele>
        <time>2022-11-13T13:00:56.000Z</time>
      </trkpt>
      <trkpt lat="37.29747333" lon="-3.536555">
        <ele>1206.0</ele>
        <time>2022-11-13T13:00:57.000Z</time>
      </trkpt>
      <trkpt lat="37.29747667" lon="-3.53654167">
        <ele>1206.0</ele>
        <time>2022-11-13T13:00:58.000Z</time>
      </trkpt>
      <trkpt lat="37.29748167" lon="-3.53653">
        <ele>1206.0</ele>
        <time>2022-11-13T13:00:59.000Z</time>
      </trkpt>
      <trkpt lat="37.297485" lon="-3.536515">
        <ele>1206.0</ele>
        <time>2022-11-13T13:01:00.000Z</time>
      </trkpt>
      <trkpt lat="37.29748833" lon="-3.53650167">
        <ele>1207.0</ele>
        <time>2022-11-13T13:01:01.000Z</time>
      </trkpt>
      <trkpt lat="37.29749167" lon="-3.53648667">
        <ele>1207.0</ele>
        <time>2022-11-13T13:01:02.000Z</time>
      </trkpt>
      <trkpt lat="37.297495" lon="-3.53647167">
        <ele>1207.0</ele>
        <time>2022-11-13T13:01:03.000Z</time>
      </trkpt>
      <trkpt lat="37.29749667" lon="-3.53645667">
        <ele>1207.0</ele>
        <time>2022-11-13T13:01:04.000Z</time>
      </trkpt>
      <trkpt lat="37.29749833" lon="-3.53644">
        <ele>1207.0</ele>
        <time>2022-11-13T13:01:05.000Z</time>
      </trkpt>
      <trkpt lat="37.2975" lon="-3.536425">
        <ele>1207.0</ele>
        <time>2022-11-13T13:01:06.000Z</time>
      </trkpt>
      <trkpt lat="37.2975" lon="-3.53641">
        <ele>1207.0</ele>
        <time>2022-11-13T13:01:07.000Z</time>
      </trkpt>
      <trkpt lat="37.2975" lon="-3.53639333">
        <ele>1207.0</ele>
        <time>2022-11-13T13:01:08.000Z</time>
      </trkpt>
      <trkpt lat="37.29749833" lon="-3.53637833">
        <ele>1207.0</ele>
        <time>2022-11-13T13:01:09.000Z</time>
      </trkpt>
      <trkpt lat="37.29749833" lon="-3.53636167">
        <ele>1208.0</ele>
        <time>2022-11-13T13:01:10.000Z</time>
      </trkpt>
      <trkpt lat="37.2975" lon="-3.53634833">
        <ele>1208.0</ele>
        <time>2022-11-13T13:01:11.000Z</time>
      </trkpt>
      <trkpt lat="37.2975" lon="-3.536335">
        <ele>1208.0</ele>
        <time>2022-11-13T13:01:12.000Z</time>
      </trkpt>
      <trkpt lat="37.2975" lon="-3.53632167">
        <ele>1208.0</ele>
        <time>2022-11-13T13:01:13.000Z</time>
      </trkpt>
      <trkpt lat="37.2975" lon="-3.53630667">
        <ele>1208.0</ele>
        <time>2022-11-13T13:01:14.000Z</time>
      </trkpt>
      <trkpt lat="37.2975" lon="-3.53629167">
        <ele>1208.0</ele>
        <time>2022-11-13T13:01:15.000Z</time>
      </trkpt>
      <trkpt lat="37.29749833" lon="-3.53627667">
        <ele>1208.0</ele>
        <time>2022-11-13T13:01:16.000Z</time>
      </trkpt>
      <trkpt lat="37.29749667" lon="-3.53626167">
        <ele>1208.0</ele>
        <time>2022-11-13T13:01:17.000Z</time>
      </trkpt>
      <trkpt lat="37.297495" lon="-3.53624667">
        <ele>1209.0</ele>
        <time>2022-11-13T13:01:18.000Z</time>
      </trkpt>
      <trkpt lat="37.29749167" lon="-3.53623167">
        <ele>1209.0</ele>
        <time>2022-11-13T13:01:19.000Z</time>
      </trkpt>
      <trkpt lat="37.29749" lon="-3.53621667">
        <ele>1209.0</ele>
        <time>2022-11-13T13:01:20.000Z</time>
      </trkpt>
      <trkpt lat="37.29748667" lon="-3.5362">
        <ele>1209.0</ele>
        <time>2022-11-13T13:01:21.000Z</time>
      </trkpt>
      <trkpt lat="37.297485" lon="-3.536185">
        <ele>1209.0</ele>
        <time>2022-11-13T13:01:22.000Z</time>
      </trkpt>
      <trkpt lat="37.29748333" lon="-3.53616833">
        <ele>1209.0</ele>
        <time>2022-11-13T13:01:23.000Z</time>
      </trkpt>
      <trkpt lat="37.29748167" lon="-3.53615167">
        <ele>1209.0</ele>
        <time>2022-11-13T13:01:24.000Z</time>
      </trkpt>
      <trkpt lat="37.29748" lon="-3.53613667">
        <ele>1209.0</ele>
        <time>2022-11-13T13:01:25.000Z</time>
      </trkpt>
      <trkpt lat="37.29747833" lon="-3.53612333">
        <ele>1209.0</ele>
        <time>2022-11-13T13:01:26.000Z</time>
      </trkpt>
      <trkpt lat="37.297475" lon="-3.53610833">
        <ele>1209.0</ele>
        <time>2022-11-13T13:01:27.000Z</time>
      </trkpt>
      <trkpt lat="37.29747333" lon="-3.53609167">
        <ele>1209.0</ele>
        <time>2022-11-13T13:01:28.000Z</time>
      </trkpt>
      <trkpt lat="37.29747167" lon="-3.536075">
        <ele>1209.0</ele>
        <time>2022-11-13T13:01:29.000Z</time>
      </trkpt>
      <trkpt lat="37.29746833" lon="-3.53606">
        <ele>1209.0</ele>
        <time>2022-11-13T13:01:30.000Z</time>
      </trkpt>
      <trkpt lat="37.29746667" lon="-3.53604333">
        <ele>1209.0</ele>
        <time>2022-11-13T13:01:31.000Z</time>
      </trkpt>
      <trkpt lat="37.297465" lon="-3.53602833">
        <ele>1209.0</ele>
        <time>2022-11-13T13:01:32.000Z</time>
      </trkpt>
      <trkpt lat="37.29746333" lon="-3.53601167">
        <ele>1209.0</ele>
        <time>2022-11-13T13:01:33.000Z</time>
      </trkpt>
      <trkpt lat="37.29746333" lon="-3.535995">
        <ele>1209.0</ele>
        <time>2022-11-13T13:01:34.000Z</time>
      </trkpt>
      <trkpt lat="37.29746333" lon="-3.53597833">
        <ele>1209.0</ele>
        <time>2022-11-13T13:01:35.000Z</time>
      </trkpt>
      <trkpt lat="37.29746333" lon="-3.53596333">
        <ele>1209.0</ele>
        <time>2022-11-13T13:01:36.000Z</time>
      </trkpt>
      <trkpt lat="37.29746333" lon="-3.53594667">
        <ele>1209.0</ele>
        <time>2022-11-13T13:01:37.000Z</time>
      </trkpt>
      <trkpt lat="37.29746333" lon="-3.53593167">
        <ele>1209.0</ele>
        <time>2022-11-13T13:01:38.000Z</time>
      </trkpt>
      <trkpt lat="37.29746333" lon="-3.53591667">
        <ele>1209.0</ele>
        <time>2022-11-13T13:01:39.000Z</time>
      </trkpt>
      <trkpt lat="37.29746333" lon="-3.53589833">
        <ele>1209.0</ele>
        <time>2022-11-13T13:01:40.000Z</time>
      </trkpt>
      <trkpt lat="37.297465" lon="-3.53588333">
        <ele>1210.0</ele>
        <time>2022-11-13T13:01:41.000Z</time>
      </trkpt>
      <trkpt lat="37.29746667" lon="-3.53586833">
        <ele>1210.0</ele>
        <time>2022-11-13T13:01:42.000Z</time>
      </trkpt>
      <trkpt lat="37.297465" lon="-3.53585333">
        <ele>1210.0</ele>
        <time>2022-11-13T13:01:43.000Z</time>
      </trkpt>
      <trkpt lat="37.297465" lon="-3.53583833">
        <ele>1210.0</ele>
        <time>2022-11-13T13:01:44.000Z</time>
      </trkpt>
      <trkpt lat="37.297465" lon="-3.53582333">
        <ele>1210.0</ele>
        <time>2022-11-13T13:01:45.000Z</time>
      </trkpt>
      <trkpt lat="37.29746333" lon="-3.53580833">
        <ele>1210.0</ele>
        <time>2022-11-13T13:01:46.000Z</time>
      </trkpt>
      <trkpt lat="37.29746333" lon="-3.53579333">
        <ele>1210.0</ele>
        <time>2022-11-13T13:01:47.000Z</time>
      </trkpt>
      <trkpt lat="37.29746333" lon="-3.53577833">
        <ele>1210.0</ele>
        <time>2022-11-13T13:01:48.000Z</time>
      </trkpt>
      <trkpt lat="37.29746333" lon="-3.53576167">
        <ele>1210.0</ele>
        <time>2022-11-13T13:01:49.000Z</time>
      </trkpt>
      <trkpt lat="37.29746333" lon="-3.535745">
        <ele>1210.0</ele>
        <time>2022-11-13T13:01:50.000Z</time>
      </trkpt>
      <trkpt lat="37.29746167" lon="-3.53573">
        <ele>1211.0</ele>
        <time>2022-11-13T13:01:51.000Z</time>
      </trkpt>
      <trkpt lat="37.29746167" lon="-3.535715">
        <ele>1211.0</ele>
        <time>2022-11-13T13:01:52.000Z</time>
      </trkpt>
      <trkpt lat="37.29746167" lon="-3.53569833">
        <ele>1211.0</ele>
        <time>2022-11-13T13:01:53.000Z</time>
      </trkpt>
      <trkpt lat="37.29746" lon="-3.53568333">
        <ele>1211.0</ele>
        <time>2022-11-13T13:01:54.000Z</time>
      </trkpt>
      <trkpt lat="37.29746" lon="-3.53567167">
        <ele>1211.0</ele>
        <time>2022-11-13T13:01:55.000Z</time>
      </trkpt>
      <trkpt lat="37.29745833" lon="-3.53565667">
        <ele>1211.0</ele>
        <time>2022-11-13T13:01:56.000Z</time>
      </trkpt>
      <trkpt lat="37.29745833" lon="-3.53564167">
        <ele>1211.0</ele>
        <time>2022-11-13T13:01:57.000Z</time>
      </trkpt>
      <trkpt lat="37.29745667" lon="-3.53562667">
        <ele>1212.0</ele>
        <time>2022-11-13T13:01:58.000Z</time>
      </trkpt>
      <trkpt lat="37.29745667" lon="-3.53561167">
        <ele>1212.0</ele>
        <time>2022-11-13T13:01:59.000Z</time>
      </trkpt>
      <trkpt lat="37.29745667" lon="-3.53559667">
        <ele>1212.0</ele>
        <time>2022-11-13T13:02:00.000Z</time>
      </trkpt>
      <trkpt lat="37.297455" lon="-3.53558167">
        <ele>1212.0</ele>
        <time>2022-11-13T13:02:01.000Z</time>
      </trkpt>
      <trkpt lat="37.29745333" lon="-3.53557">
        <ele>1212.0</ele>
        <time>2022-11-13T13:02:02.000Z</time>
      </trkpt>
      <trkpt lat="37.29745167" lon="-3.53555667">
        <ele>1213.0</ele>
        <time>2022-11-13T13:02:03.000Z</time>
      </trkpt>
      <trkpt lat="37.29745" lon="-3.53554333">
        <ele>1213.0</ele>
        <time>2022-11-13T13:02:04.000Z</time>
      </trkpt>
      <trkpt lat="37.297445" lon="-3.53553">
        <ele>1213.0</ele>
        <time>2022-11-13T13:02:05.000Z</time>
      </trkpt>
      <trkpt lat="37.29744167" lon="-3.53551833">
        <ele>1213.0</ele>
        <time>2022-11-13T13:02:06.000Z</time>
      </trkpt>
      <trkpt lat="37.29743833" lon="-3.53550667">
        <ele>1213.0</ele>
        <time>2022-11-13T13:02:07.000Z</time>
      </trkpt>
      <trkpt lat="37.297435" lon="-3.535495">
        <ele>1213.0</ele>
        <time>2022-11-13T13:02:08.000Z</time>
      </trkpt>
      <trkpt lat="37.29743333" lon="-3.53548">
        <ele>1214.0</ele>
        <time>2022-11-13T13:02:09.000Z</time>
      </trkpt>
      <trkpt lat="37.29742833" lon="-3.535465">
        <ele>1214.0</ele>
        <time>2022-11-13T13:02:10.000Z</time>
      </trkpt>
      <trkpt lat="37.297425" lon="-3.53545167">
        <ele>1214.0</ele>
        <time>2022-11-13T13:02:11.000Z</time>
      </trkpt>
      <trkpt lat="37.29742" lon="-3.53543833">
        <ele>1214.0</ele>
        <time>2022-11-13T13:02:12.000Z</time>
      </trkpt>
      <trkpt lat="37.297415" lon="-3.53542333">
        <ele>1214.0</ele>
        <time>2022-11-13T13:02:13.000Z</time>
      </trkpt>
      <trkpt lat="37.29741" lon="-3.53540833">
        <ele>1214.0</ele>
        <time>2022-11-13T13:02:14.000Z</time>
      </trkpt>
      <trkpt lat="37.29740667" lon="-3.53539333">
        <ele>1215.0</ele>
        <time>2022-11-13T13:02:15.000Z</time>
      </trkpt>
      <trkpt lat="37.29740167" lon="-3.53537667">
        <ele>1215.0</ele>
        <time>2022-11-13T13:02:16.000Z</time>
      </trkpt>
      <trkpt lat="37.29739833" lon="-3.53536167">
        <ele>1215.0</ele>
        <time>2022-11-13T13:02:17.000Z</time>
      </trkpt>
      <trkpt lat="37.297395" lon="-3.53534667">
        <ele>1215.0</ele>
        <time>2022-11-13T13:02:18.000Z</time>
      </trkpt>
      <trkpt lat="37.29739167" lon="-3.53533">
        <ele>1215.0</ele>
        <time>2022-11-13T13:02:19.000Z</time>
      </trkpt>
      <trkpt lat="37.29738667" lon="-3.535315">
        <ele>1215.0</ele>
        <time>2022-11-13T13:02:20.000Z</time>
      </trkpt>
      <trkpt lat="37.29738333" lon="-3.5353">
        <ele>1215.0</ele>
        <time>2022-11-13T13:02:21.000Z</time>
      </trkpt>
      <trkpt lat="37.29737833" lon="-3.53528667">
        <ele>1215.0</ele>
        <time>2022-11-13T13:02:22.000Z</time>
      </trkpt>
      <trkpt lat="37.297375" lon="-3.53527167">
        <ele>1215.0</ele>
        <time>2022-11-13T13:02:23.000Z</time>
      </trkpt>
      <trkpt lat="37.29737333" lon="-3.53525833">
        <ele>1215.0</ele>
        <time>2022-11-13T13:02:24.000Z</time>
      </trkpt>
      <trkpt lat="37.29737" lon="-3.53524333">
        <ele>1215.0</ele>
        <time>2022-11-13T13:02:25.000Z</time>
      </trkpt>
      <trkpt lat="37.29736833" lon="-3.53522833">
        <ele>1215.0</ele>
        <time>2022-11-13T13:02:26.000Z</time>
      </trkpt>
      <trkpt lat="37.29736667" lon="-3.53521667">
        <ele>1215.0</ele>
        <time>2022-11-13T13:02:27.000Z</time>
      </trkpt>
      <trkpt lat="37.29736667" lon="-3.535205">
        <ele>1216.0</ele>
        <time>2022-11-13T13:02:28.000Z</time>
      </trkpt>
      <trkpt lat="37.297365" lon="-3.53519333">
        <ele>1216.0</ele>
        <time>2022-11-13T13:02:29.000Z</time>
      </trkpt>
      <trkpt lat="37.29736333" lon="-3.53518333">
        <ele>1216.0</ele>
        <time>2022-11-13T13:02:30.000Z</time>
      </trkpt>
      <trkpt lat="37.29736167" lon="-3.53517167">
        <ele>1216.0</ele>
        <time>2022-11-13T13:02:31.000Z</time>
      </trkpt>
      <trkpt lat="37.29736" lon="-3.53516">
        <ele>1216.0</ele>
        <time>2022-11-13T13:02:32.000Z</time>
      </trkpt>
      <trkpt lat="37.29736167" lon="-3.535145">
        <ele>1216.0</ele>
        <time>2022-11-13T13:02:33.000Z</time>
      </trkpt>
      <trkpt lat="37.29736333" lon="-3.53513167">
        <ele>1216.0</ele>
        <time>2022-11-13T13:02:34.000Z</time>
      </trkpt>
      <trkpt lat="37.297365" lon="-3.53511833">
        <ele>1216.0</ele>
        <time>2022-11-13T13:02:35.000Z</time>
      </trkpt>
      <trkpt lat="37.29736667" lon="-3.53510667">
        <ele>1217.0</ele>
        <time>2022-11-13T13:02:36.000Z</time>
      </trkpt>
      <trkpt lat="37.29736833" lon="-3.53509333">
        <ele>1217.0</ele>
        <time>2022-11-13T13:02:37.000Z</time>
      </trkpt>
      <trkpt lat="37.29737167" lon="-3.53507833">
        <ele>1217.0</ele>
        <time>2022-11-13T13:02:38.000Z</time>
      </trkpt>
      <trkpt lat="37.297375" lon="-3.53506667">
        <ele>1217.0</ele>
        <time>2022-11-13T13:02:39.000Z</time>
      </trkpt>
      <trkpt lat="37.29737667" lon="-3.535055">
        <ele>1217.0</ele>
        <time>2022-11-13T13:02:40.000Z</time>
      </trkpt>
      <trkpt lat="37.29738167" lon="-3.53504">
        <ele>1217.0</ele>
        <time>2022-11-13T13:02:41.000Z</time>
      </trkpt>
      <trkpt lat="37.29738667" lon="-3.535025">
        <ele>1218.0</ele>
        <time>2022-11-13T13:02:42.000Z</time>
      </trkpt>
      <trkpt lat="37.29738833" lon="-3.53501167">
        <ele>1218.0</ele>
        <time>2022-11-13T13:02:43.000Z</time>
      </trkpt>
      <trkpt lat="37.29739167" lon="-3.535">
        <ele>1218.0</ele>
        <time>2022-11-13T13:02:44.000Z</time>
      </trkpt>
      <trkpt lat="37.297395" lon="-3.534985">
        <ele>1218.0</ele>
        <time>2022-11-13T13:02:45.000Z</time>
      </trkpt>
      <trkpt lat="37.29739833" lon="-3.53497">
        <ele>1218.0</ele>
        <time>2022-11-13T13:02:46.000Z</time>
      </trkpt>
      <trkpt lat="37.29740333" lon="-3.53495333">
        <ele>1218.0</ele>
        <time>2022-11-13T13:02:47.000Z</time>
      </trkpt>
      <trkpt lat="37.29741" lon="-3.53493667">
        <ele>1218.0</ele>
        <time>2022-11-13T13:02:48.000Z</time>
      </trkpt>
      <trkpt lat="37.29741833" lon="-3.53492">
        <ele>1218.0</ele>
        <time>2022-11-13T13:02:49.000Z</time>
      </trkpt>
      <trkpt lat="37.29742833" lon="-3.53490333">
        <ele>1218.0</ele>
        <time>2022-11-13T13:02:50.000Z</time>
      </trkpt>
      <trkpt lat="37.29743667" lon="-3.53488667">
        <ele>1218.0</ele>
        <time>2022-11-13T13:02:51.000Z</time>
      </trkpt>
      <trkpt lat="37.29744333" lon="-3.53487">
        <ele>1218.0</ele>
        <time>2022-11-13T13:02:52.000Z</time>
      </trkpt>
      <trkpt lat="37.29744833" lon="-3.53485667">
        <ele>1218.0</ele>
        <time>2022-11-13T13:02:53.000Z</time>
      </trkpt>
      <trkpt lat="37.297455" lon="-3.53484">
        <ele>1218.0</ele>
        <time>2022-11-13T13:02:54.000Z</time>
      </trkpt>
      <trkpt lat="37.29746" lon="-3.53482167">
        <ele>1218.0</ele>
        <time>2022-11-13T13:02:55.000Z</time>
      </trkpt>
      <trkpt lat="37.297465" lon="-3.53480333">
        <ele>1218.0</ele>
        <time>2022-11-13T13:02:56.000Z</time>
      </trkpt>
      <trkpt lat="37.29747" lon="-3.53478667">
        <ele>1218.0</ele>
        <time>2022-11-13T13:02:57.000Z</time>
      </trkpt>
      <trkpt lat="37.297475" lon="-3.53477">
        <ele>1218.0</ele>
        <time>2022-11-13T13:02:58.000Z</time>
      </trkpt>
      <trkpt lat="37.29748167" lon="-3.53475667">
        <ele>1218.0</ele>
        <time>2022-11-13T13:02:59.000Z</time>
      </trkpt>
      <trkpt lat="37.297485" lon="-3.53474167">
        <ele>1218.0</ele>
        <time>2022-11-13T13:03:00.000Z</time>
      </trkpt>
      <trkpt lat="37.29748667" lon="-3.534725">
        <ele>1218.0</ele>
        <time>2022-11-13T13:03:01.000Z</time>
      </trkpt>
      <trkpt lat="37.29749" lon="-3.53471">
        <ele>1218.0</ele>
        <time>2022-11-13T13:03:02.000Z</time>
      </trkpt>
      <trkpt lat="37.29749167" lon="-3.53469333">
        <ele>1218.0</ele>
        <time>2022-11-13T13:03:03.000Z</time>
      </trkpt>
      <trkpt lat="37.29749333" lon="-3.53468">
        <ele>1218.0</ele>
        <time>2022-11-13T13:03:04.000Z</time>
      </trkpt>
      <trkpt lat="37.29749667" lon="-3.534665">
        <ele>1218.0</ele>
        <time>2022-11-13T13:03:05.000Z</time>
      </trkpt>
      <trkpt lat="37.29749833" lon="-3.53465333">
        <ele>1218.0</ele>
        <time>2022-11-13T13:03:06.000Z</time>
      </trkpt>
      <trkpt lat="37.29750167" lon="-3.53464167">
        <ele>1218.0</ele>
        <time>2022-11-13T13:03:07.000Z</time>
      </trkpt>
      <trkpt lat="37.29750833" lon="-3.53462833">
        <ele>1218.0</ele>
        <time>2022-11-13T13:03:08.000Z</time>
      </trkpt>
      <trkpt lat="37.29751167" lon="-3.53461333">
        <ele>1218.0</ele>
        <time>2022-11-13T13:03:09.000Z</time>
      </trkpt>
      <trkpt lat="37.29751167" lon="-3.53460167">
        <ele>1218.0</ele>
        <time>2022-11-13T13:03:10.000Z</time>
      </trkpt>
      <trkpt lat="37.29751333" lon="-3.53459167">
        <ele>1218.0</ele>
        <time>2022-11-13T13:03:11.000Z</time>
      </trkpt>
      <trkpt lat="37.29751333" lon="-3.534585">
        <ele>1218.0</ele>
        <time>2022-11-13T13:03:12.000Z</time>
      </trkpt>
      <trkpt lat="37.297515" lon="-3.53457667">
        <ele>1218.0</ele>
        <time>2022-11-13T13:03:13.000Z</time>
      </trkpt>
      <trkpt lat="37.29751333" lon="-3.53457">
        <ele>1218.0</ele>
        <time>2022-11-13T13:03:14.000Z</time>
      </trkpt>
      <trkpt lat="37.29751167" lon="-3.534565">
        <ele>1218.0</ele>
        <time>2022-11-13T13:03:15.000Z</time>
      </trkpt>
      <trkpt lat="37.29750833" lon="-3.53456">
        <ele>1218.0</ele>
        <time>2022-11-13T13:03:16.000Z</time>
      </trkpt>
      <trkpt lat="37.29750667" lon="-3.534555">
        <ele>1218.0</ele>
        <time>2022-11-13T13:03:17.000Z</time>
      </trkpt>
      <trkpt lat="37.29750333" lon="-3.53454833">
        <ele>1218.0</ele>
        <time>2022-11-13T13:03:18.000Z</time>
      </trkpt>
      <trkpt lat="37.2975" lon="-3.53454">
        <ele>1218.0</ele>
        <time>2022-11-13T13:03:19.000Z</time>
      </trkpt>
      <trkpt lat="37.29749667" lon="-3.53452667">
        <ele>1218.0</ele>
        <time>2022-11-13T13:03:20.000Z</time>
      </trkpt>
      <trkpt lat="37.29749333" lon="-3.534515">
        <ele>1218.0</ele>
        <time>2022-11-13T13:03:21.000Z</time>
      </trkpt>
      <trkpt lat="37.29749167" lon="-3.53450167">
        <ele>1219.0</ele>
        <time>2022-11-13T13:03:22.000Z</time>
      </trkpt>
      <trkpt lat="37.29748667" lon="-3.53449">
        <ele>1219.0</ele>
        <time>2022-11-13T13:03:23.000Z</time>
      </trkpt>
      <trkpt lat="37.29748333" lon="-3.53447833">
        <ele>1219.0</ele>
        <time>2022-11-13T13:03:24.000Z</time>
      </trkpt>
      <trkpt lat="37.29748" lon="-3.53446333">
        <ele>1219.0</ele>
        <time>2022-11-13T13:03:25.000Z</time>
      </trkpt>
      <trkpt lat="37.29747667" lon="-3.53445167">
        <ele>1219.0</ele>
        <time>2022-11-13T13:03:26.000Z</time>
      </trkpt>
      <trkpt lat="37.29747167" lon="-3.53444">
        <ele>1219.0</ele>
        <time>2022-11-13T13:03:27.000Z</time>
      </trkpt>
      <trkpt lat="37.29746667" lon="-3.53443">
        <ele>1219.0</ele>
        <time>2022-11-13T13:03:28.000Z</time>
      </trkpt>
      <trkpt lat="37.29746167" lon="-3.53441833">
        <ele>1219.0</ele>
        <time>2022-11-13T13:03:29.000Z</time>
      </trkpt>
      <trkpt lat="37.29745667" lon="-3.53441">
        <ele>1219.0</ele>
        <time>2022-11-13T13:03:30.000Z</time>
      </trkpt>
      <trkpt lat="37.29745167" lon="-3.5344">
        <ele>1219.0</ele>
        <time>2022-11-13T13:03:31.000Z</time>
      </trkpt>
      <trkpt lat="37.29744833" lon="-3.534385">
        <ele>1219.0</ele>
        <time>2022-11-13T13:03:32.000Z</time>
      </trkpt>
      <trkpt lat="37.29744667" lon="-3.53436833">
        <ele>1219.0</ele>
        <time>2022-11-13T13:03:33.000Z</time>
      </trkpt>
      <trkpt lat="37.29744667" lon="-3.53435">
        <ele>1219.0</ele>
        <time>2022-11-13T13:03:34.000Z</time>
      </trkpt>
      <trkpt lat="37.297445" lon="-3.53433">
        <ele>1219.0</ele>
        <time>2022-11-13T13:03:35.000Z</time>
      </trkpt>
      <trkpt lat="37.29744667" lon="-3.53431333">
        <ele>1219.0</ele>
        <time>2022-11-13T13:03:36.000Z</time>
      </trkpt>
      <trkpt lat="37.29745" lon="-3.53429333">
        <ele>1219.0</ele>
        <time>2022-11-13T13:03:37.000Z</time>
      </trkpt>
      <trkpt lat="37.29745333" lon="-3.534275">
        <ele>1219.0</ele>
        <time>2022-11-13T13:03:38.000Z</time>
      </trkpt>
      <trkpt lat="37.29745667" lon="-3.53425333">
        <ele>1220.0</ele>
        <time>2022-11-13T13:03:39.000Z</time>
      </trkpt>
      <trkpt lat="37.29746" lon="-3.53423167">
        <ele>1220.0</ele>
        <time>2022-11-13T13:03:40.000Z</time>
      </trkpt>
      <trkpt lat="37.297465" lon="-3.53421333">
        <ele>1220.0</ele>
        <time>2022-11-13T13:03:41.000Z</time>
      </trkpt>
      <trkpt lat="37.29747" lon="-3.53419333">
        <ele>1220.0</ele>
        <time>2022-11-13T13:03:42.000Z</time>
      </trkpt>
      <trkpt lat="37.297475" lon="-3.53417667">
        <ele>1220.0</ele>
        <time>2022-11-13T13:03:43.000Z</time>
      </trkpt>
      <trkpt lat="37.29747833" lon="-3.53415667">
        <ele>1221.0</ele>
        <time>2022-11-13T13:03:44.000Z</time>
      </trkpt>
      <trkpt lat="37.29748167" lon="-3.53413833">
        <ele>1221.0</ele>
        <time>2022-11-13T13:03:45.000Z</time>
      </trkpt>
      <trkpt lat="37.297485" lon="-3.53412">
        <ele>1221.0</ele>
        <time>2022-11-13T13:03:46.000Z</time>
      </trkpt>
      <trkpt lat="37.29749" lon="-3.53410333">
        <ele>1221.0</ele>
        <time>2022-11-13T13:03:47.000Z</time>
      </trkpt>
      <trkpt lat="37.297495" lon="-3.53408667">
        <ele>1221.0</ele>
        <time>2022-11-13T13:03:48.000Z</time>
      </trkpt>
      <trkpt lat="37.29749833" lon="-3.53407">
        <ele>1222.0</ele>
        <time>2022-11-13T13:03:49.000Z</time>
      </trkpt>
      <trkpt lat="37.29750167" lon="-3.53405833">
        <ele>1222.0</ele>
        <time>2022-11-13T13:03:50.000Z</time>
      </trkpt>
      <trkpt lat="37.297505" lon="-3.53404333">
        <ele>1222.0</ele>
        <time>2022-11-13T13:03:51.000Z</time>
      </trkpt>
      <trkpt lat="37.29751" lon="-3.53402833">
        <ele>1222.0</ele>
        <time>2022-11-13T13:03:52.000Z</time>
      </trkpt>
      <trkpt lat="37.29751333" lon="-3.53401">
        <ele>1222.0</ele>
        <time>2022-11-13T13:03:53.000Z</time>
      </trkpt>
      <trkpt lat="37.29751833" lon="-3.53399333">
        <ele>1223.0</ele>
        <time>2022-11-13T13:03:54.000Z</time>
      </trkpt>
      <trkpt lat="37.29752333" lon="-3.53397833">
        <ele>1223.0</ele>
        <time>2022-11-13T13:03:55.000Z</time>
      </trkpt>
      <trkpt lat="37.29752833" lon="-3.53396333">
        <ele>1223.0</ele>
        <time>2022-11-13T13:03:56.000Z</time>
      </trkpt>
      <trkpt lat="37.29753" lon="-3.53394833">
        <ele>1223.0</ele>
        <time>2022-11-13T13:03:57.000Z</time>
      </trkpt>
      <trkpt lat="37.29753167" lon="-3.533935">
        <ele>1223.0</ele>
        <time>2022-11-13T13:03:58.000Z</time>
      </trkpt>
      <trkpt lat="37.29753333" lon="-3.53392">
        <ele>1223.0</ele>
        <time>2022-11-13T13:03:59.000Z</time>
      </trkpt>
      <trkpt lat="37.29753667" lon="-3.533905">
        <ele>1224.0</ele>
        <time>2022-11-13T13:04:00.000Z</time>
      </trkpt>
      <trkpt lat="37.29754" lon="-3.53389">
        <ele>1224.0</ele>
        <time>2022-11-13T13:04:01.000Z</time>
      </trkpt>
      <trkpt lat="37.29754333" lon="-3.53387333">
        <ele>1224.0</ele>
        <time>2022-11-13T13:04:02.000Z</time>
      </trkpt>
      <trkpt lat="37.29754667" lon="-3.53385667">
        <ele>1224.0</ele>
        <time>2022-11-13T13:04:03.000Z</time>
      </trkpt>
      <trkpt lat="37.29755" lon="-3.53384167">
        <ele>1224.0</ele>
        <time>2022-11-13T13:04:04.000Z</time>
      </trkpt>
      <trkpt lat="37.29755333" lon="-3.53383">
        <ele>1224.0</ele>
        <time>2022-11-13T13:04:05.000Z</time>
      </trkpt>
      <trkpt lat="37.297555" lon="-3.53381667">
        <ele>1225.0</ele>
        <time>2022-11-13T13:04:06.000Z</time>
      </trkpt>
      <trkpt lat="37.297555" lon="-3.53380333">
        <ele>1225.0</ele>
        <time>2022-11-13T13:04:07.000Z</time>
      </trkpt>
      <trkpt lat="37.29755667" lon="-3.53379167">
        <ele>1225.0</ele>
        <time>2022-11-13T13:04:08.000Z</time>
      </trkpt>
      <trkpt lat="37.29755667" lon="-3.53377833">
        <ele>1225.0</ele>
        <time>2022-11-13T13:04:09.000Z</time>
      </trkpt>
      <trkpt lat="37.29755833" lon="-3.533765">
        <ele>1225.0</ele>
        <time>2022-11-13T13:04:10.000Z</time>
      </trkpt>
      <trkpt lat="37.29755833" lon="-3.53375167">
        <ele>1225.0</ele>
        <time>2022-11-13T13:04:11.000Z</time>
      </trkpt>
      <trkpt lat="37.29756" lon="-3.533735">
        <ele>1225.0</ele>
        <time>2022-11-13T13:04:12.000Z</time>
      </trkpt>
      <trkpt lat="37.29756" lon="-3.53371833">
        <ele>1225.0</ele>
        <time>2022-11-13T13:04:13.000Z</time>
      </trkpt>
      <trkpt lat="37.29756333" lon="-3.53370333">
        <ele>1226.0</ele>
        <time>2022-11-13T13:04:14.000Z</time>
      </trkpt>
      <trkpt lat="37.297565" lon="-3.533685">
        <ele>1226.0</ele>
        <time>2022-11-13T13:04:15.000Z</time>
      </trkpt>
      <trkpt lat="37.29756667" lon="-3.53367">
        <ele>1226.0</ele>
        <time>2022-11-13T13:04:16.000Z</time>
      </trkpt>
      <trkpt lat="37.29756833" lon="-3.53365167">
        <ele>1226.0</ele>
        <time>2022-11-13T13:04:17.000Z</time>
      </trkpt>
      <trkpt lat="37.29757" lon="-3.53363333">
        <ele>1226.0</ele>
        <time>2022-11-13T13:04:18.000Z</time>
      </trkpt>
      <trkpt lat="37.29757167" lon="-3.53361667">
        <ele>1226.0</ele>
        <time>2022-11-13T13:04:19.000Z</time>
      </trkpt>
      <trkpt lat="37.29757167" lon="-3.53359833">
        <ele>1227.0</ele>
        <time>2022-11-13T13:04:20.000Z</time>
      </trkpt>
      <trkpt lat="37.29757333" lon="-3.53358">
        <ele>1227.0</ele>
        <time>2022-11-13T13:04:21.000Z</time>
      </trkpt>
      <trkpt lat="37.29757667" lon="-3.53356333">
        <ele>1227.0</ele>
        <time>2022-11-13T13:04:22.000Z</time>
      </trkpt>
      <trkpt lat="37.29757833" lon="-3.533545">
        <ele>1227.0</ele>
        <time>2022-11-13T13:04:23.000Z</time>
      </trkpt>
      <trkpt lat="37.29758167" lon="-3.53352667">
        <ele>1227.0</ele>
        <time>2022-11-13T13:04:24.000Z</time>
      </trkpt>
      <trkpt lat="37.29758333" lon="-3.53350833">
        <ele>1227.0</ele>
        <time>2022-11-13T13:04:25.000Z</time>
      </trkpt>
      <trkpt lat="37.29758667" lon="-3.53349333">
        <ele>1227.0</ele>
        <time>2022-11-13T13:04:26.000Z</time>
      </trkpt>
      <trkpt lat="37.29758833" lon="-3.53347833">
        <ele>1228.0</ele>
        <time>2022-11-13T13:04:27.000Z</time>
      </trkpt>
      <trkpt lat="37.29759" lon="-3.53346333">
        <ele>1228.0</ele>
        <time>2022-11-13T13:04:28.000Z</time>
      </trkpt>
      <trkpt lat="37.297595" lon="-3.53344833">
        <ele>1228.0</ele>
        <time>2022-11-13T13:04:29.000Z</time>
      </trkpt>
      <trkpt lat="37.29759667" lon="-3.53343333">
        <ele>1228.0</ele>
        <time>2022-11-13T13:04:30.000Z</time>
      </trkpt>
      <trkpt lat="37.29759833" lon="-3.53341667">
        <ele>1228.0</ele>
        <time>2022-11-13T13:04:31.000Z</time>
      </trkpt>
      <trkpt lat="37.29760333" lon="-3.5334">
        <ele>1228.0</ele>
        <time>2022-11-13T13:04:32.000Z</time>
      </trkpt>
      <trkpt lat="37.29760667" lon="-3.533385">
        <ele>1228.0</ele>
        <time>2022-11-13T13:04:33.000Z</time>
      </trkpt>
      <trkpt lat="37.29761" lon="-3.53336833">
        <ele>1228.0</ele>
        <time>2022-11-13T13:04:34.000Z</time>
      </trkpt>
      <trkpt lat="37.297615" lon="-3.53335333">
        <ele>1228.0</ele>
        <time>2022-11-13T13:04:35.000Z</time>
      </trkpt>
      <trkpt lat="37.29761833" lon="-3.53333833">
        <ele>1228.0</ele>
        <time>2022-11-13T13:04:36.000Z</time>
      </trkpt>
      <trkpt lat="37.29762333" lon="-3.53332333">
        <ele>1228.0</ele>
        <time>2022-11-13T13:04:37.000Z</time>
      </trkpt>
      <trkpt lat="37.29762667" lon="-3.53331">
        <ele>1229.0</ele>
        <time>2022-11-13T13:04:38.000Z</time>
      </trkpt>
      <trkpt lat="37.29763" lon="-3.533295">
        <ele>1229.0</ele>
        <time>2022-11-13T13:04:39.000Z</time>
      </trkpt>
      <trkpt lat="37.297635" lon="-3.53328">
        <ele>1229.0</ele>
        <time>2022-11-13T13:04:40.000Z</time>
      </trkpt>
      <trkpt lat="37.29763667" lon="-3.53326667">
        <ele>1229.0</ele>
        <time>2022-11-13T13:04:41.000Z</time>
      </trkpt>
      <trkpt lat="37.29764" lon="-3.53325333">
        <ele>1229.0</ele>
        <time>2022-11-13T13:04:42.000Z</time>
      </trkpt>
      <trkpt lat="37.29764333" lon="-3.53324167">
        <ele>1229.0</ele>
        <time>2022-11-13T13:04:43.000Z</time>
      </trkpt>
      <trkpt lat="37.29764667" lon="-3.53323">
        <ele>1229.0</ele>
        <time>2022-11-13T13:04:44.000Z</time>
      </trkpt>
      <trkpt lat="37.29765" lon="-3.53322">
        <ele>1229.0</ele>
        <time>2022-11-13T13:04:45.000Z</time>
      </trkpt>
      <trkpt lat="37.29765" lon="-3.53321333">
        <ele>1229.0</ele>
        <time>2022-11-13T13:04:46.000Z</time>
      </trkpt>
      <trkpt lat="37.29765167" lon="-3.53321333">
        <ele>1229.0</ele>
        <time>2022-11-13T13:04:47.000Z</time>
      </trkpt>
      <trkpt lat="37.29765167" lon="-3.53321167">
        <ele>1229.0</ele>
        <time>2022-11-13T13:04:48.000Z</time>
      </trkpt>
      <trkpt lat="37.29765167" lon="-3.53321">
        <ele>1229.0</ele>
        <time>2022-11-13T13:04:49.000Z</time>
      </trkpt>
      <trkpt lat="37.29765333" lon="-3.533205">
        <ele>1230.0</ele>
        <time>2022-11-13T13:04:50.000Z</time>
      </trkpt>
      <trkpt lat="37.29765333" lon="-3.53319833">
        <ele>1230.0</ele>
        <time>2022-11-13T13:04:51.000Z</time>
      </trkpt>
      <trkpt lat="37.297655" lon="-3.53319">
        <ele>1230.0</ele>
        <time>2022-11-13T13:04:52.000Z</time>
      </trkpt>
      <trkpt lat="37.29765667" lon="-3.53317833">
        <ele>1230.0</ele>
        <time>2022-11-13T13:04:53.000Z</time>
      </trkpt>
      <trkpt lat="37.29765833" lon="-3.533165">
        <ele>1230.0</ele>
        <time>2022-11-13T13:04:54.000Z</time>
      </trkpt>
      <trkpt lat="37.29766" lon="-3.53315167">
        <ele>1230.0</ele>
        <time>2022-11-13T13:04:55.000Z</time>
      </trkpt>
      <trkpt lat="37.29766167" lon="-3.53313667">
        <ele>1230.0</ele>
        <time>2022-11-13T13:04:56.000Z</time>
      </trkpt>
      <trkpt lat="37.29766167" lon="-3.53312333">
        <ele>1230.0</ele>
        <time>2022-11-13T13:04:57.000Z</time>
      </trkpt>
      <trkpt lat="37.29766167" lon="-3.53311">
        <ele>1230.0</ele>
        <time>2022-11-13T13:04:58.000Z</time>
      </trkpt>
      <trkpt lat="37.29766333" lon="-3.53309667">
        <ele>1230.0</ele>
        <time>2022-11-13T13:04:59.000Z</time>
      </trkpt>
      <trkpt lat="37.29766333" lon="-3.53308333">
        <ele>1230.0</ele>
        <time>2022-11-13T13:05:00.000Z</time>
      </trkpt>
      <trkpt lat="37.29766333" lon="-3.53306833">
        <ele>1231.0</ele>
        <time>2022-11-13T13:05:01.000Z</time>
      </trkpt>
      <trkpt lat="37.29766333" lon="-3.533055">
        <ele>1231.0</ele>
        <time>2022-11-13T13:05:02.000Z</time>
      </trkpt>
      <trkpt lat="37.29766333" lon="-3.53304167">
        <ele>1231.0</ele>
        <time>2022-11-13T13:05:03.000Z</time>
      </trkpt>
      <trkpt lat="37.29766333" lon="-3.53302667">
        <ele>1231.0</ele>
        <time>2022-11-13T13:05:04.000Z</time>
      </trkpt>
      <trkpt lat="37.29766333" lon="-3.53301333">
        <ele>1231.0</ele>
        <time>2022-11-13T13:05:05.000Z</time>
      </trkpt>
      <trkpt lat="37.297665" lon="-3.53300167">
        <ele>1231.0</ele>
        <time>2022-11-13T13:05:06.000Z</time>
      </trkpt>
      <trkpt lat="37.29766667" lon="-3.53298833">
        <ele>1231.0</ele>
        <time>2022-11-13T13:05:07.000Z</time>
      </trkpt>
      <trkpt lat="37.29767" lon="-3.53297333">
        <ele>1231.0</ele>
        <time>2022-11-13T13:05:08.000Z</time>
      </trkpt>
      <trkpt lat="37.29767333" lon="-3.53296167">
        <ele>1231.0</ele>
        <time>2022-11-13T13:05:09.000Z</time>
      </trkpt>
      <trkpt lat="37.29767333" lon="-3.53294833">
        <ele>1232.0</ele>
        <time>2022-11-13T13:05:10.000Z</time>
      </trkpt>
      <trkpt lat="37.29767333" lon="-3.532935">
        <ele>1232.0</ele>
        <time>2022-11-13T13:05:11.000Z</time>
      </trkpt>
      <trkpt lat="37.29767333" lon="-3.53292">
        <ele>1232.0</ele>
        <time>2022-11-13T13:05:12.000Z</time>
      </trkpt>
      <trkpt lat="37.297675" lon="-3.53290667">
        <ele>1232.0</ele>
        <time>2022-11-13T13:05:13.000Z</time>
      </trkpt>
      <trkpt lat="37.297675" lon="-3.53289333">
        <ele>1232.0</ele>
        <time>2022-11-13T13:05:14.000Z</time>
      </trkpt>
      <trkpt lat="37.297675" lon="-3.53288167">
        <ele>1233.0</ele>
        <time>2022-11-13T13:05:15.000Z</time>
      </trkpt>
      <trkpt lat="37.29767667" lon="-3.53287">
        <ele>1233.0</ele>
        <time>2022-11-13T13:05:16.000Z</time>
      </trkpt>
      <trkpt lat="37.29767667" lon="-3.53285833">
        <ele>1233.0</ele>
        <time>2022-11-13T13:05:17.000Z</time>
      </trkpt>
      <trkpt lat="37.29768" lon="-3.53284833">
        <ele>1233.0</ele>
        <time>2022-11-13T13:05:18.000Z</time>
      </trkpt>
      <trkpt lat="37.29768333" lon="-3.53283833">
        <ele>1233.0</ele>
        <time>2022-11-13T13:05:19.000Z</time>
      </trkpt>
      <trkpt lat="37.29768667" lon="-3.53282667">
        <ele>1233.0</ele>
        <time>2022-11-13T13:05:20.000Z</time>
      </trkpt>
      <trkpt lat="37.29768833" lon="-3.53281667">
        <ele>1233.0</ele>
        <time>2022-11-13T13:05:21.000Z</time>
      </trkpt>
      <trkpt lat="37.29769" lon="-3.53280667">
        <ele>1233.0</ele>
        <time>2022-11-13T13:05:22.000Z</time>
      </trkpt>
      <trkpt lat="37.297695" lon="-3.532795">
        <ele>1233.0</ele>
        <time>2022-11-13T13:05:23.000Z</time>
      </trkpt>
      <trkpt lat="37.29769667" lon="-3.53278333">
        <ele>1234.0</ele>
        <time>2022-11-13T13:05:24.000Z</time>
      </trkpt>
      <trkpt lat="37.29769833" lon="-3.53277">
        <ele>1234.0</ele>
        <time>2022-11-13T13:05:25.000Z</time>
      </trkpt>
      <trkpt lat="37.2977" lon="-3.53275667">
        <ele>1234.0</ele>
        <time>2022-11-13T13:05:26.000Z</time>
      </trkpt>
      <trkpt lat="37.29770167" lon="-3.53274333">
        <ele>1234.0</ele>
        <time>2022-11-13T13:05:27.000Z</time>
      </trkpt>
      <trkpt lat="37.29770333" lon="-3.53273">
        <ele>1234.0</ele>
        <time>2022-11-13T13:05:28.000Z</time>
      </trkpt>
      <trkpt lat="37.29770667" lon="-3.532715">
        <ele>1234.0</ele>
        <time>2022-11-13T13:05:29.000Z</time>
      </trkpt>
      <trkpt lat="37.29771" lon="-3.532705">
        <ele>1234.0</ele>
        <time>2022-11-13T13:05:30.000Z</time>
      </trkpt>
      <trkpt lat="37.29771333" lon="-3.53269167">
        <ele>1234.0</ele>
        <time>2022-11-13T13:05:31.000Z</time>
      </trkpt>
      <trkpt lat="37.29772" lon="-3.53268">
        <ele>1234.0</ele>
        <time>2022-11-13T13:05:32.000Z</time>
      </trkpt>
      <trkpt lat="37.297725" lon="-3.53266833">
        <ele>1234.0</ele>
        <time>2022-11-13T13:05:33.000Z</time>
      </trkpt>
      <trkpt lat="37.29773167" lon="-3.53265667">
        <ele>1234.0</ele>
        <time>2022-11-13T13:05:34.000Z</time>
      </trkpt>
      <trkpt lat="37.29774" lon="-3.532645">
        <ele>1235.0</ele>
        <time>2022-11-13T13:05:35.000Z</time>
      </trkpt>
      <trkpt lat="37.297745" lon="-3.53263333">
        <ele>1235.0</ele>
        <time>2022-11-13T13:05:36.000Z</time>
      </trkpt>
      <trkpt lat="37.29775167" lon="-3.53262">
        <ele>1235.0</ele>
        <time>2022-11-13T13:05:37.000Z</time>
      </trkpt>
      <trkpt lat="37.29775833" lon="-3.53260833">
        <ele>1235.0</ele>
        <time>2022-11-13T13:05:38.000Z</time>
      </trkpt>
      <trkpt lat="37.29776667" lon="-3.53259667">
        <ele>1235.0</ele>
        <time>2022-11-13T13:05:39.000Z</time>
      </trkpt>
      <trkpt lat="37.29777333" lon="-3.532585">
        <ele>1236.0</ele>
        <time>2022-11-13T13:05:40.000Z</time>
      </trkpt>
      <trkpt lat="37.29778167" lon="-3.53257333">
        <ele>1236.0</ele>
        <time>2022-11-13T13:05:41.000Z</time>
      </trkpt>
      <trkpt lat="37.29778833" lon="-3.53256167">
        <ele>1236.0</ele>
        <time>2022-11-13T13:05:42.000Z</time>
      </trkpt>
      <trkpt lat="37.29779667" lon="-3.53255167">
        <ele>1236.0</ele>
        <time>2022-11-13T13:05:43.000Z</time>
      </trkpt>
      <trkpt lat="37.29780167" lon="-3.53254167">
        <ele>1236.0</ele>
        <time>2022-11-13T13:05:44.000Z</time>
      </trkpt>
      <trkpt lat="37.29780833" lon="-3.53252833">
        <ele>1236.0</ele>
        <time>2022-11-13T13:05:45.000Z</time>
      </trkpt>
      <trkpt lat="37.29781667" lon="-3.53251667">
        <ele>1236.0</ele>
        <time>2022-11-13T13:05:46.000Z</time>
      </trkpt>
      <trkpt lat="37.29782333" lon="-3.532505">
        <ele>1236.0</ele>
        <time>2022-11-13T13:05:47.000Z</time>
      </trkpt>
      <trkpt lat="37.29783167" lon="-3.532495">
        <ele>1237.0</ele>
        <time>2022-11-13T13:05:48.000Z</time>
      </trkpt>
      <trkpt lat="37.29784" lon="-3.532485">
        <ele>1237.0</ele>
        <time>2022-11-13T13:05:49.000Z</time>
      </trkpt>
      <trkpt lat="37.29784667" lon="-3.532475">
        <ele>1237.0</ele>
        <time>2022-11-13T13:05:50.000Z</time>
      </trkpt>
      <trkpt lat="37.297855" lon="-3.53246167">
        <ele>1237.0</ele>
        <time>2022-11-13T13:05:51.000Z</time>
      </trkpt>
      <trkpt lat="37.29786333" lon="-3.53245">
        <ele>1237.0</ele>
        <time>2022-11-13T13:05:52.000Z</time>
      </trkpt>
      <trkpt lat="37.29787333" lon="-3.53243833">
        <ele>1238.0</ele>
        <time>2022-11-13T13:05:53.000Z</time>
      </trkpt>
      <trkpt lat="37.29788167" lon="-3.53242833">
        <ele>1238.0</ele>
        <time>2022-11-13T13:05:54.000Z</time>
      </trkpt>
      <trkpt lat="37.29789" lon="-3.53241833">
        <ele>1238.0</ele>
        <time>2022-11-13T13:05:55.000Z</time>
      </trkpt>
      <trkpt lat="37.2979" lon="-3.53241">
        <ele>1238.0</ele>
        <time>2022-11-13T13:05:56.000Z</time>
      </trkpt>
      <trkpt lat="37.29791" lon="-3.53240167">
        <ele>1238.0</ele>
        <time>2022-11-13T13:05:57.000Z</time>
      </trkpt>
      <trkpt lat="37.29791667" lon="-3.53239167">
        <ele>1238.0</ele>
        <time>2022-11-13T13:05:58.000Z</time>
      </trkpt>
      <trkpt lat="37.297925" lon="-3.53238333">
        <ele>1238.0</ele>
        <time>2022-11-13T13:05:59.000Z</time>
      </trkpt>
      <trkpt lat="37.29793333" lon="-3.532375">
        <ele>1238.0</ele>
        <time>2022-11-13T13:06:00.000Z</time>
      </trkpt>
      <trkpt lat="37.29794333" lon="-3.53236667">
        <ele>1239.0</ele>
        <time>2022-11-13T13:06:01.000Z</time>
      </trkpt>
      <trkpt lat="37.29795167" lon="-3.53236">
        <ele>1239.0</ele>
        <time>2022-11-13T13:06:02.000Z</time>
      </trkpt>
      <trkpt lat="37.29796167" lon="-3.53235333">
        <ele>1239.0</ele>
        <time>2022-11-13T13:06:03.000Z</time>
      </trkpt>
      <trkpt lat="37.29797" lon="-3.53234667">
        <ele>1239.0</ele>
        <time>2022-11-13T13:06:04.000Z</time>
      </trkpt>
      <trkpt lat="37.29797833" lon="-3.53234167">
        <ele>1239.0</ele>
        <time>2022-11-13T13:06:05.000Z</time>
      </trkpt>
      <trkpt lat="37.29798667" lon="-3.532335">
        <ele>1239.0</ele>
        <time>2022-11-13T13:06:06.000Z</time>
      </trkpt>
      <trkpt lat="37.297995" lon="-3.53232833">
        <ele>1239.0</ele>
        <time>2022-11-13T13:06:07.000Z</time>
      </trkpt>
      <trkpt lat="37.29800167" lon="-3.53232">
        <ele>1239.0</ele>
        <time>2022-11-13T13:06:08.000Z</time>
      </trkpt>
      <trkpt lat="37.29801167" lon="-3.53231167">
        <ele>1239.0</ele>
        <time>2022-11-13T13:06:09.000Z</time>
      </trkpt>
      <trkpt lat="37.29802167" lon="-3.53230167">
        <ele>1239.0</ele>
        <time>2022-11-13T13:06:10.000Z</time>
      </trkpt>
      <trkpt lat="37.29803333" lon="-3.53229333">
        <ele>1239.0</ele>
        <time>2022-11-13T13:06:11.000Z</time>
      </trkpt>
      <trkpt lat="37.29804333" lon="-3.532285">
        <ele>1239.0</ele>
        <time>2022-11-13T13:06:12.000Z</time>
      </trkpt>
      <trkpt lat="37.29805167" lon="-3.53227833">
        <ele>1239.0</ele>
        <time>2022-11-13T13:06:13.000Z</time>
      </trkpt>
      <trkpt lat="37.29806167" lon="-3.53227">
        <ele>1239.0</ele>
        <time>2022-11-13T13:06:14.000Z</time>
      </trkpt>
      <trkpt lat="37.29807167" lon="-3.53226167">
        <ele>1239.0</ele>
        <time>2022-11-13T13:06:15.000Z</time>
      </trkpt>
      <trkpt lat="37.29808" lon="-3.53225333">
        <ele>1239.0</ele>
        <time>2022-11-13T13:06:16.000Z</time>
      </trkpt>
      <trkpt lat="37.29809167" lon="-3.53224333">
        <ele>1239.0</ele>
        <time>2022-11-13T13:06:17.000Z</time>
      </trkpt>
      <trkpt lat="37.29810167" lon="-3.532235">
        <ele>1239.0</ele>
        <time>2022-11-13T13:06:18.000Z</time>
      </trkpt>
      <trkpt lat="37.29811167" lon="-3.53222667">
        <ele>1239.0</ele>
        <time>2022-11-13T13:06:19.000Z</time>
      </trkpt>
      <trkpt lat="37.29812" lon="-3.532215">
        <ele>1239.0</ele>
        <time>2022-11-13T13:06:20.000Z</time>
      </trkpt>
      <trkpt lat="37.29813" lon="-3.53220333">
        <ele>1239.0</ele>
        <time>2022-11-13T13:06:21.000Z</time>
      </trkpt>
      <trkpt lat="37.29813833" lon="-3.53219">
        <ele>1239.0</ele>
        <time>2022-11-13T13:06:22.000Z</time>
      </trkpt>
      <trkpt lat="37.298145" lon="-3.53217667">
        <ele>1239.0</ele>
        <time>2022-11-13T13:06:23.000Z</time>
      </trkpt>
      <trkpt lat="37.29815167" lon="-3.53216667">
        <ele>1240.0</ele>
        <time>2022-11-13T13:06:24.000Z</time>
      </trkpt>
      <trkpt lat="37.29816" lon="-3.53215333">
        <ele>1240.0</ele>
        <time>2022-11-13T13:06:25.000Z</time>
      </trkpt>
      <trkpt lat="37.29816667" lon="-3.53214167">
        <ele>1240.0</ele>
        <time>2022-11-13T13:06:26.000Z</time>
      </trkpt>
      <trkpt lat="37.29817333" lon="-3.53213">
        <ele>1240.0</ele>
        <time>2022-11-13T13:06:27.000Z</time>
      </trkpt>
      <trkpt lat="37.29818167" lon="-3.53211833">
        <ele>1240.0</ele>
        <time>2022-11-13T13:06:28.000Z</time>
      </trkpt>
      <trkpt lat="37.29818833" lon="-3.53210667">
        <ele>1240.0</ele>
        <time>2022-11-13T13:06:29.000Z</time>
      </trkpt>
      <trkpt lat="37.298195" lon="-3.532095">
        <ele>1241.0</ele>
        <time>2022-11-13T13:06:30.000Z</time>
      </trkpt>
      <trkpt lat="37.29820167" lon="-3.53208167">
        <ele>1241.0</ele>
        <time>2022-11-13T13:06:31.000Z</time>
      </trkpt>
      <trkpt lat="37.29820667" lon="-3.53206833">
        <ele>1241.0</ele>
        <time>2022-11-13T13:06:32.000Z</time>
      </trkpt>
      <trkpt lat="37.29821167" lon="-3.53205667">
        <ele>1241.0</ele>
        <time>2022-11-13T13:06:33.000Z</time>
      </trkpt>
      <trkpt lat="37.298215" lon="-3.53204333">
        <ele>1241.0</ele>
        <time>2022-11-13T13:06:34.000Z</time>
      </trkpt>
      <trkpt lat="37.29822" lon="-3.53203">
        <ele>1242.0</ele>
        <time>2022-11-13T13:06:35.000Z</time>
      </trkpt>
      <trkpt lat="37.298225" lon="-3.53201667">
        <ele>1242.0</ele>
        <time>2022-11-13T13:06:36.000Z</time>
      </trkpt>
      <trkpt lat="37.29822833" lon="-3.53200333">
        <ele>1242.0</ele>
        <time>2022-11-13T13:06:37.000Z</time>
      </trkpt>
      <trkpt lat="37.29822833" lon="-3.53199167">
        <ele>1242.0</ele>
        <time>2022-11-13T13:06:38.000Z</time>
      </trkpt>
      <trkpt lat="37.29822833" lon="-3.53198">
        <ele>1242.0</ele>
        <time>2022-11-13T13:06:39.000Z</time>
      </trkpt>
      <trkpt lat="37.29823" lon="-3.53197">
        <ele>1243.0</ele>
        <time>2022-11-13T13:06:40.000Z</time>
      </trkpt>
      <trkpt lat="37.29823167" lon="-3.53196">
        <ele>1243.0</ele>
        <time>2022-11-13T13:06:41.000Z</time>
      </trkpt>
      <trkpt lat="37.298235" lon="-3.53194667">
        <ele>1243.0</ele>
        <time>2022-11-13T13:06:42.000Z</time>
      </trkpt>
      <trkpt lat="37.29823833" lon="-3.53193333">
        <ele>1243.0</ele>
        <time>2022-11-13T13:06:43.000Z</time>
      </trkpt>
      <trkpt lat="37.29824167" lon="-3.53192">
        <ele>1243.0</ele>
        <time>2022-11-13T13:06:44.000Z</time>
      </trkpt>
      <trkpt lat="37.29824333" lon="-3.53190667">
        <ele>1243.0</ele>
        <time>2022-11-13T13:06:45.000Z</time>
      </trkpt>
      <trkpt lat="37.298245" lon="-3.53189333">
        <ele>1243.0</ele>
        <time>2022-11-13T13:06:46.000Z</time>
      </trkpt>
      <trkpt lat="37.29824667" lon="-3.53188">
        <ele>1243.0</ele>
        <time>2022-11-13T13:06:47.000Z</time>
      </trkpt>
      <trkpt lat="37.29825" lon="-3.53186667">
        <ele>1243.0</ele>
        <time>2022-11-13T13:06:48.000Z</time>
      </trkpt>
      <trkpt lat="37.29825333" lon="-3.53185167">
        <ele>1243.0</ele>
        <time>2022-11-13T13:06:49.000Z</time>
      </trkpt>
      <trkpt lat="37.29825833" lon="-3.53183667">
        <ele>1243.0</ele>
        <time>2022-11-13T13:06:50.000Z</time>
      </trkpt>
      <trkpt lat="37.29826" lon="-3.53182167">
        <ele>1244.0</ele>
        <time>2022-11-13T13:06:51.000Z</time>
      </trkpt>
      <trkpt lat="37.29826333" lon="-3.53180667">
        <ele>1244.0</ele>
        <time>2022-11-13T13:06:52.000Z</time>
      </trkpt>
      <trkpt lat="37.29826667" lon="-3.53179333">
        <ele>1244.0</ele>
        <time>2022-11-13T13:06:53.000Z</time>
      </trkpt>
      <trkpt lat="37.29827" lon="-3.53177667">
        <ele>1244.0</ele>
        <time>2022-11-13T13:06:54.000Z</time>
      </trkpt>
      <trkpt lat="37.298275" lon="-3.53176167">
        <ele>1244.0</ele>
        <time>2022-11-13T13:06:55.000Z</time>
      </trkpt>
      <trkpt lat="37.29828" lon="-3.531745">
        <ele>1244.0</ele>
        <time>2022-11-13T13:06:56.000Z</time>
      </trkpt>
      <trkpt lat="37.298285" lon="-3.53173">
        <ele>1244.0</ele>
        <time>2022-11-13T13:06:57.000Z</time>
      </trkpt>
      <trkpt lat="37.29828833" lon="-3.53171333">
        <ele>1245.0</ele>
        <time>2022-11-13T13:06:58.000Z</time>
      </trkpt>
      <trkpt lat="37.29829167" lon="-3.53169833">
        <ele>1245.0</ele>
        <time>2022-11-13T13:06:59.000Z</time>
      </trkpt>
      <trkpt lat="37.298295" lon="-3.53168167">
        <ele>1245.0</ele>
        <time>2022-11-13T13:07:00.000Z</time>
      </trkpt>
      <trkpt lat="37.2983" lon="-3.53166667">
        <ele>1245.0</ele>
        <time>2022-11-13T13:07:01.000Z</time>
      </trkpt>
      <trkpt lat="37.29830333" lon="-3.53165167">
        <ele>1245.0</ele>
        <time>2022-11-13T13:07:02.000Z</time>
      </trkpt>
      <trkpt lat="37.29830667" lon="-3.531635">
        <ele>1246.0</ele>
        <time>2022-11-13T13:07:03.000Z</time>
      </trkpt>
      <trkpt lat="37.29831" lon="-3.53162">
        <ele>1246.0</ele>
        <time>2022-11-13T13:07:04.000Z</time>
      </trkpt>
      <trkpt lat="37.29831333" lon="-3.531605">
        <ele>1246.0</ele>
        <time>2022-11-13T13:07:05.000Z</time>
      </trkpt>
      <trkpt lat="37.29831833" lon="-3.53159167">
        <ele>1246.0</ele>
        <time>2022-11-13T13:07:06.000Z</time>
      </trkpt>
      <trkpt lat="37.29832333" lon="-3.53157667">
        <ele>1246.0</ele>
        <time>2022-11-13T13:07:07.000Z</time>
      </trkpt>
      <trkpt lat="37.29832667" lon="-3.53156167">
        <ele>1247.0</ele>
        <time>2022-11-13T13:07:08.000Z</time>
      </trkpt>
      <trkpt lat="37.29833" lon="-3.53154667">
        <ele>1247.0</ele>
        <time>2022-11-13T13:07:09.000Z</time>
      </trkpt>
      <trkpt lat="37.29833333" lon="-3.53153">
        <ele>1247.0</ele>
        <time>2022-11-13T13:07:10.000Z</time>
      </trkpt>
      <trkpt lat="37.29833833" lon="-3.53151333">
        <ele>1247.0</ele>
        <time>2022-11-13T13:07:11.000Z</time>
      </trkpt>
      <trkpt lat="37.29834167" lon="-3.53149667">
        <ele>1247.0</ele>
        <time>2022-11-13T13:07:12.000Z</time>
      </trkpt>
      <trkpt lat="37.298345" lon="-3.53148167">
        <ele>1247.0</ele>
        <time>2022-11-13T13:07:13.000Z</time>
      </trkpt>
      <trkpt lat="37.29834833" lon="-3.531465">
        <ele>1248.0</ele>
        <time>2022-11-13T13:07:14.000Z</time>
      </trkpt>
      <trkpt lat="37.29835167" lon="-3.53144833">
        <ele>1248.0</ele>
        <time>2022-11-13T13:07:15.000Z</time>
      </trkpt>
      <trkpt lat="37.29835667" lon="-3.53143333">
        <ele>1248.0</ele>
        <time>2022-11-13T13:07:16.000Z</time>
      </trkpt>
      <trkpt lat="37.29835833" lon="-3.53141833">
        <ele>1248.0</ele>
        <time>2022-11-13T13:07:17.000Z</time>
      </trkpt>
      <trkpt lat="37.29836167" lon="-3.53140333">
        <ele>1248.0</ele>
        <time>2022-11-13T13:07:18.000Z</time>
      </trkpt>
      <trkpt lat="37.29836333" lon="-3.53138667">
        <ele>1248.0</ele>
        <time>2022-11-13T13:07:19.000Z</time>
      </trkpt>
      <trkpt lat="37.298365" lon="-3.53137">
        <ele>1248.0</ele>
        <time>2022-11-13T13:07:20.000Z</time>
      </trkpt>
      <trkpt lat="37.298365" lon="-3.53135167">
        <ele>1248.0</ele>
        <time>2022-11-13T13:07:21.000Z</time>
      </trkpt>
      <trkpt lat="37.29836667" lon="-3.53133667">
        <ele>1248.0</ele>
        <time>2022-11-13T13:07:22.000Z</time>
      </trkpt>
      <trkpt lat="37.29836667" lon="-3.53132">
        <ele>1249.0</ele>
        <time>2022-11-13T13:07:23.000Z</time>
      </trkpt>
      <trkpt lat="37.29836667" lon="-3.53130333">
        <ele>1249.0</ele>
        <time>2022-11-13T13:07:24.000Z</time>
      </trkpt>
      <trkpt lat="37.29836667" lon="-3.53128667">
        <ele>1249.0</ele>
        <time>2022-11-13T13:07:25.000Z</time>
      </trkpt>
      <trkpt lat="37.29836667" lon="-3.53127">
        <ele>1249.0</ele>
        <time>2022-11-13T13:07:26.000Z</time>
      </trkpt>
      <trkpt lat="37.29836667" lon="-3.531255">
        <ele>1249.0</ele>
        <time>2022-11-13T13:07:27.000Z</time>
      </trkpt>
      <trkpt lat="37.29836667" lon="-3.53124">
        <ele>1249.0</ele>
        <time>2022-11-13T13:07:28.000Z</time>
      </trkpt>
      <trkpt lat="37.298365" lon="-3.53122333">
        <ele>1249.0</ele>
        <time>2022-11-13T13:07:29.000Z</time>
      </trkpt>
      <trkpt lat="37.298365" lon="-3.53120667">
        <ele>1249.0</ele>
        <time>2022-11-13T13:07:30.000Z</time>
      </trkpt>
      <trkpt lat="37.29836333" lon="-3.53119167">
        <ele>1249.0</ele>
        <time>2022-11-13T13:07:31.000Z</time>
      </trkpt>
      <trkpt lat="37.29836167" lon="-3.531175">
        <ele>1249.0</ele>
        <time>2022-11-13T13:07:32.000Z</time>
      </trkpt>
      <trkpt lat="37.29835833" lon="-3.53116">
        <ele>1249.0</ele>
        <time>2022-11-13T13:07:33.000Z</time>
      </trkpt>
      <trkpt lat="37.29835667" lon="-3.53114333">
        <ele>1249.0</ele>
        <time>2022-11-13T13:07:34.000Z</time>
      </trkpt>
      <trkpt lat="37.298355" lon="-3.53112667">
        <ele>1249.0</ele>
        <time>2022-11-13T13:07:35.000Z</time>
      </trkpt>
      <trkpt lat="37.29835167" lon="-3.53111">
        <ele>1249.0</ele>
        <time>2022-11-13T13:07:36.000Z</time>
      </trkpt>
      <trkpt lat="37.29835" lon="-3.53109333">
        <ele>1249.0</ele>
        <time>2022-11-13T13:07:37.000Z</time>
      </trkpt>
      <trkpt lat="37.29834667" lon="-3.53107833">
        <ele>1249.0</ele>
        <time>2022-11-13T13:07:38.000Z</time>
      </trkpt>
      <trkpt lat="37.298345" lon="-3.53106167">
        <ele>1249.0</ele>
        <time>2022-11-13T13:07:39.000Z</time>
      </trkpt>
      <trkpt lat="37.29834167" lon="-3.531045">
        <ele>1250.0</ele>
        <time>2022-11-13T13:07:40.000Z</time>
      </trkpt>
      <trkpt lat="37.29834" lon="-3.53103">
        <ele>1250.0</ele>
        <time>2022-11-13T13:07:41.000Z</time>
      </trkpt>
      <trkpt lat="37.29834" lon="-3.531015">
        <ele>1250.0</ele>
        <time>2022-11-13T13:07:42.000Z</time>
      </trkpt>
      <trkpt lat="37.29833833" lon="-3.531">
        <ele>1250.0</ele>
        <time>2022-11-13T13:07:43.000Z</time>
      </trkpt>
      <trkpt lat="37.29833667" lon="-3.53098667">
        <ele>1250.0</ele>
        <time>2022-11-13T13:07:44.000Z</time>
      </trkpt>
      <trkpt lat="37.29833333" lon="-3.53097167">
        <ele>1250.0</ele>
        <time>2022-11-13T13:07:45.000Z</time>
      </trkpt>
      <trkpt lat="37.29833" lon="-3.53095833">
        <ele>1250.0</ele>
        <time>2022-11-13T13:07:46.000Z</time>
      </trkpt>
      <trkpt lat="37.29832667" lon="-3.53094667">
        <ele>1250.0</ele>
        <time>2022-11-13T13:07:47.000Z</time>
      </trkpt>
      <trkpt lat="37.298325" lon="-3.53093">
        <ele>1250.0</ele>
        <time>2022-11-13T13:07:48.000Z</time>
      </trkpt>
      <trkpt lat="37.29832333" lon="-3.530915">
        <ele>1250.0</ele>
        <time>2022-11-13T13:07:49.000Z</time>
      </trkpt>
      <trkpt lat="37.29832" lon="-3.5309">
        <ele>1250.0</ele>
        <time>2022-11-13T13:07:50.000Z</time>
      </trkpt>
      <trkpt lat="37.29831667" lon="-3.530885">
        <ele>1250.0</ele>
        <time>2022-11-13T13:07:51.000Z</time>
      </trkpt>
      <trkpt lat="37.29831333" lon="-3.53087167">
        <ele>1250.0</ele>
        <time>2022-11-13T13:07:52.000Z</time>
      </trkpt>
      <trkpt lat="37.29831" lon="-3.53086167">
        <ele>1250.0</ele>
        <time>2022-11-13T13:07:53.000Z</time>
      </trkpt>
      <trkpt lat="37.29830833" lon="-3.53085">
        <ele>1250.0</ele>
        <time>2022-11-13T13:07:54.000Z</time>
      </trkpt>
      <trkpt lat="37.29830667" lon="-3.53083833">
        <ele>1250.0</ele>
        <time>2022-11-13T13:07:55.000Z</time>
      </trkpt>
      <trkpt lat="37.298305" lon="-3.53082833">
        <ele>1250.0</ele>
        <time>2022-11-13T13:07:56.000Z</time>
      </trkpt>
      <trkpt lat="37.29830333" lon="-3.53081833">
        <ele>1250.0</ele>
        <time>2022-11-13T13:07:57.000Z</time>
      </trkpt>
      <trkpt lat="37.29830333" lon="-3.53080667">
        <ele>1250.0</ele>
        <time>2022-11-13T13:07:58.000Z</time>
      </trkpt>
      <trkpt lat="37.29830333" lon="-3.53079333">
        <ele>1250.0</ele>
        <time>2022-11-13T13:07:59.000Z</time>
      </trkpt>
      <trkpt lat="37.29830333" lon="-3.53078167">
        <ele>1250.0</ele>
        <time>2022-11-13T13:08:00.000Z</time>
      </trkpt>
      <trkpt lat="37.298305" lon="-3.53076833">
        <ele>1250.0</ele>
        <time>2022-11-13T13:08:01.000Z</time>
      </trkpt>
      <trkpt lat="37.29830833" lon="-3.530755">
        <ele>1250.0</ele>
        <time>2022-11-13T13:08:02.000Z</time>
      </trkpt>
      <trkpt lat="37.29831333" lon="-3.53074">
        <ele>1250.0</ele>
        <time>2022-11-13T13:08:03.000Z</time>
      </trkpt>
      <trkpt lat="37.29831667" lon="-3.530725">
        <ele>1250.0</ele>
        <time>2022-11-13T13:08:04.000Z</time>
      </trkpt>
      <trkpt lat="37.29832167" lon="-3.53071">
        <ele>1250.0</ele>
        <time>2022-11-13T13:08:05.000Z</time>
      </trkpt>
      <trkpt lat="37.298325" lon="-3.53069333">
        <ele>1250.0</ele>
        <time>2022-11-13T13:08:06.000Z</time>
      </trkpt>
      <trkpt lat="37.29832667" lon="-3.53068">
        <ele>1250.0</ele>
        <time>2022-11-13T13:08:07.000Z</time>
      </trkpt>
      <trkpt lat="37.29832833" lon="-3.53066833">
        <ele>1249.0</ele>
        <time>2022-11-13T13:08:08.000Z</time>
      </trkpt>
      <trkpt lat="37.29833167" lon="-3.530655">
        <ele>1249.0</ele>
        <time>2022-11-13T13:08:09.000Z</time>
      </trkpt>
      <trkpt lat="37.298335" lon="-3.53064167">
        <ele>1249.0</ele>
        <time>2022-11-13T13:08:10.000Z</time>
      </trkpt>
      <trkpt lat="37.29833833" lon="-3.53062833">
        <ele>1249.0</ele>
        <time>2022-11-13T13:08:11.000Z</time>
      </trkpt>
      <trkpt lat="37.29834167" lon="-3.530615">
        <ele>1249.0</ele>
        <time>2022-11-13T13:08:12.000Z</time>
      </trkpt>
      <trkpt lat="37.298345" lon="-3.53060167">
        <ele>1249.0</ele>
        <time>2022-11-13T13:08:13.000Z</time>
      </trkpt>
      <trkpt lat="37.29834833" lon="-3.53058833">
        <ele>1249.0</ele>
        <time>2022-11-13T13:08:14.000Z</time>
      </trkpt>
      <trkpt lat="37.29835333" lon="-3.530575">
        <ele>1249.0</ele>
        <time>2022-11-13T13:08:15.000Z</time>
      </trkpt>
      <trkpt lat="37.29835833" lon="-3.53056">
        <ele>1249.0</ele>
        <time>2022-11-13T13:08:16.000Z</time>
      </trkpt>
      <trkpt lat="37.29836167" lon="-3.530545">
        <ele>1249.0</ele>
        <time>2022-11-13T13:08:17.000Z</time>
      </trkpt>
      <trkpt lat="37.29836667" lon="-3.53053167">
        <ele>1249.0</ele>
        <time>2022-11-13T13:08:18.000Z</time>
      </trkpt>
      <trkpt lat="37.29837167" lon="-3.53051667">
        <ele>1248.0</ele>
        <time>2022-11-13T13:08:19.000Z</time>
      </trkpt>
      <trkpt lat="37.29837667" lon="-3.53050167">
        <ele>1248.0</ele>
        <time>2022-11-13T13:08:20.000Z</time>
      </trkpt>
      <trkpt lat="37.29838167" lon="-3.53048333">
        <ele>1248.0</ele>
        <time>2022-11-13T13:08:21.000Z</time>
      </trkpt>
      <trkpt lat="37.29838667" lon="-3.53046833">
        <ele>1248.0</ele>
        <time>2022-11-13T13:08:22.000Z</time>
      </trkpt>
      <trkpt lat="37.29839167" lon="-3.53045333">
        <ele>1248.0</ele>
        <time>2022-11-13T13:08:23.000Z</time>
      </trkpt>
      <trkpt lat="37.298395" lon="-3.53044">
        <ele>1248.0</ele>
        <time>2022-11-13T13:08:24.000Z</time>
      </trkpt>
      <trkpt lat="37.2984" lon="-3.53042333">
        <ele>1248.0</ele>
        <time>2022-11-13T13:08:25.000Z</time>
      </trkpt>
      <trkpt lat="37.298405" lon="-3.53040833">
        <ele>1248.0</ele>
        <time>2022-11-13T13:08:26.000Z</time>
      </trkpt>
      <trkpt lat="37.29841167" lon="-3.53039167">
        <ele>1248.0</ele>
        <time>2022-11-13T13:08:27.000Z</time>
      </trkpt>
      <trkpt lat="37.29841667" lon="-3.530375">
        <ele>1248.0</ele>
        <time>2022-11-13T13:08:28.000Z</time>
      </trkpt>
      <trkpt lat="37.29842167" lon="-3.53036">
        <ele>1247.0</ele>
        <time>2022-11-13T13:08:29.000Z</time>
      </trkpt>
      <trkpt lat="37.29842667" lon="-3.53034333">
        <ele>1247.0</ele>
        <time>2022-11-13T13:08:30.000Z</time>
      </trkpt>
      <trkpt lat="37.29843333" lon="-3.53032333">
        <ele>1247.0</ele>
        <time>2022-11-13T13:08:31.000Z</time>
      </trkpt>
      <trkpt lat="37.29844167" lon="-3.53030167">
        <ele>1247.0</ele>
        <time>2022-11-13T13:08:32.000Z</time>
      </trkpt>
      <trkpt lat="37.29845" lon="-3.530285">
        <ele>1247.0</ele>
        <time>2022-11-13T13:08:33.000Z</time>
      </trkpt>
      <trkpt lat="37.29845667" lon="-3.53026833">
        <ele>1247.0</ele>
        <time>2022-11-13T13:08:34.000Z</time>
      </trkpt>
      <trkpt lat="37.29846333" lon="-3.53025167">
        <ele>1247.0</ele>
        <time>2022-11-13T13:08:35.000Z</time>
      </trkpt>
      <trkpt lat="37.29847" lon="-3.53023333">
        <ele>1247.0</ele>
        <time>2022-11-13T13:08:36.000Z</time>
      </trkpt>
      <trkpt lat="37.29847667" lon="-3.53021333">
        <ele>1247.0</ele>
        <time>2022-11-13T13:08:37.000Z</time>
      </trkpt>
      <trkpt lat="37.29848333" lon="-3.530195">
        <ele>1247.0</ele>
        <time>2022-11-13T13:08:38.000Z</time>
      </trkpt>
      <trkpt lat="37.29848833" lon="-3.53017667">
        <ele>1247.0</ele>
        <time>2022-11-13T13:08:39.000Z</time>
      </trkpt>
      <trkpt lat="37.29849333" lon="-3.53015667">
        <ele>1247.0</ele>
        <time>2022-11-13T13:08:40.000Z</time>
      </trkpt>
      <trkpt lat="37.29849833" lon="-3.53013667">
        <ele>1247.0</ele>
        <time>2022-11-13T13:08:41.000Z</time>
      </trkpt>
      <trkpt lat="37.29850333" lon="-3.53011833">
        <ele>1248.0</ele>
        <time>2022-11-13T13:08:42.000Z</time>
      </trkpt>
      <trkpt lat="37.29850833" lon="-3.5301">
        <ele>1248.0</ele>
        <time>2022-11-13T13:08:43.000Z</time>
      </trkpt>
      <trkpt lat="37.29851167" lon="-3.53008167">
        <ele>1248.0</ele>
        <time>2022-11-13T13:08:44.000Z</time>
      </trkpt>
      <trkpt lat="37.29851667" lon="-3.53006333">
        <ele>1248.0</ele>
        <time>2022-11-13T13:08:45.000Z</time>
      </trkpt>
      <trkpt lat="37.29852333" lon="-3.530045">
        <ele>1248.0</ele>
        <time>2022-11-13T13:08:46.000Z</time>
      </trkpt>
      <trkpt lat="37.29853" lon="-3.53002833">
        <ele>1248.0</ele>
        <time>2022-11-13T13:08:47.000Z</time>
      </trkpt>
      <trkpt lat="37.298535" lon="-3.53001167">
        <ele>1249.0</ele>
        <time>2022-11-13T13:08:48.000Z</time>
      </trkpt>
      <trkpt lat="37.29854167" lon="-3.52999333">
        <ele>1249.0</ele>
        <time>2022-11-13T13:08:49.000Z</time>
      </trkpt>
      <trkpt lat="37.29854833" lon="-3.529975">
        <ele>1249.0</ele>
        <time>2022-11-13T13:08:50.000Z</time>
      </trkpt>
      <trkpt lat="37.29855333" lon="-3.52995667">
        <ele>1249.0</ele>
        <time>2022-11-13T13:08:51.000Z</time>
      </trkpt>
      <trkpt lat="37.29855833" lon="-3.52993833">
        <ele>1250.0</ele>
        <time>2022-11-13T13:08:52.000Z</time>
      </trkpt>
      <trkpt lat="37.29856333" lon="-3.52992">
        <ele>1250.0</ele>
        <time>2022-11-13T13:08:53.000Z</time>
      </trkpt>
      <trkpt lat="37.29856833" lon="-3.52990167">
        <ele>1250.0</ele>
        <time>2022-11-13T13:08:54.000Z</time>
      </trkpt>
      <trkpt lat="37.29857167" lon="-3.52988333">
        <ele>1250.0</ele>
        <time>2022-11-13T13:08:55.000Z</time>
      </trkpt>
      <trkpt lat="37.29857667" lon="-3.529865">
        <ele>1251.0</ele>
        <time>2022-11-13T13:08:56.000Z</time>
      </trkpt>
      <trkpt lat="37.29858167" lon="-3.52984833">
        <ele>1251.0</ele>
        <time>2022-11-13T13:08:57.000Z</time>
      </trkpt>
      <trkpt lat="37.29858667" lon="-3.52983">
        <ele>1251.0</ele>
        <time>2022-11-13T13:08:58.000Z</time>
      </trkpt>
      <trkpt lat="37.29859167" lon="-3.52981167">
        <ele>1251.0</ele>
        <time>2022-11-13T13:08:59.000Z</time>
      </trkpt>
      <trkpt lat="37.29859667" lon="-3.52979333">
        <ele>1251.0</ele>
        <time>2022-11-13T13:09:00.000Z</time>
      </trkpt>
      <trkpt lat="37.2986" lon="-3.529775">
        <ele>1251.0</ele>
        <time>2022-11-13T13:09:01.000Z</time>
      </trkpt>
      <trkpt lat="37.29860333" lon="-3.52975667">
        <ele>1251.0</ele>
        <time>2022-11-13T13:09:02.000Z</time>
      </trkpt>
      <trkpt lat="37.29860667" lon="-3.52974">
        <ele>1252.0</ele>
        <time>2022-11-13T13:09:03.000Z</time>
      </trkpt>
      <trkpt lat="37.29861167" lon="-3.52972333">
        <ele>1252.0</ele>
        <time>2022-11-13T13:09:04.000Z</time>
      </trkpt>
      <trkpt lat="37.29861667" lon="-3.52970667">
        <ele>1252.0</ele>
        <time>2022-11-13T13:09:05.000Z</time>
      </trkpt>
      <trkpt lat="37.29862167" lon="-3.52969">
        <ele>1252.0</ele>
        <time>2022-11-13T13:09:06.000Z</time>
      </trkpt>
      <trkpt lat="37.298625" lon="-3.529675">
        <ele>1252.0</ele>
        <time>2022-11-13T13:09:07.000Z</time>
      </trkpt>
      <trkpt lat="37.29863" lon="-3.52966">
        <ele>1252.0</ele>
        <time>2022-11-13T13:09:08.000Z</time>
      </trkpt>
      <trkpt lat="37.298635" lon="-3.52964667">
        <ele>1252.0</ele>
        <time>2022-11-13T13:09:09.000Z</time>
      </trkpt>
      <trkpt lat="37.29864" lon="-3.52963">
        <ele>1252.0</ele>
        <time>2022-11-13T13:09:10.000Z</time>
      </trkpt>
      <trkpt lat="37.298645" lon="-3.529615">
        <ele>1253.0</ele>
        <time>2022-11-13T13:09:11.000Z</time>
      </trkpt>
      <trkpt lat="37.29864833" lon="-3.5296">
        <ele>1253.0</ele>
        <time>2022-11-13T13:09:12.000Z</time>
      </trkpt>
      <trkpt lat="37.29865167" lon="-3.529585">
        <ele>1253.0</ele>
        <time>2022-11-13T13:09:13.000Z</time>
      </trkpt>
      <trkpt lat="37.29865667" lon="-3.52957167">
        <ele>1253.0</ele>
        <time>2022-11-13T13:09:14.000Z</time>
      </trkpt>
      <trkpt lat="37.29866167" lon="-3.52955667">
        <ele>1253.0</ele>
        <time>2022-11-13T13:09:15.000Z</time>
      </trkpt>
      <trkpt lat="37.29866333" lon="-3.52954167">
        <ele>1253.0</ele>
        <time>2022-11-13T13:09:16.000Z</time>
      </trkpt>
      <trkpt lat="37.29866667" lon="-3.529525">
        <ele>1254.0</ele>
        <time>2022-11-13T13:09:17.000Z</time>
      </trkpt>
      <trkpt lat="37.29867" lon="-3.52951">
        <ele>1254.0</ele>
        <time>2022-11-13T13:09:18.000Z</time>
      </trkpt>
      <trkpt lat="37.298675" lon="-3.529495">
        <ele>1254.0</ele>
        <time>2022-11-13T13:09:19.000Z</time>
      </trkpt>
      <trkpt lat="37.29868" lon="-3.52947833">
        <ele>1254.0</ele>
        <time>2022-11-13T13:09:20.000Z</time>
      </trkpt>
      <trkpt lat="37.29868333" lon="-3.52946333">
        <ele>1254.0</ele>
        <time>2022-11-13T13:09:21.000Z</time>
      </trkpt>
      <trkpt lat="37.29868667" lon="-3.52944833">
        <ele>1254.0</ele>
        <time>2022-11-13T13:09:22.000Z</time>
      </trkpt>
      <trkpt lat="37.29869" lon="-3.52943333">
        <ele>1254.0</ele>
        <time>2022-11-13T13:09:23.000Z</time>
      </trkpt>
      <trkpt lat="37.29869333" lon="-3.52942">
        <ele>1254.0</ele>
        <time>2022-11-13T13:09:24.000Z</time>
      </trkpt>
      <trkpt lat="37.298695" lon="-3.52940667">
        <ele>1255.0</ele>
        <time>2022-11-13T13:09:25.000Z</time>
      </trkpt>
      <trkpt lat="37.29869833" lon="-3.529395">
        <ele>1255.0</ele>
        <time>2022-11-13T13:09:26.000Z</time>
      </trkpt>
      <trkpt lat="37.29869833" lon="-3.52938667">
        <ele>1255.0</ele>
        <time>2022-11-13T13:09:27.000Z</time>
      </trkpt>
      <trkpt lat="37.298695" lon="-3.52938">
        <ele>1255.0</ele>
        <time>2022-11-13T13:09:28.000Z</time>
      </trkpt>
      <trkpt lat="37.29869" lon="-3.52937333">
        <ele>1255.0</ele>
        <time>2022-11-13T13:09:29.000Z</time>
      </trkpt>
      <trkpt lat="37.29868" lon="-3.52937">
        <ele>1255.0</ele>
        <time>2022-11-13T13:09:30.000Z</time>
      </trkpt>
      <trkpt lat="37.298675" lon="-3.52936833">
        <ele>1255.0</ele>
        <time>2022-11-13T13:09:31.000Z</time>
      </trkpt>
      <trkpt lat="37.29867167" lon="-3.52936333">
        <ele>1255.0</ele>
        <time>2022-11-13T13:09:32.000Z</time>
      </trkpt>
      <trkpt lat="37.298665" lon="-3.52935833">
        <ele>1255.0</ele>
        <time>2022-11-13T13:09:33.000Z</time>
      </trkpt>
      <trkpt lat="37.29865833" lon="-3.529355">
        <ele>1255.0</ele>
        <time>2022-11-13T13:09:34.000Z</time>
      </trkpt>
      <trkpt lat="37.29864833" lon="-3.52935333">
        <ele>1255.0</ele>
        <time>2022-11-13T13:09:35.000Z</time>
      </trkpt>
      <trkpt lat="37.29864" lon="-3.52935167">
        <ele>1255.0</ele>
        <time>2022-11-13T13:09:36.000Z</time>
      </trkpt>
      <trkpt lat="37.29862833" lon="-3.52934833">
        <ele>1256.0</ele>
        <time>2022-11-13T13:09:37.000Z</time>
      </trkpt>
      <trkpt lat="37.29861833" lon="-3.52934667">
        <ele>1256.0</ele>
        <time>2022-11-13T13:09:38.000Z</time>
      </trkpt>
      <trkpt lat="37.29860667" lon="-3.52934667">
        <ele>1256.0</ele>
        <time>2022-11-13T13:09:39.000Z</time>
      </trkpt>
      <trkpt lat="37.298595" lon="-3.52934667">
        <ele>1256.0</ele>
        <time>2022-11-13T13:09:40.000Z</time>
      </trkpt>
      <trkpt lat="37.29858167" lon="-3.52934667">
        <ele>1256.0</ele>
        <time>2022-11-13T13:09:41.000Z</time>
      </trkpt>
      <trkpt lat="37.29857" lon="-3.529345">
        <ele>1257.0</ele>
        <time>2022-11-13T13:09:42.000Z</time>
      </trkpt>
      <trkpt lat="37.29855833" lon="-3.52934167">
        <ele>1257.0</ele>
        <time>2022-11-13T13:09:43.000Z</time>
      </trkpt>
      <trkpt lat="37.29854667" lon="-3.52933833">
        <ele>1257.0</ele>
        <time>2022-11-13T13:09:44.000Z</time>
      </trkpt>
      <trkpt lat="37.29853833" lon="-3.52933667">
        <ele>1257.0</ele>
        <time>2022-11-13T13:09:45.000Z</time>
      </trkpt>
      <trkpt lat="37.29853" lon="-3.52933333">
        <ele>1257.0</ele>
        <time>2022-11-13T13:09:46.000Z</time>
      </trkpt>
      <trkpt lat="37.29852167" lon="-3.52933167">
        <ele>1257.0</ele>
        <time>2022-11-13T13:09:47.000Z</time>
      </trkpt>
      <trkpt lat="37.29851667" lon="-3.52932833">
        <ele>1257.0</ele>
        <time>2022-11-13T13:09:48.000Z</time>
      </trkpt>
      <trkpt lat="37.29851" lon="-3.529325">
        <ele>1258.0</ele>
        <time>2022-11-13T13:09:49.000Z</time>
      </trkpt>
      <trkpt lat="37.29850333" lon="-3.52932167">
        <ele>1258.0</ele>
        <time>2022-11-13T13:09:50.000Z</time>
      </trkpt>
      <trkpt lat="37.29849667" lon="-3.52931833">
        <ele>1258.0</ele>
        <time>2022-11-13T13:09:51.000Z</time>
      </trkpt>
      <trkpt lat="37.29848833" lon="-3.529315">
        <ele>1258.0</ele>
        <time>2022-11-13T13:09:52.000Z</time>
      </trkpt>
      <trkpt lat="37.29847833" lon="-3.52931167">
        <ele>1258.0</ele>
        <time>2022-11-13T13:09:53.000Z</time>
      </trkpt>
      <trkpt lat="37.29847" lon="-3.52930833">
        <ele>1258.0</ele>
        <time>2022-11-13T13:09:54.000Z</time>
      </trkpt>
      <trkpt lat="37.29845833" lon="-3.529305">
        <ele>1259.0</ele>
        <time>2022-11-13T13:09:55.000Z</time>
      </trkpt>
      <trkpt lat="37.29845" lon="-3.52930333">
        <ele>1259.0</ele>
        <time>2022-11-13T13:09:56.000Z</time>
      </trkpt>
      <trkpt lat="37.29844167" lon="-3.5293">
        <ele>1259.0</ele>
        <time>2022-11-13T13:09:57.000Z</time>
      </trkpt>
      <trkpt lat="37.29843667" lon="-3.529295">
        <ele>1259.0</ele>
        <time>2022-11-13T13:09:58.000Z</time>
      </trkpt>
      <trkpt lat="37.29843" lon="-3.52928833">
        <ele>1259.0</ele>
        <time>2022-11-13T13:09:59.000Z</time>
      </trkpt>
      <trkpt lat="37.29842167" lon="-3.52928167">
        <ele>1259.0</ele>
        <time>2022-11-13T13:10:00.000Z</time>
      </trkpt>
      <trkpt lat="37.29841333" lon="-3.52927667">
        <ele>1259.0</ele>
        <time>2022-11-13T13:10:01.000Z</time>
      </trkpt>
      <trkpt lat="37.298405" lon="-3.52927167">
        <ele>1259.0</ele>
        <time>2022-11-13T13:10:02.000Z</time>
      </trkpt>
      <trkpt lat="37.29839667" lon="-3.529265">
        <ele>1259.0</ele>
        <time>2022-11-13T13:10:03.000Z</time>
      </trkpt>
      <trkpt lat="37.29838667" lon="-3.52926">
        <ele>1259.0</ele>
        <time>2022-11-13T13:10:04.000Z</time>
      </trkpt>
      <trkpt lat="37.29837667" lon="-3.529255">
        <ele>1259.0</ele>
        <time>2022-11-13T13:10:05.000Z</time>
      </trkpt>
      <trkpt lat="37.29836667" lon="-3.52925167">
        <ele>1259.0</ele>
        <time>2022-11-13T13:10:06.000Z</time>
      </trkpt>
      <trkpt lat="37.29835667" lon="-3.52924833">
        <ele>1259.0</ele>
        <time>2022-11-13T13:10:07.000Z</time>
      </trkpt>
      <trkpt lat="37.29834667" lon="-3.529245">
        <ele>1260.0</ele>
        <time>2022-11-13T13:10:08.000Z</time>
      </trkpt>
      <trkpt lat="37.29833833" lon="-3.52924333">
        <ele>1260.0</ele>
        <time>2022-11-13T13:10:09.000Z</time>
      </trkpt>
      <trkpt lat="37.29833" lon="-3.52924">
        <ele>1260.0</ele>
        <time>2022-11-13T13:10:10.000Z</time>
      </trkpt>
      <trkpt lat="37.29832" lon="-3.52923833">
        <ele>1260.0</ele>
        <time>2022-11-13T13:10:11.000Z</time>
      </trkpt>
      <trkpt lat="37.29831" lon="-3.529235">
        <ele>1260.0</ele>
        <time>2022-11-13T13:10:12.000Z</time>
      </trkpt>
      <trkpt lat="37.29830167" lon="-3.52923167">
        <ele>1260.0</ele>
        <time>2022-11-13T13:10:13.000Z</time>
      </trkpt>
      <trkpt lat="37.29829167" lon="-3.52922667">
        <ele>1260.0</ele>
        <time>2022-11-13T13:10:14.000Z</time>
      </trkpt>
      <trkpt lat="37.29828167" lon="-3.52922333">
        <ele>1260.0</ele>
        <time>2022-11-13T13:10:15.000Z</time>
      </trkpt>
      <trkpt lat="37.29827" lon="-3.52921833">
        <ele>1261.0</ele>
        <time>2022-11-13T13:10:16.000Z</time>
      </trkpt>
      <trkpt lat="37.29825833" lon="-3.52921333">
        <ele>1261.0</ele>
        <time>2022-11-13T13:10:17.000Z</time>
      </trkpt>
      <trkpt lat="37.29824833" lon="-3.52920833">
        <ele>1261.0</ele>
        <time>2022-11-13T13:10:18.000Z</time>
      </trkpt>
      <trkpt lat="37.29823833" lon="-3.52920833">
        <ele>1261.0</ele>
        <time>2022-11-13T13:10:19.000Z</time>
      </trkpt>
      <trkpt lat="37.29823" lon="-3.52920667">
        <ele>1261.0</ele>
        <time>2022-11-13T13:10:20.000Z</time>
      </trkpt>
      <trkpt lat="37.29822" lon="-3.529205">
        <ele>1261.0</ele>
        <time>2022-11-13T13:10:21.000Z</time>
      </trkpt>
      <trkpt lat="37.29821" lon="-3.52920167">
        <ele>1262.0</ele>
        <time>2022-11-13T13:10:22.000Z</time>
      </trkpt>
      <trkpt lat="37.2982" lon="-3.52919833">
        <ele>1262.0</ele>
        <time>2022-11-13T13:10:23.000Z</time>
      </trkpt>
      <trkpt lat="37.29819" lon="-3.52919333">
        <ele>1262.0</ele>
        <time>2022-11-13T13:10:24.000Z</time>
      </trkpt>
      <trkpt lat="37.29818167" lon="-3.52918833">
        <ele>1262.0</ele>
        <time>2022-11-13T13:10:25.000Z</time>
      </trkpt>
      <trkpt lat="37.29817333" lon="-3.529185">
        <ele>1262.0</ele>
        <time>2022-11-13T13:10:26.000Z</time>
      </trkpt>
      <trkpt lat="37.29816333" lon="-3.52918167">
        <ele>1262.0</ele>
        <time>2022-11-13T13:10:27.000Z</time>
      </trkpt>
      <trkpt lat="37.298155" lon="-3.52918">
        <ele>1263.0</ele>
        <time>2022-11-13T13:10:28.000Z</time>
      </trkpt>
      <trkpt lat="37.29814833" lon="-3.529175">
        <ele>1263.0</ele>
        <time>2022-11-13T13:10:29.000Z</time>
      </trkpt>
      <trkpt lat="37.29813833" lon="-3.52917167">
        <ele>1263.0</ele>
        <time>2022-11-13T13:10:30.000Z</time>
      </trkpt>
      <trkpt lat="37.29813" lon="-3.52917">
        <ele>1263.0</ele>
        <time>2022-11-13T13:10:31.000Z</time>
      </trkpt>
      <trkpt lat="37.29811833" lon="-3.529165">
        <ele>1263.0</ele>
        <time>2022-11-13T13:10:32.000Z</time>
      </trkpt>
      <trkpt lat="37.29811167" lon="-3.52916">
        <ele>1263.0</ele>
        <time>2022-11-13T13:10:33.000Z</time>
      </trkpt>
      <trkpt lat="37.29810333" lon="-3.52915667">
        <ele>1264.0</ele>
        <time>2022-11-13T13:10:34.000Z</time>
      </trkpt>
      <trkpt lat="37.298095" lon="-3.52915167">
        <ele>1264.0</ele>
        <time>2022-11-13T13:10:35.000Z</time>
      </trkpt>
      <trkpt lat="37.298085" lon="-3.52915167">
        <ele>1264.0</ele>
        <time>2022-11-13T13:10:36.000Z</time>
      </trkpt>
      <trkpt lat="37.29807667" lon="-3.52914667">
        <ele>1264.0</ele>
        <time>2022-11-13T13:10:37.000Z</time>
      </trkpt>
      <trkpt lat="37.29807" lon="-3.529145">
        <ele>1264.0</ele>
        <time>2022-11-13T13:10:38.000Z</time>
      </trkpt>
      <trkpt lat="37.29805833" lon="-3.52914333">
        <ele>1265.0</ele>
        <time>2022-11-13T13:10:39.000Z</time>
      </trkpt>
      <trkpt lat="37.29805" lon="-3.52914167">
        <ele>1265.0</ele>
        <time>2022-11-13T13:10:40.000Z</time>
      </trkpt>
      <trkpt lat="37.29804333" lon="-3.529135">
        <ele>1265.0</ele>
        <time>2022-11-13T13:10:41.000Z</time>
      </trkpt>
      <trkpt lat="37.29803667" lon="-3.52913">
        <ele>1265.0</ele>
        <time>2022-11-13T13:10:42.000Z</time>
      </trkpt>
      <trkpt lat="37.29803" lon="-3.52912667">
        <ele>1265.0</ele>
        <time>2022-11-13T13:10:43.000Z</time>
      </trkpt>
      <trkpt lat="37.298025" lon="-3.529125">
        <ele>1265.0</ele>
        <time>2022-11-13T13:10:44.000Z</time>
      </trkpt>
      <trkpt lat="37.29801667" lon="-3.52912">
        <ele>1265.0</ele>
        <time>2022-11-13T13:10:45.000Z</time>
      </trkpt>
      <trkpt lat="37.29800833" lon="-3.529115">
        <ele>1266.0</ele>
        <time>2022-11-13T13:10:46.000Z</time>
      </trkpt>
      <trkpt lat="37.298" lon="-3.52911167">
        <ele>1266.0</ele>
        <time>2022-11-13T13:10:47.000Z</time>
      </trkpt>
      <trkpt lat="37.29799167" lon="-3.52910667">
        <ele>1266.0</ele>
        <time>2022-11-13T13:10:48.000Z</time>
      </trkpt>
      <trkpt lat="37.29798333" lon="-3.52910333">
        <ele>1266.0</ele>
        <time>2022-11-13T13:10:49.000Z</time>
      </trkpt>
      <trkpt lat="37.297975" lon="-3.52909833">
        <ele>1266.0</ele>
        <time>2022-11-13T13:10:50.000Z</time>
      </trkpt>
      <trkpt lat="37.29796667" lon="-3.52909333">
        <ele>1266.0</ele>
        <time>2022-11-13T13:10:51.000Z</time>
      </trkpt>
      <trkpt lat="37.29796" lon="-3.52908833">
        <ele>1266.0</ele>
        <time>2022-11-13T13:10:52.000Z</time>
      </trkpt>
      <trkpt lat="37.29795" lon="-3.529085">
        <ele>1267.0</ele>
        <time>2022-11-13T13:10:53.000Z</time>
      </trkpt>
      <trkpt lat="37.29794" lon="-3.52908167">
        <ele>1267.0</ele>
        <time>2022-11-13T13:10:54.000Z</time>
      </trkpt>
      <trkpt lat="37.29793167" lon="-3.52907667">
        <ele>1267.0</ele>
        <time>2022-11-13T13:10:55.000Z</time>
      </trkpt>
      <trkpt lat="37.29792333" lon="-3.52907167">
        <ele>1267.0</ele>
        <time>2022-11-13T13:10:56.000Z</time>
      </trkpt>
      <trkpt lat="37.297915" lon="-3.52906833">
        <ele>1267.0</ele>
        <time>2022-11-13T13:10:57.000Z</time>
      </trkpt>
      <trkpt lat="37.297905" lon="-3.52906333">
        <ele>1267.0</ele>
        <time>2022-11-13T13:10:58.000Z</time>
      </trkpt>
      <trkpt lat="37.29789667" lon="-3.52905833">
        <ele>1268.0</ele>
        <time>2022-11-13T13:10:59.000Z</time>
      </trkpt>
      <trkpt lat="37.29788833" lon="-3.52905667">
        <ele>1268.0</ele>
        <time>2022-11-13T13:11:00.000Z</time>
      </trkpt>
      <trkpt lat="37.29787833" lon="-3.52905333">
        <ele>1268.0</ele>
        <time>2022-11-13T13:11:01.000Z</time>
      </trkpt>
      <trkpt lat="37.29786833" lon="-3.52905">
        <ele>1268.0</ele>
        <time>2022-11-13T13:11:02.000Z</time>
      </trkpt>
      <trkpt lat="37.29786" lon="-3.529045">
        <ele>1268.0</ele>
        <time>2022-11-13T13:11:03.000Z</time>
      </trkpt>
      <trkpt lat="37.29785167" lon="-3.52904167">
        <ele>1268.0</ele>
        <time>2022-11-13T13:11:04.000Z</time>
      </trkpt>
      <trkpt lat="37.29784333" lon="-3.52903667">
        <ele>1269.0</ele>
        <time>2022-11-13T13:11:05.000Z</time>
      </trkpt>
      <trkpt lat="37.297835" lon="-3.52903333">
        <ele>1269.0</ele>
        <time>2022-11-13T13:11:06.000Z</time>
      </trkpt>
      <trkpt lat="37.297825" lon="-3.52903">
        <ele>1269.0</ele>
        <time>2022-11-13T13:11:07.000Z</time>
      </trkpt>
      <trkpt lat="37.29781667" lon="-3.52902667">
        <ele>1269.0</ele>
        <time>2022-11-13T13:11:08.000Z</time>
      </trkpt>
      <trkpt lat="37.29780667" lon="-3.52902167">
        <ele>1269.0</ele>
        <time>2022-11-13T13:11:09.000Z</time>
      </trkpt>
      <trkpt lat="37.29779667" lon="-3.52901667">
        <ele>1269.0</ele>
        <time>2022-11-13T13:11:10.000Z</time>
      </trkpt>
      <trkpt lat="37.29778667" lon="-3.52901333">
        <ele>1269.0</ele>
        <time>2022-11-13T13:11:11.000Z</time>
      </trkpt>
      <trkpt lat="37.29778" lon="-3.52900833">
        <ele>1269.0</ele>
        <time>2022-11-13T13:11:12.000Z</time>
      </trkpt>
      <trkpt lat="37.29777" lon="-3.529005">
        <ele>1269.0</ele>
        <time>2022-11-13T13:11:13.000Z</time>
      </trkpt>
      <trkpt lat="37.29776" lon="-3.529">
        <ele>1269.0</ele>
        <time>2022-11-13T13:11:14.000Z</time>
      </trkpt>
      <trkpt lat="37.29775" lon="-3.528995">
        <ele>1269.0</ele>
        <time>2022-11-13T13:11:15.000Z</time>
      </trkpt>
      <trkpt lat="37.29774167" lon="-3.52899">
        <ele>1269.0</ele>
        <time>2022-11-13T13:11:16.000Z</time>
      </trkpt>
      <trkpt lat="37.29773333" lon="-3.528985">
        <ele>1270.0</ele>
        <time>2022-11-13T13:11:17.000Z</time>
      </trkpt>
      <trkpt lat="37.29772333" lon="-3.52898">
        <ele>1270.0</ele>
        <time>2022-11-13T13:11:18.000Z</time>
      </trkpt>
      <trkpt lat="37.297715" lon="-3.52897667">
        <ele>1270.0</ele>
        <time>2022-11-13T13:11:19.000Z</time>
      </trkpt>
      <trkpt lat="37.29770667" lon="-3.52897167">
        <ele>1270.0</ele>
        <time>2022-11-13T13:11:20.000Z</time>
      </trkpt>
      <trkpt lat="37.29769833" lon="-3.52897">
        <ele>1270.0</ele>
        <time>2022-11-13T13:11:21.000Z</time>
      </trkpt>
      <trkpt lat="37.29768833" lon="-3.528965">
        <ele>1270.0</ele>
        <time>2022-11-13T13:11:22.000Z</time>
      </trkpt>
      <trkpt lat="37.29768" lon="-3.52896">
        <ele>1270.0</ele>
        <time>2022-11-13T13:11:23.000Z</time>
      </trkpt>
      <trkpt lat="37.29766833" lon="-3.52895667">
        <ele>1271.0</ele>
        <time>2022-11-13T13:11:24.000Z</time>
      </trkpt>
      <trkpt lat="37.29766" lon="-3.52895167">
        <ele>1271.0</ele>
        <time>2022-11-13T13:11:25.000Z</time>
      </trkpt>
      <trkpt lat="37.29765167" lon="-3.528945">
        <ele>1271.0</ele>
        <time>2022-11-13T13:11:26.000Z</time>
      </trkpt>
      <trkpt lat="37.29764333" lon="-3.52894167">
        <ele>1271.0</ele>
        <time>2022-11-13T13:11:27.000Z</time>
      </trkpt>
      <trkpt lat="37.297635" lon="-3.52893833">
        <ele>1271.0</ele>
        <time>2022-11-13T13:11:28.000Z</time>
      </trkpt>
      <trkpt lat="37.297625" lon="-3.52893167">
        <ele>1271.0</ele>
        <time>2022-11-13T13:11:29.000Z</time>
      </trkpt>
      <trkpt lat="37.29761667" lon="-3.52892667">
        <ele>1271.0</ele>
        <time>2022-11-13T13:11:30.000Z</time>
      </trkpt>
      <trkpt lat="37.29760667" lon="-3.52892333">
        <ele>1271.0</ele>
        <time>2022-11-13T13:11:31.000Z</time>
      </trkpt>
      <trkpt lat="37.29759833" lon="-3.52892">
        <ele>1271.0</ele>
        <time>2022-11-13T13:11:32.000Z</time>
      </trkpt>
      <trkpt lat="37.29758833" lon="-3.52891333">
        <ele>1271.0</ele>
        <time>2022-11-13T13:11:33.000Z</time>
      </trkpt>
      <trkpt lat="37.29758167" lon="-3.52890833">
        <ele>1271.0</ele>
        <time>2022-11-13T13:11:34.000Z</time>
      </trkpt>
      <trkpt lat="37.29757333" lon="-3.528905">
        <ele>1271.0</ele>
        <time>2022-11-13T13:11:35.000Z</time>
      </trkpt>
      <trkpt lat="37.29756333" lon="-3.52890167">
        <ele>1271.0</ele>
        <time>2022-11-13T13:11:36.000Z</time>
      </trkpt>
      <trkpt lat="37.297555" lon="-3.52889833">
        <ele>1271.0</ele>
        <time>2022-11-13T13:11:37.000Z</time>
      </trkpt>
      <trkpt lat="37.297545" lon="-3.52889667">
        <ele>1272.0</ele>
        <time>2022-11-13T13:11:38.000Z</time>
      </trkpt>
      <trkpt lat="37.29753667" lon="-3.528895">
        <ele>1272.0</ele>
        <time>2022-11-13T13:11:39.000Z</time>
      </trkpt>
      <trkpt lat="37.29752667" lon="-3.52889167">
        <ele>1272.0</ele>
        <time>2022-11-13T13:11:40.000Z</time>
      </trkpt>
      <trkpt lat="37.29751667" lon="-3.52888833">
        <ele>1272.0</ele>
        <time>2022-11-13T13:11:41.000Z</time>
      </trkpt>
      <trkpt lat="37.29750667" lon="-3.52888333">
        <ele>1272.0</ele>
        <time>2022-11-13T13:11:42.000Z</time>
      </trkpt>
      <trkpt lat="37.29749833" lon="-3.52887833">
        <ele>1272.0</ele>
        <time>2022-11-13T13:11:43.000Z</time>
      </trkpt>
      <trkpt lat="37.29749" lon="-3.528875">
        <ele>1273.0</ele>
        <time>2022-11-13T13:11:44.000Z</time>
      </trkpt>
      <trkpt lat="37.29748" lon="-3.52887167">
        <ele>1273.0</ele>
        <time>2022-11-13T13:11:45.000Z</time>
      </trkpt>
      <trkpt lat="37.29747167" lon="-3.52887">
        <ele>1273.0</ele>
        <time>2022-11-13T13:11:46.000Z</time>
      </trkpt>
      <trkpt lat="37.29746333" lon="-3.52886667">
        <ele>1273.0</ele>
        <time>2022-11-13T13:11:47.000Z</time>
      </trkpt>
      <trkpt lat="37.297455" lon="-3.52886333">
        <ele>1273.0</ele>
        <time>2022-11-13T13:11:48.000Z</time>
      </trkpt>
      <trkpt lat="37.297445" lon="-3.52886167">
        <ele>1274.0</ele>
        <time>2022-11-13T13:11:49.000Z</time>
      </trkpt>
      <trkpt lat="37.297435" lon="-3.52885833">
        <ele>1274.0</ele>
        <time>2022-11-13T13:11:50.000Z</time>
      </trkpt>
      <trkpt lat="37.29742667" lon="-3.52885167">
        <ele>1274.0</ele>
        <time>2022-11-13T13:11:51.000Z</time>
      </trkpt>
      <trkpt lat="37.29741833" lon="-3.52884667">
        <ele>1274.0</ele>
        <time>2022-11-13T13:11:52.000Z</time>
      </trkpt>
      <trkpt lat="37.29740833" lon="-3.52884167">
        <ele>1274.0</ele>
        <time>2022-11-13T13:11:53.000Z</time>
      </trkpt>
      <trkpt lat="37.29739667" lon="-3.528835">
        <ele>1274.0</ele>
        <time>2022-11-13T13:11:54.000Z</time>
      </trkpt>
      <trkpt lat="37.29738833" lon="-3.52883">
        <ele>1274.0</ele>
        <time>2022-11-13T13:11:55.000Z</time>
      </trkpt>
      <trkpt lat="37.29738" lon="-3.52882167">
        <ele>1274.0</ele>
        <time>2022-11-13T13:11:56.000Z</time>
      </trkpt>
      <trkpt lat="37.29737333" lon="-3.528815">
        <ele>1274.0</ele>
        <time>2022-11-13T13:11:57.000Z</time>
      </trkpt>
      <trkpt lat="37.29736833" lon="-3.52880833">
        <ele>1274.0</ele>
        <time>2022-11-13T13:11:58.000Z</time>
      </trkpt>
      <trkpt lat="37.29736333" lon="-3.5288">
        <ele>1274.0</ele>
        <time>2022-11-13T13:11:59.000Z</time>
      </trkpt>
      <trkpt lat="37.29735667" lon="-3.52879167">
        <ele>1274.0</ele>
        <time>2022-11-13T13:12:00.000Z</time>
      </trkpt>
      <trkpt lat="37.29735167" lon="-3.52878333">
        <ele>1274.0</ele>
        <time>2022-11-13T13:12:01.000Z</time>
      </trkpt>
      <trkpt lat="37.29734667" lon="-3.528775">
        <ele>1274.0</ele>
        <time>2022-11-13T13:12:02.000Z</time>
      </trkpt>
      <trkpt lat="37.29734167" lon="-3.52876667">
        <ele>1274.0</ele>
        <time>2022-11-13T13:12:03.000Z</time>
      </trkpt>
      <trkpt lat="37.29733667" lon="-3.52875833">
        <ele>1275.0</ele>
        <time>2022-11-13T13:12:04.000Z</time>
      </trkpt>
      <trkpt lat="37.29733167" lon="-3.52875167">
        <ele>1275.0</ele>
        <time>2022-11-13T13:12:05.000Z</time>
      </trkpt>
      <trkpt lat="37.29732667" lon="-3.528745">
        <ele>1275.0</ele>
        <time>2022-11-13T13:12:06.000Z</time>
      </trkpt>
      <trkpt lat="37.29732167" lon="-3.52873833">
        <ele>1275.0</ele>
        <time>2022-11-13T13:12:07.000Z</time>
      </trkpt>
      <trkpt lat="37.29731667" lon="-3.52872833">
        <ele>1275.0</ele>
        <time>2022-11-13T13:12:08.000Z</time>
      </trkpt>
      <trkpt lat="37.29731333" lon="-3.52872">
        <ele>1275.0</ele>
        <time>2022-11-13T13:12:09.000Z</time>
      </trkpt>
      <trkpt lat="37.29730833" lon="-3.52871333">
        <ele>1275.0</ele>
        <time>2022-11-13T13:12:10.000Z</time>
      </trkpt>
      <trkpt lat="37.29730167" lon="-3.528705">
        <ele>1275.0</ele>
        <time>2022-11-13T13:12:11.000Z</time>
      </trkpt>
      <trkpt lat="37.29729667" lon="-3.52869833">
        <ele>1275.0</ele>
        <time>2022-11-13T13:12:12.000Z</time>
      </trkpt>
      <trkpt lat="37.29729167" lon="-3.52869167">
        <ele>1276.0</ele>
        <time>2022-11-13T13:12:13.000Z</time>
      </trkpt>
      <trkpt lat="37.297285" lon="-3.52868667">
        <ele>1276.0</ele>
        <time>2022-11-13T13:12:14.000Z</time>
      </trkpt>
      <trkpt lat="37.29727833" lon="-3.52868">
        <ele>1276.0</ele>
        <time>2022-11-13T13:12:15.000Z</time>
      </trkpt>
      <trkpt lat="37.29727333" lon="-3.52867167">
        <ele>1276.0</ele>
        <time>2022-11-13T13:12:16.000Z</time>
      </trkpt>
      <trkpt lat="37.29726667" lon="-3.528665">
        <ele>1276.0</ele>
        <time>2022-11-13T13:12:17.000Z</time>
      </trkpt>
      <trkpt lat="37.29726" lon="-3.52865833">
        <ele>1276.0</ele>
        <time>2022-11-13T13:12:18.000Z</time>
      </trkpt>
      <trkpt lat="37.297255" lon="-3.52865">
        <ele>1277.0</ele>
        <time>2022-11-13T13:12:19.000Z</time>
      </trkpt>
      <trkpt lat="37.29724667" lon="-3.52864167">
        <ele>1277.0</ele>
        <time>2022-11-13T13:12:20.000Z</time>
      </trkpt>
      <trkpt lat="37.29724167" lon="-3.52863333">
        <ele>1277.0</ele>
        <time>2022-11-13T13:12:21.000Z</time>
      </trkpt>
      <trkpt lat="37.297235" lon="-3.52862833">
        <ele>1277.0</ele>
        <time>2022-11-13T13:12:22.000Z</time>
      </trkpt>
      <trkpt lat="37.29722667" lon="-3.52862333">
        <ele>1277.0</ele>
        <time>2022-11-13T13:12:23.000Z</time>
      </trkpt>
      <trkpt lat="37.29722" lon="-3.52861833">
        <ele>1277.0</ele>
        <time>2022-11-13T13:12:24.000Z</time>
      </trkpt>
      <trkpt lat="37.29721167" lon="-3.528615">
        <ele>1277.0</ele>
        <time>2022-11-13T13:12:25.000Z</time>
      </trkpt>
      <trkpt lat="37.29720333" lon="-3.52861">
        <ele>1278.0</ele>
        <time>2022-11-13T13:12:26.000Z</time>
      </trkpt>
      <trkpt lat="37.29719667" lon="-3.52860833">
        <ele>1278.0</ele>
        <time>2022-11-13T13:12:27.000Z</time>
      </trkpt>
      <trkpt lat="37.29718833" lon="-3.528605">
        <ele>1278.0</ele>
        <time>2022-11-13T13:12:28.000Z</time>
      </trkpt>
      <trkpt lat="37.29718" lon="-3.5286">
        <ele>1278.0</ele>
        <time>2022-11-13T13:12:29.000Z</time>
      </trkpt>
      <trkpt lat="37.29717167" lon="-3.52859667">
        <ele>1278.0</ele>
        <time>2022-11-13T13:12:30.000Z</time>
      </trkpt>
      <trkpt lat="37.29716333" lon="-3.528595">
        <ele>1278.0</ele>
        <time>2022-11-13T13:12:31.000Z</time>
      </trkpt>
      <trkpt lat="37.29715667" lon="-3.52859333">
        <ele>1279.0</ele>
        <time>2022-11-13T13:12:32.000Z</time>
      </trkpt>
      <trkpt lat="37.29714833" lon="-3.52859167">
        <ele>1279.0</ele>
        <time>2022-11-13T13:12:33.000Z</time>
      </trkpt>
      <trkpt lat="37.29713833" lon="-3.52859">
        <ele>1279.0</ele>
        <time>2022-11-13T13:12:34.000Z</time>
      </trkpt>
      <trkpt lat="37.29712833" lon="-3.52859">
        <ele>1279.0</ele>
        <time>2022-11-13T13:12:35.000Z</time>
      </trkpt>
      <trkpt lat="37.29712167" lon="-3.52859">
        <ele>1279.0</ele>
        <time>2022-11-13T13:12:36.000Z</time>
      </trkpt>
      <trkpt lat="37.29711167" lon="-3.52859">
        <ele>1279.0</ele>
        <time>2022-11-13T13:12:37.000Z</time>
      </trkpt>
      <trkpt lat="37.297105" lon="-3.52859">
        <ele>1279.0</ele>
        <time>2022-11-13T13:12:38.000Z</time>
      </trkpt>
      <trkpt lat="37.29709833" lon="-3.52859167">
        <ele>1279.0</ele>
        <time>2022-11-13T13:12:39.000Z</time>
      </trkpt>
      <trkpt lat="37.29709" lon="-3.52859167">
        <ele>1279.0</ele>
        <time>2022-11-13T13:12:40.000Z</time>
      </trkpt>
      <trkpt lat="37.29708333" lon="-3.52859333">
        <ele>1279.0</ele>
        <time>2022-11-13T13:12:41.000Z</time>
      </trkpt>
      <trkpt lat="37.297075" lon="-3.528595">
        <ele>1280.0</ele>
        <time>2022-11-13T13:12:42.000Z</time>
      </trkpt>
      <trkpt lat="37.297065" lon="-3.52859833">
        <ele>1280.0</ele>
        <time>2022-11-13T13:12:43.000Z</time>
      </trkpt>
      <trkpt lat="37.29705667" lon="-3.52860167">
        <ele>1280.0</ele>
        <time>2022-11-13T13:12:44.000Z</time>
      </trkpt>
      <trkpt lat="37.29704833" lon="-3.52860833">
        <ele>1280.0</ele>
        <time>2022-11-13T13:12:45.000Z</time>
      </trkpt>
      <trkpt lat="37.29704" lon="-3.528615">
        <ele>1280.0</ele>
        <time>2022-11-13T13:12:46.000Z</time>
      </trkpt>
      <trkpt lat="37.29703167" lon="-3.52862333">
        <ele>1280.0</ele>
        <time>2022-11-13T13:12:47.000Z</time>
      </trkpt>
      <trkpt lat="37.29702333" lon="-3.52863167">
        <ele>1280.0</ele>
        <time>2022-11-13T13:12:48.000Z</time>
      </trkpt>
      <trkpt lat="37.297015" lon="-3.52864">
        <ele>1281.0</ele>
        <time>2022-11-13T13:12:49.000Z</time>
      </trkpt>
      <trkpt lat="37.29700833" lon="-3.52864667">
        <ele>1281.0</ele>
        <time>2022-11-13T13:12:50.000Z</time>
      </trkpt>
      <trkpt lat="37.297" lon="-3.528655">
        <ele>1281.0</ele>
        <time>2022-11-13T13:12:51.000Z</time>
      </trkpt>
      <trkpt lat="37.29699167" lon="-3.52866333">
        <ele>1281.0</ele>
        <time>2022-11-13T13:12:52.000Z</time>
      </trkpt>
      <trkpt lat="37.29698167" lon="-3.52867333">
        <ele>1281.0</ele>
        <time>2022-11-13T13:12:53.000Z</time>
      </trkpt>
      <trkpt lat="37.29697167" lon="-3.52868167">
        <ele>1281.0</ele>
        <time>2022-11-13T13:12:54.000Z</time>
      </trkpt>
      <trkpt lat="37.29696167" lon="-3.52868833">
        <ele>1282.0</ele>
        <time>2022-11-13T13:12:55.000Z</time>
      </trkpt>
      <trkpt lat="37.29695167" lon="-3.52869667">
        <ele>1282.0</ele>
        <time>2022-11-13T13:12:56.000Z</time>
      </trkpt>
      <trkpt lat="37.29694333" lon="-3.52870167">
        <ele>1282.0</ele>
        <time>2022-11-13T13:12:57.000Z</time>
      </trkpt>
      <trkpt lat="37.296935" lon="-3.52870667">
        <ele>1282.0</ele>
        <time>2022-11-13T13:12:58.000Z</time>
      </trkpt>
      <trkpt lat="37.29692833" lon="-3.52871">
        <ele>1282.0</ele>
        <time>2022-11-13T13:12:59.000Z</time>
      </trkpt>
      <trkpt lat="37.29692167" lon="-3.52871167">
        <ele>1282.0</ele>
        <time>2022-11-13T13:13:00.000Z</time>
      </trkpt>
      <trkpt lat="37.29691333" lon="-3.528715">
        <ele>1283.0</ele>
        <time>2022-11-13T13:13:01.000Z</time>
      </trkpt>
      <trkpt lat="37.296905" lon="-3.52871833">
        <ele>1283.0</ele>
        <time>2022-11-13T13:13:02.000Z</time>
      </trkpt>
      <trkpt lat="37.29689833" lon="-3.52872333">
        <ele>1283.0</ele>
        <time>2022-11-13T13:13:03.000Z</time>
      </trkpt>
      <trkpt lat="37.29689167" lon="-3.52872667">
        <ele>1283.0</ele>
        <time>2022-11-13T13:13:04.000Z</time>
      </trkpt>
      <trkpt lat="37.296885" lon="-3.52873333">
        <ele>1283.0</ele>
        <time>2022-11-13T13:13:05.000Z</time>
      </trkpt>
      <trkpt lat="37.29687667" lon="-3.52874">
        <ele>1283.0</ele>
        <time>2022-11-13T13:13:06.000Z</time>
      </trkpt>
      <trkpt lat="37.29686667" lon="-3.52875">
        <ele>1283.0</ele>
        <time>2022-11-13T13:13:07.000Z</time>
      </trkpt>
      <trkpt lat="37.29685833" lon="-3.52876">
        <ele>1284.0</ele>
        <time>2022-11-13T13:13:08.000Z</time>
      </trkpt>
      <trkpt lat="37.29685" lon="-3.52877">
        <ele>1284.0</ele>
        <time>2022-11-13T13:13:09.000Z</time>
      </trkpt>
      <trkpt lat="37.29684333" lon="-3.52878">
        <ele>1284.0</ele>
        <time>2022-11-13T13:13:10.000Z</time>
      </trkpt>
      <trkpt lat="37.29683167" lon="-3.52878667">
        <ele>1284.0</ele>
        <time>2022-11-13T13:13:11.000Z</time>
      </trkpt>
      <trkpt lat="37.29682333" lon="-3.52879333">
        <ele>1284.0</ele>
        <time>2022-11-13T13:13:12.000Z</time>
      </trkpt>
      <trkpt lat="37.296815" lon="-3.5288">
        <ele>1284.0</ele>
        <time>2022-11-13T13:13:13.000Z</time>
      </trkpt>
      <trkpt lat="37.29680667" lon="-3.52881">
        <ele>1284.0</ele>
        <time>2022-11-13T13:13:14.000Z</time>
      </trkpt>
      <trkpt lat="37.29679833" lon="-3.52881833">
        <ele>1284.0</ele>
        <time>2022-11-13T13:13:15.000Z</time>
      </trkpt>
      <trkpt lat="37.29679167" lon="-3.52882833">
        <ele>1284.0</ele>
        <time>2022-11-13T13:13:16.000Z</time>
      </trkpt>
      <trkpt lat="37.296785" lon="-3.52883667">
        <ele>1284.0</ele>
        <time>2022-11-13T13:13:17.000Z</time>
      </trkpt>
      <trkpt lat="37.29677667" lon="-3.52884333">
        <ele>1284.0</ele>
        <time>2022-11-13T13:13:18.000Z</time>
      </trkpt>
      <trkpt lat="37.29676833" lon="-3.52885167">
        <ele>1284.0</ele>
        <time>2022-11-13T13:13:19.000Z</time>
      </trkpt>
      <trkpt lat="37.29675667" lon="-3.52886333">
        <ele>1284.0</ele>
        <time>2022-11-13T13:13:20.000Z</time>
      </trkpt>
      <trkpt lat="37.29674833" lon="-3.528875">
        <ele>1284.0</ele>
        <time>2022-11-13T13:13:21.000Z</time>
      </trkpt>
      <trkpt lat="37.29674167" lon="-3.52888333">
        <ele>1284.0</ele>
        <time>2022-11-13T13:13:22.000Z</time>
      </trkpt>
      <trkpt lat="37.29673833" lon="-3.52889333">
        <ele>1284.0</ele>
        <time>2022-11-13T13:13:23.000Z</time>
      </trkpt>
      <trkpt lat="37.29673167" lon="-3.52890167">
        <ele>1284.0</ele>
        <time>2022-11-13T13:13:24.000Z</time>
      </trkpt>
      <trkpt lat="37.29672667" lon="-3.52891">
        <ele>1284.0</ele>
        <time>2022-11-13T13:13:25.000Z</time>
      </trkpt>
      <trkpt lat="37.29672" lon="-3.52891667">
        <ele>1285.0</ele>
        <time>2022-11-13T13:13:26.000Z</time>
      </trkpt>
      <trkpt lat="37.296715" lon="-3.52892333">
        <ele>1285.0</ele>
        <time>2022-11-13T13:13:27.000Z</time>
      </trkpt>
      <trkpt lat="37.29671" lon="-3.52892833">
        <ele>1285.0</ele>
        <time>2022-11-13T13:13:28.000Z</time>
      </trkpt>
      <trkpt lat="37.29670333" lon="-3.528935">
        <ele>1285.0</ele>
        <time>2022-11-13T13:13:29.000Z</time>
      </trkpt>
      <trkpt lat="37.29669833" lon="-3.52893833">
        <ele>1285.0</ele>
        <time>2022-11-13T13:13:30.000Z</time>
      </trkpt>
      <trkpt lat="37.29669333" lon="-3.52894333">
        <ele>1286.0</ele>
        <time>2022-11-13T13:13:31.000Z</time>
      </trkpt>
      <trkpt lat="37.29668833" lon="-3.52895">
        <ele>1286.0</ele>
        <time>2022-11-13T13:13:32.000Z</time>
      </trkpt>
      <trkpt lat="37.29668333" lon="-3.52895667">
        <ele>1286.0</ele>
        <time>2022-11-13T13:13:33.000Z</time>
      </trkpt>
      <trkpt lat="37.29667833" lon="-3.52896333">
        <ele>1286.0</ele>
        <time>2022-11-13T13:13:34.000Z</time>
      </trkpt>
      <trkpt lat="37.29667333" lon="-3.52896833">
        <ele>1286.0</ele>
        <time>2022-11-13T13:13:35.000Z</time>
      </trkpt>
      <trkpt lat="37.29666833" lon="-3.528975">
        <ele>1287.0</ele>
        <time>2022-11-13T13:13:36.000Z</time>
      </trkpt>
      <trkpt lat="37.29666333" lon="-3.52898">
        <ele>1287.0</ele>
        <time>2022-11-13T13:13:37.000Z</time>
      </trkpt>
      <trkpt lat="37.29665833" lon="-3.528985">
        <ele>1287.0</ele>
        <time>2022-11-13T13:13:38.000Z</time>
      </trkpt>
      <trkpt lat="37.296655" lon="-3.52899167">
        <ele>1287.0</ele>
        <time>2022-11-13T13:13:39.000Z</time>
      </trkpt>
      <trkpt lat="37.29665167" lon="-3.529">
        <ele>1288.0</ele>
        <time>2022-11-13T13:13:40.000Z</time>
      </trkpt>
      <trkpt lat="37.29664667" lon="-3.52900667">
        <ele>1288.0</ele>
        <time>2022-11-13T13:13:41.000Z</time>
      </trkpt>
      <trkpt lat="37.29664167" lon="-3.529015">
        <ele>1288.0</ele>
        <time>2022-11-13T13:13:42.000Z</time>
      </trkpt>
      <trkpt lat="37.29663667" lon="-3.52902167">
        <ele>1288.0</ele>
        <time>2022-11-13T13:13:43.000Z</time>
      </trkpt>
      <trkpt lat="37.29663" lon="-3.52902833">
        <ele>1288.0</ele>
        <time>2022-11-13T13:13:44.000Z</time>
      </trkpt>
      <trkpt lat="37.296625" lon="-3.529035">
        <ele>1289.0</ele>
        <time>2022-11-13T13:13:45.000Z</time>
      </trkpt>
      <trkpt lat="37.29662167" lon="-3.52904333">
        <ele>1289.0</ele>
        <time>2022-11-13T13:13:46.000Z</time>
      </trkpt>
      <trkpt lat="37.29661667" lon="-3.52905">
        <ele>1289.0</ele>
        <time>2022-11-13T13:13:47.000Z</time>
      </trkpt>
      <trkpt lat="37.296615" lon="-3.52905667">
        <ele>1289.0</ele>
        <time>2022-11-13T13:13:48.000Z</time>
      </trkpt>
      <trkpt lat="37.29661333" lon="-3.52906">
        <ele>1290.0</ele>
        <time>2022-11-13T13:13:49.000Z</time>
      </trkpt>
      <trkpt lat="37.29661167" lon="-3.52906">
        <ele>1290.0</ele>
        <time>2022-11-13T13:13:50.000Z</time>
      </trkpt>
      <trkpt lat="37.29660833" lon="-3.529065">
        <ele>1290.0</ele>
        <time>2022-11-13T13:13:51.000Z</time>
      </trkpt>
      <trkpt lat="37.296605" lon="-3.52906833">
        <ele>1290.0</ele>
        <time>2022-11-13T13:13:52.000Z</time>
      </trkpt>
      <trkpt lat="37.2966" lon="-3.52907333">
        <ele>1290.0</ele>
        <time>2022-11-13T13:13:53.000Z</time>
      </trkpt>
      <trkpt lat="37.29659667" lon="-3.52907833">
        <ele>1290.0</ele>
        <time>2022-11-13T13:13:54.000Z</time>
      </trkpt>
      <trkpt lat="37.29659167" lon="-3.52908167">
        <ele>1290.0</ele>
        <time>2022-11-13T13:13:55.000Z</time>
      </trkpt>
      <trkpt lat="37.296585" lon="-3.52908333">
        <ele>1290.0</ele>
        <time>2022-11-13T13:13:56.000Z</time>
      </trkpt>
      <trkpt lat="37.29657667" lon="-3.52908667">
        <ele>1291.0</ele>
        <time>2022-11-13T13:13:57.000Z</time>
      </trkpt>
      <trkpt lat="37.29656667" lon="-3.529085">
        <ele>1291.0</ele>
        <time>2022-11-13T13:13:58.000Z</time>
      </trkpt>
      <trkpt lat="37.29655667" lon="-3.52908">
        <ele>1291.0</ele>
        <time>2022-11-13T13:13:59.000Z</time>
      </trkpt>
      <trkpt lat="37.29654833" lon="-3.529075">
        <ele>1291.0</ele>
        <time>2022-11-13T13:14:00.000Z</time>
      </trkpt>
      <trkpt lat="37.29654" lon="-3.52907167">
        <ele>1291.0</ele>
        <time>2022-11-13T13:14:01.000Z</time>
      </trkpt>
      <trkpt lat="37.29653333" lon="-3.52906833">
        <ele>1291.0</ele>
        <time>2022-11-13T13:14:02.000Z</time>
      </trkpt>
      <trkpt lat="37.29652667" lon="-3.529065">
        <ele>1291.0</ele>
        <time>2022-11-13T13:14:03.000Z</time>
      </trkpt>
      <trkpt lat="37.29652" lon="-3.52906167">
        <ele>1292.0</ele>
        <time>2022-11-13T13:14:04.000Z</time>
      </trkpt>
      <trkpt lat="37.29651167" lon="-3.52905667">
        <ele>1292.0</ele>
        <time>2022-11-13T13:14:05.000Z</time>
      </trkpt>
      <trkpt lat="37.29650167" lon="-3.52905333">
        <ele>1292.0</ele>
        <time>2022-11-13T13:14:06.000Z</time>
      </trkpt>
      <trkpt lat="37.29649167" lon="-3.52904833">
        <ele>1292.0</ele>
        <time>2022-11-13T13:14:07.000Z</time>
      </trkpt>
      <trkpt lat="37.29648167" lon="-3.529045">
        <ele>1292.0</ele>
        <time>2022-11-13T13:14:08.000Z</time>
      </trkpt>
      <trkpt lat="37.29647333" lon="-3.52904167">
        <ele>1292.0</ele>
        <time>2022-11-13T13:14:09.000Z</time>
      </trkpt>
      <trkpt lat="37.296465" lon="-3.52903667">
        <ele>1292.0</ele>
        <time>2022-11-13T13:14:10.000Z</time>
      </trkpt>
      <trkpt lat="37.29645667" lon="-3.52903167">
        <ele>1292.0</ele>
        <time>2022-11-13T13:14:11.000Z</time>
      </trkpt>
      <trkpt lat="37.29644833" lon="-3.52902667">
        <ele>1292.0</ele>
        <time>2022-11-13T13:14:12.000Z</time>
      </trkpt>
      <trkpt lat="37.29644167" lon="-3.52902667">
        <ele>1293.0</ele>
        <time>2022-11-13T13:14:13.000Z</time>
      </trkpt>
      <trkpt lat="37.29643167" lon="-3.52902667">
        <ele>1293.0</ele>
        <time>2022-11-13T13:14:14.000Z</time>
      </trkpt>
      <trkpt lat="37.29642333" lon="-3.52902667">
        <ele>1293.0</ele>
        <time>2022-11-13T13:14:15.000Z</time>
      </trkpt>
      <trkpt lat="37.29641833" lon="-3.52902667">
        <ele>1293.0</ele>
        <time>2022-11-13T13:14:16.000Z</time>
      </trkpt>
      <trkpt lat="37.29641167" lon="-3.52902333">
        <ele>1293.0</ele>
        <time>2022-11-13T13:14:17.000Z</time>
      </trkpt>
      <trkpt lat="37.296405" lon="-3.52902167">
        <ele>1293.0</ele>
        <time>2022-11-13T13:14:18.000Z</time>
      </trkpt>
      <trkpt lat="37.29639833" lon="-3.52902167">
        <ele>1294.0</ele>
        <time>2022-11-13T13:14:19.000Z</time>
      </trkpt>
      <trkpt lat="37.29639333" lon="-3.52902333">
        <ele>1294.0</ele>
        <time>2022-11-13T13:14:20.000Z</time>
      </trkpt>
      <trkpt lat="37.29638667" lon="-3.52902167">
        <ele>1294.0</ele>
        <time>2022-11-13T13:14:21.000Z</time>
      </trkpt>
      <trkpt lat="37.29638" lon="-3.52902333">
        <ele>1294.0</ele>
        <time>2022-11-13T13:14:22.000Z</time>
      </trkpt>
      <trkpt lat="37.29637333" lon="-3.52902333">
        <ele>1295.0</ele>
        <time>2022-11-13T13:14:23.000Z</time>
      </trkpt>
      <trkpt lat="37.29636667" lon="-3.52902333">
        <ele>1295.0</ele>
        <time>2022-11-13T13:14:24.000Z</time>
      </trkpt>
      <trkpt lat="37.29635833" lon="-3.52902333">
        <ele>1295.0</ele>
        <time>2022-11-13T13:14:25.000Z</time>
      </trkpt>
      <trkpt lat="37.29635" lon="-3.52902333">
        <ele>1295.0</ele>
        <time>2022-11-13T13:14:26.000Z</time>
      </trkpt>
      <trkpt lat="37.29634333" lon="-3.52902333">
        <ele>1295.0</ele>
        <time>2022-11-13T13:14:27.000Z</time>
      </trkpt>
      <trkpt lat="37.296335" lon="-3.529025">
        <ele>1295.0</ele>
        <time>2022-11-13T13:14:28.000Z</time>
      </trkpt>
      <trkpt lat="37.29632833" lon="-3.52902667">
        <ele>1296.0</ele>
        <time>2022-11-13T13:14:29.000Z</time>
      </trkpt>
      <trkpt lat="37.29632" lon="-3.52902833">
        <ele>1296.0</ele>
        <time>2022-11-13T13:14:30.000Z</time>
      </trkpt>
      <trkpt lat="37.29631167" lon="-3.52903">
        <ele>1296.0</ele>
        <time>2022-11-13T13:14:31.000Z</time>
      </trkpt>
      <trkpt lat="37.29630167" lon="-3.52903">
        <ele>1296.0</ele>
        <time>2022-11-13T13:14:32.000Z</time>
      </trkpt>
      <trkpt lat="37.296295" lon="-3.52902667">
        <ele>1296.0</ele>
        <time>2022-11-13T13:14:33.000Z</time>
      </trkpt>
      <trkpt lat="37.29628667" lon="-3.52902667">
        <ele>1296.0</ele>
        <time>2022-11-13T13:14:34.000Z</time>
      </trkpt>
      <trkpt lat="37.29627833" lon="-3.529025">
        <ele>1296.0</ele>
        <time>2022-11-13T13:14:35.000Z</time>
      </trkpt>
      <trkpt lat="37.29627" lon="-3.529025">
        <ele>1297.0</ele>
        <time>2022-11-13T13:14:36.000Z</time>
      </trkpt>
      <trkpt lat="37.29626" lon="-3.52902333">
        <ele>1297.0</ele>
        <time>2022-11-13T13:14:37.000Z</time>
      </trkpt>
      <trkpt lat="37.29625" lon="-3.52902">
        <ele>1297.0</ele>
        <time>2022-11-13T13:14:38.000Z</time>
      </trkpt>
      <trkpt lat="37.29623833" lon="-3.52901833">
        <ele>1297.0</ele>
        <time>2022-11-13T13:14:39.000Z</time>
      </trkpt>
      <trkpt lat="37.29623" lon="-3.52901833">
        <ele>1297.0</ele>
        <time>2022-11-13T13:14:40.000Z</time>
      </trkpt>
      <trkpt lat="37.29622" lon="-3.529015">
        <ele>1297.0</ele>
        <time>2022-11-13T13:14:41.000Z</time>
      </trkpt>
      <trkpt lat="37.29621167" lon="-3.529015">
        <ele>1297.0</ele>
        <time>2022-11-13T13:14:42.000Z</time>
      </trkpt>
      <trkpt lat="37.29620333" lon="-3.52901167">
        <ele>1298.0</ele>
        <time>2022-11-13T13:14:43.000Z</time>
      </trkpt>
      <trkpt lat="37.296195" lon="-3.52901167">
        <ele>1298.0</ele>
        <time>2022-11-13T13:14:44.000Z</time>
      </trkpt>
      <trkpt lat="37.29618833" lon="-3.52901167">
        <ele>1298.0</ele>
        <time>2022-11-13T13:14:45.000Z</time>
      </trkpt>
      <trkpt lat="37.29618" lon="-3.52901">
        <ele>1298.0</ele>
        <time>2022-11-13T13:14:46.000Z</time>
      </trkpt>
      <trkpt lat="37.29617167" lon="-3.529005">
        <ele>1298.0</ele>
        <time>2022-11-13T13:14:47.000Z</time>
      </trkpt>
      <trkpt lat="37.29616333" lon="-3.52900333">
        <ele>1298.0</ele>
        <time>2022-11-13T13:14:48.000Z</time>
      </trkpt>
      <trkpt lat="37.29615667" lon="-3.529">
        <ele>1299.0</ele>
        <time>2022-11-13T13:14:49.000Z</time>
      </trkpt>
      <trkpt lat="37.29615" lon="-3.528995">
        <ele>1299.0</ele>
        <time>2022-11-13T13:14:50.000Z</time>
      </trkpt>
      <trkpt lat="37.29614167" lon="-3.52899">
        <ele>1299.0</ele>
        <time>2022-11-13T13:14:51.000Z</time>
      </trkpt>
      <trkpt lat="37.29613667" lon="-3.528985">
        <ele>1299.0</ele>
        <time>2022-11-13T13:14:52.000Z</time>
      </trkpt>
      <trkpt lat="37.29612833" lon="-3.52898">
        <ele>1299.0</ele>
        <time>2022-11-13T13:14:53.000Z</time>
      </trkpt>
      <trkpt lat="37.29612167" lon="-3.528975">
        <ele>1300.0</ele>
        <time>2022-11-13T13:14:54.000Z</time>
      </trkpt>
      <trkpt lat="37.29611667" lon="-3.52896833">
        <ele>1300.0</ele>
        <time>2022-11-13T13:14:55.000Z</time>
      </trkpt>
      <trkpt lat="37.29611167" lon="-3.52896333">
        <ele>1300.0</ele>
        <time>2022-11-13T13:14:56.000Z</time>
      </trkpt>
      <trkpt lat="37.296105" lon="-3.52895833">
        <ele>1300.0</ele>
        <time>2022-11-13T13:14:57.000Z</time>
      </trkpt>
      <trkpt lat="37.2961" lon="-3.52895333">
        <ele>1300.0</ele>
        <time>2022-11-13T13:14:58.000Z</time>
      </trkpt>
      <trkpt lat="37.29609333" lon="-3.52895">
        <ele>1300.0</ele>
        <time>2022-11-13T13:14:59.000Z</time>
      </trkpt>
      <trkpt lat="37.29608667" lon="-3.528945">
        <ele>1301.0</ele>
        <time>2022-11-13T13:15:00.000Z</time>
      </trkpt>
      <trkpt lat="37.29608" lon="-3.52894">
        <ele>1301.0</ele>
        <time>2022-11-13T13:15:01.000Z</time>
      </trkpt>
      <trkpt lat="37.29607167" lon="-3.52893667">
        <ele>1301.0</ele>
        <time>2022-11-13T13:15:02.000Z</time>
      </trkpt>
      <trkpt lat="37.296065" lon="-3.52893167">
        <ele>1301.0</ele>
        <time>2022-11-13T13:15:03.000Z</time>
      </trkpt>
      <trkpt lat="37.29606" lon="-3.528925">
        <ele>1301.0</ele>
        <time>2022-11-13T13:15:04.000Z</time>
      </trkpt>
      <trkpt lat="37.29605833" lon="-3.528915">
        <ele>1301.0</ele>
        <time>2022-11-13T13:15:05.000Z</time>
      </trkpt>
      <trkpt lat="37.29605667" lon="-3.528905">
        <ele>1301.0</ele>
        <time>2022-11-13T13:15:06.000Z</time>
      </trkpt>
      <trkpt lat="37.29605833" lon="-3.528895">
        <ele>1302.0</ele>
        <time>2022-11-13T13:15:07.000Z</time>
      </trkpt>
      <trkpt lat="37.29605833" lon="-3.52888667">
        <ele>1302.0</ele>
        <time>2022-11-13T13:15:08.000Z</time>
      </trkpt>
      <trkpt lat="37.29606" lon="-3.52888">
        <ele>1302.0</ele>
        <time>2022-11-13T13:15:09.000Z</time>
      </trkpt>
      <trkpt lat="37.29606" lon="-3.52887667">
        <ele>1302.0</ele>
        <time>2022-11-13T13:15:10.000Z</time>
      </trkpt>
      <trkpt lat="37.29605833" lon="-3.52888">
        <ele>1302.0</ele>
        <time>2022-11-13T13:15:11.000Z</time>
      </trkpt>
      <trkpt lat="37.29605667" lon="-3.52888833">
        <ele>1302.0</ele>
        <time>2022-11-13T13:15:12.000Z</time>
      </trkpt>
      <trkpt lat="37.29605333" lon="-3.52889833">
        <ele>1302.0</ele>
        <time>2022-11-13T13:15:13.000Z</time>
      </trkpt>
      <trkpt lat="37.29605" lon="-3.52890833">
        <ele>1302.0</ele>
        <time>2022-11-13T13:15:14.000Z</time>
      </trkpt>
      <trkpt lat="37.29604667" lon="-3.52891667">
        <ele>1302.0</ele>
        <time>2022-11-13T13:15:15.000Z</time>
      </trkpt>
      <trkpt lat="37.29604333" lon="-3.52892167">
        <ele>1302.0</ele>
        <time>2022-11-13T13:15:16.000Z</time>
      </trkpt>
      <trkpt lat="37.29604167" lon="-3.528925">
        <ele>1302.0</ele>
        <time>2022-11-13T13:15:17.000Z</time>
      </trkpt>
      <trkpt lat="37.29604333" lon="-3.528925">
        <ele>1302.0</ele>
        <time>2022-11-13T13:15:18.000Z</time>
      </trkpt>
      <trkpt lat="37.29604333" lon="-3.52892333">
        <ele>1302.0</ele>
        <time>2022-11-13T13:15:19.000Z</time>
      </trkpt>
      <trkpt lat="37.29604167" lon="-3.52892333">
        <ele>1302.0</ele>
        <time>2022-11-13T13:15:20.000Z</time>
      </trkpt>
      <trkpt lat="37.29604167" lon="-3.528925">
        <ele>1302.0</ele>
        <time>2022-11-13T13:15:21.000Z</time>
      </trkpt>
      <trkpt lat="37.29604167" lon="-3.52892667">
        <ele>1302.0</ele>
        <time>2022-11-13T13:15:22.000Z</time>
      </trkpt>
      <trkpt lat="37.29604333" lon="-3.52892833">
        <ele>1302.0</ele>
        <time>2022-11-13T13:15:23.000Z</time>
      </trkpt>
      <trkpt lat="37.29604333" lon="-3.52892833">
        <ele>1302.0</ele>
        <time>2022-11-13T13:15:24.000Z</time>
      </trkpt>
      <trkpt lat="37.29604333" lon="-3.52893">
        <ele>1302.0</ele>
        <time>2022-11-13T13:15:25.000Z</time>
      </trkpt>
      <trkpt lat="37.29604333" lon="-3.52893167">
        <ele>1302.0</ele>
        <time>2022-11-13T13:15:26.000Z</time>
      </trkpt>
      <trkpt lat="37.29604167" lon="-3.52893">
        <ele>1302.0</ele>
        <time>2022-11-13T13:15:27.000Z</time>
      </trkpt>
      <trkpt lat="37.29604333" lon="-3.52893167">
        <ele>1302.0</ele>
        <time>2022-11-13T13:15:28.000Z</time>
      </trkpt>
      <trkpt lat="37.29604333" lon="-3.52893167">
        <ele>1302.0</ele>
        <time>2022-11-13T13:15:29.000Z</time>
      </trkpt>
      <trkpt lat="37.29604333" lon="-3.52893333">
        <ele>1302.0</ele>
        <time>2022-11-13T13:15:30.000Z</time>
      </trkpt>
      <trkpt lat="37.29604333" lon="-3.52893333">
        <ele>1302.0</ele>
        <time>2022-11-13T13:15:31.000Z</time>
      </trkpt>
      <trkpt lat="37.29604333" lon="-3.52893333">
        <ele>1302.0</ele>
        <time>2022-11-13T13:15:32.000Z</time>
      </trkpt>
      <trkpt lat="37.29604167" lon="-3.528935">
        <ele>1302.0</ele>
        <time>2022-11-13T13:15:33.000Z</time>
      </trkpt>
      <trkpt lat="37.29604167" lon="-3.52894167">
        <ele>1303.0</ele>
        <time>2022-11-13T13:15:34.000Z</time>
      </trkpt>
      <trkpt lat="37.29603833" lon="-3.52895">
        <ele>1303.0</ele>
        <time>2022-11-13T13:15:35.000Z</time>
      </trkpt>
      <trkpt lat="37.296035" lon="-3.52895833">
        <ele>1303.0</ele>
        <time>2022-11-13T13:15:36.000Z</time>
      </trkpt>
      <trkpt lat="37.29603" lon="-3.52896833">
        <ele>1302.0</ele>
        <time>2022-11-13T13:15:37.000Z</time>
      </trkpt>
      <trkpt lat="37.296025" lon="-3.52898167">
        <ele>1302.0</ele>
        <time>2022-11-13T13:15:38.000Z</time>
      </trkpt>
      <trkpt lat="37.29602" lon="-3.52899333">
        <ele>1302.0</ele>
        <time>2022-11-13T13:15:39.000Z</time>
      </trkpt>
      <trkpt lat="37.29601667" lon="-3.52900333">
        <ele>1302.0</ele>
        <time>2022-11-13T13:15:40.000Z</time>
      </trkpt>
      <trkpt lat="37.29601333" lon="-3.52901333">
        <ele>1302.0</ele>
        <time>2022-11-13T13:15:41.000Z</time>
      </trkpt>
      <trkpt lat="37.29601" lon="-3.529025">
        <ele>1302.0</ele>
        <time>2022-11-13T13:15:42.000Z</time>
      </trkpt>
      <trkpt lat="37.29600667" lon="-3.52903833">
        <ele>1302.0</ele>
        <time>2022-11-13T13:15:43.000Z</time>
      </trkpt>
      <trkpt lat="37.29600333" lon="-3.52905167">
        <ele>1302.0</ele>
        <time>2022-11-13T13:15:44.000Z</time>
      </trkpt>
      <trkpt lat="37.296" lon="-3.529065">
        <ele>1302.0</ele>
        <time>2022-11-13T13:15:45.000Z</time>
      </trkpt>
      <trkpt lat="37.295995" lon="-3.52907833">
        <ele>1302.0</ele>
        <time>2022-11-13T13:15:46.000Z</time>
      </trkpt>
      <trkpt lat="37.29599" lon="-3.52908833">
        <ele>1302.0</ele>
        <time>2022-11-13T13:15:47.000Z</time>
      </trkpt>
      <trkpt lat="37.295985" lon="-3.52909833">
        <ele>1302.0</ele>
        <time>2022-11-13T13:15:48.000Z</time>
      </trkpt>
      <trkpt lat="37.29598167" lon="-3.52910667">
        <ele>1302.0</ele>
        <time>2022-11-13T13:15:49.000Z</time>
      </trkpt>
      <trkpt lat="37.29597667" lon="-3.52911667">
        <ele>1302.0</ele>
        <time>2022-11-13T13:15:50.000Z</time>
      </trkpt>
      <trkpt lat="37.29597333" lon="-3.52912667">
        <ele>1302.0</ele>
        <time>2022-11-13T13:15:51.000Z</time>
      </trkpt>
      <trkpt lat="37.29597167" lon="-3.52913333">
        <ele>1303.0</ele>
        <time>2022-11-13T13:15:52.000Z</time>
      </trkpt>
      <trkpt lat="37.29597167" lon="-3.52913333">
        <ele>1303.0</ele>
        <time>2022-11-13T13:15:53.000Z</time>
      </trkpt>
      <trkpt lat="37.29597167" lon="-3.52913333">
        <ele>1303.0</ele>
        <time>2022-11-13T13:15:54.000Z</time>
      </trkpt>
      <trkpt lat="37.29597" lon="-3.52913333">
        <ele>1303.0</ele>
        <time>2022-11-13T13:15:55.000Z</time>
      </trkpt>
      <trkpt lat="37.29596667" lon="-3.52913333">
        <ele>1303.0</ele>
        <time>2022-11-13T13:15:56.000Z</time>
      </trkpt>
      <trkpt lat="37.29596667" lon="-3.529135">
        <ele>1303.0</ele>
        <time>2022-11-13T13:15:57.000Z</time>
      </trkpt>
      <trkpt lat="37.29596833" lon="-3.529135">
        <ele>1303.0</ele>
        <time>2022-11-13T13:15:58.000Z</time>
      </trkpt>
      <trkpt lat="37.29596667" lon="-3.529135">
        <ele>1303.0</ele>
        <time>2022-11-13T13:15:59.000Z</time>
      </trkpt>
      <trkpt lat="37.29596667" lon="-3.529135">
        <ele>1303.0</ele>
        <time>2022-11-13T13:16:00.000Z</time>
      </trkpt>
      <trkpt lat="37.29596667" lon="-3.52913667">
        <ele>1303.0</ele>
        <time>2022-11-13T13:16:01.000Z</time>
      </trkpt>
      <trkpt lat="37.29596667" lon="-3.52913833">
        <ele>1303.0</ele>
        <time>2022-11-13T13:16:02.000Z</time>
      </trkpt>
      <trkpt lat="37.29596667" lon="-3.52913833">
        <ele>1303.0</ele>
        <time>2022-11-13T13:16:03.000Z</time>
      </trkpt>
      <trkpt lat="37.29596833" lon="-3.52913833">
        <ele>1303.0</ele>
        <time>2022-11-13T13:16:04.000Z</time>
      </trkpt>
      <trkpt lat="37.29597" lon="-3.52913833">
        <ele>1303.0</ele>
        <time>2022-11-13T13:16:05.000Z</time>
      </trkpt>
      <trkpt lat="37.29597" lon="-3.52913833">
        <ele>1303.0</ele>
        <time>2022-11-13T13:16:06.000Z</time>
      </trkpt>
      <trkpt lat="37.29597" lon="-3.52913833">
        <ele>1303.0</ele>
        <time>2022-11-13T13:16:07.000Z</time>
      </trkpt>
      <trkpt lat="37.29597" lon="-3.52913833">
        <ele>1303.0</ele>
        <time>2022-11-13T13:16:08.000Z</time>
      </trkpt>
      <trkpt lat="37.29597" lon="-3.52914167">
        <ele>1303.0</ele>
        <time>2022-11-13T13:16:09.000Z</time>
      </trkpt>
      <trkpt lat="37.29596833" lon="-3.52915">
        <ele>1303.0</ele>
        <time>2022-11-13T13:16:10.000Z</time>
      </trkpt>
      <trkpt lat="37.29596667" lon="-3.52916167">
        <ele>1303.0</ele>
        <time>2022-11-13T13:16:11.000Z</time>
      </trkpt>
      <trkpt lat="37.29596667" lon="-3.52917667">
        <ele>1303.0</ele>
        <time>2022-11-13T13:16:12.000Z</time>
      </trkpt>
      <trkpt lat="37.295965" lon="-3.52919">
        <ele>1303.0</ele>
        <time>2022-11-13T13:16:13.000Z</time>
      </trkpt>
      <trkpt lat="37.29596333" lon="-3.52920167">
        <ele>1303.0</ele>
        <time>2022-11-13T13:16:14.000Z</time>
      </trkpt>
      <trkpt lat="37.29596" lon="-3.52921">
        <ele>1303.0</ele>
        <time>2022-11-13T13:16:15.000Z</time>
      </trkpt>
      <trkpt lat="37.29595667" lon="-3.52922">
        <ele>1303.0</ele>
        <time>2022-11-13T13:16:16.000Z</time>
      </trkpt>
      <trkpt lat="37.29595" lon="-3.52922667">
        <ele>1303.0</ele>
        <time>2022-11-13T13:16:17.000Z</time>
      </trkpt>
      <trkpt lat="37.29594333" lon="-3.52923167">
        <ele>1303.0</ele>
        <time>2022-11-13T13:16:18.000Z</time>
      </trkpt>
      <trkpt lat="37.29593833" lon="-3.529235">
        <ele>1303.0</ele>
        <time>2022-11-13T13:16:19.000Z</time>
      </trkpt>
      <trkpt lat="37.29593833" lon="-3.529235">
        <ele>1303.0</ele>
        <time>2022-11-13T13:16:20.000Z</time>
      </trkpt>
      <trkpt lat="37.29594167" lon="-3.52923667">
        <ele>1303.0</ele>
        <time>2022-11-13T13:16:21.000Z</time>
      </trkpt>
      <trkpt lat="37.29594" lon="-3.52924">
        <ele>1303.0</ele>
        <time>2022-11-13T13:16:22.000Z</time>
      </trkpt>
      <trkpt lat="37.29594167" lon="-3.52924333">
        <ele>1303.0</ele>
        <time>2022-11-13T13:16:23.000Z</time>
      </trkpt>
      <trkpt lat="37.29594167" lon="-3.529245">
        <ele>1303.0</ele>
        <time>2022-11-13T13:16:24.000Z</time>
      </trkpt>
      <trkpt lat="37.29594167" lon="-3.529245">
        <ele>1303.0</ele>
        <time>2022-11-13T13:16:25.000Z</time>
      </trkpt>
      <trkpt lat="37.29594167" lon="-3.52924333">
        <ele>1303.0</ele>
        <time>2022-11-13T13:16:26.000Z</time>
      </trkpt>
      <trkpt lat="37.29594333" lon="-3.52924333">
        <ele>1303.0</ele>
        <time>2022-11-13T13:16:27.000Z</time>
      </trkpt>
      <trkpt lat="37.295945" lon="-3.529245">
        <ele>1303.0</ele>
        <time>2022-11-13T13:16:28.000Z</time>
      </trkpt>
      <trkpt lat="37.29595" lon="-3.529245">
        <ele>1303.0</ele>
        <time>2022-11-13T13:16:29.000Z</time>
      </trkpt>
      <trkpt lat="37.295955" lon="-3.52924333">
        <ele>1303.0</ele>
        <time>2022-11-13T13:16:30.000Z</time>
      </trkpt>
      <trkpt lat="37.29596333" lon="-3.529245">
        <ele>1303.0</ele>
        <time>2022-11-13T13:16:31.000Z</time>
      </trkpt>
      <trkpt lat="37.29597" lon="-3.52924833">
        <ele>1303.0</ele>
        <time>2022-11-13T13:16:32.000Z</time>
      </trkpt>
      <trkpt lat="37.29597667" lon="-3.52925167">
        <ele>1303.0</ele>
        <time>2022-11-13T13:16:33.000Z</time>
      </trkpt>
      <trkpt lat="37.295985" lon="-3.52925667">
        <ele>1303.0</ele>
        <time>2022-11-13T13:16:34.000Z</time>
      </trkpt>
      <trkpt lat="37.29599333" lon="-3.52926167">
        <ele>1303.0</ele>
        <time>2022-11-13T13:16:35.000Z</time>
      </trkpt>
      <trkpt lat="37.29600167" lon="-3.52926333">
        <ele>1303.0</ele>
        <time>2022-11-13T13:16:36.000Z</time>
      </trkpt>
      <trkpt lat="37.29601" lon="-3.529265">
        <ele>1303.0</ele>
        <time>2022-11-13T13:16:37.000Z</time>
      </trkpt>
      <trkpt lat="37.29602" lon="-3.52926667">
        <ele>1303.0</ele>
        <time>2022-11-13T13:16:38.000Z</time>
      </trkpt>
      <trkpt lat="37.29603" lon="-3.52927167">
        <ele>1302.0</ele>
        <time>2022-11-13T13:16:39.000Z</time>
      </trkpt>
      <trkpt lat="37.29604" lon="-3.52927833">
        <ele>1302.0</ele>
        <time>2022-11-13T13:16:40.000Z</time>
      </trkpt>
      <trkpt lat="37.29604833" lon="-3.529285">
        <ele>1302.0</ele>
        <time>2022-11-13T13:16:41.000Z</time>
      </trkpt>
      <trkpt lat="37.29605667" lon="-3.52929333">
        <ele>1302.0</ele>
        <time>2022-11-13T13:16:42.000Z</time>
      </trkpt>
      <trkpt lat="37.29606333" lon="-3.5293">
        <ele>1302.0</ele>
        <time>2022-11-13T13:16:43.000Z</time>
      </trkpt>
      <trkpt lat="37.29607333" lon="-3.52930167">
        <ele>1302.0</ele>
        <time>2022-11-13T13:16:44.000Z</time>
      </trkpt>
      <trkpt lat="37.296085" lon="-3.52930333">
        <ele>1301.0</ele>
        <time>2022-11-13T13:16:45.000Z</time>
      </trkpt>
      <trkpt lat="37.29609333" lon="-3.52930333">
        <ele>1301.0</ele>
        <time>2022-11-13T13:16:46.000Z</time>
      </trkpt>
      <trkpt lat="37.29610333" lon="-3.52930333">
        <ele>1301.0</ele>
        <time>2022-11-13T13:16:47.000Z</time>
      </trkpt>
      <trkpt lat="37.29611333" lon="-3.52930167">
        <ele>1301.0</ele>
        <time>2022-11-13T13:16:48.000Z</time>
      </trkpt>
      <trkpt lat="37.29612667" lon="-3.52930167">
        <ele>1301.0</ele>
        <time>2022-11-13T13:16:49.000Z</time>
      </trkpt>
      <trkpt lat="37.29613667" lon="-3.52930333">
        <ele>1301.0</ele>
        <time>2022-11-13T13:16:50.000Z</time>
      </trkpt>
      <trkpt lat="37.29614833" lon="-3.52930333">
        <ele>1300.0</ele>
        <time>2022-11-13T13:16:51.000Z</time>
      </trkpt>
      <trkpt lat="37.29616167" lon="-3.529305">
        <ele>1300.0</ele>
        <time>2022-11-13T13:16:52.000Z</time>
      </trkpt>
      <trkpt lat="37.29617333" lon="-3.529305">
        <ele>1300.0</ele>
        <time>2022-11-13T13:16:53.000Z</time>
      </trkpt>
      <trkpt lat="37.296185" lon="-3.52930833">
        <ele>1300.0</ele>
        <time>2022-11-13T13:16:54.000Z</time>
      </trkpt>
      <trkpt lat="37.296195" lon="-3.52931333">
        <ele>1300.0</ele>
        <time>2022-11-13T13:16:55.000Z</time>
      </trkpt>
      <trkpt lat="37.29620667" lon="-3.52931833">
        <ele>1299.0</ele>
        <time>2022-11-13T13:16:56.000Z</time>
      </trkpt>
      <trkpt lat="37.29621833" lon="-3.52932333">
        <ele>1299.0</ele>
        <time>2022-11-13T13:16:57.000Z</time>
      </trkpt>
      <trkpt lat="37.29622667" lon="-3.52933">
        <ele>1299.0</ele>
        <time>2022-11-13T13:16:58.000Z</time>
      </trkpt>
      <trkpt lat="37.296235" lon="-3.52933667">
        <ele>1299.0</ele>
        <time>2022-11-13T13:16:59.000Z</time>
      </trkpt>
      <trkpt lat="37.29624333" lon="-3.52934167">
        <ele>1299.0</ele>
        <time>2022-11-13T13:17:00.000Z</time>
      </trkpt>
      <trkpt lat="37.29625333" lon="-3.52934833">
        <ele>1298.0</ele>
        <time>2022-11-13T13:17:01.000Z</time>
      </trkpt>
      <trkpt lat="37.29626333" lon="-3.529355">
        <ele>1298.0</ele>
        <time>2022-11-13T13:17:02.000Z</time>
      </trkpt>
      <trkpt lat="37.29627333" lon="-3.52936333">
        <ele>1298.0</ele>
        <time>2022-11-13T13:17:03.000Z</time>
      </trkpt>
      <trkpt lat="37.296285" lon="-3.52937167">
        <ele>1298.0</ele>
        <time>2022-11-13T13:17:04.000Z</time>
      </trkpt>
      <trkpt lat="37.29629833" lon="-3.52937833">
        <ele>1298.0</ele>
        <time>2022-11-13T13:17:05.000Z</time>
      </trkpt>
      <trkpt lat="37.29631167" lon="-3.52938333">
        <ele>1297.0</ele>
        <time>2022-11-13T13:17:06.000Z</time>
      </trkpt>
      <trkpt lat="37.29632333" lon="-3.52938667">
        <ele>1297.0</ele>
        <time>2022-11-13T13:17:07.000Z</time>
      </trkpt>
      <trkpt lat="37.29633667" lon="-3.52938833">
        <ele>1297.0</ele>
        <time>2022-11-13T13:17:08.000Z</time>
      </trkpt>
      <trkpt lat="37.29634833" lon="-3.52939">
        <ele>1297.0</ele>
        <time>2022-11-13T13:17:09.000Z</time>
      </trkpt>
      <trkpt lat="37.29635833" lon="-3.52939333">
        <ele>1296.0</ele>
        <time>2022-11-13T13:17:10.000Z</time>
      </trkpt>
      <trkpt lat="37.29636667" lon="-3.52940167">
        <ele>1296.0</ele>
        <time>2022-11-13T13:17:11.000Z</time>
      </trkpt>
      <trkpt lat="37.29637333" lon="-3.529415">
        <ele>1296.0</ele>
        <time>2022-11-13T13:17:12.000Z</time>
      </trkpt>
      <trkpt lat="37.29637833" lon="-3.529425">
        <ele>1296.0</ele>
        <time>2022-11-13T13:17:13.000Z</time>
      </trkpt>
      <trkpt lat="37.29637833" lon="-3.52943333">
        <ele>1296.0</ele>
        <time>2022-11-13T13:17:14.000Z</time>
      </trkpt>
      <trkpt lat="37.29637833" lon="-3.529445">
        <ele>1295.0</ele>
        <time>2022-11-13T13:17:15.000Z</time>
      </trkpt>
      <trkpt lat="37.29637667" lon="-3.52945667">
        <ele>1295.0</ele>
        <time>2022-11-13T13:17:16.000Z</time>
      </trkpt>
      <trkpt lat="37.29637333" lon="-3.52946833">
        <ele>1295.0</ele>
        <time>2022-11-13T13:17:17.000Z</time>
      </trkpt>
      <trkpt lat="37.29636667" lon="-3.52948">
        <ele>1295.0</ele>
        <time>2022-11-13T13:17:18.000Z</time>
      </trkpt>
      <trkpt lat="37.29636167" lon="-3.52949">
        <ele>1294.0</ele>
        <time>2022-11-13T13:17:19.000Z</time>
      </trkpt>
      <trkpt lat="37.296355" lon="-3.52950167">
        <ele>1294.0</ele>
        <time>2022-11-13T13:17:20.000Z</time>
      </trkpt>
      <trkpt lat="37.29634833" lon="-3.52951333">
        <ele>1294.0</ele>
        <time>2022-11-13T13:17:21.000Z</time>
      </trkpt>
      <trkpt lat="37.29634" lon="-3.52952167">
        <ele>1294.0</ele>
        <time>2022-11-13T13:17:22.000Z</time>
      </trkpt>
      <trkpt lat="37.29633167" lon="-3.52953">
        <ele>1294.0</ele>
        <time>2022-11-13T13:17:23.000Z</time>
      </trkpt>
      <trkpt lat="37.29632" lon="-3.529535">
        <ele>1293.0</ele>
        <time>2022-11-13T13:17:24.000Z</time>
      </trkpt>
      <trkpt lat="37.29631" lon="-3.52954167">
        <ele>1293.0</ele>
        <time>2022-11-13T13:17:25.000Z</time>
      </trkpt>
      <trkpt lat="37.29629667" lon="-3.529545">
        <ele>1293.0</ele>
        <time>2022-11-13T13:17:26.000Z</time>
      </trkpt>
      <trkpt lat="37.296285" lon="-3.52954833">
        <ele>1293.0</ele>
        <time>2022-11-13T13:17:27.000Z</time>
      </trkpt>
      <trkpt lat="37.296275" lon="-3.52954833">
        <ele>1293.0</ele>
        <time>2022-11-13T13:17:28.000Z</time>
      </trkpt>
      <trkpt lat="37.29626333" lon="-3.52954833">
        <ele>1293.0</ele>
        <time>2022-11-13T13:17:29.000Z</time>
      </trkpt>
      <trkpt lat="37.29625167" lon="-3.52954833">
        <ele>1293.0</ele>
        <time>2022-11-13T13:17:30.000Z</time>
      </trkpt>
      <trkpt lat="37.29624167" lon="-3.52955">
        <ele>1293.0</ele>
        <time>2022-11-13T13:17:31.000Z</time>
      </trkpt>
      <trkpt lat="37.29623" lon="-3.52955">
        <ele>1293.0</ele>
        <time>2022-11-13T13:17:32.000Z</time>
      </trkpt>
      <trkpt lat="37.29621833" lon="-3.52955333">
        <ele>1293.0</ele>
        <time>2022-11-13T13:17:33.000Z</time>
      </trkpt>
      <trkpt lat="37.29621" lon="-3.52955833">
        <ele>1293.0</ele>
        <time>2022-11-13T13:17:34.000Z</time>
      </trkpt>
      <trkpt lat="37.2962" lon="-3.52956167">
        <ele>1293.0</ele>
        <time>2022-11-13T13:17:35.000Z</time>
      </trkpt>
      <trkpt lat="37.29619333" lon="-3.529565">
        <ele>1293.0</ele>
        <time>2022-11-13T13:17:36.000Z</time>
      </trkpt>
      <trkpt lat="37.29618667" lon="-3.52957">
        <ele>1293.0</ele>
        <time>2022-11-13T13:17:37.000Z</time>
      </trkpt>
      <trkpt lat="37.29618167" lon="-3.52957333">
        <ele>1293.0</ele>
        <time>2022-11-13T13:17:38.000Z</time>
      </trkpt>
      <trkpt lat="37.296175" lon="-3.52957833">
        <ele>1293.0</ele>
        <time>2022-11-13T13:17:39.000Z</time>
      </trkpt>
      <trkpt lat="37.29616667" lon="-3.52958">
        <ele>1293.0</ele>
        <time>2022-11-13T13:17:40.000Z</time>
      </trkpt>
      <trkpt lat="37.29616" lon="-3.52958333">
        <ele>1293.0</ele>
        <time>2022-11-13T13:17:41.000Z</time>
      </trkpt>
      <trkpt lat="37.29615167" lon="-3.52958833">
        <ele>1293.0</ele>
        <time>2022-11-13T13:17:42.000Z</time>
      </trkpt>
      <trkpt lat="37.29614167" lon="-3.52959333">
        <ele>1292.0</ele>
        <time>2022-11-13T13:17:43.000Z</time>
      </trkpt>
      <trkpt lat="37.29613333" lon="-3.52959833">
        <ele>1292.0</ele>
        <time>2022-11-13T13:17:44.000Z</time>
      </trkpt>
      <trkpt lat="37.296125" lon="-3.529605">
        <ele>1292.0</ele>
        <time>2022-11-13T13:17:45.000Z</time>
      </trkpt>
      <trkpt lat="37.29611667" lon="-3.52961167">
        <ele>1292.0</ele>
        <time>2022-11-13T13:17:46.000Z</time>
      </trkpt>
      <trkpt lat="37.29611" lon="-3.52962167">
        <ele>1292.0</ele>
        <time>2022-11-13T13:17:47.000Z</time>
      </trkpt>
      <trkpt lat="37.296105" lon="-3.52963167">
        <ele>1292.0</ele>
        <time>2022-11-13T13:17:48.000Z</time>
      </trkpt>
      <trkpt lat="37.29609833" lon="-3.52964">
        <ele>1292.0</ele>
        <time>2022-11-13T13:17:49.000Z</time>
      </trkpt>
      <trkpt lat="37.29609167" lon="-3.52964833">
        <ele>1293.0</ele>
        <time>2022-11-13T13:17:50.000Z</time>
      </trkpt>
      <trkpt lat="37.296085" lon="-3.52965833">
        <ele>1293.0</ele>
        <time>2022-11-13T13:17:51.000Z</time>
      </trkpt>
      <trkpt lat="37.29608167" lon="-3.52966333">
        <ele>1292.0</ele>
        <time>2022-11-13T13:17:52.000Z</time>
      </trkpt>
      <trkpt lat="37.29608" lon="-3.52966333">
        <ele>1293.0</ele>
        <time>2022-11-13T13:17:53.000Z</time>
      </trkpt>
      <trkpt lat="37.29608" lon="-3.529665">
        <ele>1293.0</ele>
        <time>2022-11-13T13:17:54.000Z</time>
      </trkpt>
      <trkpt lat="37.29607833" lon="-3.52966667">
        <ele>1292.0</ele>
        <time>2022-11-13T13:17:55.000Z</time>
      </trkpt>
      <trkpt lat="37.29607833" lon="-3.52966667">
        <ele>1292.0</ele>
        <time>2022-11-13T13:17:56.000Z</time>
      </trkpt>
      <trkpt lat="37.29607833" lon="-3.52966833">
        <ele>1292.0</ele>
        <time>2022-11-13T13:17:57.000Z</time>
      </trkpt>
      <trkpt lat="37.29607833" lon="-3.52966833">
        <ele>1292.0</ele>
        <time>2022-11-13T13:17:58.000Z</time>
      </trkpt>
      <trkpt lat="37.29607667" lon="-3.52967">
        <ele>1292.0</ele>
        <time>2022-11-13T13:17:59.000Z</time>
      </trkpt>
      <trkpt lat="37.29607667" lon="-3.52967">
        <ele>1292.0</ele>
        <time>2022-11-13T13:18:00.000Z</time>
      </trkpt>
      <trkpt lat="37.29607667" lon="-3.52967167">
        <ele>1292.0</ele>
        <time>2022-11-13T13:18:01.000Z</time>
      </trkpt>
      <trkpt lat="37.296075" lon="-3.52967">
        <ele>1292.0</ele>
        <time>2022-11-13T13:18:02.000Z</time>
      </trkpt>
      <trkpt lat="37.296075" lon="-3.52967">
        <ele>1292.0</ele>
        <time>2022-11-13T13:18:03.000Z</time>
      </trkpt>
      <trkpt lat="37.29607333" lon="-3.52967">
        <ele>1292.0</ele>
        <time>2022-11-13T13:18:04.000Z</time>
      </trkpt>
      <trkpt lat="37.29607333" lon="-3.52967">
        <ele>1292.0</ele>
        <time>2022-11-13T13:18:05.000Z</time>
      </trkpt>
      <trkpt lat="37.29607333" lon="-3.52967167">
        <ele>1292.0</ele>
        <time>2022-11-13T13:18:06.000Z</time>
      </trkpt>
      <trkpt lat="37.29607333" lon="-3.52967167">
        <ele>1292.0</ele>
        <time>2022-11-13T13:18:07.000Z</time>
      </trkpt>
      <trkpt lat="37.296075" lon="-3.52967167">
        <ele>1292.0</ele>
        <time>2022-11-13T13:18:08.000Z</time>
      </trkpt>
      <trkpt lat="37.296075" lon="-3.52967167">
        <ele>1292.0</ele>
        <time>2022-11-13T13:18:09.000Z</time>
      </trkpt>
      <trkpt lat="37.296075" lon="-3.52967167">
        <ele>1292.0</ele>
        <time>2022-11-13T13:18:10.000Z</time>
      </trkpt>
      <trkpt lat="37.296075" lon="-3.52967333">
        <ele>1292.0</ele>
        <time>2022-11-13T13:18:11.000Z</time>
      </trkpt>
      <trkpt lat="37.29607667" lon="-3.52967333">
        <ele>1292.0</ele>
        <time>2022-11-13T13:18:12.000Z</time>
      </trkpt>
      <trkpt lat="37.29607667" lon="-3.52967333">
        <ele>1292.0</ele>
        <time>2022-11-13T13:18:13.000Z</time>
      </trkpt>
      <trkpt lat="37.29607833" lon="-3.529675">
        <ele>1292.0</ele>
        <time>2022-11-13T13:18:14.000Z</time>
      </trkpt>
      <trkpt lat="37.29607667" lon="-3.52967833">
        <ele>1292.0</ele>
        <time>2022-11-13T13:18:15.000Z</time>
      </trkpt>
      <trkpt lat="37.296075" lon="-3.52968667">
        <ele>1292.0</ele>
        <time>2022-11-13T13:18:16.000Z</time>
      </trkpt>
      <trkpt lat="37.29607167" lon="-3.52969667">
        <ele>1292.0</ele>
        <time>2022-11-13T13:18:17.000Z</time>
      </trkpt>
      <trkpt lat="37.29606833" lon="-3.52970667">
        <ele>1292.0</ele>
        <time>2022-11-13T13:18:18.000Z</time>
      </trkpt>
      <trkpt lat="37.29606333" lon="-3.52971667">
        <ele>1292.0</ele>
        <time>2022-11-13T13:18:19.000Z</time>
      </trkpt>
      <trkpt lat="37.29606" lon="-3.529725">
        <ele>1292.0</ele>
        <time>2022-11-13T13:18:20.000Z</time>
      </trkpt>
      <trkpt lat="37.29605333" lon="-3.52973167">
        <ele>1292.0</ele>
        <time>2022-11-13T13:18:21.000Z</time>
      </trkpt>
      <trkpt lat="37.29604833" lon="-3.52974">
        <ele>1292.0</ele>
        <time>2022-11-13T13:18:22.000Z</time>
      </trkpt>
      <trkpt lat="37.296045" lon="-3.52974833">
        <ele>1292.0</ele>
        <time>2022-11-13T13:18:23.000Z</time>
      </trkpt>
      <trkpt lat="37.29604" lon="-3.529755">
        <ele>1292.0</ele>
        <time>2022-11-13T13:18:24.000Z</time>
      </trkpt>
      <trkpt lat="37.29603667" lon="-3.529765">
        <ele>1292.0</ele>
        <time>2022-11-13T13:18:25.000Z</time>
      </trkpt>
      <trkpt lat="37.29603333" lon="-3.529775">
        <ele>1292.0</ele>
        <time>2022-11-13T13:18:26.000Z</time>
      </trkpt>
      <trkpt lat="37.29603" lon="-3.52978333">
        <ele>1292.0</ele>
        <time>2022-11-13T13:18:27.000Z</time>
      </trkpt>
      <trkpt lat="37.29602667" lon="-3.52979333">
        <ele>1292.0</ele>
        <time>2022-11-13T13:18:28.000Z</time>
      </trkpt>
      <trkpt lat="37.29602167" lon="-3.52980333">
        <ele>1292.0</ele>
        <time>2022-11-13T13:18:29.000Z</time>
      </trkpt>
      <trkpt lat="37.29601833" lon="-3.529815">
        <ele>1292.0</ele>
        <time>2022-11-13T13:18:30.000Z</time>
      </trkpt>
      <trkpt lat="37.296015" lon="-3.52982333">
        <ele>1293.0</ele>
        <time>2022-11-13T13:18:31.000Z</time>
      </trkpt>
      <trkpt lat="37.29601333" lon="-3.529835">
        <ele>1293.0</ele>
        <time>2022-11-13T13:18:32.000Z</time>
      </trkpt>
      <trkpt lat="37.29601" lon="-3.52984833">
        <ele>1293.0</ele>
        <time>2022-11-13T13:18:33.000Z</time>
      </trkpt>
      <trkpt lat="37.29600667" lon="-3.52986">
        <ele>1293.0</ele>
        <time>2022-11-13T13:18:34.000Z</time>
      </trkpt>
      <trkpt lat="37.29600333" lon="-3.52986833">
        <ele>1293.0</ele>
        <time>2022-11-13T13:18:35.000Z</time>
      </trkpt>
      <trkpt lat="37.29600167" lon="-3.52988">
        <ele>1293.0</ele>
        <time>2022-11-13T13:18:36.000Z</time>
      </trkpt>
      <trkpt lat="37.296" lon="-3.52989">
        <ele>1293.0</ele>
        <time>2022-11-13T13:18:37.000Z</time>
      </trkpt>
      <trkpt lat="37.29599833" lon="-3.52990333">
        <ele>1294.0</ele>
        <time>2022-11-13T13:18:38.000Z</time>
      </trkpt>
      <trkpt lat="37.29599667" lon="-3.52991667">
        <ele>1294.0</ele>
        <time>2022-11-13T13:18:39.000Z</time>
      </trkpt>
      <trkpt lat="37.295995" lon="-3.52993">
        <ele>1294.0</ele>
        <time>2022-11-13T13:18:40.000Z</time>
      </trkpt>
      <trkpt lat="37.29599333" lon="-3.52994">
        <ele>1294.0</ele>
        <time>2022-11-13T13:18:41.000Z</time>
      </trkpt>
      <trkpt lat="37.29599" lon="-3.529955">
        <ele>1294.0</ele>
        <time>2022-11-13T13:18:42.000Z</time>
      </trkpt>
      <trkpt lat="37.29598833" lon="-3.52996833">
        <ele>1294.0</ele>
        <time>2022-11-13T13:18:43.000Z</time>
      </trkpt>
      <trkpt lat="37.29598667" lon="-3.52998">
        <ele>1294.0</ele>
        <time>2022-11-13T13:18:44.000Z</time>
      </trkpt>
      <trkpt lat="37.295985" lon="-3.52999333">
        <ele>1294.0</ele>
        <time>2022-11-13T13:18:45.000Z</time>
      </trkpt>
      <trkpt lat="37.295985" lon="-3.53000333">
        <ele>1295.0</ele>
        <time>2022-11-13T13:18:46.000Z</time>
      </trkpt>
      <trkpt lat="37.295985" lon="-3.53001167">
        <ele>1295.0</ele>
        <time>2022-11-13T13:18:47.000Z</time>
      </trkpt>
      <trkpt lat="37.295985" lon="-3.530015">
        <ele>1295.0</ele>
        <time>2022-11-13T13:18:48.000Z</time>
      </trkpt>
      <trkpt lat="37.295985" lon="-3.53001833">
        <ele>1295.0</ele>
        <time>2022-11-13T13:18:49.000Z</time>
      </trkpt>
      <trkpt lat="37.29598333" lon="-3.53003">
        <ele>1295.0</ele>
        <time>2022-11-13T13:18:50.000Z</time>
      </trkpt>
      <trkpt lat="37.29598167" lon="-3.53004333">
        <ele>1295.0</ele>
        <time>2022-11-13T13:18:51.000Z</time>
      </trkpt>
      <trkpt lat="37.29598" lon="-3.53005667">
        <ele>1295.0</ele>
        <time>2022-11-13T13:18:52.000Z</time>
      </trkpt>
      <trkpt lat="37.29598" lon="-3.53007">
        <ele>1295.0</ele>
        <time>2022-11-13T13:18:53.000Z</time>
      </trkpt>
      <trkpt lat="37.29597667" lon="-3.53008333">
        <ele>1295.0</ele>
        <time>2022-11-13T13:18:54.000Z</time>
      </trkpt>
      <trkpt lat="37.29597333" lon="-3.53009667">
        <ele>1295.0</ele>
        <time>2022-11-13T13:18:55.000Z</time>
      </trkpt>
      <trkpt lat="37.29597167" lon="-3.53011">
        <ele>1295.0</ele>
        <time>2022-11-13T13:18:56.000Z</time>
      </trkpt>
      <trkpt lat="37.29597" lon="-3.53012333">
        <ele>1295.0</ele>
        <time>2022-11-13T13:18:57.000Z</time>
      </trkpt>
      <trkpt lat="37.29596667" lon="-3.53013667">
        <ele>1295.0</ele>
        <time>2022-11-13T13:18:58.000Z</time>
      </trkpt>
      <trkpt lat="37.29596333" lon="-3.53014833">
        <ele>1295.0</ele>
        <time>2022-11-13T13:18:59.000Z</time>
      </trkpt>
      <trkpt lat="37.29596" lon="-3.53016167">
        <ele>1295.0</ele>
        <time>2022-11-13T13:19:00.000Z</time>
      </trkpt>
      <trkpt lat="37.29595667" lon="-3.53017333">
        <ele>1295.0</ele>
        <time>2022-11-13T13:19:01.000Z</time>
      </trkpt>
      <trkpt lat="37.29595333" lon="-3.530185">
        <ele>1295.0</ele>
        <time>2022-11-13T13:19:02.000Z</time>
      </trkpt>
      <trkpt lat="37.29595" lon="-3.53019667">
        <ele>1295.0</ele>
        <time>2022-11-13T13:19:03.000Z</time>
      </trkpt>
      <trkpt lat="37.295945" lon="-3.53020833">
        <ele>1295.0</ele>
        <time>2022-11-13T13:19:04.000Z</time>
      </trkpt>
      <trkpt lat="37.29594167" lon="-3.53021667">
        <ele>1295.0</ele>
        <time>2022-11-13T13:19:05.000Z</time>
      </trkpt>
      <trkpt lat="37.29593667" lon="-3.53023">
        <ele>1295.0</ele>
        <time>2022-11-13T13:19:06.000Z</time>
      </trkpt>
      <trkpt lat="37.29593167" lon="-3.53024167">
        <ele>1295.0</ele>
        <time>2022-11-13T13:19:07.000Z</time>
      </trkpt>
      <trkpt lat="37.29592667" lon="-3.53025333">
        <ele>1295.0</ele>
        <time>2022-11-13T13:19:08.000Z</time>
      </trkpt>
      <trkpt lat="37.29592333" lon="-3.530265">
        <ele>1295.0</ele>
        <time>2022-11-13T13:19:09.000Z</time>
      </trkpt>
      <trkpt lat="37.29591833" lon="-3.530275">
        <ele>1295.0</ele>
        <time>2022-11-13T13:19:10.000Z</time>
      </trkpt>
      <trkpt lat="37.295915" lon="-3.53028667">
        <ele>1295.0</ele>
        <time>2022-11-13T13:19:11.000Z</time>
      </trkpt>
      <trkpt lat="37.29591167" lon="-3.53029833">
        <ele>1295.0</ele>
        <time>2022-11-13T13:19:12.000Z</time>
      </trkpt>
      <trkpt lat="37.29590667" lon="-3.53031167">
        <ele>1295.0</ele>
        <time>2022-11-13T13:19:13.000Z</time>
      </trkpt>
      <trkpt lat="37.29590167" lon="-3.53032333">
        <ele>1295.0</ele>
        <time>2022-11-13T13:19:14.000Z</time>
      </trkpt>
      <trkpt lat="37.295895" lon="-3.530335">
        <ele>1295.0</ele>
        <time>2022-11-13T13:19:15.000Z</time>
      </trkpt>
      <trkpt lat="37.29589167" lon="-3.53034833">
        <ele>1295.0</ele>
        <time>2022-11-13T13:19:16.000Z</time>
      </trkpt>
      <trkpt lat="37.29588667" lon="-3.53036">
        <ele>1295.0</ele>
        <time>2022-11-13T13:19:17.000Z</time>
      </trkpt>
      <trkpt lat="37.29588" lon="-3.53037333">
        <ele>1295.0</ele>
        <time>2022-11-13T13:19:18.000Z</time>
      </trkpt>
      <trkpt lat="37.29587667" lon="-3.53038667">
        <ele>1295.0</ele>
        <time>2022-11-13T13:19:19.000Z</time>
      </trkpt>
      <trkpt lat="37.29587167" lon="-3.53040167">
        <ele>1294.0</ele>
        <time>2022-11-13T13:19:20.000Z</time>
      </trkpt>
      <trkpt lat="37.29586667" lon="-3.53041833">
        <ele>1294.0</ele>
        <time>2022-11-13T13:19:21.000Z</time>
      </trkpt>
      <trkpt lat="37.29586333" lon="-3.53043333">
        <ele>1294.0</ele>
        <time>2022-11-13T13:19:22.000Z</time>
      </trkpt>
      <trkpt lat="37.29586" lon="-3.53045">
        <ele>1294.0</ele>
        <time>2022-11-13T13:19:23.000Z</time>
      </trkpt>
      <trkpt lat="37.29585333" lon="-3.53046667">
        <ele>1294.0</ele>
        <time>2022-11-13T13:19:24.000Z</time>
      </trkpt>
      <trkpt lat="37.29584833" lon="-3.53048">
        <ele>1294.0</ele>
        <time>2022-11-13T13:19:25.000Z</time>
      </trkpt>
      <trkpt lat="37.29584333" lon="-3.530495">
        <ele>1294.0</ele>
        <time>2022-11-13T13:19:26.000Z</time>
      </trkpt>
      <trkpt lat="37.29583833" lon="-3.53051">
        <ele>1294.0</ele>
        <time>2022-11-13T13:19:27.000Z</time>
      </trkpt>
      <trkpt lat="37.29583333" lon="-3.53052667">
        <ele>1294.0</ele>
        <time>2022-11-13T13:19:28.000Z</time>
      </trkpt>
      <trkpt lat="37.29583" lon="-3.53054167">
        <ele>1294.0</ele>
        <time>2022-11-13T13:19:29.000Z</time>
      </trkpt>
      <trkpt lat="37.295825" lon="-3.53055667">
        <ele>1295.0</ele>
        <time>2022-11-13T13:19:30.000Z</time>
      </trkpt>
      <trkpt lat="37.29581833" lon="-3.53057167">
        <ele>1295.0</ele>
        <time>2022-11-13T13:19:31.000Z</time>
      </trkpt>
      <trkpt lat="37.29581333" lon="-3.53058667">
        <ele>1295.0</ele>
        <time>2022-11-13T13:19:32.000Z</time>
      </trkpt>
      <trkpt lat="37.29580667" lon="-3.5306">
        <ele>1295.0</ele>
        <time>2022-11-13T13:19:33.000Z</time>
      </trkpt>
      <trkpt lat="37.2958" lon="-3.530615">
        <ele>1295.0</ele>
        <time>2022-11-13T13:19:34.000Z</time>
      </trkpt>
      <trkpt lat="37.295795" lon="-3.53063">
        <ele>1295.0</ele>
        <time>2022-11-13T13:19:35.000Z</time>
      </trkpt>
      <trkpt lat="37.29579" lon="-3.53064167">
        <ele>1295.0</ele>
        <time>2022-11-13T13:19:36.000Z</time>
      </trkpt>
      <trkpt lat="37.29578167" lon="-3.53065333">
        <ele>1295.0</ele>
        <time>2022-11-13T13:19:37.000Z</time>
      </trkpt>
      <trkpt lat="37.295775" lon="-3.530665">
        <ele>1295.0</ele>
        <time>2022-11-13T13:19:38.000Z</time>
      </trkpt>
      <trkpt lat="37.29577" lon="-3.53067667">
        <ele>1295.0</ele>
        <time>2022-11-13T13:19:39.000Z</time>
      </trkpt>
      <trkpt lat="37.29576333" lon="-3.53068833">
        <ele>1295.0</ele>
        <time>2022-11-13T13:19:40.000Z</time>
      </trkpt>
      <trkpt lat="37.29575667" lon="-3.5307">
        <ele>1295.0</ele>
        <time>2022-11-13T13:19:41.000Z</time>
      </trkpt>
      <trkpt lat="37.29574833" lon="-3.53071167">
        <ele>1295.0</ele>
        <time>2022-11-13T13:19:42.000Z</time>
      </trkpt>
      <trkpt lat="37.29574167" lon="-3.53072167">
        <ele>1295.0</ele>
        <time>2022-11-13T13:19:43.000Z</time>
      </trkpt>
      <trkpt lat="37.295735" lon="-3.53073333">
        <ele>1296.0</ele>
        <time>2022-11-13T13:19:44.000Z</time>
      </trkpt>
      <trkpt lat="37.29572833" lon="-3.53074333">
        <ele>1296.0</ele>
        <time>2022-11-13T13:19:45.000Z</time>
      </trkpt>
      <trkpt lat="37.29572333" lon="-3.53075833">
        <ele>1296.0</ele>
        <time>2022-11-13T13:19:46.000Z</time>
      </trkpt>
      <trkpt lat="37.295715" lon="-3.53077">
        <ele>1296.0</ele>
        <time>2022-11-13T13:19:47.000Z</time>
      </trkpt>
      <trkpt lat="37.29570833" lon="-3.53078333">
        <ele>1296.0</ele>
        <time>2022-11-13T13:19:48.000Z</time>
      </trkpt>
      <trkpt lat="37.2957" lon="-3.530795">
        <ele>1296.0</ele>
        <time>2022-11-13T13:19:49.000Z</time>
      </trkpt>
      <trkpt lat="37.29569167" lon="-3.53080667">
        <ele>1296.0</ele>
        <time>2022-11-13T13:19:50.000Z</time>
      </trkpt>
      <trkpt lat="37.295685" lon="-3.53081833">
        <ele>1296.0</ele>
        <time>2022-11-13T13:19:51.000Z</time>
      </trkpt>
      <trkpt lat="37.29567833" lon="-3.53082833">
        <ele>1296.0</ele>
        <time>2022-11-13T13:19:52.000Z</time>
      </trkpt>
      <trkpt lat="37.29567333" lon="-3.53084">
        <ele>1296.0</ele>
        <time>2022-11-13T13:19:53.000Z</time>
      </trkpt>
      <trkpt lat="37.29566667" lon="-3.530855">
        <ele>1296.0</ele>
        <time>2022-11-13T13:19:54.000Z</time>
      </trkpt>
      <trkpt lat="37.29566" lon="-3.53087167">
        <ele>1296.0</ele>
        <time>2022-11-13T13:19:55.000Z</time>
      </trkpt>
      <trkpt lat="37.29565333" lon="-3.53088833">
        <ele>1296.0</ele>
        <time>2022-11-13T13:19:56.000Z</time>
      </trkpt>
      <trkpt lat="37.29564833" lon="-3.530905">
        <ele>1296.0</ele>
        <time>2022-11-13T13:19:57.000Z</time>
      </trkpt>
      <trkpt lat="37.29564333" lon="-3.53092">
        <ele>1296.0</ele>
        <time>2022-11-13T13:19:58.000Z</time>
      </trkpt>
      <trkpt lat="37.29563667" lon="-3.530935">
        <ele>1296.0</ele>
        <time>2022-11-13T13:19:59.000Z</time>
      </trkpt>
      <trkpt lat="37.29563" lon="-3.53094667">
        <ele>1296.0</ele>
        <time>2022-11-13T13:20:00.000Z</time>
      </trkpt>
      <trkpt lat="37.29562333" lon="-3.53096">
        <ele>1296.0</ele>
        <time>2022-11-13T13:20:01.000Z</time>
      </trkpt>
      <trkpt lat="37.29561667" lon="-3.53097333">
        <ele>1295.0</ele>
        <time>2022-11-13T13:20:02.000Z</time>
      </trkpt>
      <trkpt lat="37.29560833" lon="-3.53098667">
        <ele>1295.0</ele>
        <time>2022-11-13T13:20:03.000Z</time>
      </trkpt>
      <trkpt lat="37.2956" lon="-3.531">
        <ele>1295.0</ele>
        <time>2022-11-13T13:20:04.000Z</time>
      </trkpt>
      <trkpt lat="37.29559" lon="-3.53101167">
        <ele>1295.0</ele>
        <time>2022-11-13T13:20:05.000Z</time>
      </trkpt>
      <trkpt lat="37.29558167" lon="-3.53102167">
        <ele>1295.0</ele>
        <time>2022-11-13T13:20:06.000Z</time>
      </trkpt>
      <trkpt lat="37.29557167" lon="-3.53103333">
        <ele>1295.0</ele>
        <time>2022-11-13T13:20:07.000Z</time>
      </trkpt>
      <trkpt lat="37.29556167" lon="-3.531045">
        <ele>1295.0</ele>
        <time>2022-11-13T13:20:08.000Z</time>
      </trkpt>
      <trkpt lat="37.29555333" lon="-3.531055">
        <ele>1295.0</ele>
        <time>2022-11-13T13:20:09.000Z</time>
      </trkpt>
      <trkpt lat="37.295545" lon="-3.531065">
        <ele>1295.0</ele>
        <time>2022-11-13T13:20:10.000Z</time>
      </trkpt>
      <trkpt lat="37.29553667" lon="-3.531075">
        <ele>1295.0</ele>
        <time>2022-11-13T13:20:11.000Z</time>
      </trkpt>
      <trkpt lat="37.29552833" lon="-3.53108333">
        <ele>1295.0</ele>
        <time>2022-11-13T13:20:12.000Z</time>
      </trkpt>
      <trkpt lat="37.29551833" lon="-3.53109333">
        <ele>1295.0</ele>
        <time>2022-11-13T13:20:13.000Z</time>
      </trkpt>
      <trkpt lat="37.29551" lon="-3.53110333">
        <ele>1295.0</ele>
        <time>2022-11-13T13:20:14.000Z</time>
      </trkpt>
      <trkpt lat="37.29550167" lon="-3.53111167">
        <ele>1295.0</ele>
        <time>2022-11-13T13:20:15.000Z</time>
      </trkpt>
      <trkpt lat="37.29549333" lon="-3.53112167">
        <ele>1295.0</ele>
        <time>2022-11-13T13:20:16.000Z</time>
      </trkpt>
      <trkpt lat="37.295485" lon="-3.53113167">
        <ele>1295.0</ele>
        <time>2022-11-13T13:20:17.000Z</time>
      </trkpt>
      <trkpt lat="37.29547667" lon="-3.53114167">
        <ele>1295.0</ele>
        <time>2022-11-13T13:20:18.000Z</time>
      </trkpt>
      <trkpt lat="37.29547" lon="-3.53114833">
        <ele>1295.0</ele>
        <time>2022-11-13T13:20:19.000Z</time>
      </trkpt>
      <trkpt lat="37.29546333" lon="-3.53115333">
        <ele>1295.0</ele>
        <time>2022-11-13T13:20:20.000Z</time>
      </trkpt>
      <trkpt lat="37.29545833" lon="-3.53116">
        <ele>1295.0</ele>
        <time>2022-11-13T13:20:21.000Z</time>
      </trkpt>
      <trkpt lat="37.29545" lon="-3.53116667">
        <ele>1295.0</ele>
        <time>2022-11-13T13:20:22.000Z</time>
      </trkpt>
      <trkpt lat="37.295445" lon="-3.53117">
        <ele>1296.0</ele>
        <time>2022-11-13T13:20:23.000Z</time>
      </trkpt>
      <trkpt lat="37.29543833" lon="-3.531175">
        <ele>1296.0</ele>
        <time>2022-11-13T13:20:24.000Z</time>
      </trkpt>
      <trkpt lat="37.29543167" lon="-3.53118">
        <ele>1296.0</ele>
        <time>2022-11-13T13:20:25.000Z</time>
      </trkpt>
      <trkpt lat="37.29542167" lon="-3.53118667">
        <ele>1296.0</ele>
        <time>2022-11-13T13:20:26.000Z</time>
      </trkpt>
      <trkpt lat="37.29541333" lon="-3.53118833">
        <ele>1296.0</ele>
        <time>2022-11-13T13:20:27.000Z</time>
      </trkpt>
      <trkpt lat="37.295405" lon="-3.53119167">
        <ele>1296.0</ele>
        <time>2022-11-13T13:20:28.000Z</time>
      </trkpt>
      <trkpt lat="37.29539667" lon="-3.53119167">
        <ele>1297.0</ele>
        <time>2022-11-13T13:20:29.000Z</time>
      </trkpt>
      <trkpt lat="37.29539" lon="-3.53119333">
        <ele>1297.0</ele>
        <time>2022-11-13T13:20:30.000Z</time>
      </trkpt>
      <trkpt lat="37.29538333" lon="-3.531195">
        <ele>1297.0</ele>
        <time>2022-11-13T13:20:31.000Z</time>
      </trkpt>
      <trkpt lat="37.29537667" lon="-3.5312">
        <ele>1297.0</ele>
        <time>2022-11-13T13:20:32.000Z</time>
      </trkpt>
      <trkpt lat="37.29536833" lon="-3.531205">
        <ele>1297.0</ele>
        <time>2022-11-13T13:20:33.000Z</time>
      </trkpt>
      <trkpt lat="37.29536167" lon="-3.53121167">
        <ele>1297.0</ele>
        <time>2022-11-13T13:20:34.000Z</time>
      </trkpt>
      <trkpt lat="37.295355" lon="-3.53121833">
        <ele>1297.0</ele>
        <time>2022-11-13T13:20:35.000Z</time>
      </trkpt>
      <trkpt lat="37.295345" lon="-3.53122">
        <ele>1298.0</ele>
        <time>2022-11-13T13:20:36.000Z</time>
      </trkpt>
      <trkpt lat="37.29533667" lon="-3.53122333">
        <ele>1298.0</ele>
        <time>2022-11-13T13:20:37.000Z</time>
      </trkpt>
      <trkpt lat="37.29532833" lon="-3.531225">
        <ele>1298.0</ele>
        <time>2022-11-13T13:20:38.000Z</time>
      </trkpt>
      <trkpt lat="37.29532167" lon="-3.53123">
        <ele>1298.0</ele>
        <time>2022-11-13T13:20:39.000Z</time>
      </trkpt>
      <trkpt lat="37.295315" lon="-3.531235">
        <ele>1298.0</ele>
        <time>2022-11-13T13:20:40.000Z</time>
      </trkpt>
      <trkpt lat="37.29530833" lon="-3.53123833">
        <ele>1299.0</ele>
        <time>2022-11-13T13:20:41.000Z</time>
      </trkpt>
      <trkpt lat="37.29530167" lon="-3.53124">
        <ele>1299.0</ele>
        <time>2022-11-13T13:20:42.000Z</time>
      </trkpt>
      <trkpt lat="37.29529667" lon="-3.53124167">
        <ele>1299.0</ele>
        <time>2022-11-13T13:20:43.000Z</time>
      </trkpt>
      <trkpt lat="37.29529167" lon="-3.531245">
        <ele>1299.0</ele>
        <time>2022-11-13T13:20:44.000Z</time>
      </trkpt>
      <trkpt lat="37.29528667" lon="-3.53125">
        <ele>1299.0</ele>
        <time>2022-11-13T13:20:45.000Z</time>
      </trkpt>
      <trkpt lat="37.29528167" lon="-3.53125167">
        <ele>1299.0</ele>
        <time>2022-11-13T13:20:46.000Z</time>
      </trkpt>
      <trkpt lat="37.29527667" lon="-3.53125667">
        <ele>1299.0</ele>
        <time>2022-11-13T13:20:47.000Z</time>
      </trkpt>
      <trkpt lat="37.29527333" lon="-3.53126">
        <ele>1300.0</ele>
        <time>2022-11-13T13:20:48.000Z</time>
      </trkpt>
      <trkpt lat="37.29527167" lon="-3.53126333">
        <ele>1300.0</ele>
        <time>2022-11-13T13:20:49.000Z</time>
      </trkpt>
      <trkpt lat="37.29527" lon="-3.53126333">
        <ele>1300.0</ele>
        <time>2022-11-13T13:20:50.000Z</time>
      </trkpt>
      <trkpt lat="37.29527" lon="-3.531265">
        <ele>1300.0</ele>
        <time>2022-11-13T13:20:51.000Z</time>
      </trkpt>
      <trkpt lat="37.29527" lon="-3.531265">
        <ele>1300.0</ele>
        <time>2022-11-13T13:20:52.000Z</time>
      </trkpt>
      <trkpt lat="37.29527" lon="-3.531265">
        <ele>1300.0</ele>
        <time>2022-11-13T13:20:53.000Z</time>
      </trkpt>
      <trkpt lat="37.29527" lon="-3.531265">
        <ele>1300.0</ele>
        <time>2022-11-13T13:20:54.000Z</time>
      </trkpt>
      <trkpt lat="37.29527" lon="-3.53126333">
        <ele>1300.0</ele>
        <time>2022-11-13T13:20:55.000Z</time>
      </trkpt>
      <trkpt lat="37.29527" lon="-3.53126333">
        <ele>1300.0</ele>
        <time>2022-11-13T13:20:56.000Z</time>
      </trkpt>
      <trkpt lat="37.29527" lon="-3.53126333">
        <ele>1300.0</ele>
        <time>2022-11-13T13:20:57.000Z</time>
      </trkpt>
      <trkpt lat="37.29526667" lon="-3.53126333">
        <ele>1300.0</ele>
        <time>2022-11-13T13:20:58.000Z</time>
      </trkpt>
      <trkpt lat="37.29526167" lon="-3.53126167">
        <ele>1300.0</ele>
        <time>2022-11-13T13:20:59.000Z</time>
      </trkpt>
      <trkpt lat="37.29525667" lon="-3.53126">
        <ele>1301.0</ele>
        <time>2022-11-13T13:21:00.000Z</time>
      </trkpt>
      <trkpt lat="37.29525333" lon="-3.53125667">
        <ele>1301.0</ele>
        <time>2022-11-13T13:21:01.000Z</time>
      </trkpt>
      <trkpt lat="37.29524833" lon="-3.531255">
        <ele>1301.0</ele>
        <time>2022-11-13T13:21:02.000Z</time>
      </trkpt>
      <trkpt lat="37.295245" lon="-3.53125333">
        <ele>1301.0</ele>
        <time>2022-11-13T13:21:03.000Z</time>
      </trkpt>
      <trkpt lat="37.29523833" lon="-3.53125167">
        <ele>1301.0</ele>
        <time>2022-11-13T13:21:04.000Z</time>
      </trkpt>
      <trkpt lat="37.295235" lon="-3.53125">
        <ele>1301.0</ele>
        <time>2022-11-13T13:21:05.000Z</time>
      </trkpt>
      <trkpt lat="37.29523167" lon="-3.53124833">
        <ele>1301.0</ele>
        <time>2022-11-13T13:21:06.000Z</time>
      </trkpt>
      <trkpt lat="37.29522833" lon="-3.53124833">
        <ele>1301.0</ele>
        <time>2022-11-13T13:21:07.000Z</time>
      </trkpt>
      <trkpt lat="37.29522333" lon="-3.53124667">
        <ele>1302.0</ele>
        <time>2022-11-13T13:21:08.000Z</time>
      </trkpt>
      <trkpt lat="37.29522" lon="-3.53124667">
        <ele>1302.0</ele>
        <time>2022-11-13T13:21:09.000Z</time>
      </trkpt>
      <trkpt lat="37.295215" lon="-3.531245">
        <ele>1302.0</ele>
        <time>2022-11-13T13:21:10.000Z</time>
      </trkpt>
      <trkpt lat="37.29521167" lon="-3.53124333">
        <ele>1302.0</ele>
        <time>2022-11-13T13:21:11.000Z</time>
      </trkpt>
      <trkpt lat="37.29520667" lon="-3.53124">
        <ele>1302.0</ele>
        <time>2022-11-13T13:21:12.000Z</time>
      </trkpt>
      <trkpt lat="37.2952" lon="-3.53123667">
        <ele>1302.0</ele>
        <time>2022-11-13T13:21:13.000Z</time>
      </trkpt>
      <trkpt lat="37.295195" lon="-3.531235">
        <ele>1303.0</ele>
        <time>2022-11-13T13:21:14.000Z</time>
      </trkpt>
      <trkpt lat="37.29519167" lon="-3.53123333">
        <ele>1303.0</ele>
        <time>2022-11-13T13:21:15.000Z</time>
      </trkpt>
      <trkpt lat="37.29518667" lon="-3.53123333">
        <ele>1303.0</ele>
        <time>2022-11-13T13:21:16.000Z</time>
      </trkpt>
      <trkpt lat="37.29518167" lon="-3.53123167">
        <ele>1303.0</ele>
        <time>2022-11-13T13:21:17.000Z</time>
      </trkpt>
      <trkpt lat="37.295175" lon="-3.53123167">
        <ele>1303.0</ele>
        <time>2022-11-13T13:21:18.000Z</time>
      </trkpt>
      <trkpt lat="37.29517" lon="-3.53123333">
        <ele>1303.0</ele>
        <time>2022-11-13T13:21:19.000Z</time>
      </trkpt>
      <trkpt lat="37.29516333" lon="-3.53123333">
        <ele>1304.0</ele>
        <time>2022-11-13T13:21:20.000Z</time>
      </trkpt>
      <trkpt lat="37.29515667" lon="-3.53123167">
        <ele>1304.0</ele>
        <time>2022-11-13T13:21:21.000Z</time>
      </trkpt>
      <trkpt lat="37.29515167" lon="-3.53123333">
        <ele>1304.0</ele>
        <time>2022-11-13T13:21:22.000Z</time>
      </trkpt>
      <trkpt lat="37.295145" lon="-3.53123333">
        <ele>1305.0</ele>
        <time>2022-11-13T13:21:23.000Z</time>
      </trkpt>
      <trkpt lat="37.29513833" lon="-3.53123333">
        <ele>1305.0</ele>
        <time>2022-11-13T13:21:24.000Z</time>
      </trkpt>
      <trkpt lat="37.29513333" lon="-3.53123333">
        <ele>1305.0</ele>
        <time>2022-11-13T13:21:25.000Z</time>
      </trkpt>
      <trkpt lat="37.29512833" lon="-3.53123">
        <ele>1305.0</ele>
        <time>2022-11-13T13:21:26.000Z</time>
      </trkpt>
      <trkpt lat="37.29512333" lon="-3.531225">
        <ele>1306.0</ele>
        <time>2022-11-13T13:21:27.000Z</time>
      </trkpt>
      <trkpt lat="37.29511833" lon="-3.53122">
        <ele>1306.0</ele>
        <time>2022-11-13T13:21:28.000Z</time>
      </trkpt>
      <trkpt lat="37.29511333" lon="-3.53121833">
        <ele>1306.0</ele>
        <time>2022-11-13T13:21:29.000Z</time>
      </trkpt>
      <trkpt lat="37.29510833" lon="-3.53121667">
        <ele>1306.0</ele>
        <time>2022-11-13T13:21:30.000Z</time>
      </trkpt>
      <trkpt lat="37.29510333" lon="-3.531215">
        <ele>1307.0</ele>
        <time>2022-11-13T13:21:31.000Z</time>
      </trkpt>
      <trkpt lat="37.29509833" lon="-3.53121167">
        <ele>1307.0</ele>
        <time>2022-11-13T13:21:32.000Z</time>
      </trkpt>
      <trkpt lat="37.29509333" lon="-3.53120833">
        <ele>1307.0</ele>
        <time>2022-11-13T13:21:33.000Z</time>
      </trkpt>
      <trkpt lat="37.29508667" lon="-3.53120667">
        <ele>1307.0</ele>
        <time>2022-11-13T13:21:34.000Z</time>
      </trkpt>
      <trkpt lat="37.29508" lon="-3.53120333">
        <ele>1307.0</ele>
        <time>2022-11-13T13:21:35.000Z</time>
      </trkpt>
      <trkpt lat="37.29507333" lon="-3.53119833">
        <ele>1307.0</ele>
        <time>2022-11-13T13:21:36.000Z</time>
      </trkpt>
      <trkpt lat="37.29506833" lon="-3.53119667">
        <ele>1307.0</ele>
        <time>2022-11-13T13:21:37.000Z</time>
      </trkpt>
      <trkpt lat="37.29506167" lon="-3.53119667">
        <ele>1307.0</ele>
        <time>2022-11-13T13:21:38.000Z</time>
      </trkpt>
      <trkpt lat="37.29505333" lon="-3.53120167">
        <ele>1308.0</ele>
        <time>2022-11-13T13:21:39.000Z</time>
      </trkpt>
      <trkpt lat="37.29504667" lon="-3.531205">
        <ele>1308.0</ele>
        <time>2022-11-13T13:21:40.000Z</time>
      </trkpt>
      <trkpt lat="37.29503667" lon="-3.53120333">
        <ele>1308.0</ele>
        <time>2022-11-13T13:21:41.000Z</time>
      </trkpt>
      <trkpt lat="37.29503" lon="-3.53119833">
        <ele>1308.0</ele>
        <time>2022-11-13T13:21:42.000Z</time>
      </trkpt>
      <trkpt lat="37.29502333" lon="-3.53119167">
        <ele>1308.0</ele>
        <time>2022-11-13T13:21:43.000Z</time>
      </trkpt>
      <trkpt lat="37.295015" lon="-3.531185">
        <ele>1308.0</ele>
        <time>2022-11-13T13:21:44.000Z</time>
      </trkpt>
      <trkpt lat="37.29500667" lon="-3.53118">
        <ele>1308.0</ele>
        <time>2022-11-13T13:21:45.000Z</time>
      </trkpt>
      <trkpt lat="37.29499833" lon="-3.53117667">
        <ele>1308.0</ele>
        <time>2022-11-13T13:21:46.000Z</time>
      </trkpt>
      <trkpt lat="37.29499167" lon="-3.531175">
        <ele>1308.0</ele>
        <time>2022-11-13T13:21:47.000Z</time>
      </trkpt>
      <trkpt lat="37.29498333" lon="-3.53117667">
        <ele>1308.0</ele>
        <time>2022-11-13T13:21:48.000Z</time>
      </trkpt>
      <trkpt lat="37.294975" lon="-3.53118">
        <ele>1308.0</ele>
        <time>2022-11-13T13:21:49.000Z</time>
      </trkpt>
      <trkpt lat="37.29497" lon="-3.53118333">
        <ele>1308.0</ele>
        <time>2022-11-13T13:21:50.000Z</time>
      </trkpt>
      <trkpt lat="37.294965" lon="-3.53119167">
        <ele>1308.0</ele>
        <time>2022-11-13T13:21:51.000Z</time>
      </trkpt>
      <trkpt lat="37.29496167" lon="-3.53120333">
        <ele>1309.0</ele>
        <time>2022-11-13T13:21:52.000Z</time>
      </trkpt>
      <trkpt lat="37.29495833" lon="-3.53121667">
        <ele>1309.0</ele>
        <time>2022-11-13T13:21:53.000Z</time>
      </trkpt>
      <trkpt lat="37.294955" lon="-3.53122833">
        <ele>1309.0</ele>
        <time>2022-11-13T13:21:54.000Z</time>
      </trkpt>
      <trkpt lat="37.29495167" lon="-3.53124167">
        <ele>1309.0</ele>
        <time>2022-11-13T13:21:55.000Z</time>
      </trkpt>
      <trkpt lat="37.29494833" lon="-3.531255">
        <ele>1309.0</ele>
        <time>2022-11-13T13:21:56.000Z</time>
      </trkpt>
      <trkpt lat="37.29494333" lon="-3.53126667">
        <ele>1309.0</ele>
        <time>2022-11-13T13:21:57.000Z</time>
      </trkpt>
      <trkpt lat="37.29493667" lon="-3.53127667">
        <ele>1309.0</ele>
        <time>2022-11-13T13:21:58.000Z</time>
      </trkpt>
      <trkpt lat="37.29493167" lon="-3.531285">
        <ele>1309.0</ele>
        <time>2022-11-13T13:21:59.000Z</time>
      </trkpt>
      <trkpt lat="37.29492833" lon="-3.53129333">
        <ele>1309.0</ele>
        <time>2022-11-13T13:22:00.000Z</time>
      </trkpt>
      <trkpt lat="37.294925" lon="-3.5313">
        <ele>1309.0</ele>
        <time>2022-11-13T13:22:01.000Z</time>
      </trkpt>
      <trkpt lat="37.29492333" lon="-3.53131">
        <ele>1309.0</ele>
        <time>2022-11-13T13:22:02.000Z</time>
      </trkpt>
      <trkpt lat="37.29492" lon="-3.53132">
        <ele>1309.0</ele>
        <time>2022-11-13T13:22:03.000Z</time>
      </trkpt>
      <trkpt lat="37.29491833" lon="-3.53133">
        <ele>1309.0</ele>
        <time>2022-11-13T13:22:04.000Z</time>
      </trkpt>
      <trkpt lat="37.29491667" lon="-3.53134167">
        <ele>1309.0</ele>
        <time>2022-11-13T13:22:05.000Z</time>
      </trkpt>
      <trkpt lat="37.29491333" lon="-3.53135167">
        <ele>1309.0</ele>
        <time>2022-11-13T13:22:06.000Z</time>
      </trkpt>
      <trkpt lat="37.29491" lon="-3.531365">
        <ele>1309.0</ele>
        <time>2022-11-13T13:22:07.000Z</time>
      </trkpt>
      <trkpt lat="37.29490667" lon="-3.53138">
        <ele>1309.0</ele>
        <time>2022-11-13T13:22:08.000Z</time>
      </trkpt>
      <trkpt lat="37.294905" lon="-3.53139333">
        <ele>1309.0</ele>
        <time>2022-11-13T13:22:09.000Z</time>
      </trkpt>
      <trkpt lat="37.29490167" lon="-3.53140667">
        <ele>1309.0</ele>
        <time>2022-11-13T13:22:10.000Z</time>
      </trkpt>
      <trkpt lat="37.29490167" lon="-3.53142167">
        <ele>1309.0</ele>
        <time>2022-11-13T13:22:11.000Z</time>
      </trkpt>
      <trkpt lat="37.29490167" lon="-3.53143667">
        <ele>1309.0</ele>
        <time>2022-11-13T13:22:12.000Z</time>
      </trkpt>
      <trkpt lat="37.29490167" lon="-3.53145167">
        <ele>1309.0</ele>
        <time>2022-11-13T13:22:13.000Z</time>
      </trkpt>
      <trkpt lat="37.29490167" lon="-3.53146667">
        <ele>1309.0</ele>
        <time>2022-11-13T13:22:14.000Z</time>
      </trkpt>
      <trkpt lat="37.29489667" lon="-3.53148167">
        <ele>1309.0</ele>
        <time>2022-11-13T13:22:15.000Z</time>
      </trkpt>
      <trkpt lat="37.29489333" lon="-3.53149333">
        <ele>1309.0</ele>
        <time>2022-11-13T13:22:16.000Z</time>
      </trkpt>
      <trkpt lat="37.29489" lon="-3.531505">
        <ele>1309.0</ele>
        <time>2022-11-13T13:22:17.000Z</time>
      </trkpt>
      <trkpt lat="37.294885" lon="-3.53151833">
        <ele>1309.0</ele>
        <time>2022-11-13T13:22:18.000Z</time>
      </trkpt>
      <trkpt lat="37.29488" lon="-3.53153333">
        <ele>1309.0</ele>
        <time>2022-11-13T13:22:19.000Z</time>
      </trkpt>
      <trkpt lat="37.294875" lon="-3.53154833">
        <ele>1309.0</ele>
        <time>2022-11-13T13:22:20.000Z</time>
      </trkpt>
      <trkpt lat="37.29486833" lon="-3.53156333">
        <ele>1309.0</ele>
        <time>2022-11-13T13:22:21.000Z</time>
      </trkpt>
      <trkpt lat="37.294865" lon="-3.53157833">
        <ele>1309.0</ele>
        <time>2022-11-13T13:22:22.000Z</time>
      </trkpt>
      <trkpt lat="37.29486333" lon="-3.531595">
        <ele>1309.0</ele>
        <time>2022-11-13T13:22:23.000Z</time>
      </trkpt>
      <trkpt lat="37.29485833" lon="-3.53161">
        <ele>1309.0</ele>
        <time>2022-11-13T13:22:24.000Z</time>
      </trkpt>
      <trkpt lat="37.29485333" lon="-3.53162">
        <ele>1309.0</ele>
        <time>2022-11-13T13:22:25.000Z</time>
      </trkpt>
      <trkpt lat="37.29484667" lon="-3.53163167">
        <ele>1309.0</ele>
        <time>2022-11-13T13:22:26.000Z</time>
      </trkpt>
      <trkpt lat="37.29484" lon="-3.53164333">
        <ele>1309.0</ele>
        <time>2022-11-13T13:22:27.000Z</time>
      </trkpt>
      <trkpt lat="37.29483333" lon="-3.53165667">
        <ele>1308.0</ele>
        <time>2022-11-13T13:22:28.000Z</time>
      </trkpt>
      <trkpt lat="37.29482667" lon="-3.53167167">
        <ele>1308.0</ele>
        <time>2022-11-13T13:22:29.000Z</time>
      </trkpt>
      <trkpt lat="37.294815" lon="-3.53168333">
        <ele>1308.0</ele>
        <time>2022-11-13T13:22:30.000Z</time>
      </trkpt>
      <trkpt lat="37.29480333" lon="-3.53169333">
        <ele>1308.0</ele>
        <time>2022-11-13T13:22:31.000Z</time>
      </trkpt>
      <trkpt lat="37.29479833" lon="-3.53170333">
        <ele>1308.0</ele>
        <time>2022-11-13T13:22:32.000Z</time>
      </trkpt>
      <trkpt lat="37.29479667" lon="-3.53171167">
        <ele>1308.0</ele>
        <time>2022-11-13T13:22:33.000Z</time>
      </trkpt>
      <trkpt lat="37.294795" lon="-3.53171833">
        <ele>1308.0</ele>
        <time>2022-11-13T13:22:34.000Z</time>
      </trkpt>
      <trkpt lat="37.29479167" lon="-3.53172667">
        <ele>1308.0</ele>
        <time>2022-11-13T13:22:35.000Z</time>
      </trkpt>
      <trkpt lat="37.29478667" lon="-3.53173333">
        <ele>1308.0</ele>
        <time>2022-11-13T13:22:36.000Z</time>
      </trkpt>
      <trkpt lat="37.29478" lon="-3.53174">
        <ele>1308.0</ele>
        <time>2022-11-13T13:22:37.000Z</time>
      </trkpt>
      <trkpt lat="37.29477333" lon="-3.53174833">
        <ele>1308.0</ele>
        <time>2022-11-13T13:22:38.000Z</time>
      </trkpt>
      <trkpt lat="37.29476833" lon="-3.531755">
        <ele>1308.0</ele>
        <time>2022-11-13T13:22:39.000Z</time>
      </trkpt>
      <trkpt lat="37.294765" lon="-3.53176333">
        <ele>1308.0</ele>
        <time>2022-11-13T13:22:40.000Z</time>
      </trkpt>
      <trkpt lat="37.29476" lon="-3.53177333">
        <ele>1308.0</ele>
        <time>2022-11-13T13:22:41.000Z</time>
      </trkpt>
      <trkpt lat="37.29475667" lon="-3.53178167">
        <ele>1308.0</ele>
        <time>2022-11-13T13:22:42.000Z</time>
      </trkpt>
      <trkpt lat="37.29475333" lon="-3.53178667">
        <ele>1308.0</ele>
        <time>2022-11-13T13:22:43.000Z</time>
      </trkpt>
      <trkpt lat="37.29475167" lon="-3.53179167">
        <ele>1308.0</ele>
        <time>2022-11-13T13:22:44.000Z</time>
      </trkpt>
      <trkpt lat="37.29475" lon="-3.53179667">
        <ele>1308.0</ele>
        <time>2022-11-13T13:22:45.000Z</time>
      </trkpt>
      <trkpt lat="37.294745" lon="-3.5318">
        <ele>1308.0</ele>
        <time>2022-11-13T13:22:46.000Z</time>
      </trkpt>
      <trkpt lat="37.29474333" lon="-3.53180833">
        <ele>1308.0</ele>
        <time>2022-11-13T13:22:47.000Z</time>
      </trkpt>
      <trkpt lat="37.29474333" lon="-3.53181333">
        <ele>1308.0</ele>
        <time>2022-11-13T13:22:48.000Z</time>
      </trkpt>
      <trkpt lat="37.29473833" lon="-3.531815">
        <ele>1308.0</ele>
        <time>2022-11-13T13:22:49.000Z</time>
      </trkpt>
      <trkpt lat="37.294735" lon="-3.531815">
        <ele>1308.0</ele>
        <time>2022-11-13T13:22:50.000Z</time>
      </trkpt>
      <trkpt lat="37.29473333" lon="-3.53181833">
        <ele>1308.0</ele>
        <time>2022-11-13T13:22:51.000Z</time>
      </trkpt>
      <trkpt lat="37.29473" lon="-3.53182167">
        <ele>1308.0</ele>
        <time>2022-11-13T13:22:52.000Z</time>
      </trkpt>
      <trkpt lat="37.29472833" lon="-3.53182667">
        <ele>1309.0</ele>
        <time>2022-11-13T13:22:53.000Z</time>
      </trkpt>
      <trkpt lat="37.29472667" lon="-3.53183167">
        <ele>1309.0</ele>
        <time>2022-11-13T13:22:54.000Z</time>
      </trkpt>
      <trkpt lat="37.29472333" lon="-3.53184167">
        <ele>1309.0</ele>
        <time>2022-11-13T13:22:55.000Z</time>
      </trkpt>
      <trkpt lat="37.29472333" lon="-3.53185333">
        <ele>1309.0</ele>
        <time>2022-11-13T13:22:56.000Z</time>
      </trkpt>
      <trkpt lat="37.29472" lon="-3.53186333">
        <ele>1309.0</ele>
        <time>2022-11-13T13:22:57.000Z</time>
      </trkpt>
      <trkpt lat="37.29471833" lon="-3.53187333">
        <ele>1309.0</ele>
        <time>2022-11-13T13:22:58.000Z</time>
      </trkpt>
      <trkpt lat="37.294715" lon="-3.53188333">
        <ele>1310.0</ele>
        <time>2022-11-13T13:22:59.000Z</time>
      </trkpt>
      <trkpt lat="37.29471167" lon="-3.53189333">
        <ele>1310.0</ele>
        <time>2022-11-13T13:23:00.000Z</time>
      </trkpt>
      <trkpt lat="37.29470667" lon="-3.53190167">
        <ele>1310.0</ele>
        <time>2022-11-13T13:23:01.000Z</time>
      </trkpt>
      <trkpt lat="37.29470333" lon="-3.53191">
        <ele>1310.0</ele>
        <time>2022-11-13T13:23:02.000Z</time>
      </trkpt>
      <trkpt lat="37.2947" lon="-3.53191833">
        <ele>1310.0</ele>
        <time>2022-11-13T13:23:03.000Z</time>
      </trkpt>
      <trkpt lat="37.29469667" lon="-3.53192667">
        <ele>1310.0</ele>
        <time>2022-11-13T13:23:04.000Z</time>
      </trkpt>
      <trkpt lat="37.29469" lon="-3.53193667">
        <ele>1310.0</ele>
        <time>2022-11-13T13:23:05.000Z</time>
      </trkpt>
      <trkpt lat="37.29468333" lon="-3.531945">
        <ele>1311.0</ele>
        <time>2022-11-13T13:23:06.000Z</time>
      </trkpt>
      <trkpt lat="37.294675" lon="-3.53195167">
        <ele>1311.0</ele>
        <time>2022-11-13T13:23:07.000Z</time>
      </trkpt>
      <trkpt lat="37.29467" lon="-3.53195833">
        <ele>1311.0</ele>
        <time>2022-11-13T13:23:08.000Z</time>
      </trkpt>
      <trkpt lat="37.29466167" lon="-3.53196667">
        <ele>1311.0</ele>
        <time>2022-11-13T13:23:09.000Z</time>
      </trkpt>
      <trkpt lat="37.294655" lon="-3.53197167">
        <ele>1311.0</ele>
        <time>2022-11-13T13:23:10.000Z</time>
      </trkpt>
      <trkpt lat="37.29464833" lon="-3.53197833">
        <ele>1311.0</ele>
        <time>2022-11-13T13:23:11.000Z</time>
      </trkpt>
      <trkpt lat="37.29464167" lon="-3.531985">
        <ele>1312.0</ele>
        <time>2022-11-13T13:23:12.000Z</time>
      </trkpt>
      <trkpt lat="37.29463667" lon="-3.53198833">
        <ele>1312.0</ele>
        <time>2022-11-13T13:23:13.000Z</time>
      </trkpt>
      <trkpt lat="37.29463167" lon="-3.53199167">
        <ele>1312.0</ele>
        <time>2022-11-13T13:23:14.000Z</time>
      </trkpt>
      <trkpt lat="37.29462833" lon="-3.531995">
        <ele>1312.0</ele>
        <time>2022-11-13T13:23:15.000Z</time>
      </trkpt>
      <trkpt lat="37.29462667" lon="-3.531995">
        <ele>1312.0</ele>
        <time>2022-11-13T13:23:16.000Z</time>
      </trkpt>
      <trkpt lat="37.294625" lon="-3.531995">
        <ele>1312.0</ele>
        <time>2022-11-13T13:23:17.000Z</time>
      </trkpt>
      <trkpt lat="37.294625" lon="-3.531995">
        <ele>1312.0</ele>
        <time>2022-11-13T13:23:18.000Z</time>
      </trkpt>
      <trkpt lat="37.294625" lon="-3.53199667">
        <ele>1313.0</ele>
        <time>2022-11-13T13:23:19.000Z</time>
      </trkpt>
      <trkpt lat="37.294625" lon="-3.53199667">
        <ele>1313.0</ele>
        <time>2022-11-13T13:23:20.000Z</time>
      </trkpt>
      <trkpt lat="37.29462333" lon="-3.532">
        <ele>1313.0</ele>
        <time>2022-11-13T13:23:21.000Z</time>
      </trkpt>
      <trkpt lat="37.29462" lon="-3.532">
        <ele>1313.0</ele>
        <time>2022-11-13T13:23:22.000Z</time>
      </trkpt>
      <trkpt lat="37.29461667" lon="-3.532">
        <ele>1313.0</ele>
        <time>2022-11-13T13:23:23.000Z</time>
      </trkpt>
      <trkpt lat="37.294615" lon="-3.53200167">
        <ele>1313.0</ele>
        <time>2022-11-13T13:23:24.000Z</time>
      </trkpt>
      <trkpt lat="37.294615" lon="-3.53200167">
        <ele>1313.0</ele>
        <time>2022-11-13T13:23:25.000Z</time>
      </trkpt>
      <trkpt lat="37.294615" lon="-3.53200167">
        <ele>1313.0</ele>
        <time>2022-11-13T13:23:26.000Z</time>
      </trkpt>
      <trkpt lat="37.29461167" lon="-3.53200167">
        <ele>1313.0</ele>
        <time>2022-11-13T13:23:27.000Z</time>
      </trkpt>
      <trkpt lat="37.29460833" lon="-3.53200167">
        <ele>1313.0</ele>
        <time>2022-11-13T13:23:28.000Z</time>
      </trkpt>
      <trkpt lat="37.294605" lon="-3.53200333">
        <ele>1313.0</ele>
        <time>2022-11-13T13:23:29.000Z</time>
      </trkpt>
      <trkpt lat="37.29460333" lon="-3.53200333">
        <ele>1313.0</ele>
        <time>2022-11-13T13:23:30.000Z</time>
      </trkpt>
      <trkpt lat="37.29460167" lon="-3.532005">
        <ele>1313.0</ele>
        <time>2022-11-13T13:23:31.000Z</time>
      </trkpt>
      <trkpt lat="37.2946" lon="-3.53200833">
        <ele>1313.0</ele>
        <time>2022-11-13T13:23:32.000Z</time>
      </trkpt>
      <trkpt lat="37.29459833" lon="-3.532015">
        <ele>1313.0</ele>
        <time>2022-11-13T13:23:33.000Z</time>
      </trkpt>
      <trkpt lat="37.294595" lon="-3.53202333">
        <ele>1313.0</ele>
        <time>2022-11-13T13:23:34.000Z</time>
      </trkpt>
      <trkpt lat="37.29459167" lon="-3.53203">
        <ele>1314.0</ele>
        <time>2022-11-13T13:23:35.000Z</time>
      </trkpt>
      <trkpt lat="37.29458667" lon="-3.53203667">
        <ele>1314.0</ele>
        <time>2022-11-13T13:23:36.000Z</time>
      </trkpt>
      <trkpt lat="37.29458167" lon="-3.53204667">
        <ele>1314.0</ele>
        <time>2022-11-13T13:23:37.000Z</time>
      </trkpt>
      <trkpt lat="37.29457333" lon="-3.53205667">
        <ele>1314.0</ele>
        <time>2022-11-13T13:23:38.000Z</time>
      </trkpt>
      <trkpt lat="37.294565" lon="-3.53206333">
        <ele>1314.0</ele>
        <time>2022-11-13T13:23:39.000Z</time>
      </trkpt>
      <trkpt lat="37.29456167" lon="-3.53206667">
        <ele>1314.0</ele>
        <time>2022-11-13T13:23:40.000Z</time>
      </trkpt>
      <trkpt lat="37.29455833" lon="-3.53207">
        <ele>1314.0</ele>
        <time>2022-11-13T13:23:41.000Z</time>
      </trkpt>
      <trkpt lat="37.29455667" lon="-3.53207167">
        <ele>1314.0</ele>
        <time>2022-11-13T13:23:42.000Z</time>
      </trkpt>
      <trkpt lat="37.294555" lon="-3.53207167">
        <ele>1314.0</ele>
        <time>2022-11-13T13:23:43.000Z</time>
      </trkpt>
      <trkpt lat="37.29455333" lon="-3.53207333">
        <ele>1314.0</ele>
        <time>2022-11-13T13:23:44.000Z</time>
      </trkpt>
      <trkpt lat="37.29455167" lon="-3.532075">
        <ele>1314.0</ele>
        <time>2022-11-13T13:23:45.000Z</time>
      </trkpt>
      <trkpt lat="37.29455" lon="-3.532075">
        <ele>1315.0</ele>
        <time>2022-11-13T13:23:46.000Z</time>
      </trkpt>
      <trkpt lat="37.29454833" lon="-3.53207667">
        <ele>1315.0</ele>
        <time>2022-11-13T13:23:47.000Z</time>
      </trkpt>
      <trkpt lat="37.294545" lon="-3.53207833">
        <ele>1315.0</ele>
        <time>2022-11-13T13:23:48.000Z</time>
      </trkpt>
      <trkpt lat="37.29454" lon="-3.53208167">
        <ele>1315.0</ele>
        <time>2022-11-13T13:23:49.000Z</time>
      </trkpt>
      <trkpt lat="37.29453833" lon="-3.53208167">
        <ele>1315.0</ele>
        <time>2022-11-13T13:23:50.000Z</time>
      </trkpt>
      <trkpt lat="37.29453667" lon="-3.532085">
        <ele>1315.0</ele>
        <time>2022-11-13T13:23:51.000Z</time>
      </trkpt>
      <trkpt lat="37.29453667" lon="-3.53208667">
        <ele>1315.0</ele>
        <time>2022-11-13T13:23:52.000Z</time>
      </trkpt>
      <trkpt lat="37.29453333" lon="-3.53208833">
        <ele>1315.0</ele>
        <time>2022-11-13T13:23:53.000Z</time>
      </trkpt>
      <trkpt lat="37.29453" lon="-3.53209">
        <ele>1315.0</ele>
        <time>2022-11-13T13:23:54.000Z</time>
      </trkpt>
      <trkpt lat="37.29452833" lon="-3.53209">
        <ele>1315.0</ele>
        <time>2022-11-13T13:23:55.000Z</time>
      </trkpt>
      <trkpt lat="37.29452833" lon="-3.53209">
        <ele>1315.0</ele>
        <time>2022-11-13T13:23:56.000Z</time>
      </trkpt>
      <trkpt lat="37.294525" lon="-3.53209">
        <ele>1315.0</ele>
        <time>2022-11-13T13:23:57.000Z</time>
      </trkpt>
      <trkpt lat="37.29452" lon="-3.53209">
        <ele>1315.0</ele>
        <time>2022-11-13T13:23:58.000Z</time>
      </trkpt>
      <trkpt lat="37.29451833" lon="-3.53209">
        <ele>1315.0</ele>
        <time>2022-11-13T13:23:59.000Z</time>
      </trkpt>
      <trkpt lat="37.294515" lon="-3.53209333">
        <ele>1315.0</ele>
        <time>2022-11-13T13:24:00.000Z</time>
      </trkpt>
      <trkpt lat="37.29451333" lon="-3.53209667">
        <ele>1315.0</ele>
        <time>2022-11-13T13:24:01.000Z</time>
      </trkpt>
      <trkpt lat="37.29450833" lon="-3.53209833">
        <ele>1315.0</ele>
        <time>2022-11-13T13:24:02.000Z</time>
      </trkpt>
      <trkpt lat="37.29450333" lon="-3.53210167">
        <ele>1315.0</ele>
        <time>2022-11-13T13:24:03.000Z</time>
      </trkpt>
      <trkpt lat="37.2945" lon="-3.532105">
        <ele>1315.0</ele>
        <time>2022-11-13T13:24:04.000Z</time>
      </trkpt>
      <trkpt lat="37.294495" lon="-3.53210833">
        <ele>1315.0</ele>
        <time>2022-11-13T13:24:05.000Z</time>
      </trkpt>
      <trkpt lat="37.29449" lon="-3.53211333">
        <ele>1315.0</ele>
        <time>2022-11-13T13:24:06.000Z</time>
      </trkpt>
      <trkpt lat="37.294485" lon="-3.53211833">
        <ele>1314.0</ele>
        <time>2022-11-13T13:24:07.000Z</time>
      </trkpt>
      <trkpt lat="37.29448" lon="-3.53212333">
        <ele>1314.0</ele>
        <time>2022-11-13T13:24:08.000Z</time>
      </trkpt>
      <trkpt lat="37.294475" lon="-3.53212667">
        <ele>1314.0</ele>
        <time>2022-11-13T13:24:09.000Z</time>
      </trkpt>
      <trkpt lat="37.29447333" lon="-3.53212833">
        <ele>1314.0</ele>
        <time>2022-11-13T13:24:10.000Z</time>
      </trkpt>
      <trkpt lat="37.29447167" lon="-3.53212667">
        <ele>1314.0</ele>
        <time>2022-11-13T13:24:11.000Z</time>
      </trkpt>
      <trkpt lat="37.29446833" lon="-3.53212333">
        <ele>1314.0</ele>
        <time>2022-11-13T13:24:12.000Z</time>
      </trkpt>
      <trkpt lat="37.29446833" lon="-3.532125">
        <ele>1314.0</ele>
        <time>2022-11-13T13:24:13.000Z</time>
      </trkpt>
      <trkpt lat="37.29446833" lon="-3.532125">
        <ele>1314.0</ele>
        <time>2022-11-13T13:24:14.000Z</time>
      </trkpt>
      <trkpt lat="37.29446833" lon="-3.532125">
        <ele>1315.0</ele>
        <time>2022-11-13T13:24:15.000Z</time>
      </trkpt>
      <trkpt lat="37.29446833" lon="-3.532125">
        <ele>1315.0</ele>
        <time>2022-11-13T13:24:16.000Z</time>
      </trkpt>
      <trkpt lat="37.29446833" lon="-3.53212833">
        <ele>1315.0</ele>
        <time>2022-11-13T13:24:17.000Z</time>
      </trkpt>
      <trkpt lat="37.29446833" lon="-3.53213">
        <ele>1315.0</ele>
        <time>2022-11-13T13:24:18.000Z</time>
      </trkpt>
      <trkpt lat="37.29446667" lon="-3.53212833">
        <ele>1315.0</ele>
        <time>2022-11-13T13:24:19.000Z</time>
      </trkpt>
      <trkpt lat="37.294465" lon="-3.53212667">
        <ele>1315.0</ele>
        <time>2022-11-13T13:24:20.000Z</time>
      </trkpt>
      <trkpt lat="37.294465" lon="-3.532125">
        <ele>1315.0</ele>
        <time>2022-11-13T13:24:21.000Z</time>
      </trkpt>
      <trkpt lat="37.294465" lon="-3.532125">
        <ele>1315.0</ele>
        <time>2022-11-13T13:24:22.000Z</time>
      </trkpt>
      <trkpt lat="37.29446333" lon="-3.53212667">
        <ele>1315.0</ele>
        <time>2022-11-13T13:24:23.000Z</time>
      </trkpt>
      <trkpt lat="37.29446333" lon="-3.53212667">
        <ele>1315.0</ele>
        <time>2022-11-13T13:24:24.000Z</time>
      </trkpt>
      <trkpt lat="37.294465" lon="-3.53212333">
        <ele>1315.0</ele>
        <time>2022-11-13T13:24:25.000Z</time>
      </trkpt>
      <trkpt lat="37.29446333" lon="-3.53212333">
        <ele>1315.0</ele>
        <time>2022-11-13T13:24:26.000Z</time>
      </trkpt>
      <trkpt lat="37.29446333" lon="-3.53212333">
        <ele>1315.0</ele>
        <time>2022-11-13T13:24:27.000Z</time>
      </trkpt>
      <trkpt lat="37.29446333" lon="-3.53212333">
        <ele>1315.0</ele>
        <time>2022-11-13T13:24:28.000Z</time>
      </trkpt>
      <trkpt lat="37.29446333" lon="-3.53212167">
        <ele>1315.0</ele>
        <time>2022-11-13T13:24:29.000Z</time>
      </trkpt>
      <trkpt lat="37.29446333" lon="-3.53212167">
        <ele>1315.0</ele>
        <time>2022-11-13T13:24:30.000Z</time>
      </trkpt>
      <trkpt lat="37.29446333" lon="-3.53212167">
        <ele>1315.0</ele>
        <time>2022-11-13T13:24:31.000Z</time>
      </trkpt>
      <trkpt lat="37.29446333" lon="-3.53212167">
        <ele>1315.0</ele>
        <time>2022-11-13T13:24:32.000Z</time>
      </trkpt>
      <trkpt lat="37.29446333" lon="-3.53212167">
        <ele>1315.0</ele>
        <time>2022-11-13T13:24:33.000Z</time>
      </trkpt>
      <trkpt lat="37.294465" lon="-3.53212333">
        <ele>1315.0</ele>
        <time>2022-11-13T13:24:34.000Z</time>
      </trkpt>
      <trkpt lat="37.294465" lon="-3.53212333">
        <ele>1315.0</ele>
        <time>2022-11-13T13:24:35.000Z</time>
      </trkpt>
      <trkpt lat="37.294465" lon="-3.532125">
        <ele>1315.0</ele>
        <time>2022-11-13T13:24:36.000Z</time>
      </trkpt>
      <trkpt lat="37.294465" lon="-3.532125">
        <ele>1315.0</ele>
        <time>2022-11-13T13:24:37.000Z</time>
      </trkpt>
      <trkpt lat="37.294465" lon="-3.532125">
        <ele>1315.0</ele>
        <time>2022-11-13T13:24:38.000Z</time>
      </trkpt>
      <trkpt lat="37.294465" lon="-3.532125">
        <ele>1315.0</ele>
        <time>2022-11-13T13:24:39.000Z</time>
      </trkpt>
      <trkpt lat="37.294465" lon="-3.53212333">
        <ele>1315.0</ele>
        <time>2022-11-13T13:24:40.000Z</time>
      </trkpt>
      <trkpt lat="37.294465" lon="-3.53212333">
        <ele>1315.0</ele>
        <time>2022-11-13T13:24:41.000Z</time>
      </trkpt>
      <trkpt lat="37.294465" lon="-3.53212333">
        <ele>1315.0</ele>
        <time>2022-11-13T13:24:42.000Z</time>
      </trkpt>
      <trkpt lat="37.29446167" lon="-3.532125">
        <ele>1315.0</ele>
        <time>2022-11-13T13:24:43.000Z</time>
      </trkpt>
      <trkpt lat="37.29446" lon="-3.53212333">
        <ele>1315.0</ele>
        <time>2022-11-13T13:24:44.000Z</time>
      </trkpt>
      <trkpt lat="37.29445833" lon="-3.53212333">
        <ele>1315.0</ele>
        <time>2022-11-13T13:24:45.000Z</time>
      </trkpt>
      <trkpt lat="37.29445833" lon="-3.53212333">
        <ele>1315.0</ele>
        <time>2022-11-13T13:24:46.000Z</time>
      </trkpt>
      <trkpt lat="37.29445833" lon="-3.53212333">
        <ele>1315.0</ele>
        <time>2022-11-13T13:24:47.000Z</time>
      </trkpt>
      <trkpt lat="37.29445833" lon="-3.53212167">
        <ele>1315.0</ele>
        <time>2022-11-13T13:24:48.000Z</time>
      </trkpt>
      <trkpt lat="37.29445833" lon="-3.53212167">
        <ele>1315.0</ele>
        <time>2022-11-13T13:24:49.000Z</time>
      </trkpt>
      <trkpt lat="37.29445667" lon="-3.53212333">
        <ele>1315.0</ele>
        <time>2022-11-13T13:24:50.000Z</time>
      </trkpt>
      <trkpt lat="37.29445833" lon="-3.53212333">
        <ele>1315.0</ele>
        <time>2022-11-13T13:24:51.000Z</time>
      </trkpt>
      <trkpt lat="37.29445833" lon="-3.53212667">
        <ele>1315.0</ele>
        <time>2022-11-13T13:24:52.000Z</time>
      </trkpt>
      <trkpt lat="37.29445667" lon="-3.53213167">
        <ele>1315.0</ele>
        <time>2022-11-13T13:24:53.000Z</time>
      </trkpt>
      <trkpt lat="37.29444833" lon="-3.532135">
        <ele>1314.0</ele>
        <time>2022-11-13T13:24:54.000Z</time>
      </trkpt>
      <trkpt lat="37.29444333" lon="-3.53213667">
        <ele>1314.0</ele>
        <time>2022-11-13T13:24:55.000Z</time>
      </trkpt>
      <trkpt lat="37.29444" lon="-3.53214">
        <ele>1314.0</ele>
        <time>2022-11-13T13:24:56.000Z</time>
      </trkpt>
      <trkpt lat="37.29443833" lon="-3.53214">
        <ele>1314.0</ele>
        <time>2022-11-13T13:24:57.000Z</time>
      </trkpt>
      <trkpt lat="37.29443667" lon="-3.53214167">
        <ele>1314.0</ele>
        <time>2022-11-13T13:24:58.000Z</time>
      </trkpt>
      <trkpt lat="37.294435" lon="-3.53214333">
        <ele>1314.0</ele>
        <time>2022-11-13T13:24:59.000Z</time>
      </trkpt>
      <trkpt lat="37.294435" lon="-3.53214333">
        <ele>1314.0</ele>
        <time>2022-11-13T13:25:00.000Z</time>
      </trkpt>
      <trkpt lat="37.29443333" lon="-3.53214333">
        <ele>1314.0</ele>
        <time>2022-11-13T13:25:01.000Z</time>
      </trkpt>
      <trkpt lat="37.29443333" lon="-3.53214333">
        <ele>1314.0</ele>
        <time>2022-11-13T13:25:02.000Z</time>
      </trkpt>
      <trkpt lat="37.29443" lon="-3.53214667">
        <ele>1314.0</ele>
        <time>2022-11-13T13:25:03.000Z</time>
      </trkpt>
      <trkpt lat="37.29442333" lon="-3.53214833">
        <ele>1314.0</ele>
        <time>2022-11-13T13:25:04.000Z</time>
      </trkpt>
      <trkpt lat="37.29441667" lon="-3.53214833">
        <ele>1314.0</ele>
        <time>2022-11-13T13:25:05.000Z</time>
      </trkpt>
      <trkpt lat="37.29441" lon="-3.532145">
        <ele>1314.0</ele>
        <time>2022-11-13T13:25:06.000Z</time>
      </trkpt>
      <trkpt lat="37.29440333" lon="-3.53214667">
        <ele>1314.0</ele>
        <time>2022-11-13T13:25:07.000Z</time>
      </trkpt>
      <trkpt lat="37.29439833" lon="-3.53215167">
        <ele>1314.0</ele>
        <time>2022-11-13T13:25:08.000Z</time>
      </trkpt>
      <trkpt lat="37.29439167" lon="-3.53215833">
        <ele>1314.0</ele>
        <time>2022-11-13T13:25:09.000Z</time>
      </trkpt>
      <trkpt lat="37.29438333" lon="-3.53216667">
        <ele>1314.0</ele>
        <time>2022-11-13T13:25:10.000Z</time>
      </trkpt>
      <trkpt lat="37.294375" lon="-3.53217167">
        <ele>1314.0</ele>
        <time>2022-11-13T13:25:11.000Z</time>
      </trkpt>
      <trkpt lat="37.29437" lon="-3.53217833">
        <ele>1313.0</ele>
        <time>2022-11-13T13:25:12.000Z</time>
      </trkpt>
      <trkpt lat="37.29436333" lon="-3.532185">
        <ele>1313.0</ele>
        <time>2022-11-13T13:25:13.000Z</time>
      </trkpt>
      <trkpt lat="37.29435833" lon="-3.53219333">
        <ele>1313.0</ele>
        <time>2022-11-13T13:25:14.000Z</time>
      </trkpt>
      <trkpt lat="37.294355" lon="-3.53219833">
        <ele>1313.0</ele>
        <time>2022-11-13T13:25:15.000Z</time>
      </trkpt>
      <trkpt lat="37.29435167" lon="-3.53220333">
        <ele>1313.0</ele>
        <time>2022-11-13T13:25:16.000Z</time>
      </trkpt>
      <trkpt lat="37.29434667" lon="-3.53221333">
        <ele>1313.0</ele>
        <time>2022-11-13T13:25:17.000Z</time>
      </trkpt>
      <trkpt lat="37.29434667" lon="-3.53221667">
        <ele>1313.0</ele>
        <time>2022-11-13T13:25:18.000Z</time>
      </trkpt>
      <trkpt lat="37.294345" lon="-3.53222167">
        <ele>1313.0</ele>
        <time>2022-11-13T13:25:19.000Z</time>
      </trkpt>
      <trkpt lat="37.29433833" lon="-3.532225">
        <ele>1313.0</ele>
        <time>2022-11-13T13:25:20.000Z</time>
      </trkpt>
      <trkpt lat="37.29433667" lon="-3.53222833">
        <ele>1313.0</ele>
        <time>2022-11-13T13:25:21.000Z</time>
      </trkpt>
      <trkpt lat="37.29433667" lon="-3.53223">
        <ele>1313.0</ele>
        <time>2022-11-13T13:25:22.000Z</time>
      </trkpt>
      <trkpt lat="37.29433667" lon="-3.53222833">
        <ele>1313.0</ele>
        <time>2022-11-13T13:25:23.000Z</time>
      </trkpt>
      <trkpt lat="37.29433667" lon="-3.53222833">
        <ele>1313.0</ele>
        <time>2022-11-13T13:25:24.000Z</time>
      </trkpt>
      <trkpt lat="37.294335" lon="-3.53223333">
        <ele>1313.0</ele>
        <time>2022-11-13T13:25:25.000Z</time>
      </trkpt>
      <trkpt lat="37.29433333" lon="-3.53223667">
        <ele>1313.0</ele>
        <time>2022-11-13T13:25:26.000Z</time>
      </trkpt>
      <trkpt lat="37.29433167" lon="-3.53224">
        <ele>1313.0</ele>
        <time>2022-11-13T13:25:27.000Z</time>
      </trkpt>
      <trkpt lat="37.29433167" lon="-3.532245">
        <ele>1313.0</ele>
        <time>2022-11-13T13:25:28.000Z</time>
      </trkpt>
      <trkpt lat="37.29433" lon="-3.53225167">
        <ele>1313.0</ele>
        <time>2022-11-13T13:25:29.000Z</time>
      </trkpt>
      <trkpt lat="37.294325" lon="-3.532265">
        <ele>1313.0</ele>
        <time>2022-11-13T13:25:30.000Z</time>
      </trkpt>
      <trkpt lat="37.29431833" lon="-3.53227333">
        <ele>1313.0</ele>
        <time>2022-11-13T13:25:31.000Z</time>
      </trkpt>
      <trkpt lat="37.29431" lon="-3.53227833">
        <ele>1313.0</ele>
        <time>2022-11-13T13:25:32.000Z</time>
      </trkpt>
      <trkpt lat="37.29430667" lon="-3.53228167">
        <ele>1312.0</ele>
        <time>2022-11-13T13:25:33.000Z</time>
      </trkpt>
      <trkpt lat="37.29430333" lon="-3.53229">
        <ele>1312.0</ele>
        <time>2022-11-13T13:25:34.000Z</time>
      </trkpt>
      <trkpt lat="37.2943" lon="-3.53230167">
        <ele>1312.0</ele>
        <time>2022-11-13T13:25:35.000Z</time>
      </trkpt>
      <trkpt lat="37.294295" lon="-3.53231167">
        <ele>1312.0</ele>
        <time>2022-11-13T13:25:36.000Z</time>
      </trkpt>
      <trkpt lat="37.29428833" lon="-3.53232333">
        <ele>1312.0</ele>
        <time>2022-11-13T13:25:37.000Z</time>
      </trkpt>
      <trkpt lat="37.29428" lon="-3.53233">
        <ele>1312.0</ele>
        <time>2022-11-13T13:25:38.000Z</time>
      </trkpt>
      <trkpt lat="37.29427667" lon="-3.53233667">
        <ele>1312.0</ele>
        <time>2022-11-13T13:25:39.000Z</time>
      </trkpt>
      <trkpt lat="37.29427" lon="-3.53234667">
        <ele>1312.0</ele>
        <time>2022-11-13T13:25:40.000Z</time>
      </trkpt>
      <trkpt lat="37.294265" lon="-3.532355">
        <ele>1312.0</ele>
        <time>2022-11-13T13:25:41.000Z</time>
      </trkpt>
      <trkpt lat="37.29425833" lon="-3.53235833">
        <ele>1312.0</ele>
        <time>2022-11-13T13:25:42.000Z</time>
      </trkpt>
      <trkpt lat="37.29425167" lon="-3.53236333">
        <ele>1312.0</ele>
        <time>2022-11-13T13:25:43.000Z</time>
      </trkpt>
      <trkpt lat="37.29425" lon="-3.532365">
        <ele>1312.0</ele>
        <time>2022-11-13T13:25:44.000Z</time>
      </trkpt>
      <trkpt lat="37.29425" lon="-3.53236667">
        <ele>1312.0</ele>
        <time>2022-11-13T13:25:45.000Z</time>
      </trkpt>
      <trkpt lat="37.29425" lon="-3.53237">
        <ele>1312.0</ele>
        <time>2022-11-13T13:25:46.000Z</time>
      </trkpt>
      <trkpt lat="37.29425" lon="-3.53237167">
        <ele>1312.0</ele>
        <time>2022-11-13T13:25:47.000Z</time>
      </trkpt>
      <trkpt lat="37.29424833" lon="-3.53237833">
        <ele>1312.0</ele>
        <time>2022-11-13T13:25:48.000Z</time>
      </trkpt>
      <trkpt lat="37.29424333" lon="-3.532385">
        <ele>1312.0</ele>
        <time>2022-11-13T13:25:49.000Z</time>
      </trkpt>
      <trkpt lat="37.29423667" lon="-3.53239">
        <ele>1312.0</ele>
        <time>2022-11-13T13:25:50.000Z</time>
      </trkpt>
      <trkpt lat="37.29423333" lon="-3.532395">
        <ele>1312.0</ele>
        <time>2022-11-13T13:25:51.000Z</time>
      </trkpt>
      <trkpt lat="37.29423" lon="-3.5324">
        <ele>1312.0</ele>
        <time>2022-11-13T13:25:52.000Z</time>
      </trkpt>
      <trkpt lat="37.294225" lon="-3.532405">
        <ele>1312.0</ele>
        <time>2022-11-13T13:25:53.000Z</time>
      </trkpt>
      <trkpt lat="37.29421833" lon="-3.53241">
        <ele>1312.0</ele>
        <time>2022-11-13T13:25:54.000Z</time>
      </trkpt>
      <trkpt lat="37.29421" lon="-3.532415">
        <ele>1312.0</ele>
        <time>2022-11-13T13:25:55.000Z</time>
      </trkpt>
      <trkpt lat="37.294205" lon="-3.53242">
        <ele>1312.0</ele>
        <time>2022-11-13T13:25:56.000Z</time>
      </trkpt>
      <trkpt lat="37.29419833" lon="-3.53242667">
        <ele>1312.0</ele>
        <time>2022-11-13T13:25:57.000Z</time>
      </trkpt>
      <trkpt lat="37.29419167" lon="-3.53243333">
        <ele>1312.0</ele>
        <time>2022-11-13T13:25:58.000Z</time>
      </trkpt>
      <trkpt lat="37.29418667" lon="-3.53243833">
        <ele>1312.0</ele>
        <time>2022-11-13T13:25:59.000Z</time>
      </trkpt>
      <trkpt lat="37.29418167" lon="-3.532445">
        <ele>1312.0</ele>
        <time>2022-11-13T13:26:00.000Z</time>
      </trkpt>
      <trkpt lat="37.29417833" lon="-3.53245333">
        <ele>1312.0</ele>
        <time>2022-11-13T13:26:01.000Z</time>
      </trkpt>
      <trkpt lat="37.29417333" lon="-3.53246">
        <ele>1312.0</ele>
        <time>2022-11-13T13:26:02.000Z</time>
      </trkpt>
      <trkpt lat="37.29416833" lon="-3.53246833">
        <ele>1312.0</ele>
        <time>2022-11-13T13:26:03.000Z</time>
      </trkpt>
      <trkpt lat="37.29416167" lon="-3.53247833">
        <ele>1312.0</ele>
        <time>2022-11-13T13:26:04.000Z</time>
      </trkpt>
      <trkpt lat="37.294155" lon="-3.53248833">
        <ele>1312.0</ele>
        <time>2022-11-13T13:26:05.000Z</time>
      </trkpt>
      <trkpt lat="37.29414833" lon="-3.532495">
        <ele>1312.0</ele>
        <time>2022-11-13T13:26:06.000Z</time>
      </trkpt>
      <trkpt lat="37.294145" lon="-3.532495">
        <ele>1312.0</ele>
        <time>2022-11-13T13:26:07.000Z</time>
      </trkpt>
      <trkpt lat="37.29414333" lon="-3.53249667">
        <ele>1312.0</ele>
        <time>2022-11-13T13:26:08.000Z</time>
      </trkpt>
      <trkpt lat="37.29413667" lon="-3.5325">
        <ele>1312.0</ele>
        <time>2022-11-13T13:26:09.000Z</time>
      </trkpt>
      <trkpt lat="37.29413167" lon="-3.53250333">
        <ele>1312.0</ele>
        <time>2022-11-13T13:26:10.000Z</time>
      </trkpt>
      <trkpt lat="37.294125" lon="-3.53250833">
        <ele>1312.0</ele>
        <time>2022-11-13T13:26:11.000Z</time>
      </trkpt>
      <trkpt lat="37.29412" lon="-3.53251">
        <ele>1312.0</ele>
        <time>2022-11-13T13:26:12.000Z</time>
      </trkpt>
      <trkpt lat="37.294115" lon="-3.53251167">
        <ele>1312.0</ele>
        <time>2022-11-13T13:26:13.000Z</time>
      </trkpt>
      <trkpt lat="37.29411167" lon="-3.53251333">
        <ele>1312.0</ele>
        <time>2022-11-13T13:26:14.000Z</time>
      </trkpt>
      <trkpt lat="37.29411" lon="-3.532515">
        <ele>1312.0</ele>
        <time>2022-11-13T13:26:15.000Z</time>
      </trkpt>
      <trkpt lat="37.29411" lon="-3.53251667">
        <ele>1312.0</ele>
        <time>2022-11-13T13:26:16.000Z</time>
      </trkpt>
      <trkpt lat="37.29410833" lon="-3.53252">
        <ele>1312.0</ele>
        <time>2022-11-13T13:26:17.000Z</time>
      </trkpt>
      <trkpt lat="37.294105" lon="-3.53253">
        <ele>1312.0</ele>
        <time>2022-11-13T13:26:18.000Z</time>
      </trkpt>
      <trkpt lat="37.29410167" lon="-3.53254">
        <ele>1312.0</ele>
        <time>2022-11-13T13:26:19.000Z</time>
      </trkpt>
      <trkpt lat="37.294095" lon="-3.53254833">
        <ele>1312.0</ele>
        <time>2022-11-13T13:26:20.000Z</time>
      </trkpt>
      <trkpt lat="37.29408833" lon="-3.53255667">
        <ele>1312.0</ele>
        <time>2022-11-13T13:26:21.000Z</time>
      </trkpt>
      <trkpt lat="37.29408333" lon="-3.532565">
        <ele>1312.0</ele>
        <time>2022-11-13T13:26:22.000Z</time>
      </trkpt>
      <trkpt lat="37.29407667" lon="-3.532575">
        <ele>1312.0</ele>
        <time>2022-11-13T13:26:23.000Z</time>
      </trkpt>
      <trkpt lat="37.29407333" lon="-3.532585">
        <ele>1312.0</ele>
        <time>2022-11-13T13:26:24.000Z</time>
      </trkpt>
      <trkpt lat="37.29406833" lon="-3.53259167">
        <ele>1312.0</ele>
        <time>2022-11-13T13:26:25.000Z</time>
      </trkpt>
      <trkpt lat="37.29406333" lon="-3.53259833">
        <ele>1312.0</ele>
        <time>2022-11-13T13:26:26.000Z</time>
      </trkpt>
      <trkpt lat="37.29405833" lon="-3.532605">
        <ele>1312.0</ele>
        <time>2022-11-13T13:26:27.000Z</time>
      </trkpt>
      <trkpt lat="37.294055" lon="-3.53261167">
        <ele>1312.0</ele>
        <time>2022-11-13T13:26:28.000Z</time>
      </trkpt>
      <trkpt lat="37.29405167" lon="-3.53261667">
        <ele>1312.0</ele>
        <time>2022-11-13T13:26:29.000Z</time>
      </trkpt>
      <trkpt lat="37.29405" lon="-3.53262">
        <ele>1313.0</ele>
        <time>2022-11-13T13:26:30.000Z</time>
      </trkpt>
      <trkpt lat="37.29405" lon="-3.53262167">
        <ele>1313.0</ele>
        <time>2022-11-13T13:26:31.000Z</time>
      </trkpt>
      <trkpt lat="37.29404833" lon="-3.53262333">
        <ele>1313.0</ele>
        <time>2022-11-13T13:26:32.000Z</time>
      </trkpt>
      <trkpt lat="37.29404667" lon="-3.532625">
        <ele>1313.0</ele>
        <time>2022-11-13T13:26:33.000Z</time>
      </trkpt>
      <trkpt lat="37.29404333" lon="-3.532625">
        <ele>1313.0</ele>
        <time>2022-11-13T13:26:34.000Z</time>
      </trkpt>
      <trkpt lat="37.29403833" lon="-3.53262667">
        <ele>1313.0</ele>
        <time>2022-11-13T13:26:35.000Z</time>
      </trkpt>
      <trkpt lat="37.294035" lon="-3.532625">
        <ele>1313.0</ele>
        <time>2022-11-13T13:26:36.000Z</time>
      </trkpt>
      <trkpt lat="37.29403" lon="-3.532625">
        <ele>1313.0</ele>
        <time>2022-11-13T13:26:37.000Z</time>
      </trkpt>
      <trkpt lat="37.29402833" lon="-3.53262167">
        <ele>1313.0</ele>
        <time>2022-11-13T13:26:38.000Z</time>
      </trkpt>
      <trkpt lat="37.29402833" lon="-3.53262167">
        <ele>1313.0</ele>
        <time>2022-11-13T13:26:39.000Z</time>
      </trkpt>
      <trkpt lat="37.294025" lon="-3.532625">
        <ele>1314.0</ele>
        <time>2022-11-13T13:26:40.000Z</time>
      </trkpt>
      <trkpt lat="37.29402167" lon="-3.53262833">
        <ele>1314.0</ele>
        <time>2022-11-13T13:26:41.000Z</time>
      </trkpt>
      <trkpt lat="37.29402" lon="-3.53263333">
        <ele>1314.0</ele>
        <time>2022-11-13T13:26:42.000Z</time>
      </trkpt>
      <trkpt lat="37.29402" lon="-3.53263833">
        <ele>1314.0</ele>
        <time>2022-11-13T13:26:43.000Z</time>
      </trkpt>
      <trkpt lat="37.29402" lon="-3.53264167">
        <ele>1314.0</ele>
        <time>2022-11-13T13:26:44.000Z</time>
      </trkpt>
      <trkpt lat="37.29402" lon="-3.53264333">
        <ele>1314.0</ele>
        <time>2022-11-13T13:26:45.000Z</time>
      </trkpt>
      <trkpt lat="37.29402" lon="-3.532645">
        <ele>1314.0</ele>
        <time>2022-11-13T13:26:46.000Z</time>
      </trkpt>
      <trkpt lat="37.29401833" lon="-3.53264833">
        <ele>1314.0</ele>
        <time>2022-11-13T13:26:47.000Z</time>
      </trkpt>
      <trkpt lat="37.29401667" lon="-3.53265333">
        <ele>1314.0</ele>
        <time>2022-11-13T13:26:48.000Z</time>
      </trkpt>
      <trkpt lat="37.29401667" lon="-3.53266">
        <ele>1314.0</ele>
        <time>2022-11-13T13:26:49.000Z</time>
      </trkpt>
      <trkpt lat="37.29401667" lon="-3.53266667">
        <ele>1314.0</ele>
        <time>2022-11-13T13:26:50.000Z</time>
      </trkpt>
      <trkpt lat="37.294015" lon="-3.53267167">
        <ele>1314.0</ele>
        <time>2022-11-13T13:26:51.000Z</time>
      </trkpt>
      <trkpt lat="37.29401667" lon="-3.53267833">
        <ele>1314.0</ele>
        <time>2022-11-13T13:26:52.000Z</time>
      </trkpt>
      <trkpt lat="37.29401667" lon="-3.53268667">
        <ele>1314.0</ele>
        <time>2022-11-13T13:26:53.000Z</time>
      </trkpt>
      <trkpt lat="37.294015" lon="-3.53269667">
        <ele>1314.0</ele>
        <time>2022-11-13T13:26:54.000Z</time>
      </trkpt>
      <trkpt lat="37.29401333" lon="-3.5327">
        <ele>1314.0</ele>
        <time>2022-11-13T13:26:55.000Z</time>
      </trkpt>
      <trkpt lat="37.29401167" lon="-3.53270167">
        <ele>1314.0</ele>
        <time>2022-11-13T13:26:56.000Z</time>
      </trkpt>
      <trkpt lat="37.29401" lon="-3.53270333">
        <ele>1314.0</ele>
        <time>2022-11-13T13:26:57.000Z</time>
      </trkpt>
      <trkpt lat="37.29401" lon="-3.532705">
        <ele>1314.0</ele>
        <time>2022-11-13T13:26:58.000Z</time>
      </trkpt>
      <trkpt lat="37.29401" lon="-3.53270667">
        <ele>1314.0</ele>
        <time>2022-11-13T13:26:59.000Z</time>
      </trkpt>
      <trkpt lat="37.29400833" lon="-3.53270667">
        <ele>1314.0</ele>
        <time>2022-11-13T13:27:00.000Z</time>
      </trkpt>
      <trkpt lat="37.29401" lon="-3.53270667">
        <ele>1314.0</ele>
        <time>2022-11-13T13:27:01.000Z</time>
      </trkpt>
      <trkpt lat="37.29401" lon="-3.53270667">
        <ele>1314.0</ele>
        <time>2022-11-13T13:27:02.000Z</time>
      </trkpt>
      <trkpt lat="37.29401" lon="-3.53270667">
        <ele>1314.0</ele>
        <time>2022-11-13T13:27:03.000Z</time>
      </trkpt>
      <trkpt lat="37.29401" lon="-3.53271">
        <ele>1314.0</ele>
        <time>2022-11-13T13:27:04.000Z</time>
      </trkpt>
      <trkpt lat="37.294005" lon="-3.53271167">
        <ele>1314.0</ele>
        <time>2022-11-13T13:27:05.000Z</time>
      </trkpt>
      <trkpt lat="37.294005" lon="-3.53271333">
        <ele>1314.0</ele>
        <time>2022-11-13T13:27:06.000Z</time>
      </trkpt>
      <trkpt lat="37.29400667" lon="-3.53271333">
        <ele>1314.0</ele>
        <time>2022-11-13T13:27:07.000Z</time>
      </trkpt>
      <trkpt lat="37.29400667" lon="-3.53271333">
        <ele>1314.0</ele>
        <time>2022-11-13T13:27:08.000Z</time>
      </trkpt>
      <trkpt lat="37.294005" lon="-3.53271333">
        <ele>1314.0</ele>
        <time>2022-11-13T13:27:09.000Z</time>
      </trkpt>
      <trkpt lat="37.294005" lon="-3.53271333">
        <ele>1314.0</ele>
        <time>2022-11-13T13:27:10.000Z</time>
      </trkpt>
      <trkpt lat="37.29400333" lon="-3.53271">
        <ele>1314.0</ele>
        <time>2022-11-13T13:27:11.000Z</time>
      </trkpt>
      <trkpt lat="37.29400167" lon="-3.53271">
        <ele>1314.0</ele>
        <time>2022-11-13T13:27:12.000Z</time>
      </trkpt>
      <trkpt lat="37.29400167" lon="-3.53271167">
        <ele>1314.0</ele>
        <time>2022-11-13T13:27:13.000Z</time>
      </trkpt>
      <trkpt lat="37.29400167" lon="-3.53271">
        <ele>1314.0</ele>
        <time>2022-11-13T13:27:14.000Z</time>
      </trkpt>
      <trkpt lat="37.29400167" lon="-3.53271">
        <ele>1314.0</ele>
        <time>2022-11-13T13:27:15.000Z</time>
      </trkpt>
      <trkpt lat="37.294" lon="-3.53271">
        <ele>1314.0</ele>
        <time>2022-11-13T13:27:16.000Z</time>
      </trkpt>
      <trkpt lat="37.294" lon="-3.53271">
        <ele>1314.0</ele>
        <time>2022-11-13T13:27:17.000Z</time>
      </trkpt>
      <trkpt lat="37.294" lon="-3.53271">
        <ele>1314.0</ele>
        <time>2022-11-13T13:27:18.000Z</time>
      </trkpt>
      <trkpt lat="37.29399667" lon="-3.532715">
        <ele>1314.0</ele>
        <time>2022-11-13T13:27:19.000Z</time>
      </trkpt>
      <trkpt lat="37.29399333" lon="-3.53271667">
        <ele>1314.0</ele>
        <time>2022-11-13T13:27:20.000Z</time>
      </trkpt>
      <trkpt lat="37.29399167" lon="-3.53272">
        <ele>1314.0</ele>
        <time>2022-11-13T13:27:21.000Z</time>
      </trkpt>
      <trkpt lat="37.29399167" lon="-3.532725">
        <ele>1314.0</ele>
        <time>2022-11-13T13:27:22.000Z</time>
      </trkpt>
      <trkpt lat="37.29399" lon="-3.53272833">
        <ele>1314.0</ele>
        <time>2022-11-13T13:27:23.000Z</time>
      </trkpt>
      <trkpt lat="37.29398833" lon="-3.532735">
        <ele>1314.0</ele>
        <time>2022-11-13T13:27:24.000Z</time>
      </trkpt>
      <trkpt lat="37.293985" lon="-3.53274333">
        <ele>1314.0</ele>
        <time>2022-11-13T13:27:25.000Z</time>
      </trkpt>
      <trkpt lat="37.29398333" lon="-3.532755">
        <ele>1314.0</ele>
        <time>2022-11-13T13:27:26.000Z</time>
      </trkpt>
      <trkpt lat="37.29398" lon="-3.53276667">
        <ele>1314.0</ele>
        <time>2022-11-13T13:27:27.000Z</time>
      </trkpt>
      <trkpt lat="37.29397667" lon="-3.532775">
        <ele>1314.0</ele>
        <time>2022-11-13T13:27:28.000Z</time>
      </trkpt>
      <trkpt lat="37.29397833" lon="-3.532785">
        <ele>1314.0</ele>
        <time>2022-11-13T13:27:29.000Z</time>
      </trkpt>
      <trkpt lat="37.29397667" lon="-3.5328">
        <ele>1314.0</ele>
        <time>2022-11-13T13:27:30.000Z</time>
      </trkpt>
      <trkpt lat="37.29397333" lon="-3.53281167">
        <ele>1314.0</ele>
        <time>2022-11-13T13:27:31.000Z</time>
      </trkpt>
      <trkpt lat="37.29397167" lon="-3.53282333">
        <ele>1313.0</ele>
        <time>2022-11-13T13:27:32.000Z</time>
      </trkpt>
      <trkpt lat="37.29396667" lon="-3.532835">
        <ele>1313.0</ele>
        <time>2022-11-13T13:27:33.000Z</time>
      </trkpt>
      <trkpt lat="37.29396333" lon="-3.532845">
        <ele>1313.0</ele>
        <time>2022-11-13T13:27:34.000Z</time>
      </trkpt>
      <trkpt lat="37.29396" lon="-3.53285333">
        <ele>1313.0</ele>
        <time>2022-11-13T13:27:35.000Z</time>
      </trkpt>
      <trkpt lat="37.29395833" lon="-3.53286167">
        <ele>1313.0</ele>
        <time>2022-11-13T13:27:36.000Z</time>
      </trkpt>
      <trkpt lat="37.29395667" lon="-3.53286667">
        <ele>1313.0</ele>
        <time>2022-11-13T13:27:37.000Z</time>
      </trkpt>
      <trkpt lat="37.29395667" lon="-3.53286833">
        <ele>1313.0</ele>
        <time>2022-11-13T13:27:38.000Z</time>
      </trkpt>
      <trkpt lat="37.29395667" lon="-3.53286667">
        <ele>1313.0</ele>
        <time>2022-11-13T13:27:39.000Z</time>
      </trkpt>
      <trkpt lat="37.29395667" lon="-3.53286667">
        <ele>1313.0</ele>
        <time>2022-11-13T13:27:40.000Z</time>
      </trkpt>
      <trkpt lat="37.29395667" lon="-3.53286833">
        <ele>1313.0</ele>
        <time>2022-11-13T13:27:41.000Z</time>
      </trkpt>
      <trkpt lat="37.29395667" lon="-3.53287">
        <ele>1313.0</ele>
        <time>2022-11-13T13:27:42.000Z</time>
      </trkpt>
      <trkpt lat="37.293955" lon="-3.53287667">
        <ele>1313.0</ele>
        <time>2022-11-13T13:27:43.000Z</time>
      </trkpt>
      <trkpt lat="37.29395333" lon="-3.53288333">
        <ele>1313.0</ele>
        <time>2022-11-13T13:27:44.000Z</time>
      </trkpt>
      <trkpt lat="37.29394833" lon="-3.53289167">
        <ele>1313.0</ele>
        <time>2022-11-13T13:27:45.000Z</time>
      </trkpt>
      <trkpt lat="37.29394333" lon="-3.53290333">
        <ele>1313.0</ele>
        <time>2022-11-13T13:27:46.000Z</time>
      </trkpt>
      <trkpt lat="37.29393833" lon="-3.53291667">
        <ele>1313.0</ele>
        <time>2022-11-13T13:27:47.000Z</time>
      </trkpt>
      <trkpt lat="37.29393333" lon="-3.53292833">
        <ele>1313.0</ele>
        <time>2022-11-13T13:27:48.000Z</time>
      </trkpt>
      <trkpt lat="37.29392833" lon="-3.53293833">
        <ele>1313.0</ele>
        <time>2022-11-13T13:27:49.000Z</time>
      </trkpt>
      <trkpt lat="37.293925" lon="-3.532945">
        <ele>1313.0</ele>
        <time>2022-11-13T13:27:50.000Z</time>
      </trkpt>
      <trkpt lat="37.29392333" lon="-3.53295167">
        <ele>1313.0</ele>
        <time>2022-11-13T13:27:51.000Z</time>
      </trkpt>
      <trkpt lat="37.29392167" lon="-3.53296333">
        <ele>1313.0</ele>
        <time>2022-11-13T13:27:52.000Z</time>
      </trkpt>
      <trkpt lat="37.29391667" lon="-3.53297333">
        <ele>1313.0</ele>
        <time>2022-11-13T13:27:53.000Z</time>
      </trkpt>
      <trkpt lat="37.29391167" lon="-3.53298">
        <ele>1313.0</ele>
        <time>2022-11-13T13:27:54.000Z</time>
      </trkpt>
      <trkpt lat="37.29390833" lon="-3.532985">
        <ele>1313.0</ele>
        <time>2022-11-13T13:27:55.000Z</time>
      </trkpt>
      <trkpt lat="37.29390167" lon="-3.53299">
        <ele>1313.0</ele>
        <time>2022-11-13T13:27:56.000Z</time>
      </trkpt>
      <trkpt lat="37.2939" lon="-3.53299">
        <ele>1313.0</ele>
        <time>2022-11-13T13:27:57.000Z</time>
      </trkpt>
      <trkpt lat="37.2939" lon="-3.53299167">
        <ele>1313.0</ele>
        <time>2022-11-13T13:27:58.000Z</time>
      </trkpt>
      <trkpt lat="37.29389833" lon="-3.53299167">
        <ele>1313.0</ele>
        <time>2022-11-13T13:27:59.000Z</time>
      </trkpt>
      <trkpt lat="37.29389833" lon="-3.53299333">
        <ele>1313.0</ele>
        <time>2022-11-13T13:28:00.000Z</time>
      </trkpt>
      <trkpt lat="37.29389833" lon="-3.53299333">
        <ele>1313.0</ele>
        <time>2022-11-13T13:28:01.000Z</time>
      </trkpt>
      <trkpt lat="37.2939" lon="-3.53299333">
        <ele>1313.0</ele>
        <time>2022-11-13T13:28:02.000Z</time>
      </trkpt>
      <trkpt lat="37.2939" lon="-3.53299167">
        <ele>1313.0</ele>
        <time>2022-11-13T13:28:03.000Z</time>
      </trkpt>
      <trkpt lat="37.29389833" lon="-3.53299167">
        <ele>1313.0</ele>
        <time>2022-11-13T13:28:04.000Z</time>
      </trkpt>
      <trkpt lat="37.29389833" lon="-3.53299333">
        <ele>1313.0</ele>
        <time>2022-11-13T13:28:05.000Z</time>
      </trkpt>
      <trkpt lat="37.29389833" lon="-3.53299333">
        <ele>1313.0</ele>
        <time>2022-11-13T13:28:06.000Z</time>
      </trkpt>
      <trkpt lat="37.2939" lon="-3.53299333">
        <ele>1313.0</ele>
        <time>2022-11-13T13:28:07.000Z</time>
      </trkpt>
      <trkpt lat="37.29389833" lon="-3.53299333">
        <ele>1313.0</ele>
        <time>2022-11-13T13:28:08.000Z</time>
      </trkpt>
      <trkpt lat="37.29389833" lon="-3.53299333">
        <ele>1313.0</ele>
        <time>2022-11-13T13:28:09.000Z</time>
      </trkpt>
      <trkpt lat="37.29389833" lon="-3.532995">
        <ele>1313.0</ele>
        <time>2022-11-13T13:28:10.000Z</time>
      </trkpt>
      <trkpt lat="37.29389833" lon="-3.532995">
        <ele>1313.0</ele>
        <time>2022-11-13T13:28:11.000Z</time>
      </trkpt>
      <trkpt lat="37.29389833" lon="-3.532995">
        <ele>1313.0</ele>
        <time>2022-11-13T13:28:12.000Z</time>
      </trkpt>
      <trkpt lat="37.29389833" lon="-3.53299667">
        <ele>1313.0</ele>
        <time>2022-11-13T13:28:13.000Z</time>
      </trkpt>
      <trkpt lat="37.29389833" lon="-3.53299667">
        <ele>1313.0</ele>
        <time>2022-11-13T13:28:14.000Z</time>
      </trkpt>
      <trkpt lat="37.29389833" lon="-3.53299667">
        <ele>1313.0</ele>
        <time>2022-11-13T13:28:15.000Z</time>
      </trkpt>
      <trkpt lat="37.29389833" lon="-3.53299667">
        <ele>1313.0</ele>
        <time>2022-11-13T13:28:16.000Z</time>
      </trkpt>
      <trkpt lat="37.29389833" lon="-3.53299833">
        <ele>1313.0</ele>
        <time>2022-11-13T13:28:17.000Z</time>
      </trkpt>
      <trkpt lat="37.29389833" lon="-3.53299833">
        <ele>1313.0</ele>
        <time>2022-11-13T13:28:18.000Z</time>
      </trkpt>
      <trkpt lat="37.29389833" lon="-3.53299833">
        <ele>1313.0</ele>
        <time>2022-11-13T13:28:19.000Z</time>
      </trkpt>
      <trkpt lat="37.29389833" lon="-3.53299833">
        <ele>1313.0</ele>
        <time>2022-11-13T13:28:20.000Z</time>
      </trkpt>
      <trkpt lat="37.29389667" lon="-3.533">
        <ele>1313.0</ele>
        <time>2022-11-13T13:28:21.000Z</time>
      </trkpt>
      <trkpt lat="37.29389333" lon="-3.53300167">
        <ele>1313.0</ele>
        <time>2022-11-13T13:28:22.000Z</time>
      </trkpt>
      <trkpt lat="37.29389" lon="-3.53300167">
        <ele>1313.0</ele>
        <time>2022-11-13T13:28:23.000Z</time>
      </trkpt>
      <trkpt lat="37.29388833" lon="-3.53300167">
        <ele>1313.0</ele>
        <time>2022-11-13T13:28:24.000Z</time>
      </trkpt>
      <trkpt lat="37.29388833" lon="-3.53300333">
        <ele>1313.0</ele>
        <time>2022-11-13T13:28:25.000Z</time>
      </trkpt>
      <trkpt lat="37.29388833" lon="-3.53300333">
        <ele>1313.0</ele>
        <time>2022-11-13T13:28:26.000Z</time>
      </trkpt>
      <trkpt lat="37.29388833" lon="-3.53300333">
        <ele>1313.0</ele>
        <time>2022-11-13T13:28:27.000Z</time>
      </trkpt>
      <trkpt lat="37.29388833" lon="-3.53300333">
        <ele>1313.0</ele>
        <time>2022-11-13T13:28:28.000Z</time>
      </trkpt>
      <trkpt lat="37.29388833" lon="-3.53300333">
        <ele>1313.0</ele>
        <time>2022-11-13T13:28:29.000Z</time>
      </trkpt>
      <trkpt lat="37.29388833" lon="-3.533005">
        <ele>1313.0</ele>
        <time>2022-11-13T13:28:30.000Z</time>
      </trkpt>
      <trkpt lat="37.29388833" lon="-3.53300333">
        <ele>1313.0</ele>
        <time>2022-11-13T13:28:31.000Z</time>
      </trkpt>
      <trkpt lat="37.29388667" lon="-3.533005">
        <ele>1313.0</ele>
        <time>2022-11-13T13:28:32.000Z</time>
      </trkpt>
      <trkpt lat="37.29388333" lon="-3.53300667">
        <ele>1313.0</ele>
        <time>2022-11-13T13:28:33.000Z</time>
      </trkpt>
      <trkpt lat="37.29388333" lon="-3.53300667">
        <ele>1314.0</ele>
        <time>2022-11-13T13:28:34.000Z</time>
      </trkpt>
      <trkpt lat="37.29388333" lon="-3.53300833">
        <ele>1314.0</ele>
        <time>2022-11-13T13:28:35.000Z</time>
      </trkpt>
      <trkpt lat="37.29388333" lon="-3.53300833">
        <ele>1314.0</ele>
        <time>2022-11-13T13:28:36.000Z</time>
      </trkpt>
      <trkpt lat="37.29388333" lon="-3.53300833">
        <ele>1314.0</ele>
        <time>2022-11-13T13:28:37.000Z</time>
      </trkpt>
      <trkpt lat="37.293885" lon="-3.53300833">
        <ele>1314.0</ele>
        <time>2022-11-13T13:28:38.000Z</time>
      </trkpt>
      <trkpt lat="37.293885" lon="-3.53300833">
        <ele>1314.0</ele>
        <time>2022-11-13T13:28:39.000Z</time>
      </trkpt>
      <trkpt lat="37.293885" lon="-3.53300833">
        <ele>1314.0</ele>
        <time>2022-11-13T13:28:40.000Z</time>
      </trkpt>
      <trkpt lat="37.293885" lon="-3.53300667">
        <ele>1314.0</ele>
        <time>2022-11-13T13:28:41.000Z</time>
      </trkpt>
      <trkpt lat="37.293885" lon="-3.53300667">
        <ele>1314.0</ele>
        <time>2022-11-13T13:28:42.000Z</time>
      </trkpt>
      <trkpt lat="37.29388667" lon="-3.53300667">
        <ele>1314.0</ele>
        <time>2022-11-13T13:28:43.000Z</time>
      </trkpt>
      <trkpt lat="37.29388667" lon="-3.533005">
        <ele>1314.0</ele>
        <time>2022-11-13T13:28:44.000Z</time>
      </trkpt>
      <trkpt lat="37.293885" lon="-3.533005">
        <ele>1314.0</ele>
        <time>2022-11-13T13:28:45.000Z</time>
      </trkpt>
      <trkpt lat="37.293885" lon="-3.533005">
        <ele>1314.0</ele>
        <time>2022-11-13T13:28:46.000Z</time>
      </trkpt>
      <trkpt lat="37.29388667" lon="-3.53300333">
        <ele>1314.0</ele>
        <time>2022-11-13T13:28:47.000Z</time>
      </trkpt>
      <trkpt lat="37.29388667" lon="-3.53300333">
        <ele>1314.0</ele>
        <time>2022-11-13T13:28:48.000Z</time>
      </trkpt>
      <trkpt lat="37.29388667" lon="-3.53300333">
        <ele>1314.0</ele>
        <time>2022-11-13T13:28:49.000Z</time>
      </trkpt>
      <trkpt lat="37.29388667" lon="-3.53300167">
        <ele>1314.0</ele>
        <time>2022-11-13T13:28:50.000Z</time>
      </trkpt>
      <trkpt lat="37.29388833" lon="-3.53300333">
        <ele>1314.0</ele>
        <time>2022-11-13T13:28:51.000Z</time>
      </trkpt>
      <trkpt lat="37.29388833" lon="-3.533005">
        <ele>1314.0</ele>
        <time>2022-11-13T13:28:52.000Z</time>
      </trkpt>
      <trkpt lat="37.29388833" lon="-3.533005">
        <ele>1314.0</ele>
        <time>2022-11-13T13:28:53.000Z</time>
      </trkpt>
      <trkpt lat="37.29389" lon="-3.53300667">
        <ele>1314.0</ele>
        <time>2022-11-13T13:28:54.000Z</time>
      </trkpt>
      <trkpt lat="37.29389" lon="-3.53300667">
        <ele>1314.0</ele>
        <time>2022-11-13T13:28:55.000Z</time>
      </trkpt>
      <trkpt lat="37.29388833" lon="-3.53300667">
        <ele>1315.0</ele>
        <time>2022-11-13T13:28:56.000Z</time>
      </trkpt>
      <trkpt lat="37.29388833" lon="-3.53300833">
        <ele>1315.0</ele>
        <time>2022-11-13T13:28:57.000Z</time>
      </trkpt>
      <trkpt lat="37.29388833" lon="-3.53300833">
        <ele>1315.0</ele>
        <time>2022-11-13T13:28:58.000Z</time>
      </trkpt>
      <trkpt lat="37.29389" lon="-3.53300833">
        <ele>1315.0</ele>
        <time>2022-11-13T13:28:59.000Z</time>
      </trkpt>
      <trkpt lat="37.29389" lon="-3.53301">
        <ele>1315.0</ele>
        <time>2022-11-13T13:29:00.000Z</time>
      </trkpt>
      <trkpt lat="37.29389" lon="-3.53301">
        <ele>1315.0</ele>
        <time>2022-11-13T13:29:01.000Z</time>
      </trkpt>
      <trkpt lat="37.29389" lon="-3.53301">
        <ele>1315.0</ele>
        <time>2022-11-13T13:29:02.000Z</time>
      </trkpt>
      <trkpt lat="37.29389" lon="-3.53301">
        <ele>1315.0</ele>
        <time>2022-11-13T13:29:03.000Z</time>
      </trkpt>
      <trkpt lat="37.29389" lon="-3.53301167">
        <ele>1315.0</ele>
        <time>2022-11-13T13:29:04.000Z</time>
      </trkpt>
      <trkpt lat="37.29389" lon="-3.53301167">
        <ele>1315.0</ele>
        <time>2022-11-13T13:29:05.000Z</time>
      </trkpt>
      <trkpt lat="37.29389" lon="-3.53301167">
        <ele>1315.0</ele>
        <time>2022-11-13T13:29:06.000Z</time>
      </trkpt>
      <trkpt lat="37.29389" lon="-3.53301167">
        <ele>1315.0</ele>
        <time>2022-11-13T13:29:07.000Z</time>
      </trkpt>
      <trkpt lat="37.29388833" lon="-3.53301167">
        <ele>1315.0</ele>
        <time>2022-11-13T13:29:08.000Z</time>
      </trkpt>
      <trkpt lat="37.29388833" lon="-3.53301167">
        <ele>1315.0</ele>
        <time>2022-11-13T13:29:09.000Z</time>
      </trkpt>
      <trkpt lat="37.29388667" lon="-3.53301333">
        <ele>1316.0</ele>
        <time>2022-11-13T13:29:10.000Z</time>
      </trkpt>
      <trkpt lat="37.29388667" lon="-3.53301333">
        <ele>1316.0</ele>
        <time>2022-11-13T13:29:11.000Z</time>
      </trkpt>
      <trkpt lat="37.29388667" lon="-3.53301333">
        <ele>1316.0</ele>
        <time>2022-11-13T13:29:12.000Z</time>
      </trkpt>
      <trkpt lat="37.29388667" lon="-3.53301167">
        <ele>1316.0</ele>
        <time>2022-11-13T13:29:13.000Z</time>
      </trkpt>
      <trkpt lat="37.29388667" lon="-3.53301167">
        <ele>1316.0</ele>
        <time>2022-11-13T13:29:14.000Z</time>
      </trkpt>
      <trkpt lat="37.29388833" lon="-3.53301">
        <ele>1316.0</ele>
        <time>2022-11-13T13:29:15.000Z</time>
      </trkpt>
      <trkpt lat="37.29388833" lon="-3.53301">
        <ele>1316.0</ele>
        <time>2022-11-13T13:29:16.000Z</time>
      </trkpt>
      <trkpt lat="37.29388833" lon="-3.53301">
        <ele>1316.0</ele>
        <time>2022-11-13T13:29:17.000Z</time>
      </trkpt>
      <trkpt lat="37.29388833" lon="-3.53301167">
        <ele>1316.0</ele>
        <time>2022-11-13T13:29:18.000Z</time>
      </trkpt>
      <trkpt lat="37.29388833" lon="-3.53301167">
        <ele>1316.0</ele>
        <time>2022-11-13T13:29:19.000Z</time>
      </trkpt>
      <trkpt lat="37.29389" lon="-3.53301">
        <ele>1316.0</ele>
        <time>2022-11-13T13:29:20.000Z</time>
      </trkpt>
      <trkpt lat="37.29389" lon="-3.53301">
        <ele>1316.0</ele>
        <time>2022-11-13T13:29:21.000Z</time>
      </trkpt>
      <trkpt lat="37.29389" lon="-3.53301">
        <ele>1316.0</ele>
        <time>2022-11-13T13:29:22.000Z</time>
      </trkpt>
      <trkpt lat="37.29389" lon="-3.53301">
        <ele>1316.0</ele>
        <time>2022-11-13T13:29:23.000Z</time>
      </trkpt>
      <trkpt lat="37.29389" lon="-3.53301">
        <ele>1316.0</ele>
        <time>2022-11-13T13:29:24.000Z</time>
      </trkpt>
      <trkpt lat="37.29389" lon="-3.53301">
        <ele>1316.0</ele>
        <time>2022-11-13T13:29:25.000Z</time>
      </trkpt>
      <trkpt lat="37.29389" lon="-3.53301">
        <ele>1316.0</ele>
        <time>2022-11-13T13:29:26.000Z</time>
      </trkpt>
      <trkpt lat="37.29389" lon="-3.53301">
        <ele>1316.0</ele>
        <time>2022-11-13T13:29:27.000Z</time>
      </trkpt>
      <trkpt lat="37.29389" lon="-3.53300833">
        <ele>1316.0</ele>
        <time>2022-11-13T13:29:28.000Z</time>
      </trkpt>
      <trkpt lat="37.29389" lon="-3.53300833">
        <ele>1316.0</ele>
        <time>2022-11-13T13:29:29.000Z</time>
      </trkpt>
      <trkpt lat="37.29389" lon="-3.53300833">
        <ele>1316.0</ele>
        <time>2022-11-13T13:29:30.000Z</time>
      </trkpt>
      <trkpt lat="37.29388833" lon="-3.53300833">
        <ele>1316.0</ele>
        <time>2022-11-13T13:29:31.000Z</time>
      </trkpt>
      <trkpt lat="37.29388833" lon="-3.53301">
        <ele>1316.0</ele>
        <time>2022-11-13T13:29:32.000Z</time>
      </trkpt>
      <trkpt lat="37.29388833" lon="-3.53301">
        <ele>1316.0</ele>
        <time>2022-11-13T13:29:33.000Z</time>
      </trkpt>
      <trkpt lat="37.29388833" lon="-3.53301">
        <ele>1316.0</ele>
        <time>2022-11-13T13:29:34.000Z</time>
      </trkpt>
      <trkpt lat="37.29388833" lon="-3.53301">
        <ele>1316.0</ele>
        <time>2022-11-13T13:29:35.000Z</time>
      </trkpt>
      <trkpt lat="37.29388833" lon="-3.53301">
        <ele>1316.0</ele>
        <time>2022-11-13T13:29:36.000Z</time>
      </trkpt>
      <trkpt lat="37.29388833" lon="-3.53301">
        <ele>1316.0</ele>
        <time>2022-11-13T13:29:37.000Z</time>
      </trkpt>
      <trkpt lat="37.29388667" lon="-3.53301">
        <ele>1316.0</ele>
        <time>2022-11-13T13:29:38.000Z</time>
      </trkpt>
      <trkpt lat="37.29388667" lon="-3.53301">
        <ele>1316.0</ele>
        <time>2022-11-13T13:29:39.000Z</time>
      </trkpt>
      <trkpt lat="37.293885" lon="-3.53301">
        <ele>1316.0</ele>
        <time>2022-11-13T13:29:40.000Z</time>
      </trkpt>
      <trkpt lat="37.29388333" lon="-3.53301">
        <ele>1316.0</ele>
        <time>2022-11-13T13:29:41.000Z</time>
      </trkpt>
      <trkpt lat="37.29388167" lon="-3.53301">
        <ele>1316.0</ele>
        <time>2022-11-13T13:29:42.000Z</time>
      </trkpt>
      <trkpt lat="37.29387833" lon="-3.53301333">
        <ele>1316.0</ele>
        <time>2022-11-13T13:29:43.000Z</time>
      </trkpt>
      <trkpt lat="37.29387833" lon="-3.533015">
        <ele>1316.0</ele>
        <time>2022-11-13T13:29:44.000Z</time>
      </trkpt>
      <trkpt lat="37.29387833" lon="-3.533015">
        <ele>1316.0</ele>
        <time>2022-11-13T13:29:45.000Z</time>
      </trkpt>
      <trkpt lat="37.29387833" lon="-3.53301333">
        <ele>1316.0</ele>
        <time>2022-11-13T13:29:46.000Z</time>
      </trkpt>
      <trkpt lat="37.29387833" lon="-3.53301333">
        <ele>1316.0</ele>
        <time>2022-11-13T13:29:47.000Z</time>
      </trkpt>
      <trkpt lat="37.29387667" lon="-3.53301333">
        <ele>1316.0</ele>
        <time>2022-11-13T13:29:48.000Z</time>
      </trkpt>
      <trkpt lat="37.29387667" lon="-3.53301333">
        <ele>1316.0</ele>
        <time>2022-11-13T13:29:49.000Z</time>
      </trkpt>
      <trkpt lat="37.293875" lon="-3.533015">
        <ele>1316.0</ele>
        <time>2022-11-13T13:29:50.000Z</time>
      </trkpt>
      <trkpt lat="37.29387667" lon="-3.53301667">
        <ele>1316.0</ele>
        <time>2022-11-13T13:29:51.000Z</time>
      </trkpt>
      <trkpt lat="37.29387667" lon="-3.53301667">
        <ele>1316.0</ele>
        <time>2022-11-13T13:29:52.000Z</time>
      </trkpt>
      <trkpt lat="37.29387667" lon="-3.53301667">
        <ele>1316.0</ele>
        <time>2022-11-13T13:29:53.000Z</time>
      </trkpt>
      <trkpt lat="37.293875" lon="-3.53301667">
        <ele>1316.0</ele>
        <time>2022-11-13T13:29:54.000Z</time>
      </trkpt>
      <trkpt lat="37.293875" lon="-3.53301667">
        <ele>1316.0</ele>
        <time>2022-11-13T13:29:55.000Z</time>
      </trkpt>
      <trkpt lat="37.29387667" lon="-3.53301667">
        <ele>1316.0</ele>
        <time>2022-11-13T13:29:56.000Z</time>
      </trkpt>
      <trkpt lat="37.293875" lon="-3.53301833">
        <ele>1316.0</ele>
        <time>2022-11-13T13:29:57.000Z</time>
      </trkpt>
      <trkpt lat="37.29387167" lon="-3.53302">
        <ele>1316.0</ele>
        <time>2022-11-13T13:29:58.000Z</time>
      </trkpt>
      <trkpt lat="37.29387333" lon="-3.53301833">
        <ele>1316.0</ele>
        <time>2022-11-13T13:29:59.000Z</time>
      </trkpt>
      <trkpt lat="37.29387333" lon="-3.53301833">
        <ele>1316.0</ele>
        <time>2022-11-13T13:30:00.000Z</time>
      </trkpt>
      <trkpt lat="37.29387333" lon="-3.53301667">
        <ele>1316.0</ele>
        <time>2022-11-13T13:30:01.000Z</time>
      </trkpt>
      <trkpt lat="37.29387333" lon="-3.53301833">
        <ele>1316.0</ele>
        <time>2022-11-13T13:30:02.000Z</time>
      </trkpt>
      <trkpt lat="37.29387333" lon="-3.533015">
        <ele>1316.0</ele>
        <time>2022-11-13T13:30:03.000Z</time>
      </trkpt>
      <trkpt lat="37.29387333" lon="-3.53301667">
        <ele>1316.0</ele>
        <time>2022-11-13T13:30:04.000Z</time>
      </trkpt>
      <trkpt lat="37.29387333" lon="-3.53301667">
        <ele>1316.0</ele>
        <time>2022-11-13T13:30:05.000Z</time>
      </trkpt>
      <trkpt lat="37.29387333" lon="-3.53301667">
        <ele>1316.0</ele>
        <time>2022-11-13T13:30:06.000Z</time>
      </trkpt>
      <trkpt lat="37.29387333" lon="-3.53301667">
        <ele>1316.0</ele>
        <time>2022-11-13T13:30:07.000Z</time>
      </trkpt>
      <trkpt lat="37.293875" lon="-3.53301833">
        <ele>1316.0</ele>
        <time>2022-11-13T13:30:08.000Z</time>
      </trkpt>
      <trkpt lat="37.293875" lon="-3.53301833">
        <ele>1316.0</ele>
        <time>2022-11-13T13:30:09.000Z</time>
      </trkpt>
      <trkpt lat="37.29387667" lon="-3.53301833">
        <ele>1316.0</ele>
        <time>2022-11-13T13:30:10.000Z</time>
      </trkpt>
      <trkpt lat="37.29387667" lon="-3.53301833">
        <ele>1316.0</ele>
        <time>2022-11-13T13:30:11.000Z</time>
      </trkpt>
      <trkpt lat="37.29387667" lon="-3.53301833">
        <ele>1316.0</ele>
        <time>2022-11-13T13:30:12.000Z</time>
      </trkpt>
      <trkpt lat="37.29387667" lon="-3.53301833">
        <ele>1316.0</ele>
        <time>2022-11-13T13:30:13.000Z</time>
      </trkpt>
      <trkpt lat="37.29387833" lon="-3.53302">
        <ele>1316.0</ele>
        <time>2022-11-13T13:30:14.000Z</time>
      </trkpt>
      <trkpt lat="37.29387667" lon="-3.53301667">
        <ele>1316.0</ele>
        <time>2022-11-13T13:30:15.000Z</time>
      </trkpt>
      <trkpt lat="37.293875" lon="-3.53301333">
        <ele>1316.0</ele>
        <time>2022-11-13T13:30:16.000Z</time>
      </trkpt>
      <trkpt lat="37.29387333" lon="-3.53301167">
        <ele>1316.0</ele>
        <time>2022-11-13T13:30:17.000Z</time>
      </trkpt>
      <trkpt lat="37.293875" lon="-3.53301">
        <ele>1316.0</ele>
        <time>2022-11-13T13:30:18.000Z</time>
      </trkpt>
      <trkpt lat="37.29387" lon="-3.53301167">
        <ele>1316.0</ele>
        <time>2022-11-13T13:30:19.000Z</time>
      </trkpt>
      <trkpt lat="37.29386667" lon="-3.53301333">
        <ele>1316.0</ele>
        <time>2022-11-13T13:30:20.000Z</time>
      </trkpt>
      <trkpt lat="37.29386333" lon="-3.53301667">
        <ele>1316.0</ele>
        <time>2022-11-13T13:30:21.000Z</time>
      </trkpt>
      <trkpt lat="37.29386167" lon="-3.53302167">
        <ele>1316.0</ele>
        <time>2022-11-13T13:30:22.000Z</time>
      </trkpt>
      <trkpt lat="37.29385833" lon="-3.53302667">
        <ele>1316.0</ele>
        <time>2022-11-13T13:30:23.000Z</time>
      </trkpt>
      <trkpt lat="37.29385833" lon="-3.53302667">
        <ele>1316.0</ele>
        <time>2022-11-13T13:30:24.000Z</time>
      </trkpt>
      <trkpt lat="37.29385833" lon="-3.53302667">
        <ele>1316.0</ele>
        <time>2022-11-13T13:30:25.000Z</time>
      </trkpt>
      <trkpt lat="37.29385833" lon="-3.533025">
        <ele>1316.0</ele>
        <time>2022-11-13T13:30:26.000Z</time>
      </trkpt>
      <trkpt lat="37.29385833" lon="-3.53302667">
        <ele>1316.0</ele>
        <time>2022-11-13T13:30:27.000Z</time>
      </trkpt>
      <trkpt lat="37.29385833" lon="-3.53302833">
        <ele>1316.0</ele>
        <time>2022-11-13T13:30:28.000Z</time>
      </trkpt>
      <trkpt lat="37.29386" lon="-3.53303333">
        <ele>1316.0</ele>
        <time>2022-11-13T13:30:29.000Z</time>
      </trkpt>
      <trkpt lat="37.29386167" lon="-3.53303333">
        <ele>1316.0</ele>
        <time>2022-11-13T13:30:30.000Z</time>
      </trkpt>
      <trkpt lat="37.293865" lon="-3.533035">
        <ele>1316.0</ele>
        <time>2022-11-13T13:30:31.000Z</time>
      </trkpt>
      <trkpt lat="37.29386667" lon="-3.53304">
        <ele>1316.0</ele>
        <time>2022-11-13T13:30:32.000Z</time>
      </trkpt>
      <trkpt lat="37.29386667" lon="-3.53304333">
        <ele>1316.0</ele>
        <time>2022-11-13T13:30:33.000Z</time>
      </trkpt>
      <trkpt lat="37.29386667" lon="-3.53304667">
        <ele>1316.0</ele>
        <time>2022-11-13T13:30:34.000Z</time>
      </trkpt>
      <trkpt lat="37.29386667" lon="-3.533045">
        <ele>1316.0</ele>
        <time>2022-11-13T13:30:35.000Z</time>
      </trkpt>
      <trkpt lat="37.29386667" lon="-3.53304333">
        <ele>1316.0</ele>
        <time>2022-11-13T13:30:36.000Z</time>
      </trkpt>
      <trkpt lat="37.293865" lon="-3.53304333">
        <ele>1316.0</ele>
        <time>2022-11-13T13:30:37.000Z</time>
      </trkpt>
      <trkpt lat="37.293865" lon="-3.53304333">
        <ele>1316.0</ele>
        <time>2022-11-13T13:30:38.000Z</time>
      </trkpt>
      <trkpt lat="37.29386333" lon="-3.53304333">
        <ele>1316.0</ele>
        <time>2022-11-13T13:30:39.000Z</time>
      </trkpt>
      <trkpt lat="37.29386333" lon="-3.533045">
        <ele>1316.0</ele>
        <time>2022-11-13T13:30:40.000Z</time>
      </trkpt>
      <trkpt lat="37.29386333" lon="-3.53304833">
        <ele>1316.0</ele>
        <time>2022-11-13T13:30:41.000Z</time>
      </trkpt>
      <trkpt lat="37.29386167" lon="-3.53305">
        <ele>1316.0</ele>
        <time>2022-11-13T13:30:42.000Z</time>
      </trkpt>
      <trkpt lat="37.29386333" lon="-3.53305">
        <ele>1315.0</ele>
        <time>2022-11-13T13:30:43.000Z</time>
      </trkpt>
      <trkpt lat="37.29386167" lon="-3.53305">
        <ele>1315.0</ele>
        <time>2022-11-13T13:30:44.000Z</time>
      </trkpt>
      <trkpt lat="37.29386" lon="-3.53305333">
        <ele>1315.0</ele>
        <time>2022-11-13T13:30:45.000Z</time>
      </trkpt>
      <trkpt lat="37.29386" lon="-3.533055">
        <ele>1315.0</ele>
        <time>2022-11-13T13:30:46.000Z</time>
      </trkpt>
      <trkpt lat="37.29386" lon="-3.53305667">
        <ele>1315.0</ele>
        <time>2022-11-13T13:30:47.000Z</time>
      </trkpt>
      <trkpt lat="37.29385667" lon="-3.53306167">
        <ele>1315.0</ele>
        <time>2022-11-13T13:30:48.000Z</time>
      </trkpt>
      <trkpt lat="37.29385333" lon="-3.53306333">
        <ele>1315.0</ele>
        <time>2022-11-13T13:30:49.000Z</time>
      </trkpt>
      <trkpt lat="37.29385167" lon="-3.53306833">
        <ele>1315.0</ele>
        <time>2022-11-13T13:30:50.000Z</time>
      </trkpt>
      <trkpt lat="37.29384667" lon="-3.53307667">
        <ele>1315.0</ele>
        <time>2022-11-13T13:30:51.000Z</time>
      </trkpt>
      <trkpt lat="37.29384333" lon="-3.53308333">
        <ele>1315.0</ele>
        <time>2022-11-13T13:30:52.000Z</time>
      </trkpt>
      <trkpt lat="37.29384" lon="-3.53309">
        <ele>1315.0</ele>
        <time>2022-11-13T13:30:53.000Z</time>
      </trkpt>
      <trkpt lat="37.29384" lon="-3.53310333">
        <ele>1315.0</ele>
        <time>2022-11-13T13:30:54.000Z</time>
      </trkpt>
      <trkpt lat="37.29384" lon="-3.53311333">
        <ele>1315.0</ele>
        <time>2022-11-13T13:30:55.000Z</time>
      </trkpt>
      <trkpt lat="37.29383833" lon="-3.53312167">
        <ele>1315.0</ele>
        <time>2022-11-13T13:30:56.000Z</time>
      </trkpt>
      <trkpt lat="37.293835" lon="-3.53313">
        <ele>1315.0</ele>
        <time>2022-11-13T13:30:57.000Z</time>
      </trkpt>
      <trkpt lat="37.29383333" lon="-3.53313667">
        <ele>1315.0</ele>
        <time>2022-11-13T13:30:58.000Z</time>
      </trkpt>
      <trkpt lat="37.29383167" lon="-3.53314">
        <ele>1315.0</ele>
        <time>2022-11-13T13:30:59.000Z</time>
      </trkpt>
      <trkpt lat="37.29383167" lon="-3.53314">
        <ele>1315.0</ele>
        <time>2022-11-13T13:31:00.000Z</time>
      </trkpt>
      <trkpt lat="37.29383333" lon="-3.53314167">
        <ele>1315.0</ele>
        <time>2022-11-13T13:31:01.000Z</time>
      </trkpt>
      <trkpt lat="37.29383167" lon="-3.53314333">
        <ele>1315.0</ele>
        <time>2022-11-13T13:31:02.000Z</time>
      </trkpt>
      <trkpt lat="37.29383167" lon="-3.533145">
        <ele>1315.0</ele>
        <time>2022-11-13T13:31:03.000Z</time>
      </trkpt>
      <trkpt lat="37.29383167" lon="-3.53314833">
        <ele>1315.0</ele>
        <time>2022-11-13T13:31:04.000Z</time>
      </trkpt>
      <trkpt lat="37.29383167" lon="-3.53315">
        <ele>1315.0</ele>
        <time>2022-11-13T13:31:05.000Z</time>
      </trkpt>
      <trkpt lat="37.29383167" lon="-3.53315167">
        <ele>1315.0</ele>
        <time>2022-11-13T13:31:06.000Z</time>
      </trkpt>
      <trkpt lat="37.29383167" lon="-3.53315333">
        <ele>1315.0</ele>
        <time>2022-11-13T13:31:07.000Z</time>
      </trkpt>
      <trkpt lat="37.29383167" lon="-3.53315333">
        <ele>1315.0</ele>
        <time>2022-11-13T13:31:08.000Z</time>
      </trkpt>
      <trkpt lat="37.29383167" lon="-3.53315333">
        <ele>1315.0</ele>
        <time>2022-11-13T13:31:09.000Z</time>
      </trkpt>
      <trkpt lat="37.29383167" lon="-3.53315333">
        <ele>1315.0</ele>
        <time>2022-11-13T13:31:10.000Z</time>
      </trkpt>
      <trkpt lat="37.29383333" lon="-3.53315333">
        <ele>1315.0</ele>
        <time>2022-11-13T13:31:11.000Z</time>
      </trkpt>
      <trkpt lat="37.29383167" lon="-3.533155">
        <ele>1315.0</ele>
        <time>2022-11-13T13:31:12.000Z</time>
      </trkpt>
      <trkpt lat="37.29383167" lon="-3.53315333">
        <ele>1315.0</ele>
        <time>2022-11-13T13:31:13.000Z</time>
      </trkpt>
      <trkpt lat="37.29383" lon="-3.533155">
        <ele>1315.0</ele>
        <time>2022-11-13T13:31:14.000Z</time>
      </trkpt>
      <trkpt lat="37.29383" lon="-3.53315667">
        <ele>1315.0</ele>
        <time>2022-11-13T13:31:15.000Z</time>
      </trkpt>
      <trkpt lat="37.29383167" lon="-3.53315833">
        <ele>1315.0</ele>
        <time>2022-11-13T13:31:16.000Z</time>
      </trkpt>
      <trkpt lat="37.29383" lon="-3.53316">
        <ele>1315.0</ele>
        <time>2022-11-13T13:31:17.000Z</time>
      </trkpt>
      <trkpt lat="37.29383" lon="-3.53316">
        <ele>1315.0</ele>
        <time>2022-11-13T13:31:18.000Z</time>
      </trkpt>
      <trkpt lat="37.29383167" lon="-3.53315833">
        <ele>1315.0</ele>
        <time>2022-11-13T13:31:19.000Z</time>
      </trkpt>
      <trkpt lat="37.29383167" lon="-3.53315667">
        <ele>1315.0</ele>
        <time>2022-11-13T13:31:20.000Z</time>
      </trkpt>
      <trkpt lat="37.29383" lon="-3.53316">
        <ele>1315.0</ele>
        <time>2022-11-13T13:31:21.000Z</time>
      </trkpt>
      <trkpt lat="37.29382833" lon="-3.53316167">
        <ele>1315.0</ele>
        <time>2022-11-13T13:31:22.000Z</time>
      </trkpt>
      <trkpt lat="37.29382667" lon="-3.53316167">
        <ele>1315.0</ele>
        <time>2022-11-13T13:31:23.000Z</time>
      </trkpt>
      <trkpt lat="37.29382667" lon="-3.53316333">
        <ele>1315.0</ele>
        <time>2022-11-13T13:31:24.000Z</time>
      </trkpt>
      <trkpt lat="37.293825" lon="-3.53316333">
        <ele>1315.0</ele>
        <time>2022-11-13T13:31:25.000Z</time>
      </trkpt>
      <trkpt lat="37.293825" lon="-3.53316333">
        <ele>1315.0</ele>
        <time>2022-11-13T13:31:26.000Z</time>
      </trkpt>
      <trkpt lat="37.29382333" lon="-3.533165">
        <ele>1315.0</ele>
        <time>2022-11-13T13:31:27.000Z</time>
      </trkpt>
      <trkpt lat="37.29382333" lon="-3.53316167">
        <ele>1315.0</ele>
        <time>2022-11-13T13:31:28.000Z</time>
      </trkpt>
      <trkpt lat="37.29382167" lon="-3.53316333">
        <ele>1315.0</ele>
        <time>2022-11-13T13:31:29.000Z</time>
      </trkpt>
      <trkpt lat="37.29381833" lon="-3.53316667">
        <ele>1315.0</ele>
        <time>2022-11-13T13:31:30.000Z</time>
      </trkpt>
      <trkpt lat="37.29381833" lon="-3.53317">
        <ele>1315.0</ele>
        <time>2022-11-13T13:31:31.000Z</time>
      </trkpt>
      <trkpt lat="37.29381667" lon="-3.53317667">
        <ele>1315.0</ele>
        <time>2022-11-13T13:31:32.000Z</time>
      </trkpt>
      <trkpt lat="37.29381333" lon="-3.533185">
        <ele>1315.0</ele>
        <time>2022-11-13T13:31:33.000Z</time>
      </trkpt>
      <trkpt lat="37.29380833" lon="-3.53319333">
        <ele>1315.0</ele>
        <time>2022-11-13T13:31:34.000Z</time>
      </trkpt>
      <trkpt lat="37.29380167" lon="-3.53320333">
        <ele>1316.0</ele>
        <time>2022-11-13T13:31:35.000Z</time>
      </trkpt>
      <trkpt lat="37.29379333" lon="-3.53320833">
        <ele>1316.0</ele>
        <time>2022-11-13T13:31:36.000Z</time>
      </trkpt>
      <trkpt lat="37.29378833" lon="-3.53321">
        <ele>1316.0</ele>
        <time>2022-11-13T13:31:37.000Z</time>
      </trkpt>
      <trkpt lat="37.293785" lon="-3.53321333">
        <ele>1316.0</ele>
        <time>2022-11-13T13:31:38.000Z</time>
      </trkpt>
      <trkpt lat="37.29378333" lon="-3.53321667">
        <ele>1316.0</ele>
        <time>2022-11-13T13:31:39.000Z</time>
      </trkpt>
      <trkpt lat="37.29377667" lon="-3.533215">
        <ele>1316.0</ele>
        <time>2022-11-13T13:31:40.000Z</time>
      </trkpt>
      <trkpt lat="37.29377167" lon="-3.53321333">
        <ele>1316.0</ele>
        <time>2022-11-13T13:31:41.000Z</time>
      </trkpt>
      <trkpt lat="37.29376667" lon="-3.53321">
        <ele>1316.0</ele>
        <time>2022-11-13T13:31:42.000Z</time>
      </trkpt>
      <trkpt lat="37.29376167" lon="-3.53321">
        <ele>1316.0</ele>
        <time>2022-11-13T13:31:43.000Z</time>
      </trkpt>
      <trkpt lat="37.29375833" lon="-3.53321">
        <ele>1316.0</ele>
        <time>2022-11-13T13:31:44.000Z</time>
      </trkpt>
      <trkpt lat="37.29375667" lon="-3.53321167">
        <ele>1316.0</ele>
        <time>2022-11-13T13:31:45.000Z</time>
      </trkpt>
      <trkpt lat="37.29375667" lon="-3.53321167">
        <ele>1316.0</ele>
        <time>2022-11-13T13:31:46.000Z</time>
      </trkpt>
      <trkpt lat="37.29375667" lon="-3.53321167">
        <ele>1316.0</ele>
        <time>2022-11-13T13:31:47.000Z</time>
      </trkpt>
      <trkpt lat="37.293755" lon="-3.53321167">
        <ele>1315.0</ele>
        <time>2022-11-13T13:31:48.000Z</time>
      </trkpt>
      <trkpt lat="37.29375167" lon="-3.53321667">
        <ele>1315.0</ele>
        <time>2022-11-13T13:31:49.000Z</time>
      </trkpt>
      <trkpt lat="37.29374833" lon="-3.53322167">
        <ele>1315.0</ele>
        <time>2022-11-13T13:31:50.000Z</time>
      </trkpt>
      <trkpt lat="37.29374333" lon="-3.53323">
        <ele>1315.0</ele>
        <time>2022-11-13T13:31:51.000Z</time>
      </trkpt>
      <trkpt lat="37.29373667" lon="-3.53324">
        <ele>1315.0</ele>
        <time>2022-11-13T13:31:52.000Z</time>
      </trkpt>
      <trkpt lat="37.29373167" lon="-3.53324833">
        <ele>1315.0</ele>
        <time>2022-11-13T13:31:53.000Z</time>
      </trkpt>
      <trkpt lat="37.29373" lon="-3.533255">
        <ele>1315.0</ele>
        <time>2022-11-13T13:31:54.000Z</time>
      </trkpt>
      <trkpt lat="37.29372667" lon="-3.53326">
        <ele>1315.0</ele>
        <time>2022-11-13T13:31:55.000Z</time>
      </trkpt>
      <trkpt lat="37.293725" lon="-3.53326333">
        <ele>1315.0</ele>
        <time>2022-11-13T13:31:56.000Z</time>
      </trkpt>
      <trkpt lat="37.29372167" lon="-3.533265">
        <ele>1315.0</ele>
        <time>2022-11-13T13:31:57.000Z</time>
      </trkpt>
      <trkpt lat="37.29372167" lon="-3.53326833">
        <ele>1315.0</ele>
        <time>2022-11-13T13:31:58.000Z</time>
      </trkpt>
      <trkpt lat="37.29372167" lon="-3.53326833">
        <ele>1315.0</ele>
        <time>2022-11-13T13:31:59.000Z</time>
      </trkpt>
      <trkpt lat="37.29372" lon="-3.53326667">
        <ele>1315.0</ele>
        <time>2022-11-13T13:32:00.000Z</time>
      </trkpt>
      <trkpt lat="37.29371833" lon="-3.53326667">
        <ele>1315.0</ele>
        <time>2022-11-13T13:32:01.000Z</time>
      </trkpt>
      <trkpt lat="37.29371833" lon="-3.53326833">
        <ele>1315.0</ele>
        <time>2022-11-13T13:32:02.000Z</time>
      </trkpt>
      <trkpt lat="37.29372" lon="-3.53326833">
        <ele>1315.0</ele>
        <time>2022-11-13T13:32:03.000Z</time>
      </trkpt>
      <trkpt lat="37.29371833" lon="-3.53327333">
        <ele>1315.0</ele>
        <time>2022-11-13T13:32:04.000Z</time>
      </trkpt>
      <trkpt lat="37.29371833" lon="-3.53328">
        <ele>1315.0</ele>
        <time>2022-11-13T13:32:05.000Z</time>
      </trkpt>
      <trkpt lat="37.29371833" lon="-3.53328667">
        <ele>1315.0</ele>
        <time>2022-11-13T13:32:06.000Z</time>
      </trkpt>
      <trkpt lat="37.29371667" lon="-3.53329167">
        <ele>1315.0</ele>
        <time>2022-11-13T13:32:07.000Z</time>
      </trkpt>
      <trkpt lat="37.29371667" lon="-3.53329833">
        <ele>1316.0</ele>
        <time>2022-11-13T13:32:08.000Z</time>
      </trkpt>
      <trkpt lat="37.29371667" lon="-3.53330833">
        <ele>1316.0</ele>
        <time>2022-11-13T13:32:09.000Z</time>
      </trkpt>
      <trkpt lat="37.293715" lon="-3.53331833">
        <ele>1316.0</ele>
        <time>2022-11-13T13:32:10.000Z</time>
      </trkpt>
      <trkpt lat="37.29371167" lon="-3.53333167">
        <ele>1316.0</ele>
        <time>2022-11-13T13:32:11.000Z</time>
      </trkpt>
      <trkpt lat="37.29370833" lon="-3.53334167">
        <ele>1315.0</ele>
        <time>2022-11-13T13:32:12.000Z</time>
      </trkpt>
      <trkpt lat="37.29370333" lon="-3.533355">
        <ele>1315.0</ele>
        <time>2022-11-13T13:32:13.000Z</time>
      </trkpt>
      <trkpt lat="37.29370167" lon="-3.53336333">
        <ele>1315.0</ele>
        <time>2022-11-13T13:32:14.000Z</time>
      </trkpt>
      <trkpt lat="37.29369667" lon="-3.53337333">
        <ele>1315.0</ele>
        <time>2022-11-13T13:32:15.000Z</time>
      </trkpt>
      <trkpt lat="37.29369167" lon="-3.53338167">
        <ele>1316.0</ele>
        <time>2022-11-13T13:32:16.000Z</time>
      </trkpt>
      <trkpt lat="37.29368667" lon="-3.53338667">
        <ele>1316.0</ele>
        <time>2022-11-13T13:32:17.000Z</time>
      </trkpt>
      <trkpt lat="37.29368333" lon="-3.533395">
        <ele>1316.0</ele>
        <time>2022-11-13T13:32:18.000Z</time>
      </trkpt>
      <trkpt lat="37.29367667" lon="-3.53340333">
        <ele>1316.0</ele>
        <time>2022-11-13T13:32:19.000Z</time>
      </trkpt>
      <trkpt lat="37.29367167" lon="-3.53341167">
        <ele>1316.0</ele>
        <time>2022-11-13T13:32:20.000Z</time>
      </trkpt>
      <trkpt lat="37.29366833" lon="-3.53341667">
        <ele>1316.0</ele>
        <time>2022-11-13T13:32:21.000Z</time>
      </trkpt>
      <trkpt lat="37.293665" lon="-3.53342167">
        <ele>1316.0</ele>
        <time>2022-11-13T13:32:22.000Z</time>
      </trkpt>
      <trkpt lat="37.29366167" lon="-3.53342667">
        <ele>1316.0</ele>
        <time>2022-11-13T13:32:23.000Z</time>
      </trkpt>
      <trkpt lat="37.29366" lon="-3.53343167">
        <ele>1316.0</ele>
        <time>2022-11-13T13:32:24.000Z</time>
      </trkpt>
      <trkpt lat="37.293655" lon="-3.53343667">
        <ele>1316.0</ele>
        <time>2022-11-13T13:32:25.000Z</time>
      </trkpt>
      <trkpt lat="37.29365333" lon="-3.53344167">
        <ele>1316.0</ele>
        <time>2022-11-13T13:32:26.000Z</time>
      </trkpt>
      <trkpt lat="37.29365167" lon="-3.53344667">
        <ele>1315.0</ele>
        <time>2022-11-13T13:32:27.000Z</time>
      </trkpt>
      <trkpt lat="37.29364667" lon="-3.53345333">
        <ele>1315.0</ele>
        <time>2022-11-13T13:32:28.000Z</time>
      </trkpt>
      <trkpt lat="37.29364333" lon="-3.53345667">
        <ele>1315.0</ele>
        <time>2022-11-13T13:32:29.000Z</time>
      </trkpt>
      <trkpt lat="37.29364167" lon="-3.53346333">
        <ele>1315.0</ele>
        <time>2022-11-13T13:32:30.000Z</time>
      </trkpt>
      <trkpt lat="37.29363833" lon="-3.53346667">
        <ele>1315.0</ele>
        <time>2022-11-13T13:32:31.000Z</time>
      </trkpt>
      <trkpt lat="37.293635" lon="-3.53347">
        <ele>1315.0</ele>
        <time>2022-11-13T13:32:32.000Z</time>
      </trkpt>
      <trkpt lat="37.29363167" lon="-3.53347833">
        <ele>1315.0</ele>
        <time>2022-11-13T13:32:33.000Z</time>
      </trkpt>
      <trkpt lat="37.29362833" lon="-3.53348833">
        <ele>1315.0</ele>
        <time>2022-11-13T13:32:34.000Z</time>
      </trkpt>
      <trkpt lat="37.293625" lon="-3.533495">
        <ele>1315.0</ele>
        <time>2022-11-13T13:32:35.000Z</time>
      </trkpt>
      <trkpt lat="37.29362167" lon="-3.53350167">
        <ele>1315.0</ele>
        <time>2022-11-13T13:32:36.000Z</time>
      </trkpt>
      <trkpt lat="37.29361667" lon="-3.53351">
        <ele>1315.0</ele>
        <time>2022-11-13T13:32:37.000Z</time>
      </trkpt>
      <trkpt lat="37.29361333" lon="-3.53352167">
        <ele>1315.0</ele>
        <time>2022-11-13T13:32:38.000Z</time>
      </trkpt>
      <trkpt lat="37.29361167" lon="-3.53353167">
        <ele>1315.0</ele>
        <time>2022-11-13T13:32:39.000Z</time>
      </trkpt>
      <trkpt lat="37.29360833" lon="-3.53353833">
        <ele>1315.0</ele>
        <time>2022-11-13T13:32:40.000Z</time>
      </trkpt>
      <trkpt lat="37.29360333" lon="-3.53354833">
        <ele>1315.0</ele>
        <time>2022-11-13T13:32:41.000Z</time>
      </trkpt>
      <trkpt lat="37.29359833" lon="-3.53355667">
        <ele>1316.0</ele>
        <time>2022-11-13T13:32:42.000Z</time>
      </trkpt>
      <trkpt lat="37.29359167" lon="-3.53356167">
        <ele>1316.0</ele>
        <time>2022-11-13T13:32:43.000Z</time>
      </trkpt>
      <trkpt lat="37.29358667" lon="-3.533565">
        <ele>1316.0</ele>
        <time>2022-11-13T13:32:44.000Z</time>
      </trkpt>
      <trkpt lat="37.29358167" lon="-3.53357">
        <ele>1316.0</ele>
        <time>2022-11-13T13:32:45.000Z</time>
      </trkpt>
      <trkpt lat="37.29357833" lon="-3.533575">
        <ele>1316.0</ele>
        <time>2022-11-13T13:32:46.000Z</time>
      </trkpt>
      <trkpt lat="37.293575" lon="-3.53358167">
        <ele>1316.0</ele>
        <time>2022-11-13T13:32:47.000Z</time>
      </trkpt>
      <trkpt lat="37.29357167" lon="-3.53358833">
        <ele>1316.0</ele>
        <time>2022-11-13T13:32:48.000Z</time>
      </trkpt>
      <trkpt lat="37.29356833" lon="-3.53359167">
        <ele>1316.0</ele>
        <time>2022-11-13T13:32:49.000Z</time>
      </trkpt>
      <trkpt lat="37.293565" lon="-3.533595">
        <ele>1317.0</ele>
        <time>2022-11-13T13:32:50.000Z</time>
      </trkpt>
      <trkpt lat="37.29356167" lon="-3.53359833">
        <ele>1317.0</ele>
        <time>2022-11-13T13:32:51.000Z</time>
      </trkpt>
      <trkpt lat="37.29356" lon="-3.5336">
        <ele>1317.0</ele>
        <time>2022-11-13T13:32:52.000Z</time>
      </trkpt>
      <trkpt lat="37.29355667" lon="-3.5336">
        <ele>1317.0</ele>
        <time>2022-11-13T13:32:53.000Z</time>
      </trkpt>
      <trkpt lat="37.29355333" lon="-3.5336">
        <ele>1317.0</ele>
        <time>2022-11-13T13:32:54.000Z</time>
      </trkpt>
      <trkpt lat="37.29355167" lon="-3.53360167">
        <ele>1317.0</ele>
        <time>2022-11-13T13:32:55.000Z</time>
      </trkpt>
      <trkpt lat="37.29354667" lon="-3.53360167">
        <ele>1317.0</ele>
        <time>2022-11-13T13:32:56.000Z</time>
      </trkpt>
      <trkpt lat="37.293545" lon="-3.53360333">
        <ele>1317.0</ele>
        <time>2022-11-13T13:32:57.000Z</time>
      </trkpt>
      <trkpt lat="37.29354333" lon="-3.533605">
        <ele>1317.0</ele>
        <time>2022-11-13T13:32:58.000Z</time>
      </trkpt>
      <trkpt lat="37.29354333" lon="-3.53360833">
        <ele>1318.0</ele>
        <time>2022-11-13T13:32:59.000Z</time>
      </trkpt>
      <trkpt lat="37.29354333" lon="-3.53361167">
        <ele>1318.0</ele>
        <time>2022-11-13T13:33:00.000Z</time>
      </trkpt>
      <trkpt lat="37.29354167" lon="-3.53361667">
        <ele>1318.0</ele>
        <time>2022-11-13T13:33:01.000Z</time>
      </trkpt>
      <trkpt lat="37.29353667" lon="-3.53361833">
        <ele>1318.0</ele>
        <time>2022-11-13T13:33:02.000Z</time>
      </trkpt>
      <trkpt lat="37.29353333" lon="-3.53361833">
        <ele>1318.0</ele>
        <time>2022-11-13T13:33:03.000Z</time>
      </trkpt>
      <trkpt lat="37.29353167" lon="-3.53362167">
        <ele>1318.0</ele>
        <time>2022-11-13T13:33:04.000Z</time>
      </trkpt>
      <trkpt lat="37.29353" lon="-3.533625">
        <ele>1318.0</ele>
        <time>2022-11-13T13:33:05.000Z</time>
      </trkpt>
      <trkpt lat="37.29352833" lon="-3.53362833">
        <ele>1319.0</ele>
        <time>2022-11-13T13:33:06.000Z</time>
      </trkpt>
      <trkpt lat="37.29352833" lon="-3.53362833">
        <ele>1319.0</ele>
        <time>2022-11-13T13:33:07.000Z</time>
      </trkpt>
      <trkpt lat="37.29352667" lon="-3.53363">
        <ele>1319.0</ele>
        <time>2022-11-13T13:33:08.000Z</time>
      </trkpt>
      <trkpt lat="37.29352667" lon="-3.53363">
        <ele>1319.0</ele>
        <time>2022-11-13T13:33:09.000Z</time>
      </trkpt>
      <trkpt lat="37.29352667" lon="-3.53363">
        <ele>1319.0</ele>
        <time>2022-11-13T13:33:10.000Z</time>
      </trkpt>
      <trkpt lat="37.293525" lon="-3.53363167">
        <ele>1319.0</ele>
        <time>2022-11-13T13:33:11.000Z</time>
      </trkpt>
      <trkpt lat="37.293525" lon="-3.53363167">
        <ele>1319.0</ele>
        <time>2022-11-13T13:33:12.000Z</time>
      </trkpt>
      <trkpt lat="37.29352333" lon="-3.533635">
        <ele>1319.0</ele>
        <time>2022-11-13T13:33:13.000Z</time>
      </trkpt>
      <trkpt lat="37.293525" lon="-3.53363833">
        <ele>1320.0</ele>
        <time>2022-11-13T13:33:14.000Z</time>
      </trkpt>
      <trkpt lat="37.293525" lon="-3.53363833">
        <ele>1320.0</ele>
        <time>2022-11-13T13:33:15.000Z</time>
      </trkpt>
      <trkpt lat="37.293525" lon="-3.53364">
        <ele>1320.0</ele>
        <time>2022-11-13T13:33:16.000Z</time>
      </trkpt>
      <trkpt lat="37.293525" lon="-3.53364667">
        <ele>1320.0</ele>
        <time>2022-11-13T13:33:17.000Z</time>
      </trkpt>
      <trkpt lat="37.293525" lon="-3.53365">
        <ele>1320.0</ele>
        <time>2022-11-13T13:33:18.000Z</time>
      </trkpt>
      <trkpt lat="37.29352333" lon="-3.533655">
        <ele>1320.0</ele>
        <time>2022-11-13T13:33:19.000Z</time>
      </trkpt>
      <trkpt lat="37.29352167" lon="-3.53365833">
        <ele>1320.0</ele>
        <time>2022-11-13T13:33:20.000Z</time>
      </trkpt>
      <trkpt lat="37.29351833" lon="-3.53366167">
        <ele>1320.0</ele>
        <time>2022-11-13T13:33:21.000Z</time>
      </trkpt>
      <trkpt lat="37.293515" lon="-3.53366667">
        <ele>1320.0</ele>
        <time>2022-11-13T13:33:22.000Z</time>
      </trkpt>
      <trkpt lat="37.29351167" lon="-3.53367">
        <ele>1320.0</ele>
        <time>2022-11-13T13:33:23.000Z</time>
      </trkpt>
      <trkpt lat="37.29351" lon="-3.53367833">
        <ele>1321.0</ele>
        <time>2022-11-13T13:33:24.000Z</time>
      </trkpt>
      <trkpt lat="37.29351167" lon="-3.53369">
        <ele>1321.0</ele>
        <time>2022-11-13T13:33:25.000Z</time>
      </trkpt>
      <trkpt lat="37.29351" lon="-3.53369333">
        <ele>1321.0</ele>
        <time>2022-11-13T13:33:26.000Z</time>
      </trkpt>
      <trkpt lat="37.29351" lon="-3.53369333">
        <ele>1321.0</ele>
        <time>2022-11-13T13:33:27.000Z</time>
      </trkpt>
      <trkpt lat="37.29351" lon="-3.53369667">
        <ele>1321.0</ele>
        <time>2022-11-13T13:33:28.000Z</time>
      </trkpt>
      <trkpt lat="37.29351" lon="-3.53369833">
        <ele>1321.0</ele>
        <time>2022-11-13T13:33:29.000Z</time>
      </trkpt>
      <trkpt lat="37.29351" lon="-3.533705">
        <ele>1321.0</ele>
        <time>2022-11-13T13:33:30.000Z</time>
      </trkpt>
      <trkpt lat="37.29351" lon="-3.53370667">
        <ele>1321.0</ele>
        <time>2022-11-13T13:33:31.000Z</time>
      </trkpt>
      <trkpt lat="37.29351" lon="-3.53370833">
        <ele>1321.0</ele>
        <time>2022-11-13T13:33:32.000Z</time>
      </trkpt>
      <trkpt lat="37.29351" lon="-3.53371">
        <ele>1321.0</ele>
        <time>2022-11-13T13:33:33.000Z</time>
      </trkpt>
      <trkpt lat="37.29350667" lon="-3.53371833">
        <ele>1321.0</ele>
        <time>2022-11-13T13:33:34.000Z</time>
      </trkpt>
      <trkpt lat="37.2935" lon="-3.53372833">
        <ele>1321.0</ele>
        <time>2022-11-13T13:33:35.000Z</time>
      </trkpt>
      <trkpt lat="37.293495" lon="-3.53374">
        <ele>1321.0</ele>
        <time>2022-11-13T13:33:36.000Z</time>
      </trkpt>
      <trkpt lat="37.29349167" lon="-3.53375">
        <ele>1321.0</ele>
        <time>2022-11-13T13:33:37.000Z</time>
      </trkpt>
      <trkpt lat="37.29349" lon="-3.53375667">
        <ele>1321.0</ele>
        <time>2022-11-13T13:33:38.000Z</time>
      </trkpt>
      <trkpt lat="37.29348667" lon="-3.53376167">
        <ele>1321.0</ele>
        <time>2022-11-13T13:33:39.000Z</time>
      </trkpt>
      <trkpt lat="37.293485" lon="-3.53377333">
        <ele>1321.0</ele>
        <time>2022-11-13T13:33:40.000Z</time>
      </trkpt>
      <trkpt lat="37.293485" lon="-3.53378833">
        <ele>1321.0</ele>
        <time>2022-11-13T13:33:41.000Z</time>
      </trkpt>
      <trkpt lat="37.29348333" lon="-3.53380167">
        <ele>1321.0</ele>
        <time>2022-11-13T13:33:42.000Z</time>
      </trkpt>
      <trkpt lat="37.29347833" lon="-3.53381667">
        <ele>1322.0</ele>
        <time>2022-11-13T13:33:43.000Z</time>
      </trkpt>
      <trkpt lat="37.29346833" lon="-3.53382833">
        <ele>1322.0</ele>
        <time>2022-11-13T13:33:44.000Z</time>
      </trkpt>
      <trkpt lat="37.29346167" lon="-3.53383667">
        <ele>1322.0</ele>
        <time>2022-11-13T13:33:45.000Z</time>
      </trkpt>
      <trkpt lat="37.29345833" lon="-3.53384">
        <ele>1322.0</ele>
        <time>2022-11-13T13:33:46.000Z</time>
      </trkpt>
      <trkpt lat="37.29345833" lon="-3.53384167">
        <ele>1322.0</ele>
        <time>2022-11-13T13:33:47.000Z</time>
      </trkpt>
      <trkpt lat="37.29345833" lon="-3.53384167">
        <ele>1322.0</ele>
        <time>2022-11-13T13:33:48.000Z</time>
      </trkpt>
      <trkpt lat="37.29345833" lon="-3.53384167">
        <ele>1322.0</ele>
        <time>2022-11-13T13:33:49.000Z</time>
      </trkpt>
      <trkpt lat="37.29345833" lon="-3.53384167">
        <ele>1322.0</ele>
        <time>2022-11-13T13:33:50.000Z</time>
      </trkpt>
      <trkpt lat="37.29345833" lon="-3.53384167">
        <ele>1322.0</ele>
        <time>2022-11-13T13:33:51.000Z</time>
      </trkpt>
      <trkpt lat="37.29345833" lon="-3.53384333">
        <ele>1322.0</ele>
        <time>2022-11-13T13:33:52.000Z</time>
      </trkpt>
      <trkpt lat="37.29346" lon="-3.53384333">
        <ele>1322.0</ele>
        <time>2022-11-13T13:33:53.000Z</time>
      </trkpt>
      <trkpt lat="37.29346" lon="-3.53384333">
        <ele>1322.0</ele>
        <time>2022-11-13T13:33:54.000Z</time>
      </trkpt>
      <trkpt lat="37.29346" lon="-3.53384333">
        <ele>1322.0</ele>
        <time>2022-11-13T13:33:55.000Z</time>
      </trkpt>
      <trkpt lat="37.29345833" lon="-3.533845">
        <ele>1322.0</ele>
        <time>2022-11-13T13:33:56.000Z</time>
      </trkpt>
      <trkpt lat="37.29345667" lon="-3.53385333">
        <ele>1322.0</ele>
        <time>2022-11-13T13:33:57.000Z</time>
      </trkpt>
      <trkpt lat="37.29345333" lon="-3.533865">
        <ele>1322.0</ele>
        <time>2022-11-13T13:33:58.000Z</time>
      </trkpt>
      <trkpt lat="37.29344833" lon="-3.533875">
        <ele>1322.0</ele>
        <time>2022-11-13T13:33:59.000Z</time>
      </trkpt>
      <trkpt lat="37.293445" lon="-3.53388333">
        <ele>1322.0</ele>
        <time>2022-11-13T13:34:00.000Z</time>
      </trkpt>
      <trkpt lat="37.29344167" lon="-3.53389333">
        <ele>1321.0</ele>
        <time>2022-11-13T13:34:01.000Z</time>
      </trkpt>
      <trkpt lat="37.29343333" lon="-3.53390333">
        <ele>1321.0</ele>
        <time>2022-11-13T13:34:02.000Z</time>
      </trkpt>
      <trkpt lat="37.29342833" lon="-3.53391167">
        <ele>1321.0</ele>
        <time>2022-11-13T13:34:03.000Z</time>
      </trkpt>
      <trkpt lat="37.29342333" lon="-3.53392">
        <ele>1321.0</ele>
        <time>2022-11-13T13:34:04.000Z</time>
      </trkpt>
      <trkpt lat="37.29341833" lon="-3.53392667">
        <ele>1321.0</ele>
        <time>2022-11-13T13:34:05.000Z</time>
      </trkpt>
      <trkpt lat="37.29341167" lon="-3.53393167">
        <ele>1321.0</ele>
        <time>2022-11-13T13:34:06.000Z</time>
      </trkpt>
      <trkpt lat="37.29340833" lon="-3.53393667">
        <ele>1321.0</ele>
        <time>2022-11-13T13:34:07.000Z</time>
      </trkpt>
      <trkpt lat="37.29340333" lon="-3.53393833">
        <ele>1321.0</ele>
        <time>2022-11-13T13:34:08.000Z</time>
      </trkpt>
      <trkpt lat="37.29339833" lon="-3.53393833">
        <ele>1322.0</ele>
        <time>2022-11-13T13:34:09.000Z</time>
      </trkpt>
      <trkpt lat="37.293395" lon="-3.53393833">
        <ele>1322.0</ele>
        <time>2022-11-13T13:34:10.000Z</time>
      </trkpt>
      <trkpt lat="37.29339167" lon="-3.53394167">
        <ele>1322.0</ele>
        <time>2022-11-13T13:34:11.000Z</time>
      </trkpt>
      <trkpt lat="37.29338833" lon="-3.53394333">
        <ele>1322.0</ele>
        <time>2022-11-13T13:34:12.000Z</time>
      </trkpt>
      <trkpt lat="37.293385" lon="-3.53394833">
        <ele>1322.0</ele>
        <time>2022-11-13T13:34:13.000Z</time>
      </trkpt>
      <trkpt lat="37.29338" lon="-3.53395167">
        <ele>1322.0</ele>
        <time>2022-11-13T13:34:14.000Z</time>
      </trkpt>
      <trkpt lat="37.29337667" lon="-3.53396">
        <ele>1322.0</ele>
        <time>2022-11-13T13:34:15.000Z</time>
      </trkpt>
      <trkpt lat="37.293375" lon="-3.53396833">
        <ele>1322.0</ele>
        <time>2022-11-13T13:34:16.000Z</time>
      </trkpt>
      <trkpt lat="37.293375" lon="-3.533975">
        <ele>1322.0</ele>
        <time>2022-11-13T13:34:17.000Z</time>
      </trkpt>
      <trkpt lat="37.29337667" lon="-3.53398167">
        <ele>1322.0</ele>
        <time>2022-11-13T13:34:18.000Z</time>
      </trkpt>
      <trkpt lat="37.293375" lon="-3.53398833">
        <ele>1322.0</ele>
        <time>2022-11-13T13:34:19.000Z</time>
      </trkpt>
      <trkpt lat="37.29337333" lon="-3.53399">
        <ele>1322.0</ele>
        <time>2022-11-13T13:34:20.000Z</time>
      </trkpt>
      <trkpt lat="37.29337333" lon="-3.53399">
        <ele>1322.0</ele>
        <time>2022-11-13T13:34:21.000Z</time>
      </trkpt>
      <trkpt lat="37.29337333" lon="-3.53399">
        <ele>1322.0</ele>
        <time>2022-11-13T13:34:22.000Z</time>
      </trkpt>
      <trkpt lat="37.29337167" lon="-3.53399">
        <ele>1322.0</ele>
        <time>2022-11-13T13:34:23.000Z</time>
      </trkpt>
      <trkpt lat="37.29336667" lon="-3.53399333">
        <ele>1322.0</ele>
        <time>2022-11-13T13:34:24.000Z</time>
      </trkpt>
      <trkpt lat="37.29336" lon="-3.533995">
        <ele>1322.0</ele>
        <time>2022-11-13T13:34:25.000Z</time>
      </trkpt>
      <trkpt lat="37.29335333" lon="-3.53399833">
        <ele>1322.0</ele>
        <time>2022-11-13T13:34:26.000Z</time>
      </trkpt>
      <trkpt lat="37.293345" lon="-3.534005">
        <ele>1322.0</ele>
        <time>2022-11-13T13:34:27.000Z</time>
      </trkpt>
      <trkpt lat="37.29333833" lon="-3.53401167">
        <ele>1322.0</ele>
        <time>2022-11-13T13:34:28.000Z</time>
      </trkpt>
      <trkpt lat="37.29333333" lon="-3.53402">
        <ele>1322.0</ele>
        <time>2022-11-13T13:34:29.000Z</time>
      </trkpt>
      <trkpt lat="37.29332833" lon="-3.53402667">
        <ele>1322.0</ele>
        <time>2022-11-13T13:34:30.000Z</time>
      </trkpt>
      <trkpt lat="37.293325" lon="-3.53403333">
        <ele>1323.0</ele>
        <time>2022-11-13T13:34:31.000Z</time>
      </trkpt>
      <trkpt lat="37.29332" lon="-3.53404167">
        <ele>1323.0</ele>
        <time>2022-11-13T13:34:32.000Z</time>
      </trkpt>
      <trkpt lat="37.293315" lon="-3.53405167">
        <ele>1323.0</ele>
        <time>2022-11-13T13:34:33.000Z</time>
      </trkpt>
      <trkpt lat="37.29330833" lon="-3.53405833">
        <ele>1323.0</ele>
        <time>2022-11-13T13:34:34.000Z</time>
      </trkpt>
      <trkpt lat="37.29330333" lon="-3.534065">
        <ele>1323.0</ele>
        <time>2022-11-13T13:34:35.000Z</time>
      </trkpt>
      <trkpt lat="37.29329667" lon="-3.53407">
        <ele>1323.0</ele>
        <time>2022-11-13T13:34:36.000Z</time>
      </trkpt>
      <trkpt lat="37.29329167" lon="-3.53407333">
        <ele>1323.0</ele>
        <time>2022-11-13T13:34:37.000Z</time>
      </trkpt>
      <trkpt lat="37.293285" lon="-3.53407667">
        <ele>1324.0</ele>
        <time>2022-11-13T13:34:38.000Z</time>
      </trkpt>
      <trkpt lat="37.29327833" lon="-3.53408">
        <ele>1324.0</ele>
        <time>2022-11-13T13:34:39.000Z</time>
      </trkpt>
      <trkpt lat="37.29327333" lon="-3.53408">
        <ele>1324.0</ele>
        <time>2022-11-13T13:34:40.000Z</time>
      </trkpt>
      <trkpt lat="37.29326667" lon="-3.53408">
        <ele>1324.0</ele>
        <time>2022-11-13T13:34:41.000Z</time>
      </trkpt>
      <trkpt lat="37.29326333" lon="-3.53408167">
        <ele>1324.0</ele>
        <time>2022-11-13T13:34:42.000Z</time>
      </trkpt>
      <trkpt lat="37.29326" lon="-3.53408667">
        <ele>1324.0</ele>
        <time>2022-11-13T13:34:43.000Z</time>
      </trkpt>
      <trkpt lat="37.29325333" lon="-3.53409">
        <ele>1324.0</ele>
        <time>2022-11-13T13:34:44.000Z</time>
      </trkpt>
      <trkpt lat="37.29324833" lon="-3.53409">
        <ele>1325.0</ele>
        <time>2022-11-13T13:34:45.000Z</time>
      </trkpt>
      <trkpt lat="37.29324333" lon="-3.53409167">
        <ele>1325.0</ele>
        <time>2022-11-13T13:34:46.000Z</time>
      </trkpt>
      <trkpt lat="37.29324" lon="-3.53409667">
        <ele>1325.0</ele>
        <time>2022-11-13T13:34:47.000Z</time>
      </trkpt>
      <trkpt lat="37.29323667" lon="-3.534105">
        <ele>1325.0</ele>
        <time>2022-11-13T13:34:48.000Z</time>
      </trkpt>
      <trkpt lat="37.29323333" lon="-3.534115">
        <ele>1325.0</ele>
        <time>2022-11-13T13:34:49.000Z</time>
      </trkpt>
      <trkpt lat="37.29323" lon="-3.53412167">
        <ele>1325.0</ele>
        <time>2022-11-13T13:34:50.000Z</time>
      </trkpt>
      <trkpt lat="37.293225" lon="-3.534125">
        <ele>1326.0</ele>
        <time>2022-11-13T13:34:51.000Z</time>
      </trkpt>
      <trkpt lat="37.29322" lon="-3.53413">
        <ele>1326.0</ele>
        <time>2022-11-13T13:34:52.000Z</time>
      </trkpt>
      <trkpt lat="37.293215" lon="-3.53413167">
        <ele>1326.0</ele>
        <time>2022-11-13T13:34:53.000Z</time>
      </trkpt>
      <trkpt lat="37.29321" lon="-3.534135">
        <ele>1326.0</ele>
        <time>2022-11-13T13:34:54.000Z</time>
      </trkpt>
      <trkpt lat="37.29320667" lon="-3.53413833">
        <ele>1326.0</ele>
        <time>2022-11-13T13:34:55.000Z</time>
      </trkpt>
      <trkpt lat="37.29320167" lon="-3.53414167">
        <ele>1326.0</ele>
        <time>2022-11-13T13:34:56.000Z</time>
      </trkpt>
      <trkpt lat="37.29319833" lon="-3.53414333">
        <ele>1327.0</ele>
        <time>2022-11-13T13:34:57.000Z</time>
      </trkpt>
      <trkpt lat="37.29319167" lon="-3.534145">
        <ele>1327.0</ele>
        <time>2022-11-13T13:34:58.000Z</time>
      </trkpt>
      <trkpt lat="37.293185" lon="-3.534145">
        <ele>1327.0</ele>
        <time>2022-11-13T13:34:59.000Z</time>
      </trkpt>
      <trkpt lat="37.29318167" lon="-3.53414833">
        <ele>1327.0</ele>
        <time>2022-11-13T13:35:00.000Z</time>
      </trkpt>
      <trkpt lat="37.29317833" lon="-3.53415">
        <ele>1327.0</ele>
        <time>2022-11-13T13:35:01.000Z</time>
      </trkpt>
      <trkpt lat="37.29317333" lon="-3.534155">
        <ele>1328.0</ele>
        <time>2022-11-13T13:35:02.000Z</time>
      </trkpt>
      <trkpt lat="37.29316833" lon="-3.53416">
        <ele>1328.0</ele>
        <time>2022-11-13T13:35:03.000Z</time>
      </trkpt>
      <trkpt lat="37.293165" lon="-3.534165">
        <ele>1328.0</ele>
        <time>2022-11-13T13:35:04.000Z</time>
      </trkpt>
      <trkpt lat="37.29316167" lon="-3.53417167">
        <ele>1328.0</ele>
        <time>2022-11-13T13:35:05.000Z</time>
      </trkpt>
      <trkpt lat="37.29315667" lon="-3.53417833">
        <ele>1328.0</ele>
        <time>2022-11-13T13:35:06.000Z</time>
      </trkpt>
      <trkpt lat="37.29315333" lon="-3.53418667">
        <ele>1328.0</ele>
        <time>2022-11-13T13:35:07.000Z</time>
      </trkpt>
      <trkpt lat="37.29314833" lon="-3.53419333">
        <ele>1329.0</ele>
        <time>2022-11-13T13:35:08.000Z</time>
      </trkpt>
      <trkpt lat="37.293145" lon="-3.5342">
        <ele>1329.0</ele>
        <time>2022-11-13T13:35:09.000Z</time>
      </trkpt>
      <trkpt lat="37.29314167" lon="-3.53420833">
        <ele>1329.0</ele>
        <time>2022-11-13T13:35:10.000Z</time>
      </trkpt>
      <trkpt lat="37.29313833" lon="-3.534215">
        <ele>1329.0</ele>
        <time>2022-11-13T13:35:11.000Z</time>
      </trkpt>
      <trkpt lat="37.293135" lon="-3.53422333">
        <ele>1329.0</ele>
        <time>2022-11-13T13:35:12.000Z</time>
      </trkpt>
      <trkpt lat="37.29313" lon="-3.53423">
        <ele>1329.0</ele>
        <time>2022-11-13T13:35:13.000Z</time>
      </trkpt>
      <trkpt lat="37.29312333" lon="-3.534235">
        <ele>1329.0</ele>
        <time>2022-11-13T13:35:14.000Z</time>
      </trkpt>
      <trkpt lat="37.29311833" lon="-3.53424">
        <ele>1329.0</ele>
        <time>2022-11-13T13:35:15.000Z</time>
      </trkpt>
      <trkpt lat="37.29311333" lon="-3.534245">
        <ele>1330.0</ele>
        <time>2022-11-13T13:35:16.000Z</time>
      </trkpt>
      <trkpt lat="37.29310833" lon="-3.53425167">
        <ele>1330.0</ele>
        <time>2022-11-13T13:35:17.000Z</time>
      </trkpt>
      <trkpt lat="37.29310333" lon="-3.53425667">
        <ele>1330.0</ele>
        <time>2022-11-13T13:35:18.000Z</time>
      </trkpt>
      <trkpt lat="37.2931" lon="-3.53426">
        <ele>1330.0</ele>
        <time>2022-11-13T13:35:19.000Z</time>
      </trkpt>
      <trkpt lat="37.29309667" lon="-3.53426667">
        <ele>1330.0</ele>
        <time>2022-11-13T13:35:20.000Z</time>
      </trkpt>
      <trkpt lat="37.293095" lon="-3.53427667">
        <ele>1331.0</ele>
        <time>2022-11-13T13:35:21.000Z</time>
      </trkpt>
      <trkpt lat="37.29309167" lon="-3.53428833">
        <ele>1331.0</ele>
        <time>2022-11-13T13:35:22.000Z</time>
      </trkpt>
      <trkpt lat="37.29308833" lon="-3.5343">
        <ele>1331.0</ele>
        <time>2022-11-13T13:35:23.000Z</time>
      </trkpt>
      <trkpt lat="37.29308333" lon="-3.53431167">
        <ele>1331.0</ele>
        <time>2022-11-13T13:35:24.000Z</time>
      </trkpt>
      <trkpt lat="37.29308" lon="-3.53432167">
        <ele>1331.0</ele>
        <time>2022-11-13T13:35:25.000Z</time>
      </trkpt>
      <trkpt lat="37.29307833" lon="-3.53433167">
        <ele>1332.0</ele>
        <time>2022-11-13T13:35:26.000Z</time>
      </trkpt>
      <trkpt lat="37.29307667" lon="-3.53434167">
        <ele>1332.0</ele>
        <time>2022-11-13T13:35:27.000Z</time>
      </trkpt>
      <trkpt lat="37.29307667" lon="-3.53435333">
        <ele>1332.0</ele>
        <time>2022-11-13T13:35:28.000Z</time>
      </trkpt>
      <trkpt lat="37.293075" lon="-3.53436333">
        <ele>1332.0</ele>
        <time>2022-11-13T13:35:29.000Z</time>
      </trkpt>
      <trkpt lat="37.293075" lon="-3.53437333">
        <ele>1332.0</ele>
        <time>2022-11-13T13:35:30.000Z</time>
      </trkpt>
      <trkpt lat="37.29307333" lon="-3.53438167">
        <ele>1332.0</ele>
        <time>2022-11-13T13:35:31.000Z</time>
      </trkpt>
      <trkpt lat="37.29306833" lon="-3.53439">
        <ele>1332.0</ele>
        <time>2022-11-13T13:35:32.000Z</time>
      </trkpt>
      <trkpt lat="37.29306167" lon="-3.53439333">
        <ele>1333.0</ele>
        <time>2022-11-13T13:35:33.000Z</time>
      </trkpt>
      <trkpt lat="37.29305667" lon="-3.534395">
        <ele>1333.0</ele>
        <time>2022-11-13T13:35:34.000Z</time>
      </trkpt>
      <trkpt lat="37.29305167" lon="-3.53439667">
        <ele>1333.0</ele>
        <time>2022-11-13T13:35:35.000Z</time>
      </trkpt>
      <trkpt lat="37.29304667" lon="-3.5344">
        <ele>1333.0</ele>
        <time>2022-11-13T13:35:36.000Z</time>
      </trkpt>
      <trkpt lat="37.29304167" lon="-3.534405">
        <ele>1333.0</ele>
        <time>2022-11-13T13:35:37.000Z</time>
      </trkpt>
      <trkpt lat="37.29303833" lon="-3.53441167">
        <ele>1333.0</ele>
        <time>2022-11-13T13:35:38.000Z</time>
      </trkpt>
      <trkpt lat="37.29303333" lon="-3.53441833">
        <ele>1333.0</ele>
        <time>2022-11-13T13:35:39.000Z</time>
      </trkpt>
      <trkpt lat="37.29302833" lon="-3.53442333">
        <ele>1333.0</ele>
        <time>2022-11-13T13:35:40.000Z</time>
      </trkpt>
      <trkpt lat="37.293025" lon="-3.53443167">
        <ele>1334.0</ele>
        <time>2022-11-13T13:35:41.000Z</time>
      </trkpt>
      <trkpt lat="37.29302167" lon="-3.53443833">
        <ele>1334.0</ele>
        <time>2022-11-13T13:35:42.000Z</time>
      </trkpt>
      <trkpt lat="37.29301833" lon="-3.53444667">
        <ele>1334.0</ele>
        <time>2022-11-13T13:35:43.000Z</time>
      </trkpt>
      <trkpt lat="37.29301667" lon="-3.53445667">
        <ele>1334.0</ele>
        <time>2022-11-13T13:35:44.000Z</time>
      </trkpt>
      <trkpt lat="37.29301333" lon="-3.534465">
        <ele>1334.0</ele>
        <time>2022-11-13T13:35:45.000Z</time>
      </trkpt>
      <trkpt lat="37.29300833" lon="-3.53447333">
        <ele>1334.0</ele>
        <time>2022-11-13T13:35:46.000Z</time>
      </trkpt>
      <trkpt lat="37.293005" lon="-3.53448">
        <ele>1334.0</ele>
        <time>2022-11-13T13:35:47.000Z</time>
      </trkpt>
      <trkpt lat="37.293" lon="-3.53449">
        <ele>1334.0</ele>
        <time>2022-11-13T13:35:48.000Z</time>
      </trkpt>
      <trkpt lat="37.29299833" lon="-3.5345">
        <ele>1335.0</ele>
        <time>2022-11-13T13:35:49.000Z</time>
      </trkpt>
      <trkpt lat="37.29299667" lon="-3.53451">
        <ele>1335.0</ele>
        <time>2022-11-13T13:35:50.000Z</time>
      </trkpt>
      <trkpt lat="37.29299833" lon="-3.53452333">
        <ele>1335.0</ele>
        <time>2022-11-13T13:35:51.000Z</time>
      </trkpt>
      <trkpt lat="37.29299833" lon="-3.534535">
        <ele>1335.0</ele>
        <time>2022-11-13T13:35:52.000Z</time>
      </trkpt>
      <trkpt lat="37.293" lon="-3.53454833">
        <ele>1335.0</ele>
        <time>2022-11-13T13:35:53.000Z</time>
      </trkpt>
      <trkpt lat="37.29300333" lon="-3.53456167">
        <ele>1335.0</ele>
        <time>2022-11-13T13:35:54.000Z</time>
      </trkpt>
      <trkpt lat="37.29300333" lon="-3.53457333">
        <ele>1335.0</ele>
        <time>2022-11-13T13:35:55.000Z</time>
      </trkpt>
      <trkpt lat="37.293" lon="-3.53458333">
        <ele>1335.0</ele>
        <time>2022-11-13T13:35:56.000Z</time>
      </trkpt>
      <trkpt lat="37.29299667" lon="-3.53459167">
        <ele>1335.0</ele>
        <time>2022-11-13T13:35:57.000Z</time>
      </trkpt>
      <trkpt lat="37.29299667" lon="-3.5346">
        <ele>1335.0</ele>
        <time>2022-11-13T13:35:58.000Z</time>
      </trkpt>
      <trkpt lat="37.292995" lon="-3.53461167">
        <ele>1335.0</ele>
        <time>2022-11-13T13:35:59.000Z</time>
      </trkpt>
      <trkpt lat="37.29299333" lon="-3.534625">
        <ele>1335.0</ele>
        <time>2022-11-13T13:36:00.000Z</time>
      </trkpt>
      <trkpt lat="37.29299167" lon="-3.53463833">
        <ele>1335.0</ele>
        <time>2022-11-13T13:36:01.000Z</time>
      </trkpt>
      <trkpt lat="37.29299333" lon="-3.53464667">
        <ele>1335.0</ele>
        <time>2022-11-13T13:36:02.000Z</time>
      </trkpt>
      <trkpt lat="37.29299333" lon="-3.53465833">
        <ele>1335.0</ele>
        <time>2022-11-13T13:36:03.000Z</time>
      </trkpt>
      <trkpt lat="37.29299667" lon="-3.53466667">
        <ele>1336.0</ele>
        <time>2022-11-13T13:36:04.000Z</time>
      </trkpt>
      <trkpt lat="37.293" lon="-3.53467667">
        <ele>1336.0</ele>
        <time>2022-11-13T13:36:05.000Z</time>
      </trkpt>
      <trkpt lat="37.29300167" lon="-3.534685">
        <ele>1336.0</ele>
        <time>2022-11-13T13:36:06.000Z</time>
      </trkpt>
      <trkpt lat="37.29300167" lon="-3.53469333">
        <ele>1336.0</ele>
        <time>2022-11-13T13:36:07.000Z</time>
      </trkpt>
      <trkpt lat="37.29300167" lon="-3.53470167">
        <ele>1336.0</ele>
        <time>2022-11-13T13:36:08.000Z</time>
      </trkpt>
      <trkpt lat="37.29300167" lon="-3.53471">
        <ele>1336.0</ele>
        <time>2022-11-13T13:36:09.000Z</time>
      </trkpt>
      <trkpt lat="37.293" lon="-3.53471667">
        <ele>1337.0</ele>
        <time>2022-11-13T13:36:10.000Z</time>
      </trkpt>
      <trkpt lat="37.293" lon="-3.534725">
        <ele>1337.0</ele>
        <time>2022-11-13T13:36:11.000Z</time>
      </trkpt>
      <trkpt lat="37.293" lon="-3.53473167">
        <ele>1337.0</ele>
        <time>2022-11-13T13:36:12.000Z</time>
      </trkpt>
      <trkpt lat="37.29299833" lon="-3.53473667">
        <ele>1337.0</ele>
        <time>2022-11-13T13:36:13.000Z</time>
      </trkpt>
      <trkpt lat="37.29299667" lon="-3.53474333">
        <ele>1337.0</ele>
        <time>2022-11-13T13:36:14.000Z</time>
      </trkpt>
      <trkpt lat="37.29299667" lon="-3.53474833">
        <ele>1337.0</ele>
        <time>2022-11-13T13:36:15.000Z</time>
      </trkpt>
      <trkpt lat="37.292995" lon="-3.53475167">
        <ele>1338.0</ele>
        <time>2022-11-13T13:36:16.000Z</time>
      </trkpt>
      <trkpt lat="37.29299167" lon="-3.534755">
        <ele>1338.0</ele>
        <time>2022-11-13T13:36:17.000Z</time>
      </trkpt>
      <trkpt lat="37.29299167" lon="-3.53476167">
        <ele>1338.0</ele>
        <time>2022-11-13T13:36:18.000Z</time>
      </trkpt>
      <trkpt lat="37.29299167" lon="-3.53477167">
        <ele>1338.0</ele>
        <time>2022-11-13T13:36:19.000Z</time>
      </trkpt>
      <trkpt lat="37.29298833" lon="-3.53478167">
        <ele>1338.0</ele>
        <time>2022-11-13T13:36:20.000Z</time>
      </trkpt>
      <trkpt lat="37.29298667" lon="-3.53479">
        <ele>1338.0</ele>
        <time>2022-11-13T13:36:21.000Z</time>
      </trkpt>
      <trkpt lat="37.29298333" lon="-3.534795">
        <ele>1339.0</ele>
        <time>2022-11-13T13:36:22.000Z</time>
      </trkpt>
      <trkpt lat="37.29298" lon="-3.5348">
        <ele>1339.0</ele>
        <time>2022-11-13T13:36:23.000Z</time>
      </trkpt>
      <trkpt lat="37.29297667" lon="-3.53480167">
        <ele>1339.0</ele>
        <time>2022-11-13T13:36:24.000Z</time>
      </trkpt>
      <trkpt lat="37.29297167" lon="-3.53480167">
        <ele>1339.0</ele>
        <time>2022-11-13T13:36:25.000Z</time>
      </trkpt>
      <trkpt lat="37.29296667" lon="-3.5348">
        <ele>1339.0</ele>
        <time>2022-11-13T13:36:26.000Z</time>
      </trkpt>
      <trkpt lat="37.29296" lon="-3.53479667">
        <ele>1339.0</ele>
        <time>2022-11-13T13:36:27.000Z</time>
      </trkpt>
      <trkpt lat="37.292955" lon="-3.534795">
        <ele>1339.0</ele>
        <time>2022-11-13T13:36:28.000Z</time>
      </trkpt>
      <trkpt lat="37.29294833" lon="-3.53479333">
        <ele>1340.0</ele>
        <time>2022-11-13T13:36:29.000Z</time>
      </trkpt>
      <trkpt lat="37.29294167" lon="-3.53479">
        <ele>1340.0</ele>
        <time>2022-11-13T13:36:30.000Z</time>
      </trkpt>
      <trkpt lat="37.29293667" lon="-3.53478833">
        <ele>1340.0</ele>
        <time>2022-11-13T13:36:31.000Z</time>
      </trkpt>
      <trkpt lat="37.29293" lon="-3.53478667">
        <ele>1340.0</ele>
        <time>2022-11-13T13:36:32.000Z</time>
      </trkpt>
      <trkpt lat="37.292925" lon="-3.53478667">
        <ele>1340.0</ele>
        <time>2022-11-13T13:36:33.000Z</time>
      </trkpt>
      <trkpt lat="37.29292" lon="-3.53478667">
        <ele>1340.0</ele>
        <time>2022-11-13T13:36:34.000Z</time>
      </trkpt>
      <trkpt lat="37.29291667" lon="-3.53479167">
        <ele>1341.0</ele>
        <time>2022-11-13T13:36:35.000Z</time>
      </trkpt>
      <trkpt lat="37.29291167" lon="-3.534795">
        <ele>1341.0</ele>
        <time>2022-11-13T13:36:36.000Z</time>
      </trkpt>
      <trkpt lat="37.29290667" lon="-3.5348">
        <ele>1341.0</ele>
        <time>2022-11-13T13:36:37.000Z</time>
      </trkpt>
      <trkpt lat="37.29290167" lon="-3.53480333">
        <ele>1341.0</ele>
        <time>2022-11-13T13:36:38.000Z</time>
      </trkpt>
      <trkpt lat="37.292895" lon="-3.53480167">
        <ele>1342.0</ele>
        <time>2022-11-13T13:36:39.000Z</time>
      </trkpt>
      <trkpt lat="37.29288667" lon="-3.53479833">
        <ele>1342.0</ele>
        <time>2022-11-13T13:36:40.000Z</time>
      </trkpt>
      <trkpt lat="37.29288" lon="-3.53479833">
        <ele>1342.0</ele>
        <time>2022-11-13T13:36:41.000Z</time>
      </trkpt>
      <trkpt lat="37.29287333" lon="-3.53479667">
        <ele>1342.0</ele>
        <time>2022-11-13T13:36:42.000Z</time>
      </trkpt>
      <trkpt lat="37.292865" lon="-3.53479333">
        <ele>1342.0</ele>
        <time>2022-11-13T13:36:43.000Z</time>
      </trkpt>
      <trkpt lat="37.29285833" lon="-3.53479167">
        <ele>1343.0</ele>
        <time>2022-11-13T13:36:44.000Z</time>
      </trkpt>
      <trkpt lat="37.29285333" lon="-3.53479167">
        <ele>1343.0</ele>
        <time>2022-11-13T13:36:45.000Z</time>
      </trkpt>
      <trkpt lat="37.29284833" lon="-3.53479333">
        <ele>1343.0</ele>
        <time>2022-11-13T13:36:46.000Z</time>
      </trkpt>
      <trkpt lat="37.29284333" lon="-3.534795">
        <ele>1343.0</ele>
        <time>2022-11-13T13:36:47.000Z</time>
      </trkpt>
      <trkpt lat="37.29283667" lon="-3.53479833">
        <ele>1343.0</ele>
        <time>2022-11-13T13:36:48.000Z</time>
      </trkpt>
      <trkpt lat="37.29283167" lon="-3.53480167">
        <ele>1343.0</ele>
        <time>2022-11-13T13:36:49.000Z</time>
      </trkpt>
      <trkpt lat="37.29282667" lon="-3.534805">
        <ele>1344.0</ele>
        <time>2022-11-13T13:36:50.000Z</time>
      </trkpt>
      <trkpt lat="37.29282167" lon="-3.53480833">
        <ele>1344.0</ele>
        <time>2022-11-13T13:36:51.000Z</time>
      </trkpt>
      <trkpt lat="37.29281833" lon="-3.53481333">
        <ele>1344.0</ele>
        <time>2022-11-13T13:36:52.000Z</time>
      </trkpt>
      <trkpt lat="37.29281833" lon="-3.53482">
        <ele>1344.0</ele>
        <time>2022-11-13T13:36:53.000Z</time>
      </trkpt>
      <trkpt lat="37.29281667" lon="-3.53482833">
        <ele>1344.0</ele>
        <time>2022-11-13T13:36:54.000Z</time>
      </trkpt>
      <trkpt lat="37.292815" lon="-3.534835">
        <ele>1345.0</ele>
        <time>2022-11-13T13:36:55.000Z</time>
      </trkpt>
      <trkpt lat="37.29281333" lon="-3.53484167">
        <ele>1345.0</ele>
        <time>2022-11-13T13:36:56.000Z</time>
      </trkpt>
      <trkpt lat="37.29281" lon="-3.53484833">
        <ele>1345.0</ele>
        <time>2022-11-13T13:36:57.000Z</time>
      </trkpt>
      <trkpt lat="37.29280667" lon="-3.534855">
        <ele>1346.0</ele>
        <time>2022-11-13T13:36:58.000Z</time>
      </trkpt>
      <trkpt lat="37.292805" lon="-3.53486167">
        <ele>1346.0</ele>
        <time>2022-11-13T13:36:59.000Z</time>
      </trkpt>
      <trkpt lat="37.29280333" lon="-3.53486833">
        <ele>1346.0</ele>
        <time>2022-11-13T13:37:00.000Z</time>
      </trkpt>
      <trkpt lat="37.2928" lon="-3.534875">
        <ele>1346.0</ele>
        <time>2022-11-13T13:37:01.000Z</time>
      </trkpt>
      <trkpt lat="37.292795" lon="-3.53487833">
        <ele>1347.0</ele>
        <time>2022-11-13T13:37:02.000Z</time>
      </trkpt>
      <trkpt lat="37.29279167" lon="-3.53488333">
        <ele>1347.0</ele>
        <time>2022-11-13T13:37:03.000Z</time>
      </trkpt>
      <trkpt lat="37.29279" lon="-3.53488833">
        <ele>1347.0</ele>
        <time>2022-11-13T13:37:04.000Z</time>
      </trkpt>
      <trkpt lat="37.29279" lon="-3.53489333">
        <ele>1347.0</ele>
        <time>2022-11-13T13:37:05.000Z</time>
      </trkpt>
      <trkpt lat="37.29279167" lon="-3.5349">
        <ele>1347.0</ele>
        <time>2022-11-13T13:37:06.000Z</time>
      </trkpt>
      <trkpt lat="37.292795" lon="-3.534905">
        <ele>1348.0</ele>
        <time>2022-11-13T13:37:07.000Z</time>
      </trkpt>
      <trkpt lat="37.29279667" lon="-3.53490833">
        <ele>1348.0</ele>
        <time>2022-11-13T13:37:08.000Z</time>
      </trkpt>
      <trkpt lat="37.2928" lon="-3.53491333">
        <ele>1348.0</ele>
        <time>2022-11-13T13:37:09.000Z</time>
      </trkpt>
      <trkpt lat="37.29280333" lon="-3.53492167">
        <ele>1348.0</ele>
        <time>2022-11-13T13:37:10.000Z</time>
      </trkpt>
      <trkpt lat="37.292805" lon="-3.53493">
        <ele>1348.0</ele>
        <time>2022-11-13T13:37:11.000Z</time>
      </trkpt>
      <trkpt lat="37.29280833" lon="-3.53494">
        <ele>1348.0</ele>
        <time>2022-11-13T13:37:12.000Z</time>
      </trkpt>
      <trkpt lat="37.29280833" lon="-3.53494833">
        <ele>1348.0</ele>
        <time>2022-11-13T13:37:13.000Z</time>
      </trkpt>
      <trkpt lat="37.29281" lon="-3.53495833">
        <ele>1348.0</ele>
        <time>2022-11-13T13:37:14.000Z</time>
      </trkpt>
      <trkpt lat="37.29281167" lon="-3.53496833">
        <ele>1348.0</ele>
        <time>2022-11-13T13:37:15.000Z</time>
      </trkpt>
      <trkpt lat="37.29281333" lon="-3.53497833">
        <ele>1348.0</ele>
        <time>2022-11-13T13:37:16.000Z</time>
      </trkpt>
      <trkpt lat="37.292815" lon="-3.53498833">
        <ele>1348.0</ele>
        <time>2022-11-13T13:37:17.000Z</time>
      </trkpt>
      <trkpt lat="37.29281833" lon="-3.53499833">
        <ele>1348.0</ele>
        <time>2022-11-13T13:37:18.000Z</time>
      </trkpt>
      <trkpt lat="37.29282167" lon="-3.53500833">
        <ele>1348.0</ele>
        <time>2022-11-13T13:37:19.000Z</time>
      </trkpt>
      <trkpt lat="37.29282667" lon="-3.53502">
        <ele>1348.0</ele>
        <time>2022-11-13T13:37:20.000Z</time>
      </trkpt>
      <trkpt lat="37.29283" lon="-3.53502833">
        <ele>1348.0</ele>
        <time>2022-11-13T13:37:21.000Z</time>
      </trkpt>
      <trkpt lat="37.292835" lon="-3.53503833">
        <ele>1348.0</ele>
        <time>2022-11-13T13:37:22.000Z</time>
      </trkpt>
      <trkpt lat="37.29284167" lon="-3.53505">
        <ele>1348.0</ele>
        <time>2022-11-13T13:37:23.000Z</time>
      </trkpt>
      <trkpt lat="37.29284833" lon="-3.53506167">
        <ele>1348.0</ele>
        <time>2022-11-13T13:37:24.000Z</time>
      </trkpt>
      <trkpt lat="37.29285333" lon="-3.53507333">
        <ele>1348.0</ele>
        <time>2022-11-13T13:37:25.000Z</time>
      </trkpt>
      <trkpt lat="37.29286" lon="-3.535085">
        <ele>1348.0</ele>
        <time>2022-11-13T13:37:26.000Z</time>
      </trkpt>
      <trkpt lat="37.292865" lon="-3.535095">
        <ele>1348.0</ele>
        <time>2022-11-13T13:37:27.000Z</time>
      </trkpt>
      <trkpt lat="37.29287" lon="-3.53510667">
        <ele>1348.0</ele>
        <time>2022-11-13T13:37:28.000Z</time>
      </trkpt>
      <trkpt lat="37.29287167" lon="-3.53511667">
        <ele>1348.0</ele>
        <time>2022-11-13T13:37:29.000Z</time>
      </trkpt>
      <trkpt lat="37.292875" lon="-3.53512833">
        <ele>1348.0</ele>
        <time>2022-11-13T13:37:30.000Z</time>
      </trkpt>
      <trkpt lat="37.29287667" lon="-3.53514">
        <ele>1348.0</ele>
        <time>2022-11-13T13:37:31.000Z</time>
      </trkpt>
      <trkpt lat="37.292875" lon="-3.53514833">
        <ele>1348.0</ele>
        <time>2022-11-13T13:37:32.000Z</time>
      </trkpt>
      <trkpt lat="37.29287167" lon="-3.535155">
        <ele>1348.0</ele>
        <time>2022-11-13T13:37:33.000Z</time>
      </trkpt>
      <trkpt lat="37.29286667" lon="-3.53515667">
        <ele>1349.0</ele>
        <time>2022-11-13T13:37:34.000Z</time>
      </trkpt>
      <trkpt lat="37.29286167" lon="-3.53515833">
        <ele>1349.0</ele>
        <time>2022-11-13T13:37:35.000Z</time>
      </trkpt>
      <trkpt lat="37.29285833" lon="-3.53516">
        <ele>1349.0</ele>
        <time>2022-11-13T13:37:36.000Z</time>
      </trkpt>
      <trkpt lat="37.292855" lon="-3.53516667">
        <ele>1349.0</ele>
        <time>2022-11-13T13:37:37.000Z</time>
      </trkpt>
      <trkpt lat="37.292855" lon="-3.53517333">
        <ele>1349.0</ele>
        <time>2022-11-13T13:37:38.000Z</time>
      </trkpt>
      <trkpt lat="37.292855" lon="-3.53517833">
        <ele>1349.0</ele>
        <time>2022-11-13T13:37:39.000Z</time>
      </trkpt>
      <trkpt lat="37.29285333" lon="-3.53518667">
        <ele>1350.0</ele>
        <time>2022-11-13T13:37:40.000Z</time>
      </trkpt>
      <trkpt lat="37.29285167" lon="-3.535195">
        <ele>1350.0</ele>
        <time>2022-11-13T13:37:41.000Z</time>
      </trkpt>
      <trkpt lat="37.292845" lon="-3.53520333">
        <ele>1350.0</ele>
        <time>2022-11-13T13:37:42.000Z</time>
      </trkpt>
      <trkpt lat="37.29284167" lon="-3.53521">
        <ele>1350.0</ele>
        <time>2022-11-13T13:37:43.000Z</time>
      </trkpt>
      <trkpt lat="37.29284167" lon="-3.53521833">
        <ele>1350.0</ele>
        <time>2022-11-13T13:37:44.000Z</time>
      </trkpt>
      <trkpt lat="37.29284167" lon="-3.53522667">
        <ele>1350.0</ele>
        <time>2022-11-13T13:37:45.000Z</time>
      </trkpt>
      <trkpt lat="37.29284" lon="-3.53523833">
        <ele>1351.0</ele>
        <time>2022-11-13T13:37:46.000Z</time>
      </trkpt>
      <trkpt lat="37.29283833" lon="-3.53524833">
        <ele>1351.0</ele>
        <time>2022-11-13T13:37:47.000Z</time>
      </trkpt>
      <trkpt lat="37.29283333" lon="-3.535255">
        <ele>1351.0</ele>
        <time>2022-11-13T13:37:48.000Z</time>
      </trkpt>
      <trkpt lat="37.29283" lon="-3.53526333">
        <ele>1351.0</ele>
        <time>2022-11-13T13:37:49.000Z</time>
      </trkpt>
      <trkpt lat="37.29282667" lon="-3.53527167">
        <ele>1351.0</ele>
        <time>2022-11-13T13:37:50.000Z</time>
      </trkpt>
      <trkpt lat="37.29282333" lon="-3.53528">
        <ele>1351.0</ele>
        <time>2022-11-13T13:37:51.000Z</time>
      </trkpt>
      <trkpt lat="37.29282667" lon="-3.53528833">
        <ele>1351.0</ele>
        <time>2022-11-13T13:37:52.000Z</time>
      </trkpt>
      <trkpt lat="37.29283167" lon="-3.53529833">
        <ele>1351.0</ele>
        <time>2022-11-13T13:37:53.000Z</time>
      </trkpt>
      <trkpt lat="37.29283667" lon="-3.53531167">
        <ele>1351.0</ele>
        <time>2022-11-13T13:37:54.000Z</time>
      </trkpt>
      <trkpt lat="37.29284167" lon="-3.53532333">
        <ele>1351.0</ele>
        <time>2022-11-13T13:37:55.000Z</time>
      </trkpt>
      <trkpt lat="37.29284667" lon="-3.535335">
        <ele>1351.0</ele>
        <time>2022-11-13T13:37:56.000Z</time>
      </trkpt>
      <trkpt lat="37.29284667" lon="-3.53534333">
        <ele>1352.0</ele>
        <time>2022-11-13T13:37:57.000Z</time>
      </trkpt>
      <trkpt lat="37.292845" lon="-3.535345">
        <ele>1352.0</ele>
        <time>2022-11-13T13:37:58.000Z</time>
      </trkpt>
      <trkpt lat="37.292845" lon="-3.535345">
        <ele>1352.0</ele>
        <time>2022-11-13T13:37:59.000Z</time>
      </trkpt>
      <trkpt lat="37.29284167" lon="-3.53534667">
        <ele>1352.0</ele>
        <time>2022-11-13T13:38:00.000Z</time>
      </trkpt>
      <trkpt lat="37.29283667" lon="-3.535345">
        <ele>1352.0</ele>
        <time>2022-11-13T13:38:01.000Z</time>
      </trkpt>
      <trkpt lat="37.29283" lon="-3.53534333">
        <ele>1352.0</ele>
        <time>2022-11-13T13:38:02.000Z</time>
      </trkpt>
      <trkpt lat="37.292825" lon="-3.53534167">
        <ele>1352.0</ele>
        <time>2022-11-13T13:38:03.000Z</time>
      </trkpt>
      <trkpt lat="37.29281833" lon="-3.53534">
        <ele>1352.0</ele>
        <time>2022-11-13T13:38:04.000Z</time>
      </trkpt>
      <trkpt lat="37.29281167" lon="-3.53533833">
        <ele>1352.0</ele>
        <time>2022-11-13T13:38:05.000Z</time>
      </trkpt>
      <trkpt lat="37.292805" lon="-3.53533833">
        <ele>1353.0</ele>
        <time>2022-11-13T13:38:06.000Z</time>
      </trkpt>
      <trkpt lat="37.29279833" lon="-3.53533667">
        <ele>1353.0</ele>
        <time>2022-11-13T13:38:07.000Z</time>
      </trkpt>
      <trkpt lat="37.29279333" lon="-3.53533667">
        <ele>1353.0</ele>
        <time>2022-11-13T13:38:08.000Z</time>
      </trkpt>
      <trkpt lat="37.29278667" lon="-3.535335">
        <ele>1353.0</ele>
        <time>2022-11-13T13:38:09.000Z</time>
      </trkpt>
      <trkpt lat="37.29278" lon="-3.53533333">
        <ele>1353.0</ele>
        <time>2022-11-13T13:38:10.000Z</time>
      </trkpt>
      <trkpt lat="37.29277333" lon="-3.53533">
        <ele>1353.0</ele>
        <time>2022-11-13T13:38:11.000Z</time>
      </trkpt>
      <trkpt lat="37.29276667" lon="-3.535325">
        <ele>1353.0</ele>
        <time>2022-11-13T13:38:12.000Z</time>
      </trkpt>
      <trkpt lat="37.29275833" lon="-3.53532">
        <ele>1354.0</ele>
        <time>2022-11-13T13:38:13.000Z</time>
      </trkpt>
      <trkpt lat="37.29275" lon="-3.535315">
        <ele>1354.0</ele>
        <time>2022-11-13T13:38:14.000Z</time>
      </trkpt>
      <trkpt lat="37.29274167" lon="-3.53531167">
        <ele>1354.0</ele>
        <time>2022-11-13T13:38:15.000Z</time>
      </trkpt>
      <trkpt lat="37.29273167" lon="-3.53530833">
        <ele>1354.0</ele>
        <time>2022-11-13T13:38:16.000Z</time>
      </trkpt>
      <trkpt lat="37.292725" lon="-3.53530667">
        <ele>1354.0</ele>
        <time>2022-11-13T13:38:17.000Z</time>
      </trkpt>
      <trkpt lat="37.29271833" lon="-3.535305">
        <ele>1354.0</ele>
        <time>2022-11-13T13:38:18.000Z</time>
      </trkpt>
      <trkpt lat="37.29271333" lon="-3.53530167">
        <ele>1354.0</ele>
        <time>2022-11-13T13:38:19.000Z</time>
      </trkpt>
      <trkpt lat="37.29270667" lon="-3.53529833">
        <ele>1355.0</ele>
        <time>2022-11-13T13:38:20.000Z</time>
      </trkpt>
      <trkpt lat="37.29270167" lon="-3.53529333">
        <ele>1355.0</ele>
        <time>2022-11-13T13:38:21.000Z</time>
      </trkpt>
      <trkpt lat="37.29269667" lon="-3.53529167">
        <ele>1355.0</ele>
        <time>2022-11-13T13:38:22.000Z</time>
      </trkpt>
      <trkpt lat="37.29269167" lon="-3.53529167">
        <ele>1355.0</ele>
        <time>2022-11-13T13:38:23.000Z</time>
      </trkpt>
      <trkpt lat="37.29268667" lon="-3.53529167">
        <ele>1355.0</ele>
        <time>2022-11-13T13:38:24.000Z</time>
      </trkpt>
      <trkpt lat="37.29268" lon="-3.53528833">
        <ele>1356.0</ele>
        <time>2022-11-13T13:38:25.000Z</time>
      </trkpt>
      <trkpt lat="37.29267167" lon="-3.535285">
        <ele>1356.0</ele>
        <time>2022-11-13T13:38:26.000Z</time>
      </trkpt>
      <trkpt lat="37.292665" lon="-3.53528167">
        <ele>1356.0</ele>
        <time>2022-11-13T13:38:27.000Z</time>
      </trkpt>
      <trkpt lat="37.29266" lon="-3.53527833">
        <ele>1356.0</ele>
        <time>2022-11-13T13:38:28.000Z</time>
      </trkpt>
      <trkpt lat="37.29265333" lon="-3.53527333">
        <ele>1357.0</ele>
        <time>2022-11-13T13:38:29.000Z</time>
      </trkpt>
      <trkpt lat="37.29264667" lon="-3.53527167">
        <ele>1357.0</ele>
        <time>2022-11-13T13:38:30.000Z</time>
      </trkpt>
      <trkpt lat="37.29263833" lon="-3.53527">
        <ele>1357.0</ele>
        <time>2022-11-13T13:38:31.000Z</time>
      </trkpt>
      <trkpt lat="37.29263167" lon="-3.535265">
        <ele>1357.0</ele>
        <time>2022-11-13T13:38:32.000Z</time>
      </trkpt>
      <trkpt lat="37.292625" lon="-3.53525667">
        <ele>1358.0</ele>
        <time>2022-11-13T13:38:33.000Z</time>
      </trkpt>
      <trkpt lat="37.29262" lon="-3.53524833">
        <ele>1358.0</ele>
        <time>2022-11-13T13:38:34.000Z</time>
      </trkpt>
      <trkpt lat="37.29261333" lon="-3.53524">
        <ele>1358.0</ele>
        <time>2022-11-13T13:38:35.000Z</time>
      </trkpt>
      <trkpt lat="37.292605" lon="-3.53523167">
        <ele>1358.0</ele>
        <time>2022-11-13T13:38:36.000Z</time>
      </trkpt>
      <trkpt lat="37.29259833" lon="-3.53522833">
        <ele>1359.0</ele>
        <time>2022-11-13T13:38:37.000Z</time>
      </trkpt>
      <trkpt lat="37.29259167" lon="-3.53522333">
        <ele>1359.0</ele>
        <time>2022-11-13T13:38:38.000Z</time>
      </trkpt>
      <trkpt lat="37.292585" lon="-3.53521833">
        <ele>1359.0</ele>
        <time>2022-11-13T13:38:39.000Z</time>
      </trkpt>
      <trkpt lat="37.29257833" lon="-3.53521333">
        <ele>1359.0</ele>
        <time>2022-11-13T13:38:40.000Z</time>
      </trkpt>
      <trkpt lat="37.29257333" lon="-3.53520667">
        <ele>1359.0</ele>
        <time>2022-11-13T13:38:41.000Z</time>
      </trkpt>
      <trkpt lat="37.292565" lon="-3.53520167">
        <ele>1359.0</ele>
        <time>2022-11-13T13:38:42.000Z</time>
      </trkpt>
      <trkpt lat="37.29256" lon="-3.53519667">
        <ele>1359.0</ele>
        <time>2022-11-13T13:38:43.000Z</time>
      </trkpt>
      <trkpt lat="37.292555" lon="-3.535195">
        <ele>1359.0</ele>
        <time>2022-11-13T13:38:44.000Z</time>
      </trkpt>
      <trkpt lat="37.292555" lon="-3.535195">
        <ele>1359.0</ele>
        <time>2022-11-13T13:38:45.000Z</time>
      </trkpt>
      <trkpt lat="37.29255333" lon="-3.53519667">
        <ele>1360.0</ele>
        <time>2022-11-13T13:38:46.000Z</time>
      </trkpt>
      <trkpt lat="37.29255167" lon="-3.53519667">
        <ele>1360.0</ele>
        <time>2022-11-13T13:38:47.000Z</time>
      </trkpt>
      <trkpt lat="37.29255333" lon="-3.53519833">
        <ele>1360.0</ele>
        <time>2022-11-13T13:38:48.000Z</time>
      </trkpt>
      <trkpt lat="37.29255333" lon="-3.5352">
        <ele>1360.0</ele>
        <time>2022-11-13T13:38:49.000Z</time>
      </trkpt>
      <trkpt lat="37.29255333" lon="-3.5352">
        <ele>1360.0</ele>
        <time>2022-11-13T13:38:50.000Z</time>
      </trkpt>
      <trkpt lat="37.29255333" lon="-3.5352">
        <ele>1360.0</ele>
        <time>2022-11-13T13:38:51.000Z</time>
      </trkpt>
      <trkpt lat="37.29255333" lon="-3.53520333">
        <ele>1360.0</ele>
        <time>2022-11-13T13:38:52.000Z</time>
      </trkpt>
      <trkpt lat="37.29255167" lon="-3.535205">
        <ele>1360.0</ele>
        <time>2022-11-13T13:38:53.000Z</time>
      </trkpt>
      <trkpt lat="37.29255167" lon="-3.53520667">
        <ele>1361.0</ele>
        <time>2022-11-13T13:38:54.000Z</time>
      </trkpt>
      <trkpt lat="37.29255167" lon="-3.53520667">
        <ele>1361.0</ele>
        <time>2022-11-13T13:38:55.000Z</time>
      </trkpt>
      <trkpt lat="37.29255167" lon="-3.53520833">
        <ele>1361.0</ele>
        <time>2022-11-13T13:38:56.000Z</time>
      </trkpt>
      <trkpt lat="37.29255" lon="-3.53520833">
        <ele>1361.0</ele>
        <time>2022-11-13T13:38:57.000Z</time>
      </trkpt>
      <trkpt lat="37.29255" lon="-3.53520833">
        <ele>1361.0</ele>
        <time>2022-11-13T13:38:58.000Z</time>
      </trkpt>
      <trkpt lat="37.29255" lon="-3.53521">
        <ele>1361.0</ele>
        <time>2022-11-13T13:38:59.000Z</time>
      </trkpt>
      <trkpt lat="37.29254833" lon="-3.53521">
        <ele>1361.0</ele>
        <time>2022-11-13T13:39:00.000Z</time>
      </trkpt>
      <trkpt lat="37.29254667" lon="-3.53521167">
        <ele>1361.0</ele>
        <time>2022-11-13T13:39:01.000Z</time>
      </trkpt>
      <trkpt lat="37.29254667" lon="-3.53521167">
        <ele>1361.0</ele>
        <time>2022-11-13T13:39:02.000Z</time>
      </trkpt>
      <trkpt lat="37.29254667" lon="-3.53521333">
        <ele>1361.0</ele>
        <time>2022-11-13T13:39:03.000Z</time>
      </trkpt>
      <trkpt lat="37.29254667" lon="-3.53521333">
        <ele>1361.0</ele>
        <time>2022-11-13T13:39:04.000Z</time>
      </trkpt>
      <trkpt lat="37.29254667" lon="-3.53521333">
        <ele>1361.0</ele>
        <time>2022-11-13T13:39:05.000Z</time>
      </trkpt>
      <trkpt lat="37.29254667" lon="-3.53521167">
        <ele>1361.0</ele>
        <time>2022-11-13T13:39:06.000Z</time>
      </trkpt>
      <trkpt lat="37.292545" lon="-3.53521167">
        <ele>1362.0</ele>
        <time>2022-11-13T13:39:07.000Z</time>
      </trkpt>
      <trkpt lat="37.29254667" lon="-3.53521333">
        <ele>1362.0</ele>
        <time>2022-11-13T13:39:08.000Z</time>
      </trkpt>
      <trkpt lat="37.29254667" lon="-3.53521333">
        <ele>1362.0</ele>
        <time>2022-11-13T13:39:09.000Z</time>
      </trkpt>
      <trkpt lat="37.292545" lon="-3.53521667">
        <ele>1362.0</ele>
        <time>2022-11-13T13:39:10.000Z</time>
      </trkpt>
      <trkpt lat="37.29254167" lon="-3.53522">
        <ele>1362.0</ele>
        <time>2022-11-13T13:39:11.000Z</time>
      </trkpt>
      <trkpt lat="37.29253667" lon="-3.53521833">
        <ele>1362.0</ele>
        <time>2022-11-13T13:39:12.000Z</time>
      </trkpt>
      <trkpt lat="37.29253167" lon="-3.53521333">
        <ele>1362.0</ele>
        <time>2022-11-13T13:39:13.000Z</time>
      </trkpt>
      <trkpt lat="37.29253333" lon="-3.53520833">
        <ele>1362.0</ele>
        <time>2022-11-13T13:39:14.000Z</time>
      </trkpt>
      <trkpt lat="37.29253333" lon="-3.53520833">
        <ele>1362.0</ele>
        <time>2022-11-13T13:39:15.000Z</time>
      </trkpt>
      <trkpt lat="37.29253167" lon="-3.53520667">
        <ele>1362.0</ele>
        <time>2022-11-13T13:39:16.000Z</time>
      </trkpt>
      <trkpt lat="37.29253167" lon="-3.53520333">
        <ele>1363.0</ele>
        <time>2022-11-13T13:39:17.000Z</time>
      </trkpt>
      <trkpt lat="37.29253333" lon="-3.53519667">
        <ele>1363.0</ele>
        <time>2022-11-13T13:39:18.000Z</time>
      </trkpt>
      <trkpt lat="37.29253333" lon="-3.53519333">
        <ele>1363.0</ele>
        <time>2022-11-13T13:39:19.000Z</time>
      </trkpt>
      <trkpt lat="37.29253333" lon="-3.53519333">
        <ele>1363.0</ele>
        <time>2022-11-13T13:39:20.000Z</time>
      </trkpt>
      <trkpt lat="37.29253167" lon="-3.53519333">
        <ele>1363.0</ele>
        <time>2022-11-13T13:39:21.000Z</time>
      </trkpt>
      <trkpt lat="37.29253" lon="-3.53519333">
        <ele>1363.0</ele>
        <time>2022-11-13T13:39:22.000Z</time>
      </trkpt>
      <trkpt lat="37.29252833" lon="-3.53519333">
        <ele>1363.0</ele>
        <time>2022-11-13T13:39:23.000Z</time>
      </trkpt>
      <trkpt lat="37.29252833" lon="-3.53519167">
        <ele>1363.0</ele>
        <time>2022-11-13T13:39:24.000Z</time>
      </trkpt>
      <trkpt lat="37.29252833" lon="-3.53519167">
        <ele>1363.0</ele>
        <time>2022-11-13T13:39:25.000Z</time>
      </trkpt>
      <trkpt lat="37.29252667" lon="-3.53519167">
        <ele>1363.0</ele>
        <time>2022-11-13T13:39:26.000Z</time>
      </trkpt>
      <trkpt lat="37.29252833" lon="-3.53519333">
        <ele>1363.0</ele>
        <time>2022-11-13T13:39:27.000Z</time>
      </trkpt>
      <trkpt lat="37.29252833" lon="-3.53519333">
        <ele>1363.0</ele>
        <time>2022-11-13T13:39:28.000Z</time>
      </trkpt>
      <trkpt lat="37.29252667" lon="-3.53519167">
        <ele>1363.0</ele>
        <time>2022-11-13T13:39:29.000Z</time>
      </trkpt>
      <trkpt lat="37.29252667" lon="-3.53519">
        <ele>1364.0</ele>
        <time>2022-11-13T13:39:30.000Z</time>
      </trkpt>
      <trkpt lat="37.29252667" lon="-3.53519">
        <ele>1364.0</ele>
        <time>2022-11-13T13:39:31.000Z</time>
      </trkpt>
      <trkpt lat="37.292525" lon="-3.53519167">
        <ele>1364.0</ele>
        <time>2022-11-13T13:39:32.000Z</time>
      </trkpt>
      <trkpt lat="37.292525" lon="-3.53519167">
        <ele>1364.0</ele>
        <time>2022-11-13T13:39:33.000Z</time>
      </trkpt>
      <trkpt lat="37.29252333" lon="-3.53519167">
        <ele>1364.0</ele>
        <time>2022-11-13T13:39:34.000Z</time>
      </trkpt>
      <trkpt lat="37.29252333" lon="-3.53519167">
        <ele>1364.0</ele>
        <time>2022-11-13T13:39:35.000Z</time>
      </trkpt>
      <trkpt lat="37.29252333" lon="-3.53519167">
        <ele>1364.0</ele>
        <time>2022-11-13T13:39:36.000Z</time>
      </trkpt>
      <trkpt lat="37.29252333" lon="-3.53519333">
        <ele>1364.0</ele>
        <time>2022-11-13T13:39:37.000Z</time>
      </trkpt>
      <trkpt lat="37.29252167" lon="-3.535195">
        <ele>1364.0</ele>
        <time>2022-11-13T13:39:38.000Z</time>
      </trkpt>
      <trkpt lat="37.29252167" lon="-3.535195">
        <ele>1364.0</ele>
        <time>2022-11-13T13:39:39.000Z</time>
      </trkpt>
      <trkpt lat="37.29252" lon="-3.535195">
        <ele>1364.0</ele>
        <time>2022-11-13T13:39:40.000Z</time>
      </trkpt>
      <trkpt lat="37.29251833" lon="-3.53519333">
        <ele>1364.0</ele>
        <time>2022-11-13T13:39:41.000Z</time>
      </trkpt>
      <trkpt lat="37.29252" lon="-3.53519333">
        <ele>1364.0</ele>
        <time>2022-11-13T13:39:42.000Z</time>
      </trkpt>
      <trkpt lat="37.29252" lon="-3.535195">
        <ele>1364.0</ele>
        <time>2022-11-13T13:39:43.000Z</time>
      </trkpt>
      <trkpt lat="37.29252" lon="-3.535195">
        <ele>1364.0</ele>
        <time>2022-11-13T13:39:44.000Z</time>
      </trkpt>
      <trkpt lat="37.29251833" lon="-3.535195">
        <ele>1364.0</ele>
        <time>2022-11-13T13:39:45.000Z</time>
      </trkpt>
      <trkpt lat="37.29251833" lon="-3.535195">
        <ele>1364.0</ele>
        <time>2022-11-13T13:39:46.000Z</time>
      </trkpt>
      <trkpt lat="37.29252" lon="-3.53519667">
        <ele>1364.0</ele>
        <time>2022-11-13T13:39:47.000Z</time>
      </trkpt>
      <trkpt lat="37.29252" lon="-3.53519833">
        <ele>1364.0</ele>
        <time>2022-11-13T13:39:48.000Z</time>
      </trkpt>
      <trkpt lat="37.29251833" lon="-3.53519833">
        <ele>1364.0</ele>
        <time>2022-11-13T13:39:49.000Z</time>
      </trkpt>
      <trkpt lat="37.29252" lon="-3.53519833">
        <ele>1364.0</ele>
        <time>2022-11-13T13:39:50.000Z</time>
      </trkpt>
      <trkpt lat="37.29252" lon="-3.53519833">
        <ele>1364.0</ele>
        <time>2022-11-13T13:39:51.000Z</time>
      </trkpt>
      <trkpt lat="37.29252" lon="-3.53519667">
        <ele>1364.0</ele>
        <time>2022-11-13T13:39:52.000Z</time>
      </trkpt>
      <trkpt lat="37.29252" lon="-3.53519667">
        <ele>1364.0</ele>
        <time>2022-11-13T13:39:53.000Z</time>
      </trkpt>
      <trkpt lat="37.29252" lon="-3.53520167">
        <ele>1364.0</ele>
        <time>2022-11-13T13:39:54.000Z</time>
      </trkpt>
      <trkpt lat="37.29252" lon="-3.53520833">
        <ele>1364.0</ele>
        <time>2022-11-13T13:39:55.000Z</time>
      </trkpt>
      <trkpt lat="37.29252" lon="-3.535215">
        <ele>1364.0</ele>
        <time>2022-11-13T13:39:56.000Z</time>
      </trkpt>
      <trkpt lat="37.29252" lon="-3.53521667">
        <ele>1364.0</ele>
        <time>2022-11-13T13:39:57.000Z</time>
      </trkpt>
      <trkpt lat="37.29252" lon="-3.53521833">
        <ele>1364.0</ele>
        <time>2022-11-13T13:39:58.000Z</time>
      </trkpt>
      <trkpt lat="37.29252167" lon="-3.53521667">
        <ele>1364.0</ele>
        <time>2022-11-13T13:39:59.000Z</time>
      </trkpt>
      <trkpt lat="37.29252" lon="-3.535215">
        <ele>1364.0</ele>
        <time>2022-11-13T13:40:00.000Z</time>
      </trkpt>
      <trkpt lat="37.29251833" lon="-3.535215">
        <ele>1364.0</ele>
        <time>2022-11-13T13:40:01.000Z</time>
      </trkpt>
      <trkpt lat="37.29251833" lon="-3.53521333">
        <ele>1364.0</ele>
        <time>2022-11-13T13:40:02.000Z</time>
      </trkpt>
      <trkpt lat="37.29251833" lon="-3.53521333">
        <ele>1364.0</ele>
        <time>2022-11-13T13:40:03.000Z</time>
      </trkpt>
      <trkpt lat="37.29251833" lon="-3.53521333">
        <ele>1364.0</ele>
        <time>2022-11-13T13:40:04.000Z</time>
      </trkpt>
      <trkpt lat="37.29251833" lon="-3.53521333">
        <ele>1364.0</ele>
        <time>2022-11-13T13:40:05.000Z</time>
      </trkpt>
      <trkpt lat="37.29251833" lon="-3.53521333">
        <ele>1364.0</ele>
        <time>2022-11-13T13:40:06.000Z</time>
      </trkpt>
      <trkpt lat="37.29251833" lon="-3.53521333">
        <ele>1364.0</ele>
        <time>2022-11-13T13:40:07.000Z</time>
      </trkpt>
      <trkpt lat="37.29251833" lon="-3.53521333">
        <ele>1364.0</ele>
        <time>2022-11-13T13:40:08.000Z</time>
      </trkpt>
      <trkpt lat="37.29251833" lon="-3.53521333">
        <ele>1364.0</ele>
        <time>2022-11-13T13:40:09.000Z</time>
      </trkpt>
      <trkpt lat="37.29251833" lon="-3.53521167">
        <ele>1364.0</ele>
        <time>2022-11-13T13:40:10.000Z</time>
      </trkpt>
      <trkpt lat="37.29251833" lon="-3.53521167">
        <ele>1364.0</ele>
        <time>2022-11-13T13:40:11.000Z</time>
      </trkpt>
      <trkpt lat="37.29251833" lon="-3.53521167">
        <ele>1364.0</ele>
        <time>2022-11-13T13:40:12.000Z</time>
      </trkpt>
      <trkpt lat="37.29251833" lon="-3.53521167">
        <ele>1364.0</ele>
        <time>2022-11-13T13:40:13.000Z</time>
      </trkpt>
      <trkpt lat="37.29252" lon="-3.53521167">
        <ele>1364.0</ele>
        <time>2022-11-13T13:40:14.000Z</time>
      </trkpt>
      <trkpt lat="37.29252167" lon="-3.53521">
        <ele>1364.0</ele>
        <time>2022-11-13T13:40:15.000Z</time>
      </trkpt>
      <trkpt lat="37.29252167" lon="-3.53520833">
        <ele>1364.0</ele>
        <time>2022-11-13T13:40:16.000Z</time>
      </trkpt>
      <trkpt lat="37.29252167" lon="-3.53520833">
        <ele>1364.0</ele>
        <time>2022-11-13T13:40:17.000Z</time>
      </trkpt>
      <trkpt lat="37.29252167" lon="-3.53520833">
        <ele>1364.0</ele>
        <time>2022-11-13T13:40:18.000Z</time>
      </trkpt>
      <trkpt lat="37.29252167" lon="-3.53520833">
        <ele>1364.0</ele>
        <time>2022-11-13T13:40:19.000Z</time>
      </trkpt>
      <trkpt lat="37.29252333" lon="-3.53520667">
        <ele>1364.0</ele>
        <time>2022-11-13T13:40:20.000Z</time>
      </trkpt>
      <trkpt lat="37.29252333" lon="-3.535205">
        <ele>1364.0</ele>
        <time>2022-11-13T13:40:21.000Z</time>
      </trkpt>
      <trkpt lat="37.29252333" lon="-3.535205">
        <ele>1364.0</ele>
        <time>2022-11-13T13:40:22.000Z</time>
      </trkpt>
      <trkpt lat="37.29252333" lon="-3.535205">
        <ele>1364.0</ele>
        <time>2022-11-13T13:40:23.000Z</time>
      </trkpt>
      <trkpt lat="37.292525" lon="-3.535205">
        <ele>1364.0</ele>
        <time>2022-11-13T13:40:24.000Z</time>
      </trkpt>
      <trkpt lat="37.29252667" lon="-3.535205">
        <ele>1364.0</ele>
        <time>2022-11-13T13:40:25.000Z</time>
      </trkpt>
      <trkpt lat="37.29253" lon="-3.5352">
        <ele>1364.0</ele>
        <time>2022-11-13T13:40:26.000Z</time>
      </trkpt>
      <trkpt lat="37.29253667" lon="-3.535195">
        <ele>1364.0</ele>
        <time>2022-11-13T13:40:27.000Z</time>
      </trkpt>
      <trkpt lat="37.292545" lon="-3.535195">
        <ele>1364.0</ele>
        <time>2022-11-13T13:40:28.000Z</time>
      </trkpt>
      <trkpt lat="37.29255333" lon="-3.53519833">
        <ele>1364.0</ele>
        <time>2022-11-13T13:40:29.000Z</time>
      </trkpt>
      <trkpt lat="37.292565" lon="-3.53520167">
        <ele>1364.0</ele>
        <time>2022-11-13T13:40:30.000Z</time>
      </trkpt>
      <trkpt lat="37.29257833" lon="-3.53520667">
        <ele>1364.0</ele>
        <time>2022-11-13T13:40:31.000Z</time>
      </trkpt>
      <trkpt lat="37.29259" lon="-3.535215">
        <ele>1364.0</ele>
        <time>2022-11-13T13:40:32.000Z</time>
      </trkpt>
      <trkpt lat="37.29259833" lon="-3.53522333">
        <ele>1364.0</ele>
        <time>2022-11-13T13:40:33.000Z</time>
      </trkpt>
      <trkpt lat="37.29260667" lon="-3.535235">
        <ele>1363.0</ele>
        <time>2022-11-13T13:40:34.000Z</time>
      </trkpt>
      <trkpt lat="37.29261167" lon="-3.53524167">
        <ele>1363.0</ele>
        <time>2022-11-13T13:40:35.000Z</time>
      </trkpt>
      <trkpt lat="37.292615" lon="-3.53524833">
        <ele>1363.0</ele>
        <time>2022-11-13T13:40:36.000Z</time>
      </trkpt>
      <trkpt lat="37.29262" lon="-3.535255">
        <ele>1363.0</ele>
        <time>2022-11-13T13:40:37.000Z</time>
      </trkpt>
      <trkpt lat="37.29262833" lon="-3.53525833">
        <ele>1362.0</ele>
        <time>2022-11-13T13:40:38.000Z</time>
      </trkpt>
      <trkpt lat="37.29263833" lon="-3.53526333">
        <ele>1362.0</ele>
        <time>2022-11-13T13:40:39.000Z</time>
      </trkpt>
      <trkpt lat="37.29264667" lon="-3.53527167">
        <ele>1362.0</ele>
        <time>2022-11-13T13:40:40.000Z</time>
      </trkpt>
      <trkpt lat="37.29265167" lon="-3.53527667">
        <ele>1362.0</ele>
        <time>2022-11-13T13:40:41.000Z</time>
      </trkpt>
      <trkpt lat="37.29265833" lon="-3.53528">
        <ele>1361.0</ele>
        <time>2022-11-13T13:40:42.000Z</time>
      </trkpt>
      <trkpt lat="37.29266667" lon="-3.535285">
        <ele>1361.0</ele>
        <time>2022-11-13T13:40:43.000Z</time>
      </trkpt>
      <trkpt lat="37.292675" lon="-3.53529">
        <ele>1361.0</ele>
        <time>2022-11-13T13:40:44.000Z</time>
      </trkpt>
      <trkpt lat="37.292685" lon="-3.53529833">
        <ele>1360.0</ele>
        <time>2022-11-13T13:40:45.000Z</time>
      </trkpt>
      <trkpt lat="37.292695" lon="-3.53530667">
        <ele>1360.0</ele>
        <time>2022-11-13T13:40:46.000Z</time>
      </trkpt>
      <trkpt lat="37.292705" lon="-3.53531333">
        <ele>1360.0</ele>
        <time>2022-11-13T13:40:47.000Z</time>
      </trkpt>
      <trkpt lat="37.292715" lon="-3.53531833">
        <ele>1360.0</ele>
        <time>2022-11-13T13:40:48.000Z</time>
      </trkpt>
      <trkpt lat="37.29272333" lon="-3.53532333">
        <ele>1359.0</ele>
        <time>2022-11-13T13:40:49.000Z</time>
      </trkpt>
      <trkpt lat="37.29273167" lon="-3.53532833">
        <ele>1359.0</ele>
        <time>2022-11-13T13:40:50.000Z</time>
      </trkpt>
      <trkpt lat="37.29273833" lon="-3.53532833">
        <ele>1359.0</ele>
        <time>2022-11-13T13:40:51.000Z</time>
      </trkpt>
      <trkpt lat="37.29275" lon="-3.53532833">
        <ele>1359.0</ele>
        <time>2022-11-13T13:40:52.000Z</time>
      </trkpt>
      <trkpt lat="37.29276333" lon="-3.53533">
        <ele>1359.0</ele>
        <time>2022-11-13T13:40:53.000Z</time>
      </trkpt>
      <trkpt lat="37.29277333" lon="-3.53533333">
        <ele>1358.0</ele>
        <time>2022-11-13T13:40:54.000Z</time>
      </trkpt>
      <trkpt lat="37.292785" lon="-3.53533833">
        <ele>1358.0</ele>
        <time>2022-11-13T13:40:55.000Z</time>
      </trkpt>
      <trkpt lat="37.29279333" lon="-3.53534333">
        <ele>1358.0</ele>
        <time>2022-11-13T13:40:56.000Z</time>
      </trkpt>
      <trkpt lat="37.29280333" lon="-3.535345">
        <ele>1358.0</ele>
        <time>2022-11-13T13:40:57.000Z</time>
      </trkpt>
      <trkpt lat="37.29281167" lon="-3.535345">
        <ele>1358.0</ele>
        <time>2022-11-13T13:40:58.000Z</time>
      </trkpt>
      <trkpt lat="37.29282333" lon="-3.53534833">
        <ele>1358.0</ele>
        <time>2022-11-13T13:40:59.000Z</time>
      </trkpt>
      <trkpt lat="37.29283167" lon="-3.535355">
        <ele>1358.0</ele>
        <time>2022-11-13T13:41:00.000Z</time>
      </trkpt>
      <trkpt lat="37.29283833" lon="-3.53536167">
        <ele>1358.0</ele>
        <time>2022-11-13T13:41:01.000Z</time>
      </trkpt>
      <trkpt lat="37.29284667" lon="-3.53536667">
        <ele>1358.0</ele>
        <time>2022-11-13T13:41:02.000Z</time>
      </trkpt>
      <trkpt lat="37.292855" lon="-3.53537">
        <ele>1357.0</ele>
        <time>2022-11-13T13:41:03.000Z</time>
      </trkpt>
      <trkpt lat="37.292865" lon="-3.53537833">
        <ele>1357.0</ele>
        <time>2022-11-13T13:41:04.000Z</time>
      </trkpt>
      <trkpt lat="37.29287333" lon="-3.53538833">
        <ele>1357.0</ele>
        <time>2022-11-13T13:41:05.000Z</time>
      </trkpt>
      <trkpt lat="37.29288" lon="-3.53539833">
        <ele>1357.0</ele>
        <time>2022-11-13T13:41:06.000Z</time>
      </trkpt>
      <trkpt lat="37.29288833" lon="-3.53541">
        <ele>1357.0</ele>
        <time>2022-11-13T13:41:07.000Z</time>
      </trkpt>
      <trkpt lat="37.292895" lon="-3.535425">
        <ele>1356.0</ele>
        <time>2022-11-13T13:41:08.000Z</time>
      </trkpt>
      <trkpt lat="37.292895" lon="-3.53544">
        <ele>1356.0</ele>
        <time>2022-11-13T13:41:09.000Z</time>
      </trkpt>
      <trkpt lat="37.29288833" lon="-3.53545">
        <ele>1356.0</ele>
        <time>2022-11-13T13:41:10.000Z</time>
      </trkpt>
      <trkpt lat="37.29287833" lon="-3.53545667">
        <ele>1356.0</ele>
        <time>2022-11-13T13:41:11.000Z</time>
      </trkpt>
      <trkpt lat="37.29286833" lon="-3.53546167">
        <ele>1356.0</ele>
        <time>2022-11-13T13:41:12.000Z</time>
      </trkpt>
      <trkpt lat="37.29286" lon="-3.535465">
        <ele>1356.0</ele>
        <time>2022-11-13T13:41:13.000Z</time>
      </trkpt>
      <trkpt lat="37.29285167" lon="-3.53547167">
        <ele>1356.0</ele>
        <time>2022-11-13T13:41:14.000Z</time>
      </trkpt>
      <trkpt lat="37.29284167" lon="-3.53548">
        <ele>1356.0</ele>
        <time>2022-11-13T13:41:15.000Z</time>
      </trkpt>
      <trkpt lat="37.292835" lon="-3.53548833">
        <ele>1355.0</ele>
        <time>2022-11-13T13:41:16.000Z</time>
      </trkpt>
      <trkpt lat="37.29282667" lon="-3.53549333">
        <ele>1355.0</ele>
        <time>2022-11-13T13:41:17.000Z</time>
      </trkpt>
      <trkpt lat="37.29282" lon="-3.5355">
        <ele>1355.0</ele>
        <time>2022-11-13T13:41:18.000Z</time>
      </trkpt>
      <trkpt lat="37.29281333" lon="-3.53550333">
        <ele>1355.0</ele>
        <time>2022-11-13T13:41:19.000Z</time>
      </trkpt>
      <trkpt lat="37.29280667" lon="-3.53551">
        <ele>1355.0</ele>
        <time>2022-11-13T13:41:20.000Z</time>
      </trkpt>
      <trkpt lat="37.29280333" lon="-3.53551833">
        <ele>1355.0</ele>
        <time>2022-11-13T13:41:21.000Z</time>
      </trkpt>
      <trkpt lat="37.29279833" lon="-3.535525">
        <ele>1355.0</ele>
        <time>2022-11-13T13:41:22.000Z</time>
      </trkpt>
      <trkpt lat="37.29279667" lon="-3.535535">
        <ele>1355.0</ele>
        <time>2022-11-13T13:41:23.000Z</time>
      </trkpt>
      <trkpt lat="37.292795" lon="-3.535545">
        <ele>1355.0</ele>
        <time>2022-11-13T13:41:24.000Z</time>
      </trkpt>
      <trkpt lat="37.292795" lon="-3.535555">
        <ele>1355.0</ele>
        <time>2022-11-13T13:41:25.000Z</time>
      </trkpt>
      <trkpt lat="37.29279833" lon="-3.53556667">
        <ele>1355.0</ele>
        <time>2022-11-13T13:41:26.000Z</time>
      </trkpt>
      <trkpt lat="37.29280167" lon="-3.53557833">
        <ele>1355.0</ele>
        <time>2022-11-13T13:41:27.000Z</time>
      </trkpt>
      <trkpt lat="37.2928" lon="-3.535595">
        <ele>1355.0</ele>
        <time>2022-11-13T13:41:28.000Z</time>
      </trkpt>
      <trkpt lat="37.29280167" lon="-3.53560833">
        <ele>1355.0</ele>
        <time>2022-11-13T13:41:29.000Z</time>
      </trkpt>
      <trkpt lat="37.29280167" lon="-3.53562167">
        <ele>1355.0</ele>
        <time>2022-11-13T13:41:30.000Z</time>
      </trkpt>
      <trkpt lat="37.29279667" lon="-3.53563333">
        <ele>1355.0</ele>
        <time>2022-11-13T13:41:31.000Z</time>
      </trkpt>
      <trkpt lat="37.29279333" lon="-3.53564333">
        <ele>1354.0</ele>
        <time>2022-11-13T13:41:32.000Z</time>
      </trkpt>
      <trkpt lat="37.29279167" lon="-3.53565667">
        <ele>1354.0</ele>
        <time>2022-11-13T13:41:33.000Z</time>
      </trkpt>
      <trkpt lat="37.29279" lon="-3.53567">
        <ele>1354.0</ele>
        <time>2022-11-13T13:41:34.000Z</time>
      </trkpt>
      <trkpt lat="37.29278667" lon="-3.53568333">
        <ele>1354.0</ele>
        <time>2022-11-13T13:41:35.000Z</time>
      </trkpt>
      <trkpt lat="37.29278333" lon="-3.535695">
        <ele>1354.0</ele>
        <time>2022-11-13T13:41:36.000Z</time>
      </trkpt>
      <trkpt lat="37.29278" lon="-3.53570167">
        <ele>1354.0</ele>
        <time>2022-11-13T13:41:37.000Z</time>
      </trkpt>
      <trkpt lat="37.29277667" lon="-3.53570833">
        <ele>1354.0</ele>
        <time>2022-11-13T13:41:38.000Z</time>
      </trkpt>
      <trkpt lat="37.29277333" lon="-3.535715">
        <ele>1354.0</ele>
        <time>2022-11-13T13:41:39.000Z</time>
      </trkpt>
      <trkpt lat="37.29277167" lon="-3.53571667">
        <ele>1354.0</ele>
        <time>2022-11-13T13:41:40.000Z</time>
      </trkpt>
      <trkpt lat="37.29277333" lon="-3.53571667">
        <ele>1354.0</ele>
        <time>2022-11-13T13:41:41.000Z</time>
      </trkpt>
      <trkpt lat="37.29277333" lon="-3.53571667">
        <ele>1354.0</ele>
        <time>2022-11-13T13:41:42.000Z</time>
      </trkpt>
      <trkpt lat="37.29277333" lon="-3.53571833">
        <ele>1354.0</ele>
        <time>2022-11-13T13:41:43.000Z</time>
      </trkpt>
      <trkpt lat="37.29277333" lon="-3.53572167">
        <ele>1354.0</ele>
        <time>2022-11-13T13:41:44.000Z</time>
      </trkpt>
      <trkpt lat="37.29277" lon="-3.535725">
        <ele>1354.0</ele>
        <time>2022-11-13T13:41:45.000Z</time>
      </trkpt>
      <trkpt lat="37.292765" lon="-3.53572667">
        <ele>1354.0</ele>
        <time>2022-11-13T13:41:46.000Z</time>
      </trkpt>
      <trkpt lat="37.29276" lon="-3.53572833">
        <ele>1354.0</ele>
        <time>2022-11-13T13:41:47.000Z</time>
      </trkpt>
      <trkpt lat="37.29275667" lon="-3.53572833">
        <ele>1354.0</ele>
        <time>2022-11-13T13:41:48.000Z</time>
      </trkpt>
      <trkpt lat="37.29275167" lon="-3.53573333">
        <ele>1354.0</ele>
        <time>2022-11-13T13:41:49.000Z</time>
      </trkpt>
      <trkpt lat="37.29274667" lon="-3.53573667">
        <ele>1355.0</ele>
        <time>2022-11-13T13:41:50.000Z</time>
      </trkpt>
      <trkpt lat="37.29274333" lon="-3.53574167">
        <ele>1355.0</ele>
        <time>2022-11-13T13:41:51.000Z</time>
      </trkpt>
      <trkpt lat="37.29273833" lon="-3.53574667">
        <ele>1355.0</ele>
        <time>2022-11-13T13:41:52.000Z</time>
      </trkpt>
      <trkpt lat="37.29273167" lon="-3.53575">
        <ele>1355.0</ele>
        <time>2022-11-13T13:41:53.000Z</time>
      </trkpt>
      <trkpt lat="37.29272667" lon="-3.53574833">
        <ele>1355.0</ele>
        <time>2022-11-13T13:41:54.000Z</time>
      </trkpt>
      <trkpt lat="37.29272" lon="-3.535745">
        <ele>1355.0</ele>
        <time>2022-11-13T13:41:55.000Z</time>
      </trkpt>
      <trkpt lat="37.292715" lon="-3.53574">
        <ele>1355.0</ele>
        <time>2022-11-13T13:41:56.000Z</time>
      </trkpt>
      <trkpt lat="37.29271" lon="-3.53573667">
        <ele>1355.0</ele>
        <time>2022-11-13T13:41:57.000Z</time>
      </trkpt>
      <trkpt lat="37.292705" lon="-3.535735">
        <ele>1355.0</ele>
        <time>2022-11-13T13:41:58.000Z</time>
      </trkpt>
      <trkpt lat="37.2927" lon="-3.53573167">
        <ele>1356.0</ele>
        <time>2022-11-13T13:41:59.000Z</time>
      </trkpt>
      <trkpt lat="37.29269667" lon="-3.53573">
        <ele>1356.0</ele>
        <time>2022-11-13T13:42:00.000Z</time>
      </trkpt>
      <trkpt lat="37.29269167" lon="-3.53573">
        <ele>1356.0</ele>
        <time>2022-11-13T13:42:01.000Z</time>
      </trkpt>
      <trkpt lat="37.29268667" lon="-3.53573">
        <ele>1356.0</ele>
        <time>2022-11-13T13:42:02.000Z</time>
      </trkpt>
      <trkpt lat="37.29268333" lon="-3.53573333">
        <ele>1356.0</ele>
        <time>2022-11-13T13:42:03.000Z</time>
      </trkpt>
      <trkpt lat="37.29268" lon="-3.53573833">
        <ele>1356.0</ele>
        <time>2022-11-13T13:42:04.000Z</time>
      </trkpt>
      <trkpt lat="37.29267833" lon="-3.535745">
        <ele>1356.0</ele>
        <time>2022-11-13T13:42:05.000Z</time>
      </trkpt>
      <trkpt lat="37.29267667" lon="-3.53575167">
        <ele>1357.0</ele>
        <time>2022-11-13T13:42:06.000Z</time>
      </trkpt>
      <trkpt lat="37.292675" lon="-3.53575833">
        <ele>1357.0</ele>
        <time>2022-11-13T13:42:07.000Z</time>
      </trkpt>
      <trkpt lat="37.29267167" lon="-3.53576667">
        <ele>1357.0</ele>
        <time>2022-11-13T13:42:08.000Z</time>
      </trkpt>
      <trkpt lat="37.29266667" lon="-3.53577167">
        <ele>1357.0</ele>
        <time>2022-11-13T13:42:09.000Z</time>
      </trkpt>
      <trkpt lat="37.29266" lon="-3.53577">
        <ele>1357.0</ele>
        <time>2022-11-13T13:42:10.000Z</time>
      </trkpt>
      <trkpt lat="37.29265333" lon="-3.53576667">
        <ele>1357.0</ele>
        <time>2022-11-13T13:42:11.000Z</time>
      </trkpt>
      <trkpt lat="37.29265" lon="-3.535765">
        <ele>1357.0</ele>
        <time>2022-11-13T13:42:12.000Z</time>
      </trkpt>
      <trkpt lat="37.292645" lon="-3.53576167">
        <ele>1358.0</ele>
        <time>2022-11-13T13:42:13.000Z</time>
      </trkpt>
      <trkpt lat="37.29263833" lon="-3.53575833">
        <ele>1358.0</ele>
        <time>2022-11-13T13:42:14.000Z</time>
      </trkpt>
      <trkpt lat="37.29263167" lon="-3.53575667">
        <ele>1358.0</ele>
        <time>2022-11-13T13:42:15.000Z</time>
      </trkpt>
      <trkpt lat="37.292625" lon="-3.53575333">
        <ele>1358.0</ele>
        <time>2022-11-13T13:42:16.000Z</time>
      </trkpt>
      <trkpt lat="37.29262" lon="-3.53575">
        <ele>1358.0</ele>
        <time>2022-11-13T13:42:17.000Z</time>
      </trkpt>
      <trkpt lat="37.292615" lon="-3.535745">
        <ele>1359.0</ele>
        <time>2022-11-13T13:42:18.000Z</time>
      </trkpt>
      <trkpt lat="37.29261" lon="-3.53574333">
        <ele>1359.0</ele>
        <time>2022-11-13T13:42:19.000Z</time>
      </trkpt>
      <trkpt lat="37.292605" lon="-3.53574">
        <ele>1359.0</ele>
        <time>2022-11-13T13:42:20.000Z</time>
      </trkpt>
      <trkpt lat="37.29259833" lon="-3.53574">
        <ele>1359.0</ele>
        <time>2022-11-13T13:42:21.000Z</time>
      </trkpt>
      <trkpt lat="37.292595" lon="-3.53574167">
        <ele>1359.0</ele>
        <time>2022-11-13T13:42:22.000Z</time>
      </trkpt>
      <trkpt lat="37.29259" lon="-3.53574167">
        <ele>1359.0</ele>
        <time>2022-11-13T13:42:23.000Z</time>
      </trkpt>
      <trkpt lat="37.29258667" lon="-3.53574333">
        <ele>1359.0</ele>
        <time>2022-11-13T13:42:24.000Z</time>
      </trkpt>
      <trkpt lat="37.292585" lon="-3.535745">
        <ele>1359.0</ele>
        <time>2022-11-13T13:42:25.000Z</time>
      </trkpt>
      <trkpt lat="37.29258333" lon="-3.53574667">
        <ele>1359.0</ele>
        <time>2022-11-13T13:42:26.000Z</time>
      </trkpt>
      <trkpt lat="37.29258167" lon="-3.53574333">
        <ele>1359.0</ele>
        <time>2022-11-13T13:42:27.000Z</time>
      </trkpt>
      <trkpt lat="37.29258" lon="-3.53573667">
        <ele>1359.0</ele>
        <time>2022-11-13T13:42:28.000Z</time>
      </trkpt>
      <trkpt lat="37.29257667" lon="-3.53572667">
        <ele>1359.0</ele>
        <time>2022-11-13T13:42:29.000Z</time>
      </trkpt>
      <trkpt lat="37.29257167" lon="-3.53572">
        <ele>1359.0</ele>
        <time>2022-11-13T13:42:30.000Z</time>
      </trkpt>
      <trkpt lat="37.29256667" lon="-3.53571167">
        <ele>1360.0</ele>
        <time>2022-11-13T13:42:31.000Z</time>
      </trkpt>
      <trkpt lat="37.29256167" lon="-3.535705">
        <ele>1360.0</ele>
        <time>2022-11-13T13:42:32.000Z</time>
      </trkpt>
      <trkpt lat="37.292555" lon="-3.53569833">
        <ele>1360.0</ele>
        <time>2022-11-13T13:42:33.000Z</time>
      </trkpt>
      <trkpt lat="37.29254833" lon="-3.53569167">
        <ele>1360.0</ele>
        <time>2022-11-13T13:42:34.000Z</time>
      </trkpt>
      <trkpt lat="37.29254167" lon="-3.535685">
        <ele>1360.0</ele>
        <time>2022-11-13T13:42:35.000Z</time>
      </trkpt>
      <trkpt lat="37.292535" lon="-3.53567833">
        <ele>1360.0</ele>
        <time>2022-11-13T13:42:36.000Z</time>
      </trkpt>
      <trkpt lat="37.29252833" lon="-3.53567333">
        <ele>1360.0</ele>
        <time>2022-11-13T13:42:37.000Z</time>
      </trkpt>
      <trkpt lat="37.29252333" lon="-3.53567">
        <ele>1360.0</ele>
        <time>2022-11-13T13:42:38.000Z</time>
      </trkpt>
      <trkpt lat="37.29252" lon="-3.53567">
        <ele>1360.0</ele>
        <time>2022-11-13T13:42:39.000Z</time>
      </trkpt>
      <trkpt lat="37.292515" lon="-3.53567333">
        <ele>1361.0</ele>
        <time>2022-11-13T13:42:40.000Z</time>
      </trkpt>
      <trkpt lat="37.29251167" lon="-3.53567833">
        <ele>1361.0</ele>
        <time>2022-11-13T13:42:41.000Z</time>
      </trkpt>
      <trkpt lat="37.29250667" lon="-3.53568167">
        <ele>1361.0</ele>
        <time>2022-11-13T13:42:42.000Z</time>
      </trkpt>
      <trkpt lat="37.2925" lon="-3.53568167">
        <ele>1361.0</ele>
        <time>2022-11-13T13:42:43.000Z</time>
      </trkpt>
      <trkpt lat="37.29249333" lon="-3.53567833">
        <ele>1361.0</ele>
        <time>2022-11-13T13:42:44.000Z</time>
      </trkpt>
      <trkpt lat="37.292485" lon="-3.53567667">
        <ele>1362.0</ele>
        <time>2022-11-13T13:42:45.000Z</time>
      </trkpt>
      <trkpt lat="37.29248" lon="-3.53567667">
        <ele>1362.0</ele>
        <time>2022-11-13T13:42:46.000Z</time>
      </trkpt>
      <trkpt lat="37.292475" lon="-3.535675">
        <ele>1362.0</ele>
        <time>2022-11-13T13:42:47.000Z</time>
      </trkpt>
      <trkpt lat="37.29247" lon="-3.535675">
        <ele>1362.0</ele>
        <time>2022-11-13T13:42:48.000Z</time>
      </trkpt>
      <trkpt lat="37.29246333" lon="-3.53567333">
        <ele>1363.0</ele>
        <time>2022-11-13T13:42:49.000Z</time>
      </trkpt>
      <trkpt lat="37.29245833" lon="-3.53567167">
        <ele>1363.0</ele>
        <time>2022-11-13T13:42:50.000Z</time>
      </trkpt>
      <trkpt lat="37.29245167" lon="-3.53567333">
        <ele>1363.0</ele>
        <time>2022-11-13T13:42:51.000Z</time>
      </trkpt>
      <trkpt lat="37.292445" lon="-3.53567167">
        <ele>1363.0</ele>
        <time>2022-11-13T13:42:52.000Z</time>
      </trkpt>
      <trkpt lat="37.29244" lon="-3.53567333">
        <ele>1364.0</ele>
        <time>2022-11-13T13:42:53.000Z</time>
      </trkpt>
      <trkpt lat="37.29243333" lon="-3.535675">
        <ele>1364.0</ele>
        <time>2022-11-13T13:42:54.000Z</time>
      </trkpt>
      <trkpt lat="37.29242833" lon="-3.53567333">
        <ele>1364.0</ele>
        <time>2022-11-13T13:42:55.000Z</time>
      </trkpt>
      <trkpt lat="37.29242167" lon="-3.53567167">
        <ele>1364.0</ele>
        <time>2022-11-13T13:42:56.000Z</time>
      </trkpt>
      <trkpt lat="37.29241667" lon="-3.53567333">
        <ele>1364.0</ele>
        <time>2022-11-13T13:42:57.000Z</time>
      </trkpt>
      <trkpt lat="37.29241167" lon="-3.535675">
        <ele>1365.0</ele>
        <time>2022-11-13T13:42:58.000Z</time>
      </trkpt>
      <trkpt lat="37.29241" lon="-3.53568">
        <ele>1365.0</ele>
        <time>2022-11-13T13:42:59.000Z</time>
      </trkpt>
      <trkpt lat="37.29241" lon="-3.535685">
        <ele>1365.0</ele>
        <time>2022-11-13T13:43:00.000Z</time>
      </trkpt>
      <trkpt lat="37.29241167" lon="-3.53569333">
        <ele>1365.0</ele>
        <time>2022-11-13T13:43:01.000Z</time>
      </trkpt>
      <trkpt lat="37.292415" lon="-3.53570333">
        <ele>1365.0</ele>
        <time>2022-11-13T13:43:02.000Z</time>
      </trkpt>
      <trkpt lat="37.29241833" lon="-3.53571333">
        <ele>1365.0</ele>
        <time>2022-11-13T13:43:03.000Z</time>
      </trkpt>
      <trkpt lat="37.29242333" lon="-3.53572333">
        <ele>1365.0</ele>
        <time>2022-11-13T13:43:04.000Z</time>
      </trkpt>
      <trkpt lat="37.29242833" lon="-3.53573333">
        <ele>1365.0</ele>
        <time>2022-11-13T13:43:05.000Z</time>
      </trkpt>
      <trkpt lat="37.29243167" lon="-3.53574333">
        <ele>1365.0</ele>
        <time>2022-11-13T13:43:06.000Z</time>
      </trkpt>
      <trkpt lat="37.29243333" lon="-3.53575333">
        <ele>1366.0</ele>
        <time>2022-11-13T13:43:07.000Z</time>
      </trkpt>
      <trkpt lat="37.29243667" lon="-3.53576333">
        <ele>1366.0</ele>
        <time>2022-11-13T13:43:08.000Z</time>
      </trkpt>
      <trkpt lat="37.29244" lon="-3.53577333">
        <ele>1366.0</ele>
        <time>2022-11-13T13:43:09.000Z</time>
      </trkpt>
      <trkpt lat="37.29244333" lon="-3.53578333">
        <ele>1366.0</ele>
        <time>2022-11-13T13:43:10.000Z</time>
      </trkpt>
      <trkpt lat="37.29244667" lon="-3.53579333">
        <ele>1366.0</ele>
        <time>2022-11-13T13:43:11.000Z</time>
      </trkpt>
      <trkpt lat="37.29245" lon="-3.53580167">
        <ele>1366.0</ele>
        <time>2022-11-13T13:43:12.000Z</time>
      </trkpt>
      <trkpt lat="37.29245167" lon="-3.53581167">
        <ele>1366.0</ele>
        <time>2022-11-13T13:43:13.000Z</time>
      </trkpt>
      <trkpt lat="37.29245167" lon="-3.53582">
        <ele>1366.0</ele>
        <time>2022-11-13T13:43:14.000Z</time>
      </trkpt>
      <trkpt lat="37.29245" lon="-3.535825">
        <ele>1366.0</ele>
        <time>2022-11-13T13:43:15.000Z</time>
      </trkpt>
      <trkpt lat="37.29244667" lon="-3.53583">
        <ele>1366.0</ele>
        <time>2022-11-13T13:43:16.000Z</time>
      </trkpt>
      <trkpt lat="37.29244167" lon="-3.535835">
        <ele>1366.0</ele>
        <time>2022-11-13T13:43:17.000Z</time>
      </trkpt>
      <trkpt lat="37.29243833" lon="-3.53583833">
        <ele>1366.0</ele>
        <time>2022-11-13T13:43:18.000Z</time>
      </trkpt>
      <trkpt lat="37.29243667" lon="-3.53584333">
        <ele>1367.0</ele>
        <time>2022-11-13T13:43:19.000Z</time>
      </trkpt>
      <trkpt lat="37.29243333" lon="-3.53585167">
        <ele>1367.0</ele>
        <time>2022-11-13T13:43:20.000Z</time>
      </trkpt>
      <trkpt lat="37.29243167" lon="-3.53585667">
        <ele>1367.0</ele>
        <time>2022-11-13T13:43:21.000Z</time>
      </trkpt>
      <trkpt lat="37.29243167" lon="-3.53585667">
        <ele>1367.0</ele>
        <time>2022-11-13T13:43:22.000Z</time>
      </trkpt>
      <trkpt lat="37.29243" lon="-3.53585833">
        <ele>1367.0</ele>
        <time>2022-11-13T13:43:23.000Z</time>
      </trkpt>
      <trkpt lat="37.292425" lon="-3.53585833">
        <ele>1367.0</ele>
        <time>2022-11-13T13:43:24.000Z</time>
      </trkpt>
      <trkpt lat="37.29242" lon="-3.53585667">
        <ele>1367.0</ele>
        <time>2022-11-13T13:43:25.000Z</time>
      </trkpt>
      <trkpt lat="37.29241833" lon="-3.53585667">
        <ele>1367.0</ele>
        <time>2022-11-13T13:43:26.000Z</time>
      </trkpt>
      <trkpt lat="37.29241667" lon="-3.53585667">
        <ele>1368.0</ele>
        <time>2022-11-13T13:43:27.000Z</time>
      </trkpt>
      <trkpt lat="37.292415" lon="-3.53586167">
        <ele>1368.0</ele>
        <time>2022-11-13T13:43:28.000Z</time>
      </trkpt>
      <trkpt lat="37.29241167" lon="-3.53586667">
        <ele>1368.0</ele>
        <time>2022-11-13T13:43:29.000Z</time>
      </trkpt>
      <trkpt lat="37.29240833" lon="-3.53587">
        <ele>1368.0</ele>
        <time>2022-11-13T13:43:30.000Z</time>
      </trkpt>
      <trkpt lat="37.29240667" lon="-3.535875">
        <ele>1368.0</ele>
        <time>2022-11-13T13:43:31.000Z</time>
      </trkpt>
      <trkpt lat="37.29240667" lon="-3.53587833">
        <ele>1368.0</ele>
        <time>2022-11-13T13:43:32.000Z</time>
      </trkpt>
      <trkpt lat="37.29240667" lon="-3.53588167">
        <ele>1368.0</ele>
        <time>2022-11-13T13:43:33.000Z</time>
      </trkpt>
      <trkpt lat="37.29240833" lon="-3.53589">
        <ele>1368.0</ele>
        <time>2022-11-13T13:43:34.000Z</time>
      </trkpt>
      <trkpt lat="37.29240833" lon="-3.53589667">
        <ele>1368.0</ele>
        <time>2022-11-13T13:43:35.000Z</time>
      </trkpt>
      <trkpt lat="37.292405" lon="-3.5359">
        <ele>1369.0</ele>
        <time>2022-11-13T13:43:36.000Z</time>
      </trkpt>
      <trkpt lat="37.29240333" lon="-3.53590333">
        <ele>1369.0</ele>
        <time>2022-11-13T13:43:37.000Z</time>
      </trkpt>
      <trkpt lat="37.29240333" lon="-3.53591">
        <ele>1369.0</ele>
        <time>2022-11-13T13:43:38.000Z</time>
      </trkpt>
      <trkpt lat="37.29240167" lon="-3.53591833">
        <ele>1369.0</ele>
        <time>2022-11-13T13:43:39.000Z</time>
      </trkpt>
      <trkpt lat="37.29239833" lon="-3.53592667">
        <ele>1369.0</ele>
        <time>2022-11-13T13:43:40.000Z</time>
      </trkpt>
      <trkpt lat="37.292395" lon="-3.53593333">
        <ele>1369.0</ele>
        <time>2022-11-13T13:43:41.000Z</time>
      </trkpt>
      <trkpt lat="37.29239333" lon="-3.53594333">
        <ele>1369.0</ele>
        <time>2022-11-13T13:43:42.000Z</time>
      </trkpt>
      <trkpt lat="37.29239167" lon="-3.53595167">
        <ele>1369.0</ele>
        <time>2022-11-13T13:43:43.000Z</time>
      </trkpt>
      <trkpt lat="37.29239" lon="-3.53595833">
        <ele>1369.0</ele>
        <time>2022-11-13T13:43:44.000Z</time>
      </trkpt>
      <trkpt lat="37.29238833" lon="-3.53596667">
        <ele>1370.0</ele>
        <time>2022-11-13T13:43:45.000Z</time>
      </trkpt>
      <trkpt lat="37.29238333" lon="-3.535975">
        <ele>1370.0</ele>
        <time>2022-11-13T13:43:46.000Z</time>
      </trkpt>
      <trkpt lat="37.29238" lon="-3.53598">
        <ele>1370.0</ele>
        <time>2022-11-13T13:43:47.000Z</time>
      </trkpt>
      <trkpt lat="37.292375" lon="-3.53598667">
        <ele>1370.0</ele>
        <time>2022-11-13T13:43:48.000Z</time>
      </trkpt>
      <trkpt lat="37.29236833" lon="-3.53599167">
        <ele>1370.0</ele>
        <time>2022-11-13T13:43:49.000Z</time>
      </trkpt>
      <trkpt lat="37.292365" lon="-3.536">
        <ele>1371.0</ele>
        <time>2022-11-13T13:43:50.000Z</time>
      </trkpt>
      <trkpt lat="37.29236" lon="-3.53600833">
        <ele>1371.0</ele>
        <time>2022-11-13T13:43:51.000Z</time>
      </trkpt>
      <trkpt lat="37.29235667" lon="-3.53601833">
        <ele>1371.0</ele>
        <time>2022-11-13T13:43:52.000Z</time>
      </trkpt>
      <trkpt lat="37.29235667" lon="-3.53603">
        <ele>1371.0</ele>
        <time>2022-11-13T13:43:53.000Z</time>
      </trkpt>
      <trkpt lat="37.29235667" lon="-3.53603667">
        <ele>1371.0</ele>
        <time>2022-11-13T13:43:54.000Z</time>
      </trkpt>
      <trkpt lat="37.292355" lon="-3.53604333">
        <ele>1371.0</ele>
        <time>2022-11-13T13:43:55.000Z</time>
      </trkpt>
      <trkpt lat="37.29235167" lon="-3.53605333">
        <ele>1371.0</ele>
        <time>2022-11-13T13:43:56.000Z</time>
      </trkpt>
      <trkpt lat="37.29234833" lon="-3.53606333">
        <ele>1371.0</ele>
        <time>2022-11-13T13:43:57.000Z</time>
      </trkpt>
      <trkpt lat="37.292345" lon="-3.53607">
        <ele>1371.0</ele>
        <time>2022-11-13T13:43:58.000Z</time>
      </trkpt>
      <trkpt lat="37.29234167" lon="-3.53608">
        <ele>1372.0</ele>
        <time>2022-11-13T13:43:59.000Z</time>
      </trkpt>
      <trkpt lat="37.29233667" lon="-3.536085">
        <ele>1372.0</ele>
        <time>2022-11-13T13:44:00.000Z</time>
      </trkpt>
      <trkpt lat="37.29233" lon="-3.53608667">
        <ele>1372.0</ele>
        <time>2022-11-13T13:44:01.000Z</time>
      </trkpt>
      <trkpt lat="37.292325" lon="-3.53608167">
        <ele>1372.0</ele>
        <time>2022-11-13T13:44:02.000Z</time>
      </trkpt>
      <trkpt lat="37.29232" lon="-3.53608">
        <ele>1372.0</ele>
        <time>2022-11-13T13:44:03.000Z</time>
      </trkpt>
      <trkpt lat="37.29231667" lon="-3.53607833">
        <ele>1373.0</ele>
        <time>2022-11-13T13:44:04.000Z</time>
      </trkpt>
      <trkpt lat="37.29231167" lon="-3.536075">
        <ele>1373.0</ele>
        <time>2022-11-13T13:44:05.000Z</time>
      </trkpt>
      <trkpt lat="37.292305" lon="-3.53607">
        <ele>1373.0</ele>
        <time>2022-11-13T13:44:06.000Z</time>
      </trkpt>
      <trkpt lat="37.2923" lon="-3.53606333">
        <ele>1373.0</ele>
        <time>2022-11-13T13:44:07.000Z</time>
      </trkpt>
      <trkpt lat="37.292295" lon="-3.53605333">
        <ele>1373.0</ele>
        <time>2022-11-13T13:44:08.000Z</time>
      </trkpt>
      <trkpt lat="37.29228833" lon="-3.53604833">
        <ele>1373.0</ele>
        <time>2022-11-13T13:44:09.000Z</time>
      </trkpt>
      <trkpt lat="37.29228167" lon="-3.53604333">
        <ele>1374.0</ele>
        <time>2022-11-13T13:44:10.000Z</time>
      </trkpt>
      <trkpt lat="37.29227333" lon="-3.53603667">
        <ele>1374.0</ele>
        <time>2022-11-13T13:44:11.000Z</time>
      </trkpt>
      <trkpt lat="37.29226667" lon="-3.53603167">
        <ele>1374.0</ele>
        <time>2022-11-13T13:44:12.000Z</time>
      </trkpt>
      <trkpt lat="37.29225833" lon="-3.53602667">
        <ele>1374.0</ele>
        <time>2022-11-13T13:44:13.000Z</time>
      </trkpt>
      <trkpt lat="37.29225167" lon="-3.53602833">
        <ele>1374.0</ele>
        <time>2022-11-13T13:44:14.000Z</time>
      </trkpt>
      <trkpt lat="37.292245" lon="-3.53603167">
        <ele>1374.0</ele>
        <time>2022-11-13T13:44:15.000Z</time>
      </trkpt>
      <trkpt lat="37.29224167" lon="-3.536035">
        <ele>1374.0</ele>
        <time>2022-11-13T13:44:16.000Z</time>
      </trkpt>
      <trkpt lat="37.29223833" lon="-3.53604333">
        <ele>1374.0</ele>
        <time>2022-11-13T13:44:17.000Z</time>
      </trkpt>
      <trkpt lat="37.29223667" lon="-3.53605333">
        <ele>1375.0</ele>
        <time>2022-11-13T13:44:18.000Z</time>
      </trkpt>
      <trkpt lat="37.292235" lon="-3.53606167">
        <ele>1375.0</ele>
        <time>2022-11-13T13:44:19.000Z</time>
      </trkpt>
      <trkpt lat="37.292235" lon="-3.53606833">
        <ele>1375.0</ele>
        <time>2022-11-13T13:44:20.000Z</time>
      </trkpt>
      <trkpt lat="37.29223333" lon="-3.53607833">
        <ele>1375.0</ele>
        <time>2022-11-13T13:44:21.000Z</time>
      </trkpt>
      <trkpt lat="37.29223167" lon="-3.53608833">
        <ele>1375.0</ele>
        <time>2022-11-13T13:44:22.000Z</time>
      </trkpt>
      <trkpt lat="37.29223" lon="-3.53610167">
        <ele>1375.0</ele>
        <time>2022-11-13T13:44:23.000Z</time>
      </trkpt>
      <trkpt lat="37.29222833" lon="-3.536115">
        <ele>1375.0</ele>
        <time>2022-11-13T13:44:24.000Z</time>
      </trkpt>
      <trkpt lat="37.29222667" lon="-3.53612667">
        <ele>1376.0</ele>
        <time>2022-11-13T13:44:25.000Z</time>
      </trkpt>
      <trkpt lat="37.292225" lon="-3.53613833">
        <ele>1376.0</ele>
        <time>2022-11-13T13:44:26.000Z</time>
      </trkpt>
      <trkpt lat="37.29222" lon="-3.53615">
        <ele>1376.0</ele>
        <time>2022-11-13T13:44:27.000Z</time>
      </trkpt>
      <trkpt lat="37.292215" lon="-3.53615833">
        <ele>1376.0</ele>
        <time>2022-11-13T13:44:28.000Z</time>
      </trkpt>
      <trkpt lat="37.29221167" lon="-3.536165">
        <ele>1376.0</ele>
        <time>2022-11-13T13:44:29.000Z</time>
      </trkpt>
      <trkpt lat="37.292205" lon="-3.536175">
        <ele>1377.0</ele>
        <time>2022-11-13T13:44:30.000Z</time>
      </trkpt>
      <trkpt lat="37.2922" lon="-3.53618333">
        <ele>1377.0</ele>
        <time>2022-11-13T13:44:31.000Z</time>
      </trkpt>
      <trkpt lat="37.29219333" lon="-3.53619167">
        <ele>1377.0</ele>
        <time>2022-11-13T13:44:32.000Z</time>
      </trkpt>
      <trkpt lat="37.29219167" lon="-3.536195">
        <ele>1377.0</ele>
        <time>2022-11-13T13:44:33.000Z</time>
      </trkpt>
      <trkpt lat="37.29219" lon="-3.53619667">
        <ele>1377.0</ele>
        <time>2022-11-13T13:44:34.000Z</time>
      </trkpt>
      <trkpt lat="37.29219" lon="-3.5362">
        <ele>1377.0</ele>
        <time>2022-11-13T13:44:35.000Z</time>
      </trkpt>
      <trkpt lat="37.29218667" lon="-3.53620333">
        <ele>1377.0</ele>
        <time>2022-11-13T13:44:36.000Z</time>
      </trkpt>
      <trkpt lat="37.29218167" lon="-3.53620667">
        <ele>1377.0</ele>
        <time>2022-11-13T13:44:37.000Z</time>
      </trkpt>
      <trkpt lat="37.29218167" lon="-3.53620833">
        <ele>1378.0</ele>
        <time>2022-11-13T13:44:38.000Z</time>
      </trkpt>
      <trkpt lat="37.29218333" lon="-3.536215">
        <ele>1378.0</ele>
        <time>2022-11-13T13:44:39.000Z</time>
      </trkpt>
      <trkpt lat="37.292185" lon="-3.53622333">
        <ele>1378.0</ele>
        <time>2022-11-13T13:44:40.000Z</time>
      </trkpt>
      <trkpt lat="37.29218667" lon="-3.53623167">
        <ele>1378.0</ele>
        <time>2022-11-13T13:44:41.000Z</time>
      </trkpt>
      <trkpt lat="37.29218667" lon="-3.53624333">
        <ele>1378.0</ele>
        <time>2022-11-13T13:44:42.000Z</time>
      </trkpt>
      <trkpt lat="37.29219" lon="-3.536255">
        <ele>1378.0</ele>
        <time>2022-11-13T13:44:43.000Z</time>
      </trkpt>
      <trkpt lat="37.29219167" lon="-3.53626667">
        <ele>1378.0</ele>
        <time>2022-11-13T13:44:44.000Z</time>
      </trkpt>
      <trkpt lat="37.29219667" lon="-3.53627667">
        <ele>1378.0</ele>
        <time>2022-11-13T13:44:45.000Z</time>
      </trkpt>
      <trkpt lat="37.29220167" lon="-3.53629167">
        <ele>1378.0</ele>
        <time>2022-11-13T13:44:46.000Z</time>
      </trkpt>
      <trkpt lat="37.29221" lon="-3.536305">
        <ele>1378.0</ele>
        <time>2022-11-13T13:44:47.000Z</time>
      </trkpt>
      <trkpt lat="37.29221667" lon="-3.53632">
        <ele>1378.0</ele>
        <time>2022-11-13T13:44:48.000Z</time>
      </trkpt>
      <trkpt lat="37.29222" lon="-3.53633333">
        <ele>1378.0</ele>
        <time>2022-11-13T13:44:49.000Z</time>
      </trkpt>
      <trkpt lat="37.29222" lon="-3.53633667">
        <ele>1378.0</ele>
        <time>2022-11-13T13:44:50.000Z</time>
      </trkpt>
      <trkpt lat="37.29221833" lon="-3.53633833">
        <ele>1378.0</ele>
        <time>2022-11-13T13:44:51.000Z</time>
      </trkpt>
      <trkpt lat="37.29221833" lon="-3.53633833">
        <ele>1378.0</ele>
        <time>2022-11-13T13:44:52.000Z</time>
      </trkpt>
      <trkpt lat="37.29222" lon="-3.53634">
        <ele>1378.0</ele>
        <time>2022-11-13T13:44:53.000Z</time>
      </trkpt>
      <trkpt lat="37.29222" lon="-3.53634333">
        <ele>1378.0</ele>
        <time>2022-11-13T13:44:54.000Z</time>
      </trkpt>
      <trkpt lat="37.29222" lon="-3.53634667">
        <ele>1378.0</ele>
        <time>2022-11-13T13:44:55.000Z</time>
      </trkpt>
      <trkpt lat="37.29221833" lon="-3.53634667">
        <ele>1378.0</ele>
        <time>2022-11-13T13:44:56.000Z</time>
      </trkpt>
      <trkpt lat="37.29221667" lon="-3.53634333">
        <ele>1378.0</ele>
        <time>2022-11-13T13:44:57.000Z</time>
      </trkpt>
      <trkpt lat="37.292215" lon="-3.53634167">
        <ele>1379.0</ele>
        <time>2022-11-13T13:44:58.000Z</time>
      </trkpt>
      <trkpt lat="37.292215" lon="-3.53634167">
        <ele>1379.0</ele>
        <time>2022-11-13T13:44:59.000Z</time>
      </trkpt>
      <trkpt lat="37.292215" lon="-3.53634167">
        <ele>1379.0</ele>
        <time>2022-11-13T13:45:00.000Z</time>
      </trkpt>
      <trkpt lat="37.292215" lon="-3.53634167">
        <ele>1379.0</ele>
        <time>2022-11-13T13:45:01.000Z</time>
      </trkpt>
      <trkpt lat="37.292215" lon="-3.53634167">
        <ele>1379.0</ele>
        <time>2022-11-13T13:45:02.000Z</time>
      </trkpt>
      <trkpt lat="37.29221333" lon="-3.53634">
        <ele>1379.0</ele>
        <time>2022-11-13T13:45:03.000Z</time>
      </trkpt>
      <trkpt lat="37.29221167" lon="-3.53633667">
        <ele>1379.0</ele>
        <time>2022-11-13T13:45:04.000Z</time>
      </trkpt>
      <trkpt lat="37.29221" lon="-3.53632833">
        <ele>1379.0</ele>
        <time>2022-11-13T13:45:05.000Z</time>
      </trkpt>
      <trkpt lat="37.29220667" lon="-3.53632">
        <ele>1379.0</ele>
        <time>2022-11-13T13:45:06.000Z</time>
      </trkpt>
      <trkpt lat="37.29220167" lon="-3.53631333">
        <ele>1379.0</ele>
        <time>2022-11-13T13:45:07.000Z</time>
      </trkpt>
      <trkpt lat="37.29219833" lon="-3.53631167">
        <ele>1379.0</ele>
        <time>2022-11-13T13:45:08.000Z</time>
      </trkpt>
      <trkpt lat="37.292195" lon="-3.53631333">
        <ele>1379.0</ele>
        <time>2022-11-13T13:45:09.000Z</time>
      </trkpt>
      <trkpt lat="37.292195" lon="-3.53631667">
        <ele>1379.0</ele>
        <time>2022-11-13T13:45:10.000Z</time>
      </trkpt>
      <trkpt lat="37.292195" lon="-3.53632167">
        <ele>1379.0</ele>
        <time>2022-11-13T13:45:11.000Z</time>
      </trkpt>
      <trkpt lat="37.29219333" lon="-3.53632667">
        <ele>1379.0</ele>
        <time>2022-11-13T13:45:12.000Z</time>
      </trkpt>
      <trkpt lat="37.29219167" lon="-3.53633333">
        <ele>1379.0</ele>
        <time>2022-11-13T13:45:13.000Z</time>
      </trkpt>
      <trkpt lat="37.29219" lon="-3.53633667">
        <ele>1379.0</ele>
        <time>2022-11-13T13:45:14.000Z</time>
      </trkpt>
      <trkpt lat="37.29218833" lon="-3.53633833">
        <ele>1379.0</ele>
        <time>2022-11-13T13:45:15.000Z</time>
      </trkpt>
      <trkpt lat="37.29218667" lon="-3.53633833">
        <ele>1379.0</ele>
        <time>2022-11-13T13:45:16.000Z</time>
      </trkpt>
      <trkpt lat="37.29218667" lon="-3.53633833">
        <ele>1379.0</ele>
        <time>2022-11-13T13:45:17.000Z</time>
      </trkpt>
      <trkpt lat="37.29218667" lon="-3.53633833">
        <ele>1380.0</ele>
        <time>2022-11-13T13:45:18.000Z</time>
      </trkpt>
      <trkpt lat="37.29218667" lon="-3.53634167">
        <ele>1380.0</ele>
        <time>2022-11-13T13:45:19.000Z</time>
      </trkpt>
      <trkpt lat="37.292185" lon="-3.53634333">
        <ele>1380.0</ele>
        <time>2022-11-13T13:45:20.000Z</time>
      </trkpt>
      <trkpt lat="37.29218167" lon="-3.53634667">
        <ele>1380.0</ele>
        <time>2022-11-13T13:45:21.000Z</time>
      </trkpt>
      <trkpt lat="37.29218" lon="-3.53634833">
        <ele>1380.0</ele>
        <time>2022-11-13T13:45:22.000Z</time>
      </trkpt>
      <trkpt lat="37.29218" lon="-3.53635">
        <ele>1380.0</ele>
        <time>2022-11-13T13:45:23.000Z</time>
      </trkpt>
      <trkpt lat="37.29217833" lon="-3.53634667">
        <ele>1380.0</ele>
        <time>2022-11-13T13:45:24.000Z</time>
      </trkpt>
      <trkpt lat="37.29217833" lon="-3.536345">
        <ele>1380.0</ele>
        <time>2022-11-13T13:45:25.000Z</time>
      </trkpt>
      <trkpt lat="37.29217833" lon="-3.53634167">
        <ele>1380.0</ele>
        <time>2022-11-13T13:45:26.000Z</time>
      </trkpt>
      <trkpt lat="37.29218" lon="-3.53633667">
        <ele>1380.0</ele>
        <time>2022-11-13T13:45:27.000Z</time>
      </trkpt>
      <trkpt lat="37.29218333" lon="-3.53633">
        <ele>1380.0</ele>
        <time>2022-11-13T13:45:28.000Z</time>
      </trkpt>
      <trkpt lat="37.29218667" lon="-3.53631833">
        <ele>1380.0</ele>
        <time>2022-11-13T13:45:29.000Z</time>
      </trkpt>
      <trkpt lat="37.29218833" lon="-3.53630667">
        <ele>1380.0</ele>
        <time>2022-11-13T13:45:30.000Z</time>
      </trkpt>
      <trkpt lat="37.29219167" lon="-3.53629667">
        <ele>1380.0</ele>
        <time>2022-11-13T13:45:31.000Z</time>
      </trkpt>
      <trkpt lat="37.292195" lon="-3.53629333">
        <ele>1380.0</ele>
        <time>2022-11-13T13:45:32.000Z</time>
      </trkpt>
      <trkpt lat="37.2922" lon="-3.53629333">
        <ele>1380.0</ele>
        <time>2022-11-13T13:45:33.000Z</time>
      </trkpt>
      <trkpt lat="37.292205" lon="-3.53630167">
        <ele>1380.0</ele>
        <time>2022-11-13T13:45:34.000Z</time>
      </trkpt>
      <trkpt lat="37.29221" lon="-3.53631333">
        <ele>1380.0</ele>
        <time>2022-11-13T13:45:35.000Z</time>
      </trkpt>
      <trkpt lat="37.29221167" lon="-3.536325">
        <ele>1380.0</ele>
        <time>2022-11-13T13:45:36.000Z</time>
      </trkpt>
      <trkpt lat="37.292215" lon="-3.536335">
        <ele>1380.0</ele>
        <time>2022-11-13T13:45:37.000Z</time>
      </trkpt>
      <trkpt lat="37.29221833" lon="-3.53634333">
        <ele>1380.0</ele>
        <time>2022-11-13T13:45:38.000Z</time>
      </trkpt>
      <trkpt lat="37.29222167" lon="-3.536355">
        <ele>1380.0</ele>
        <time>2022-11-13T13:45:39.000Z</time>
      </trkpt>
      <trkpt lat="37.29222667" lon="-3.53636333">
        <ele>1380.0</ele>
        <time>2022-11-13T13:45:40.000Z</time>
      </trkpt>
      <trkpt lat="37.292235" lon="-3.53637167">
        <ele>1380.0</ele>
        <time>2022-11-13T13:45:41.000Z</time>
      </trkpt>
      <trkpt lat="37.29223833" lon="-3.53638333">
        <ele>1380.0</ele>
        <time>2022-11-13T13:45:42.000Z</time>
      </trkpt>
      <trkpt lat="37.29224167" lon="-3.536395">
        <ele>1380.0</ele>
        <time>2022-11-13T13:45:43.000Z</time>
      </trkpt>
      <trkpt lat="37.29224833" lon="-3.5364">
        <ele>1380.0</ele>
        <time>2022-11-13T13:45:44.000Z</time>
      </trkpt>
      <trkpt lat="37.29225667" lon="-3.53640667">
        <ele>1379.0</ele>
        <time>2022-11-13T13:45:45.000Z</time>
      </trkpt>
      <trkpt lat="37.292265" lon="-3.53642">
        <ele>1379.0</ele>
        <time>2022-11-13T13:45:46.000Z</time>
      </trkpt>
      <trkpt lat="37.29227" lon="-3.53643333">
        <ele>1379.0</ele>
        <time>2022-11-13T13:45:47.000Z</time>
      </trkpt>
      <trkpt lat="37.29227333" lon="-3.53644667">
        <ele>1379.0</ele>
        <time>2022-11-13T13:45:48.000Z</time>
      </trkpt>
      <trkpt lat="37.29227833" lon="-3.53645833">
        <ele>1379.0</ele>
        <time>2022-11-13T13:45:49.000Z</time>
      </trkpt>
      <trkpt lat="37.29228333" lon="-3.53646833">
        <ele>1379.0</ele>
        <time>2022-11-13T13:45:50.000Z</time>
      </trkpt>
      <trkpt lat="37.29228833" lon="-3.53647667">
        <ele>1379.0</ele>
        <time>2022-11-13T13:45:51.000Z</time>
      </trkpt>
      <trkpt lat="37.29229333" lon="-3.53648667">
        <ele>1379.0</ele>
        <time>2022-11-13T13:45:52.000Z</time>
      </trkpt>
      <trkpt lat="37.292295" lon="-3.53649667">
        <ele>1379.0</ele>
        <time>2022-11-13T13:45:53.000Z</time>
      </trkpt>
      <trkpt lat="37.29229667" lon="-3.53650167">
        <ele>1379.0</ele>
        <time>2022-11-13T13:45:54.000Z</time>
      </trkpt>
      <trkpt lat="37.29229667" lon="-3.536505">
        <ele>1379.0</ele>
        <time>2022-11-13T13:45:55.000Z</time>
      </trkpt>
      <trkpt lat="37.29229833" lon="-3.53651">
        <ele>1379.0</ele>
        <time>2022-11-13T13:45:56.000Z</time>
      </trkpt>
      <trkpt lat="37.29229833" lon="-3.53652">
        <ele>1380.0</ele>
        <time>2022-11-13T13:45:57.000Z</time>
      </trkpt>
      <trkpt lat="37.2923" lon="-3.53653167">
        <ele>1380.0</ele>
        <time>2022-11-13T13:45:58.000Z</time>
      </trkpt>
      <trkpt lat="37.29229833" lon="-3.53654333">
        <ele>1380.0</ele>
        <time>2022-11-13T13:45:59.000Z</time>
      </trkpt>
      <trkpt lat="37.29229667" lon="-3.53655333">
        <ele>1380.0</ele>
        <time>2022-11-13T13:46:00.000Z</time>
      </trkpt>
      <trkpt lat="37.29229667" lon="-3.536565">
        <ele>1380.0</ele>
        <time>2022-11-13T13:46:01.000Z</time>
      </trkpt>
      <trkpt lat="37.29229167" lon="-3.53657333">
        <ele>1380.0</ele>
        <time>2022-11-13T13:46:02.000Z</time>
      </trkpt>
      <trkpt lat="37.29228667" lon="-3.53657833">
        <ele>1380.0</ele>
        <time>2022-11-13T13:46:03.000Z</time>
      </trkpt>
      <trkpt lat="37.292285" lon="-3.53658833">
        <ele>1381.0</ele>
        <time>2022-11-13T13:46:04.000Z</time>
      </trkpt>
      <trkpt lat="37.29228667" lon="-3.53659833">
        <ele>1381.0</ele>
        <time>2022-11-13T13:46:05.000Z</time>
      </trkpt>
      <trkpt lat="37.29228833" lon="-3.536605">
        <ele>1381.0</ele>
        <time>2022-11-13T13:46:06.000Z</time>
      </trkpt>
      <trkpt lat="37.29229167" lon="-3.53661667">
        <ele>1381.0</ele>
        <time>2022-11-13T13:46:07.000Z</time>
      </trkpt>
      <trkpt lat="37.29229167" lon="-3.53663">
        <ele>1381.0</ele>
        <time>2022-11-13T13:46:08.000Z</time>
      </trkpt>
      <trkpt lat="37.29228833" lon="-3.53664333">
        <ele>1381.0</ele>
        <time>2022-11-13T13:46:09.000Z</time>
      </trkpt>
      <trkpt lat="37.292285" lon="-3.53665333">
        <ele>1382.0</ele>
        <time>2022-11-13T13:46:10.000Z</time>
      </trkpt>
      <trkpt lat="37.29228333" lon="-3.53666333">
        <ele>1382.0</ele>
        <time>2022-11-13T13:46:11.000Z</time>
      </trkpt>
      <trkpt lat="37.29227833" lon="-3.536675">
        <ele>1382.0</ele>
        <time>2022-11-13T13:46:12.000Z</time>
      </trkpt>
      <trkpt lat="37.292275" lon="-3.53668667">
        <ele>1382.0</ele>
        <time>2022-11-13T13:46:13.000Z</time>
      </trkpt>
      <trkpt lat="37.29227167" lon="-3.53669833">
        <ele>1382.0</ele>
        <time>2022-11-13T13:46:14.000Z</time>
      </trkpt>
      <trkpt lat="37.29227" lon="-3.53670333">
        <ele>1382.0</ele>
        <time>2022-11-13T13:46:15.000Z</time>
      </trkpt>
      <trkpt lat="37.29227" lon="-3.53670667">
        <ele>1382.0</ele>
        <time>2022-11-13T13:46:16.000Z</time>
      </trkpt>
      <trkpt lat="37.29226833" lon="-3.53670667">
        <ele>1382.0</ele>
        <time>2022-11-13T13:46:17.000Z</time>
      </trkpt>
      <trkpt lat="37.29227" lon="-3.53670667">
        <ele>1382.0</ele>
        <time>2022-11-13T13:46:18.000Z</time>
      </trkpt>
      <trkpt lat="37.29226833" lon="-3.53671333">
        <ele>1382.0</ele>
        <time>2022-11-13T13:46:19.000Z</time>
      </trkpt>
      <trkpt lat="37.29226333" lon="-3.53672">
        <ele>1382.0</ele>
        <time>2022-11-13T13:46:20.000Z</time>
      </trkpt>
      <trkpt lat="37.29225667" lon="-3.53672333">
        <ele>1382.0</ele>
        <time>2022-11-13T13:46:21.000Z</time>
      </trkpt>
      <trkpt lat="37.29224833" lon="-3.53672667">
        <ele>1382.0</ele>
        <time>2022-11-13T13:46:22.000Z</time>
      </trkpt>
      <trkpt lat="37.29224333" lon="-3.53672833">
        <ele>1382.0</ele>
        <time>2022-11-13T13:46:23.000Z</time>
      </trkpt>
      <trkpt lat="37.29223667" lon="-3.53673167">
        <ele>1382.0</ele>
        <time>2022-11-13T13:46:24.000Z</time>
      </trkpt>
      <trkpt lat="37.29223167" lon="-3.53673833">
        <ele>1382.0</ele>
        <time>2022-11-13T13:46:25.000Z</time>
      </trkpt>
      <trkpt lat="37.29222833" lon="-3.536745">
        <ele>1382.0</ele>
        <time>2022-11-13T13:46:26.000Z</time>
      </trkpt>
      <trkpt lat="37.29222833" lon="-3.536755">
        <ele>1382.0</ele>
        <time>2022-11-13T13:46:27.000Z</time>
      </trkpt>
      <trkpt lat="37.292225" lon="-3.53676167">
        <ele>1383.0</ele>
        <time>2022-11-13T13:46:28.000Z</time>
      </trkpt>
      <trkpt lat="37.292225" lon="-3.536765">
        <ele>1383.0</ele>
        <time>2022-11-13T13:46:29.000Z</time>
      </trkpt>
      <trkpt lat="37.29222333" lon="-3.53676667">
        <ele>1383.0</ele>
        <time>2022-11-13T13:46:30.000Z</time>
      </trkpt>
      <trkpt lat="37.29222" lon="-3.53676833">
        <ele>1383.0</ele>
        <time>2022-11-13T13:46:31.000Z</time>
      </trkpt>
      <trkpt lat="37.29221833" lon="-3.53677">
        <ele>1383.0</ele>
        <time>2022-11-13T13:46:32.000Z</time>
      </trkpt>
      <trkpt lat="37.29221667" lon="-3.53677">
        <ele>1383.0</ele>
        <time>2022-11-13T13:46:33.000Z</time>
      </trkpt>
      <trkpt lat="37.292215" lon="-3.53677333">
        <ele>1383.0</ele>
        <time>2022-11-13T13:46:34.000Z</time>
      </trkpt>
      <trkpt lat="37.29220667" lon="-3.53677833">
        <ele>1383.0</ele>
        <time>2022-11-13T13:46:35.000Z</time>
      </trkpt>
      <trkpt lat="37.2922" lon="-3.53678">
        <ele>1383.0</ele>
        <time>2022-11-13T13:46:36.000Z</time>
      </trkpt>
      <trkpt lat="37.29219333" lon="-3.53678667">
        <ele>1383.0</ele>
        <time>2022-11-13T13:46:37.000Z</time>
      </trkpt>
      <trkpt lat="37.292185" lon="-3.53679333">
        <ele>1383.0</ele>
        <time>2022-11-13T13:46:38.000Z</time>
      </trkpt>
      <trkpt lat="37.29217667" lon="-3.53680333">
        <ele>1383.0</ele>
        <time>2022-11-13T13:46:39.000Z</time>
      </trkpt>
      <trkpt lat="37.29217167" lon="-3.53681333">
        <ele>1384.0</ele>
        <time>2022-11-13T13:46:40.000Z</time>
      </trkpt>
      <trkpt lat="37.29216833" lon="-3.53682667">
        <ele>1384.0</ele>
        <time>2022-11-13T13:46:41.000Z</time>
      </trkpt>
      <trkpt lat="37.29216333" lon="-3.53684">
        <ele>1384.0</ele>
        <time>2022-11-13T13:46:42.000Z</time>
      </trkpt>
      <trkpt lat="37.29215833" lon="-3.53684833">
        <ele>1384.0</ele>
        <time>2022-11-13T13:46:43.000Z</time>
      </trkpt>
      <trkpt lat="37.29215333" lon="-3.53685167">
        <ele>1384.0</ele>
        <time>2022-11-13T13:46:44.000Z</time>
      </trkpt>
      <trkpt lat="37.29215167" lon="-3.53685167">
        <ele>1384.0</ele>
        <time>2022-11-13T13:46:45.000Z</time>
      </trkpt>
      <trkpt lat="37.29215167" lon="-3.53685333">
        <ele>1384.0</ele>
        <time>2022-11-13T13:46:46.000Z</time>
      </trkpt>
      <trkpt lat="37.29215167" lon="-3.536855">
        <ele>1384.0</ele>
        <time>2022-11-13T13:46:47.000Z</time>
      </trkpt>
      <trkpt lat="37.29215" lon="-3.53685667">
        <ele>1384.0</ele>
        <time>2022-11-13T13:46:48.000Z</time>
      </trkpt>
      <trkpt lat="37.29214667" lon="-3.53686333">
        <ele>1384.0</ele>
        <time>2022-11-13T13:46:49.000Z</time>
      </trkpt>
      <trkpt lat="37.29214167" lon="-3.53687333">
        <ele>1384.0</ele>
        <time>2022-11-13T13:46:50.000Z</time>
      </trkpt>
      <trkpt lat="37.29213333" lon="-3.53688167">
        <ele>1384.0</ele>
        <time>2022-11-13T13:46:51.000Z</time>
      </trkpt>
      <trkpt lat="37.29212667" lon="-3.53689">
        <ele>1384.0</ele>
        <time>2022-11-13T13:46:52.000Z</time>
      </trkpt>
      <trkpt lat="37.29211833" lon="-3.53689667">
        <ele>1384.0</ele>
        <time>2022-11-13T13:46:53.000Z</time>
      </trkpt>
      <trkpt lat="37.29210833" lon="-3.5369">
        <ele>1384.0</ele>
        <time>2022-11-13T13:46:54.000Z</time>
      </trkpt>
      <trkpt lat="37.29209833" lon="-3.5369">
        <ele>1384.0</ele>
        <time>2022-11-13T13:46:55.000Z</time>
      </trkpt>
      <trkpt lat="37.29208833" lon="-3.53689333">
        <ele>1385.0</ele>
        <time>2022-11-13T13:46:56.000Z</time>
      </trkpt>
      <trkpt lat="37.29207833" lon="-3.536885">
        <ele>1385.0</ele>
        <time>2022-11-13T13:46:57.000Z</time>
      </trkpt>
      <trkpt lat="37.29206833" lon="-3.53687833">
        <ele>1385.0</ele>
        <time>2022-11-13T13:46:58.000Z</time>
      </trkpt>
      <trkpt lat="37.29206" lon="-3.53687">
        <ele>1385.0</ele>
        <time>2022-11-13T13:46:59.000Z</time>
      </trkpt>
      <trkpt lat="37.292055" lon="-3.53686">
        <ele>1385.0</ele>
        <time>2022-11-13T13:47:00.000Z</time>
      </trkpt>
      <trkpt lat="37.29205" lon="-3.53684833">
        <ele>1385.0</ele>
        <time>2022-11-13T13:47:01.000Z</time>
      </trkpt>
      <trkpt lat="37.29204833" lon="-3.53683667">
        <ele>1386.0</ele>
        <time>2022-11-13T13:47:02.000Z</time>
      </trkpt>
      <trkpt lat="37.29204667" lon="-3.53682667">
        <ele>1386.0</ele>
        <time>2022-11-13T13:47:03.000Z</time>
      </trkpt>
      <trkpt lat="37.292045" lon="-3.53681667">
        <ele>1386.0</ele>
        <time>2022-11-13T13:47:04.000Z</time>
      </trkpt>
      <trkpt lat="37.29204167" lon="-3.536805">
        <ele>1386.0</ele>
        <time>2022-11-13T13:47:05.000Z</time>
      </trkpt>
      <trkpt lat="37.29203667" lon="-3.53679333">
        <ele>1386.0</ele>
        <time>2022-11-13T13:47:06.000Z</time>
      </trkpt>
      <trkpt lat="37.29203167" lon="-3.536785">
        <ele>1386.0</ele>
        <time>2022-11-13T13:47:07.000Z</time>
      </trkpt>
      <trkpt lat="37.29202333" lon="-3.53678333">
        <ele>1386.0</ele>
        <time>2022-11-13T13:47:08.000Z</time>
      </trkpt>
      <trkpt lat="37.29201667" lon="-3.53677833">
        <ele>1386.0</ele>
        <time>2022-11-13T13:47:09.000Z</time>
      </trkpt>
      <trkpt lat="37.29201" lon="-3.53677333">
        <ele>1386.0</ele>
        <time>2022-11-13T13:47:10.000Z</time>
      </trkpt>
      <trkpt lat="37.29200333" lon="-3.53676667">
        <ele>1387.0</ele>
        <time>2022-11-13T13:47:11.000Z</time>
      </trkpt>
      <trkpt lat="37.29199667" lon="-3.53676167">
        <ele>1387.0</ele>
        <time>2022-11-13T13:47:12.000Z</time>
      </trkpt>
      <trkpt lat="37.29199167" lon="-3.53675667">
        <ele>1387.0</ele>
        <time>2022-11-13T13:47:13.000Z</time>
      </trkpt>
      <trkpt lat="37.29198833" lon="-3.53674833">
        <ele>1387.0</ele>
        <time>2022-11-13T13:47:14.000Z</time>
      </trkpt>
      <trkpt lat="37.291985" lon="-3.53674167">
        <ele>1387.0</ele>
        <time>2022-11-13T13:47:15.000Z</time>
      </trkpt>
      <trkpt lat="37.29198" lon="-3.53673333">
        <ele>1387.0</ele>
        <time>2022-11-13T13:47:16.000Z</time>
      </trkpt>
      <trkpt lat="37.291975" lon="-3.53672667">
        <ele>1388.0</ele>
        <time>2022-11-13T13:47:17.000Z</time>
      </trkpt>
      <trkpt lat="37.29196833" lon="-3.53672167">
        <ele>1388.0</ele>
        <time>2022-11-13T13:47:18.000Z</time>
      </trkpt>
      <trkpt lat="37.29196333" lon="-3.536715">
        <ele>1388.0</ele>
        <time>2022-11-13T13:47:19.000Z</time>
      </trkpt>
      <trkpt lat="37.29195667" lon="-3.53670833">
        <ele>1388.0</ele>
        <time>2022-11-13T13:47:20.000Z</time>
      </trkpt>
      <trkpt lat="37.29195" lon="-3.5367">
        <ele>1388.0</ele>
        <time>2022-11-13T13:47:21.000Z</time>
      </trkpt>
      <trkpt lat="37.29194333" lon="-3.536695">
        <ele>1388.0</ele>
        <time>2022-11-13T13:47:22.000Z</time>
      </trkpt>
      <trkpt lat="37.29193667" lon="-3.53668833">
        <ele>1388.0</ele>
        <time>2022-11-13T13:47:23.000Z</time>
      </trkpt>
      <trkpt lat="37.29193" lon="-3.53668167">
        <ele>1388.0</ele>
        <time>2022-11-13T13:47:24.000Z</time>
      </trkpt>
      <trkpt lat="37.291925" lon="-3.53667333">
        <ele>1388.0</ele>
        <time>2022-11-13T13:47:25.000Z</time>
      </trkpt>
      <trkpt lat="37.29192167" lon="-3.53666833">
        <ele>1388.0</ele>
        <time>2022-11-13T13:47:26.000Z</time>
      </trkpt>
      <trkpt lat="37.29192" lon="-3.53666833">
        <ele>1388.0</ele>
        <time>2022-11-13T13:47:27.000Z</time>
      </trkpt>
      <trkpt lat="37.29192" lon="-3.53666833">
        <ele>1388.0</ele>
        <time>2022-11-13T13:47:28.000Z</time>
      </trkpt>
      <trkpt lat="37.29192" lon="-3.53666833">
        <ele>1388.0</ele>
        <time>2022-11-13T13:47:29.000Z</time>
      </trkpt>
      <trkpt lat="37.29192" lon="-3.53666667">
        <ele>1388.0</ele>
        <time>2022-11-13T13:47:30.000Z</time>
      </trkpt>
      <trkpt lat="37.29191833" lon="-3.536665">
        <ele>1389.0</ele>
        <time>2022-11-13T13:47:31.000Z</time>
      </trkpt>
      <trkpt lat="37.29191833" lon="-3.536665">
        <ele>1389.0</ele>
        <time>2022-11-13T13:47:32.000Z</time>
      </trkpt>
      <trkpt lat="37.29191667" lon="-3.536665">
        <ele>1389.0</ele>
        <time>2022-11-13T13:47:33.000Z</time>
      </trkpt>
      <trkpt lat="37.29191667" lon="-3.53666667">
        <ele>1389.0</ele>
        <time>2022-11-13T13:47:34.000Z</time>
      </trkpt>
      <trkpt lat="37.291915" lon="-3.53666833">
        <ele>1389.0</ele>
        <time>2022-11-13T13:47:35.000Z</time>
      </trkpt>
      <trkpt lat="37.29191333" lon="-3.53666833">
        <ele>1389.0</ele>
        <time>2022-11-13T13:47:36.000Z</time>
      </trkpt>
      <trkpt lat="37.29191333" lon="-3.53666833">
        <ele>1389.0</ele>
        <time>2022-11-13T13:47:37.000Z</time>
      </trkpt>
      <trkpt lat="37.29191333" lon="-3.53666833">
        <ele>1389.0</ele>
        <time>2022-11-13T13:47:38.000Z</time>
      </trkpt>
      <trkpt lat="37.29191333" lon="-3.53666833">
        <ele>1389.0</ele>
        <time>2022-11-13T13:47:39.000Z</time>
      </trkpt>
      <trkpt lat="37.291915" lon="-3.53666833">
        <ele>1389.0</ele>
        <time>2022-11-13T13:47:40.000Z</time>
      </trkpt>
      <trkpt lat="37.29191333" lon="-3.53666667">
        <ele>1389.0</ele>
        <time>2022-11-13T13:47:41.000Z</time>
      </trkpt>
      <trkpt lat="37.29191" lon="-3.53666833">
        <ele>1389.0</ele>
        <time>2022-11-13T13:47:42.000Z</time>
      </trkpt>
      <trkpt lat="37.29190833" lon="-3.53666833">
        <ele>1389.0</ele>
        <time>2022-11-13T13:47:43.000Z</time>
      </trkpt>
      <trkpt lat="37.29190833" lon="-3.53667333">
        <ele>1389.0</ele>
        <time>2022-11-13T13:47:44.000Z</time>
      </trkpt>
      <trkpt lat="37.29190833" lon="-3.53667833">
        <ele>1389.0</ele>
        <time>2022-11-13T13:47:45.000Z</time>
      </trkpt>
      <trkpt lat="37.29190667" lon="-3.53668667">
        <ele>1389.0</ele>
        <time>2022-11-13T13:47:46.000Z</time>
      </trkpt>
      <trkpt lat="37.291905" lon="-3.53668833">
        <ele>1389.0</ele>
        <time>2022-11-13T13:47:47.000Z</time>
      </trkpt>
      <trkpt lat="37.291905" lon="-3.53668833">
        <ele>1389.0</ele>
        <time>2022-11-13T13:47:48.000Z</time>
      </trkpt>
      <trkpt lat="37.291905" lon="-3.53668833">
        <ele>1390.0</ele>
        <time>2022-11-13T13:47:49.000Z</time>
      </trkpt>
      <trkpt lat="37.291905" lon="-3.53669">
        <ele>1390.0</ele>
        <time>2022-11-13T13:47:50.000Z</time>
      </trkpt>
      <trkpt lat="37.29190667" lon="-3.53669167">
        <ele>1390.0</ele>
        <time>2022-11-13T13:47:51.000Z</time>
      </trkpt>
      <trkpt lat="37.29190667" lon="-3.53669167">
        <ele>1390.0</ele>
        <time>2022-11-13T13:47:52.000Z</time>
      </trkpt>
      <trkpt lat="37.29190833" lon="-3.53669333">
        <ele>1390.0</ele>
        <time>2022-11-13T13:47:53.000Z</time>
      </trkpt>
      <trkpt lat="37.29190667" lon="-3.5367">
        <ele>1390.0</ele>
        <time>2022-11-13T13:47:54.000Z</time>
      </trkpt>
      <trkpt lat="37.29190667" lon="-3.53670667">
        <ele>1390.0</ele>
        <time>2022-11-13T13:47:55.000Z</time>
      </trkpt>
      <trkpt lat="37.29190833" lon="-3.53671667">
        <ele>1390.0</ele>
        <time>2022-11-13T13:47:56.000Z</time>
      </trkpt>
      <trkpt lat="37.29191" lon="-3.53672833">
        <ele>1390.0</ele>
        <time>2022-11-13T13:47:57.000Z</time>
      </trkpt>
      <trkpt lat="37.29191" lon="-3.53674">
        <ele>1390.0</ele>
        <time>2022-11-13T13:47:58.000Z</time>
      </trkpt>
      <trkpt lat="37.29190667" lon="-3.53675167">
        <ele>1390.0</ele>
        <time>2022-11-13T13:47:59.000Z</time>
      </trkpt>
      <trkpt lat="37.29190167" lon="-3.53675667">
        <ele>1390.0</ele>
        <time>2022-11-13T13:48:00.000Z</time>
      </trkpt>
      <trkpt lat="37.291895" lon="-3.53675667">
        <ele>1390.0</ele>
        <time>2022-11-13T13:48:01.000Z</time>
      </trkpt>
      <trkpt lat="37.29189" lon="-3.536755">
        <ele>1390.0</ele>
        <time>2022-11-13T13:48:02.000Z</time>
      </trkpt>
      <trkpt lat="37.29188167" lon="-3.53675167">
        <ele>1391.0</ele>
        <time>2022-11-13T13:48:03.000Z</time>
      </trkpt>
      <trkpt lat="37.291875" lon="-3.53674833">
        <ele>1391.0</ele>
        <time>2022-11-13T13:48:04.000Z</time>
      </trkpt>
      <trkpt lat="37.29187" lon="-3.53674667">
        <ele>1391.0</ele>
        <time>2022-11-13T13:48:05.000Z</time>
      </trkpt>
      <trkpt lat="37.291865" lon="-3.53674167">
        <ele>1391.0</ele>
        <time>2022-11-13T13:48:06.000Z</time>
      </trkpt>
      <trkpt lat="37.291865" lon="-3.53673833">
        <ele>1391.0</ele>
        <time>2022-11-13T13:48:07.000Z</time>
      </trkpt>
      <trkpt lat="37.29186333" lon="-3.53673167">
        <ele>1391.0</ele>
        <time>2022-11-13T13:48:08.000Z</time>
      </trkpt>
      <trkpt lat="37.29186" lon="-3.53672333">
        <ele>1391.0</ele>
        <time>2022-11-13T13:48:09.000Z</time>
      </trkpt>
      <trkpt lat="37.29185667" lon="-3.536715">
        <ele>1391.0</ele>
        <time>2022-11-13T13:48:10.000Z</time>
      </trkpt>
      <trkpt lat="37.29185333" lon="-3.53670833">
        <ele>1391.0</ele>
        <time>2022-11-13T13:48:11.000Z</time>
      </trkpt>
      <trkpt lat="37.29185167" lon="-3.53669833">
        <ele>1391.0</ele>
        <time>2022-11-13T13:48:12.000Z</time>
      </trkpt>
      <trkpt lat="37.29185167" lon="-3.53668667">
        <ele>1391.0</ele>
        <time>2022-11-13T13:48:13.000Z</time>
      </trkpt>
      <trkpt lat="37.29185167" lon="-3.53667833">
        <ele>1391.0</ele>
        <time>2022-11-13T13:48:14.000Z</time>
      </trkpt>
      <trkpt lat="37.29185333" lon="-3.53666833">
        <ele>1391.0</ele>
        <time>2022-11-13T13:48:15.000Z</time>
      </trkpt>
      <trkpt lat="37.29185333" lon="-3.53666333">
        <ele>1391.0</ele>
        <time>2022-11-13T13:48:16.000Z</time>
      </trkpt>
      <trkpt lat="37.291855" lon="-3.53666333">
        <ele>1391.0</ele>
        <time>2022-11-13T13:48:17.000Z</time>
      </trkpt>
      <trkpt lat="37.291855" lon="-3.53666167">
        <ele>1391.0</ele>
        <time>2022-11-13T13:48:18.000Z</time>
      </trkpt>
      <trkpt lat="37.291855" lon="-3.53666">
        <ele>1391.0</ele>
        <time>2022-11-13T13:48:19.000Z</time>
      </trkpt>
      <trkpt lat="37.29185333" lon="-3.53666">
        <ele>1391.0</ele>
        <time>2022-11-13T13:48:20.000Z</time>
      </trkpt>
      <trkpt lat="37.29185167" lon="-3.536655">
        <ele>1391.0</ele>
        <time>2022-11-13T13:48:21.000Z</time>
      </trkpt>
      <trkpt lat="37.29185" lon="-3.53665">
        <ele>1391.0</ele>
        <time>2022-11-13T13:48:22.000Z</time>
      </trkpt>
      <trkpt lat="37.29185" lon="-3.53664167">
        <ele>1391.0</ele>
        <time>2022-11-13T13:48:23.000Z</time>
      </trkpt>
      <trkpt lat="37.29184667" lon="-3.53663">
        <ele>1391.0</ele>
        <time>2022-11-13T13:48:24.000Z</time>
      </trkpt>
      <trkpt lat="37.29184167" lon="-3.53662">
        <ele>1391.0</ele>
        <time>2022-11-13T13:48:25.000Z</time>
      </trkpt>
      <trkpt lat="37.29183667" lon="-3.53661167">
        <ele>1391.0</ele>
        <time>2022-11-13T13:48:26.000Z</time>
      </trkpt>
      <trkpt lat="37.29183" lon="-3.53660167">
        <ele>1392.0</ele>
        <time>2022-11-13T13:48:27.000Z</time>
      </trkpt>
      <trkpt lat="37.291825" lon="-3.536595">
        <ele>1392.0</ele>
        <time>2022-11-13T13:48:28.000Z</time>
      </trkpt>
      <trkpt lat="37.29182333" lon="-3.53658667">
        <ele>1392.0</ele>
        <time>2022-11-13T13:48:29.000Z</time>
      </trkpt>
      <trkpt lat="37.29181833" lon="-3.53657833">
        <ele>1392.0</ele>
        <time>2022-11-13T13:48:30.000Z</time>
      </trkpt>
      <trkpt lat="37.29181333" lon="-3.53657">
        <ele>1392.0</ele>
        <time>2022-11-13T13:48:31.000Z</time>
      </trkpt>
      <trkpt lat="37.29180833" lon="-3.53656333">
        <ele>1392.0</ele>
        <time>2022-11-13T13:48:32.000Z</time>
      </trkpt>
      <trkpt lat="37.29180333" lon="-3.536555">
        <ele>1393.0</ele>
        <time>2022-11-13T13:48:33.000Z</time>
      </trkpt>
      <trkpt lat="37.2918" lon="-3.53655">
        <ele>1393.0</ele>
        <time>2022-11-13T13:48:34.000Z</time>
      </trkpt>
      <trkpt lat="37.2918" lon="-3.53654667">
        <ele>1393.0</ele>
        <time>2022-11-13T13:48:35.000Z</time>
      </trkpt>
      <trkpt lat="37.29179833" lon="-3.53654667">
        <ele>1393.0</ele>
        <time>2022-11-13T13:48:36.000Z</time>
      </trkpt>
      <trkpt lat="37.29179833" lon="-3.53654667">
        <ele>1393.0</ele>
        <time>2022-11-13T13:48:37.000Z</time>
      </trkpt>
      <trkpt lat="37.29179833" lon="-3.53654833">
        <ele>1393.0</ele>
        <time>2022-11-13T13:48:38.000Z</time>
      </trkpt>
      <trkpt lat="37.29179833" lon="-3.53654667">
        <ele>1393.0</ele>
        <time>2022-11-13T13:48:39.000Z</time>
      </trkpt>
      <trkpt lat="37.29179667" lon="-3.536545">
        <ele>1393.0</ele>
        <time>2022-11-13T13:48:40.000Z</time>
      </trkpt>
      <trkpt lat="37.29179333" lon="-3.53654167">
        <ele>1393.0</ele>
        <time>2022-11-13T13:48:41.000Z</time>
      </trkpt>
      <trkpt lat="37.29179" lon="-3.53653667">
        <ele>1394.0</ele>
        <time>2022-11-13T13:48:42.000Z</time>
      </trkpt>
      <trkpt lat="37.29178667" lon="-3.53653">
        <ele>1394.0</ele>
        <time>2022-11-13T13:48:43.000Z</time>
      </trkpt>
      <trkpt lat="37.29178333" lon="-3.536525">
        <ele>1394.0</ele>
        <time>2022-11-13T13:48:44.000Z</time>
      </trkpt>
      <trkpt lat="37.29178" lon="-3.53651833">
        <ele>1394.0</ele>
        <time>2022-11-13T13:48:45.000Z</time>
      </trkpt>
      <trkpt lat="37.291775" lon="-3.53651333">
        <ele>1394.0</ele>
        <time>2022-11-13T13:48:46.000Z</time>
      </trkpt>
      <trkpt lat="37.29177167" lon="-3.53650667">
        <ele>1394.0</ele>
        <time>2022-11-13T13:48:47.000Z</time>
      </trkpt>
      <trkpt lat="37.291765" lon="-3.53650167">
        <ele>1394.0</ele>
        <time>2022-11-13T13:48:48.000Z</time>
      </trkpt>
      <trkpt lat="37.29175833" lon="-3.53649667">
        <ele>1394.0</ele>
        <time>2022-11-13T13:48:49.000Z</time>
      </trkpt>
      <trkpt lat="37.29174833" lon="-3.53649">
        <ele>1394.0</ele>
        <time>2022-11-13T13:48:50.000Z</time>
      </trkpt>
      <trkpt lat="37.29174" lon="-3.53648333">
        <ele>1394.0</ele>
        <time>2022-11-13T13:48:51.000Z</time>
      </trkpt>
      <trkpt lat="37.29173167" lon="-3.53647667">
        <ele>1395.0</ele>
        <time>2022-11-13T13:48:52.000Z</time>
      </trkpt>
      <trkpt lat="37.291725" lon="-3.53646833">
        <ele>1395.0</ele>
        <time>2022-11-13T13:48:53.000Z</time>
      </trkpt>
      <trkpt lat="37.29171833" lon="-3.53646">
        <ele>1395.0</ele>
        <time>2022-11-13T13:48:54.000Z</time>
      </trkpt>
      <trkpt lat="37.29171333" lon="-3.53645167">
        <ele>1395.0</ele>
        <time>2022-11-13T13:48:55.000Z</time>
      </trkpt>
      <trkpt lat="37.29170667" lon="-3.53644167">
        <ele>1395.0</ele>
        <time>2022-11-13T13:48:56.000Z</time>
      </trkpt>
      <trkpt lat="37.291705" lon="-3.53643">
        <ele>1396.0</ele>
        <time>2022-11-13T13:48:57.000Z</time>
      </trkpt>
      <trkpt lat="37.29170167" lon="-3.53642167">
        <ele>1396.0</ele>
        <time>2022-11-13T13:48:58.000Z</time>
      </trkpt>
      <trkpt lat="37.291695" lon="-3.53641333">
        <ele>1396.0</ele>
        <time>2022-11-13T13:48:59.000Z</time>
      </trkpt>
      <trkpt lat="37.29168833" lon="-3.536405">
        <ele>1396.0</ele>
        <time>2022-11-13T13:49:00.000Z</time>
      </trkpt>
      <trkpt lat="37.29168167" lon="-3.53639667">
        <ele>1396.0</ele>
        <time>2022-11-13T13:49:01.000Z</time>
      </trkpt>
      <trkpt lat="37.291675" lon="-3.53638833">
        <ele>1396.0</ele>
        <time>2022-11-13T13:49:02.000Z</time>
      </trkpt>
      <trkpt lat="37.29166833" lon="-3.53637667">
        <ele>1396.0</ele>
        <time>2022-11-13T13:49:03.000Z</time>
      </trkpt>
      <trkpt lat="37.29166333" lon="-3.53636333">
        <ele>1396.0</ele>
        <time>2022-11-13T13:49:04.000Z</time>
      </trkpt>
      <trkpt lat="37.29165833" lon="-3.53635">
        <ele>1396.0</ele>
        <time>2022-11-13T13:49:05.000Z</time>
      </trkpt>
      <trkpt lat="37.29165333" lon="-3.53634">
        <ele>1397.0</ele>
        <time>2022-11-13T13:49:06.000Z</time>
      </trkpt>
      <trkpt lat="37.29165333" lon="-3.536335">
        <ele>1397.0</ele>
        <time>2022-11-13T13:49:07.000Z</time>
      </trkpt>
      <trkpt lat="37.29165167" lon="-3.53632833">
        <ele>1397.0</ele>
        <time>2022-11-13T13:49:08.000Z</time>
      </trkpt>
      <trkpt lat="37.29165167" lon="-3.53632833">
        <ele>1397.0</ele>
        <time>2022-11-13T13:49:09.000Z</time>
      </trkpt>
      <trkpt lat="37.29165" lon="-3.53633">
        <ele>1397.0</ele>
        <time>2022-11-13T13:49:10.000Z</time>
      </trkpt>
      <trkpt lat="37.29165" lon="-3.53633">
        <ele>1397.0</ele>
        <time>2022-11-13T13:49:11.000Z</time>
      </trkpt>
      <trkpt lat="37.29165" lon="-3.53633">
        <ele>1397.0</ele>
        <time>2022-11-13T13:49:12.000Z</time>
      </trkpt>
      <trkpt lat="37.29165167" lon="-3.53632833">
        <ele>1397.0</ele>
        <time>2022-11-13T13:49:13.000Z</time>
      </trkpt>
      <trkpt lat="37.29165167" lon="-3.53632333">
        <ele>1398.0</ele>
        <time>2022-11-13T13:49:14.000Z</time>
      </trkpt>
      <trkpt lat="37.29164833" lon="-3.53631667">
        <ele>1398.0</ele>
        <time>2022-11-13T13:49:15.000Z</time>
      </trkpt>
      <trkpt lat="37.29164" lon="-3.536305">
        <ele>1398.0</ele>
        <time>2022-11-13T13:49:16.000Z</time>
      </trkpt>
      <trkpt lat="37.29163167" lon="-3.536295">
        <ele>1398.0</ele>
        <time>2022-11-13T13:49:17.000Z</time>
      </trkpt>
      <trkpt lat="37.291625" lon="-3.536285">
        <ele>1398.0</ele>
        <time>2022-11-13T13:49:18.000Z</time>
      </trkpt>
      <trkpt lat="37.29161833" lon="-3.53627333">
        <ele>1398.0</ele>
        <time>2022-11-13T13:49:19.000Z</time>
      </trkpt>
      <trkpt lat="37.29160833" lon="-3.53626167">
        <ele>1398.0</ele>
        <time>2022-11-13T13:49:20.000Z</time>
      </trkpt>
      <trkpt lat="37.29160167" lon="-3.53625167">
        <ele>1398.0</ele>
        <time>2022-11-13T13:49:21.000Z</time>
      </trkpt>
      <trkpt lat="37.291595" lon="-3.53624167">
        <ele>1398.0</ele>
        <time>2022-11-13T13:49:22.000Z</time>
      </trkpt>
      <trkpt lat="37.29158833" lon="-3.53622833">
        <ele>1398.0</ele>
        <time>2022-11-13T13:49:23.000Z</time>
      </trkpt>
      <trkpt lat="37.29158167" lon="-3.536215">
        <ele>1399.0</ele>
        <time>2022-11-13T13:49:24.000Z</time>
      </trkpt>
      <trkpt lat="37.29157333" lon="-3.53620333">
        <ele>1399.0</ele>
        <time>2022-11-13T13:49:25.000Z</time>
      </trkpt>
      <trkpt lat="37.29157167" lon="-3.53619667">
        <ele>1399.0</ele>
        <time>2022-11-13T13:49:26.000Z</time>
      </trkpt>
      <trkpt lat="37.291565" lon="-3.53618">
        <ele>1399.0</ele>
        <time>2022-11-13T13:49:27.000Z</time>
      </trkpt>
      <trkpt lat="37.29155833" lon="-3.53616833">
        <ele>1399.0</ele>
        <time>2022-11-13T13:49:28.000Z</time>
      </trkpt>
      <trkpt lat="37.29155167" lon="-3.53615667">
        <ele>1399.0</ele>
        <time>2022-11-13T13:49:29.000Z</time>
      </trkpt>
      <trkpt lat="37.291545" lon="-3.53614333">
        <ele>1399.0</ele>
        <time>2022-11-13T13:49:30.000Z</time>
      </trkpt>
      <trkpt lat="37.29153667" lon="-3.53613333">
        <ele>1399.0</ele>
        <time>2022-11-13T13:49:31.000Z</time>
      </trkpt>
      <trkpt lat="37.29152833" lon="-3.53612333">
        <ele>1399.0</ele>
        <time>2022-11-13T13:49:32.000Z</time>
      </trkpt>
      <trkpt lat="37.29152" lon="-3.53611167">
        <ele>1399.0</ele>
        <time>2022-11-13T13:49:33.000Z</time>
      </trkpt>
      <trkpt lat="37.29151333" lon="-3.53609833">
        <ele>1399.0</ele>
        <time>2022-11-13T13:49:34.000Z</time>
      </trkpt>
      <trkpt lat="37.29150667" lon="-3.536085">
        <ele>1399.0</ele>
        <time>2022-11-13T13:49:35.000Z</time>
      </trkpt>
      <trkpt lat="37.2915" lon="-3.53607333">
        <ele>1399.0</ele>
        <time>2022-11-13T13:49:36.000Z</time>
      </trkpt>
      <trkpt lat="37.29149667" lon="-3.53606">
        <ele>1399.0</ele>
        <time>2022-11-13T13:49:37.000Z</time>
      </trkpt>
      <trkpt lat="37.29149333" lon="-3.53604667">
        <ele>1399.0</ele>
        <time>2022-11-13T13:49:38.000Z</time>
      </trkpt>
      <trkpt lat="37.29148833" lon="-3.53603333">
        <ele>1399.0</ele>
        <time>2022-11-13T13:49:39.000Z</time>
      </trkpt>
      <trkpt lat="37.29148333" lon="-3.53601833">
        <ele>1399.0</ele>
        <time>2022-11-13T13:49:40.000Z</time>
      </trkpt>
      <trkpt lat="37.29148" lon="-3.53600167">
        <ele>1399.0</ele>
        <time>2022-11-13T13:49:41.000Z</time>
      </trkpt>
      <trkpt lat="37.291475" lon="-3.53598833">
        <ele>1400.0</ele>
        <time>2022-11-13T13:49:42.000Z</time>
      </trkpt>
      <trkpt lat="37.29147" lon="-3.53597667">
        <ele>1400.0</ele>
        <time>2022-11-13T13:49:43.000Z</time>
      </trkpt>
      <trkpt lat="37.291465" lon="-3.535965">
        <ele>1400.0</ele>
        <time>2022-11-13T13:49:44.000Z</time>
      </trkpt>
      <trkpt lat="37.29146" lon="-3.53595167">
        <ele>1400.0</ele>
        <time>2022-11-13T13:49:45.000Z</time>
      </trkpt>
      <trkpt lat="37.291455" lon="-3.53593667">
        <ele>1400.0</ele>
        <time>2022-11-13T13:49:46.000Z</time>
      </trkpt>
      <trkpt lat="37.29145" lon="-3.53592167">
        <ele>1400.0</ele>
        <time>2022-11-13T13:49:47.000Z</time>
      </trkpt>
      <trkpt lat="37.29144833" lon="-3.53590833">
        <ele>1400.0</ele>
        <time>2022-11-13T13:49:48.000Z</time>
      </trkpt>
      <trkpt lat="37.291445" lon="-3.53589667">
        <ele>1400.0</ele>
        <time>2022-11-13T13:49:49.000Z</time>
      </trkpt>
      <trkpt lat="37.29144167" lon="-3.53588333">
        <ele>1400.0</ele>
        <time>2022-11-13T13:49:50.000Z</time>
      </trkpt>
      <trkpt lat="37.29144" lon="-3.53587">
        <ele>1400.0</ele>
        <time>2022-11-13T13:49:51.000Z</time>
      </trkpt>
      <trkpt lat="37.29143667" lon="-3.53585667">
        <ele>1400.0</ele>
        <time>2022-11-13T13:49:52.000Z</time>
      </trkpt>
      <trkpt lat="37.29143333" lon="-3.535845">
        <ele>1400.0</ele>
        <time>2022-11-13T13:49:53.000Z</time>
      </trkpt>
      <trkpt lat="37.29142833" lon="-3.53583167">
        <ele>1400.0</ele>
        <time>2022-11-13T13:49:54.000Z</time>
      </trkpt>
      <trkpt lat="37.29142333" lon="-3.53582">
        <ele>1401.0</ele>
        <time>2022-11-13T13:49:55.000Z</time>
      </trkpt>
      <trkpt lat="37.29141667" lon="-3.53580667">
        <ele>1401.0</ele>
        <time>2022-11-13T13:49:56.000Z</time>
      </trkpt>
      <trkpt lat="37.29141333" lon="-3.53579333">
        <ele>1401.0</ele>
        <time>2022-11-13T13:49:57.000Z</time>
      </trkpt>
      <trkpt lat="37.29141167" lon="-3.53577833">
        <ele>1401.0</ele>
        <time>2022-11-13T13:49:58.000Z</time>
      </trkpt>
      <trkpt lat="37.29140833" lon="-3.535765">
        <ele>1401.0</ele>
        <time>2022-11-13T13:49:59.000Z</time>
      </trkpt>
      <trkpt lat="37.291405" lon="-3.53575167">
        <ele>1401.0</ele>
        <time>2022-11-13T13:50:00.000Z</time>
      </trkpt>
      <trkpt lat="37.2914" lon="-3.53573833">
        <ele>1401.0</ele>
        <time>2022-11-13T13:50:01.000Z</time>
      </trkpt>
      <trkpt lat="37.291395" lon="-3.535725">
        <ele>1401.0</ele>
        <time>2022-11-13T13:50:02.000Z</time>
      </trkpt>
      <trkpt lat="37.29139333" lon="-3.53571167">
        <ele>1402.0</ele>
        <time>2022-11-13T13:50:03.000Z</time>
      </trkpt>
      <trkpt lat="37.29139" lon="-3.5357">
        <ele>1402.0</ele>
        <time>2022-11-13T13:50:04.000Z</time>
      </trkpt>
      <trkpt lat="37.29138667" lon="-3.53568833">
        <ele>1402.0</ele>
        <time>2022-11-13T13:50:05.000Z</time>
      </trkpt>
      <trkpt lat="37.29138333" lon="-3.53567667">
        <ele>1402.0</ele>
        <time>2022-11-13T13:50:06.000Z</time>
      </trkpt>
      <trkpt lat="37.29137833" lon="-3.53566333">
        <ele>1402.0</ele>
        <time>2022-11-13T13:50:07.000Z</time>
      </trkpt>
      <trkpt lat="37.291375" lon="-3.53565">
        <ele>1402.0</ele>
        <time>2022-11-13T13:50:08.000Z</time>
      </trkpt>
      <trkpt lat="37.29136833" lon="-3.53563667">
        <ele>1402.0</ele>
        <time>2022-11-13T13:50:09.000Z</time>
      </trkpt>
      <trkpt lat="37.291365" lon="-3.535625">
        <ele>1402.0</ele>
        <time>2022-11-13T13:50:10.000Z</time>
      </trkpt>
      <trkpt lat="37.29136167" lon="-3.53561333">
        <ele>1402.0</ele>
        <time>2022-11-13T13:50:11.000Z</time>
      </trkpt>
      <trkpt lat="37.29135833" lon="-3.53560167">
        <ele>1402.0</ele>
        <time>2022-11-13T13:50:12.000Z</time>
      </trkpt>
      <trkpt lat="37.29135667" lon="-3.53558833">
        <ele>1402.0</ele>
        <time>2022-11-13T13:50:13.000Z</time>
      </trkpt>
      <trkpt lat="37.291355" lon="-3.53557333">
        <ele>1402.0</ele>
        <time>2022-11-13T13:50:14.000Z</time>
      </trkpt>
      <trkpt lat="37.29135333" lon="-3.53555833">
        <ele>1402.0</ele>
        <time>2022-11-13T13:50:15.000Z</time>
      </trkpt>
      <trkpt lat="37.29135167" lon="-3.53554333">
        <ele>1402.0</ele>
        <time>2022-11-13T13:50:16.000Z</time>
      </trkpt>
      <trkpt lat="37.29135167" lon="-3.53553">
        <ele>1403.0</ele>
        <time>2022-11-13T13:50:17.000Z</time>
      </trkpt>
      <trkpt lat="37.29135" lon="-3.535515">
        <ele>1403.0</ele>
        <time>2022-11-13T13:50:18.000Z</time>
      </trkpt>
      <trkpt lat="37.29135167" lon="-3.5355">
        <ele>1403.0</ele>
        <time>2022-11-13T13:50:19.000Z</time>
      </trkpt>
      <trkpt lat="37.29134833" lon="-3.53548667">
        <ele>1403.0</ele>
        <time>2022-11-13T13:50:20.000Z</time>
      </trkpt>
      <trkpt lat="37.29134333" lon="-3.53547333">
        <ele>1403.0</ele>
        <time>2022-11-13T13:50:21.000Z</time>
      </trkpt>
      <trkpt lat="37.29133833" lon="-3.53546167">
        <ele>1403.0</ele>
        <time>2022-11-13T13:50:22.000Z</time>
      </trkpt>
      <trkpt lat="37.291335" lon="-3.53544667">
        <ele>1403.0</ele>
        <time>2022-11-13T13:50:23.000Z</time>
      </trkpt>
      <trkpt lat="37.29133167" lon="-3.53543167">
        <ele>1403.0</ele>
        <time>2022-11-13T13:50:24.000Z</time>
      </trkpt>
      <trkpt lat="37.29132833" lon="-3.53541667">
        <ele>1403.0</ele>
        <time>2022-11-13T13:50:25.000Z</time>
      </trkpt>
      <trkpt lat="37.291325" lon="-3.53540167">
        <ele>1403.0</ele>
        <time>2022-11-13T13:50:26.000Z</time>
      </trkpt>
      <trkpt lat="37.29132" lon="-3.53538833">
        <ele>1403.0</ele>
        <time>2022-11-13T13:50:27.000Z</time>
      </trkpt>
      <trkpt lat="37.29131667" lon="-3.53537333">
        <ele>1403.0</ele>
        <time>2022-11-13T13:50:28.000Z</time>
      </trkpt>
      <trkpt lat="37.29131333" lon="-3.53535833">
        <ele>1403.0</ele>
        <time>2022-11-13T13:50:29.000Z</time>
      </trkpt>
      <trkpt lat="37.29131" lon="-3.535345">
        <ele>1403.0</ele>
        <time>2022-11-13T13:50:30.000Z</time>
      </trkpt>
      <trkpt lat="37.29130833" lon="-3.53533">
        <ele>1404.0</ele>
        <time>2022-11-13T13:50:31.000Z</time>
      </trkpt>
      <trkpt lat="37.291305" lon="-3.535315">
        <ele>1404.0</ele>
        <time>2022-11-13T13:50:32.000Z</time>
      </trkpt>
      <trkpt lat="37.29130167" lon="-3.53530333">
        <ele>1404.0</ele>
        <time>2022-11-13T13:50:33.000Z</time>
      </trkpt>
      <trkpt lat="37.29130167" lon="-3.53529167">
        <ele>1404.0</ele>
        <time>2022-11-13T13:50:34.000Z</time>
      </trkpt>
      <trkpt lat="37.29130167" lon="-3.53527833">
        <ele>1404.0</ele>
        <time>2022-11-13T13:50:35.000Z</time>
      </trkpt>
      <trkpt lat="37.29130167" lon="-3.53526667">
        <ele>1404.0</ele>
        <time>2022-11-13T13:50:36.000Z</time>
      </trkpt>
      <trkpt lat="37.29129833" lon="-3.53525667">
        <ele>1404.0</ele>
        <time>2022-11-13T13:50:37.000Z</time>
      </trkpt>
      <trkpt lat="37.291295" lon="-3.535245">
        <ele>1404.0</ele>
        <time>2022-11-13T13:50:38.000Z</time>
      </trkpt>
      <trkpt lat="37.29129167" lon="-3.535235">
        <ele>1404.0</ele>
        <time>2022-11-13T13:50:39.000Z</time>
      </trkpt>
      <trkpt lat="37.29128667" lon="-3.53522333">
        <ele>1404.0</ele>
        <time>2022-11-13T13:50:40.000Z</time>
      </trkpt>
      <trkpt lat="37.29128333" lon="-3.53521167">
        <ele>1404.0</ele>
        <time>2022-11-13T13:50:41.000Z</time>
      </trkpt>
      <trkpt lat="37.29128" lon="-3.53519833">
        <ele>1404.0</ele>
        <time>2022-11-13T13:50:42.000Z</time>
      </trkpt>
      <trkpt lat="37.29127833" lon="-3.535185">
        <ele>1404.0</ele>
        <time>2022-11-13T13:50:43.000Z</time>
      </trkpt>
      <trkpt lat="37.29127667" lon="-3.53517333">
        <ele>1405.0</ele>
        <time>2022-11-13T13:50:44.000Z</time>
      </trkpt>
      <trkpt lat="37.29127333" lon="-3.53515833">
        <ele>1405.0</ele>
        <time>2022-11-13T13:50:45.000Z</time>
      </trkpt>
      <trkpt lat="37.29127333" lon="-3.53514667">
        <ele>1405.0</ele>
        <time>2022-11-13T13:50:46.000Z</time>
      </trkpt>
      <trkpt lat="37.29127167" lon="-3.53513167">
        <ele>1405.0</ele>
        <time>2022-11-13T13:50:47.000Z</time>
      </trkpt>
      <trkpt lat="37.29127" lon="-3.53511833">
        <ele>1405.0</ele>
        <time>2022-11-13T13:50:48.000Z</time>
      </trkpt>
      <trkpt lat="37.29126833" lon="-3.535105">
        <ele>1405.0</ele>
        <time>2022-11-13T13:50:49.000Z</time>
      </trkpt>
      <trkpt lat="37.29126667" lon="-3.53509">
        <ele>1405.0</ele>
        <time>2022-11-13T13:50:50.000Z</time>
      </trkpt>
      <trkpt lat="37.29126333" lon="-3.535075">
        <ele>1405.0</ele>
        <time>2022-11-13T13:50:51.000Z</time>
      </trkpt>
      <trkpt lat="37.29126167" lon="-3.53506167">
        <ele>1405.0</ele>
        <time>2022-11-13T13:50:52.000Z</time>
      </trkpt>
      <trkpt lat="37.29125833" lon="-3.53505">
        <ele>1405.0</ele>
        <time>2022-11-13T13:50:53.000Z</time>
      </trkpt>
      <trkpt lat="37.29125667" lon="-3.53503667">
        <ele>1405.0</ele>
        <time>2022-11-13T13:50:54.000Z</time>
      </trkpt>
      <trkpt lat="37.29125667" lon="-3.53502333">
        <ele>1406.0</ele>
        <time>2022-11-13T13:50:55.000Z</time>
      </trkpt>
      <trkpt lat="37.29125333" lon="-3.53501">
        <ele>1406.0</ele>
        <time>2022-11-13T13:50:56.000Z</time>
      </trkpt>
      <trkpt lat="37.29125167" lon="-3.53499667">
        <ele>1406.0</ele>
        <time>2022-11-13T13:50:57.000Z</time>
      </trkpt>
      <trkpt lat="37.29125333" lon="-3.53498333">
        <ele>1406.0</ele>
        <time>2022-11-13T13:50:58.000Z</time>
      </trkpt>
      <trkpt lat="37.29125167" lon="-3.53496833">
        <ele>1406.0</ele>
        <time>2022-11-13T13:50:59.000Z</time>
      </trkpt>
      <trkpt lat="37.29125" lon="-3.53495333">
        <ele>1406.0</ele>
        <time>2022-11-13T13:51:00.000Z</time>
      </trkpt>
      <trkpt lat="37.29124833" lon="-3.53493833">
        <ele>1406.0</ele>
        <time>2022-11-13T13:51:01.000Z</time>
      </trkpt>
      <trkpt lat="37.29124667" lon="-3.53492333">
        <ele>1406.0</ele>
        <time>2022-11-13T13:51:02.000Z</time>
      </trkpt>
      <trkpt lat="37.29124333" lon="-3.53491167">
        <ele>1406.0</ele>
        <time>2022-11-13T13:51:03.000Z</time>
      </trkpt>
      <trkpt lat="37.29123667" lon="-3.5349">
        <ele>1406.0</ele>
        <time>2022-11-13T13:51:04.000Z</time>
      </trkpt>
      <trkpt lat="37.29123" lon="-3.53488833">
        <ele>1406.0</ele>
        <time>2022-11-13T13:51:05.000Z</time>
      </trkpt>
      <trkpt lat="37.29122667" lon="-3.53487667">
        <ele>1406.0</ele>
        <time>2022-11-13T13:51:06.000Z</time>
      </trkpt>
      <trkpt lat="37.29122333" lon="-3.534865">
        <ele>1407.0</ele>
        <time>2022-11-13T13:51:07.000Z</time>
      </trkpt>
      <trkpt lat="37.29121833" lon="-3.534855">
        <ele>1407.0</ele>
        <time>2022-11-13T13:51:08.000Z</time>
      </trkpt>
      <trkpt lat="37.29121333" lon="-3.534845">
        <ele>1407.0</ele>
        <time>2022-11-13T13:51:09.000Z</time>
      </trkpt>
      <trkpt lat="37.29121167" lon="-3.53483">
        <ele>1407.0</ele>
        <time>2022-11-13T13:51:10.000Z</time>
      </trkpt>
      <trkpt lat="37.29120833" lon="-3.53481833">
        <ele>1407.0</ele>
        <time>2022-11-13T13:51:11.000Z</time>
      </trkpt>
      <trkpt lat="37.29120333" lon="-3.534805">
        <ele>1407.0</ele>
        <time>2022-11-13T13:51:12.000Z</time>
      </trkpt>
      <trkpt lat="37.29120167" lon="-3.53479333">
        <ele>1407.0</ele>
        <time>2022-11-13T13:51:13.000Z</time>
      </trkpt>
      <trkpt lat="37.2912" lon="-3.53479167">
        <ele>1407.0</ele>
        <time>2022-11-13T13:51:14.000Z</time>
      </trkpt>
      <trkpt lat="37.29119833" lon="-3.53478833">
        <ele>1407.0</ele>
        <time>2022-11-13T13:51:15.000Z</time>
      </trkpt>
      <trkpt lat="37.29119667" lon="-3.53478333">
        <ele>1408.0</ele>
        <time>2022-11-13T13:51:16.000Z</time>
      </trkpt>
      <trkpt lat="37.29119333" lon="-3.534775">
        <ele>1408.0</ele>
        <time>2022-11-13T13:51:17.000Z</time>
      </trkpt>
      <trkpt lat="37.29118833" lon="-3.534765">
        <ele>1408.0</ele>
        <time>2022-11-13T13:51:18.000Z</time>
      </trkpt>
      <trkpt lat="37.291185" lon="-3.53475333">
        <ele>1408.0</ele>
        <time>2022-11-13T13:51:19.000Z</time>
      </trkpt>
      <trkpt lat="37.291185" lon="-3.53475333">
        <ele>1408.0</ele>
        <time>2022-11-13T13:51:20.000Z</time>
      </trkpt>
      <trkpt lat="37.291185" lon="-3.53474833">
        <ele>1408.0</ele>
        <time>2022-11-13T13:51:21.000Z</time>
      </trkpt>
      <trkpt lat="37.29118667" lon="-3.53474">
        <ele>1408.0</ele>
        <time>2022-11-13T13:51:22.000Z</time>
      </trkpt>
      <trkpt lat="37.29118667" lon="-3.53473">
        <ele>1408.0</ele>
        <time>2022-11-13T13:51:23.000Z</time>
      </trkpt>
      <trkpt lat="37.291185" lon="-3.53472167">
        <ele>1408.0</ele>
        <time>2022-11-13T13:51:24.000Z</time>
      </trkpt>
      <trkpt lat="37.29118333" lon="-3.53471667">
        <ele>1408.0</ele>
        <time>2022-11-13T13:51:25.000Z</time>
      </trkpt>
      <trkpt lat="37.29118167" lon="-3.53471333">
        <ele>1408.0</ele>
        <time>2022-11-13T13:51:26.000Z</time>
      </trkpt>
      <trkpt lat="37.29118" lon="-3.53470667">
        <ele>1408.0</ele>
        <time>2022-11-13T13:51:27.000Z</time>
      </trkpt>
      <trkpt lat="37.29117833" lon="-3.53469333">
        <ele>1408.0</ele>
        <time>2022-11-13T13:51:28.000Z</time>
      </trkpt>
      <trkpt lat="37.29117333" lon="-3.53468333">
        <ele>1408.0</ele>
        <time>2022-11-13T13:51:29.000Z</time>
      </trkpt>
      <trkpt lat="37.29117" lon="-3.53467333">
        <ele>1408.0</ele>
        <time>2022-11-13T13:51:30.000Z</time>
      </trkpt>
      <trkpt lat="37.291165" lon="-3.53466667">
        <ele>1409.0</ele>
        <time>2022-11-13T13:51:31.000Z</time>
      </trkpt>
      <trkpt lat="37.29116" lon="-3.53466">
        <ele>1409.0</ele>
        <time>2022-11-13T13:51:32.000Z</time>
      </trkpt>
      <trkpt lat="37.29115667" lon="-3.53465">
        <ele>1409.0</ele>
        <time>2022-11-13T13:51:33.000Z</time>
      </trkpt>
      <trkpt lat="37.29115167" lon="-3.53463667">
        <ele>1409.0</ele>
        <time>2022-11-13T13:51:34.000Z</time>
      </trkpt>
      <trkpt lat="37.29114833" lon="-3.53462333">
        <ele>1409.0</ele>
        <time>2022-11-13T13:51:35.000Z</time>
      </trkpt>
      <trkpt lat="37.29114167" lon="-3.53461">
        <ele>1409.0</ele>
        <time>2022-11-13T13:51:36.000Z</time>
      </trkpt>
      <trkpt lat="37.291135" lon="-3.5346">
        <ele>1409.0</ele>
        <time>2022-11-13T13:51:37.000Z</time>
      </trkpt>
      <trkpt lat="37.29112833" lon="-3.53458667">
        <ele>1409.0</ele>
        <time>2022-11-13T13:51:38.000Z</time>
      </trkpt>
      <trkpt lat="37.29112167" lon="-3.534575">
        <ele>1409.0</ele>
        <time>2022-11-13T13:51:39.000Z</time>
      </trkpt>
      <trkpt lat="37.291115" lon="-3.53456333">
        <ele>1409.0</ele>
        <time>2022-11-13T13:51:40.000Z</time>
      </trkpt>
      <trkpt lat="37.29110833" lon="-3.53455167">
        <ele>1409.0</ele>
        <time>2022-11-13T13:51:41.000Z</time>
      </trkpt>
      <trkpt lat="37.29110167" lon="-3.53453667">
        <ele>1410.0</ele>
        <time>2022-11-13T13:51:42.000Z</time>
      </trkpt>
      <trkpt lat="37.29109667" lon="-3.534525">
        <ele>1410.0</ele>
        <time>2022-11-13T13:51:43.000Z</time>
      </trkpt>
      <trkpt lat="37.29109167" lon="-3.53451333">
        <ele>1410.0</ele>
        <time>2022-11-13T13:51:44.000Z</time>
      </trkpt>
      <trkpt lat="37.29108333" lon="-3.53450333">
        <ele>1410.0</ele>
        <time>2022-11-13T13:51:45.000Z</time>
      </trkpt>
      <trkpt lat="37.29107667" lon="-3.53449333">
        <ele>1410.0</ele>
        <time>2022-11-13T13:51:46.000Z</time>
      </trkpt>
      <trkpt lat="37.29106833" lon="-3.53448333">
        <ele>1410.0</ele>
        <time>2022-11-13T13:51:47.000Z</time>
      </trkpt>
      <trkpt lat="37.29106" lon="-3.534475">
        <ele>1410.0</ele>
        <time>2022-11-13T13:51:48.000Z</time>
      </trkpt>
      <trkpt lat="37.29105167" lon="-3.534465">
        <ele>1410.0</ele>
        <time>2022-11-13T13:51:49.000Z</time>
      </trkpt>
      <trkpt lat="37.291045" lon="-3.534455">
        <ele>1410.0</ele>
        <time>2022-11-13T13:51:50.000Z</time>
      </trkpt>
      <trkpt lat="37.29103833" lon="-3.53444667">
        <ele>1410.0</ele>
        <time>2022-11-13T13:51:51.000Z</time>
      </trkpt>
      <trkpt lat="37.29103" lon="-3.53444">
        <ele>1410.0</ele>
        <time>2022-11-13T13:51:52.000Z</time>
      </trkpt>
      <trkpt lat="37.29102167" lon="-3.534435">
        <ele>1410.0</ele>
        <time>2022-11-13T13:51:53.000Z</time>
      </trkpt>
      <trkpt lat="37.291015" lon="-3.53443333">
        <ele>1411.0</ele>
        <time>2022-11-13T13:51:54.000Z</time>
      </trkpt>
      <trkpt lat="37.29101" lon="-3.53443167">
        <ele>1411.0</ele>
        <time>2022-11-13T13:51:55.000Z</time>
      </trkpt>
      <trkpt lat="37.29100333" lon="-3.53443333">
        <ele>1411.0</ele>
        <time>2022-11-13T13:51:56.000Z</time>
      </trkpt>
      <trkpt lat="37.291" lon="-3.53443833">
        <ele>1411.0</ele>
        <time>2022-11-13T13:51:57.000Z</time>
      </trkpt>
      <trkpt lat="37.29099333" lon="-3.53443833">
        <ele>1411.0</ele>
        <time>2022-11-13T13:51:58.000Z</time>
      </trkpt>
      <trkpt lat="37.29098667" lon="-3.53443833">
        <ele>1411.0</ele>
        <time>2022-11-13T13:51:59.000Z</time>
      </trkpt>
      <trkpt lat="37.29097833" lon="-3.53443833">
        <ele>1412.0</ele>
        <time>2022-11-13T13:52:00.000Z</time>
      </trkpt>
      <trkpt lat="37.29097" lon="-3.53444">
        <ele>1412.0</ele>
        <time>2022-11-13T13:52:01.000Z</time>
      </trkpt>
      <trkpt lat="37.29096167" lon="-3.53444333">
        <ele>1412.0</ele>
        <time>2022-11-13T13:52:02.000Z</time>
      </trkpt>
      <trkpt lat="37.29095333" lon="-3.534445">
        <ele>1412.0</ele>
        <time>2022-11-13T13:52:03.000Z</time>
      </trkpt>
      <trkpt lat="37.29094833" lon="-3.53444833">
        <ele>1412.0</ele>
        <time>2022-11-13T13:52:04.000Z</time>
      </trkpt>
      <trkpt lat="37.290945" lon="-3.53445">
        <ele>1412.0</ele>
        <time>2022-11-13T13:52:05.000Z</time>
      </trkpt>
      <trkpt lat="37.290945" lon="-3.53445167">
        <ele>1412.0</ele>
        <time>2022-11-13T13:52:06.000Z</time>
      </trkpt>
      <trkpt lat="37.290945" lon="-3.53445167">
        <ele>1412.0</ele>
        <time>2022-11-13T13:52:07.000Z</time>
      </trkpt>
      <trkpt lat="37.290945" lon="-3.53445167">
        <ele>1412.0</ele>
        <time>2022-11-13T13:52:08.000Z</time>
      </trkpt>
      <trkpt lat="37.29094667" lon="-3.53445333">
        <ele>1413.0</ele>
        <time>2022-11-13T13:52:09.000Z</time>
      </trkpt>
      <trkpt lat="37.290945" lon="-3.534455">
        <ele>1413.0</ele>
        <time>2022-11-13T13:52:10.000Z</time>
      </trkpt>
      <trkpt lat="37.29094" lon="-3.53446333">
        <ele>1413.0</ele>
        <time>2022-11-13T13:52:11.000Z</time>
      </trkpt>
      <trkpt lat="37.290935" lon="-3.53447333">
        <ele>1413.0</ele>
        <time>2022-11-13T13:52:12.000Z</time>
      </trkpt>
      <trkpt lat="37.29093" lon="-3.53448333">
        <ele>1413.0</ele>
        <time>2022-11-13T13:52:13.000Z</time>
      </trkpt>
      <trkpt lat="37.290925" lon="-3.53449333">
        <ele>1413.0</ele>
        <time>2022-11-13T13:52:14.000Z</time>
      </trkpt>
      <trkpt lat="37.29091833" lon="-3.53450333">
        <ele>1413.0</ele>
        <time>2022-11-13T13:52:15.000Z</time>
      </trkpt>
      <trkpt lat="37.29091333" lon="-3.53451333">
        <ele>1413.0</ele>
        <time>2022-11-13T13:52:16.000Z</time>
      </trkpt>
      <trkpt lat="37.29090667" lon="-3.53452333">
        <ele>1413.0</ele>
        <time>2022-11-13T13:52:17.000Z</time>
      </trkpt>
      <trkpt lat="37.2909" lon="-3.53453333">
        <ele>1413.0</ele>
        <time>2022-11-13T13:52:18.000Z</time>
      </trkpt>
      <trkpt lat="37.290895" lon="-3.534545">
        <ele>1413.0</ele>
        <time>2022-11-13T13:52:19.000Z</time>
      </trkpt>
      <trkpt lat="37.29089" lon="-3.53455667">
        <ele>1413.0</ele>
        <time>2022-11-13T13:52:20.000Z</time>
      </trkpt>
      <trkpt lat="37.290885" lon="-3.53456667">
        <ele>1414.0</ele>
        <time>2022-11-13T13:52:21.000Z</time>
      </trkpt>
      <trkpt lat="37.29087667" lon="-3.53457667">
        <ele>1414.0</ele>
        <time>2022-11-13T13:52:22.000Z</time>
      </trkpt>
      <trkpt lat="37.29086667" lon="-3.53458167">
        <ele>1414.0</ele>
        <time>2022-11-13T13:52:23.000Z</time>
      </trkpt>
      <trkpt lat="37.29086" lon="-3.53458667">
        <ele>1414.0</ele>
        <time>2022-11-13T13:52:24.000Z</time>
      </trkpt>
      <trkpt lat="37.29085167" lon="-3.534585">
        <ele>1414.0</ele>
        <time>2022-11-13T13:52:25.000Z</time>
      </trkpt>
      <trkpt lat="37.290845" lon="-3.534585">
        <ele>1414.0</ele>
        <time>2022-11-13T13:52:26.000Z</time>
      </trkpt>
      <trkpt lat="37.29083833" lon="-3.53458667">
        <ele>1414.0</ele>
        <time>2022-11-13T13:52:27.000Z</time>
      </trkpt>
      <trkpt lat="37.290835" lon="-3.53459167">
        <ele>1415.0</ele>
        <time>2022-11-13T13:52:28.000Z</time>
      </trkpt>
      <trkpt lat="37.29083167" lon="-3.5346">
        <ele>1415.0</ele>
        <time>2022-11-13T13:52:29.000Z</time>
      </trkpt>
      <trkpt lat="37.29082833" lon="-3.53461">
        <ele>1415.0</ele>
        <time>2022-11-13T13:52:30.000Z</time>
      </trkpt>
      <trkpt lat="37.29082667" lon="-3.53462333">
        <ele>1415.0</ele>
        <time>2022-11-13T13:52:31.000Z</time>
      </trkpt>
      <trkpt lat="37.290825" lon="-3.534635">
        <ele>1415.0</ele>
        <time>2022-11-13T13:52:32.000Z</time>
      </trkpt>
      <trkpt lat="37.290825" lon="-3.534645">
        <ele>1415.0</ele>
        <time>2022-11-13T13:52:33.000Z</time>
      </trkpt>
      <trkpt lat="37.29082333" lon="-3.534655">
        <ele>1416.0</ele>
        <time>2022-11-13T13:52:34.000Z</time>
      </trkpt>
      <trkpt lat="37.29082167" lon="-3.53466167">
        <ele>1416.0</ele>
        <time>2022-11-13T13:52:35.000Z</time>
      </trkpt>
      <trkpt lat="37.29082167" lon="-3.53466333">
        <ele>1416.0</ele>
        <time>2022-11-13T13:52:36.000Z</time>
      </trkpt>
      <trkpt lat="37.29082167" lon="-3.534665">
        <ele>1416.0</ele>
        <time>2022-11-13T13:52:37.000Z</time>
      </trkpt>
      <trkpt lat="37.29082167" lon="-3.53466333">
        <ele>1416.0</ele>
        <time>2022-11-13T13:52:38.000Z</time>
      </trkpt>
      <trkpt lat="37.29082167" lon="-3.53466333">
        <ele>1416.0</ele>
        <time>2022-11-13T13:52:39.000Z</time>
      </trkpt>
      <trkpt lat="37.29082167" lon="-3.53466333">
        <ele>1416.0</ele>
        <time>2022-11-13T13:52:40.000Z</time>
      </trkpt>
      <trkpt lat="37.29082167" lon="-3.53466667">
        <ele>1416.0</ele>
        <time>2022-11-13T13:52:41.000Z</time>
      </trkpt>
      <trkpt lat="37.29082" lon="-3.534665">
        <ele>1416.0</ele>
        <time>2022-11-13T13:52:42.000Z</time>
      </trkpt>
      <trkpt lat="37.29081667" lon="-3.53466333">
        <ele>1416.0</ele>
        <time>2022-11-13T13:52:43.000Z</time>
      </trkpt>
      <trkpt lat="37.29081167" lon="-3.53466333">
        <ele>1416.0</ele>
        <time>2022-11-13T13:52:44.000Z</time>
      </trkpt>
      <trkpt lat="37.29080833" lon="-3.534665">
        <ele>1416.0</ele>
        <time>2022-11-13T13:52:45.000Z</time>
      </trkpt>
      <trkpt lat="37.29080333" lon="-3.53466667">
        <ele>1416.0</ele>
        <time>2022-11-13T13:52:46.000Z</time>
      </trkpt>
      <trkpt lat="37.29079833" lon="-3.53466833">
        <ele>1417.0</ele>
        <time>2022-11-13T13:52:47.000Z</time>
      </trkpt>
      <trkpt lat="37.29079167" lon="-3.53467167">
        <ele>1417.0</ele>
        <time>2022-11-13T13:52:48.000Z</time>
      </trkpt>
      <trkpt lat="37.29078667" lon="-3.534675">
        <ele>1417.0</ele>
        <time>2022-11-13T13:52:49.000Z</time>
      </trkpt>
      <trkpt lat="37.29078167" lon="-3.53467667">
        <ele>1417.0</ele>
        <time>2022-11-13T13:52:50.000Z</time>
      </trkpt>
      <trkpt lat="37.29077333" lon="-3.53467667">
        <ele>1418.0</ele>
        <time>2022-11-13T13:52:51.000Z</time>
      </trkpt>
      <trkpt lat="37.29076667" lon="-3.53467667">
        <ele>1418.0</ele>
        <time>2022-11-13T13:52:52.000Z</time>
      </trkpt>
      <trkpt lat="37.29076" lon="-3.53467167">
        <ele>1418.0</ele>
        <time>2022-11-13T13:52:53.000Z</time>
      </trkpt>
      <trkpt lat="37.290755" lon="-3.53466667">
        <ele>1418.0</ele>
        <time>2022-11-13T13:52:54.000Z</time>
      </trkpt>
      <trkpt lat="37.29074833" lon="-3.53465833">
        <ele>1419.0</ele>
        <time>2022-11-13T13:52:55.000Z</time>
      </trkpt>
      <trkpt lat="37.29073833" lon="-3.53465333">
        <ele>1419.0</ele>
        <time>2022-11-13T13:52:56.000Z</time>
      </trkpt>
      <trkpt lat="37.29073" lon="-3.53464833">
        <ele>1419.0</ele>
        <time>2022-11-13T13:52:57.000Z</time>
      </trkpt>
      <trkpt lat="37.29072167" lon="-3.53464333">
        <ele>1419.0</ele>
        <time>2022-11-13T13:52:58.000Z</time>
      </trkpt>
      <trkpt lat="37.29071167" lon="-3.534635">
        <ele>1419.0</ele>
        <time>2022-11-13T13:52:59.000Z</time>
      </trkpt>
      <trkpt lat="37.29070333" lon="-3.53462833">
        <ele>1419.0</ele>
        <time>2022-11-13T13:53:00.000Z</time>
      </trkpt>
      <trkpt lat="37.29069333" lon="-3.53462">
        <ele>1420.0</ele>
        <time>2022-11-13T13:53:01.000Z</time>
      </trkpt>
      <trkpt lat="37.290685" lon="-3.534615">
        <ele>1420.0</ele>
        <time>2022-11-13T13:53:02.000Z</time>
      </trkpt>
      <trkpt lat="37.29067667" lon="-3.53461">
        <ele>1420.0</ele>
        <time>2022-11-13T13:53:03.000Z</time>
      </trkpt>
      <trkpt lat="37.29067333" lon="-3.534605">
        <ele>1420.0</ele>
        <time>2022-11-13T13:53:04.000Z</time>
      </trkpt>
      <trkpt lat="37.29067167" lon="-3.53460167">
        <ele>1420.0</ele>
        <time>2022-11-13T13:53:05.000Z</time>
      </trkpt>
      <trkpt lat="37.29067" lon="-3.5346">
        <ele>1420.0</ele>
        <time>2022-11-13T13:53:06.000Z</time>
      </trkpt>
      <trkpt lat="37.29067" lon="-3.53460167">
        <ele>1420.0</ele>
        <time>2022-11-13T13:53:07.000Z</time>
      </trkpt>
      <trkpt lat="37.29066833" lon="-3.5346">
        <ele>1421.0</ele>
        <time>2022-11-13T13:53:08.000Z</time>
      </trkpt>
      <trkpt lat="37.29066833" lon="-3.53459833">
        <ele>1421.0</ele>
        <time>2022-11-13T13:53:09.000Z</time>
      </trkpt>
      <trkpt lat="37.29067" lon="-3.53459833">
        <ele>1421.0</ele>
        <time>2022-11-13T13:53:10.000Z</time>
      </trkpt>
      <trkpt lat="37.29067" lon="-3.53459833">
        <ele>1421.0</ele>
        <time>2022-11-13T13:53:11.000Z</time>
      </trkpt>
      <trkpt lat="37.29067" lon="-3.53459833">
        <ele>1421.0</ele>
        <time>2022-11-13T13:53:12.000Z</time>
      </trkpt>
      <trkpt lat="37.29067" lon="-3.53459833">
        <ele>1421.0</ele>
        <time>2022-11-13T13:53:13.000Z</time>
      </trkpt>
      <trkpt lat="37.29066833" lon="-3.53459833">
        <ele>1421.0</ele>
        <time>2022-11-13T13:53:14.000Z</time>
      </trkpt>
      <trkpt lat="37.29066833" lon="-3.53459833">
        <ele>1421.0</ele>
        <time>2022-11-13T13:53:15.000Z</time>
      </trkpt>
      <trkpt lat="37.29066833" lon="-3.53459833">
        <ele>1421.0</ele>
        <time>2022-11-13T13:53:16.000Z</time>
      </trkpt>
      <trkpt lat="37.29066833" lon="-3.53459833">
        <ele>1421.0</ele>
        <time>2022-11-13T13:53:17.000Z</time>
      </trkpt>
      <trkpt lat="37.29067" lon="-3.53459833">
        <ele>1421.0</ele>
        <time>2022-11-13T13:53:18.000Z</time>
      </trkpt>
      <trkpt lat="37.29066833" lon="-3.53459833">
        <ele>1421.0</ele>
        <time>2022-11-13T13:53:19.000Z</time>
      </trkpt>
      <trkpt lat="37.29066333" lon="-3.53459833">
        <ele>1421.0</ele>
        <time>2022-11-13T13:53:20.000Z</time>
      </trkpt>
      <trkpt lat="37.290655" lon="-3.534595">
        <ele>1421.0</ele>
        <time>2022-11-13T13:53:21.000Z</time>
      </trkpt>
      <trkpt lat="37.29064333" lon="-3.53458833">
        <ele>1421.0</ele>
        <time>2022-11-13T13:53:22.000Z</time>
      </trkpt>
      <trkpt lat="37.29063333" lon="-3.53458333">
        <ele>1421.0</ele>
        <time>2022-11-13T13:53:23.000Z</time>
      </trkpt>
      <trkpt lat="37.29062333" lon="-3.53457833">
        <ele>1421.0</ele>
        <time>2022-11-13T13:53:24.000Z</time>
      </trkpt>
      <trkpt lat="37.290615" lon="-3.534575">
        <ele>1421.0</ele>
        <time>2022-11-13T13:53:25.000Z</time>
      </trkpt>
      <trkpt lat="37.29060667" lon="-3.53457333">
        <ele>1421.0</ele>
        <time>2022-11-13T13:53:26.000Z</time>
      </trkpt>
      <trkpt lat="37.29059833" lon="-3.53457333">
        <ele>1421.0</ele>
        <time>2022-11-13T13:53:27.000Z</time>
      </trkpt>
      <trkpt lat="37.29059" lon="-3.53457833">
        <ele>1421.0</ele>
        <time>2022-11-13T13:53:28.000Z</time>
      </trkpt>
      <trkpt lat="37.29058" lon="-3.53458">
        <ele>1422.0</ele>
        <time>2022-11-13T13:53:29.000Z</time>
      </trkpt>
      <trkpt lat="37.29057" lon="-3.53458167">
        <ele>1422.0</ele>
        <time>2022-11-13T13:53:30.000Z</time>
      </trkpt>
      <trkpt lat="37.29056333" lon="-3.53458">
        <ele>1422.0</ele>
        <time>2022-11-13T13:53:31.000Z</time>
      </trkpt>
      <trkpt lat="37.29055667" lon="-3.53458">
        <ele>1422.0</ele>
        <time>2022-11-13T13:53:32.000Z</time>
      </trkpt>
      <trkpt lat="37.29054833" lon="-3.53458">
        <ele>1422.0</ele>
        <time>2022-11-13T13:53:33.000Z</time>
      </trkpt>
      <trkpt lat="37.29054167" lon="-3.53458167">
        <ele>1422.0</ele>
        <time>2022-11-13T13:53:34.000Z</time>
      </trkpt>
      <trkpt lat="37.29053667" lon="-3.53458333">
        <ele>1422.0</ele>
        <time>2022-11-13T13:53:35.000Z</time>
      </trkpt>
      <trkpt lat="37.29053167" lon="-3.53459">
        <ele>1422.0</ele>
        <time>2022-11-13T13:53:36.000Z</time>
      </trkpt>
      <trkpt lat="37.29052833" lon="-3.53459833">
        <ele>1423.0</ele>
        <time>2022-11-13T13:53:37.000Z</time>
      </trkpt>
      <trkpt lat="37.290525" lon="-3.53460333">
        <ele>1423.0</ele>
        <time>2022-11-13T13:53:38.000Z</time>
      </trkpt>
      <trkpt lat="37.29052" lon="-3.53461">
        <ele>1423.0</ele>
        <time>2022-11-13T13:53:39.000Z</time>
      </trkpt>
      <trkpt lat="37.29051667" lon="-3.53461667">
        <ele>1423.0</ele>
        <time>2022-11-13T13:53:40.000Z</time>
      </trkpt>
      <trkpt lat="37.29051333" lon="-3.534625">
        <ele>1423.0</ele>
        <time>2022-11-13T13:53:41.000Z</time>
      </trkpt>
      <trkpt lat="37.29050833" lon="-3.53463167">
        <ele>1423.0</ele>
        <time>2022-11-13T13:53:42.000Z</time>
      </trkpt>
      <trkpt lat="37.2905" lon="-3.53463333">
        <ele>1424.0</ele>
        <time>2022-11-13T13:53:43.000Z</time>
      </trkpt>
      <trkpt lat="37.290495" lon="-3.534635">
        <ele>1424.0</ele>
        <time>2022-11-13T13:53:44.000Z</time>
      </trkpt>
      <trkpt lat="37.29049" lon="-3.53463833">
        <ele>1424.0</ele>
        <time>2022-11-13T13:53:45.000Z</time>
      </trkpt>
      <trkpt lat="37.290485" lon="-3.53464333">
        <ele>1424.0</ele>
        <time>2022-11-13T13:53:46.000Z</time>
      </trkpt>
      <trkpt lat="37.29048" lon="-3.53465167">
        <ele>1424.0</ele>
        <time>2022-11-13T13:53:47.000Z</time>
      </trkpt>
      <trkpt lat="37.290475" lon="-3.53465833">
        <ele>1424.0</ele>
        <time>2022-11-13T13:53:48.000Z</time>
      </trkpt>
      <trkpt lat="37.29046833" lon="-3.53466667">
        <ele>1424.0</ele>
        <time>2022-11-13T13:53:49.000Z</time>
      </trkpt>
      <trkpt lat="37.29046167" lon="-3.53467333">
        <ele>1424.0</ele>
        <time>2022-11-13T13:53:50.000Z</time>
      </trkpt>
      <trkpt lat="37.29045833" lon="-3.53468167">
        <ele>1424.0</ele>
        <time>2022-11-13T13:53:51.000Z</time>
      </trkpt>
      <trkpt lat="37.29045333" lon="-3.53469">
        <ele>1425.0</ele>
        <time>2022-11-13T13:53:52.000Z</time>
      </trkpt>
      <trkpt lat="37.29044833" lon="-3.53469667">
        <ele>1425.0</ele>
        <time>2022-11-13T13:53:53.000Z</time>
      </trkpt>
      <trkpt lat="37.29044333" lon="-3.53470333">
        <ele>1425.0</ele>
        <time>2022-11-13T13:53:54.000Z</time>
      </trkpt>
      <trkpt lat="37.29044" lon="-3.53471">
        <ele>1425.0</ele>
        <time>2022-11-13T13:53:55.000Z</time>
      </trkpt>
      <trkpt lat="37.290435" lon="-3.53471667">
        <ele>1425.0</ele>
        <time>2022-11-13T13:53:56.000Z</time>
      </trkpt>
      <trkpt lat="37.29043167" lon="-3.534725">
        <ele>1425.0</ele>
        <time>2022-11-13T13:53:57.000Z</time>
      </trkpt>
      <trkpt lat="37.29042833" lon="-3.53473333">
        <ele>1425.0</ele>
        <time>2022-11-13T13:53:58.000Z</time>
      </trkpt>
      <trkpt lat="37.290425" lon="-3.53474">
        <ele>1426.0</ele>
        <time>2022-11-13T13:53:59.000Z</time>
      </trkpt>
      <trkpt lat="37.29042333" lon="-3.53474667">
        <ele>1426.0</ele>
        <time>2022-11-13T13:54:00.000Z</time>
      </trkpt>
      <trkpt lat="37.29042" lon="-3.534755">
        <ele>1426.0</ele>
        <time>2022-11-13T13:54:01.000Z</time>
      </trkpt>
      <trkpt lat="37.29041667" lon="-3.53476167">
        <ele>1426.0</ele>
        <time>2022-11-13T13:54:02.000Z</time>
      </trkpt>
      <trkpt lat="37.290415" lon="-3.53476833">
        <ele>1426.0</ele>
        <time>2022-11-13T13:54:03.000Z</time>
      </trkpt>
      <trkpt lat="37.29041" lon="-3.53477333">
        <ele>1427.0</ele>
        <time>2022-11-13T13:54:04.000Z</time>
      </trkpt>
      <trkpt lat="37.290405" lon="-3.534775">
        <ele>1427.0</ele>
        <time>2022-11-13T13:54:05.000Z</time>
      </trkpt>
      <trkpt lat="37.29040333" lon="-3.53477333">
        <ele>1427.0</ele>
        <time>2022-11-13T13:54:06.000Z</time>
      </trkpt>
      <trkpt lat="37.29040333" lon="-3.53477333">
        <ele>1427.0</ele>
        <time>2022-11-13T13:54:07.000Z</time>
      </trkpt>
      <trkpt lat="37.29040333" lon="-3.534775">
        <ele>1427.0</ele>
        <time>2022-11-13T13:54:08.000Z</time>
      </trkpt>
      <trkpt lat="37.290405" lon="-3.534775">
        <ele>1427.0</ele>
        <time>2022-11-13T13:54:09.000Z</time>
      </trkpt>
      <trkpt lat="37.290405" lon="-3.53477667">
        <ele>1427.0</ele>
        <time>2022-11-13T13:54:10.000Z</time>
      </trkpt>
      <trkpt lat="37.290405" lon="-3.53477667">
        <ele>1427.0</ele>
        <time>2022-11-13T13:54:11.000Z</time>
      </trkpt>
      <trkpt lat="37.290405" lon="-3.53478">
        <ele>1427.0</ele>
        <time>2022-11-13T13:54:12.000Z</time>
      </trkpt>
      <trkpt lat="37.29040167" lon="-3.53478333">
        <ele>1427.0</ele>
        <time>2022-11-13T13:54:13.000Z</time>
      </trkpt>
      <trkpt lat="37.29039833" lon="-3.53479">
        <ele>1427.0</ele>
        <time>2022-11-13T13:54:14.000Z</time>
      </trkpt>
      <trkpt lat="37.290395" lon="-3.53479833">
        <ele>1427.0</ele>
        <time>2022-11-13T13:54:15.000Z</time>
      </trkpt>
      <trkpt lat="37.29039" lon="-3.534805">
        <ele>1428.0</ele>
        <time>2022-11-13T13:54:16.000Z</time>
      </trkpt>
      <trkpt lat="37.29038667" lon="-3.53481333">
        <ele>1428.0</ele>
        <time>2022-11-13T13:54:17.000Z</time>
      </trkpt>
      <trkpt lat="37.29038333" lon="-3.53482167">
        <ele>1428.0</ele>
        <time>2022-11-13T13:54:18.000Z</time>
      </trkpt>
      <trkpt lat="37.29038333" lon="-3.53483167">
        <ele>1428.0</ele>
        <time>2022-11-13T13:54:19.000Z</time>
      </trkpt>
      <trkpt lat="37.29038167" lon="-3.53483833">
        <ele>1428.0</ele>
        <time>2022-11-13T13:54:20.000Z</time>
      </trkpt>
      <trkpt lat="37.29038" lon="-3.53484833">
        <ele>1428.0</ele>
        <time>2022-11-13T13:54:21.000Z</time>
      </trkpt>
      <trkpt lat="37.29038" lon="-3.53485667">
        <ele>1429.0</ele>
        <time>2022-11-13T13:54:22.000Z</time>
      </trkpt>
      <trkpt lat="37.29037667" lon="-3.53486333">
        <ele>1429.0</ele>
        <time>2022-11-13T13:54:23.000Z</time>
      </trkpt>
      <trkpt lat="37.290375" lon="-3.53487167">
        <ele>1429.0</ele>
        <time>2022-11-13T13:54:24.000Z</time>
      </trkpt>
      <trkpt lat="37.29037333" lon="-3.53487833">
        <ele>1429.0</ele>
        <time>2022-11-13T13:54:25.000Z</time>
      </trkpt>
      <trkpt lat="37.29037167" lon="-3.534885">
        <ele>1429.0</ele>
        <time>2022-11-13T13:54:26.000Z</time>
      </trkpt>
      <trkpt lat="37.29037333" lon="-3.53489167">
        <ele>1429.0</ele>
        <time>2022-11-13T13:54:27.000Z</time>
      </trkpt>
      <trkpt lat="37.29037333" lon="-3.53490167">
        <ele>1429.0</ele>
        <time>2022-11-13T13:54:28.000Z</time>
      </trkpt>
      <trkpt lat="37.290375" lon="-3.53491167">
        <ele>1430.0</ele>
        <time>2022-11-13T13:54:29.000Z</time>
      </trkpt>
      <trkpt lat="37.29037667" lon="-3.53492167">
        <ele>1430.0</ele>
        <time>2022-11-13T13:54:30.000Z</time>
      </trkpt>
      <trkpt lat="37.29037833" lon="-3.53493">
        <ele>1430.0</ele>
        <time>2022-11-13T13:54:31.000Z</time>
      </trkpt>
      <trkpt lat="37.29038167" lon="-3.53494">
        <ele>1430.0</ele>
        <time>2022-11-13T13:54:32.000Z</time>
      </trkpt>
      <trkpt lat="37.290385" lon="-3.53494667">
        <ele>1430.0</ele>
        <time>2022-11-13T13:54:33.000Z</time>
      </trkpt>
      <trkpt lat="37.29038833" lon="-3.53495667">
        <ele>1430.0</ele>
        <time>2022-11-13T13:54:34.000Z</time>
      </trkpt>
      <trkpt lat="37.29039167" lon="-3.534965">
        <ele>1430.0</ele>
        <time>2022-11-13T13:54:35.000Z</time>
      </trkpt>
      <trkpt lat="37.290395" lon="-3.53497333">
        <ele>1430.0</ele>
        <time>2022-11-13T13:54:36.000Z</time>
      </trkpt>
      <trkpt lat="37.29039667" lon="-3.53498">
        <ele>1430.0</ele>
        <time>2022-11-13T13:54:37.000Z</time>
      </trkpt>
      <trkpt lat="37.29039833" lon="-3.53498833">
        <ele>1430.0</ele>
        <time>2022-11-13T13:54:38.000Z</time>
      </trkpt>
      <trkpt lat="37.29039833" lon="-3.53499667">
        <ele>1431.0</ele>
        <time>2022-11-13T13:54:39.000Z</time>
      </trkpt>
      <trkpt lat="37.2904" lon="-3.535005">
        <ele>1431.0</ele>
        <time>2022-11-13T13:54:40.000Z</time>
      </trkpt>
      <trkpt lat="37.29040167" lon="-3.53501333">
        <ele>1431.0</ele>
        <time>2022-11-13T13:54:41.000Z</time>
      </trkpt>
      <trkpt lat="37.29040167" lon="-3.53502167">
        <ele>1431.0</ele>
        <time>2022-11-13T13:54:42.000Z</time>
      </trkpt>
      <trkpt lat="37.29040167" lon="-3.53503333">
        <ele>1431.0</ele>
        <time>2022-11-13T13:54:43.000Z</time>
      </trkpt>
      <trkpt lat="37.29040333" lon="-3.53504333">
        <ele>1431.0</ele>
        <time>2022-11-13T13:54:44.000Z</time>
      </trkpt>
      <trkpt lat="37.29040667" lon="-3.53505167">
        <ele>1431.0</ele>
        <time>2022-11-13T13:54:45.000Z</time>
      </trkpt>
      <trkpt lat="37.29041167" lon="-3.53506">
        <ele>1431.0</ele>
        <time>2022-11-13T13:54:46.000Z</time>
      </trkpt>
      <trkpt lat="37.290415" lon="-3.53507167">
        <ele>1431.0</ele>
        <time>2022-11-13T13:54:47.000Z</time>
      </trkpt>
      <trkpt lat="37.29041667" lon="-3.53507833">
        <ele>1432.0</ele>
        <time>2022-11-13T13:54:48.000Z</time>
      </trkpt>
      <trkpt lat="37.29041667" lon="-3.53508667">
        <ele>1432.0</ele>
        <time>2022-11-13T13:54:49.000Z</time>
      </trkpt>
      <trkpt lat="37.290415" lon="-3.53509333">
        <ele>1432.0</ele>
        <time>2022-11-13T13:54:50.000Z</time>
      </trkpt>
      <trkpt lat="37.29041333" lon="-3.53510167">
        <ele>1432.0</ele>
        <time>2022-11-13T13:54:51.000Z</time>
      </trkpt>
      <trkpt lat="37.29041167" lon="-3.53510667">
        <ele>1432.0</ele>
        <time>2022-11-13T13:54:52.000Z</time>
      </trkpt>
      <trkpt lat="37.29041" lon="-3.53511">
        <ele>1432.0</ele>
        <time>2022-11-13T13:54:53.000Z</time>
      </trkpt>
      <trkpt lat="37.29040833" lon="-3.535115">
        <ele>1433.0</ele>
        <time>2022-11-13T13:54:54.000Z</time>
      </trkpt>
      <trkpt lat="37.29040833" lon="-3.53512333">
        <ele>1433.0</ele>
        <time>2022-11-13T13:54:55.000Z</time>
      </trkpt>
      <trkpt lat="37.29040667" lon="-3.53513167">
        <ele>1433.0</ele>
        <time>2022-11-13T13:54:56.000Z</time>
      </trkpt>
      <trkpt lat="37.290405" lon="-3.53514167">
        <ele>1433.0</ele>
        <time>2022-11-13T13:54:57.000Z</time>
      </trkpt>
      <trkpt lat="37.29040833" lon="-3.53514833">
        <ele>1433.0</ele>
        <time>2022-11-13T13:54:58.000Z</time>
      </trkpt>
      <trkpt lat="37.29041167" lon="-3.535155">
        <ele>1433.0</ele>
        <time>2022-11-13T13:54:59.000Z</time>
      </trkpt>
      <trkpt lat="37.29041667" lon="-3.53516333">
        <ele>1433.0</ele>
        <time>2022-11-13T13:55:00.000Z</time>
      </trkpt>
      <trkpt lat="37.29042167" lon="-3.53517167">
        <ele>1433.0</ele>
        <time>2022-11-13T13:55:01.000Z</time>
      </trkpt>
      <trkpt lat="37.290425" lon="-3.53518">
        <ele>1433.0</ele>
        <time>2022-11-13T13:55:02.000Z</time>
      </trkpt>
      <trkpt lat="37.29042667" lon="-3.53519">
        <ele>1433.0</ele>
        <time>2022-11-13T13:55:03.000Z</time>
      </trkpt>
      <trkpt lat="37.29043" lon="-3.53520167">
        <ele>1434.0</ele>
        <time>2022-11-13T13:55:04.000Z</time>
      </trkpt>
      <trkpt lat="37.29043" lon="-3.53521167">
        <ele>1434.0</ele>
        <time>2022-11-13T13:55:05.000Z</time>
      </trkpt>
      <trkpt lat="37.29042667" lon="-3.53522">
        <ele>1434.0</ele>
        <time>2022-11-13T13:55:06.000Z</time>
      </trkpt>
      <trkpt lat="37.29042333" lon="-3.53523">
        <ele>1434.0</ele>
        <time>2022-11-13T13:55:07.000Z</time>
      </trkpt>
      <trkpt lat="37.29042" lon="-3.53523833">
        <ele>1434.0</ele>
        <time>2022-11-13T13:55:08.000Z</time>
      </trkpt>
      <trkpt lat="37.290415" lon="-3.53524667">
        <ele>1434.0</ele>
        <time>2022-11-13T13:55:09.000Z</time>
      </trkpt>
      <trkpt lat="37.29041" lon="-3.535255">
        <ele>1435.0</ele>
        <time>2022-11-13T13:55:10.000Z</time>
      </trkpt>
      <trkpt lat="37.29040333" lon="-3.53526167">
        <ele>1435.0</ele>
        <time>2022-11-13T13:55:11.000Z</time>
      </trkpt>
      <trkpt lat="37.29039667" lon="-3.535265">
        <ele>1435.0</ele>
        <time>2022-11-13T13:55:12.000Z</time>
      </trkpt>
      <trkpt lat="37.29039" lon="-3.53527">
        <ele>1435.0</ele>
        <time>2022-11-13T13:55:13.000Z</time>
      </trkpt>
      <trkpt lat="37.29038167" lon="-3.535275">
        <ele>1435.0</ele>
        <time>2022-11-13T13:55:14.000Z</time>
      </trkpt>
      <trkpt lat="37.29037667" lon="-3.53527833">
        <ele>1435.0</ele>
        <time>2022-11-13T13:55:15.000Z</time>
      </trkpt>
      <trkpt lat="37.29037167" lon="-3.53528333">
        <ele>1436.0</ele>
        <time>2022-11-13T13:55:16.000Z</time>
      </trkpt>
      <trkpt lat="37.29037" lon="-3.53529167">
        <ele>1436.0</ele>
        <time>2022-11-13T13:55:17.000Z</time>
      </trkpt>
      <trkpt lat="37.29036833" lon="-3.5353">
        <ele>1436.0</ele>
        <time>2022-11-13T13:55:18.000Z</time>
      </trkpt>
      <trkpt lat="37.29036667" lon="-3.53530833">
        <ele>1436.0</ele>
        <time>2022-11-13T13:55:19.000Z</time>
      </trkpt>
      <trkpt lat="37.29036667" lon="-3.53531667">
        <ele>1436.0</ele>
        <time>2022-11-13T13:55:20.000Z</time>
      </trkpt>
      <trkpt lat="37.29036333" lon="-3.535325">
        <ele>1436.0</ele>
        <time>2022-11-13T13:55:21.000Z</time>
      </trkpt>
      <trkpt lat="37.29036167" lon="-3.53533333">
        <ele>1437.0</ele>
        <time>2022-11-13T13:55:22.000Z</time>
      </trkpt>
      <trkpt lat="37.290355" lon="-3.53534">
        <ele>1437.0</ele>
        <time>2022-11-13T13:55:23.000Z</time>
      </trkpt>
      <trkpt lat="37.29035" lon="-3.535345">
        <ele>1437.0</ele>
        <time>2022-11-13T13:55:24.000Z</time>
      </trkpt>
      <trkpt lat="37.29034667" lon="-3.53535167">
        <ele>1437.0</ele>
        <time>2022-11-13T13:55:25.000Z</time>
      </trkpt>
      <trkpt lat="37.29034333" lon="-3.53536">
        <ele>1437.0</ele>
        <time>2022-11-13T13:55:26.000Z</time>
      </trkpt>
      <trkpt lat="37.29033833" lon="-3.535365">
        <ele>1438.0</ele>
        <time>2022-11-13T13:55:27.000Z</time>
      </trkpt>
      <trkpt lat="37.29033333" lon="-3.53537167">
        <ele>1438.0</ele>
        <time>2022-11-13T13:55:28.000Z</time>
      </trkpt>
      <trkpt lat="37.29032833" lon="-3.53537833">
        <ele>1438.0</ele>
        <time>2022-11-13T13:55:29.000Z</time>
      </trkpt>
      <trkpt lat="37.29032167" lon="-3.53538167">
        <ele>1438.0</ele>
        <time>2022-11-13T13:55:30.000Z</time>
      </trkpt>
      <trkpt lat="37.290315" lon="-3.53538333">
        <ele>1438.0</ele>
        <time>2022-11-13T13:55:31.000Z</time>
      </trkpt>
      <trkpt lat="37.29030667" lon="-3.53538333">
        <ele>1439.0</ele>
        <time>2022-11-13T13:55:32.000Z</time>
      </trkpt>
      <trkpt lat="37.2903" lon="-3.535385">
        <ele>1439.0</ele>
        <time>2022-11-13T13:55:33.000Z</time>
      </trkpt>
      <trkpt lat="37.290295" lon="-3.53538667">
        <ele>1439.0</ele>
        <time>2022-11-13T13:55:34.000Z</time>
      </trkpt>
      <trkpt lat="37.29028833" lon="-3.53539">
        <ele>1439.0</ele>
        <time>2022-11-13T13:55:35.000Z</time>
      </trkpt>
      <trkpt lat="37.29028333" lon="-3.53539333">
        <ele>1440.0</ele>
        <time>2022-11-13T13:55:36.000Z</time>
      </trkpt>
      <trkpt lat="37.29027833" lon="-3.53539667">
        <ele>1440.0</ele>
        <time>2022-11-13T13:55:37.000Z</time>
      </trkpt>
      <trkpt lat="37.29027333" lon="-3.53540167">
        <ele>1440.0</ele>
        <time>2022-11-13T13:55:38.000Z</time>
      </trkpt>
      <trkpt lat="37.29026833" lon="-3.535405">
        <ele>1440.0</ele>
        <time>2022-11-13T13:55:39.000Z</time>
      </trkpt>
      <trkpt lat="37.29026333" lon="-3.53541">
        <ele>1441.0</ele>
        <time>2022-11-13T13:55:40.000Z</time>
      </trkpt>
      <trkpt lat="37.29025667" lon="-3.53541333">
        <ele>1441.0</ele>
        <time>2022-11-13T13:55:41.000Z</time>
      </trkpt>
      <trkpt lat="37.29025167" lon="-3.53541667">
        <ele>1441.0</ele>
        <time>2022-11-13T13:55:42.000Z</time>
      </trkpt>
      <trkpt lat="37.290245" lon="-3.53542167">
        <ele>1441.0</ele>
        <time>2022-11-13T13:55:43.000Z</time>
      </trkpt>
      <trkpt lat="37.29024167" lon="-3.53542667">
        <ele>1442.0</ele>
        <time>2022-11-13T13:55:44.000Z</time>
      </trkpt>
      <trkpt lat="37.29023833" lon="-3.53543333">
        <ele>1442.0</ele>
        <time>2022-11-13T13:55:45.000Z</time>
      </trkpt>
      <trkpt lat="37.29023667" lon="-3.53544">
        <ele>1442.0</ele>
        <time>2022-11-13T13:55:46.000Z</time>
      </trkpt>
      <trkpt lat="37.290235" lon="-3.53544667">
        <ele>1442.0</ele>
        <time>2022-11-13T13:55:47.000Z</time>
      </trkpt>
      <trkpt lat="37.290235" lon="-3.53545333">
        <ele>1442.0</ele>
        <time>2022-11-13T13:55:48.000Z</time>
      </trkpt>
      <trkpt lat="37.29023333" lon="-3.53546167">
        <ele>1443.0</ele>
        <time>2022-11-13T13:55:49.000Z</time>
      </trkpt>
      <trkpt lat="37.29023333" lon="-3.53546833">
        <ele>1443.0</ele>
        <time>2022-11-13T13:55:50.000Z</time>
      </trkpt>
      <trkpt lat="37.29023333" lon="-3.535475">
        <ele>1443.0</ele>
        <time>2022-11-13T13:55:51.000Z</time>
      </trkpt>
      <trkpt lat="37.29023333" lon="-3.53548333">
        <ele>1443.0</ele>
        <time>2022-11-13T13:55:52.000Z</time>
      </trkpt>
      <trkpt lat="37.29023333" lon="-3.53549167">
        <ele>1444.0</ele>
        <time>2022-11-13T13:55:53.000Z</time>
      </trkpt>
      <trkpt lat="37.290235" lon="-3.53549833">
        <ele>1444.0</ele>
        <time>2022-11-13T13:55:54.000Z</time>
      </trkpt>
      <trkpt lat="37.29023667" lon="-3.53550667">
        <ele>1444.0</ele>
        <time>2022-11-13T13:55:55.000Z</time>
      </trkpt>
      <trkpt lat="37.29023667" lon="-3.53551333">
        <ele>1444.0</ele>
        <time>2022-11-13T13:55:56.000Z</time>
      </trkpt>
      <trkpt lat="37.29023667" lon="-3.53552333">
        <ele>1445.0</ele>
        <time>2022-11-13T13:55:57.000Z</time>
      </trkpt>
      <trkpt lat="37.290235" lon="-3.53553167">
        <ele>1445.0</ele>
        <time>2022-11-13T13:55:58.000Z</time>
      </trkpt>
      <trkpt lat="37.29023" lon="-3.53553667">
        <ele>1445.0</ele>
        <time>2022-11-13T13:55:59.000Z</time>
      </trkpt>
      <trkpt lat="37.290225" lon="-3.53554333">
        <ele>1445.0</ele>
        <time>2022-11-13T13:56:00.000Z</time>
      </trkpt>
      <trkpt lat="37.29022167" lon="-3.53554833">
        <ele>1446.0</ele>
        <time>2022-11-13T13:56:01.000Z</time>
      </trkpt>
      <trkpt lat="37.29021833" lon="-3.53555333">
        <ele>1446.0</ele>
        <time>2022-11-13T13:56:02.000Z</time>
      </trkpt>
      <trkpt lat="37.29021333" lon="-3.53555667">
        <ele>1446.0</ele>
        <time>2022-11-13T13:56:03.000Z</time>
      </trkpt>
      <trkpt lat="37.29021" lon="-3.53556">
        <ele>1447.0</ele>
        <time>2022-11-13T13:56:04.000Z</time>
      </trkpt>
      <trkpt lat="37.29020667" lon="-3.535565">
        <ele>1447.0</ele>
        <time>2022-11-13T13:56:05.000Z</time>
      </trkpt>
      <trkpt lat="37.290205" lon="-3.53556833">
        <ele>1447.0</ele>
        <time>2022-11-13T13:56:06.000Z</time>
      </trkpt>
      <trkpt lat="37.29020167" lon="-3.535575">
        <ele>1447.0</ele>
        <time>2022-11-13T13:56:07.000Z</time>
      </trkpt>
      <trkpt lat="37.29019833" lon="-3.53558">
        <ele>1447.0</ele>
        <time>2022-11-13T13:56:08.000Z</time>
      </trkpt>
      <trkpt lat="37.290195" lon="-3.535585">
        <ele>1448.0</ele>
        <time>2022-11-13T13:56:09.000Z</time>
      </trkpt>
      <trkpt lat="37.29019" lon="-3.53558833">
        <ele>1448.0</ele>
        <time>2022-11-13T13:56:10.000Z</time>
      </trkpt>
      <trkpt lat="37.29018667" lon="-3.53559167">
        <ele>1448.0</ele>
        <time>2022-11-13T13:56:11.000Z</time>
      </trkpt>
      <trkpt lat="37.29018333" lon="-3.535595">
        <ele>1448.0</ele>
        <time>2022-11-13T13:56:12.000Z</time>
      </trkpt>
      <trkpt lat="37.29018" lon="-3.53560167">
        <ele>1448.0</ele>
        <time>2022-11-13T13:56:13.000Z</time>
      </trkpt>
      <trkpt lat="37.29017667" lon="-3.53560667">
        <ele>1449.0</ele>
        <time>2022-11-13T13:56:14.000Z</time>
      </trkpt>
      <trkpt lat="37.29017333" lon="-3.53560833">
        <ele>1449.0</ele>
        <time>2022-11-13T13:56:15.000Z</time>
      </trkpt>
      <trkpt lat="37.29017" lon="-3.53561333">
        <ele>1449.0</ele>
        <time>2022-11-13T13:56:16.000Z</time>
      </trkpt>
      <trkpt lat="37.29016667" lon="-3.53561833">
        <ele>1449.0</ele>
        <time>2022-11-13T13:56:17.000Z</time>
      </trkpt>
      <trkpt lat="37.29016667" lon="-3.535625">
        <ele>1450.0</ele>
        <time>2022-11-13T13:56:18.000Z</time>
      </trkpt>
      <trkpt lat="37.29016833" lon="-3.53563167">
        <ele>1450.0</ele>
        <time>2022-11-13T13:56:19.000Z</time>
      </trkpt>
      <trkpt lat="37.29017167" lon="-3.53563833">
        <ele>1450.0</ele>
        <time>2022-11-13T13:56:20.000Z</time>
      </trkpt>
      <trkpt lat="37.29017333" lon="-3.53564667">
        <ele>1450.0</ele>
        <time>2022-11-13T13:56:21.000Z</time>
      </trkpt>
      <trkpt lat="37.29017167" lon="-3.53565333">
        <ele>1450.0</ele>
        <time>2022-11-13T13:56:22.000Z</time>
      </trkpt>
      <trkpt lat="37.29016833" lon="-3.53565833">
        <ele>1451.0</ele>
        <time>2022-11-13T13:56:23.000Z</time>
      </trkpt>
      <trkpt lat="37.29016833" lon="-3.53566667">
        <ele>1451.0</ele>
        <time>2022-11-13T13:56:24.000Z</time>
      </trkpt>
      <trkpt lat="37.290165" lon="-3.53567333">
        <ele>1451.0</ele>
        <time>2022-11-13T13:56:25.000Z</time>
      </trkpt>
      <trkpt lat="37.29016167" lon="-3.53568">
        <ele>1451.0</ele>
        <time>2022-11-13T13:56:26.000Z</time>
      </trkpt>
      <trkpt lat="37.29016" lon="-3.53568667">
        <ele>1451.0</ele>
        <time>2022-11-13T13:56:27.000Z</time>
      </trkpt>
      <trkpt lat="37.29015667" lon="-3.53569333">
        <ele>1452.0</ele>
        <time>2022-11-13T13:56:28.000Z</time>
      </trkpt>
      <trkpt lat="37.290155" lon="-3.5357">
        <ele>1452.0</ele>
        <time>2022-11-13T13:56:29.000Z</time>
      </trkpt>
      <trkpt lat="37.29015333" lon="-3.53570667">
        <ele>1452.0</ele>
        <time>2022-11-13T13:56:30.000Z</time>
      </trkpt>
      <trkpt lat="37.29015167" lon="-3.53571333">
        <ele>1452.0</ele>
        <time>2022-11-13T13:56:31.000Z</time>
      </trkpt>
      <trkpt lat="37.290155" lon="-3.53572">
        <ele>1452.0</ele>
        <time>2022-11-13T13:56:32.000Z</time>
      </trkpt>
      <trkpt lat="37.29015833" lon="-3.53572667">
        <ele>1452.0</ele>
        <time>2022-11-13T13:56:33.000Z</time>
      </trkpt>
      <trkpt lat="37.29016167" lon="-3.53573333">
        <ele>1453.0</ele>
        <time>2022-11-13T13:56:34.000Z</time>
      </trkpt>
      <trkpt lat="37.29016333" lon="-3.53574">
        <ele>1453.0</ele>
        <time>2022-11-13T13:56:35.000Z</time>
      </trkpt>
      <trkpt lat="37.29016333" lon="-3.535745">
        <ele>1453.0</ele>
        <time>2022-11-13T13:56:36.000Z</time>
      </trkpt>
      <trkpt lat="37.29016167" lon="-3.53574833">
        <ele>1453.0</ele>
        <time>2022-11-13T13:56:37.000Z</time>
      </trkpt>
      <trkpt lat="37.29016167" lon="-3.535755">
        <ele>1453.0</ele>
        <time>2022-11-13T13:56:38.000Z</time>
      </trkpt>
      <trkpt lat="37.29016167" lon="-3.53576167">
        <ele>1453.0</ele>
        <time>2022-11-13T13:56:39.000Z</time>
      </trkpt>
      <trkpt lat="37.29016167" lon="-3.53577">
        <ele>1454.0</ele>
        <time>2022-11-13T13:56:40.000Z</time>
      </trkpt>
      <trkpt lat="37.290165" lon="-3.53577833">
        <ele>1454.0</ele>
        <time>2022-11-13T13:56:41.000Z</time>
      </trkpt>
      <trkpt lat="37.29016833" lon="-3.53578667">
        <ele>1454.0</ele>
        <time>2022-11-13T13:56:42.000Z</time>
      </trkpt>
      <trkpt lat="37.29017" lon="-3.535795">
        <ele>1454.0</ele>
        <time>2022-11-13T13:56:43.000Z</time>
      </trkpt>
      <trkpt lat="37.29017333" lon="-3.53580333">
        <ele>1454.0</ele>
        <time>2022-11-13T13:56:44.000Z</time>
      </trkpt>
      <trkpt lat="37.29017333" lon="-3.53581167">
        <ele>1454.0</ele>
        <time>2022-11-13T13:56:45.000Z</time>
      </trkpt>
      <trkpt lat="37.29017333" lon="-3.53581833">
        <ele>1455.0</ele>
        <time>2022-11-13T13:56:46.000Z</time>
      </trkpt>
      <trkpt lat="37.290175" lon="-3.53582667">
        <ele>1455.0</ele>
        <time>2022-11-13T13:56:47.000Z</time>
      </trkpt>
      <trkpt lat="37.290175" lon="-3.535835">
        <ele>1455.0</ele>
        <time>2022-11-13T13:56:48.000Z</time>
      </trkpt>
      <trkpt lat="37.29017667" lon="-3.53584333">
        <ele>1455.0</ele>
        <time>2022-11-13T13:56:49.000Z</time>
      </trkpt>
      <trkpt lat="37.29018" lon="-3.53585">
        <ele>1455.0</ele>
        <time>2022-11-13T13:56:50.000Z</time>
      </trkpt>
      <trkpt lat="37.29018333" lon="-3.53585833">
        <ele>1455.0</ele>
        <time>2022-11-13T13:56:51.000Z</time>
      </trkpt>
      <trkpt lat="37.29018833" lon="-3.535865">
        <ele>1455.0</ele>
        <time>2022-11-13T13:56:52.000Z</time>
      </trkpt>
      <trkpt lat="37.290195" lon="-3.53587333">
        <ele>1455.0</ele>
        <time>2022-11-13T13:56:53.000Z</time>
      </trkpt>
      <trkpt lat="37.29019667" lon="-3.53588333">
        <ele>1456.0</ele>
        <time>2022-11-13T13:56:54.000Z</time>
      </trkpt>
      <trkpt lat="37.29020167" lon="-3.53589167">
        <ele>1456.0</ele>
        <time>2022-11-13T13:56:55.000Z</time>
      </trkpt>
      <trkpt lat="37.29020833" lon="-3.5359">
        <ele>1456.0</ele>
        <time>2022-11-13T13:56:56.000Z</time>
      </trkpt>
      <trkpt lat="37.29021333" lon="-3.53590833">
        <ele>1456.0</ele>
        <time>2022-11-13T13:56:57.000Z</time>
      </trkpt>
      <trkpt lat="37.29021833" lon="-3.53591667">
        <ele>1456.0</ele>
        <time>2022-11-13T13:56:58.000Z</time>
      </trkpt>
      <trkpt lat="37.29021833" lon="-3.53592667">
        <ele>1456.0</ele>
        <time>2022-11-13T13:56:59.000Z</time>
      </trkpt>
      <trkpt lat="37.29022" lon="-3.53593667">
        <ele>1456.0</ele>
        <time>2022-11-13T13:57:00.000Z</time>
      </trkpt>
      <trkpt lat="37.29022167" lon="-3.535945">
        <ele>1457.0</ele>
        <time>2022-11-13T13:57:01.000Z</time>
      </trkpt>
      <trkpt lat="37.29022" lon="-3.53595333">
        <ele>1457.0</ele>
        <time>2022-11-13T13:57:02.000Z</time>
      </trkpt>
      <trkpt lat="37.29021667" lon="-3.53596">
        <ele>1457.0</ele>
        <time>2022-11-13T13:57:03.000Z</time>
      </trkpt>
      <trkpt lat="37.29021333" lon="-3.53596667">
        <ele>1457.0</ele>
        <time>2022-11-13T13:57:04.000Z</time>
      </trkpt>
      <trkpt lat="37.29021333" lon="-3.53597167">
        <ele>1457.0</ele>
        <time>2022-11-13T13:57:05.000Z</time>
      </trkpt>
      <trkpt lat="37.29021333" lon="-3.53597833">
        <ele>1457.0</ele>
        <time>2022-11-13T13:57:06.000Z</time>
      </trkpt>
      <trkpt lat="37.290215" lon="-3.535985">
        <ele>1458.0</ele>
        <time>2022-11-13T13:57:07.000Z</time>
      </trkpt>
      <trkpt lat="37.29021167" lon="-3.53599333">
        <ele>1458.0</ele>
        <time>2022-11-13T13:57:08.000Z</time>
      </trkpt>
      <trkpt lat="37.290205" lon="-3.53599833">
        <ele>1458.0</ele>
        <time>2022-11-13T13:57:09.000Z</time>
      </trkpt>
      <trkpt lat="37.29019833" lon="-3.53599833">
        <ele>1458.0</ele>
        <time>2022-11-13T13:57:10.000Z</time>
      </trkpt>
      <trkpt lat="37.29019333" lon="-3.53599667">
        <ele>1458.0</ele>
        <time>2022-11-13T13:57:11.000Z</time>
      </trkpt>
      <trkpt lat="37.29018667" lon="-3.53599667">
        <ele>1458.0</ele>
        <time>2022-11-13T13:57:12.000Z</time>
      </trkpt>
      <trkpt lat="37.29018167" lon="-3.53599667">
        <ele>1458.0</ele>
        <time>2022-11-13T13:57:13.000Z</time>
      </trkpt>
      <trkpt lat="37.290175" lon="-3.53600167">
        <ele>1458.0</ele>
        <time>2022-11-13T13:57:14.000Z</time>
      </trkpt>
      <trkpt lat="37.29017167" lon="-3.536005">
        <ele>1459.0</ele>
        <time>2022-11-13T13:57:15.000Z</time>
      </trkpt>
      <trkpt lat="37.290165" lon="-3.53600833">
        <ele>1459.0</ele>
        <time>2022-11-13T13:57:16.000Z</time>
      </trkpt>
      <trkpt lat="37.29015833" lon="-3.53600833">
        <ele>1459.0</ele>
        <time>2022-11-13T13:57:17.000Z</time>
      </trkpt>
      <trkpt lat="37.29015333" lon="-3.53600667">
        <ele>1459.0</ele>
        <time>2022-11-13T13:57:18.000Z</time>
      </trkpt>
      <trkpt lat="37.29014667" lon="-3.53601">
        <ele>1459.0</ele>
        <time>2022-11-13T13:57:19.000Z</time>
      </trkpt>
      <trkpt lat="37.29014" lon="-3.53601333">
        <ele>1460.0</ele>
        <time>2022-11-13T13:57:20.000Z</time>
      </trkpt>
      <trkpt lat="37.29013333" lon="-3.53601667">
        <ele>1460.0</ele>
        <time>2022-11-13T13:57:21.000Z</time>
      </trkpt>
      <trkpt lat="37.29012667" lon="-3.53601667">
        <ele>1460.0</ele>
        <time>2022-11-13T13:57:22.000Z</time>
      </trkpt>
      <trkpt lat="37.29012" lon="-3.53601667">
        <ele>1460.0</ele>
        <time>2022-11-13T13:57:23.000Z</time>
      </trkpt>
      <trkpt lat="37.290115" lon="-3.53601833">
        <ele>1461.0</ele>
        <time>2022-11-13T13:57:24.000Z</time>
      </trkpt>
      <trkpt lat="37.29011" lon="-3.53602167">
        <ele>1461.0</ele>
        <time>2022-11-13T13:57:25.000Z</time>
      </trkpt>
      <trkpt lat="37.290105" lon="-3.536025">
        <ele>1461.0</ele>
        <time>2022-11-13T13:57:26.000Z</time>
      </trkpt>
      <trkpt lat="37.2901" lon="-3.53602833">
        <ele>1461.0</ele>
        <time>2022-11-13T13:57:27.000Z</time>
      </trkpt>
      <trkpt lat="37.29009667" lon="-3.53603167">
        <ele>1462.0</ele>
        <time>2022-11-13T13:57:28.000Z</time>
      </trkpt>
      <trkpt lat="37.290095" lon="-3.53603667">
        <ele>1462.0</ele>
        <time>2022-11-13T13:57:29.000Z</time>
      </trkpt>
      <trkpt lat="37.29009333" lon="-3.53604333">
        <ele>1462.0</ele>
        <time>2022-11-13T13:57:30.000Z</time>
      </trkpt>
      <trkpt lat="37.29009" lon="-3.53605167">
        <ele>1462.0</ele>
        <time>2022-11-13T13:57:31.000Z</time>
      </trkpt>
      <trkpt lat="37.290085" lon="-3.53605833">
        <ele>1462.0</ele>
        <time>2022-11-13T13:57:32.000Z</time>
      </trkpt>
      <trkpt lat="37.29008" lon="-3.53606333">
        <ele>1463.0</ele>
        <time>2022-11-13T13:57:33.000Z</time>
      </trkpt>
      <trkpt lat="37.290075" lon="-3.53606833">
        <ele>1463.0</ele>
        <time>2022-11-13T13:57:34.000Z</time>
      </trkpt>
      <trkpt lat="37.29007" lon="-3.536075">
        <ele>1463.0</ele>
        <time>2022-11-13T13:57:35.000Z</time>
      </trkpt>
      <trkpt lat="37.29006667" lon="-3.53608">
        <ele>1464.0</ele>
        <time>2022-11-13T13:57:36.000Z</time>
      </trkpt>
      <trkpt lat="37.29006333" lon="-3.53608667">
        <ele>1464.0</ele>
        <time>2022-11-13T13:57:37.000Z</time>
      </trkpt>
      <trkpt lat="37.29006167" lon="-3.53609333">
        <ele>1464.0</ele>
        <time>2022-11-13T13:57:38.000Z</time>
      </trkpt>
      <trkpt lat="37.29005833" lon="-3.53610167">
        <ele>1464.0</ele>
        <time>2022-11-13T13:57:39.000Z</time>
      </trkpt>
      <trkpt lat="37.290055" lon="-3.53610833">
        <ele>1464.0</ele>
        <time>2022-11-13T13:57:40.000Z</time>
      </trkpt>
      <trkpt lat="37.29005333" lon="-3.536115">
        <ele>1464.0</ele>
        <time>2022-11-13T13:57:41.000Z</time>
      </trkpt>
      <trkpt lat="37.29005167" lon="-3.53612333">
        <ele>1464.0</ele>
        <time>2022-11-13T13:57:42.000Z</time>
      </trkpt>
      <trkpt lat="37.29005167" lon="-3.53612833">
        <ele>1465.0</ele>
        <time>2022-11-13T13:57:43.000Z</time>
      </trkpt>
      <trkpt lat="37.29005333" lon="-3.536135">
        <ele>1465.0</ele>
        <time>2022-11-13T13:57:44.000Z</time>
      </trkpt>
      <trkpt lat="37.290055" lon="-3.53614333">
        <ele>1465.0</ele>
        <time>2022-11-13T13:57:45.000Z</time>
      </trkpt>
      <trkpt lat="37.29005667" lon="-3.53615">
        <ele>1465.0</ele>
        <time>2022-11-13T13:57:46.000Z</time>
      </trkpt>
      <trkpt lat="37.29005833" lon="-3.536155">
        <ele>1465.0</ele>
        <time>2022-11-13T13:57:47.000Z</time>
      </trkpt>
      <trkpt lat="37.29006" lon="-3.53616167">
        <ele>1465.0</ele>
        <time>2022-11-13T13:57:48.000Z</time>
      </trkpt>
      <trkpt lat="37.29006167" lon="-3.53617">
        <ele>1465.0</ele>
        <time>2022-11-13T13:57:49.000Z</time>
      </trkpt>
      <trkpt lat="37.29006167" lon="-3.53617833">
        <ele>1465.0</ele>
        <time>2022-11-13T13:57:50.000Z</time>
      </trkpt>
      <trkpt lat="37.29006333" lon="-3.536185">
        <ele>1465.0</ele>
        <time>2022-11-13T13:57:51.000Z</time>
      </trkpt>
      <trkpt lat="37.29006333" lon="-3.53619167">
        <ele>1465.0</ele>
        <time>2022-11-13T13:57:52.000Z</time>
      </trkpt>
      <trkpt lat="37.29006167" lon="-3.53619667">
        <ele>1466.0</ele>
        <time>2022-11-13T13:57:53.000Z</time>
      </trkpt>
      <trkpt lat="37.29006167" lon="-3.53620333">
        <ele>1466.0</ele>
        <time>2022-11-13T13:57:54.000Z</time>
      </trkpt>
      <trkpt lat="37.29006167" lon="-3.53621">
        <ele>1466.0</ele>
        <time>2022-11-13T13:57:55.000Z</time>
      </trkpt>
      <trkpt lat="37.29006" lon="-3.53621667">
        <ele>1466.0</ele>
        <time>2022-11-13T13:57:56.000Z</time>
      </trkpt>
      <trkpt lat="37.29006" lon="-3.53622">
        <ele>1466.0</ele>
        <time>2022-11-13T13:57:57.000Z</time>
      </trkpt>
      <trkpt lat="37.29005833" lon="-3.53622333">
        <ele>1466.0</ele>
        <time>2022-11-13T13:57:58.000Z</time>
      </trkpt>
      <trkpt lat="37.29005833" lon="-3.53622833">
        <ele>1466.0</ele>
        <time>2022-11-13T13:57:59.000Z</time>
      </trkpt>
      <trkpt lat="37.29005667" lon="-3.536235">
        <ele>1466.0</ele>
        <time>2022-11-13T13:58:00.000Z</time>
      </trkpt>
      <trkpt lat="37.29005667" lon="-3.53624">
        <ele>1467.0</ele>
        <time>2022-11-13T13:58:01.000Z</time>
      </trkpt>
      <trkpt lat="37.29005667" lon="-3.536245">
        <ele>1467.0</ele>
        <time>2022-11-13T13:58:02.000Z</time>
      </trkpt>
      <trkpt lat="37.29006" lon="-3.53625167">
        <ele>1467.0</ele>
        <time>2022-11-13T13:58:03.000Z</time>
      </trkpt>
      <trkpt lat="37.29006333" lon="-3.53626">
        <ele>1467.0</ele>
        <time>2022-11-13T13:58:04.000Z</time>
      </trkpt>
      <trkpt lat="37.290065" lon="-3.53626667">
        <ele>1467.0</ele>
        <time>2022-11-13T13:58:05.000Z</time>
      </trkpt>
      <trkpt lat="37.29006667" lon="-3.53627333">
        <ele>1467.0</ele>
        <time>2022-11-13T13:58:06.000Z</time>
      </trkpt>
      <trkpt lat="37.29006667" lon="-3.53628167">
        <ele>1467.0</ele>
        <time>2022-11-13T13:58:07.000Z</time>
      </trkpt>
      <trkpt lat="37.29006667" lon="-3.53629">
        <ele>1468.0</ele>
        <time>2022-11-13T13:58:08.000Z</time>
      </trkpt>
      <trkpt lat="37.290065" lon="-3.53629833">
        <ele>1468.0</ele>
        <time>2022-11-13T13:58:09.000Z</time>
      </trkpt>
      <trkpt lat="37.29006333" lon="-3.536305">
        <ele>1468.0</ele>
        <time>2022-11-13T13:58:10.000Z</time>
      </trkpt>
      <trkpt lat="37.29006167" lon="-3.53631333">
        <ele>1468.0</ele>
        <time>2022-11-13T13:58:11.000Z</time>
      </trkpt>
      <trkpt lat="37.29006167" lon="-3.53632167">
        <ele>1468.0</ele>
        <time>2022-11-13T13:58:12.000Z</time>
      </trkpt>
      <trkpt lat="37.29006333" lon="-3.53633">
        <ele>1468.0</ele>
        <time>2022-11-13T13:58:13.000Z</time>
      </trkpt>
      <trkpt lat="37.29006333" lon="-3.53634">
        <ele>1469.0</ele>
        <time>2022-11-13T13:58:14.000Z</time>
      </trkpt>
      <trkpt lat="37.29006333" lon="-3.53634833">
        <ele>1469.0</ele>
        <time>2022-11-13T13:58:15.000Z</time>
      </trkpt>
      <trkpt lat="37.29005833" lon="-3.53635833">
        <ele>1469.0</ele>
        <time>2022-11-13T13:58:16.000Z</time>
      </trkpt>
      <trkpt lat="37.290055" lon="-3.53636167">
        <ele>1469.0</ele>
        <time>2022-11-13T13:58:17.000Z</time>
      </trkpt>
      <trkpt lat="37.29005167" lon="-3.53636667">
        <ele>1469.0</ele>
        <time>2022-11-13T13:58:18.000Z</time>
      </trkpt>
      <trkpt lat="37.29004833" lon="-3.53637167">
        <ele>1470.0</ele>
        <time>2022-11-13T13:58:19.000Z</time>
      </trkpt>
      <trkpt lat="37.290045" lon="-3.53637833">
        <ele>1470.0</ele>
        <time>2022-11-13T13:58:20.000Z</time>
      </trkpt>
      <trkpt lat="37.29004333" lon="-3.536385">
        <ele>1470.0</ele>
        <time>2022-11-13T13:58:21.000Z</time>
      </trkpt>
      <trkpt lat="37.29004" lon="-3.53639">
        <ele>1470.0</ele>
        <time>2022-11-13T13:58:22.000Z</time>
      </trkpt>
      <trkpt lat="37.29003333" lon="-3.53639333">
        <ele>1471.0</ele>
        <time>2022-11-13T13:58:23.000Z</time>
      </trkpt>
      <trkpt lat="37.290025" lon="-3.536395">
        <ele>1471.0</ele>
        <time>2022-11-13T13:58:24.000Z</time>
      </trkpt>
      <trkpt lat="37.29002" lon="-3.53639833">
        <ele>1471.0</ele>
        <time>2022-11-13T13:58:25.000Z</time>
      </trkpt>
      <trkpt lat="37.29001667" lon="-3.536405">
        <ele>1471.0</ele>
        <time>2022-11-13T13:58:26.000Z</time>
      </trkpt>
      <trkpt lat="37.29001333" lon="-3.53641">
        <ele>1471.0</ele>
        <time>2022-11-13T13:58:27.000Z</time>
      </trkpt>
      <trkpt lat="37.29000833" lon="-3.53641333">
        <ele>1471.0</ele>
        <time>2022-11-13T13:58:28.000Z</time>
      </trkpt>
      <trkpt lat="37.290005" lon="-3.53641667">
        <ele>1472.0</ele>
        <time>2022-11-13T13:58:29.000Z</time>
      </trkpt>
      <trkpt lat="37.29000167" lon="-3.53642167">
        <ele>1472.0</ele>
        <time>2022-11-13T13:58:30.000Z</time>
      </trkpt>
      <trkpt lat="37.28999833" lon="-3.53642833">
        <ele>1472.0</ele>
        <time>2022-11-13T13:58:31.000Z</time>
      </trkpt>
      <trkpt lat="37.289995" lon="-3.53643333">
        <ele>1473.0</ele>
        <time>2022-11-13T13:58:32.000Z</time>
      </trkpt>
      <trkpt lat="37.28999333" lon="-3.53643833">
        <ele>1473.0</ele>
        <time>2022-11-13T13:58:33.000Z</time>
      </trkpt>
      <trkpt lat="37.28999" lon="-3.536445">
        <ele>1473.0</ele>
        <time>2022-11-13T13:58:34.000Z</time>
      </trkpt>
      <trkpt lat="37.28998667" lon="-3.53645">
        <ele>1473.0</ele>
        <time>2022-11-13T13:58:35.000Z</time>
      </trkpt>
      <trkpt lat="37.28998333" lon="-3.536455">
        <ele>1474.0</ele>
        <time>2022-11-13T13:58:36.000Z</time>
      </trkpt>
      <trkpt lat="37.28998" lon="-3.53646">
        <ele>1474.0</ele>
        <time>2022-11-13T13:58:37.000Z</time>
      </trkpt>
      <trkpt lat="37.28997667" lon="-3.53646667">
        <ele>1474.0</ele>
        <time>2022-11-13T13:58:38.000Z</time>
      </trkpt>
      <trkpt lat="37.28997333" lon="-3.53647333">
        <ele>1474.0</ele>
        <time>2022-11-13T13:58:39.000Z</time>
      </trkpt>
      <trkpt lat="37.28997" lon="-3.53648">
        <ele>1475.0</ele>
        <time>2022-11-13T13:58:40.000Z</time>
      </trkpt>
      <trkpt lat="37.28996667" lon="-3.53648667">
        <ele>1475.0</ele>
        <time>2022-11-13T13:58:41.000Z</time>
      </trkpt>
      <trkpt lat="37.28996167" lon="-3.53649">
        <ele>1475.0</ele>
        <time>2022-11-13T13:58:42.000Z</time>
      </trkpt>
      <trkpt lat="37.28995833" lon="-3.53649333">
        <ele>1475.0</ele>
        <time>2022-11-13T13:58:43.000Z</time>
      </trkpt>
      <trkpt lat="37.28995667" lon="-3.53649667">
        <ele>1475.0</ele>
        <time>2022-11-13T13:58:44.000Z</time>
      </trkpt>
      <trkpt lat="37.289955" lon="-3.53650167">
        <ele>1476.0</ele>
        <time>2022-11-13T13:58:45.000Z</time>
      </trkpt>
      <trkpt lat="37.289955" lon="-3.53650833">
        <ele>1476.0</ele>
        <time>2022-11-13T13:58:46.000Z</time>
      </trkpt>
      <trkpt lat="37.289955" lon="-3.536515">
        <ele>1476.0</ele>
        <time>2022-11-13T13:58:47.000Z</time>
      </trkpt>
      <trkpt lat="37.289955" lon="-3.53652333">
        <ele>1476.0</ele>
        <time>2022-11-13T13:58:48.000Z</time>
      </trkpt>
      <trkpt lat="37.28995167" lon="-3.53653">
        <ele>1477.0</ele>
        <time>2022-11-13T13:58:49.000Z</time>
      </trkpt>
      <trkpt lat="37.28995" lon="-3.53653667">
        <ele>1477.0</ele>
        <time>2022-11-13T13:58:50.000Z</time>
      </trkpt>
      <trkpt lat="37.28994667" lon="-3.53654333">
        <ele>1477.0</ele>
        <time>2022-11-13T13:58:51.000Z</time>
      </trkpt>
      <trkpt lat="37.28994167" lon="-3.53655">
        <ele>1477.0</ele>
        <time>2022-11-13T13:58:52.000Z</time>
      </trkpt>
      <trkpt lat="37.28993833" lon="-3.53655667">
        <ele>1477.0</ele>
        <time>2022-11-13T13:58:53.000Z</time>
      </trkpt>
      <trkpt lat="37.28993667" lon="-3.53656167">
        <ele>1477.0</ele>
        <time>2022-11-13T13:58:54.000Z</time>
      </trkpt>
      <trkpt lat="37.28993667" lon="-3.53656833">
        <ele>1478.0</ele>
        <time>2022-11-13T13:58:55.000Z</time>
      </trkpt>
      <trkpt lat="37.28993833" lon="-3.53657667">
        <ele>1478.0</ele>
        <time>2022-11-13T13:58:56.000Z</time>
      </trkpt>
      <trkpt lat="37.28993667" lon="-3.53658667">
        <ele>1478.0</ele>
        <time>2022-11-13T13:58:57.000Z</time>
      </trkpt>
      <trkpt lat="37.289935" lon="-3.536595">
        <ele>1478.0</ele>
        <time>2022-11-13T13:58:58.000Z</time>
      </trkpt>
      <trkpt lat="37.28993167" lon="-3.53660167">
        <ele>1478.0</ele>
        <time>2022-11-13T13:58:59.000Z</time>
      </trkpt>
      <trkpt lat="37.28992833" lon="-3.53661">
        <ele>1479.0</ele>
        <time>2022-11-13T13:59:00.000Z</time>
      </trkpt>
      <trkpt lat="37.28992667" lon="-3.53661833">
        <ele>1479.0</ele>
        <time>2022-11-13T13:59:01.000Z</time>
      </trkpt>
      <trkpt lat="37.28992167" lon="-3.53662333">
        <ele>1479.0</ele>
        <time>2022-11-13T13:59:02.000Z</time>
      </trkpt>
      <trkpt lat="37.28991667" lon="-3.53662833">
        <ele>1479.0</ele>
        <time>2022-11-13T13:59:03.000Z</time>
      </trkpt>
      <trkpt lat="37.289915" lon="-3.53663167">
        <ele>1479.0</ele>
        <time>2022-11-13T13:59:04.000Z</time>
      </trkpt>
      <trkpt lat="37.28991333" lon="-3.53663833">
        <ele>1480.0</ele>
        <time>2022-11-13T13:59:05.000Z</time>
      </trkpt>
      <trkpt lat="37.28991167" lon="-3.53664667">
        <ele>1480.0</ele>
        <time>2022-11-13T13:59:06.000Z</time>
      </trkpt>
      <trkpt lat="37.28990833" lon="-3.536655">
        <ele>1480.0</ele>
        <time>2022-11-13T13:59:07.000Z</time>
      </trkpt>
      <trkpt lat="37.289905" lon="-3.53666167">
        <ele>1480.0</ele>
        <time>2022-11-13T13:59:08.000Z</time>
      </trkpt>
      <trkpt lat="37.289905" lon="-3.53666833">
        <ele>1481.0</ele>
        <time>2022-11-13T13:59:09.000Z</time>
      </trkpt>
      <trkpt lat="37.289905" lon="-3.53667667">
        <ele>1481.0</ele>
        <time>2022-11-13T13:59:10.000Z</time>
      </trkpt>
      <trkpt lat="37.28990333" lon="-3.536685">
        <ele>1481.0</ele>
        <time>2022-11-13T13:59:11.000Z</time>
      </trkpt>
      <trkpt lat="37.28990167" lon="-3.53669333">
        <ele>1482.0</ele>
        <time>2022-11-13T13:59:12.000Z</time>
      </trkpt>
      <trkpt lat="37.28989833" lon="-3.53670167">
        <ele>1482.0</ele>
        <time>2022-11-13T13:59:13.000Z</time>
      </trkpt>
      <trkpt lat="37.28989667" lon="-3.53670833">
        <ele>1482.0</ele>
        <time>2022-11-13T13:59:14.000Z</time>
      </trkpt>
      <trkpt lat="37.28989667" lon="-3.53671667">
        <ele>1482.0</ele>
        <time>2022-11-13T13:59:15.000Z</time>
      </trkpt>
      <trkpt lat="37.28989667" lon="-3.536725">
        <ele>1482.0</ele>
        <time>2022-11-13T13:59:16.000Z</time>
      </trkpt>
      <trkpt lat="37.289895" lon="-3.53673333">
        <ele>1483.0</ele>
        <time>2022-11-13T13:59:17.000Z</time>
      </trkpt>
      <trkpt lat="37.28989333" lon="-3.53674">
        <ele>1483.0</ele>
        <time>2022-11-13T13:59:18.000Z</time>
      </trkpt>
      <trkpt lat="37.28989333" lon="-3.53674833">
        <ele>1483.0</ele>
        <time>2022-11-13T13:59:19.000Z</time>
      </trkpt>
      <trkpt lat="37.28989333" lon="-3.536755">
        <ele>1484.0</ele>
        <time>2022-11-13T13:59:20.000Z</time>
      </trkpt>
      <trkpt lat="37.289895" lon="-3.53676167">
        <ele>1484.0</ele>
        <time>2022-11-13T13:59:21.000Z</time>
      </trkpt>
      <trkpt lat="37.2899" lon="-3.53676833">
        <ele>1484.0</ele>
        <time>2022-11-13T13:59:22.000Z</time>
      </trkpt>
      <trkpt lat="37.28990667" lon="-3.53677333">
        <ele>1485.0</ele>
        <time>2022-11-13T13:59:23.000Z</time>
      </trkpt>
      <trkpt lat="37.28991" lon="-3.53678333">
        <ele>1485.0</ele>
        <time>2022-11-13T13:59:24.000Z</time>
      </trkpt>
      <trkpt lat="37.28990833" lon="-3.53679167">
        <ele>1485.0</ele>
        <time>2022-11-13T13:59:25.000Z</time>
      </trkpt>
      <trkpt lat="37.28990833" lon="-3.53679833">
        <ele>1485.0</ele>
        <time>2022-11-13T13:59:26.000Z</time>
      </trkpt>
      <trkpt lat="37.28990667" lon="-3.536805">
        <ele>1486.0</ele>
        <time>2022-11-13T13:59:27.000Z</time>
      </trkpt>
      <trkpt lat="37.28991" lon="-3.53681">
        <ele>1486.0</ele>
        <time>2022-11-13T13:59:28.000Z</time>
      </trkpt>
      <trkpt lat="37.289915" lon="-3.53681833">
        <ele>1486.0</ele>
        <time>2022-11-13T13:59:29.000Z</time>
      </trkpt>
      <trkpt lat="37.28992" lon="-3.536825">
        <ele>1486.0</ele>
        <time>2022-11-13T13:59:30.000Z</time>
      </trkpt>
      <trkpt lat="37.289925" lon="-3.53683333">
        <ele>1487.0</ele>
        <time>2022-11-13T13:59:31.000Z</time>
      </trkpt>
      <trkpt lat="37.28992833" lon="-3.53684">
        <ele>1487.0</ele>
        <time>2022-11-13T13:59:32.000Z</time>
      </trkpt>
      <trkpt lat="37.28993167" lon="-3.53684667">
        <ele>1487.0</ele>
        <time>2022-11-13T13:59:33.000Z</time>
      </trkpt>
      <trkpt lat="37.28993167" lon="-3.53685333">
        <ele>1487.0</ele>
        <time>2022-11-13T13:59:34.000Z</time>
      </trkpt>
      <trkpt lat="37.28993" lon="-3.53686">
        <ele>1487.0</ele>
        <time>2022-11-13T13:59:35.000Z</time>
      </trkpt>
      <trkpt lat="37.28993" lon="-3.536865">
        <ele>1487.0</ele>
        <time>2022-11-13T13:59:36.000Z</time>
      </trkpt>
      <trkpt lat="37.28993" lon="-3.53687167">
        <ele>1488.0</ele>
        <time>2022-11-13T13:59:37.000Z</time>
      </trkpt>
      <trkpt lat="37.28992833" lon="-3.53687833">
        <ele>1488.0</ele>
        <time>2022-11-13T13:59:38.000Z</time>
      </trkpt>
      <trkpt lat="37.28993" lon="-3.53688333">
        <ele>1488.0</ele>
        <time>2022-11-13T13:59:39.000Z</time>
      </trkpt>
      <trkpt lat="37.28992667" lon="-3.53689167">
        <ele>1488.0</ele>
        <time>2022-11-13T13:59:40.000Z</time>
      </trkpt>
      <trkpt lat="37.289925" lon="-3.536895">
        <ele>1488.0</ele>
        <time>2022-11-13T13:59:41.000Z</time>
      </trkpt>
      <trkpt lat="37.28992333" lon="-3.53690167">
        <ele>1488.0</ele>
        <time>2022-11-13T13:59:42.000Z</time>
      </trkpt>
      <trkpt lat="37.28992167" lon="-3.53690833">
        <ele>1488.0</ele>
        <time>2022-11-13T13:59:43.000Z</time>
      </trkpt>
      <trkpt lat="37.28992333" lon="-3.53691667">
        <ele>1489.0</ele>
        <time>2022-11-13T13:59:44.000Z</time>
      </trkpt>
      <trkpt lat="37.28992167" lon="-3.536925">
        <ele>1489.0</ele>
        <time>2022-11-13T13:59:45.000Z</time>
      </trkpt>
      <trkpt lat="37.28991833" lon="-3.536935">
        <ele>1489.0</ele>
        <time>2022-11-13T13:59:46.000Z</time>
      </trkpt>
      <trkpt lat="37.289915" lon="-3.53694">
        <ele>1489.0</ele>
        <time>2022-11-13T13:59:47.000Z</time>
      </trkpt>
      <trkpt lat="37.28991" lon="-3.536945">
        <ele>1489.0</ele>
        <time>2022-11-13T13:59:48.000Z</time>
      </trkpt>
      <trkpt lat="37.289905" lon="-3.53695">
        <ele>1489.0</ele>
        <time>2022-11-13T13:59:49.000Z</time>
      </trkpt>
      <trkpt lat="37.28990333" lon="-3.536955">
        <ele>1490.0</ele>
        <time>2022-11-13T13:59:50.000Z</time>
      </trkpt>
      <trkpt lat="37.28990333" lon="-3.53696167">
        <ele>1490.0</ele>
        <time>2022-11-13T13:59:51.000Z</time>
      </trkpt>
      <trkpt lat="37.28990167" lon="-3.53697">
        <ele>1490.0</ele>
        <time>2022-11-13T13:59:52.000Z</time>
      </trkpt>
      <trkpt lat="37.28989833" lon="-3.53697833">
        <ele>1490.0</ele>
        <time>2022-11-13T13:59:53.000Z</time>
      </trkpt>
      <trkpt lat="37.28989833" lon="-3.53698667">
        <ele>1490.0</ele>
        <time>2022-11-13T13:59:54.000Z</time>
      </trkpt>
      <trkpt lat="37.289895" lon="-3.536995">
        <ele>1491.0</ele>
        <time>2022-11-13T13:59:55.000Z</time>
      </trkpt>
      <trkpt lat="37.28989167" lon="-3.53700333">
        <ele>1491.0</ele>
        <time>2022-11-13T13:59:56.000Z</time>
      </trkpt>
      <trkpt lat="37.28988667" lon="-3.53700667">
        <ele>1491.0</ele>
        <time>2022-11-13T13:59:57.000Z</time>
      </trkpt>
      <trkpt lat="37.28988333" lon="-3.53701333">
        <ele>1491.0</ele>
        <time>2022-11-13T13:59:58.000Z</time>
      </trkpt>
      <trkpt lat="37.28988167" lon="-3.53702167">
        <ele>1491.0</ele>
        <time>2022-11-13T13:59:59.000Z</time>
      </trkpt>
      <trkpt lat="37.28988" lon="-3.53703167">
        <ele>1491.0</ele>
        <time>2022-11-13T14:00:00.000Z</time>
      </trkpt>
      <trkpt lat="37.28988" lon="-3.53704167">
        <ele>1491.0</ele>
        <time>2022-11-13T14:00:01.000Z</time>
      </trkpt>
      <trkpt lat="37.28988" lon="-3.53705167">
        <ele>1492.0</ele>
        <time>2022-11-13T14:00:02.000Z</time>
      </trkpt>
      <trkpt lat="37.28988167" lon="-3.53706167">
        <ele>1492.0</ele>
        <time>2022-11-13T14:00:03.000Z</time>
      </trkpt>
      <trkpt lat="37.28988333" lon="-3.53707167">
        <ele>1492.0</ele>
        <time>2022-11-13T14:00:04.000Z</time>
      </trkpt>
      <trkpt lat="37.28988333" lon="-3.53708">
        <ele>1492.0</ele>
        <time>2022-11-13T14:00:05.000Z</time>
      </trkpt>
      <trkpt lat="37.28988167" lon="-3.53708667">
        <ele>1493.0</ele>
        <time>2022-11-13T14:00:06.000Z</time>
      </trkpt>
      <trkpt lat="37.28988167" lon="-3.53709333">
        <ele>1493.0</ele>
        <time>2022-11-13T14:00:07.000Z</time>
      </trkpt>
      <trkpt lat="37.28988167" lon="-3.53710167">
        <ele>1493.0</ele>
        <time>2022-11-13T14:00:08.000Z</time>
      </trkpt>
      <trkpt lat="37.28988167" lon="-3.537105">
        <ele>1493.0</ele>
        <time>2022-11-13T14:00:09.000Z</time>
      </trkpt>
      <trkpt lat="37.28988667" lon="-3.53711333">
        <ele>1493.0</ele>
        <time>2022-11-13T14:00:10.000Z</time>
      </trkpt>
      <trkpt lat="37.28988667" lon="-3.53712">
        <ele>1493.0</ele>
        <time>2022-11-13T14:00:11.000Z</time>
      </trkpt>
      <trkpt lat="37.289885" lon="-3.53712167">
        <ele>1494.0</ele>
        <time>2022-11-13T14:00:12.000Z</time>
      </trkpt>
      <trkpt lat="37.28988167" lon="-3.53712333">
        <ele>1494.0</ele>
        <time>2022-11-13T14:00:13.000Z</time>
      </trkpt>
      <trkpt lat="37.28988167" lon="-3.537125">
        <ele>1494.0</ele>
        <time>2022-11-13T14:00:14.000Z</time>
      </trkpt>
      <trkpt lat="37.28988167" lon="-3.537125">
        <ele>1494.0</ele>
        <time>2022-11-13T14:00:15.000Z</time>
      </trkpt>
      <trkpt lat="37.28988167" lon="-3.537125">
        <ele>1494.0</ele>
        <time>2022-11-13T14:00:16.000Z</time>
      </trkpt>
      <trkpt lat="37.28988167" lon="-3.53712667">
        <ele>1494.0</ele>
        <time>2022-11-13T14:00:17.000Z</time>
      </trkpt>
      <trkpt lat="37.28988167" lon="-3.53712667">
        <ele>1494.0</ele>
        <time>2022-11-13T14:00:18.000Z</time>
      </trkpt>
      <trkpt lat="37.28988167" lon="-3.53712667">
        <ele>1494.0</ele>
        <time>2022-11-13T14:00:19.000Z</time>
      </trkpt>
      <trkpt lat="37.28988167" lon="-3.53712667">
        <ele>1494.0</ele>
        <time>2022-11-13T14:00:20.000Z</time>
      </trkpt>
      <trkpt lat="37.28988333" lon="-3.53712667">
        <ele>1494.0</ele>
        <time>2022-11-13T14:00:21.000Z</time>
      </trkpt>
      <trkpt lat="37.28988333" lon="-3.53712667">
        <ele>1494.0</ele>
        <time>2022-11-13T14:00:22.000Z</time>
      </trkpt>
      <trkpt lat="37.28988333" lon="-3.53712833">
        <ele>1494.0</ele>
        <time>2022-11-13T14:00:23.000Z</time>
      </trkpt>
      <trkpt lat="37.28988333" lon="-3.53712833">
        <ele>1494.0</ele>
        <time>2022-11-13T14:00:24.000Z</time>
      </trkpt>
      <trkpt lat="37.28988333" lon="-3.53713">
        <ele>1494.0</ele>
        <time>2022-11-13T14:00:25.000Z</time>
      </trkpt>
      <trkpt lat="37.28988333" lon="-3.53713">
        <ele>1495.0</ele>
        <time>2022-11-13T14:00:26.000Z</time>
      </trkpt>
      <trkpt lat="37.28988333" lon="-3.53713167">
        <ele>1495.0</ele>
        <time>2022-11-13T14:00:27.000Z</time>
      </trkpt>
      <trkpt lat="37.28988167" lon="-3.53713167">
        <ele>1495.0</ele>
        <time>2022-11-13T14:00:28.000Z</time>
      </trkpt>
      <trkpt lat="37.28988167" lon="-3.53713167">
        <ele>1495.0</ele>
        <time>2022-11-13T14:00:29.000Z</time>
      </trkpt>
      <trkpt lat="37.28988333" lon="-3.53713167">
        <ele>1495.0</ele>
        <time>2022-11-13T14:00:30.000Z</time>
      </trkpt>
      <trkpt lat="37.28988333" lon="-3.53713167">
        <ele>1495.0</ele>
        <time>2022-11-13T14:00:31.000Z</time>
      </trkpt>
      <trkpt lat="37.28988333" lon="-3.53713167">
        <ele>1495.0</ele>
        <time>2022-11-13T14:00:32.000Z</time>
      </trkpt>
      <trkpt lat="37.28988333" lon="-3.53713167">
        <ele>1495.0</ele>
        <time>2022-11-13T14:00:33.000Z</time>
      </trkpt>
      <trkpt lat="37.28988333" lon="-3.53713167">
        <ele>1495.0</ele>
        <time>2022-11-13T14:00:34.000Z</time>
      </trkpt>
      <trkpt lat="37.28988333" lon="-3.53713167">
        <ele>1495.0</ele>
        <time>2022-11-13T14:00:35.000Z</time>
      </trkpt>
      <trkpt lat="37.28988167" lon="-3.53713167">
        <ele>1495.0</ele>
        <time>2022-11-13T14:00:36.000Z</time>
      </trkpt>
      <trkpt lat="37.28988" lon="-3.53713167">
        <ele>1495.0</ele>
        <time>2022-11-13T14:00:37.000Z</time>
      </trkpt>
      <trkpt lat="37.28988" lon="-3.53713167">
        <ele>1495.0</ele>
        <time>2022-11-13T14:00:38.000Z</time>
      </trkpt>
      <trkpt lat="37.28988167" lon="-3.53713167">
        <ele>1495.0</ele>
        <time>2022-11-13T14:00:39.000Z</time>
      </trkpt>
      <trkpt lat="37.28988167" lon="-3.53713333">
        <ele>1495.0</ele>
        <time>2022-11-13T14:00:40.000Z</time>
      </trkpt>
      <trkpt lat="37.28988167" lon="-3.53713333">
        <ele>1495.0</ele>
        <time>2022-11-13T14:00:41.000Z</time>
      </trkpt>
      <trkpt lat="37.28988167" lon="-3.53713333">
        <ele>1495.0</ele>
        <time>2022-11-13T14:00:42.000Z</time>
      </trkpt>
      <trkpt lat="37.28988167" lon="-3.537135">
        <ele>1495.0</ele>
        <time>2022-11-13T14:00:43.000Z</time>
      </trkpt>
      <trkpt lat="37.28988167" lon="-3.537135">
        <ele>1495.0</ele>
        <time>2022-11-13T14:00:44.000Z</time>
      </trkpt>
      <trkpt lat="37.28988167" lon="-3.537135">
        <ele>1495.0</ele>
        <time>2022-11-13T14:00:45.000Z</time>
      </trkpt>
      <trkpt lat="37.28988167" lon="-3.537135">
        <ele>1495.0</ele>
        <time>2022-11-13T14:00:46.000Z</time>
      </trkpt>
      <trkpt lat="37.28988167" lon="-3.537135">
        <ele>1495.0</ele>
        <time>2022-11-13T14:00:47.000Z</time>
      </trkpt>
      <trkpt lat="37.28988167" lon="-3.537135">
        <ele>1495.0</ele>
        <time>2022-11-13T14:00:48.000Z</time>
      </trkpt>
      <trkpt lat="37.28988167" lon="-3.537135">
        <ele>1495.0</ele>
        <time>2022-11-13T14:00:49.000Z</time>
      </trkpt>
      <trkpt lat="37.28988167" lon="-3.537135">
        <ele>1495.0</ele>
        <time>2022-11-13T14:00:50.000Z</time>
      </trkpt>
      <trkpt lat="37.28988167" lon="-3.537135">
        <ele>1495.0</ele>
        <time>2022-11-13T14:00:51.000Z</time>
      </trkpt>
      <trkpt lat="37.28988167" lon="-3.537135">
        <ele>1495.0</ele>
        <time>2022-11-13T14:00:52.000Z</time>
      </trkpt>
      <trkpt lat="37.28988167" lon="-3.537135">
        <ele>1495.0</ele>
        <time>2022-11-13T14:00:53.000Z</time>
      </trkpt>
      <trkpt lat="37.28988167" lon="-3.537135">
        <ele>1495.0</ele>
        <time>2022-11-13T14:00:54.000Z</time>
      </trkpt>
      <trkpt lat="37.28988167" lon="-3.53713667">
        <ele>1495.0</ele>
        <time>2022-11-13T14:00:55.000Z</time>
      </trkpt>
      <trkpt lat="37.28988167" lon="-3.53713667">
        <ele>1495.0</ele>
        <time>2022-11-13T14:00:56.000Z</time>
      </trkpt>
      <trkpt lat="37.28988167" lon="-3.53713667">
        <ele>1495.0</ele>
        <time>2022-11-13T14:00:57.000Z</time>
      </trkpt>
      <trkpt lat="37.28988167" lon="-3.53713667">
        <ele>1495.0</ele>
        <time>2022-11-13T14:00:58.000Z</time>
      </trkpt>
      <trkpt lat="37.28988167" lon="-3.53713667">
        <ele>1495.0</ele>
        <time>2022-11-13T14:00:59.000Z</time>
      </trkpt>
      <trkpt lat="37.28988167" lon="-3.53713667">
        <ele>1495.0</ele>
        <time>2022-11-13T14:01:00.000Z</time>
      </trkpt>
      <trkpt lat="37.28988167" lon="-3.53713667">
        <ele>1495.0</ele>
        <time>2022-11-13T14:01:01.000Z</time>
      </trkpt>
      <trkpt lat="37.28988167" lon="-3.53713667">
        <ele>1495.0</ele>
        <time>2022-11-13T14:01:02.000Z</time>
      </trkpt>
      <trkpt lat="37.28988167" lon="-3.53713667">
        <ele>1495.0</ele>
        <time>2022-11-13T14:01:03.000Z</time>
      </trkpt>
      <trkpt lat="37.28988" lon="-3.53713833">
        <ele>1495.0</ele>
        <time>2022-11-13T14:01:04.000Z</time>
      </trkpt>
      <trkpt lat="37.28988" lon="-3.53713833">
        <ele>1495.0</ele>
        <time>2022-11-13T14:01:05.000Z</time>
      </trkpt>
      <trkpt lat="37.28988" lon="-3.53713833">
        <ele>1495.0</ele>
        <time>2022-11-13T14:01:06.000Z</time>
      </trkpt>
      <trkpt lat="37.28987833" lon="-3.53714">
        <ele>1495.0</ele>
        <time>2022-11-13T14:01:07.000Z</time>
      </trkpt>
      <trkpt lat="37.28987833" lon="-3.53714">
        <ele>1495.0</ele>
        <time>2022-11-13T14:01:08.000Z</time>
      </trkpt>
      <trkpt lat="37.28987833" lon="-3.53714167">
        <ele>1495.0</ele>
        <time>2022-11-13T14:01:09.000Z</time>
      </trkpt>
      <trkpt lat="37.28987833" lon="-3.53714167">
        <ele>1495.0</ele>
        <time>2022-11-13T14:01:10.000Z</time>
      </trkpt>
      <trkpt lat="37.28987667" lon="-3.53714167">
        <ele>1495.0</ele>
        <time>2022-11-13T14:01:11.000Z</time>
      </trkpt>
      <trkpt lat="37.28987667" lon="-3.53714167">
        <ele>1495.0</ele>
        <time>2022-11-13T14:01:12.000Z</time>
      </trkpt>
      <trkpt lat="37.28987667" lon="-3.53714333">
        <ele>1495.0</ele>
        <time>2022-11-13T14:01:13.000Z</time>
      </trkpt>
      <trkpt lat="37.28987667" lon="-3.53714333">
        <ele>1495.0</ele>
        <time>2022-11-13T14:01:14.000Z</time>
      </trkpt>
      <trkpt lat="37.289875" lon="-3.53714333">
        <ele>1495.0</ele>
        <time>2022-11-13T14:01:15.000Z</time>
      </trkpt>
      <trkpt lat="37.289875" lon="-3.53714333">
        <ele>1495.0</ele>
        <time>2022-11-13T14:01:16.000Z</time>
      </trkpt>
      <trkpt lat="37.28987667" lon="-3.53714333">
        <ele>1495.0</ele>
        <time>2022-11-13T14:01:17.000Z</time>
      </trkpt>
      <trkpt lat="37.28987667" lon="-3.53714">
        <ele>1495.0</ele>
        <time>2022-11-13T14:01:18.000Z</time>
      </trkpt>
      <trkpt lat="37.28987333" lon="-3.537135">
        <ele>1495.0</ele>
        <time>2022-11-13T14:01:19.000Z</time>
      </trkpt>
      <trkpt lat="37.28987" lon="-3.53713333">
        <ele>1495.0</ele>
        <time>2022-11-13T14:01:20.000Z</time>
      </trkpt>
      <trkpt lat="37.28987" lon="-3.53713167">
        <ele>1495.0</ele>
        <time>2022-11-13T14:01:21.000Z</time>
      </trkpt>
      <trkpt lat="37.28987" lon="-3.53713167">
        <ele>1495.0</ele>
        <time>2022-11-13T14:01:22.000Z</time>
      </trkpt>
      <trkpt lat="37.28987" lon="-3.53713167">
        <ele>1495.0</ele>
        <time>2022-11-13T14:01:23.000Z</time>
      </trkpt>
      <trkpt lat="37.28986833" lon="-3.53713167">
        <ele>1495.0</ele>
        <time>2022-11-13T14:01:24.000Z</time>
      </trkpt>
      <trkpt lat="37.28986833" lon="-3.53713167">
        <ele>1495.0</ele>
        <time>2022-11-13T14:01:25.000Z</time>
      </trkpt>
      <trkpt lat="37.28986833" lon="-3.53713167">
        <ele>1495.0</ele>
        <time>2022-11-13T14:01:26.000Z</time>
      </trkpt>
      <trkpt lat="37.28986667" lon="-3.53713333">
        <ele>1495.0</ele>
        <time>2022-11-13T14:01:27.000Z</time>
      </trkpt>
      <trkpt lat="37.28986667" lon="-3.53713333">
        <ele>1495.0</ele>
        <time>2022-11-13T14:01:28.000Z</time>
      </trkpt>
      <trkpt lat="37.289865" lon="-3.53713333">
        <ele>1495.0</ele>
        <time>2022-11-13T14:01:29.000Z</time>
      </trkpt>
      <trkpt lat="37.28986333" lon="-3.53713167">
        <ele>1494.0</ele>
        <time>2022-11-13T14:01:30.000Z</time>
      </trkpt>
      <trkpt lat="37.28986333" lon="-3.53712833">
        <ele>1494.0</ele>
        <time>2022-11-13T14:01:31.000Z</time>
      </trkpt>
      <trkpt lat="37.28986167" lon="-3.53712333">
        <ele>1494.0</ele>
        <time>2022-11-13T14:01:32.000Z</time>
      </trkpt>
      <trkpt lat="37.28986167" lon="-3.537125">
        <ele>1494.0</ele>
        <time>2022-11-13T14:01:33.000Z</time>
      </trkpt>
      <trkpt lat="37.28986167" lon="-3.53712667">
        <ele>1494.0</ele>
        <time>2022-11-13T14:01:34.000Z</time>
      </trkpt>
      <trkpt lat="37.28986167" lon="-3.53712667">
        <ele>1494.0</ele>
        <time>2022-11-13T14:01:35.000Z</time>
      </trkpt>
      <trkpt lat="37.28986167" lon="-3.53712667">
        <ele>1494.0</ele>
        <time>2022-11-13T14:01:36.000Z</time>
      </trkpt>
      <trkpt lat="37.28986" lon="-3.53712833">
        <ele>1494.0</ele>
        <time>2022-11-13T14:01:37.000Z</time>
      </trkpt>
      <trkpt lat="37.28986" lon="-3.537125">
        <ele>1494.0</ele>
        <time>2022-11-13T14:01:38.000Z</time>
      </trkpt>
      <trkpt lat="37.28986167" lon="-3.53712833">
        <ele>1494.0</ele>
        <time>2022-11-13T14:01:39.000Z</time>
      </trkpt>
      <trkpt lat="37.28986333" lon="-3.53713167">
        <ele>1494.0</ele>
        <time>2022-11-13T14:01:40.000Z</time>
      </trkpt>
      <trkpt lat="37.28986333" lon="-3.53713833">
        <ele>1494.0</ele>
        <time>2022-11-13T14:01:41.000Z</time>
      </trkpt>
      <trkpt lat="37.28986333" lon="-3.537145">
        <ele>1494.0</ele>
        <time>2022-11-13T14:01:42.000Z</time>
      </trkpt>
      <trkpt lat="37.28986167" lon="-3.53714833">
        <ele>1494.0</ele>
        <time>2022-11-13T14:01:43.000Z</time>
      </trkpt>
      <trkpt lat="37.28986333" lon="-3.53715">
        <ele>1494.0</ele>
        <time>2022-11-13T14:01:44.000Z</time>
      </trkpt>
      <trkpt lat="37.28986333" lon="-3.53715">
        <ele>1494.0</ele>
        <time>2022-11-13T14:01:45.000Z</time>
      </trkpt>
      <trkpt lat="37.28986333" lon="-3.53715167">
        <ele>1494.0</ele>
        <time>2022-11-13T14:01:46.000Z</time>
      </trkpt>
      <trkpt lat="37.28986333" lon="-3.53715167">
        <ele>1494.0</ele>
        <time>2022-11-13T14:01:47.000Z</time>
      </trkpt>
      <trkpt lat="37.28986333" lon="-3.53715167">
        <ele>1494.0</ele>
        <time>2022-11-13T14:01:48.000Z</time>
      </trkpt>
      <trkpt lat="37.28986333" lon="-3.53715167">
        <ele>1494.0</ele>
        <time>2022-11-13T14:01:49.000Z</time>
      </trkpt>
      <trkpt lat="37.28986333" lon="-3.53715167">
        <ele>1494.0</ele>
        <time>2022-11-13T14:01:50.000Z</time>
      </trkpt>
      <trkpt lat="37.28986333" lon="-3.53715167">
        <ele>1494.0</ele>
        <time>2022-11-13T14:01:51.000Z</time>
      </trkpt>
      <trkpt lat="37.28986333" lon="-3.53715333">
        <ele>1494.0</ele>
        <time>2022-11-13T14:01:52.000Z</time>
      </trkpt>
      <trkpt lat="37.28986333" lon="-3.53715333">
        <ele>1493.0</ele>
        <time>2022-11-13T14:01:53.000Z</time>
      </trkpt>
      <trkpt lat="37.28986333" lon="-3.53715333">
        <ele>1493.0</ele>
        <time>2022-11-13T14:01:54.000Z</time>
      </trkpt>
      <trkpt lat="37.28986333" lon="-3.53715333">
        <ele>1493.0</ele>
        <time>2022-11-13T14:01:55.000Z</time>
      </trkpt>
      <trkpt lat="37.28986333" lon="-3.53715333">
        <ele>1493.0</ele>
        <time>2022-11-13T14:01:56.000Z</time>
      </trkpt>
      <trkpt lat="37.28986333" lon="-3.53715333">
        <ele>1493.0</ele>
        <time>2022-11-13T14:01:57.000Z</time>
      </trkpt>
      <trkpt lat="37.28986333" lon="-3.53715333">
        <ele>1493.0</ele>
        <time>2022-11-13T14:01:58.000Z</time>
      </trkpt>
      <trkpt lat="37.28986333" lon="-3.53715333">
        <ele>1493.0</ele>
        <time>2022-11-13T14:01:59.000Z</time>
      </trkpt>
      <trkpt lat="37.28986333" lon="-3.53715333">
        <ele>1493.0</ele>
        <time>2022-11-13T14:02:00.000Z</time>
      </trkpt>
      <trkpt lat="37.28986333" lon="-3.53715333">
        <ele>1493.0</ele>
        <time>2022-11-13T14:02:01.000Z</time>
      </trkpt>
      <trkpt lat="37.28986667" lon="-3.537155">
        <ele>1493.0</ele>
        <time>2022-11-13T14:02:02.000Z</time>
      </trkpt>
      <trkpt lat="37.28987" lon="-3.53716">
        <ele>1493.0</ele>
        <time>2022-11-13T14:02:03.000Z</time>
      </trkpt>
      <trkpt lat="37.28986833" lon="-3.53716667">
        <ele>1493.0</ele>
        <time>2022-11-13T14:02:04.000Z</time>
      </trkpt>
      <trkpt lat="37.289865" lon="-3.53716833">
        <ele>1493.0</ele>
        <time>2022-11-13T14:02:05.000Z</time>
      </trkpt>
      <trkpt lat="37.28986167" lon="-3.53716833">
        <ele>1493.0</ele>
        <time>2022-11-13T14:02:06.000Z</time>
      </trkpt>
      <trkpt lat="37.28986167" lon="-3.53716833">
        <ele>1494.0</ele>
        <time>2022-11-13T14:02:07.000Z</time>
      </trkpt>
      <trkpt lat="37.28986167" lon="-3.53716833">
        <ele>1494.0</ele>
        <time>2022-11-13T14:02:08.000Z</time>
      </trkpt>
      <trkpt lat="37.28986167" lon="-3.53716833">
        <ele>1494.0</ele>
        <time>2022-11-13T14:02:09.000Z</time>
      </trkpt>
      <trkpt lat="37.28986167" lon="-3.53716667">
        <ele>1494.0</ele>
        <time>2022-11-13T14:02:10.000Z</time>
      </trkpt>
      <trkpt lat="37.28986167" lon="-3.53716667">
        <ele>1494.0</ele>
        <time>2022-11-13T14:02:11.000Z</time>
      </trkpt>
      <trkpt lat="37.28986167" lon="-3.53716667">
        <ele>1494.0</ele>
        <time>2022-11-13T14:02:12.000Z</time>
      </trkpt>
      <trkpt lat="37.28986" lon="-3.53716667">
        <ele>1494.0</ele>
        <time>2022-11-13T14:02:13.000Z</time>
      </trkpt>
      <trkpt lat="37.28986" lon="-3.53716667">
        <ele>1494.0</ele>
        <time>2022-11-13T14:02:14.000Z</time>
      </trkpt>
      <trkpt lat="37.28986" lon="-3.537165">
        <ele>1494.0</ele>
        <time>2022-11-13T14:02:15.000Z</time>
      </trkpt>
      <trkpt lat="37.28986" lon="-3.537165">
        <ele>1494.0</ele>
        <time>2022-11-13T14:02:16.000Z</time>
      </trkpt>
      <trkpt lat="37.28986" lon="-3.53716333">
        <ele>1494.0</ele>
        <time>2022-11-13T14:02:17.000Z</time>
      </trkpt>
      <trkpt lat="37.28986" lon="-3.53716333">
        <ele>1494.0</ele>
        <time>2022-11-13T14:02:18.000Z</time>
      </trkpt>
      <trkpt lat="37.28986" lon="-3.53716167">
        <ele>1494.0</ele>
        <time>2022-11-13T14:02:19.000Z</time>
      </trkpt>
      <trkpt lat="37.28986" lon="-3.53716">
        <ele>1494.0</ele>
        <time>2022-11-13T14:02:20.000Z</time>
      </trkpt>
      <trkpt lat="37.28986" lon="-3.53715833">
        <ele>1494.0</ele>
        <time>2022-11-13T14:02:21.000Z</time>
      </trkpt>
      <trkpt lat="37.28986" lon="-3.53715833">
        <ele>1494.0</ele>
        <time>2022-11-13T14:02:22.000Z</time>
      </trkpt>
      <trkpt lat="37.28986167" lon="-3.53715667">
        <ele>1494.0</ele>
        <time>2022-11-13T14:02:23.000Z</time>
      </trkpt>
      <trkpt lat="37.28986167" lon="-3.53715667">
        <ele>1494.0</ele>
        <time>2022-11-13T14:02:24.000Z</time>
      </trkpt>
      <trkpt lat="37.28986167" lon="-3.537155">
        <ele>1494.0</ele>
        <time>2022-11-13T14:02:25.000Z</time>
      </trkpt>
      <trkpt lat="37.28986333" lon="-3.537155">
        <ele>1494.0</ele>
        <time>2022-11-13T14:02:26.000Z</time>
      </trkpt>
      <trkpt lat="37.28986333" lon="-3.537155">
        <ele>1494.0</ele>
        <time>2022-11-13T14:02:27.000Z</time>
      </trkpt>
      <trkpt lat="37.28986333" lon="-3.53715333">
        <ele>1494.0</ele>
        <time>2022-11-13T14:02:28.000Z</time>
      </trkpt>
      <trkpt lat="37.28986333" lon="-3.53715333">
        <ele>1494.0</ele>
        <time>2022-11-13T14:02:29.000Z</time>
      </trkpt>
      <trkpt lat="37.289865" lon="-3.53715333">
        <ele>1494.0</ele>
        <time>2022-11-13T14:02:30.000Z</time>
      </trkpt>
      <trkpt lat="37.289865" lon="-3.53715167">
        <ele>1494.0</ele>
        <time>2022-11-13T14:02:31.000Z</time>
      </trkpt>
      <trkpt lat="37.289865" lon="-3.53715167">
        <ele>1494.0</ele>
        <time>2022-11-13T14:02:32.000Z</time>
      </trkpt>
      <trkpt lat="37.289865" lon="-3.53715167">
        <ele>1494.0</ele>
        <time>2022-11-13T14:02:33.000Z</time>
      </trkpt>
      <trkpt lat="37.289865" lon="-3.53715167">
        <ele>1494.0</ele>
        <time>2022-11-13T14:02:34.000Z</time>
      </trkpt>
      <trkpt lat="37.289865" lon="-3.53715">
        <ele>1494.0</ele>
        <time>2022-11-13T14:02:35.000Z</time>
      </trkpt>
      <trkpt lat="37.289865" lon="-3.53715">
        <ele>1494.0</ele>
        <time>2022-11-13T14:02:36.000Z</time>
      </trkpt>
      <trkpt lat="37.28986667" lon="-3.53715">
        <ele>1494.0</ele>
        <time>2022-11-13T14:02:37.000Z</time>
      </trkpt>
      <trkpt lat="37.289865" lon="-3.53715167">
        <ele>1494.0</ele>
        <time>2022-11-13T14:02:38.000Z</time>
      </trkpt>
      <trkpt lat="37.289865" lon="-3.53715">
        <ele>1495.0</ele>
        <time>2022-11-13T14:02:39.000Z</time>
      </trkpt>
      <trkpt lat="37.289865" lon="-3.53715">
        <ele>1495.0</ele>
        <time>2022-11-13T14:02:40.000Z</time>
      </trkpt>
      <trkpt lat="37.28986333" lon="-3.53715">
        <ele>1495.0</ele>
        <time>2022-11-13T14:02:41.000Z</time>
      </trkpt>
      <trkpt lat="37.289865" lon="-3.53715">
        <ele>1495.0</ele>
        <time>2022-11-13T14:02:42.000Z</time>
      </trkpt>
      <trkpt lat="37.289865" lon="-3.53714833">
        <ele>1495.0</ele>
        <time>2022-11-13T14:02:43.000Z</time>
      </trkpt>
      <trkpt lat="37.289865" lon="-3.53714833">
        <ele>1495.0</ele>
        <time>2022-11-13T14:02:44.000Z</time>
      </trkpt>
      <trkpt lat="37.289865" lon="-3.53714833">
        <ele>1495.0</ele>
        <time>2022-11-13T14:02:45.000Z</time>
      </trkpt>
      <trkpt lat="37.289865" lon="-3.53714833">
        <ele>1495.0</ele>
        <time>2022-11-13T14:02:46.000Z</time>
      </trkpt>
      <trkpt lat="37.289865" lon="-3.53714833">
        <ele>1495.0</ele>
        <time>2022-11-13T14:02:47.000Z</time>
      </trkpt>
      <trkpt lat="37.28986667" lon="-3.53714833">
        <ele>1495.0</ele>
        <time>2022-11-13T14:02:48.000Z</time>
      </trkpt>
      <trkpt lat="37.28986667" lon="-3.53714833">
        <ele>1495.0</ele>
        <time>2022-11-13T14:02:49.000Z</time>
      </trkpt>
      <trkpt lat="37.28986667" lon="-3.53714833">
        <ele>1495.0</ele>
        <time>2022-11-13T14:02:50.000Z</time>
      </trkpt>
      <trkpt lat="37.28986667" lon="-3.53714833">
        <ele>1495.0</ele>
        <time>2022-11-13T14:02:51.000Z</time>
      </trkpt>
      <trkpt lat="37.28986667" lon="-3.53714667">
        <ele>1495.0</ele>
        <time>2022-11-13T14:02:52.000Z</time>
      </trkpt>
      <trkpt lat="37.28986667" lon="-3.53714667">
        <ele>1495.0</ele>
        <time>2022-11-13T14:02:53.000Z</time>
      </trkpt>
      <trkpt lat="37.28986833" lon="-3.53714667">
        <ele>1495.0</ele>
        <time>2022-11-13T14:02:54.000Z</time>
      </trkpt>
      <trkpt lat="37.28986833" lon="-3.53714667">
        <ele>1495.0</ele>
        <time>2022-11-13T14:02:55.000Z</time>
      </trkpt>
      <trkpt lat="37.28987" lon="-3.53714667">
        <ele>1495.0</ele>
        <time>2022-11-13T14:02:56.000Z</time>
      </trkpt>
      <trkpt lat="37.28987167" lon="-3.53714667">
        <ele>1495.0</ele>
        <time>2022-11-13T14:02:57.000Z</time>
      </trkpt>
      <trkpt lat="37.28987167" lon="-3.53714667">
        <ele>1495.0</ele>
        <time>2022-11-13T14:02:58.000Z</time>
      </trkpt>
      <trkpt lat="37.28987167" lon="-3.537145">
        <ele>1495.0</ele>
        <time>2022-11-13T14:02:59.000Z</time>
      </trkpt>
      <trkpt lat="37.28987333" lon="-3.537145">
        <ele>1495.0</ele>
        <time>2022-11-13T14:03:00.000Z</time>
      </trkpt>
      <trkpt lat="37.28987333" lon="-3.537145">
        <ele>1495.0</ele>
        <time>2022-11-13T14:03:01.000Z</time>
      </trkpt>
      <trkpt lat="37.28987333" lon="-3.537145">
        <ele>1495.0</ele>
        <time>2022-11-13T14:03:02.000Z</time>
      </trkpt>
      <trkpt lat="37.28987667" lon="-3.53714167">
        <ele>1495.0</ele>
        <time>2022-11-13T14:03:03.000Z</time>
      </trkpt>
      <trkpt lat="37.28987667" lon="-3.53714167">
        <ele>1495.0</ele>
        <time>2022-11-13T14:03:04.000Z</time>
      </trkpt>
      <trkpt lat="37.28987833" lon="-3.53714167">
        <ele>1495.0</ele>
        <time>2022-11-13T14:03:05.000Z</time>
      </trkpt>
      <trkpt lat="37.28988" lon="-3.53714667">
        <ele>1495.0</ele>
        <time>2022-11-13T14:03:06.000Z</time>
      </trkpt>
      <trkpt lat="37.28988" lon="-3.537155">
        <ele>1496.0</ele>
        <time>2022-11-13T14:03:07.000Z</time>
      </trkpt>
      <trkpt lat="37.28988" lon="-3.53716167">
        <ele>1496.0</ele>
        <time>2022-11-13T14:03:08.000Z</time>
      </trkpt>
      <trkpt lat="37.28987833" lon="-3.53716333">
        <ele>1496.0</ele>
        <time>2022-11-13T14:03:09.000Z</time>
      </trkpt>
      <trkpt lat="37.28988" lon="-3.53716667">
        <ele>1496.0</ele>
        <time>2022-11-13T14:03:10.000Z</time>
      </trkpt>
      <trkpt lat="37.28988" lon="-3.53716833">
        <ele>1496.0</ele>
        <time>2022-11-13T14:03:11.000Z</time>
      </trkpt>
      <trkpt lat="37.28988" lon="-3.537175">
        <ele>1496.0</ele>
        <time>2022-11-13T14:03:12.000Z</time>
      </trkpt>
      <trkpt lat="37.28988167" lon="-3.53718333">
        <ele>1496.0</ele>
        <time>2022-11-13T14:03:13.000Z</time>
      </trkpt>
      <trkpt lat="37.28988333" lon="-3.53719167">
        <ele>1496.0</ele>
        <time>2022-11-13T14:03:14.000Z</time>
      </trkpt>
      <trkpt lat="37.289885" lon="-3.5372">
        <ele>1497.0</ele>
        <time>2022-11-13T14:03:15.000Z</time>
      </trkpt>
      <trkpt lat="37.289885" lon="-3.53720667">
        <ele>1497.0</ele>
        <time>2022-11-13T14:03:16.000Z</time>
      </trkpt>
      <trkpt lat="37.28988333" lon="-3.53721167">
        <ele>1497.0</ele>
        <time>2022-11-13T14:03:17.000Z</time>
      </trkpt>
      <trkpt lat="37.28988333" lon="-3.53721667">
        <ele>1497.0</ele>
        <time>2022-11-13T14:03:18.000Z</time>
      </trkpt>
      <trkpt lat="37.28988333" lon="-3.53722167">
        <ele>1497.0</ele>
        <time>2022-11-13T14:03:19.000Z</time>
      </trkpt>
      <trkpt lat="37.28988167" lon="-3.53722667">
        <ele>1497.0</ele>
        <time>2022-11-13T14:03:20.000Z</time>
      </trkpt>
      <trkpt lat="37.28987833" lon="-3.53723">
        <ele>1498.0</ele>
        <time>2022-11-13T14:03:21.000Z</time>
      </trkpt>
      <trkpt lat="37.289875" lon="-3.53723333">
        <ele>1498.0</ele>
        <time>2022-11-13T14:03:22.000Z</time>
      </trkpt>
      <trkpt lat="37.28987333" lon="-3.53724">
        <ele>1498.0</ele>
        <time>2022-11-13T14:03:23.000Z</time>
      </trkpt>
      <trkpt lat="37.28987" lon="-3.53724667">
        <ele>1498.0</ele>
        <time>2022-11-13T14:03:24.000Z</time>
      </trkpt>
      <trkpt lat="37.28986833" lon="-3.53725333">
        <ele>1498.0</ele>
        <time>2022-11-13T14:03:25.000Z</time>
      </trkpt>
      <trkpt lat="37.28986667" lon="-3.53725833">
        <ele>1498.0</ele>
        <time>2022-11-13T14:03:26.000Z</time>
      </trkpt>
      <trkpt lat="37.289865" lon="-3.53726333">
        <ele>1498.0</ele>
        <time>2022-11-13T14:03:27.000Z</time>
      </trkpt>
      <trkpt lat="37.289865" lon="-3.53727333">
        <ele>1498.0</ele>
        <time>2022-11-13T14:03:28.000Z</time>
      </trkpt>
      <trkpt lat="37.289865" lon="-3.53728">
        <ele>1498.0</ele>
        <time>2022-11-13T14:03:29.000Z</time>
      </trkpt>
      <trkpt lat="37.289865" lon="-3.53729">
        <ele>1499.0</ele>
        <time>2022-11-13T14:03:30.000Z</time>
      </trkpt>
      <trkpt lat="37.28986667" lon="-3.53729833">
        <ele>1499.0</ele>
        <time>2022-11-13T14:03:31.000Z</time>
      </trkpt>
      <trkpt lat="37.28987" lon="-3.53730333">
        <ele>1499.0</ele>
        <time>2022-11-13T14:03:32.000Z</time>
      </trkpt>
      <trkpt lat="37.289875" lon="-3.537315">
        <ele>1499.0</ele>
        <time>2022-11-13T14:03:33.000Z</time>
      </trkpt>
      <trkpt lat="37.28988" lon="-3.537325">
        <ele>1499.0</ele>
        <time>2022-11-13T14:03:34.000Z</time>
      </trkpt>
      <trkpt lat="37.28988167" lon="-3.53733333">
        <ele>1499.0</ele>
        <time>2022-11-13T14:03:35.000Z</time>
      </trkpt>
      <trkpt lat="37.28988333" lon="-3.53734167">
        <ele>1499.0</ele>
        <time>2022-11-13T14:03:36.000Z</time>
      </trkpt>
      <trkpt lat="37.28988833" lon="-3.53735167">
        <ele>1499.0</ele>
        <time>2022-11-13T14:03:37.000Z</time>
      </trkpt>
      <trkpt lat="37.28989167" lon="-3.53736">
        <ele>1500.0</ele>
        <time>2022-11-13T14:03:38.000Z</time>
      </trkpt>
      <trkpt lat="37.28989333" lon="-3.53736667">
        <ele>1500.0</ele>
        <time>2022-11-13T14:03:39.000Z</time>
      </trkpt>
      <trkpt lat="37.28989333" lon="-3.537375">
        <ele>1500.0</ele>
        <time>2022-11-13T14:03:40.000Z</time>
      </trkpt>
      <trkpt lat="37.28989333" lon="-3.53738667">
        <ele>1500.0</ele>
        <time>2022-11-13T14:03:41.000Z</time>
      </trkpt>
      <trkpt lat="37.28989167" lon="-3.53739167">
        <ele>1500.0</ele>
        <time>2022-11-13T14:03:42.000Z</time>
      </trkpt>
      <trkpt lat="37.28988833" lon="-3.537395">
        <ele>1500.0</ele>
        <time>2022-11-13T14:03:43.000Z</time>
      </trkpt>
      <trkpt lat="37.28988667" lon="-3.5374">
        <ele>1500.0</ele>
        <time>2022-11-13T14:03:44.000Z</time>
      </trkpt>
      <trkpt lat="37.289885" lon="-3.53740333">
        <ele>1500.0</ele>
        <time>2022-11-13T14:03:45.000Z</time>
      </trkpt>
      <trkpt lat="37.28988333" lon="-3.53741">
        <ele>1501.0</ele>
        <time>2022-11-13T14:03:46.000Z</time>
      </trkpt>
      <trkpt lat="37.28988667" lon="-3.53741667">
        <ele>1501.0</ele>
        <time>2022-11-13T14:03:47.000Z</time>
      </trkpt>
      <trkpt lat="37.28988667" lon="-3.53741833">
        <ele>1501.0</ele>
        <time>2022-11-13T14:03:48.000Z</time>
      </trkpt>
      <trkpt lat="37.28988667" lon="-3.53742">
        <ele>1501.0</ele>
        <time>2022-11-13T14:03:49.000Z</time>
      </trkpt>
      <trkpt lat="37.28988667" lon="-3.53741833">
        <ele>1501.0</ele>
        <time>2022-11-13T14:03:50.000Z</time>
      </trkpt>
      <trkpt lat="37.28988833" lon="-3.53741667">
        <ele>1501.0</ele>
        <time>2022-11-13T14:03:51.000Z</time>
      </trkpt>
      <trkpt lat="37.28988833" lon="-3.53742">
        <ele>1501.0</ele>
        <time>2022-11-13T14:03:52.000Z</time>
      </trkpt>
      <trkpt lat="37.28989167" lon="-3.53742833">
        <ele>1501.0</ele>
        <time>2022-11-13T14:03:53.000Z</time>
      </trkpt>
      <trkpt lat="37.289895" lon="-3.537435">
        <ele>1501.0</ele>
        <time>2022-11-13T14:03:54.000Z</time>
      </trkpt>
      <trkpt lat="37.28989667" lon="-3.53744333">
        <ele>1501.0</ele>
        <time>2022-11-13T14:03:55.000Z</time>
      </trkpt>
      <trkpt lat="37.28989833" lon="-3.53744833">
        <ele>1501.0</ele>
        <time>2022-11-13T14:03:56.000Z</time>
      </trkpt>
      <trkpt lat="37.28990333" lon="-3.537455">
        <ele>1501.0</ele>
        <time>2022-11-13T14:03:57.000Z</time>
      </trkpt>
      <trkpt lat="37.28990833" lon="-3.53746">
        <ele>1501.0</ele>
        <time>2022-11-13T14:03:58.000Z</time>
      </trkpt>
      <trkpt lat="37.28991" lon="-3.53746167">
        <ele>1501.0</ele>
        <time>2022-11-13T14:03:59.000Z</time>
      </trkpt>
      <trkpt lat="37.28991167" lon="-3.53746167">
        <ele>1501.0</ele>
        <time>2022-11-13T14:04:00.000Z</time>
      </trkpt>
      <trkpt lat="37.28991167" lon="-3.53746167">
        <ele>1501.0</ele>
        <time>2022-11-13T14:04:01.000Z</time>
      </trkpt>
      <trkpt lat="37.28991167" lon="-3.53746167">
        <ele>1501.0</ele>
        <time>2022-11-13T14:04:02.000Z</time>
      </trkpt>
      <trkpt lat="37.28991167" lon="-3.537465">
        <ele>1501.0</ele>
        <time>2022-11-13T14:04:03.000Z</time>
      </trkpt>
      <trkpt lat="37.28991333" lon="-3.53747167">
        <ele>1501.0</ele>
        <time>2022-11-13T14:04:04.000Z</time>
      </trkpt>
      <trkpt lat="37.28991333" lon="-3.53747833">
        <ele>1502.0</ele>
        <time>2022-11-13T14:04:05.000Z</time>
      </trkpt>
      <trkpt lat="37.28991333" lon="-3.53748667">
        <ele>1502.0</ele>
        <time>2022-11-13T14:04:06.000Z</time>
      </trkpt>
      <trkpt lat="37.28991333" lon="-3.53749333">
        <ele>1502.0</ele>
        <time>2022-11-13T14:04:07.000Z</time>
      </trkpt>
      <trkpt lat="37.28990833" lon="-3.53749833">
        <ele>1502.0</ele>
        <time>2022-11-13T14:04:08.000Z</time>
      </trkpt>
      <trkpt lat="37.28990333" lon="-3.53750167">
        <ele>1502.0</ele>
        <time>2022-11-13T14:04:09.000Z</time>
      </trkpt>
      <trkpt lat="37.28990167" lon="-3.53750667">
        <ele>1502.0</ele>
        <time>2022-11-13T14:04:10.000Z</time>
      </trkpt>
      <trkpt lat="37.28989833" lon="-3.53751333">
        <ele>1502.0</ele>
        <time>2022-11-13T14:04:11.000Z</time>
      </trkpt>
      <trkpt lat="37.28989333" lon="-3.53752167">
        <ele>1502.0</ele>
        <time>2022-11-13T14:04:12.000Z</time>
      </trkpt>
      <trkpt lat="37.28988833" lon="-3.53752833">
        <ele>1502.0</ele>
        <time>2022-11-13T14:04:13.000Z</time>
      </trkpt>
      <trkpt lat="37.289885" lon="-3.53753333">
        <ele>1502.0</ele>
        <time>2022-11-13T14:04:14.000Z</time>
      </trkpt>
      <trkpt lat="37.28988167" lon="-3.53754">
        <ele>1502.0</ele>
        <time>2022-11-13T14:04:15.000Z</time>
      </trkpt>
      <trkpt lat="37.28988" lon="-3.53754667">
        <ele>1503.0</ele>
        <time>2022-11-13T14:04:16.000Z</time>
      </trkpt>
      <trkpt lat="37.28988" lon="-3.53755667">
        <ele>1503.0</ele>
        <time>2022-11-13T14:04:17.000Z</time>
      </trkpt>
      <trkpt lat="37.28988" lon="-3.53756333">
        <ele>1503.0</ele>
        <time>2022-11-13T14:04:18.000Z</time>
      </trkpt>
      <trkpt lat="37.28988167" lon="-3.53756833">
        <ele>1503.0</ele>
        <time>2022-11-13T14:04:19.000Z</time>
      </trkpt>
      <trkpt lat="37.28988667" lon="-3.53757667">
        <ele>1503.0</ele>
        <time>2022-11-13T14:04:20.000Z</time>
      </trkpt>
      <trkpt lat="37.28989167" lon="-3.53758667">
        <ele>1503.0</ele>
        <time>2022-11-13T14:04:21.000Z</time>
      </trkpt>
      <trkpt lat="37.289895" lon="-3.537595">
        <ele>1503.0</ele>
        <time>2022-11-13T14:04:22.000Z</time>
      </trkpt>
      <trkpt lat="37.28989833" lon="-3.53760167">
        <ele>1504.0</ele>
        <time>2022-11-13T14:04:23.000Z</time>
      </trkpt>
      <trkpt lat="37.28989833" lon="-3.53760833">
        <ele>1504.0</ele>
        <time>2022-11-13T14:04:24.000Z</time>
      </trkpt>
      <trkpt lat="37.28989833" lon="-3.53761833">
        <ele>1504.0</ele>
        <time>2022-11-13T14:04:25.000Z</time>
      </trkpt>
      <trkpt lat="37.289895" lon="-3.53762667">
        <ele>1504.0</ele>
        <time>2022-11-13T14:04:26.000Z</time>
      </trkpt>
      <trkpt lat="37.28988833" lon="-3.53763167">
        <ele>1504.0</ele>
        <time>2022-11-13T14:04:27.000Z</time>
      </trkpt>
      <trkpt lat="37.289885" lon="-3.53763667">
        <ele>1504.0</ele>
        <time>2022-11-13T14:04:28.000Z</time>
      </trkpt>
      <trkpt lat="37.28988167" lon="-3.537645">
        <ele>1505.0</ele>
        <time>2022-11-13T14:04:29.000Z</time>
      </trkpt>
      <trkpt lat="37.28987833" lon="-3.53765333">
        <ele>1505.0</ele>
        <time>2022-11-13T14:04:30.000Z</time>
      </trkpt>
      <trkpt lat="37.28987667" lon="-3.53766">
        <ele>1505.0</ele>
        <time>2022-11-13T14:04:31.000Z</time>
      </trkpt>
      <trkpt lat="37.28987167" lon="-3.53766833">
        <ele>1505.0</ele>
        <time>2022-11-13T14:04:32.000Z</time>
      </trkpt>
      <trkpt lat="37.28986333" lon="-3.537675">
        <ele>1505.0</ele>
        <time>2022-11-13T14:04:33.000Z</time>
      </trkpt>
      <trkpt lat="37.28985667" lon="-3.53768">
        <ele>1505.0</ele>
        <time>2022-11-13T14:04:34.000Z</time>
      </trkpt>
      <trkpt lat="37.28984833" lon="-3.53768167">
        <ele>1505.0</ele>
        <time>2022-11-13T14:04:35.000Z</time>
      </trkpt>
      <trkpt lat="37.28984167" lon="-3.53768333">
        <ele>1506.0</ele>
        <time>2022-11-13T14:04:36.000Z</time>
      </trkpt>
      <trkpt lat="37.28983667" lon="-3.53768667">
        <ele>1506.0</ele>
        <time>2022-11-13T14:04:37.000Z</time>
      </trkpt>
      <trkpt lat="37.28983667" lon="-3.53768833">
        <ele>1506.0</ele>
        <time>2022-11-13T14:04:38.000Z</time>
      </trkpt>
      <trkpt lat="37.28983667" lon="-3.53769333">
        <ele>1506.0</ele>
        <time>2022-11-13T14:04:39.000Z</time>
      </trkpt>
      <trkpt lat="37.28984" lon="-3.5377">
        <ele>1506.0</ele>
        <time>2022-11-13T14:04:40.000Z</time>
      </trkpt>
      <trkpt lat="37.28984667" lon="-3.53770833">
        <ele>1506.0</ele>
        <time>2022-11-13T14:04:41.000Z</time>
      </trkpt>
      <trkpt lat="37.28985333" lon="-3.53771833">
        <ele>1506.0</ele>
        <time>2022-11-13T14:04:42.000Z</time>
      </trkpt>
      <trkpt lat="37.28986" lon="-3.53773167">
        <ele>1507.0</ele>
        <time>2022-11-13T14:04:43.000Z</time>
      </trkpt>
      <trkpt lat="37.28985833" lon="-3.53774333">
        <ele>1507.0</ele>
        <time>2022-11-13T14:04:44.000Z</time>
      </trkpt>
      <trkpt lat="37.289855" lon="-3.537755">
        <ele>1507.0</ele>
        <time>2022-11-13T14:04:45.000Z</time>
      </trkpt>
      <trkpt lat="37.28985" lon="-3.53775833">
        <ele>1507.0</ele>
        <time>2022-11-13T14:04:46.000Z</time>
      </trkpt>
      <trkpt lat="37.28984833" lon="-3.537765">
        <ele>1507.0</ele>
        <time>2022-11-13T14:04:47.000Z</time>
      </trkpt>
      <trkpt lat="37.28984667" lon="-3.537765">
        <ele>1507.0</ele>
        <time>2022-11-13T14:04:48.000Z</time>
      </trkpt>
      <trkpt lat="37.28984333" lon="-3.53776833">
        <ele>1507.0</ele>
        <time>2022-11-13T14:04:49.000Z</time>
      </trkpt>
      <trkpt lat="37.28984" lon="-3.53777333">
        <ele>1508.0</ele>
        <time>2022-11-13T14:04:50.000Z</time>
      </trkpt>
      <trkpt lat="37.28983833" lon="-3.53778167">
        <ele>1508.0</ele>
        <time>2022-11-13T14:04:51.000Z</time>
      </trkpt>
      <trkpt lat="37.28983833" lon="-3.53779">
        <ele>1508.0</ele>
        <time>2022-11-13T14:04:52.000Z</time>
      </trkpt>
      <trkpt lat="37.28983833" lon="-3.53780333">
        <ele>1508.0</ele>
        <time>2022-11-13T14:04:53.000Z</time>
      </trkpt>
      <trkpt lat="37.28984333" lon="-3.53781167">
        <ele>1508.0</ele>
        <time>2022-11-13T14:04:54.000Z</time>
      </trkpt>
      <trkpt lat="37.28984833" lon="-3.53782167">
        <ele>1508.0</ele>
        <time>2022-11-13T14:04:55.000Z</time>
      </trkpt>
      <trkpt lat="37.28985167" lon="-3.53783333">
        <ele>1508.0</ele>
        <time>2022-11-13T14:04:56.000Z</time>
      </trkpt>
      <trkpt lat="37.28985167" lon="-3.53784167">
        <ele>1509.0</ele>
        <time>2022-11-13T14:04:57.000Z</time>
      </trkpt>
      <trkpt lat="37.28985333" lon="-3.53785">
        <ele>1509.0</ele>
        <time>2022-11-13T14:04:58.000Z</time>
      </trkpt>
      <trkpt lat="37.289855" lon="-3.53785667">
        <ele>1509.0</ele>
        <time>2022-11-13T14:04:59.000Z</time>
      </trkpt>
      <trkpt lat="37.28985667" lon="-3.53786667">
        <ele>1509.0</ele>
        <time>2022-11-13T14:05:00.000Z</time>
      </trkpt>
      <trkpt lat="37.28986" lon="-3.537875">
        <ele>1509.0</ele>
        <time>2022-11-13T14:05:01.000Z</time>
      </trkpt>
      <trkpt lat="37.289865" lon="-3.53788333">
        <ele>1510.0</ele>
        <time>2022-11-13T14:05:02.000Z</time>
      </trkpt>
      <trkpt lat="37.28987" lon="-3.53789333">
        <ele>1510.0</ele>
        <time>2022-11-13T14:05:03.000Z</time>
      </trkpt>
      <trkpt lat="37.289875" lon="-3.53790333">
        <ele>1510.0</ele>
        <time>2022-11-13T14:05:04.000Z</time>
      </trkpt>
      <trkpt lat="37.28987667" lon="-3.53791167">
        <ele>1510.0</ele>
        <time>2022-11-13T14:05:05.000Z</time>
      </trkpt>
      <trkpt lat="37.28988" lon="-3.53791667">
        <ele>1511.0</ele>
        <time>2022-11-13T14:05:06.000Z</time>
      </trkpt>
      <trkpt lat="37.289885" lon="-3.53792667">
        <ele>1511.0</ele>
        <time>2022-11-13T14:05:07.000Z</time>
      </trkpt>
      <trkpt lat="37.28989" lon="-3.53793667">
        <ele>1511.0</ele>
        <time>2022-11-13T14:05:08.000Z</time>
      </trkpt>
      <trkpt lat="37.28989333" lon="-3.53794833">
        <ele>1511.0</ele>
        <time>2022-11-13T14:05:09.000Z</time>
      </trkpt>
      <trkpt lat="37.289895" lon="-3.537955">
        <ele>1511.0</ele>
        <time>2022-11-13T14:05:10.000Z</time>
      </trkpt>
      <trkpt lat="37.28989667" lon="-3.537965">
        <ele>1512.0</ele>
        <time>2022-11-13T14:05:11.000Z</time>
      </trkpt>
      <trkpt lat="37.289895" lon="-3.537975">
        <ele>1512.0</ele>
        <time>2022-11-13T14:05:12.000Z</time>
      </trkpt>
      <trkpt lat="37.289895" lon="-3.53798">
        <ele>1512.0</ele>
        <time>2022-11-13T14:05:13.000Z</time>
      </trkpt>
      <trkpt lat="37.289895" lon="-3.53798167">
        <ele>1512.0</ele>
        <time>2022-11-13T14:05:14.000Z</time>
      </trkpt>
      <trkpt lat="37.289895" lon="-3.53798667">
        <ele>1512.0</ele>
        <time>2022-11-13T14:05:15.000Z</time>
      </trkpt>
      <trkpt lat="37.289895" lon="-3.53798833">
        <ele>1512.0</ele>
        <time>2022-11-13T14:05:16.000Z</time>
      </trkpt>
      <trkpt lat="37.28989667" lon="-3.53799333">
        <ele>1512.0</ele>
        <time>2022-11-13T14:05:17.000Z</time>
      </trkpt>
      <trkpt lat="37.28989667" lon="-3.53799667">
        <ele>1513.0</ele>
        <time>2022-11-13T14:05:18.000Z</time>
      </trkpt>
      <trkpt lat="37.28989833" lon="-3.53799833">
        <ele>1513.0</ele>
        <time>2022-11-13T14:05:19.000Z</time>
      </trkpt>
      <trkpt lat="37.28989833" lon="-3.53800167">
        <ele>1513.0</ele>
        <time>2022-11-13T14:05:20.000Z</time>
      </trkpt>
      <trkpt lat="37.28989667" lon="-3.53800333">
        <ele>1513.0</ele>
        <time>2022-11-13T14:05:21.000Z</time>
      </trkpt>
      <trkpt lat="37.289895" lon="-3.538005">
        <ele>1513.0</ele>
        <time>2022-11-13T14:05:22.000Z</time>
      </trkpt>
      <trkpt lat="37.28989667" lon="-3.53800167">
        <ele>1513.0</ele>
        <time>2022-11-13T14:05:23.000Z</time>
      </trkpt>
      <trkpt lat="37.28989667" lon="-3.53799833">
        <ele>1513.0</ele>
        <time>2022-11-13T14:05:24.000Z</time>
      </trkpt>
      <trkpt lat="37.28989667" lon="-3.538">
        <ele>1513.0</ele>
        <time>2022-11-13T14:05:25.000Z</time>
      </trkpt>
      <trkpt lat="37.28989667" lon="-3.53800167">
        <ele>1513.0</ele>
        <time>2022-11-13T14:05:26.000Z</time>
      </trkpt>
      <trkpt lat="37.2899" lon="-3.538005">
        <ele>1513.0</ele>
        <time>2022-11-13T14:05:27.000Z</time>
      </trkpt>
      <trkpt lat="37.2899" lon="-3.53800667">
        <ele>1513.0</ele>
        <time>2022-11-13T14:05:28.000Z</time>
      </trkpt>
      <trkpt lat="37.2899" lon="-3.53800833">
        <ele>1513.0</ele>
        <time>2022-11-13T14:05:29.000Z</time>
      </trkpt>
      <trkpt lat="37.2899" lon="-3.53800833">
        <ele>1513.0</ele>
        <time>2022-11-13T14:05:30.000Z</time>
      </trkpt>
      <trkpt lat="37.2899" lon="-3.53800833">
        <ele>1513.0</ele>
        <time>2022-11-13T14:05:31.000Z</time>
      </trkpt>
      <trkpt lat="37.2899" lon="-3.53800833">
        <ele>1513.0</ele>
        <time>2022-11-13T14:05:32.000Z</time>
      </trkpt>
      <trkpt lat="37.28990167" lon="-3.53800833">
        <ele>1513.0</ele>
        <time>2022-11-13T14:05:33.000Z</time>
      </trkpt>
      <trkpt lat="37.28990167" lon="-3.53800833">
        <ele>1513.0</ele>
        <time>2022-11-13T14:05:34.000Z</time>
      </trkpt>
      <trkpt lat="37.28990167" lon="-3.53800833">
        <ele>1513.0</ele>
        <time>2022-11-13T14:05:35.000Z</time>
      </trkpt>
      <trkpt lat="37.2899" lon="-3.53800833">
        <ele>1513.0</ele>
        <time>2022-11-13T14:05:36.000Z</time>
      </trkpt>
      <trkpt lat="37.28990167" lon="-3.53800833">
        <ele>1513.0</ele>
        <time>2022-11-13T14:05:37.000Z</time>
      </trkpt>
      <trkpt lat="37.2899" lon="-3.53800833">
        <ele>1513.0</ele>
        <time>2022-11-13T14:05:38.000Z</time>
      </trkpt>
      <trkpt lat="37.2899" lon="-3.53800833">
        <ele>1513.0</ele>
        <time>2022-11-13T14:05:39.000Z</time>
      </trkpt>
      <trkpt lat="37.2899" lon="-3.53801">
        <ele>1513.0</ele>
        <time>2022-11-13T14:05:40.000Z</time>
      </trkpt>
      <trkpt lat="37.28989833" lon="-3.53801333">
        <ele>1513.0</ele>
        <time>2022-11-13T14:05:41.000Z</time>
      </trkpt>
      <trkpt lat="37.28989667" lon="-3.53802167">
        <ele>1513.0</ele>
        <time>2022-11-13T14:05:42.000Z</time>
      </trkpt>
      <trkpt lat="37.289895" lon="-3.53802667">
        <ele>1513.0</ele>
        <time>2022-11-13T14:05:43.000Z</time>
      </trkpt>
      <trkpt lat="37.28989" lon="-3.538035">
        <ele>1514.0</ele>
        <time>2022-11-13T14:05:44.000Z</time>
      </trkpt>
      <trkpt lat="37.289885" lon="-3.53804167">
        <ele>1514.0</ele>
        <time>2022-11-13T14:05:45.000Z</time>
      </trkpt>
      <trkpt lat="37.28988167" lon="-3.53804333">
        <ele>1514.0</ele>
        <time>2022-11-13T14:05:46.000Z</time>
      </trkpt>
      <trkpt lat="37.28987833" lon="-3.538045">
        <ele>1514.0</ele>
        <time>2022-11-13T14:05:47.000Z</time>
      </trkpt>
      <trkpt lat="37.28988" lon="-3.53805167">
        <ele>1514.0</ele>
        <time>2022-11-13T14:05:48.000Z</time>
      </trkpt>
      <trkpt lat="37.28987833" lon="-3.53805667">
        <ele>1514.0</ele>
        <time>2022-11-13T14:05:49.000Z</time>
      </trkpt>
      <trkpt lat="37.28988" lon="-3.53806167">
        <ele>1514.0</ele>
        <time>2022-11-13T14:05:50.000Z</time>
      </trkpt>
      <trkpt lat="37.28988167" lon="-3.53806667">
        <ele>1514.0</ele>
        <time>2022-11-13T14:05:51.000Z</time>
      </trkpt>
      <trkpt lat="37.28988333" lon="-3.53807">
        <ele>1515.0</ele>
        <time>2022-11-13T14:05:52.000Z</time>
      </trkpt>
      <trkpt lat="37.289885" lon="-3.538075">
        <ele>1515.0</ele>
        <time>2022-11-13T14:05:53.000Z</time>
      </trkpt>
      <trkpt lat="37.28988667" lon="-3.53808">
        <ele>1515.0</ele>
        <time>2022-11-13T14:05:54.000Z</time>
      </trkpt>
      <trkpt lat="37.28989" lon="-3.538085">
        <ele>1516.0</ele>
        <time>2022-11-13T14:05:55.000Z</time>
      </trkpt>
      <trkpt lat="37.28989333" lon="-3.53809167">
        <ele>1516.0</ele>
        <time>2022-11-13T14:05:56.000Z</time>
      </trkpt>
      <trkpt lat="37.289895" lon="-3.5381">
        <ele>1516.0</ele>
        <time>2022-11-13T14:05:57.000Z</time>
      </trkpt>
      <trkpt lat="37.28989833" lon="-3.53810833">
        <ele>1516.0</ele>
        <time>2022-11-13T14:05:58.000Z</time>
      </trkpt>
      <trkpt lat="37.28990167" lon="-3.53812">
        <ele>1516.0</ele>
        <time>2022-11-13T14:05:59.000Z</time>
      </trkpt>
      <trkpt lat="37.28990333" lon="-3.53813333">
        <ele>1516.0</ele>
        <time>2022-11-13T14:06:00.000Z</time>
      </trkpt>
      <trkpt lat="37.28990333" lon="-3.53814333">
        <ele>1516.0</ele>
        <time>2022-11-13T14:06:01.000Z</time>
      </trkpt>
      <trkpt lat="37.2899" lon="-3.53815333">
        <ele>1516.0</ele>
        <time>2022-11-13T14:06:02.000Z</time>
      </trkpt>
      <trkpt lat="37.289895" lon="-3.53816167">
        <ele>1516.0</ele>
        <time>2022-11-13T14:06:03.000Z</time>
      </trkpt>
      <trkpt lat="37.28989" lon="-3.53817">
        <ele>1516.0</ele>
        <time>2022-11-13T14:06:04.000Z</time>
      </trkpt>
      <trkpt lat="37.28988667" lon="-3.538175">
        <ele>1517.0</ele>
        <time>2022-11-13T14:06:05.000Z</time>
      </trkpt>
      <trkpt lat="37.289885" lon="-3.53818333">
        <ele>1517.0</ele>
        <time>2022-11-13T14:06:06.000Z</time>
      </trkpt>
      <trkpt lat="37.28988167" lon="-3.53819333">
        <ele>1517.0</ele>
        <time>2022-11-13T14:06:07.000Z</time>
      </trkpt>
      <trkpt lat="37.28988167" lon="-3.53820333">
        <ele>1517.0</ele>
        <time>2022-11-13T14:06:08.000Z</time>
      </trkpt>
      <trkpt lat="37.289885" lon="-3.53821167">
        <ele>1517.0</ele>
        <time>2022-11-13T14:06:09.000Z</time>
      </trkpt>
      <trkpt lat="37.28988667" lon="-3.53822">
        <ele>1517.0</ele>
        <time>2022-11-13T14:06:10.000Z</time>
      </trkpt>
      <trkpt lat="37.28988333" lon="-3.53823">
        <ele>1517.0</ele>
        <time>2022-11-13T14:06:11.000Z</time>
      </trkpt>
      <trkpt lat="37.28988333" lon="-3.53823667">
        <ele>1517.0</ele>
        <time>2022-11-13T14:06:12.000Z</time>
      </trkpt>
      <trkpt lat="37.289885" lon="-3.53824167">
        <ele>1518.0</ele>
        <time>2022-11-13T14:06:13.000Z</time>
      </trkpt>
      <trkpt lat="37.28988667" lon="-3.53824833">
        <ele>1518.0</ele>
        <time>2022-11-13T14:06:14.000Z</time>
      </trkpt>
      <trkpt lat="37.28988833" lon="-3.53825667">
        <ele>1518.0</ele>
        <time>2022-11-13T14:06:15.000Z</time>
      </trkpt>
      <trkpt lat="37.28988833" lon="-3.53826833">
        <ele>1518.0</ele>
        <time>2022-11-13T14:06:16.000Z</time>
      </trkpt>
      <trkpt lat="37.28989" lon="-3.53828">
        <ele>1518.0</ele>
        <time>2022-11-13T14:06:17.000Z</time>
      </trkpt>
      <trkpt lat="37.28989" lon="-3.53829">
        <ele>1518.0</ele>
        <time>2022-11-13T14:06:18.000Z</time>
      </trkpt>
      <trkpt lat="37.28989" lon="-3.5383">
        <ele>1519.0</ele>
        <time>2022-11-13T14:06:19.000Z</time>
      </trkpt>
      <trkpt lat="37.28989333" lon="-3.53830833">
        <ele>1519.0</ele>
        <time>2022-11-13T14:06:20.000Z</time>
      </trkpt>
      <trkpt lat="37.28989667" lon="-3.53831667">
        <ele>1519.0</ele>
        <time>2022-11-13T14:06:21.000Z</time>
      </trkpt>
      <trkpt lat="37.2899" lon="-3.53832667">
        <ele>1519.0</ele>
        <time>2022-11-13T14:06:22.000Z</time>
      </trkpt>
      <trkpt lat="37.28990333" lon="-3.53833333">
        <ele>1520.0</ele>
        <time>2022-11-13T14:06:23.000Z</time>
      </trkpt>
      <trkpt lat="37.28990667" lon="-3.53834167">
        <ele>1520.0</ele>
        <time>2022-11-13T14:06:24.000Z</time>
      </trkpt>
      <trkpt lat="37.28990833" lon="-3.53835">
        <ele>1520.0</ele>
        <time>2022-11-13T14:06:25.000Z</time>
      </trkpt>
      <trkpt lat="37.28990833" lon="-3.53835833">
        <ele>1520.0</ele>
        <time>2022-11-13T14:06:26.000Z</time>
      </trkpt>
      <trkpt lat="37.28991333" lon="-3.53836167">
        <ele>1521.0</ele>
        <time>2022-11-13T14:06:27.000Z</time>
      </trkpt>
      <trkpt lat="37.28991833" lon="-3.53836833">
        <ele>1521.0</ele>
        <time>2022-11-13T14:06:28.000Z</time>
      </trkpt>
      <trkpt lat="37.28992" lon="-3.538375">
        <ele>1521.0</ele>
        <time>2022-11-13T14:06:29.000Z</time>
      </trkpt>
      <trkpt lat="37.28992167" lon="-3.53838333">
        <ele>1522.0</ele>
        <time>2022-11-13T14:06:30.000Z</time>
      </trkpt>
      <trkpt lat="37.28992333" lon="-3.53839167">
        <ele>1522.0</ele>
        <time>2022-11-13T14:06:31.000Z</time>
      </trkpt>
      <trkpt lat="37.289925" lon="-3.5384">
        <ele>1522.0</ele>
        <time>2022-11-13T14:06:32.000Z</time>
      </trkpt>
      <trkpt lat="37.28992667" lon="-3.53840833">
        <ele>1522.0</ele>
        <time>2022-11-13T14:06:33.000Z</time>
      </trkpt>
      <trkpt lat="37.289925" lon="-3.53841667">
        <ele>1523.0</ele>
        <time>2022-11-13T14:06:34.000Z</time>
      </trkpt>
      <trkpt lat="37.28992667" lon="-3.53842333">
        <ele>1523.0</ele>
        <time>2022-11-13T14:06:35.000Z</time>
      </trkpt>
      <trkpt lat="37.28993" lon="-3.53843">
        <ele>1523.0</ele>
        <time>2022-11-13T14:06:36.000Z</time>
      </trkpt>
      <trkpt lat="37.28993167" lon="-3.53843667">
        <ele>1523.0</ele>
        <time>2022-11-13T14:06:37.000Z</time>
      </trkpt>
      <trkpt lat="37.289935" lon="-3.53844333">
        <ele>1524.0</ele>
        <time>2022-11-13T14:06:38.000Z</time>
      </trkpt>
      <trkpt lat="37.28993667" lon="-3.53845">
        <ele>1524.0</ele>
        <time>2022-11-13T14:06:39.000Z</time>
      </trkpt>
      <trkpt lat="37.28994" lon="-3.538455">
        <ele>1524.0</ele>
        <time>2022-11-13T14:06:40.000Z</time>
      </trkpt>
      <trkpt lat="37.28994167" lon="-3.53846167">
        <ele>1524.0</ele>
        <time>2022-11-13T14:06:41.000Z</time>
      </trkpt>
      <trkpt lat="37.28994333" lon="-3.53847">
        <ele>1525.0</ele>
        <time>2022-11-13T14:06:42.000Z</time>
      </trkpt>
      <trkpt lat="37.28994333" lon="-3.53847667">
        <ele>1525.0</ele>
        <time>2022-11-13T14:06:43.000Z</time>
      </trkpt>
      <trkpt lat="37.289945" lon="-3.53848667">
        <ele>1525.0</ele>
        <time>2022-11-13T14:06:44.000Z</time>
      </trkpt>
      <trkpt lat="37.289945" lon="-3.538495">
        <ele>1526.0</ele>
        <time>2022-11-13T14:06:45.000Z</time>
      </trkpt>
      <trkpt lat="37.28994667" lon="-3.53850333">
        <ele>1526.0</ele>
        <time>2022-11-13T14:06:46.000Z</time>
      </trkpt>
      <trkpt lat="37.28994833" lon="-3.53850833">
        <ele>1526.0</ele>
        <time>2022-11-13T14:06:47.000Z</time>
      </trkpt>
      <trkpt lat="37.28995167" lon="-3.53851333">
        <ele>1526.0</ele>
        <time>2022-11-13T14:06:48.000Z</time>
      </trkpt>
      <trkpt lat="37.289955" lon="-3.53851833">
        <ele>1526.0</ele>
        <time>2022-11-13T14:06:49.000Z</time>
      </trkpt>
      <trkpt lat="37.28995667" lon="-3.53852333">
        <ele>1527.0</ele>
        <time>2022-11-13T14:06:50.000Z</time>
      </trkpt>
      <trkpt lat="37.289955" lon="-3.53852833">
        <ele>1527.0</ele>
        <time>2022-11-13T14:06:51.000Z</time>
      </trkpt>
      <trkpt lat="37.289955" lon="-3.53853167">
        <ele>1527.0</ele>
        <time>2022-11-13T14:06:52.000Z</time>
      </trkpt>
      <trkpt lat="37.28995667" lon="-3.53853167">
        <ele>1527.0</ele>
        <time>2022-11-13T14:06:53.000Z</time>
      </trkpt>
      <trkpt lat="37.289955" lon="-3.53853">
        <ele>1527.0</ele>
        <time>2022-11-13T14:06:54.000Z</time>
      </trkpt>
      <trkpt lat="37.28995167" lon="-3.53852667">
        <ele>1527.0</ele>
        <time>2022-11-13T14:06:55.000Z</time>
      </trkpt>
      <trkpt lat="37.28995" lon="-3.538525">
        <ele>1528.0</ele>
        <time>2022-11-13T14:06:56.000Z</time>
      </trkpt>
      <trkpt lat="37.28995" lon="-3.538525">
        <ele>1528.0</ele>
        <time>2022-11-13T14:06:57.000Z</time>
      </trkpt>
      <trkpt lat="37.28995" lon="-3.538525">
        <ele>1528.0</ele>
        <time>2022-11-13T14:06:58.000Z</time>
      </trkpt>
      <trkpt lat="37.28995167" lon="-3.53852667">
        <ele>1528.0</ele>
        <time>2022-11-13T14:06:59.000Z</time>
      </trkpt>
      <trkpt lat="37.28995167" lon="-3.53852667">
        <ele>1528.0</ele>
        <time>2022-11-13T14:07:00.000Z</time>
      </trkpt>
      <trkpt lat="37.28995167" lon="-3.53852833">
        <ele>1528.0</ele>
        <time>2022-11-13T14:07:01.000Z</time>
      </trkpt>
      <trkpt lat="37.28995333" lon="-3.53852833">
        <ele>1528.0</ele>
        <time>2022-11-13T14:07:02.000Z</time>
      </trkpt>
      <trkpt lat="37.28995167" lon="-3.53852667">
        <ele>1528.0</ele>
        <time>2022-11-13T14:07:03.000Z</time>
      </trkpt>
      <trkpt lat="37.28995167" lon="-3.53852833">
        <ele>1528.0</ele>
        <time>2022-11-13T14:07:04.000Z</time>
      </trkpt>
      <trkpt lat="37.28995333" lon="-3.53852833">
        <ele>1528.0</ele>
        <time>2022-11-13T14:07:05.000Z</time>
      </trkpt>
      <trkpt lat="37.28995333" lon="-3.53852833">
        <ele>1528.0</ele>
        <time>2022-11-13T14:07:06.000Z</time>
      </trkpt>
      <trkpt lat="37.28995" lon="-3.53852667">
        <ele>1528.0</ele>
        <time>2022-11-13T14:07:07.000Z</time>
      </trkpt>
      <trkpt lat="37.289945" lon="-3.53852333">
        <ele>1528.0</ele>
        <time>2022-11-13T14:07:08.000Z</time>
      </trkpt>
      <trkpt lat="37.28993833" lon="-3.53852">
        <ele>1528.0</ele>
        <time>2022-11-13T14:07:09.000Z</time>
      </trkpt>
      <trkpt lat="37.28993167" lon="-3.53851667">
        <ele>1528.0</ele>
        <time>2022-11-13T14:07:10.000Z</time>
      </trkpt>
      <trkpt lat="37.28992333" lon="-3.53851">
        <ele>1528.0</ele>
        <time>2022-11-13T14:07:11.000Z</time>
      </trkpt>
      <trkpt lat="37.28991667" lon="-3.53850833">
        <ele>1528.0</ele>
        <time>2022-11-13T14:07:12.000Z</time>
      </trkpt>
      <trkpt lat="37.28990833" lon="-3.53850667">
        <ele>1528.0</ele>
        <time>2022-11-13T14:07:13.000Z</time>
      </trkpt>
      <trkpt lat="37.28990167" lon="-3.538505">
        <ele>1528.0</ele>
        <time>2022-11-13T14:07:14.000Z</time>
      </trkpt>
      <trkpt lat="37.289895" lon="-3.53850333">
        <ele>1528.0</ele>
        <time>2022-11-13T14:07:15.000Z</time>
      </trkpt>
      <trkpt lat="37.28989" lon="-3.53850333">
        <ele>1528.0</ele>
        <time>2022-11-13T14:07:16.000Z</time>
      </trkpt>
      <trkpt lat="37.289885" lon="-3.53850667">
        <ele>1528.0</ele>
        <time>2022-11-13T14:07:17.000Z</time>
      </trkpt>
      <trkpt lat="37.28988167" lon="-3.53851167">
        <ele>1528.0</ele>
        <time>2022-11-13T14:07:18.000Z</time>
      </trkpt>
      <trkpt lat="37.28988167" lon="-3.53851667">
        <ele>1528.0</ele>
        <time>2022-11-13T14:07:19.000Z</time>
      </trkpt>
      <trkpt lat="37.28988" lon="-3.53852333">
        <ele>1529.0</ele>
        <time>2022-11-13T14:07:20.000Z</time>
      </trkpt>
      <trkpt lat="37.28987667" lon="-3.53853">
        <ele>1529.0</ele>
        <time>2022-11-13T14:07:21.000Z</time>
      </trkpt>
      <trkpt lat="37.28987667" lon="-3.53853667">
        <ele>1529.0</ele>
        <time>2022-11-13T14:07:22.000Z</time>
      </trkpt>
      <trkpt lat="37.28987333" lon="-3.53854333">
        <ele>1529.0</ele>
        <time>2022-11-13T14:07:23.000Z</time>
      </trkpt>
      <trkpt lat="37.28987167" lon="-3.53854667">
        <ele>1529.0</ele>
        <time>2022-11-13T14:07:24.000Z</time>
      </trkpt>
      <trkpt lat="37.28987" lon="-3.53855">
        <ele>1529.0</ele>
        <time>2022-11-13T14:07:25.000Z</time>
      </trkpt>
      <trkpt lat="37.28986667" lon="-3.53855167">
        <ele>1530.0</ele>
        <time>2022-11-13T14:07:26.000Z</time>
      </trkpt>
      <trkpt lat="37.28986333" lon="-3.53855333">
        <ele>1530.0</ele>
        <time>2022-11-13T14:07:27.000Z</time>
      </trkpt>
      <trkpt lat="37.28986" lon="-3.53855667">
        <ele>1530.0</ele>
        <time>2022-11-13T14:07:28.000Z</time>
      </trkpt>
      <trkpt lat="37.289855" lon="-3.53855667">
        <ele>1530.0</ele>
        <time>2022-11-13T14:07:29.000Z</time>
      </trkpt>
      <trkpt lat="37.28985" lon="-3.53855667">
        <ele>1530.0</ele>
        <time>2022-11-13T14:07:30.000Z</time>
      </trkpt>
      <trkpt lat="37.28984667" lon="-3.53855833">
        <ele>1530.0</ele>
        <time>2022-11-13T14:07:31.000Z</time>
      </trkpt>
      <trkpt lat="37.28984167" lon="-3.53856167">
        <ele>1530.0</ele>
        <time>2022-11-13T14:07:32.000Z</time>
      </trkpt>
      <trkpt lat="37.28983833" lon="-3.53856833">
        <ele>1530.0</ele>
        <time>2022-11-13T14:07:33.000Z</time>
      </trkpt>
      <trkpt lat="37.289835" lon="-3.53857167">
        <ele>1530.0</ele>
        <time>2022-11-13T14:07:34.000Z</time>
      </trkpt>
      <trkpt lat="37.28983167" lon="-3.53857833">
        <ele>1530.0</ele>
        <time>2022-11-13T14:07:35.000Z</time>
      </trkpt>
      <trkpt lat="37.28983" lon="-3.53858667">
        <ele>1530.0</ele>
        <time>2022-11-13T14:07:36.000Z</time>
      </trkpt>
      <trkpt lat="37.28982833" lon="-3.53859667">
        <ele>1530.0</ele>
        <time>2022-11-13T14:07:37.000Z</time>
      </trkpt>
      <trkpt lat="37.28982667" lon="-3.53860667">
        <ele>1530.0</ele>
        <time>2022-11-13T14:07:38.000Z</time>
      </trkpt>
      <trkpt lat="37.289825" lon="-3.53861667">
        <ele>1530.0</ele>
        <time>2022-11-13T14:07:39.000Z</time>
      </trkpt>
      <trkpt lat="37.28982333" lon="-3.53862833">
        <ele>1530.0</ele>
        <time>2022-11-13T14:07:40.000Z</time>
      </trkpt>
      <trkpt lat="37.28982167" lon="-3.53863667">
        <ele>1530.0</ele>
        <time>2022-11-13T14:07:41.000Z</time>
      </trkpt>
      <trkpt lat="37.28981667" lon="-3.53864667">
        <ele>1530.0</ele>
        <time>2022-11-13T14:07:42.000Z</time>
      </trkpt>
      <trkpt lat="37.289815" lon="-3.53865667">
        <ele>1531.0</ele>
        <time>2022-11-13T14:07:43.000Z</time>
      </trkpt>
      <trkpt lat="37.28981167" lon="-3.53866667">
        <ele>1531.0</ele>
        <time>2022-11-13T14:07:44.000Z</time>
      </trkpt>
      <trkpt lat="37.28981" lon="-3.53867667">
        <ele>1531.0</ele>
        <time>2022-11-13T14:07:45.000Z</time>
      </trkpt>
      <trkpt lat="37.28981" lon="-3.53868833">
        <ele>1531.0</ele>
        <time>2022-11-13T14:07:46.000Z</time>
      </trkpt>
      <trkpt lat="37.28981333" lon="-3.53870167">
        <ele>1531.0</ele>
        <time>2022-11-13T14:07:47.000Z</time>
      </trkpt>
      <trkpt lat="37.28981667" lon="-3.53871333">
        <ele>1531.0</ele>
        <time>2022-11-13T14:07:48.000Z</time>
      </trkpt>
      <trkpt lat="37.28981833" lon="-3.53872333">
        <ele>1531.0</ele>
        <time>2022-11-13T14:07:49.000Z</time>
      </trkpt>
      <trkpt lat="37.28982" lon="-3.53873333">
        <ele>1532.0</ele>
        <time>2022-11-13T14:07:50.000Z</time>
      </trkpt>
      <trkpt lat="37.28982" lon="-3.53874333">
        <ele>1532.0</ele>
        <time>2022-11-13T14:07:51.000Z</time>
      </trkpt>
      <trkpt lat="37.28982" lon="-3.538755">
        <ele>1532.0</ele>
        <time>2022-11-13T14:07:52.000Z</time>
      </trkpt>
      <trkpt lat="37.28982167" lon="-3.538765">
        <ele>1532.0</ele>
        <time>2022-11-13T14:07:53.000Z</time>
      </trkpt>
      <trkpt lat="37.28982167" lon="-3.53877667">
        <ele>1533.0</ele>
        <time>2022-11-13T14:07:54.000Z</time>
      </trkpt>
      <trkpt lat="37.28982167" lon="-3.53878833">
        <ele>1533.0</ele>
        <time>2022-11-13T14:07:55.000Z</time>
      </trkpt>
      <trkpt lat="37.28982167" lon="-3.5388">
        <ele>1533.0</ele>
        <time>2022-11-13T14:07:56.000Z</time>
      </trkpt>
      <trkpt lat="37.28982167" lon="-3.53881167">
        <ele>1533.0</ele>
        <time>2022-11-13T14:07:57.000Z</time>
      </trkpt>
      <trkpt lat="37.28981667" lon="-3.53882167">
        <ele>1534.0</ele>
        <time>2022-11-13T14:07:58.000Z</time>
      </trkpt>
      <trkpt lat="37.28981333" lon="-3.53882833">
        <ele>1534.0</ele>
        <time>2022-11-13T14:07:59.000Z</time>
      </trkpt>
      <trkpt lat="37.28981167" lon="-3.53883167">
        <ele>1534.0</ele>
        <time>2022-11-13T14:08:00.000Z</time>
      </trkpt>
      <trkpt lat="37.28981333" lon="-3.53883833">
        <ele>1535.0</ele>
        <time>2022-11-13T14:08:01.000Z</time>
      </trkpt>
      <trkpt lat="37.28981833" lon="-3.53884667">
        <ele>1535.0</ele>
        <time>2022-11-13T14:08:02.000Z</time>
      </trkpt>
      <trkpt lat="37.28982" lon="-3.53885667">
        <ele>1535.0</ele>
        <time>2022-11-13T14:08:03.000Z</time>
      </trkpt>
      <trkpt lat="37.28982167" lon="-3.53886833">
        <ele>1535.0</ele>
        <time>2022-11-13T14:08:04.000Z</time>
      </trkpt>
      <trkpt lat="37.28982167" lon="-3.53888">
        <ele>1536.0</ele>
        <time>2022-11-13T14:08:05.000Z</time>
      </trkpt>
      <trkpt lat="37.28982333" lon="-3.53889167">
        <ele>1536.0</ele>
        <time>2022-11-13T14:08:06.000Z</time>
      </trkpt>
      <trkpt lat="37.289825" lon="-3.5389">
        <ele>1536.0</ele>
        <time>2022-11-13T14:08:07.000Z</time>
      </trkpt>
      <trkpt lat="37.28982333" lon="-3.53891167">
        <ele>1537.0</ele>
        <time>2022-11-13T14:08:08.000Z</time>
      </trkpt>
      <trkpt lat="37.28982333" lon="-3.53892333">
        <ele>1537.0</ele>
        <time>2022-11-13T14:08:09.000Z</time>
      </trkpt>
      <trkpt lat="37.28982167" lon="-3.53893333">
        <ele>1537.0</ele>
        <time>2022-11-13T14:08:10.000Z</time>
      </trkpt>
      <trkpt lat="37.28982167" lon="-3.53894667">
        <ele>1537.0</ele>
        <time>2022-11-13T14:08:11.000Z</time>
      </trkpt>
      <trkpt lat="37.28982" lon="-3.53896">
        <ele>1537.0</ele>
        <time>2022-11-13T14:08:12.000Z</time>
      </trkpt>
      <trkpt lat="37.289815" lon="-3.53897">
        <ele>1537.0</ele>
        <time>2022-11-13T14:08:13.000Z</time>
      </trkpt>
      <trkpt lat="37.28981333" lon="-3.53897833">
        <ele>1537.0</ele>
        <time>2022-11-13T14:08:14.000Z</time>
      </trkpt>
      <trkpt lat="37.289815" lon="-3.53899">
        <ele>1538.0</ele>
        <time>2022-11-13T14:08:15.000Z</time>
      </trkpt>
      <trkpt lat="37.28981833" lon="-3.53900333">
        <ele>1538.0</ele>
        <time>2022-11-13T14:08:16.000Z</time>
      </trkpt>
      <trkpt lat="37.28982" lon="-3.53901833">
        <ele>1538.0</ele>
        <time>2022-11-13T14:08:17.000Z</time>
      </trkpt>
      <trkpt lat="37.28982" lon="-3.53903167">
        <ele>1538.0</ele>
        <time>2022-11-13T14:08:18.000Z</time>
      </trkpt>
      <trkpt lat="37.28982167" lon="-3.53904333">
        <ele>1538.0</ele>
        <time>2022-11-13T14:08:19.000Z</time>
      </trkpt>
      <trkpt lat="37.28982333" lon="-3.539055">
        <ele>1538.0</ele>
        <time>2022-11-13T14:08:20.000Z</time>
      </trkpt>
      <trkpt lat="37.28982333" lon="-3.539065">
        <ele>1539.0</ele>
        <time>2022-11-13T14:08:21.000Z</time>
      </trkpt>
      <trkpt lat="37.28982333" lon="-3.53907333">
        <ele>1539.0</ele>
        <time>2022-11-13T14:08:22.000Z</time>
      </trkpt>
      <trkpt lat="37.28982333" lon="-3.539085">
        <ele>1539.0</ele>
        <time>2022-11-13T14:08:23.000Z</time>
      </trkpt>
      <trkpt lat="37.289825" lon="-3.539095">
        <ele>1539.0</ele>
        <time>2022-11-13T14:08:24.000Z</time>
      </trkpt>
      <trkpt lat="37.289825" lon="-3.539105">
        <ele>1539.0</ele>
        <time>2022-11-13T14:08:25.000Z</time>
      </trkpt>
      <trkpt lat="37.289825" lon="-3.53911167">
        <ele>1540.0</ele>
        <time>2022-11-13T14:08:26.000Z</time>
      </trkpt>
      <trkpt lat="37.289825" lon="-3.53912167">
        <ele>1540.0</ele>
        <time>2022-11-13T14:08:27.000Z</time>
      </trkpt>
      <trkpt lat="37.28982667" lon="-3.53913167">
        <ele>1540.0</ele>
        <time>2022-11-13T14:08:28.000Z</time>
      </trkpt>
      <trkpt lat="37.28982667" lon="-3.53913833">
        <ele>1540.0</ele>
        <time>2022-11-13T14:08:29.000Z</time>
      </trkpt>
      <trkpt lat="37.28982667" lon="-3.539145">
        <ele>1541.0</ele>
        <time>2022-11-13T14:08:30.000Z</time>
      </trkpt>
      <trkpt lat="37.28982667" lon="-3.53915167">
        <ele>1541.0</ele>
        <time>2022-11-13T14:08:31.000Z</time>
      </trkpt>
      <trkpt lat="37.28982833" lon="-3.53915833">
        <ele>1541.0</ele>
        <time>2022-11-13T14:08:32.000Z</time>
      </trkpt>
      <trkpt lat="37.28982833" lon="-3.53916667">
        <ele>1541.0</ele>
        <time>2022-11-13T14:08:33.000Z</time>
      </trkpt>
      <trkpt lat="37.28982667" lon="-3.53917333">
        <ele>1541.0</ele>
        <time>2022-11-13T14:08:34.000Z</time>
      </trkpt>
      <trkpt lat="37.289825" lon="-3.53917833">
        <ele>1542.0</ele>
        <time>2022-11-13T14:08:35.000Z</time>
      </trkpt>
      <trkpt lat="37.289825" lon="-3.53918167">
        <ele>1542.0</ele>
        <time>2022-11-13T14:08:36.000Z</time>
      </trkpt>
      <trkpt lat="37.28982667" lon="-3.53918667">
        <ele>1542.0</ele>
        <time>2022-11-13T14:08:37.000Z</time>
      </trkpt>
      <trkpt lat="37.28982667" lon="-3.53919333">
        <ele>1542.0</ele>
        <time>2022-11-13T14:08:38.000Z</time>
      </trkpt>
      <trkpt lat="37.28982833" lon="-3.5392">
        <ele>1543.0</ele>
        <time>2022-11-13T14:08:39.000Z</time>
      </trkpt>
      <trkpt lat="37.28983167" lon="-3.539205">
        <ele>1543.0</ele>
        <time>2022-11-13T14:08:40.000Z</time>
      </trkpt>
      <trkpt lat="37.289835" lon="-3.53921167">
        <ele>1543.0</ele>
        <time>2022-11-13T14:08:41.000Z</time>
      </trkpt>
      <trkpt lat="37.28983833" lon="-3.53921667">
        <ele>1544.0</ele>
        <time>2022-11-13T14:08:42.000Z</time>
      </trkpt>
      <trkpt lat="37.28984333" lon="-3.53922333">
        <ele>1544.0</ele>
        <time>2022-11-13T14:08:43.000Z</time>
      </trkpt>
      <trkpt lat="37.28984667" lon="-3.53922667">
        <ele>1544.0</ele>
        <time>2022-11-13T14:08:44.000Z</time>
      </trkpt>
      <trkpt lat="37.28985333" lon="-3.53923167">
        <ele>1545.0</ele>
        <time>2022-11-13T14:08:45.000Z</time>
      </trkpt>
      <trkpt lat="37.28986" lon="-3.53923333">
        <ele>1545.0</ele>
        <time>2022-11-13T14:08:46.000Z</time>
      </trkpt>
      <trkpt lat="37.28986333" lon="-3.539235">
        <ele>1545.0</ele>
        <time>2022-11-13T14:08:47.000Z</time>
      </trkpt>
      <trkpt lat="37.28987" lon="-3.53923667">
        <ele>1546.0</ele>
        <time>2022-11-13T14:08:48.000Z</time>
      </trkpt>
      <trkpt lat="37.28988" lon="-3.53924167">
        <ele>1546.0</ele>
        <time>2022-11-13T14:08:49.000Z</time>
      </trkpt>
      <trkpt lat="37.28989" lon="-3.539245">
        <ele>1547.0</ele>
        <time>2022-11-13T14:08:50.000Z</time>
      </trkpt>
      <trkpt lat="37.28990167" lon="-3.53925333">
        <ele>1547.0</ele>
        <time>2022-11-13T14:08:51.000Z</time>
      </trkpt>
      <trkpt lat="37.28991167" lon="-3.53925833">
        <ele>1548.0</ele>
        <time>2022-11-13T14:08:52.000Z</time>
      </trkpt>
      <trkpt lat="37.28992" lon="-3.539265">
        <ele>1548.0</ele>
        <time>2022-11-13T14:08:53.000Z</time>
      </trkpt>
      <trkpt lat="37.28992833" lon="-3.53927">
        <ele>1549.0</ele>
        <time>2022-11-13T14:08:54.000Z</time>
      </trkpt>
      <trkpt lat="37.289935" lon="-3.53927167">
        <ele>1549.0</ele>
        <time>2022-11-13T14:08:55.000Z</time>
      </trkpt>
      <trkpt lat="37.28994333" lon="-3.53927667">
        <ele>1550.0</ele>
        <time>2022-11-13T14:08:56.000Z</time>
      </trkpt>
      <trkpt lat="37.28995167" lon="-3.53928333">
        <ele>1550.0</ele>
        <time>2022-11-13T14:08:57.000Z</time>
      </trkpt>
      <trkpt lat="37.28996" lon="-3.53929">
        <ele>1550.0</ele>
        <time>2022-11-13T14:08:58.000Z</time>
      </trkpt>
      <trkpt lat="37.28996833" lon="-3.53929333">
        <ele>1551.0</ele>
        <time>2022-11-13T14:08:59.000Z</time>
      </trkpt>
      <trkpt lat="37.289975" lon="-3.539295">
        <ele>1551.0</ele>
        <time>2022-11-13T14:09:00.000Z</time>
      </trkpt>
      <trkpt lat="37.28998167" lon="-3.53929667">
        <ele>1552.0</ele>
        <time>2022-11-13T14:09:01.000Z</time>
      </trkpt>
      <trkpt lat="37.289985" lon="-3.53929667">
        <ele>1552.0</ele>
        <time>2022-11-13T14:09:02.000Z</time>
      </trkpt>
      <trkpt lat="37.28998333" lon="-3.53929667">
        <ele>1552.0</ele>
        <time>2022-11-13T14:09:03.000Z</time>
      </trkpt>
      <trkpt lat="37.28998167" lon="-3.539295">
        <ele>1553.0</ele>
        <time>2022-11-13T14:09:04.000Z</time>
      </trkpt>
      <trkpt lat="37.28998333" lon="-3.539295">
        <ele>1553.0</ele>
        <time>2022-11-13T14:09:05.000Z</time>
      </trkpt>
      <trkpt lat="37.289985" lon="-3.53929333">
        <ele>1553.0</ele>
        <time>2022-11-13T14:09:06.000Z</time>
      </trkpt>
      <trkpt lat="37.28998667" lon="-3.53929333">
        <ele>1553.0</ele>
        <time>2022-11-13T14:09:07.000Z</time>
      </trkpt>
      <trkpt lat="37.28998833" lon="-3.53929333">
        <ele>1554.0</ele>
        <time>2022-11-13T14:09:08.000Z</time>
      </trkpt>
      <trkpt lat="37.28999" lon="-3.53929167">
        <ele>1554.0</ele>
        <time>2022-11-13T14:09:09.000Z</time>
      </trkpt>
      <trkpt lat="37.289995" lon="-3.53928667">
        <ele>1554.0</ele>
        <time>2022-11-13T14:09:10.000Z</time>
      </trkpt>
      <trkpt lat="37.28999667" lon="-3.53928667">
        <ele>1554.0</ele>
        <time>2022-11-13T14:09:11.000Z</time>
      </trkpt>
      <trkpt lat="37.28999833" lon="-3.53929167">
        <ele>1554.0</ele>
        <time>2022-11-13T14:09:12.000Z</time>
      </trkpt>
      <trkpt lat="37.28999667" lon="-3.53929833">
        <ele>1554.0</ele>
        <time>2022-11-13T14:09:13.000Z</time>
      </trkpt>
      <trkpt lat="37.28999333" lon="-3.53930333">
        <ele>1555.0</ele>
        <time>2022-11-13T14:09:14.000Z</time>
      </trkpt>
      <trkpt lat="37.28998833" lon="-3.53931">
        <ele>1555.0</ele>
        <time>2022-11-13T14:09:15.000Z</time>
      </trkpt>
      <trkpt lat="37.28998167" lon="-3.53931667">
        <ele>1555.0</ele>
        <time>2022-11-13T14:09:16.000Z</time>
      </trkpt>
      <trkpt lat="37.28996833" lon="-3.539325">
        <ele>1554.0</ele>
        <time>2022-11-13T14:09:17.000Z</time>
      </trkpt>
      <trkpt lat="37.28995667" lon="-3.53933333">
        <ele>1554.0</ele>
        <time>2022-11-13T14:09:18.000Z</time>
      </trkpt>
      <trkpt lat="37.28994667" lon="-3.53933667">
        <ele>1554.0</ele>
        <time>2022-11-13T14:09:19.000Z</time>
      </trkpt>
      <trkpt lat="37.289935" lon="-3.53934">
        <ele>1554.0</ele>
        <time>2022-11-13T14:09:20.000Z</time>
      </trkpt>
      <trkpt lat="37.28992333" lon="-3.53933833">
        <ele>1554.0</ele>
        <time>2022-11-13T14:09:21.000Z</time>
      </trkpt>
      <trkpt lat="37.289915" lon="-3.53934">
        <ele>1554.0</ele>
        <time>2022-11-13T14:09:22.000Z</time>
      </trkpt>
      <trkpt lat="37.28990667" lon="-3.53934333">
        <ele>1554.0</ele>
        <time>2022-11-13T14:09:23.000Z</time>
      </trkpt>
      <trkpt lat="37.28989833" lon="-3.539345">
        <ele>1553.0</ele>
        <time>2022-11-13T14:09:24.000Z</time>
      </trkpt>
      <trkpt lat="37.28989167" lon="-3.539345">
        <ele>1553.0</ele>
        <time>2022-11-13T14:09:25.000Z</time>
      </trkpt>
      <trkpt lat="37.28988667" lon="-3.53934833">
        <ele>1553.0</ele>
        <time>2022-11-13T14:09:26.000Z</time>
      </trkpt>
      <trkpt lat="37.28988333" lon="-3.53935167">
        <ele>1553.0</ele>
        <time>2022-11-13T14:09:27.000Z</time>
      </trkpt>
      <trkpt lat="37.28988" lon="-3.539355">
        <ele>1553.0</ele>
        <time>2022-11-13T14:09:28.000Z</time>
      </trkpt>
      <trkpt lat="37.28987667" lon="-3.53936167">
        <ele>1553.0</ele>
        <time>2022-11-13T14:09:29.000Z</time>
      </trkpt>
      <trkpt lat="37.289875" lon="-3.53937333">
        <ele>1553.0</ele>
        <time>2022-11-13T14:09:30.000Z</time>
      </trkpt>
      <trkpt lat="37.28987167" lon="-3.539375">
        <ele>1553.0</ele>
        <time>2022-11-13T14:09:31.000Z</time>
      </trkpt>
      <trkpt lat="37.28986833" lon="-3.53937667">
        <ele>1553.0</ele>
        <time>2022-11-13T14:09:32.000Z</time>
      </trkpt>
      <trkpt lat="37.289865" lon="-3.53937833">
        <ele>1553.0</ele>
        <time>2022-11-13T14:09:33.000Z</time>
      </trkpt>
      <trkpt lat="37.28986333" lon="-3.53938167">
        <ele>1553.0</ele>
        <time>2022-11-13T14:09:34.000Z</time>
      </trkpt>
      <trkpt lat="37.28986" lon="-3.53938667">
        <ele>1553.0</ele>
        <time>2022-11-13T14:09:35.000Z</time>
      </trkpt>
      <trkpt lat="37.28985667" lon="-3.53939333">
        <ele>1553.0</ele>
        <time>2022-11-13T14:09:36.000Z</time>
      </trkpt>
      <trkpt lat="37.28985" lon="-3.53939667">
        <ele>1553.0</ele>
        <time>2022-11-13T14:09:37.000Z</time>
      </trkpt>
      <trkpt lat="37.289845" lon="-3.53939833">
        <ele>1553.0</ele>
        <time>2022-11-13T14:09:38.000Z</time>
      </trkpt>
      <trkpt lat="37.28983833" lon="-3.53939833">
        <ele>1553.0</ele>
        <time>2022-11-13T14:09:39.000Z</time>
      </trkpt>
      <trkpt lat="37.28983" lon="-3.53939667">
        <ele>1553.0</ele>
        <time>2022-11-13T14:09:40.000Z</time>
      </trkpt>
      <trkpt lat="37.28982333" lon="-3.53939833">
        <ele>1553.0</ele>
        <time>2022-11-13T14:09:41.000Z</time>
      </trkpt>
      <trkpt lat="37.28981833" lon="-3.5394">
        <ele>1553.0</ele>
        <time>2022-11-13T14:09:42.000Z</time>
      </trkpt>
      <trkpt lat="37.28981333" lon="-3.539405">
        <ele>1553.0</ele>
        <time>2022-11-13T14:09:43.000Z</time>
      </trkpt>
      <trkpt lat="37.28980833" lon="-3.53940833">
        <ele>1553.0</ele>
        <time>2022-11-13T14:09:44.000Z</time>
      </trkpt>
      <trkpt lat="37.28980333" lon="-3.53941">
        <ele>1553.0</ele>
        <time>2022-11-13T14:09:45.000Z</time>
      </trkpt>
      <trkpt lat="37.28979833" lon="-3.53941">
        <ele>1553.0</ele>
        <time>2022-11-13T14:09:46.000Z</time>
      </trkpt>
      <trkpt lat="37.28979333" lon="-3.53941167">
        <ele>1553.0</ele>
        <time>2022-11-13T14:09:47.000Z</time>
      </trkpt>
      <trkpt lat="37.28978667" lon="-3.539415">
        <ele>1553.0</ele>
        <time>2022-11-13T14:09:48.000Z</time>
      </trkpt>
      <trkpt lat="37.28978167" lon="-3.53941667">
        <ele>1553.0</ele>
        <time>2022-11-13T14:09:49.000Z</time>
      </trkpt>
      <trkpt lat="37.28977667" lon="-3.53941667">
        <ele>1553.0</ele>
        <time>2022-11-13T14:09:50.000Z</time>
      </trkpt>
      <trkpt lat="37.28977" lon="-3.53941833">
        <ele>1553.0</ele>
        <time>2022-11-13T14:09:51.000Z</time>
      </trkpt>
      <trkpt lat="37.289765" lon="-3.53942167">
        <ele>1553.0</ele>
        <time>2022-11-13T14:09:52.000Z</time>
      </trkpt>
      <trkpt lat="37.28976" lon="-3.53942333">
        <ele>1553.0</ele>
        <time>2022-11-13T14:09:53.000Z</time>
      </trkpt>
      <trkpt lat="37.289755" lon="-3.539425">
        <ele>1554.0</ele>
        <time>2022-11-13T14:09:54.000Z</time>
      </trkpt>
      <trkpt lat="37.28975167" lon="-3.53942833">
        <ele>1554.0</ele>
        <time>2022-11-13T14:09:55.000Z</time>
      </trkpt>
      <trkpt lat="37.28974833" lon="-3.53943333">
        <ele>1554.0</ele>
        <time>2022-11-13T14:09:56.000Z</time>
      </trkpt>
      <trkpt lat="37.289745" lon="-3.53944">
        <ele>1554.0</ele>
        <time>2022-11-13T14:09:57.000Z</time>
      </trkpt>
      <trkpt lat="37.28974167" lon="-3.53944667">
        <ele>1554.0</ele>
        <time>2022-11-13T14:09:58.000Z</time>
      </trkpt>
      <trkpt lat="37.28973833" lon="-3.53945167">
        <ele>1554.0</ele>
        <time>2022-11-13T14:09:59.000Z</time>
      </trkpt>
      <trkpt lat="37.289735" lon="-3.53945167">
        <ele>1554.0</ele>
        <time>2022-11-13T14:10:00.000Z</time>
      </trkpt>
      <trkpt lat="37.28973333" lon="-3.53945333">
        <ele>1554.0</ele>
        <time>2022-11-13T14:10:01.000Z</time>
      </trkpt>
      <trkpt lat="37.28973167" lon="-3.539455">
        <ele>1555.0</ele>
        <time>2022-11-13T14:10:02.000Z</time>
      </trkpt>
      <trkpt lat="37.28973167" lon="-3.53945667">
        <ele>1555.0</ele>
        <time>2022-11-13T14:10:03.000Z</time>
      </trkpt>
      <trkpt lat="37.28973167" lon="-3.53945667">
        <ele>1555.0</ele>
        <time>2022-11-13T14:10:04.000Z</time>
      </trkpt>
      <trkpt lat="37.28973333" lon="-3.53945833">
        <ele>1555.0</ele>
        <time>2022-11-13T14:10:05.000Z</time>
      </trkpt>
      <trkpt lat="37.28973167" lon="-3.53946">
        <ele>1555.0</ele>
        <time>2022-11-13T14:10:06.000Z</time>
      </trkpt>
      <trkpt lat="37.28972833" lon="-3.539465">
        <ele>1555.0</ele>
        <time>2022-11-13T14:10:07.000Z</time>
      </trkpt>
      <trkpt lat="37.28972333" lon="-3.53946833">
        <ele>1555.0</ele>
        <time>2022-11-13T14:10:08.000Z</time>
      </trkpt>
      <trkpt lat="37.28972" lon="-3.53947">
        <ele>1555.0</ele>
        <time>2022-11-13T14:10:09.000Z</time>
      </trkpt>
      <trkpt lat="37.289715" lon="-3.53947167">
        <ele>1555.0</ele>
        <time>2022-11-13T14:10:10.000Z</time>
      </trkpt>
      <trkpt lat="37.28971167" lon="-3.53947333">
        <ele>1556.0</ele>
        <time>2022-11-13T14:10:11.000Z</time>
      </trkpt>
      <trkpt lat="37.28971" lon="-3.53947667">
        <ele>1556.0</ele>
        <time>2022-11-13T14:10:12.000Z</time>
      </trkpt>
      <trkpt lat="37.28971" lon="-3.53947833">
        <ele>1556.0</ele>
        <time>2022-11-13T14:10:13.000Z</time>
      </trkpt>
      <trkpt lat="37.28970667" lon="-3.53948167">
        <ele>1556.0</ele>
        <time>2022-11-13T14:10:14.000Z</time>
      </trkpt>
      <trkpt lat="37.28970667" lon="-3.53948333">
        <ele>1556.0</ele>
        <time>2022-11-13T14:10:15.000Z</time>
      </trkpt>
      <trkpt lat="37.289705" lon="-3.53948667">
        <ele>1556.0</ele>
        <time>2022-11-13T14:10:16.000Z</time>
      </trkpt>
      <trkpt lat="37.28970167" lon="-3.53949167">
        <ele>1556.0</ele>
        <time>2022-11-13T14:10:17.000Z</time>
      </trkpt>
      <trkpt lat="37.2897" lon="-3.53949667">
        <ele>1557.0</ele>
        <time>2022-11-13T14:10:18.000Z</time>
      </trkpt>
      <trkpt lat="37.28969667" lon="-3.53950167">
        <ele>1557.0</ele>
        <time>2022-11-13T14:10:19.000Z</time>
      </trkpt>
      <trkpt lat="37.289695" lon="-3.53950333">
        <ele>1557.0</ele>
        <time>2022-11-13T14:10:20.000Z</time>
      </trkpt>
      <trkpt lat="37.28969167" lon="-3.53950167">
        <ele>1557.0</ele>
        <time>2022-11-13T14:10:21.000Z</time>
      </trkpt>
      <trkpt lat="37.28969167" lon="-3.53950333">
        <ele>1557.0</ele>
        <time>2022-11-13T14:10:22.000Z</time>
      </trkpt>
      <trkpt lat="37.28969167" lon="-3.53950333">
        <ele>1557.0</ele>
        <time>2022-11-13T14:10:23.000Z</time>
      </trkpt>
      <trkpt lat="37.28969" lon="-3.539505">
        <ele>1557.0</ele>
        <time>2022-11-13T14:10:24.000Z</time>
      </trkpt>
      <trkpt lat="37.28968833" lon="-3.53950833">
        <ele>1558.0</ele>
        <time>2022-11-13T14:10:25.000Z</time>
      </trkpt>
      <trkpt lat="37.28968667" lon="-3.53951167">
        <ele>1558.0</ele>
        <time>2022-11-13T14:10:26.000Z</time>
      </trkpt>
      <trkpt lat="37.28968333" lon="-3.53951667">
        <ele>1558.0</ele>
        <time>2022-11-13T14:10:27.000Z</time>
      </trkpt>
      <trkpt lat="37.28968333" lon="-3.53952167">
        <ele>1558.0</ele>
        <time>2022-11-13T14:10:28.000Z</time>
      </trkpt>
      <trkpt lat="37.28968" lon="-3.53952833">
        <ele>1558.0</ele>
        <time>2022-11-13T14:10:29.000Z</time>
      </trkpt>
      <trkpt lat="37.28967667" lon="-3.53953667">
        <ele>1559.0</ele>
        <time>2022-11-13T14:10:30.000Z</time>
      </trkpt>
      <trkpt lat="37.28967333" lon="-3.53954">
        <ele>1559.0</ele>
        <time>2022-11-13T14:10:31.000Z</time>
      </trkpt>
      <trkpt lat="37.28967167" lon="-3.53954333">
        <ele>1559.0</ele>
        <time>2022-11-13T14:10:32.000Z</time>
      </trkpt>
      <trkpt lat="37.28967" lon="-3.53954667">
        <ele>1559.0</ele>
        <time>2022-11-13T14:10:33.000Z</time>
      </trkpt>
      <trkpt lat="37.28967" lon="-3.53954667">
        <ele>1560.0</ele>
        <time>2022-11-13T14:10:34.000Z</time>
      </trkpt>
      <trkpt lat="37.28967" lon="-3.53954833">
        <ele>1560.0</ele>
        <time>2022-11-13T14:10:35.000Z</time>
      </trkpt>
      <trkpt lat="37.28966667" lon="-3.53954333">
        <ele>1560.0</ele>
        <time>2022-11-13T14:10:36.000Z</time>
      </trkpt>
      <trkpt lat="37.289665" lon="-3.53954333">
        <ele>1560.0</ele>
        <time>2022-11-13T14:10:37.000Z</time>
      </trkpt>
      <trkpt lat="37.28966333" lon="-3.539545">
        <ele>1561.0</ele>
        <time>2022-11-13T14:10:38.000Z</time>
      </trkpt>
      <trkpt lat="37.28966167" lon="-3.53954667">
        <ele>1561.0</ele>
        <time>2022-11-13T14:10:39.000Z</time>
      </trkpt>
      <trkpt lat="37.28966167" lon="-3.53954667">
        <ele>1561.0</ele>
        <time>2022-11-13T14:10:40.000Z</time>
      </trkpt>
      <trkpt lat="37.28966333" lon="-3.53954667">
        <ele>1561.0</ele>
        <time>2022-11-13T14:10:41.000Z</time>
      </trkpt>
      <trkpt lat="37.28966333" lon="-3.53954667">
        <ele>1561.0</ele>
        <time>2022-11-13T14:10:42.000Z</time>
      </trkpt>
      <trkpt lat="37.28966333" lon="-3.53954667">
        <ele>1561.0</ele>
        <time>2022-11-13T14:10:43.000Z</time>
      </trkpt>
      <trkpt lat="37.28966333" lon="-3.53954667">
        <ele>1561.0</ele>
        <time>2022-11-13T14:10:44.000Z</time>
      </trkpt>
      <trkpt lat="37.28966333" lon="-3.53954667">
        <ele>1561.0</ele>
        <time>2022-11-13T14:10:45.000Z</time>
      </trkpt>
      <trkpt lat="37.289665" lon="-3.53954667">
        <ele>1562.0</ele>
        <time>2022-11-13T14:10:46.000Z</time>
      </trkpt>
      <trkpt lat="37.289665" lon="-3.53955">
        <ele>1562.0</ele>
        <time>2022-11-13T14:10:47.000Z</time>
      </trkpt>
      <trkpt lat="37.28966333" lon="-3.53955167">
        <ele>1562.0</ele>
        <time>2022-11-13T14:10:48.000Z</time>
      </trkpt>
      <trkpt lat="37.28966167" lon="-3.539555">
        <ele>1562.0</ele>
        <time>2022-11-13T14:10:49.000Z</time>
      </trkpt>
      <trkpt lat="37.28966" lon="-3.53955667">
        <ele>1562.0</ele>
        <time>2022-11-13T14:10:50.000Z</time>
      </trkpt>
      <trkpt lat="37.28966" lon="-3.53955667">
        <ele>1562.0</ele>
        <time>2022-11-13T14:10:51.000Z</time>
      </trkpt>
      <trkpt lat="37.28966" lon="-3.53956">
        <ele>1562.0</ele>
        <time>2022-11-13T14:10:52.000Z</time>
      </trkpt>
      <trkpt lat="37.28966" lon="-3.53956167">
        <ele>1562.0</ele>
        <time>2022-11-13T14:10:53.000Z</time>
      </trkpt>
      <trkpt lat="37.28966" lon="-3.53955833">
        <ele>1563.0</ele>
        <time>2022-11-13T14:10:54.000Z</time>
      </trkpt>
      <trkpt lat="37.28965833" lon="-3.539555">
        <ele>1563.0</ele>
        <time>2022-11-13T14:10:55.000Z</time>
      </trkpt>
      <trkpt lat="37.28965667" lon="-3.539555">
        <ele>1563.0</ele>
        <time>2022-11-13T14:10:56.000Z</time>
      </trkpt>
      <trkpt lat="37.28965667" lon="-3.539555">
        <ele>1563.0</ele>
        <time>2022-11-13T14:10:57.000Z</time>
      </trkpt>
      <trkpt lat="37.28965667" lon="-3.539555">
        <ele>1563.0</ele>
        <time>2022-11-13T14:10:58.000Z</time>
      </trkpt>
      <trkpt lat="37.28965667" lon="-3.53955333">
        <ele>1563.0</ele>
        <time>2022-11-13T14:10:59.000Z</time>
      </trkpt>
      <trkpt lat="37.28965833" lon="-3.53955333">
        <ele>1563.0</ele>
        <time>2022-11-13T14:11:00.000Z</time>
      </trkpt>
      <trkpt lat="37.28965833" lon="-3.539555">
        <ele>1564.0</ele>
        <time>2022-11-13T14:11:01.000Z</time>
      </trkpt>
      <trkpt lat="37.289655" lon="-3.53955667">
        <ele>1564.0</ele>
        <time>2022-11-13T14:11:02.000Z</time>
      </trkpt>
      <trkpt lat="37.28965333" lon="-3.53955833">
        <ele>1564.0</ele>
        <time>2022-11-13T14:11:03.000Z</time>
      </trkpt>
      <trkpt lat="37.28965" lon="-3.53955833">
        <ele>1564.0</ele>
        <time>2022-11-13T14:11:04.000Z</time>
      </trkpt>
      <trkpt lat="37.28964833" lon="-3.53955833">
        <ele>1564.0</ele>
        <time>2022-11-13T14:11:05.000Z</time>
      </trkpt>
      <trkpt lat="37.289645" lon="-3.53955833">
        <ele>1564.0</ele>
        <time>2022-11-13T14:11:06.000Z</time>
      </trkpt>
      <trkpt lat="37.28964167" lon="-3.53955667">
        <ele>1565.0</ele>
        <time>2022-11-13T14:11:07.000Z</time>
      </trkpt>
      <trkpt lat="37.28964167" lon="-3.53955333">
        <ele>1565.0</ele>
        <time>2022-11-13T14:11:08.000Z</time>
      </trkpt>
      <trkpt lat="37.28964167" lon="-3.53955167">
        <ele>1565.0</ele>
        <time>2022-11-13T14:11:09.000Z</time>
      </trkpt>
      <trkpt lat="37.28964167" lon="-3.53955167">
        <ele>1565.0</ele>
        <time>2022-11-13T14:11:10.000Z</time>
      </trkpt>
      <trkpt lat="37.28964" lon="-3.53955167">
        <ele>1565.0</ele>
        <time>2022-11-13T14:11:11.000Z</time>
      </trkpt>
      <trkpt lat="37.28963833" lon="-3.539555">
        <ele>1565.0</ele>
        <time>2022-11-13T14:11:12.000Z</time>
      </trkpt>
      <trkpt lat="37.28963667" lon="-3.53956">
        <ele>1565.0</ele>
        <time>2022-11-13T14:11:13.000Z</time>
      </trkpt>
      <trkpt lat="37.28963333" lon="-3.53956333">
        <ele>1565.0</ele>
        <time>2022-11-13T14:11:14.000Z</time>
      </trkpt>
      <trkpt lat="37.28963167" lon="-3.539565">
        <ele>1566.0</ele>
        <time>2022-11-13T14:11:15.000Z</time>
      </trkpt>
      <trkpt lat="37.28963" lon="-3.539565">
        <ele>1566.0</ele>
        <time>2022-11-13T14:11:16.000Z</time>
      </trkpt>
      <trkpt lat="37.28962833" lon="-3.53956333">
        <ele>1566.0</ele>
        <time>2022-11-13T14:11:17.000Z</time>
      </trkpt>
      <trkpt lat="37.28962833" lon="-3.53956333">
        <ele>1566.0</ele>
        <time>2022-11-13T14:11:18.000Z</time>
      </trkpt>
      <trkpt lat="37.28962833" lon="-3.539565">
        <ele>1566.0</ele>
        <time>2022-11-13T14:11:19.000Z</time>
      </trkpt>
      <trkpt lat="37.28962667" lon="-3.53956833">
        <ele>1566.0</ele>
        <time>2022-11-13T14:11:20.000Z</time>
      </trkpt>
      <trkpt lat="37.289625" lon="-3.53957">
        <ele>1567.0</ele>
        <time>2022-11-13T14:11:21.000Z</time>
      </trkpt>
      <trkpt lat="37.28962333" lon="-3.53957167">
        <ele>1567.0</ele>
        <time>2022-11-13T14:11:22.000Z</time>
      </trkpt>
      <trkpt lat="37.28962167" lon="-3.53957333">
        <ele>1567.0</ele>
        <time>2022-11-13T14:11:23.000Z</time>
      </trkpt>
      <trkpt lat="37.28961833" lon="-3.539575">
        <ele>1567.0</ele>
        <time>2022-11-13T14:11:24.000Z</time>
      </trkpt>
      <trkpt lat="37.28961333" lon="-3.53957667">
        <ele>1567.0</ele>
        <time>2022-11-13T14:11:25.000Z</time>
      </trkpt>
      <trkpt lat="37.28961" lon="-3.53958">
        <ele>1567.0</ele>
        <time>2022-11-13T14:11:26.000Z</time>
      </trkpt>
      <trkpt lat="37.28961" lon="-3.539585">
        <ele>1568.0</ele>
        <time>2022-11-13T14:11:27.000Z</time>
      </trkpt>
      <trkpt lat="37.28961167" lon="-3.53958667">
        <ele>1568.0</ele>
        <time>2022-11-13T14:11:28.000Z</time>
      </trkpt>
      <trkpt lat="37.28961" lon="-3.53959333">
        <ele>1568.0</ele>
        <time>2022-11-13T14:11:29.000Z</time>
      </trkpt>
      <trkpt lat="37.28961" lon="-3.53959833">
        <ele>1568.0</ele>
        <time>2022-11-13T14:11:30.000Z</time>
      </trkpt>
      <trkpt lat="37.28960833" lon="-3.5396">
        <ele>1568.0</ele>
        <time>2022-11-13T14:11:31.000Z</time>
      </trkpt>
      <trkpt lat="37.28960667" lon="-3.539605">
        <ele>1569.0</ele>
        <time>2022-11-13T14:11:32.000Z</time>
      </trkpt>
      <trkpt lat="37.289605" lon="-3.53960833">
        <ele>1569.0</ele>
        <time>2022-11-13T14:11:33.000Z</time>
      </trkpt>
      <trkpt lat="37.28960167" lon="-3.53961333">
        <ele>1569.0</ele>
        <time>2022-11-13T14:11:34.000Z</time>
      </trkpt>
      <trkpt lat="37.28959833" lon="-3.53961833">
        <ele>1569.0</ele>
        <time>2022-11-13T14:11:35.000Z</time>
      </trkpt>
      <trkpt lat="37.289595" lon="-3.539625">
        <ele>1570.0</ele>
        <time>2022-11-13T14:11:36.000Z</time>
      </trkpt>
      <trkpt lat="37.28959167" lon="-3.53963167">
        <ele>1570.0</ele>
        <time>2022-11-13T14:11:37.000Z</time>
      </trkpt>
      <trkpt lat="37.28959" lon="-3.53963667">
        <ele>1570.0</ele>
        <time>2022-11-13T14:11:38.000Z</time>
      </trkpt>
      <trkpt lat="37.28959167" lon="-3.53963833">
        <ele>1570.0</ele>
        <time>2022-11-13T14:11:39.000Z</time>
      </trkpt>
      <trkpt lat="37.28959333" lon="-3.53963833">
        <ele>1571.0</ele>
        <time>2022-11-13T14:11:40.000Z</time>
      </trkpt>
      <trkpt lat="37.289595" lon="-3.53963833">
        <ele>1571.0</ele>
        <time>2022-11-13T14:11:41.000Z</time>
      </trkpt>
      <trkpt lat="37.289595" lon="-3.53963833">
        <ele>1571.0</ele>
        <time>2022-11-13T14:11:42.000Z</time>
      </trkpt>
      <trkpt lat="37.28959333" lon="-3.53963667">
        <ele>1572.0</ele>
        <time>2022-11-13T14:11:43.000Z</time>
      </trkpt>
      <trkpt lat="37.28959333" lon="-3.53963833">
        <ele>1572.0</ele>
        <time>2022-11-13T14:11:44.000Z</time>
      </trkpt>
      <trkpt lat="37.28959" lon="-3.53964">
        <ele>1572.0</ele>
        <time>2022-11-13T14:11:45.000Z</time>
      </trkpt>
      <trkpt lat="37.289585" lon="-3.53964667">
        <ele>1572.0</ele>
        <time>2022-11-13T14:11:46.000Z</time>
      </trkpt>
      <trkpt lat="37.28958333" lon="-3.53965167">
        <ele>1573.0</ele>
        <time>2022-11-13T14:11:47.000Z</time>
      </trkpt>
      <trkpt lat="37.28958333" lon="-3.53965667">
        <ele>1573.0</ele>
        <time>2022-11-13T14:11:48.000Z</time>
      </trkpt>
      <trkpt lat="37.28958333" lon="-3.53966167">
        <ele>1573.0</ele>
        <time>2022-11-13T14:11:49.000Z</time>
      </trkpt>
      <trkpt lat="37.28958" lon="-3.539665">
        <ele>1573.0</ele>
        <time>2022-11-13T14:11:50.000Z</time>
      </trkpt>
      <trkpt lat="37.28957667" lon="-3.53966667">
        <ele>1574.0</ele>
        <time>2022-11-13T14:11:51.000Z</time>
      </trkpt>
      <trkpt lat="37.28957667" lon="-3.53966833">
        <ele>1574.0</ele>
        <time>2022-11-13T14:11:52.000Z</time>
      </trkpt>
      <trkpt lat="37.28957833" lon="-3.53966833">
        <ele>1574.0</ele>
        <time>2022-11-13T14:11:53.000Z</time>
      </trkpt>
      <trkpt lat="37.28958" lon="-3.53967">
        <ele>1574.0</ele>
        <time>2022-11-13T14:11:54.000Z</time>
      </trkpt>
      <trkpt lat="37.28957833" lon="-3.53967333">
        <ele>1574.0</ele>
        <time>2022-11-13T14:11:55.000Z</time>
      </trkpt>
      <trkpt lat="37.28957667" lon="-3.53967667">
        <ele>1575.0</ele>
        <time>2022-11-13T14:11:56.000Z</time>
      </trkpt>
      <trkpt lat="37.28957333" lon="-3.53968167">
        <ele>1575.0</ele>
        <time>2022-11-13T14:11:57.000Z</time>
      </trkpt>
      <trkpt lat="37.28957" lon="-3.53968667">
        <ele>1575.0</ele>
        <time>2022-11-13T14:11:58.000Z</time>
      </trkpt>
      <trkpt lat="37.28956833" lon="-3.53969333">
        <ele>1575.0</ele>
        <time>2022-11-13T14:11:59.000Z</time>
      </trkpt>
      <trkpt lat="37.28956667" lon="-3.53969833">
        <ele>1575.0</ele>
        <time>2022-11-13T14:12:00.000Z</time>
      </trkpt>
      <trkpt lat="37.289565" lon="-3.5397">
        <ele>1576.0</ele>
        <time>2022-11-13T14:12:01.000Z</time>
      </trkpt>
      <trkpt lat="37.289565" lon="-3.5397">
        <ele>1576.0</ele>
        <time>2022-11-13T14:12:02.000Z</time>
      </trkpt>
      <trkpt lat="37.289565" lon="-3.5397">
        <ele>1576.0</ele>
        <time>2022-11-13T14:12:03.000Z</time>
      </trkpt>
      <trkpt lat="37.28956333" lon="-3.53970333">
        <ele>1576.0</ele>
        <time>2022-11-13T14:12:04.000Z</time>
      </trkpt>
      <trkpt lat="37.28956167" lon="-3.53970667">
        <ele>1577.0</ele>
        <time>2022-11-13T14:12:05.000Z</time>
      </trkpt>
      <trkpt lat="37.28956167" lon="-3.53971167">
        <ele>1577.0</ele>
        <time>2022-11-13T14:12:06.000Z</time>
      </trkpt>
      <trkpt lat="37.28956167" lon="-3.53971833">
        <ele>1577.0</ele>
        <time>2022-11-13T14:12:07.000Z</time>
      </trkpt>
      <trkpt lat="37.28956" lon="-3.539725">
        <ele>1577.0</ele>
        <time>2022-11-13T14:12:08.000Z</time>
      </trkpt>
      <trkpt lat="37.28955833" lon="-3.53973">
        <ele>1577.0</ele>
        <time>2022-11-13T14:12:09.000Z</time>
      </trkpt>
      <trkpt lat="37.28955833" lon="-3.539735">
        <ele>1577.0</ele>
        <time>2022-11-13T14:12:10.000Z</time>
      </trkpt>
      <trkpt lat="37.28955833" lon="-3.53973833">
        <ele>1577.0</ele>
        <time>2022-11-13T14:12:11.000Z</time>
      </trkpt>
      <trkpt lat="37.28955667" lon="-3.53974167">
        <ele>1577.0</ele>
        <time>2022-11-13T14:12:12.000Z</time>
      </trkpt>
      <trkpt lat="37.289555" lon="-3.53974333">
        <ele>1578.0</ele>
        <time>2022-11-13T14:12:13.000Z</time>
      </trkpt>
      <trkpt lat="37.289555" lon="-3.53974667">
        <ele>1578.0</ele>
        <time>2022-11-13T14:12:14.000Z</time>
      </trkpt>
      <trkpt lat="37.289555" lon="-3.53975167">
        <ele>1578.0</ele>
        <time>2022-11-13T14:12:15.000Z</time>
      </trkpt>
      <trkpt lat="37.289555" lon="-3.53975333">
        <ele>1578.0</ele>
        <time>2022-11-13T14:12:16.000Z</time>
      </trkpt>
      <trkpt lat="37.289555" lon="-3.539755">
        <ele>1578.0</ele>
        <time>2022-11-13T14:12:17.000Z</time>
      </trkpt>
      <trkpt lat="37.28956" lon="-3.539755">
        <ele>1578.0</ele>
        <time>2022-11-13T14:12:18.000Z</time>
      </trkpt>
      <trkpt lat="37.289565" lon="-3.539755">
        <ele>1578.0</ele>
        <time>2022-11-13T14:12:19.000Z</time>
      </trkpt>
      <trkpt lat="37.28956833" lon="-3.53976167">
        <ele>1579.0</ele>
        <time>2022-11-13T14:12:20.000Z</time>
      </trkpt>
      <trkpt lat="37.28957167" lon="-3.539765">
        <ele>1579.0</ele>
        <time>2022-11-13T14:12:21.000Z</time>
      </trkpt>
      <trkpt lat="37.28957167" lon="-3.53977">
        <ele>1579.0</ele>
        <time>2022-11-13T14:12:22.000Z</time>
      </trkpt>
      <trkpt lat="37.28957333" lon="-3.53977667">
        <ele>1579.0</ele>
        <time>2022-11-13T14:12:23.000Z</time>
      </trkpt>
      <trkpt lat="37.28957333" lon="-3.53977833">
        <ele>1579.0</ele>
        <time>2022-11-13T14:12:24.000Z</time>
      </trkpt>
      <trkpt lat="37.28957333" lon="-3.53977833">
        <ele>1579.0</ele>
        <time>2022-11-13T14:12:25.000Z</time>
      </trkpt>
      <trkpt lat="37.28957333" lon="-3.53978">
        <ele>1579.0</ele>
        <time>2022-11-13T14:12:26.000Z</time>
      </trkpt>
      <trkpt lat="37.289575" lon="-3.53978167">
        <ele>1579.0</ele>
        <time>2022-11-13T14:12:27.000Z</time>
      </trkpt>
      <trkpt lat="37.289575" lon="-3.53978167">
        <ele>1579.0</ele>
        <time>2022-11-13T14:12:28.000Z</time>
      </trkpt>
      <trkpt lat="37.289575" lon="-3.53978">
        <ele>1579.0</ele>
        <time>2022-11-13T14:12:29.000Z</time>
      </trkpt>
      <trkpt lat="37.289575" lon="-3.53978167">
        <ele>1579.0</ele>
        <time>2022-11-13T14:12:30.000Z</time>
      </trkpt>
      <trkpt lat="37.28957333" lon="-3.53978333">
        <ele>1579.0</ele>
        <time>2022-11-13T14:12:31.000Z</time>
      </trkpt>
      <trkpt lat="37.28957167" lon="-3.53978833">
        <ele>1580.0</ele>
        <time>2022-11-13T14:12:32.000Z</time>
      </trkpt>
      <trkpt lat="37.28957167" lon="-3.53979333">
        <ele>1580.0</ele>
        <time>2022-11-13T14:12:33.000Z</time>
      </trkpt>
      <trkpt lat="37.28956833" lon="-3.5398">
        <ele>1580.0</ele>
        <time>2022-11-13T14:12:34.000Z</time>
      </trkpt>
      <trkpt lat="37.28956833" lon="-3.5398">
        <ele>1580.0</ele>
        <time>2022-11-13T14:12:35.000Z</time>
      </trkpt>
      <trkpt lat="37.28956667" lon="-3.53980333">
        <ele>1580.0</ele>
        <time>2022-11-13T14:12:36.000Z</time>
      </trkpt>
      <trkpt lat="37.28956667" lon="-3.53980333">
        <ele>1580.0</ele>
        <time>2022-11-13T14:12:37.000Z</time>
      </trkpt>
      <trkpt lat="37.28956667" lon="-3.539805">
        <ele>1580.0</ele>
        <time>2022-11-13T14:12:38.000Z</time>
      </trkpt>
      <trkpt lat="37.28956833" lon="-3.53980333">
        <ele>1580.0</ele>
        <time>2022-11-13T14:12:39.000Z</time>
      </trkpt>
      <trkpt lat="37.28957" lon="-3.53980167">
        <ele>1580.0</ele>
        <time>2022-11-13T14:12:40.000Z</time>
      </trkpt>
      <trkpt lat="37.28956667" lon="-3.5398">
        <ele>1581.0</ele>
        <time>2022-11-13T14:12:41.000Z</time>
      </trkpt>
      <trkpt lat="37.289565" lon="-3.53980167">
        <ele>1581.0</ele>
        <time>2022-11-13T14:12:42.000Z</time>
      </trkpt>
      <trkpt lat="37.28956333" lon="-3.539805">
        <ele>1581.0</ele>
        <time>2022-11-13T14:12:43.000Z</time>
      </trkpt>
      <trkpt lat="37.28956167" lon="-3.539805">
        <ele>1581.0</ele>
        <time>2022-11-13T14:12:44.000Z</time>
      </trkpt>
      <trkpt lat="37.28955833" lon="-3.53980667">
        <ele>1581.0</ele>
        <time>2022-11-13T14:12:45.000Z</time>
      </trkpt>
      <trkpt lat="37.289555" lon="-3.53981">
        <ele>1581.0</ele>
        <time>2022-11-13T14:12:46.000Z</time>
      </trkpt>
      <trkpt lat="37.28955167" lon="-3.53981167">
        <ele>1581.0</ele>
        <time>2022-11-13T14:12:47.000Z</time>
      </trkpt>
      <trkpt lat="37.28955" lon="-3.539815">
        <ele>1581.0</ele>
        <time>2022-11-13T14:12:48.000Z</time>
      </trkpt>
      <trkpt lat="37.28954833" lon="-3.539815">
        <ele>1581.0</ele>
        <time>2022-11-13T14:12:49.000Z</time>
      </trkpt>
      <trkpt lat="37.28954667" lon="-3.53981833">
        <ele>1582.0</ele>
        <time>2022-11-13T14:12:50.000Z</time>
      </trkpt>
      <trkpt lat="37.28954333" lon="-3.53982667">
        <ele>1582.0</ele>
        <time>2022-11-13T14:12:51.000Z</time>
      </trkpt>
      <trkpt lat="37.28953833" lon="-3.539835">
        <ele>1582.0</ele>
        <time>2022-11-13T14:12:52.000Z</time>
      </trkpt>
      <trkpt lat="37.28953667" lon="-3.53984333">
        <ele>1582.0</ele>
        <time>2022-11-13T14:12:53.000Z</time>
      </trkpt>
      <trkpt lat="37.28953333" lon="-3.53985">
        <ele>1582.0</ele>
        <time>2022-11-13T14:12:54.000Z</time>
      </trkpt>
      <trkpt lat="37.28953" lon="-3.53985333">
        <ele>1582.0</ele>
        <time>2022-11-13T14:12:55.000Z</time>
      </trkpt>
      <trkpt lat="37.28952833" lon="-3.53985667">
        <ele>1582.0</ele>
        <time>2022-11-13T14:12:56.000Z</time>
      </trkpt>
      <trkpt lat="37.28952667" lon="-3.539865">
        <ele>1583.0</ele>
        <time>2022-11-13T14:12:57.000Z</time>
      </trkpt>
      <trkpt lat="37.289525" lon="-3.53987333">
        <ele>1583.0</ele>
        <time>2022-11-13T14:12:58.000Z</time>
      </trkpt>
      <trkpt lat="37.28952333" lon="-3.53987333">
        <ele>1583.0</ele>
        <time>2022-11-13T14:12:59.000Z</time>
      </trkpt>
      <trkpt lat="37.28952333" lon="-3.539875">
        <ele>1583.0</ele>
        <time>2022-11-13T14:13:00.000Z</time>
      </trkpt>
      <trkpt lat="37.28952333" lon="-3.539875">
        <ele>1583.0</ele>
        <time>2022-11-13T14:13:01.000Z</time>
      </trkpt>
      <trkpt lat="37.28952167" lon="-3.53987833">
        <ele>1583.0</ele>
        <time>2022-11-13T14:13:02.000Z</time>
      </trkpt>
      <trkpt lat="37.28951833" lon="-3.53988333">
        <ele>1583.0</ele>
        <time>2022-11-13T14:13:03.000Z</time>
      </trkpt>
      <trkpt lat="37.28951833" lon="-3.539885">
        <ele>1583.0</ele>
        <time>2022-11-13T14:13:04.000Z</time>
      </trkpt>
      <trkpt lat="37.28951667" lon="-3.539885">
        <ele>1583.0</ele>
        <time>2022-11-13T14:13:05.000Z</time>
      </trkpt>
      <trkpt lat="37.28951833" lon="-3.53988667">
        <ele>1584.0</ele>
        <time>2022-11-13T14:13:06.000Z</time>
      </trkpt>
      <trkpt lat="37.28952" lon="-3.53988833">
        <ele>1584.0</ele>
        <time>2022-11-13T14:13:07.000Z</time>
      </trkpt>
      <trkpt lat="37.28951833" lon="-3.53989333">
        <ele>1584.0</ele>
        <time>2022-11-13T14:13:08.000Z</time>
      </trkpt>
      <trkpt lat="37.289515" lon="-3.5399">
        <ele>1584.0</ele>
        <time>2022-11-13T14:13:09.000Z</time>
      </trkpt>
      <trkpt lat="37.28951" lon="-3.53990667">
        <ele>1584.0</ele>
        <time>2022-11-13T14:13:10.000Z</time>
      </trkpt>
      <trkpt lat="37.28950667" lon="-3.53991167">
        <ele>1584.0</ele>
        <time>2022-11-13T14:13:11.000Z</time>
      </trkpt>
      <trkpt lat="37.28950333" lon="-3.53991667">
        <ele>1584.0</ele>
        <time>2022-11-13T14:13:12.000Z</time>
      </trkpt>
      <trkpt lat="37.2895" lon="-3.53992333">
        <ele>1584.0</ele>
        <time>2022-11-13T14:13:13.000Z</time>
      </trkpt>
      <trkpt lat="37.28949667" lon="-3.53993">
        <ele>1584.0</ele>
        <time>2022-11-13T14:13:14.000Z</time>
      </trkpt>
      <trkpt lat="37.28949333" lon="-3.539935">
        <ele>1584.0</ele>
        <time>2022-11-13T14:13:15.000Z</time>
      </trkpt>
      <trkpt lat="37.28949167" lon="-3.539935">
        <ele>1584.0</ele>
        <time>2022-11-13T14:13:16.000Z</time>
      </trkpt>
      <trkpt lat="37.28948833" lon="-3.53994167">
        <ele>1585.0</ele>
        <time>2022-11-13T14:13:17.000Z</time>
      </trkpt>
      <trkpt lat="37.28948667" lon="-3.53994833">
        <ele>1585.0</ele>
        <time>2022-11-13T14:13:18.000Z</time>
      </trkpt>
      <trkpt lat="37.289485" lon="-3.53995333">
        <ele>1585.0</ele>
        <time>2022-11-13T14:13:19.000Z</time>
      </trkpt>
      <trkpt lat="37.28948667" lon="-3.53996">
        <ele>1585.0</ele>
        <time>2022-11-13T14:13:20.000Z</time>
      </trkpt>
      <trkpt lat="37.28948667" lon="-3.53996667">
        <ele>1585.0</ele>
        <time>2022-11-13T14:13:21.000Z</time>
      </trkpt>
      <trkpt lat="37.289485" lon="-3.53997167">
        <ele>1585.0</ele>
        <time>2022-11-13T14:13:22.000Z</time>
      </trkpt>
      <trkpt lat="37.28948667" lon="-3.539975">
        <ele>1585.0</ele>
        <time>2022-11-13T14:13:23.000Z</time>
      </trkpt>
      <trkpt lat="37.289485" lon="-3.53998">
        <ele>1585.0</ele>
        <time>2022-11-13T14:13:24.000Z</time>
      </trkpt>
      <trkpt lat="37.289485" lon="-3.53998333">
        <ele>1586.0</ele>
        <time>2022-11-13T14:13:25.000Z</time>
      </trkpt>
      <trkpt lat="37.28948167" lon="-3.53998667">
        <ele>1586.0</ele>
        <time>2022-11-13T14:13:26.000Z</time>
      </trkpt>
      <trkpt lat="37.28947667" lon="-3.53998667">
        <ele>1586.0</ele>
        <time>2022-11-13T14:13:27.000Z</time>
      </trkpt>
      <trkpt lat="37.28947167" lon="-3.53998167">
        <ele>1586.0</ele>
        <time>2022-11-13T14:13:28.000Z</time>
      </trkpt>
      <trkpt lat="37.28946667" lon="-3.53997833">
        <ele>1586.0</ele>
        <time>2022-11-13T14:13:29.000Z</time>
      </trkpt>
      <trkpt lat="37.28946167" lon="-3.53997333">
        <ele>1586.0</ele>
        <time>2022-11-13T14:13:30.000Z</time>
      </trkpt>
      <trkpt lat="37.289455" lon="-3.53996667">
        <ele>1586.0</ele>
        <time>2022-11-13T14:13:31.000Z</time>
      </trkpt>
      <trkpt lat="37.28945" lon="-3.53996">
        <ele>1586.0</ele>
        <time>2022-11-13T14:13:32.000Z</time>
      </trkpt>
      <trkpt lat="37.28944667" lon="-3.53996">
        <ele>1587.0</ele>
        <time>2022-11-13T14:13:33.000Z</time>
      </trkpt>
      <trkpt lat="37.289445" lon="-3.53996">
        <ele>1587.0</ele>
        <time>2022-11-13T14:13:34.000Z</time>
      </trkpt>
      <trkpt lat="37.28944167" lon="-3.53996167">
        <ele>1587.0</ele>
        <time>2022-11-13T14:13:35.000Z</time>
      </trkpt>
      <trkpt lat="37.28943667" lon="-3.53996667">
        <ele>1587.0</ele>
        <time>2022-11-13T14:13:36.000Z</time>
      </trkpt>
      <trkpt lat="37.28943167" lon="-3.53997">
        <ele>1587.0</ele>
        <time>2022-11-13T14:13:37.000Z</time>
      </trkpt>
      <trkpt lat="37.289425" lon="-3.53997333">
        <ele>1587.0</ele>
        <time>2022-11-13T14:13:38.000Z</time>
      </trkpt>
      <trkpt lat="37.28942167" lon="-3.53997667">
        <ele>1587.0</ele>
        <time>2022-11-13T14:13:39.000Z</time>
      </trkpt>
      <trkpt lat="37.28941833" lon="-3.53998167">
        <ele>1587.0</ele>
        <time>2022-11-13T14:13:40.000Z</time>
      </trkpt>
      <trkpt lat="37.28941333" lon="-3.53998667">
        <ele>1587.0</ele>
        <time>2022-11-13T14:13:41.000Z</time>
      </trkpt>
      <trkpt lat="37.28940833" lon="-3.53999167">
        <ele>1587.0</ele>
        <time>2022-11-13T14:13:42.000Z</time>
      </trkpt>
      <trkpt lat="37.289405" lon="-3.539995">
        <ele>1587.0</ele>
        <time>2022-11-13T14:13:43.000Z</time>
      </trkpt>
      <trkpt lat="37.28940333" lon="-3.54">
        <ele>1587.0</ele>
        <time>2022-11-13T14:13:44.000Z</time>
      </trkpt>
      <trkpt lat="37.2894" lon="-3.540005">
        <ele>1588.0</ele>
        <time>2022-11-13T14:13:45.000Z</time>
      </trkpt>
      <trkpt lat="37.28939833" lon="-3.54001">
        <ele>1588.0</ele>
        <time>2022-11-13T14:13:46.000Z</time>
      </trkpt>
      <trkpt lat="37.28939333" lon="-3.54001333">
        <ele>1588.0</ele>
        <time>2022-11-13T14:13:47.000Z</time>
      </trkpt>
      <trkpt lat="37.28939" lon="-3.54001833">
        <ele>1588.0</ele>
        <time>2022-11-13T14:13:48.000Z</time>
      </trkpt>
      <trkpt lat="37.289385" lon="-3.54002333">
        <ele>1588.0</ele>
        <time>2022-11-13T14:13:49.000Z</time>
      </trkpt>
      <trkpt lat="37.28938167" lon="-3.54003">
        <ele>1588.0</ele>
        <time>2022-11-13T14:13:50.000Z</time>
      </trkpt>
      <trkpt lat="37.28937667" lon="-3.54003667">
        <ele>1588.0</ele>
        <time>2022-11-13T14:13:51.000Z</time>
      </trkpt>
      <trkpt lat="37.28937167" lon="-3.54004167">
        <ele>1589.0</ele>
        <time>2022-11-13T14:13:52.000Z</time>
      </trkpt>
      <trkpt lat="37.28936667" lon="-3.540045">
        <ele>1589.0</ele>
        <time>2022-11-13T14:13:53.000Z</time>
      </trkpt>
      <trkpt lat="37.28935833" lon="-3.54004833">
        <ele>1589.0</ele>
        <time>2022-11-13T14:13:54.000Z</time>
      </trkpt>
      <trkpt lat="37.28935167" lon="-3.54005167">
        <ele>1589.0</ele>
        <time>2022-11-13T14:13:55.000Z</time>
      </trkpt>
      <trkpt lat="37.28934667" lon="-3.54005333">
        <ele>1589.0</ele>
        <time>2022-11-13T14:13:56.000Z</time>
      </trkpt>
      <trkpt lat="37.28934" lon="-3.54005667">
        <ele>1589.0</ele>
        <time>2022-11-13T14:13:57.000Z</time>
      </trkpt>
      <trkpt lat="37.289335" lon="-3.540065">
        <ele>1589.0</ele>
        <time>2022-11-13T14:13:58.000Z</time>
      </trkpt>
      <trkpt lat="37.28933167" lon="-3.54006833">
        <ele>1589.0</ele>
        <time>2022-11-13T14:13:59.000Z</time>
      </trkpt>
      <trkpt lat="37.28932833" lon="-3.54007333">
        <ele>1589.0</ele>
        <time>2022-11-13T14:14:00.000Z</time>
      </trkpt>
      <trkpt lat="37.289325" lon="-3.54008">
        <ele>1590.0</ele>
        <time>2022-11-13T14:14:01.000Z</time>
      </trkpt>
      <trkpt lat="37.28931667" lon="-3.54008667">
        <ele>1590.0</ele>
        <time>2022-11-13T14:14:02.000Z</time>
      </trkpt>
      <trkpt lat="37.28931" lon="-3.54009333">
        <ele>1590.0</ele>
        <time>2022-11-13T14:14:03.000Z</time>
      </trkpt>
      <trkpt lat="37.28930333" lon="-3.54009667">
        <ele>1590.0</ele>
        <time>2022-11-13T14:14:04.000Z</time>
      </trkpt>
      <trkpt lat="37.28929833" lon="-3.5401">
        <ele>1590.0</ele>
        <time>2022-11-13T14:14:05.000Z</time>
      </trkpt>
      <trkpt lat="37.28929667" lon="-3.54010333">
        <ele>1591.0</ele>
        <time>2022-11-13T14:14:06.000Z</time>
      </trkpt>
      <trkpt lat="37.28929333" lon="-3.54010667">
        <ele>1591.0</ele>
        <time>2022-11-13T14:14:07.000Z</time>
      </trkpt>
      <trkpt lat="37.28929" lon="-3.54011">
        <ele>1591.0</ele>
        <time>2022-11-13T14:14:08.000Z</time>
      </trkpt>
      <trkpt lat="37.289285" lon="-3.54011667">
        <ele>1592.0</ele>
        <time>2022-11-13T14:14:09.000Z</time>
      </trkpt>
      <trkpt lat="37.28928" lon="-3.54012">
        <ele>1592.0</ele>
        <time>2022-11-13T14:14:10.000Z</time>
      </trkpt>
      <trkpt lat="37.289275" lon="-3.540125">
        <ele>1593.0</ele>
        <time>2022-11-13T14:14:11.000Z</time>
      </trkpt>
      <trkpt lat="37.28927" lon="-3.54012833">
        <ele>1594.0</ele>
        <time>2022-11-13T14:14:12.000Z</time>
      </trkpt>
      <trkpt lat="37.289265" lon="-3.54013167">
        <ele>1594.0</ele>
        <time>2022-11-13T14:14:13.000Z</time>
      </trkpt>
      <trkpt lat="37.28926167" lon="-3.54013667">
        <ele>1595.0</ele>
        <time>2022-11-13T14:14:14.000Z</time>
      </trkpt>
      <trkpt lat="37.28926" lon="-3.54014167">
        <ele>1596.0</ele>
        <time>2022-11-13T14:14:15.000Z</time>
      </trkpt>
      <trkpt lat="37.289255" lon="-3.54014667">
        <ele>1597.0</ele>
        <time>2022-11-13T14:14:16.000Z</time>
      </trkpt>
      <trkpt lat="37.28925" lon="-3.54015167">
        <ele>1598.0</ele>
        <time>2022-11-13T14:14:17.000Z</time>
      </trkpt>
      <trkpt lat="37.289245" lon="-3.54015833">
        <ele>1598.0</ele>
        <time>2022-11-13T14:14:18.000Z</time>
      </trkpt>
      <trkpt lat="37.28924" lon="-3.540165">
        <ele>1599.0</ele>
        <time>2022-11-13T14:14:19.000Z</time>
      </trkpt>
      <trkpt lat="37.28923667" lon="-3.54017167">
        <ele>1599.0</ele>
        <time>2022-11-13T14:14:20.000Z</time>
      </trkpt>
      <trkpt lat="37.28923333" lon="-3.54017667">
        <ele>1600.0</ele>
        <time>2022-11-13T14:14:21.000Z</time>
      </trkpt>
      <trkpt lat="37.28923" lon="-3.54018333">
        <ele>1601.0</ele>
        <time>2022-11-13T14:14:22.000Z</time>
      </trkpt>
      <trkpt lat="37.289225" lon="-3.54018833">
        <ele>1601.0</ele>
        <time>2022-11-13T14:14:23.000Z</time>
      </trkpt>
      <trkpt lat="37.28921667" lon="-3.54019">
        <ele>1602.0</ele>
        <time>2022-11-13T14:14:24.000Z</time>
      </trkpt>
      <trkpt lat="37.28920833" lon="-3.54019">
        <ele>1602.0</ele>
        <time>2022-11-13T14:14:25.000Z</time>
      </trkpt>
      <trkpt lat="37.28920167" lon="-3.540185">
        <ele>1602.0</ele>
        <time>2022-11-13T14:14:26.000Z</time>
      </trkpt>
      <trkpt lat="37.2892" lon="-3.54017833">
        <ele>1603.0</ele>
        <time>2022-11-13T14:14:27.000Z</time>
      </trkpt>
      <trkpt lat="37.28920167" lon="-3.54017333">
        <ele>1603.0</ele>
        <time>2022-11-13T14:14:28.000Z</time>
      </trkpt>
      <trkpt lat="37.28920167" lon="-3.54017167">
        <ele>1604.0</ele>
        <time>2022-11-13T14:14:29.000Z</time>
      </trkpt>
      <trkpt lat="37.28920167" lon="-3.54017">
        <ele>1604.0</ele>
        <time>2022-11-13T14:14:30.000Z</time>
      </trkpt>
      <trkpt lat="37.28920167" lon="-3.54016833">
        <ele>1604.0</ele>
        <time>2022-11-13T14:14:31.000Z</time>
      </trkpt>
      <trkpt lat="37.28920167" lon="-3.54016667">
        <ele>1604.0</ele>
        <time>2022-11-13T14:14:32.000Z</time>
      </trkpt>
      <trkpt lat="37.28920167" lon="-3.54016667">
        <ele>1604.0</ele>
        <time>2022-11-13T14:14:33.000Z</time>
      </trkpt>
      <trkpt lat="37.28920167" lon="-3.540165">
        <ele>1604.0</ele>
        <time>2022-11-13T14:14:34.000Z</time>
      </trkpt>
      <trkpt lat="37.28920167" lon="-3.540165">
        <ele>1604.0</ele>
        <time>2022-11-13T14:14:35.000Z</time>
      </trkpt>
      <trkpt lat="37.28920167" lon="-3.54016333">
        <ele>1604.0</ele>
        <time>2022-11-13T14:14:36.000Z</time>
      </trkpt>
      <trkpt lat="37.28920167" lon="-3.54016333">
        <ele>1605.0</ele>
        <time>2022-11-13T14:14:37.000Z</time>
      </trkpt>
      <trkpt lat="37.28920167" lon="-3.54016167">
        <ele>1605.0</ele>
        <time>2022-11-13T14:14:38.000Z</time>
      </trkpt>
      <trkpt lat="37.28920167" lon="-3.54016167">
        <ele>1605.0</ele>
        <time>2022-11-13T14:14:39.000Z</time>
      </trkpt>
      <trkpt lat="37.28920667" lon="-3.54016667">
        <ele>1605.0</ele>
        <time>2022-11-13T14:14:40.000Z</time>
      </trkpt>
      <trkpt lat="37.28921333" lon="-3.54017333">
        <ele>1605.0</ele>
        <time>2022-11-13T14:14:41.000Z</time>
      </trkpt>
      <trkpt lat="37.28922" lon="-3.54017833">
        <ele>1605.0</ele>
        <time>2022-11-13T14:14:42.000Z</time>
      </trkpt>
      <trkpt lat="37.28922333" lon="-3.54018">
        <ele>1605.0</ele>
        <time>2022-11-13T14:14:43.000Z</time>
      </trkpt>
      <trkpt lat="37.289225" lon="-3.54018">
        <ele>1605.0</ele>
        <time>2022-11-13T14:14:44.000Z</time>
      </trkpt>
      <trkpt lat="37.28923333" lon="-3.540185">
        <ele>1605.0</ele>
        <time>2022-11-13T14:14:45.000Z</time>
      </trkpt>
      <trkpt lat="37.28924" lon="-3.54019333">
        <ele>1605.0</ele>
        <time>2022-11-13T14:14:46.000Z</time>
      </trkpt>
      <trkpt lat="37.28924667" lon="-3.54020167">
        <ele>1605.0</ele>
        <time>2022-11-13T14:14:47.000Z</time>
      </trkpt>
      <trkpt lat="37.28925" lon="-3.54020833">
        <ele>1605.0</ele>
        <time>2022-11-13T14:14:48.000Z</time>
      </trkpt>
      <trkpt lat="37.28925" lon="-3.54021333">
        <ele>1605.0</ele>
        <time>2022-11-13T14:14:49.000Z</time>
      </trkpt>
      <trkpt lat="37.28925167" lon="-3.54021833">
        <ele>1605.0</ele>
        <time>2022-11-13T14:14:50.000Z</time>
      </trkpt>
      <trkpt lat="37.28925667" lon="-3.540225">
        <ele>1605.0</ele>
        <time>2022-11-13T14:14:51.000Z</time>
      </trkpt>
      <trkpt lat="37.28926333" lon="-3.54023167">
        <ele>1605.0</ele>
        <time>2022-11-13T14:14:52.000Z</time>
      </trkpt>
      <trkpt lat="37.289265" lon="-3.540235">
        <ele>1605.0</ele>
        <time>2022-11-13T14:14:53.000Z</time>
      </trkpt>
      <trkpt lat="37.289265" lon="-3.54023333">
        <ele>1605.0</ele>
        <time>2022-11-13T14:14:54.000Z</time>
      </trkpt>
      <trkpt lat="37.289265" lon="-3.54023333">
        <ele>1605.0</ele>
        <time>2022-11-13T14:14:55.000Z</time>
      </trkpt>
      <trkpt lat="37.289265" lon="-3.54023333">
        <ele>1605.0</ele>
        <time>2022-11-13T14:14:56.000Z</time>
      </trkpt>
      <trkpt lat="37.289265" lon="-3.54023167">
        <ele>1605.0</ele>
        <time>2022-11-13T14:14:57.000Z</time>
      </trkpt>
      <trkpt lat="37.289265" lon="-3.54023167">
        <ele>1605.0</ele>
        <time>2022-11-13T14:14:58.000Z</time>
      </trkpt>
      <trkpt lat="37.289265" lon="-3.54023167">
        <ele>1605.0</ele>
        <time>2022-11-13T14:14:59.000Z</time>
      </trkpt>
      <trkpt lat="37.289265" lon="-3.54023">
        <ele>1605.0</ele>
        <time>2022-11-13T14:15:00.000Z</time>
      </trkpt>
      <trkpt lat="37.28926667" lon="-3.54022833">
        <ele>1605.0</ele>
        <time>2022-11-13T14:15:01.000Z</time>
      </trkpt>
      <trkpt lat="37.28926667" lon="-3.540225">
        <ele>1605.0</ele>
        <time>2022-11-13T14:15:02.000Z</time>
      </trkpt>
      <trkpt lat="37.28926833" lon="-3.54022">
        <ele>1605.0</ele>
        <time>2022-11-13T14:15:03.000Z</time>
      </trkpt>
      <trkpt lat="37.28927167" lon="-3.54021167">
        <ele>1605.0</ele>
        <time>2022-11-13T14:15:04.000Z</time>
      </trkpt>
      <trkpt lat="37.28927333" lon="-3.54020667">
        <ele>1606.0</ele>
        <time>2022-11-13T14:15:05.000Z</time>
      </trkpt>
      <trkpt lat="37.28927667" lon="-3.54020167">
        <ele>1606.0</ele>
        <time>2022-11-13T14:15:06.000Z</time>
      </trkpt>
      <trkpt lat="37.28928" lon="-3.540195">
        <ele>1606.0</ele>
        <time>2022-11-13T14:15:07.000Z</time>
      </trkpt>
      <trkpt lat="37.289285" lon="-3.54019">
        <ele>1606.0</ele>
        <time>2022-11-13T14:15:08.000Z</time>
      </trkpt>
      <trkpt lat="37.289285" lon="-3.54018333">
        <ele>1606.0</ele>
        <time>2022-11-13T14:15:09.000Z</time>
      </trkpt>
      <trkpt lat="37.28929" lon="-3.54017667">
        <ele>1607.0</ele>
        <time>2022-11-13T14:15:10.000Z</time>
      </trkpt>
      <trkpt lat="37.28929667" lon="-3.54016833">
        <ele>1607.0</ele>
        <time>2022-11-13T14:15:11.000Z</time>
      </trkpt>
      <trkpt lat="37.289305" lon="-3.54016333">
        <ele>1607.0</ele>
        <time>2022-11-13T14:15:12.000Z</time>
      </trkpt>
      <trkpt lat="37.28931167" lon="-3.54016167">
        <ele>1607.0</ele>
        <time>2022-11-13T14:15:13.000Z</time>
      </trkpt>
      <trkpt lat="37.28932" lon="-3.54016">
        <ele>1608.0</ele>
        <time>2022-11-13T14:15:14.000Z</time>
      </trkpt>
      <trkpt lat="37.28932833" lon="-3.54016167">
        <ele>1608.0</ele>
        <time>2022-11-13T14:15:15.000Z</time>
      </trkpt>
      <trkpt lat="37.28933667" lon="-3.540165">
        <ele>1608.0</ele>
        <time>2022-11-13T14:15:16.000Z</time>
      </trkpt>
      <trkpt lat="37.28934167" lon="-3.54017">
        <ele>1609.0</ele>
        <time>2022-11-13T14:15:17.000Z</time>
      </trkpt>
      <trkpt lat="37.28934167" lon="-3.54018">
        <ele>1609.0</ele>
        <time>2022-11-13T14:15:18.000Z</time>
      </trkpt>
      <trkpt lat="37.28933667" lon="-3.54018833">
        <ele>1609.0</ele>
        <time>2022-11-13T14:15:19.000Z</time>
      </trkpt>
      <trkpt lat="37.28933" lon="-3.54019833">
        <ele>1610.0</ele>
        <time>2022-11-13T14:15:20.000Z</time>
      </trkpt>
      <trkpt lat="37.28932333" lon="-3.54020833">
        <ele>1610.0</ele>
        <time>2022-11-13T14:15:21.000Z</time>
      </trkpt>
      <trkpt lat="37.28932167" lon="-3.54021333">
        <ele>1610.0</ele>
        <time>2022-11-13T14:15:22.000Z</time>
      </trkpt>
      <trkpt lat="37.28932333" lon="-3.54021333">
        <ele>1610.0</ele>
        <time>2022-11-13T14:15:23.000Z</time>
      </trkpt>
      <trkpt lat="37.28932833" lon="-3.54021667">
        <ele>1611.0</ele>
        <time>2022-11-13T14:15:24.000Z</time>
      </trkpt>
      <trkpt lat="37.28933333" lon="-3.54021833">
        <ele>1611.0</ele>
        <time>2022-11-13T14:15:25.000Z</time>
      </trkpt>
      <trkpt lat="37.28934" lon="-3.54022">
        <ele>1611.0</ele>
        <time>2022-11-13T14:15:26.000Z</time>
      </trkpt>
      <trkpt lat="37.28934667" lon="-3.54022167">
        <ele>1612.0</ele>
        <time>2022-11-13T14:15:27.000Z</time>
      </trkpt>
      <trkpt lat="37.28935333" lon="-3.54022167">
        <ele>1612.0</ele>
        <time>2022-11-13T14:15:28.000Z</time>
      </trkpt>
      <trkpt lat="37.28935833" lon="-3.54022333">
        <ele>1612.0</ele>
        <time>2022-11-13T14:15:29.000Z</time>
      </trkpt>
      <trkpt lat="37.28936333" lon="-3.54022333">
        <ele>1612.0</ele>
        <time>2022-11-13T14:15:30.000Z</time>
      </trkpt>
      <trkpt lat="37.28936833" lon="-3.540225">
        <ele>1613.0</ele>
        <time>2022-11-13T14:15:31.000Z</time>
      </trkpt>
      <trkpt lat="37.28937333" lon="-3.540225">
        <ele>1613.0</ele>
        <time>2022-11-13T14:15:32.000Z</time>
      </trkpt>
      <trkpt lat="37.28937667" lon="-3.540225">
        <ele>1613.0</ele>
        <time>2022-11-13T14:15:33.000Z</time>
      </trkpt>
      <trkpt lat="37.28937833" lon="-3.54022333">
        <ele>1613.0</ele>
        <time>2022-11-13T14:15:34.000Z</time>
      </trkpt>
      <trkpt lat="37.28937833" lon="-3.54022333">
        <ele>1613.0</ele>
        <time>2022-11-13T14:15:35.000Z</time>
      </trkpt>
      <trkpt lat="37.28937833" lon="-3.54022333">
        <ele>1613.0</ele>
        <time>2022-11-13T14:15:36.000Z</time>
      </trkpt>
      <trkpt lat="37.28938" lon="-3.54022167">
        <ele>1614.0</ele>
        <time>2022-11-13T14:15:37.000Z</time>
      </trkpt>
      <trkpt lat="37.28938167" lon="-3.54022167">
        <ele>1614.0</ele>
        <time>2022-11-13T14:15:38.000Z</time>
      </trkpt>
      <trkpt lat="37.28938167" lon="-3.54022167">
        <ele>1614.0</ele>
        <time>2022-11-13T14:15:39.000Z</time>
      </trkpt>
      <trkpt lat="37.28938" lon="-3.54022333">
        <ele>1614.0</ele>
        <time>2022-11-13T14:15:40.000Z</time>
      </trkpt>
      <trkpt lat="37.28938" lon="-3.540225">
        <ele>1614.0</ele>
        <time>2022-11-13T14:15:41.000Z</time>
      </trkpt>
      <trkpt lat="37.28938" lon="-3.540225">
        <ele>1614.0</ele>
        <time>2022-11-13T14:15:42.000Z</time>
      </trkpt>
      <trkpt lat="37.28938" lon="-3.540225">
        <ele>1614.0</ele>
        <time>2022-11-13T14:15:43.000Z</time>
      </trkpt>
      <trkpt lat="37.28938" lon="-3.540225">
        <ele>1615.0</ele>
        <time>2022-11-13T14:15:44.000Z</time>
      </trkpt>
      <trkpt lat="37.28938" lon="-3.540225">
        <ele>1615.0</ele>
        <time>2022-11-13T14:15:45.000Z</time>
      </trkpt>
      <trkpt lat="37.28938333" lon="-3.54022333">
        <ele>1615.0</ele>
        <time>2022-11-13T14:15:46.000Z</time>
      </trkpt>
      <trkpt lat="37.28938833" lon="-3.54022333">
        <ele>1615.0</ele>
        <time>2022-11-13T14:15:47.000Z</time>
      </trkpt>
      <trkpt lat="37.28939333" lon="-3.54022333">
        <ele>1615.0</ele>
        <time>2022-11-13T14:15:48.000Z</time>
      </trkpt>
      <trkpt lat="37.28939833" lon="-3.54022333">
        <ele>1615.0</ele>
        <time>2022-11-13T14:15:49.000Z</time>
      </trkpt>
      <trkpt lat="37.28940333" lon="-3.54022167">
        <ele>1615.0</ele>
        <time>2022-11-13T14:15:50.000Z</time>
      </trkpt>
      <trkpt lat="37.28940833" lon="-3.54022167">
        <ele>1615.0</ele>
        <time>2022-11-13T14:15:51.000Z</time>
      </trkpt>
      <trkpt lat="37.28941167" lon="-3.54022333">
        <ele>1616.0</ele>
        <time>2022-11-13T14:15:52.000Z</time>
      </trkpt>
      <trkpt lat="37.28941667" lon="-3.54022833">
        <ele>1616.0</ele>
        <time>2022-11-13T14:15:53.000Z</time>
      </trkpt>
      <trkpt lat="37.28942" lon="-3.54023667">
        <ele>1616.0</ele>
        <time>2022-11-13T14:15:54.000Z</time>
      </trkpt>
      <trkpt lat="37.28941667" lon="-3.540245">
        <ele>1616.0</ele>
        <time>2022-11-13T14:15:55.000Z</time>
      </trkpt>
      <trkpt lat="37.28941333" lon="-3.54025333">
        <ele>1616.0</ele>
        <time>2022-11-13T14:15:56.000Z</time>
      </trkpt>
      <trkpt lat="37.28940833" lon="-3.54025833">
        <ele>1616.0</ele>
        <time>2022-11-13T14:15:57.000Z</time>
      </trkpt>
      <trkpt lat="37.28940667" lon="-3.540265">
        <ele>1616.0</ele>
        <time>2022-11-13T14:15:58.000Z</time>
      </trkpt>
      <trkpt lat="37.28940333" lon="-3.54027">
        <ele>1616.0</ele>
        <time>2022-11-13T14:15:59.000Z</time>
      </trkpt>
      <trkpt lat="37.28939833" lon="-3.54027667">
        <ele>1616.0</ele>
        <time>2022-11-13T14:16:00.000Z</time>
      </trkpt>
      <trkpt lat="37.28939333" lon="-3.54028167">
        <ele>1616.0</ele>
        <time>2022-11-13T14:16:01.000Z</time>
      </trkpt>
      <trkpt lat="37.28939" lon="-3.54028667">
        <ele>1616.0</ele>
        <time>2022-11-13T14:16:02.000Z</time>
      </trkpt>
      <trkpt lat="37.28939" lon="-3.54029">
        <ele>1616.0</ele>
        <time>2022-11-13T14:16:03.000Z</time>
      </trkpt>
      <trkpt lat="37.28939" lon="-3.54029833">
        <ele>1616.0</ele>
        <time>2022-11-13T14:16:04.000Z</time>
      </trkpt>
      <trkpt lat="37.28938833" lon="-3.54030333">
        <ele>1617.0</ele>
        <time>2022-11-13T14:16:05.000Z</time>
      </trkpt>
      <trkpt lat="37.28938333" lon="-3.54030833">
        <ele>1617.0</ele>
        <time>2022-11-13T14:16:06.000Z</time>
      </trkpt>
      <trkpt lat="37.28938167" lon="-3.540315">
        <ele>1617.0</ele>
        <time>2022-11-13T14:16:07.000Z</time>
      </trkpt>
      <trkpt lat="37.28938167" lon="-3.54032333">
        <ele>1617.0</ele>
        <time>2022-11-13T14:16:08.000Z</time>
      </trkpt>
      <trkpt lat="37.289385" lon="-3.54033">
        <ele>1617.0</ele>
        <time>2022-11-13T14:16:09.000Z</time>
      </trkpt>
      <trkpt lat="37.28939" lon="-3.540335">
        <ele>1617.0</ele>
        <time>2022-11-13T14:16:10.000Z</time>
      </trkpt>
      <trkpt lat="37.289395" lon="-3.54033833">
        <ele>1617.0</ele>
        <time>2022-11-13T14:16:11.000Z</time>
      </trkpt>
      <trkpt lat="37.28939833" lon="-3.54034">
        <ele>1617.0</ele>
        <time>2022-11-13T14:16:12.000Z</time>
      </trkpt>
      <trkpt lat="37.28940167" lon="-3.54034333">
        <ele>1617.0</ele>
        <time>2022-11-13T14:16:13.000Z</time>
      </trkpt>
      <trkpt lat="37.289405" lon="-3.54034333">
        <ele>1617.0</ele>
        <time>2022-11-13T14:16:14.000Z</time>
      </trkpt>
      <trkpt lat="37.28940667" lon="-3.54034333">
        <ele>1617.0</ele>
        <time>2022-11-13T14:16:15.000Z</time>
      </trkpt>
      <trkpt lat="37.28941167" lon="-3.54034167">
        <ele>1618.0</ele>
        <time>2022-11-13T14:16:16.000Z</time>
      </trkpt>
      <trkpt lat="37.28941667" lon="-3.54033833">
        <ele>1618.0</ele>
        <time>2022-11-13T14:16:17.000Z</time>
      </trkpt>
      <trkpt lat="37.28942333" lon="-3.540335">
        <ele>1618.0</ele>
        <time>2022-11-13T14:16:18.000Z</time>
      </trkpt>
      <trkpt lat="37.28942833" lon="-3.540335">
        <ele>1618.0</ele>
        <time>2022-11-13T14:16:19.000Z</time>
      </trkpt>
      <trkpt lat="37.28943333" lon="-3.54033833">
        <ele>1619.0</ele>
        <time>2022-11-13T14:16:20.000Z</time>
      </trkpt>
      <trkpt lat="37.28943667" lon="-3.540345">
        <ele>1619.0</ele>
        <time>2022-11-13T14:16:21.000Z</time>
      </trkpt>
      <trkpt lat="37.28943667" lon="-3.54035167">
        <ele>1619.0</ele>
        <time>2022-11-13T14:16:22.000Z</time>
      </trkpt>
      <trkpt lat="37.28943333" lon="-3.54035833">
        <ele>1619.0</ele>
        <time>2022-11-13T14:16:23.000Z</time>
      </trkpt>
      <trkpt lat="37.28943333" lon="-3.540365">
        <ele>1619.0</ele>
        <time>2022-11-13T14:16:24.000Z</time>
      </trkpt>
      <trkpt lat="37.28943167" lon="-3.54037333">
        <ele>1619.0</ele>
        <time>2022-11-13T14:16:25.000Z</time>
      </trkpt>
      <trkpt lat="37.28943" lon="-3.54038167">
        <ele>1619.0</ele>
        <time>2022-11-13T14:16:26.000Z</time>
      </trkpt>
      <trkpt lat="37.28942833" lon="-3.54039167">
        <ele>1619.0</ele>
        <time>2022-11-13T14:16:27.000Z</time>
      </trkpt>
      <trkpt lat="37.289425" lon="-3.5404">
        <ele>1619.0</ele>
        <time>2022-11-13T14:16:28.000Z</time>
      </trkpt>
      <trkpt lat="37.28942" lon="-3.54040333">
        <ele>1619.0</ele>
        <time>2022-11-13T14:16:29.000Z</time>
      </trkpt>
      <trkpt lat="37.28941667" lon="-3.54040667">
        <ele>1620.0</ele>
        <time>2022-11-13T14:16:30.000Z</time>
      </trkpt>
      <trkpt lat="37.28941333" lon="-3.54041167">
        <ele>1620.0</ele>
        <time>2022-11-13T14:16:31.000Z</time>
      </trkpt>
      <trkpt lat="37.28940833" lon="-3.54041833">
        <ele>1620.0</ele>
        <time>2022-11-13T14:16:32.000Z</time>
      </trkpt>
      <trkpt lat="37.289405" lon="-3.540425">
        <ele>1620.0</ele>
        <time>2022-11-13T14:16:33.000Z</time>
      </trkpt>
      <trkpt lat="37.28940333" lon="-3.54043">
        <ele>1620.0</ele>
        <time>2022-11-13T14:16:34.000Z</time>
      </trkpt>
      <trkpt lat="37.289405" lon="-3.540435">
        <ele>1620.0</ele>
        <time>2022-11-13T14:16:35.000Z</time>
      </trkpt>
      <trkpt lat="37.28940667" lon="-3.54044">
        <ele>1621.0</ele>
        <time>2022-11-13T14:16:36.000Z</time>
      </trkpt>
      <trkpt lat="37.28941" lon="-3.54044333">
        <ele>1621.0</ele>
        <time>2022-11-13T14:16:37.000Z</time>
      </trkpt>
      <trkpt lat="37.289415" lon="-3.54044667">
        <ele>1621.0</ele>
        <time>2022-11-13T14:16:38.000Z</time>
      </trkpt>
      <trkpt lat="37.28941833" lon="-3.54045167">
        <ele>1621.0</ele>
        <time>2022-11-13T14:16:39.000Z</time>
      </trkpt>
      <trkpt lat="37.28942" lon="-3.54045667">
        <ele>1622.0</ele>
        <time>2022-11-13T14:16:40.000Z</time>
      </trkpt>
      <trkpt lat="37.28942167" lon="-3.54046333">
        <ele>1622.0</ele>
        <time>2022-11-13T14:16:41.000Z</time>
      </trkpt>
      <trkpt lat="37.28942333" lon="-3.54046833">
        <ele>1622.0</ele>
        <time>2022-11-13T14:16:42.000Z</time>
      </trkpt>
      <trkpt lat="37.28942333" lon="-3.54047333">
        <ele>1622.0</ele>
        <time>2022-11-13T14:16:43.000Z</time>
      </trkpt>
      <trkpt lat="37.28941833" lon="-3.540475">
        <ele>1622.0</ele>
        <time>2022-11-13T14:16:44.000Z</time>
      </trkpt>
      <trkpt lat="37.28941167" lon="-3.540475">
        <ele>1623.0</ele>
        <time>2022-11-13T14:16:45.000Z</time>
      </trkpt>
      <trkpt lat="37.28940667" lon="-3.54047667">
        <ele>1623.0</ele>
        <time>2022-11-13T14:16:46.000Z</time>
      </trkpt>
      <trkpt lat="37.28940333" lon="-3.54047833">
        <ele>1623.0</ele>
        <time>2022-11-13T14:16:47.000Z</time>
      </trkpt>
      <trkpt lat="37.2894" lon="-3.540485">
        <ele>1623.0</ele>
        <time>2022-11-13T14:16:48.000Z</time>
      </trkpt>
      <trkpt lat="37.28939833" lon="-3.54049167">
        <ele>1624.0</ele>
        <time>2022-11-13T14:16:49.000Z</time>
      </trkpt>
      <trkpt lat="37.28939167" lon="-3.54049667">
        <ele>1624.0</ele>
        <time>2022-11-13T14:16:50.000Z</time>
      </trkpt>
      <trkpt lat="37.28938667" lon="-3.54050167">
        <ele>1624.0</ele>
        <time>2022-11-13T14:16:51.000Z</time>
      </trkpt>
      <trkpt lat="37.28938167" lon="-3.54050667">
        <ele>1624.0</ele>
        <time>2022-11-13T14:16:52.000Z</time>
      </trkpt>
      <trkpt lat="37.28937667" lon="-3.54051167">
        <ele>1624.0</ele>
        <time>2022-11-13T14:16:53.000Z</time>
      </trkpt>
      <trkpt lat="37.28937167" lon="-3.540515">
        <ele>1625.0</ele>
        <time>2022-11-13T14:16:54.000Z</time>
      </trkpt>
      <trkpt lat="37.28936833" lon="-3.54052">
        <ele>1625.0</ele>
        <time>2022-11-13T14:16:55.000Z</time>
      </trkpt>
      <trkpt lat="37.289365" lon="-3.54052667">
        <ele>1625.0</ele>
        <time>2022-11-13T14:16:56.000Z</time>
      </trkpt>
      <trkpt lat="37.28936333" lon="-3.54053167">
        <ele>1625.0</ele>
        <time>2022-11-13T14:16:57.000Z</time>
      </trkpt>
      <trkpt lat="37.28936333" lon="-3.54053667">
        <ele>1626.0</ele>
        <time>2022-11-13T14:16:58.000Z</time>
      </trkpt>
      <trkpt lat="37.28936167" lon="-3.540545">
        <ele>1626.0</ele>
        <time>2022-11-13T14:16:59.000Z</time>
      </trkpt>
      <trkpt lat="37.28935833" lon="-3.54055">
        <ele>1626.0</ele>
        <time>2022-11-13T14:17:00.000Z</time>
      </trkpt>
      <trkpt lat="37.289355" lon="-3.540555">
        <ele>1627.0</ele>
        <time>2022-11-13T14:17:01.000Z</time>
      </trkpt>
      <trkpt lat="37.28935" lon="-3.54056">
        <ele>1627.0</ele>
        <time>2022-11-13T14:17:02.000Z</time>
      </trkpt>
      <trkpt lat="37.289345" lon="-3.54056333">
        <ele>1627.0</ele>
        <time>2022-11-13T14:17:03.000Z</time>
      </trkpt>
      <trkpt lat="37.28934333" lon="-3.540565">
        <ele>1627.0</ele>
        <time>2022-11-13T14:17:04.000Z</time>
      </trkpt>
      <trkpt lat="37.28934167" lon="-3.54057167">
        <ele>1628.0</ele>
        <time>2022-11-13T14:17:05.000Z</time>
      </trkpt>
      <trkpt lat="37.28934" lon="-3.54057833">
        <ele>1628.0</ele>
        <time>2022-11-13T14:17:06.000Z</time>
      </trkpt>
      <trkpt lat="37.28934167" lon="-3.540585">
        <ele>1628.0</ele>
        <time>2022-11-13T14:17:07.000Z</time>
      </trkpt>
      <trkpt lat="37.28934167" lon="-3.54058833">
        <ele>1628.0</ele>
        <time>2022-11-13T14:17:08.000Z</time>
      </trkpt>
      <trkpt lat="37.289345" lon="-3.54059167">
        <ele>1628.0</ele>
        <time>2022-11-13T14:17:09.000Z</time>
      </trkpt>
      <trkpt lat="37.28934667" lon="-3.54059333">
        <ele>1629.0</ele>
        <time>2022-11-13T14:17:10.000Z</time>
      </trkpt>
      <trkpt lat="37.28935" lon="-3.54059333">
        <ele>1629.0</ele>
        <time>2022-11-13T14:17:11.000Z</time>
      </trkpt>
      <trkpt lat="37.28935333" lon="-3.54059333">
        <ele>1629.0</ele>
        <time>2022-11-13T14:17:12.000Z</time>
      </trkpt>
      <trkpt lat="37.28935833" lon="-3.54059167">
        <ele>1629.0</ele>
        <time>2022-11-13T14:17:13.000Z</time>
      </trkpt>
      <trkpt lat="37.28936333" lon="-3.54058833">
        <ele>1629.0</ele>
        <time>2022-11-13T14:17:14.000Z</time>
      </trkpt>
      <trkpt lat="37.28937167" lon="-3.54059167">
        <ele>1630.0</ele>
        <time>2022-11-13T14:17:15.000Z</time>
      </trkpt>
      <trkpt lat="37.28937833" lon="-3.54059333">
        <ele>1630.0</ele>
        <time>2022-11-13T14:17:16.000Z</time>
      </trkpt>
      <trkpt lat="37.28938167" lon="-3.54059333">
        <ele>1630.0</ele>
        <time>2022-11-13T14:17:17.000Z</time>
      </trkpt>
      <trkpt lat="37.28938667" lon="-3.54059333">
        <ele>1630.0</ele>
        <time>2022-11-13T14:17:18.000Z</time>
      </trkpt>
      <trkpt lat="37.28938833" lon="-3.54059">
        <ele>1631.0</ele>
        <time>2022-11-13T14:17:19.000Z</time>
      </trkpt>
      <trkpt lat="37.28939333" lon="-3.54058667">
        <ele>1631.0</ele>
        <time>2022-11-13T14:17:20.000Z</time>
      </trkpt>
      <trkpt lat="37.289395" lon="-3.54058667">
        <ele>1631.0</ele>
        <time>2022-11-13T14:17:21.000Z</time>
      </trkpt>
      <trkpt lat="37.289395" lon="-3.54058667">
        <ele>1631.0</ele>
        <time>2022-11-13T14:17:22.000Z</time>
      </trkpt>
      <trkpt lat="37.289395" lon="-3.540585">
        <ele>1631.0</ele>
        <time>2022-11-13T14:17:23.000Z</time>
      </trkpt>
      <trkpt lat="37.289395" lon="-3.540585">
        <ele>1632.0</ele>
        <time>2022-11-13T14:17:24.000Z</time>
      </trkpt>
      <trkpt lat="37.289395" lon="-3.540585">
        <ele>1632.0</ele>
        <time>2022-11-13T14:17:25.000Z</time>
      </trkpt>
      <trkpt lat="37.28939667" lon="-3.54058667">
        <ele>1632.0</ele>
        <time>2022-11-13T14:17:26.000Z</time>
      </trkpt>
      <trkpt lat="37.2894" lon="-3.54058667">
        <ele>1632.0</ele>
        <time>2022-11-13T14:17:27.000Z</time>
      </trkpt>
      <trkpt lat="37.28940167" lon="-3.54058333">
        <ele>1632.0</ele>
        <time>2022-11-13T14:17:28.000Z</time>
      </trkpt>
      <trkpt lat="37.289405" lon="-3.54058333">
        <ele>1632.0</ele>
        <time>2022-11-13T14:17:29.000Z</time>
      </trkpt>
      <trkpt lat="37.28941" lon="-3.54058667">
        <ele>1633.0</ele>
        <time>2022-11-13T14:17:30.000Z</time>
      </trkpt>
      <trkpt lat="37.289415" lon="-3.54059167">
        <ele>1633.0</ele>
        <time>2022-11-13T14:17:31.000Z</time>
      </trkpt>
      <trkpt lat="37.28942" lon="-3.5406">
        <ele>1633.0</ele>
        <time>2022-11-13T14:17:32.000Z</time>
      </trkpt>
      <trkpt lat="37.28942167" lon="-3.54060833">
        <ele>1633.0</ele>
        <time>2022-11-13T14:17:33.000Z</time>
      </trkpt>
      <trkpt lat="37.28942333" lon="-3.54061833">
        <ele>1633.0</ele>
        <time>2022-11-13T14:17:34.000Z</time>
      </trkpt>
      <trkpt lat="37.28942167" lon="-3.54062833">
        <ele>1633.0</ele>
        <time>2022-11-13T14:17:35.000Z</time>
      </trkpt>
      <trkpt lat="37.289415" lon="-3.54063333">
        <ele>1633.0</ele>
        <time>2022-11-13T14:17:36.000Z</time>
      </trkpt>
      <trkpt lat="37.289405" lon="-3.54064">
        <ele>1633.0</ele>
        <time>2022-11-13T14:17:37.000Z</time>
      </trkpt>
      <trkpt lat="37.28939667" lon="-3.54064667">
        <ele>1634.0</ele>
        <time>2022-11-13T14:17:38.000Z</time>
      </trkpt>
      <trkpt lat="37.28939333" lon="-3.54065">
        <ele>1634.0</ele>
        <time>2022-11-13T14:17:39.000Z</time>
      </trkpt>
      <trkpt lat="37.28938833" lon="-3.54065667">
        <ele>1634.0</ele>
        <time>2022-11-13T14:17:40.000Z</time>
      </trkpt>
      <trkpt lat="37.28938667" lon="-3.54066167">
        <ele>1634.0</ele>
        <time>2022-11-13T14:17:41.000Z</time>
      </trkpt>
      <trkpt lat="37.28938167" lon="-3.54067333">
        <ele>1634.0</ele>
        <time>2022-11-13T14:17:42.000Z</time>
      </trkpt>
      <trkpt lat="37.28937667" lon="-3.54067833">
        <ele>1634.0</ele>
        <time>2022-11-13T14:17:43.000Z</time>
      </trkpt>
      <trkpt lat="37.28937333" lon="-3.54068667">
        <ele>1635.0</ele>
        <time>2022-11-13T14:17:44.000Z</time>
      </trkpt>
      <trkpt lat="37.28937" lon="-3.54069667">
        <ele>1635.0</ele>
        <time>2022-11-13T14:17:45.000Z</time>
      </trkpt>
      <trkpt lat="37.28937" lon="-3.54070333">
        <ele>1635.0</ele>
        <time>2022-11-13T14:17:46.000Z</time>
      </trkpt>
      <trkpt lat="37.28936833" lon="-3.540705">
        <ele>1635.0</ele>
        <time>2022-11-13T14:17:47.000Z</time>
      </trkpt>
      <trkpt lat="37.28936833" lon="-3.54070667">
        <ele>1635.0</ele>
        <time>2022-11-13T14:17:48.000Z</time>
      </trkpt>
      <trkpt lat="37.28936833" lon="-3.540705">
        <ele>1635.0</ele>
        <time>2022-11-13T14:17:49.000Z</time>
      </trkpt>
      <trkpt lat="37.28936833" lon="-3.54070667">
        <ele>1636.0</ele>
        <time>2022-11-13T14:17:50.000Z</time>
      </trkpt>
      <trkpt lat="37.28936833" lon="-3.54070833">
        <ele>1636.0</ele>
        <time>2022-11-13T14:17:51.000Z</time>
      </trkpt>
      <trkpt lat="37.28937167" lon="-3.540715">
        <ele>1636.0</ele>
        <time>2022-11-13T14:17:52.000Z</time>
      </trkpt>
      <trkpt lat="37.289375" lon="-3.54072333">
        <ele>1636.0</ele>
        <time>2022-11-13T14:17:53.000Z</time>
      </trkpt>
      <trkpt lat="37.28938" lon="-3.54073">
        <ele>1636.0</ele>
        <time>2022-11-13T14:17:54.000Z</time>
      </trkpt>
      <trkpt lat="37.289385" lon="-3.54073333">
        <ele>1636.0</ele>
        <time>2022-11-13T14:17:55.000Z</time>
      </trkpt>
      <trkpt lat="37.28938833" lon="-3.54073833">
        <ele>1636.0</ele>
        <time>2022-11-13T14:17:56.000Z</time>
      </trkpt>
      <trkpt lat="37.28939" lon="-3.54075">
        <ele>1636.0</ele>
        <time>2022-11-13T14:17:57.000Z</time>
      </trkpt>
      <trkpt lat="37.28939167" lon="-3.54075833">
        <ele>1636.0</ele>
        <time>2022-11-13T14:17:58.000Z</time>
      </trkpt>
      <trkpt lat="37.28939667" lon="-3.540765">
        <ele>1636.0</ele>
        <time>2022-11-13T14:17:59.000Z</time>
      </trkpt>
      <trkpt lat="37.28940167" lon="-3.54077167">
        <ele>1636.0</ele>
        <time>2022-11-13T14:18:00.000Z</time>
      </trkpt>
      <trkpt lat="37.28940667" lon="-3.540785">
        <ele>1636.0</ele>
        <time>2022-11-13T14:18:01.000Z</time>
      </trkpt>
      <trkpt lat="37.28941167" lon="-3.5408">
        <ele>1636.0</ele>
        <time>2022-11-13T14:18:02.000Z</time>
      </trkpt>
      <trkpt lat="37.28941833" lon="-3.54081167">
        <ele>1636.0</ele>
        <time>2022-11-13T14:18:03.000Z</time>
      </trkpt>
      <trkpt lat="37.28942333" lon="-3.54082167">
        <ele>1636.0</ele>
        <time>2022-11-13T14:18:04.000Z</time>
      </trkpt>
      <trkpt lat="37.28942667" lon="-3.54083333">
        <ele>1636.0</ele>
        <time>2022-11-13T14:18:05.000Z</time>
      </trkpt>
      <trkpt lat="37.28943167" lon="-3.54084167">
        <ele>1636.0</ele>
        <time>2022-11-13T14:18:06.000Z</time>
      </trkpt>
      <trkpt lat="37.28943667" lon="-3.54085167">
        <ele>1637.0</ele>
        <time>2022-11-13T14:18:07.000Z</time>
      </trkpt>
      <trkpt lat="37.28944" lon="-3.54086333">
        <ele>1637.0</ele>
        <time>2022-11-13T14:18:08.000Z</time>
      </trkpt>
      <trkpt lat="37.28944167" lon="-3.540875">
        <ele>1637.0</ele>
        <time>2022-11-13T14:18:09.000Z</time>
      </trkpt>
      <trkpt lat="37.28944333" lon="-3.540885">
        <ele>1637.0</ele>
        <time>2022-11-13T14:18:10.000Z</time>
      </trkpt>
      <trkpt lat="37.28944333" lon="-3.54089333">
        <ele>1637.0</ele>
        <time>2022-11-13T14:18:11.000Z</time>
      </trkpt>
      <trkpt lat="37.28944167" lon="-3.54090167">
        <ele>1637.0</ele>
        <time>2022-11-13T14:18:12.000Z</time>
      </trkpt>
      <trkpt lat="37.28944" lon="-3.54091167">
        <ele>1637.0</ele>
        <time>2022-11-13T14:18:13.000Z</time>
      </trkpt>
      <trkpt lat="37.28943833" lon="-3.54091833">
        <ele>1638.0</ele>
        <time>2022-11-13T14:18:14.000Z</time>
      </trkpt>
      <trkpt lat="37.28943667" lon="-3.540925">
        <ele>1638.0</ele>
        <time>2022-11-13T14:18:15.000Z</time>
      </trkpt>
      <trkpt lat="37.289435" lon="-3.54093167">
        <ele>1638.0</ele>
        <time>2022-11-13T14:18:16.000Z</time>
      </trkpt>
      <trkpt lat="37.28943333" lon="-3.54094">
        <ele>1638.0</ele>
        <time>2022-11-13T14:18:17.000Z</time>
      </trkpt>
      <trkpt lat="37.28943333" lon="-3.54095">
        <ele>1638.0</ele>
        <time>2022-11-13T14:18:18.000Z</time>
      </trkpt>
      <trkpt lat="37.289435" lon="-3.54095833">
        <ele>1638.0</ele>
        <time>2022-11-13T14:18:19.000Z</time>
      </trkpt>
      <trkpt lat="37.289435" lon="-3.54096833">
        <ele>1638.0</ele>
        <time>2022-11-13T14:18:20.000Z</time>
      </trkpt>
      <trkpt lat="37.28943333" lon="-3.540975">
        <ele>1638.0</ele>
        <time>2022-11-13T14:18:21.000Z</time>
      </trkpt>
      <trkpt lat="37.28943167" lon="-3.54098">
        <ele>1638.0</ele>
        <time>2022-11-13T14:18:22.000Z</time>
      </trkpt>
      <trkpt lat="37.28943" lon="-3.54098667">
        <ele>1639.0</ele>
        <time>2022-11-13T14:18:23.000Z</time>
      </trkpt>
      <trkpt lat="37.28942667" lon="-3.540995">
        <ele>1639.0</ele>
        <time>2022-11-13T14:18:24.000Z</time>
      </trkpt>
      <trkpt lat="37.289425" lon="-3.54100167">
        <ele>1639.0</ele>
        <time>2022-11-13T14:18:25.000Z</time>
      </trkpt>
      <trkpt lat="37.28942" lon="-3.54101">
        <ele>1639.0</ele>
        <time>2022-11-13T14:18:26.000Z</time>
      </trkpt>
      <trkpt lat="37.28941667" lon="-3.54101667">
        <ele>1639.0</ele>
        <time>2022-11-13T14:18:27.000Z</time>
      </trkpt>
      <trkpt lat="37.28941167" lon="-3.54102333">
        <ele>1639.0</ele>
        <time>2022-11-13T14:18:28.000Z</time>
      </trkpt>
      <trkpt lat="37.28941167" lon="-3.54103167">
        <ele>1639.0</ele>
        <time>2022-11-13T14:18:29.000Z</time>
      </trkpt>
      <trkpt lat="37.28941" lon="-3.54104667">
        <ele>1639.0</ele>
        <time>2022-11-13T14:18:30.000Z</time>
      </trkpt>
      <trkpt lat="37.289405" lon="-3.54105667">
        <ele>1639.0</ele>
        <time>2022-11-13T14:18:31.000Z</time>
      </trkpt>
      <trkpt lat="37.2894" lon="-3.54106667">
        <ele>1640.0</ele>
        <time>2022-11-13T14:18:32.000Z</time>
      </trkpt>
      <trkpt lat="37.28939667" lon="-3.54107833">
        <ele>1640.0</ele>
        <time>2022-11-13T14:18:33.000Z</time>
      </trkpt>
      <trkpt lat="37.28939" lon="-3.54109167">
        <ele>1640.0</ele>
        <time>2022-11-13T14:18:34.000Z</time>
      </trkpt>
      <trkpt lat="37.28938333" lon="-3.541105">
        <ele>1640.0</ele>
        <time>2022-11-13T14:18:35.000Z</time>
      </trkpt>
      <trkpt lat="37.28937667" lon="-3.54111667">
        <ele>1640.0</ele>
        <time>2022-11-13T14:18:36.000Z</time>
      </trkpt>
      <trkpt lat="37.28937333" lon="-3.54112667">
        <ele>1640.0</ele>
        <time>2022-11-13T14:18:37.000Z</time>
      </trkpt>
      <trkpt lat="37.28937" lon="-3.54113833">
        <ele>1641.0</ele>
        <time>2022-11-13T14:18:38.000Z</time>
      </trkpt>
      <trkpt lat="37.28936833" lon="-3.54114833">
        <ele>1641.0</ele>
        <time>2022-11-13T14:18:39.000Z</time>
      </trkpt>
      <trkpt lat="37.28936833" lon="-3.54116167">
        <ele>1641.0</ele>
        <time>2022-11-13T14:18:40.000Z</time>
      </trkpt>
      <trkpt lat="37.28936667" lon="-3.541175">
        <ele>1641.0</ele>
        <time>2022-11-13T14:18:41.000Z</time>
      </trkpt>
      <trkpt lat="37.289365" lon="-3.541185">
        <ele>1642.0</ele>
        <time>2022-11-13T14:18:42.000Z</time>
      </trkpt>
      <trkpt lat="37.289365" lon="-3.54119667">
        <ele>1642.0</ele>
        <time>2022-11-13T14:18:43.000Z</time>
      </trkpt>
      <trkpt lat="37.28936333" lon="-3.54120333">
        <ele>1642.0</ele>
        <time>2022-11-13T14:18:44.000Z</time>
      </trkpt>
      <trkpt lat="37.28937" lon="-3.54121">
        <ele>1642.0</ele>
        <time>2022-11-13T14:18:45.000Z</time>
      </trkpt>
      <trkpt lat="37.289375" lon="-3.54121833">
        <ele>1643.0</ele>
        <time>2022-11-13T14:18:46.000Z</time>
      </trkpt>
      <trkpt lat="37.28937833" lon="-3.54122667">
        <ele>1643.0</ele>
        <time>2022-11-13T14:18:47.000Z</time>
      </trkpt>
      <trkpt lat="37.28938" lon="-3.54123333">
        <ele>1643.0</ele>
        <time>2022-11-13T14:18:48.000Z</time>
      </trkpt>
      <trkpt lat="37.28938" lon="-3.54124">
        <ele>1644.0</ele>
        <time>2022-11-13T14:18:49.000Z</time>
      </trkpt>
      <trkpt lat="37.28937833" lon="-3.54124333">
        <ele>1644.0</ele>
        <time>2022-11-13T14:18:50.000Z</time>
      </trkpt>
      <trkpt lat="37.289375" lon="-3.54125">
        <ele>1644.0</ele>
        <time>2022-11-13T14:18:51.000Z</time>
      </trkpt>
      <trkpt lat="37.28937167" lon="-3.54125667">
        <ele>1644.0</ele>
        <time>2022-11-13T14:18:52.000Z</time>
      </trkpt>
      <trkpt lat="37.28936833" lon="-3.54126333">
        <ele>1644.0</ele>
        <time>2022-11-13T14:18:53.000Z</time>
      </trkpt>
      <trkpt lat="37.289365" lon="-3.54127167">
        <ele>1645.0</ele>
        <time>2022-11-13T14:18:54.000Z</time>
      </trkpt>
      <trkpt lat="37.28936333" lon="-3.54128">
        <ele>1645.0</ele>
        <time>2022-11-13T14:18:55.000Z</time>
      </trkpt>
      <trkpt lat="37.28936333" lon="-3.54128667">
        <ele>1645.0</ele>
        <time>2022-11-13T14:18:56.000Z</time>
      </trkpt>
      <trkpt lat="37.289365" lon="-3.54129333">
        <ele>1645.0</ele>
        <time>2022-11-13T14:18:57.000Z</time>
      </trkpt>
      <trkpt lat="37.289365" lon="-3.54130167">
        <ele>1645.0</ele>
        <time>2022-11-13T14:18:58.000Z</time>
      </trkpt>
      <trkpt lat="37.28936167" lon="-3.54131">
        <ele>1645.0</ele>
        <time>2022-11-13T14:18:59.000Z</time>
      </trkpt>
      <trkpt lat="37.28935667" lon="-3.54131667">
        <ele>1646.0</ele>
        <time>2022-11-13T14:19:00.000Z</time>
      </trkpt>
      <trkpt lat="37.28935167" lon="-3.54132333">
        <ele>1646.0</ele>
        <time>2022-11-13T14:19:01.000Z</time>
      </trkpt>
      <trkpt lat="37.28934667" lon="-3.54133">
        <ele>1646.0</ele>
        <time>2022-11-13T14:19:02.000Z</time>
      </trkpt>
      <trkpt lat="37.28934333" lon="-3.54133333">
        <ele>1646.0</ele>
        <time>2022-11-13T14:19:03.000Z</time>
      </trkpt>
      <trkpt lat="37.28934333" lon="-3.541335">
        <ele>1646.0</ele>
        <time>2022-11-13T14:19:04.000Z</time>
      </trkpt>
      <trkpt lat="37.28934" lon="-3.54133667">
        <ele>1646.0</ele>
        <time>2022-11-13T14:19:05.000Z</time>
      </trkpt>
      <trkpt lat="37.28933667" lon="-3.54134167">
        <ele>1646.0</ele>
        <time>2022-11-13T14:19:06.000Z</time>
      </trkpt>
      <trkpt lat="37.28933333" lon="-3.54134667">
        <ele>1646.0</ele>
        <time>2022-11-13T14:19:07.000Z</time>
      </trkpt>
      <trkpt lat="37.28932833" lon="-3.54135167">
        <ele>1646.0</ele>
        <time>2022-11-13T14:19:08.000Z</time>
      </trkpt>
      <trkpt lat="37.289325" lon="-3.54135667">
        <ele>1646.0</ele>
        <time>2022-11-13T14:19:09.000Z</time>
      </trkpt>
      <trkpt lat="37.28932167" lon="-3.54136">
        <ele>1646.0</ele>
        <time>2022-11-13T14:19:10.000Z</time>
      </trkpt>
      <trkpt lat="37.28931833" lon="-3.54136667">
        <ele>1646.0</ele>
        <time>2022-11-13T14:19:11.000Z</time>
      </trkpt>
      <trkpt lat="37.28931667" lon="-3.54137333">
        <ele>1647.0</ele>
        <time>2022-11-13T14:19:12.000Z</time>
      </trkpt>
      <trkpt lat="37.289315" lon="-3.54137833">
        <ele>1647.0</ele>
        <time>2022-11-13T14:19:13.000Z</time>
      </trkpt>
      <trkpt lat="37.28931667" lon="-3.541385">
        <ele>1647.0</ele>
        <time>2022-11-13T14:19:14.000Z</time>
      </trkpt>
      <trkpt lat="37.28932" lon="-3.54139">
        <ele>1647.0</ele>
        <time>2022-11-13T14:19:15.000Z</time>
      </trkpt>
      <trkpt lat="37.28932333" lon="-3.54139167">
        <ele>1647.0</ele>
        <time>2022-11-13T14:19:16.000Z</time>
      </trkpt>
      <trkpt lat="37.28932667" lon="-3.54139833">
        <ele>1647.0</ele>
        <time>2022-11-13T14:19:17.000Z</time>
      </trkpt>
      <trkpt lat="37.28932667" lon="-3.54140667">
        <ele>1647.0</ele>
        <time>2022-11-13T14:19:18.000Z</time>
      </trkpt>
      <trkpt lat="37.28932833" lon="-3.541415">
        <ele>1647.0</ele>
        <time>2022-11-13T14:19:19.000Z</time>
      </trkpt>
      <trkpt lat="37.28933" lon="-3.54142167">
        <ele>1647.0</ele>
        <time>2022-11-13T14:19:20.000Z</time>
      </trkpt>
      <trkpt lat="37.28933167" lon="-3.54142833">
        <ele>1647.0</ele>
        <time>2022-11-13T14:19:21.000Z</time>
      </trkpt>
      <trkpt lat="37.28933" lon="-3.541435">
        <ele>1647.0</ele>
        <time>2022-11-13T14:19:22.000Z</time>
      </trkpt>
      <trkpt lat="37.28932667" lon="-3.54143833">
        <ele>1647.0</ele>
        <time>2022-11-13T14:19:23.000Z</time>
      </trkpt>
      <trkpt lat="37.289325" lon="-3.54144333">
        <ele>1647.0</ele>
        <time>2022-11-13T14:19:24.000Z</time>
      </trkpt>
      <trkpt lat="37.28932667" lon="-3.54145167">
        <ele>1647.0</ele>
        <time>2022-11-13T14:19:25.000Z</time>
      </trkpt>
      <trkpt lat="37.28932667" lon="-3.54145833">
        <ele>1648.0</ele>
        <time>2022-11-13T14:19:26.000Z</time>
      </trkpt>
      <trkpt lat="37.289325" lon="-3.54146667">
        <ele>1648.0</ele>
        <time>2022-11-13T14:19:27.000Z</time>
      </trkpt>
      <trkpt lat="37.28932167" lon="-3.54147333">
        <ele>1648.0</ele>
        <time>2022-11-13T14:19:28.000Z</time>
      </trkpt>
      <trkpt lat="37.28931833" lon="-3.541475">
        <ele>1648.0</ele>
        <time>2022-11-13T14:19:29.000Z</time>
      </trkpt>
      <trkpt lat="37.28931667" lon="-3.54147667">
        <ele>1648.0</ele>
        <time>2022-11-13T14:19:30.000Z</time>
      </trkpt>
      <trkpt lat="37.289315" lon="-3.54147833">
        <ele>1648.0</ele>
        <time>2022-11-13T14:19:31.000Z</time>
      </trkpt>
      <trkpt lat="37.28931333" lon="-3.54148333">
        <ele>1649.0</ele>
        <time>2022-11-13T14:19:32.000Z</time>
      </trkpt>
      <trkpt lat="37.28931" lon="-3.54148833">
        <ele>1649.0</ele>
        <time>2022-11-13T14:19:33.000Z</time>
      </trkpt>
      <trkpt lat="37.28930833" lon="-3.54149333">
        <ele>1649.0</ele>
        <time>2022-11-13T14:19:34.000Z</time>
      </trkpt>
      <trkpt lat="37.28930667" lon="-3.5415">
        <ele>1649.0</ele>
        <time>2022-11-13T14:19:35.000Z</time>
      </trkpt>
      <trkpt lat="37.289305" lon="-3.54150833">
        <ele>1649.0</ele>
        <time>2022-11-13T14:19:36.000Z</time>
      </trkpt>
      <trkpt lat="37.289305" lon="-3.54151667">
        <ele>1650.0</ele>
        <time>2022-11-13T14:19:37.000Z</time>
      </trkpt>
      <trkpt lat="37.289305" lon="-3.54152167">
        <ele>1650.0</ele>
        <time>2022-11-13T14:19:38.000Z</time>
      </trkpt>
      <trkpt lat="37.28930833" lon="-3.54152833">
        <ele>1650.0</ele>
        <time>2022-11-13T14:19:39.000Z</time>
      </trkpt>
      <trkpt lat="37.28931" lon="-3.54153667">
        <ele>1650.0</ele>
        <time>2022-11-13T14:19:40.000Z</time>
      </trkpt>
      <trkpt lat="37.28931333" lon="-3.541545">
        <ele>1651.0</ele>
        <time>2022-11-13T14:19:41.000Z</time>
      </trkpt>
      <trkpt lat="37.289315" lon="-3.54155333">
        <ele>1651.0</ele>
        <time>2022-11-13T14:19:42.000Z</time>
      </trkpt>
      <trkpt lat="37.28931833" lon="-3.54156">
        <ele>1651.0</ele>
        <time>2022-11-13T14:19:43.000Z</time>
      </trkpt>
      <trkpt lat="37.28932333" lon="-3.541565">
        <ele>1651.0</ele>
        <time>2022-11-13T14:19:44.000Z</time>
      </trkpt>
      <trkpt lat="37.28933" lon="-3.54157">
        <ele>1652.0</ele>
        <time>2022-11-13T14:19:45.000Z</time>
      </trkpt>
      <trkpt lat="37.28933333" lon="-3.541575">
        <ele>1652.0</ele>
        <time>2022-11-13T14:19:46.000Z</time>
      </trkpt>
      <trkpt lat="37.28933833" lon="-3.54158">
        <ele>1652.0</ele>
        <time>2022-11-13T14:19:47.000Z</time>
      </trkpt>
      <trkpt lat="37.28934333" lon="-3.54158667">
        <ele>1653.0</ele>
        <time>2022-11-13T14:19:48.000Z</time>
      </trkpt>
      <trkpt lat="37.28934667" lon="-3.54159333">
        <ele>1653.0</ele>
        <time>2022-11-13T14:19:49.000Z</time>
      </trkpt>
      <trkpt lat="37.28935" lon="-3.54160167">
        <ele>1653.0</ele>
        <time>2022-11-13T14:19:50.000Z</time>
      </trkpt>
      <trkpt lat="37.289355" lon="-3.54161">
        <ele>1653.0</ele>
        <time>2022-11-13T14:19:51.000Z</time>
      </trkpt>
      <trkpt lat="37.28936167" lon="-3.54161833">
        <ele>1654.0</ele>
        <time>2022-11-13T14:19:52.000Z</time>
      </trkpt>
      <trkpt lat="37.28936667" lon="-3.54162667">
        <ele>1654.0</ele>
        <time>2022-11-13T14:19:53.000Z</time>
      </trkpt>
      <trkpt lat="37.28937167" lon="-3.54163667">
        <ele>1654.0</ele>
        <time>2022-11-13T14:19:54.000Z</time>
      </trkpt>
      <trkpt lat="37.28937333" lon="-3.54164833">
        <ele>1655.0</ele>
        <time>2022-11-13T14:19:55.000Z</time>
      </trkpt>
      <trkpt lat="37.289375" lon="-3.54165833">
        <ele>1655.0</ele>
        <time>2022-11-13T14:19:56.000Z</time>
      </trkpt>
      <trkpt lat="37.28937333" lon="-3.54167">
        <ele>1655.0</ele>
        <time>2022-11-13T14:19:57.000Z</time>
      </trkpt>
      <trkpt lat="37.28937167" lon="-3.54168">
        <ele>1655.0</ele>
        <time>2022-11-13T14:19:58.000Z</time>
      </trkpt>
      <trkpt lat="37.28936833" lon="-3.54169">
        <ele>1656.0</ele>
        <time>2022-11-13T14:19:59.000Z</time>
      </trkpt>
      <trkpt lat="37.28936333" lon="-3.5417">
        <ele>1656.0</ele>
        <time>2022-11-13T14:20:00.000Z</time>
      </trkpt>
      <trkpt lat="37.289355" lon="-3.541705">
        <ele>1656.0</ele>
        <time>2022-11-13T14:20:01.000Z</time>
      </trkpt>
      <trkpt lat="37.289345" lon="-3.54171">
        <ele>1657.0</ele>
        <time>2022-11-13T14:20:02.000Z</time>
      </trkpt>
      <trkpt lat="37.28933667" lon="-3.54171167">
        <ele>1657.0</ele>
        <time>2022-11-13T14:20:03.000Z</time>
      </trkpt>
      <trkpt lat="37.28932667" lon="-3.54171167">
        <ele>1657.0</ele>
        <time>2022-11-13T14:20:04.000Z</time>
      </trkpt>
      <trkpt lat="37.28932" lon="-3.541715">
        <ele>1658.0</ele>
        <time>2022-11-13T14:20:05.000Z</time>
      </trkpt>
      <trkpt lat="37.28931333" lon="-3.541715">
        <ele>1658.0</ele>
        <time>2022-11-13T14:20:06.000Z</time>
      </trkpt>
      <trkpt lat="37.28930667" lon="-3.54171667">
        <ele>1658.0</ele>
        <time>2022-11-13T14:20:07.000Z</time>
      </trkpt>
      <trkpt lat="37.2893" lon="-3.54171667">
        <ele>1659.0</ele>
        <time>2022-11-13T14:20:08.000Z</time>
      </trkpt>
      <trkpt lat="37.28929333" lon="-3.54171833">
        <ele>1659.0</ele>
        <time>2022-11-13T14:20:09.000Z</time>
      </trkpt>
      <trkpt lat="37.28928667" lon="-3.541715">
        <ele>1660.0</ele>
        <time>2022-11-13T14:20:10.000Z</time>
      </trkpt>
      <trkpt lat="37.28927833" lon="-3.54170833">
        <ele>1660.0</ele>
        <time>2022-11-13T14:20:11.000Z</time>
      </trkpt>
      <trkpt lat="37.28927333" lon="-3.5417">
        <ele>1660.0</ele>
        <time>2022-11-13T14:20:12.000Z</time>
      </trkpt>
      <trkpt lat="37.28927" lon="-3.54169667">
        <ele>1661.0</ele>
        <time>2022-11-13T14:20:13.000Z</time>
      </trkpt>
      <trkpt lat="37.289265" lon="-3.54169333">
        <ele>1661.0</ele>
        <time>2022-11-13T14:20:14.000Z</time>
      </trkpt>
      <trkpt lat="37.28925833" lon="-3.54168833">
        <ele>1662.0</ele>
        <time>2022-11-13T14:20:15.000Z</time>
      </trkpt>
      <trkpt lat="37.28925333" lon="-3.541685">
        <ele>1662.0</ele>
        <time>2022-11-13T14:20:16.000Z</time>
      </trkpt>
      <trkpt lat="37.28924833" lon="-3.54168167">
        <ele>1662.0</ele>
        <time>2022-11-13T14:20:17.000Z</time>
      </trkpt>
      <trkpt lat="37.28924167" lon="-3.541685">
        <ele>1662.0</ele>
        <time>2022-11-13T14:20:18.000Z</time>
      </trkpt>
      <trkpt lat="37.28923833" lon="-3.54168667">
        <ele>1663.0</ele>
        <time>2022-11-13T14:20:19.000Z</time>
      </trkpt>
      <trkpt lat="37.28923833" lon="-3.54169">
        <ele>1663.0</ele>
        <time>2022-11-13T14:20:20.000Z</time>
      </trkpt>
      <trkpt lat="37.289245" lon="-3.5417">
        <ele>1663.0</ele>
        <time>2022-11-13T14:20:21.000Z</time>
      </trkpt>
      <trkpt lat="37.28924333" lon="-3.54170333">
        <ele>1663.0</ele>
        <time>2022-11-13T14:20:22.000Z</time>
      </trkpt>
      <trkpt lat="37.28923833" lon="-3.54170667">
        <ele>1664.0</ele>
        <time>2022-11-13T14:20:23.000Z</time>
      </trkpt>
      <trkpt lat="37.28923667" lon="-3.541705">
        <ele>1664.0</ele>
        <time>2022-11-13T14:20:24.000Z</time>
      </trkpt>
      <trkpt lat="37.28923667" lon="-3.541705">
        <ele>1664.0</ele>
        <time>2022-11-13T14:20:25.000Z</time>
      </trkpt>
      <trkpt lat="37.28923667" lon="-3.54170667">
        <ele>1664.0</ele>
        <time>2022-11-13T14:20:26.000Z</time>
      </trkpt>
      <trkpt lat="37.28923667" lon="-3.54170667">
        <ele>1664.0</ele>
        <time>2022-11-13T14:20:27.000Z</time>
      </trkpt>
      <trkpt lat="37.28923667" lon="-3.54170667">
        <ele>1664.0</ele>
        <time>2022-11-13T14:20:28.000Z</time>
      </trkpt>
      <trkpt lat="37.289235" lon="-3.54171">
        <ele>1665.0</ele>
        <time>2022-11-13T14:20:29.000Z</time>
      </trkpt>
      <trkpt lat="37.289235" lon="-3.54170833">
        <ele>1665.0</ele>
        <time>2022-11-13T14:20:30.000Z</time>
      </trkpt>
      <trkpt lat="37.289235" lon="-3.541705">
        <ele>1665.0</ele>
        <time>2022-11-13T14:20:31.000Z</time>
      </trkpt>
      <trkpt lat="37.289235" lon="-3.54170333">
        <ele>1665.0</ele>
        <time>2022-11-13T14:20:32.000Z</time>
      </trkpt>
      <trkpt lat="37.28923667" lon="-3.54170333">
        <ele>1665.0</ele>
        <time>2022-11-13T14:20:33.000Z</time>
      </trkpt>
      <trkpt lat="37.289235" lon="-3.541705">
        <ele>1665.0</ele>
        <time>2022-11-13T14:20:34.000Z</time>
      </trkpt>
      <trkpt lat="37.289235" lon="-3.54170167">
        <ele>1665.0</ele>
        <time>2022-11-13T14:20:35.000Z</time>
      </trkpt>
      <trkpt lat="37.289235" lon="-3.54169833">
        <ele>1665.0</ele>
        <time>2022-11-13T14:20:36.000Z</time>
      </trkpt>
      <trkpt lat="37.289235" lon="-3.541695">
        <ele>1665.0</ele>
        <time>2022-11-13T14:20:37.000Z</time>
      </trkpt>
      <trkpt lat="37.289235" lon="-3.54169667">
        <ele>1665.0</ele>
        <time>2022-11-13T14:20:38.000Z</time>
      </trkpt>
      <trkpt lat="37.28923333" lon="-3.54169667">
        <ele>1665.0</ele>
        <time>2022-11-13T14:20:39.000Z</time>
      </trkpt>
      <trkpt lat="37.28923333" lon="-3.541695">
        <ele>1665.0</ele>
        <time>2022-11-13T14:20:40.000Z</time>
      </trkpt>
      <trkpt lat="37.28923333" lon="-3.54169333">
        <ele>1665.0</ele>
        <time>2022-11-13T14:20:41.000Z</time>
      </trkpt>
      <trkpt lat="37.28923167" lon="-3.54169333">
        <ele>1665.0</ele>
        <time>2022-11-13T14:20:42.000Z</time>
      </trkpt>
      <trkpt lat="37.28923167" lon="-3.54169333">
        <ele>1665.0</ele>
        <time>2022-11-13T14:20:43.000Z</time>
      </trkpt>
      <trkpt lat="37.28923167" lon="-3.54169333">
        <ele>1665.0</ele>
        <time>2022-11-13T14:20:44.000Z</time>
      </trkpt>
      <trkpt lat="37.28923167" lon="-3.54169333">
        <ele>1665.0</ele>
        <time>2022-11-13T14:20:45.000Z</time>
      </trkpt>
      <trkpt lat="37.28923167" lon="-3.54169333">
        <ele>1665.0</ele>
        <time>2022-11-13T14:20:46.000Z</time>
      </trkpt>
      <trkpt lat="37.28923167" lon="-3.54169333">
        <ele>1665.0</ele>
        <time>2022-11-13T14:20:47.000Z</time>
      </trkpt>
      <trkpt lat="37.28923167" lon="-3.54169333">
        <ele>1665.0</ele>
        <time>2022-11-13T14:20:48.000Z</time>
      </trkpt>
      <trkpt lat="37.28923167" lon="-3.54169333">
        <ele>1665.0</ele>
        <time>2022-11-13T14:20:49.000Z</time>
      </trkpt>
      <trkpt lat="37.28923333" lon="-3.54169333">
        <ele>1665.0</ele>
        <time>2022-11-13T14:20:50.000Z</time>
      </trkpt>
      <trkpt lat="37.28923333" lon="-3.54169167">
        <ele>1666.0</ele>
        <time>2022-11-13T14:20:51.000Z</time>
      </trkpt>
      <trkpt lat="37.28923333" lon="-3.54169">
        <ele>1666.0</ele>
        <time>2022-11-13T14:20:52.000Z</time>
      </trkpt>
      <trkpt lat="37.28923333" lon="-3.54169">
        <ele>1666.0</ele>
        <time>2022-11-13T14:20:53.000Z</time>
      </trkpt>
      <trkpt lat="37.28923333" lon="-3.54169">
        <ele>1666.0</ele>
        <time>2022-11-13T14:20:54.000Z</time>
      </trkpt>
      <trkpt lat="37.28923333" lon="-3.54169">
        <ele>1666.0</ele>
        <time>2022-11-13T14:20:55.000Z</time>
      </trkpt>
      <trkpt lat="37.28923333" lon="-3.54169">
        <ele>1666.0</ele>
        <time>2022-11-13T14:20:56.000Z</time>
      </trkpt>
      <trkpt lat="37.28923333" lon="-3.54169">
        <ele>1666.0</ele>
        <time>2022-11-13T14:20:57.000Z</time>
      </trkpt>
      <trkpt lat="37.28923333" lon="-3.54169">
        <ele>1666.0</ele>
        <time>2022-11-13T14:20:58.000Z</time>
      </trkpt>
      <trkpt lat="37.28923333" lon="-3.54168833">
        <ele>1666.0</ele>
        <time>2022-11-13T14:20:59.000Z</time>
      </trkpt>
      <trkpt lat="37.28923167" lon="-3.54168833">
        <ele>1666.0</ele>
        <time>2022-11-13T14:21:00.000Z</time>
      </trkpt>
      <trkpt lat="37.28923167" lon="-3.54168833">
        <ele>1666.0</ele>
        <time>2022-11-13T14:21:01.000Z</time>
      </trkpt>
      <trkpt lat="37.28923167" lon="-3.54168833">
        <ele>1666.0</ele>
        <time>2022-11-13T14:21:02.000Z</time>
      </trkpt>
      <trkpt lat="37.28923167" lon="-3.54168833">
        <ele>1666.0</ele>
        <time>2022-11-13T14:21:03.000Z</time>
      </trkpt>
      <trkpt lat="37.28923167" lon="-3.54168833">
        <ele>1666.0</ele>
        <time>2022-11-13T14:21:04.000Z</time>
      </trkpt>
      <trkpt lat="37.28923167" lon="-3.54168833">
        <ele>1666.0</ele>
        <time>2022-11-13T14:21:05.000Z</time>
      </trkpt>
      <trkpt lat="37.28923167" lon="-3.54168833">
        <ele>1666.0</ele>
        <time>2022-11-13T14:21:06.000Z</time>
      </trkpt>
      <trkpt lat="37.28923167" lon="-3.54168833">
        <ele>1666.0</ele>
        <time>2022-11-13T14:21:07.000Z</time>
      </trkpt>
      <trkpt lat="37.28923167" lon="-3.54168833">
        <ele>1666.0</ele>
        <time>2022-11-13T14:21:08.000Z</time>
      </trkpt>
      <trkpt lat="37.28923167" lon="-3.54168833">
        <ele>1666.0</ele>
        <time>2022-11-13T14:21:09.000Z</time>
      </trkpt>
      <trkpt lat="37.28923167" lon="-3.54168833">
        <ele>1666.0</ele>
        <time>2022-11-13T14:21:10.000Z</time>
      </trkpt>
      <trkpt lat="37.28923167" lon="-3.54168833">
        <ele>1666.0</ele>
        <time>2022-11-13T14:21:11.000Z</time>
      </trkpt>
      <trkpt lat="37.28923167" lon="-3.54168833">
        <ele>1666.0</ele>
        <time>2022-11-13T14:21:12.000Z</time>
      </trkpt>
      <trkpt lat="37.28923167" lon="-3.54168833">
        <ele>1666.0</ele>
        <time>2022-11-13T14:21:13.000Z</time>
      </trkpt>
      <trkpt lat="37.28923333" lon="-3.541695">
        <ele>1667.0</ele>
        <time>2022-11-13T14:21:14.000Z</time>
      </trkpt>
      <trkpt lat="37.289235" lon="-3.54169833">
        <ele>1667.0</ele>
        <time>2022-11-13T14:21:15.000Z</time>
      </trkpt>
      <trkpt lat="37.28923333" lon="-3.54169833">
        <ele>1667.0</ele>
        <time>2022-11-13T14:21:16.000Z</time>
      </trkpt>
      <trkpt lat="37.28923333" lon="-3.54169833">
        <ele>1667.0</ele>
        <time>2022-11-13T14:21:17.000Z</time>
      </trkpt>
      <trkpt lat="37.28923333" lon="-3.54169833">
        <ele>1667.0</ele>
        <time>2022-11-13T14:21:18.000Z</time>
      </trkpt>
      <trkpt lat="37.28923333" lon="-3.54169833">
        <ele>1667.0</ele>
        <time>2022-11-13T14:21:19.000Z</time>
      </trkpt>
      <trkpt lat="37.28923333" lon="-3.54169833">
        <ele>1667.0</ele>
        <time>2022-11-13T14:21:20.000Z</time>
      </trkpt>
      <trkpt lat="37.28923333" lon="-3.54169833">
        <ele>1667.0</ele>
        <time>2022-11-13T14:21:21.000Z</time>
      </trkpt>
      <trkpt lat="37.28923333" lon="-3.54169833">
        <ele>1667.0</ele>
        <time>2022-11-13T14:21:22.000Z</time>
      </trkpt>
      <trkpt lat="37.28923333" lon="-3.54169167">
        <ele>1667.0</ele>
        <time>2022-11-13T14:21:23.000Z</time>
      </trkpt>
      <trkpt lat="37.28923333" lon="-3.54169">
        <ele>1667.0</ele>
        <time>2022-11-13T14:21:24.000Z</time>
      </trkpt>
      <trkpt lat="37.28927814401686191558837890625" lon="-3.5416705906391143798828125">
        <ele>1630.4000244140625</ele>
        <time>2022-11-13T15:27:44.000Z</time>
      </trkpt>
      <trkpt lat="37.289277724921703338623046875" lon="-3.541671596467494964599609375">
        <ele>1630.4000244140625</ele>
        <time>2022-11-13T15:27:45.000Z</time>
      </trkpt>
      <trkpt lat="37.28927881456911563873291015625" lon="-3.5416757874190807342529296875">
        <ele>1630.4000244140625</ele>
        <time>2022-11-13T15:27:46.000Z</time>
      </trkpt>
      <trkpt lat="37.28930479846894741058349609375" lon="-3.541709147393703460693359375">
        <ele>1631.4000244140625</ele>
        <time>2022-11-13T15:27:50.000Z</time>
      </trkpt>
      <trkpt lat="37.28931468911468982696533203125" lon="-3.54172549210488796234130859375">
        <ele>1631.4000244140625</ele>
        <time>2022-11-13T15:27:52.000Z</time>
      </trkpt>
      <trkpt lat="37.28933614678680896759033203125" lon="-3.5417495481669902801513671875">
        <ele>1631.4000244140625</ele>
        <time>2022-11-13T15:27:57.000Z</time>
      </trkpt>
      <trkpt lat="37.28934301994740962982177734375" lon="-3.5417639650404453277587890625">
        <ele>1631.4000244140625</ele>
        <time>2022-11-13T15:27:59.000Z</time>
      </trkpt>
      <trkpt lat="37.2893144376575946807861328125" lon="-3.54180729947984218597412109375">
        <ele>1631.4000244140625</ele>
        <time>2022-11-13T15:28:05.000Z</time>
      </trkpt>
      <trkpt lat="37.28932189755141735076904296875" lon="-3.5418172739446163177490234375">
        <ele>1631.4000244140625</ele>
        <time>2022-11-13T15:28:09.000Z</time>
      </trkpt>
      <trkpt lat="37.28930412791669368743896484375" lon="-3.5418746061623096466064453125">
        <ele>1631.4000244140625</ele>
        <time>2022-11-13T15:28:16.000Z</time>
      </trkpt>
      <trkpt lat="37.28929817676544189453125" lon="-3.54187837801873683929443359375">
        <ele>1631.4000244140625</ele>
        <time>2022-11-13T15:28:17.000Z</time>
      </trkpt>
      <trkpt lat="37.289291806519031524658203125" lon="-3.541888855397701263427734375">
        <ele>1631.4000244140625</ele>
        <time>2022-11-13T15:28:19.000Z</time>
      </trkpt>
      <trkpt lat="37.28928535245358943939208984375" lon="-3.54190017096698284149169921875">
        <ele>1631.4000244140625</ele>
        <time>2022-11-13T15:28:21.000Z</time>
      </trkpt>
      <trkpt lat="37.2892849333584308624267578125" lon="-3.5419054515659809112548828125">
        <ele>1629.4000244140625</ele>
        <time>2022-11-13T15:28:22.000Z</time>
      </trkpt>
      <trkpt lat="37.2892820835113525390625" lon="-3.54191643185913562774658203125">
        <ele>1628</ele>
        <time>2022-11-13T15:28:24.000Z</time>
      </trkpt>
      <trkpt lat="37.2892782278358936309814453125" lon="-3.54192179627716541290283203125">
        <ele>1627.800048828125</ele>
        <time>2022-11-13T15:28:25.000Z</time>
      </trkpt>
      <trkpt lat="37.28927060030400753021240234375" lon="-3.54195289313793182373046875">
        <ele>1627.800048828125</ele>
        <time>2022-11-13T15:28:29.000Z</time>
      </trkpt>
      <trkpt lat="37.28926925919950008392333984375" lon="-3.5419607721269130706787109375">
        <ele>1627.800048828125</ele>
        <time>2022-11-13T15:28:30.000Z</time>
      </trkpt>
      <trkpt lat="37.28925936855375766754150390625" lon="-3.54197946377098560333251953125">
        <ele>1628.199951171875</ele>
        <time>2022-11-13T15:28:33.000Z</time>
      </trkpt>
      <trkpt lat="37.28925668634474277496337890625" lon="-3.541980721056461334228515625">
        <ele>1628.4000244140625</ele>
        <time>2022-11-13T15:28:34.000Z</time>
      </trkpt>
      <trkpt lat="37.28925568051636219024658203125" lon="-3.54198365472257137298583984375">
        <ele>1628.4000244140625</ele>
        <time>2022-11-13T15:28:35.000Z</time>
      </trkpt>
      <trkpt lat="37.2892560996115207672119140625" lon="-3.54199639521539211273193359375">
        <ele>1628.5999755859375</ele>
        <time>2022-11-13T15:28:37.000Z</time>
      </trkpt>
      <trkpt lat="37.2892405092716217041015625" lon="-3.54204433970153331756591796875">
        <ele>1628.199951171875</ele>
        <time>2022-11-13T15:28:45.000Z</time>
      </trkpt>
      <trkpt lat="37.28923539631068706512451171875" lon="-3.54205305688083171844482421875">
        <ele>1628</ele>
        <time>2022-11-13T15:28:46.000Z</time>
      </trkpt>
      <trkpt lat="37.2892121784389019012451171875" lon="-3.5420811362564563751220703125">
        <ele>1627.4000244140625</ele>
        <time>2022-11-13T15:28:51.000Z</time>
      </trkpt>
      <trkpt lat="37.28922751732170581817626953125" lon="-3.5421274043619632720947265625">
        <ele>1627.4000244140625</ele>
        <time>2022-11-13T15:28:58.000Z</time>
      </trkpt>
      <trkpt lat="37.28926707990467548370361328125" lon="-3.54215682484209537506103515625">
        <ele>1627.800048828125</ele>
        <time>2022-11-13T15:29:07.000Z</time>
      </trkpt>
      <trkpt lat="37.2892698459327220916748046875" lon="-3.5421773605048656463623046875">
        <ele>1628.199951171875</ele>
        <time>2022-11-13T15:29:09.000Z</time>
      </trkpt>
      <trkpt lat="37.289284765720367431640625" lon="-3.54218482039868831634521484375">
        <ele>1628.4000244140625</ele>
        <time>2022-11-13T15:29:16.000Z</time>
      </trkpt>
      <trkpt lat="37.28929339908063411712646484375" lon="-3.54219655506312847137451171875">
        <ele>1628.5999755859375</ele>
        <time>2022-11-13T15:29:19.000Z</time>
      </trkpt>
      <trkpt lat="37.289303205907344818115234375" lon="-3.54221415705978870391845703125">
        <ele>1629.199951171875</ele>
        <time>2022-11-13T15:29:23.000Z</time>
      </trkpt>
      <trkpt lat="37.28932105936110019683837890625" lon="-3.54226461611688137054443359375">
        <ele>1630.199951171875</ele>
        <time>2022-11-13T15:29:28.000Z</time>
      </trkpt>
      <trkpt lat="37.28930823504924774169921875" lon="-3.54227735660970211029052734375">
        <ele>1630.199951171875</ele>
        <time>2022-11-13T15:29:29.000Z</time>
      </trkpt>
      <trkpt lat="37.289292812347412109375" lon="-3.54229428805410861968994140625">
        <ele>1630.5999755859375</ele>
        <time>2022-11-13T15:29:31.000Z</time>
      </trkpt>
      <trkpt lat="37.28929021395742893218994140625" lon="-3.5423017479479312896728515625">
        <ele>1630.5999755859375</ele>
        <time>2022-11-13T15:29:32.000Z</time>
      </trkpt>
      <trkpt lat="37.2892914712429046630859375" lon="-3.54230887256562709808349609375">
        <ele>1630.800048828125</ele>
        <time>2022-11-13T15:29:34.000Z</time>
      </trkpt>
      <trkpt lat="37.28927998803555965423583984375" lon="-3.54233619756996631622314453125">
        <ele>1631</ele>
        <time>2022-11-13T15:29:38.000Z</time>
      </trkpt>
      <trkpt lat="37.28927864693105220794677734375" lon="-3.54235262610018253326416015625">
        <ele>1631</ele>
        <time>2022-11-13T15:29:41.000Z</time>
      </trkpt>
      <trkpt lat="37.28928116150200366973876953125" lon="-3.54236201383173465728759765625">
        <ele>1631</ele>
        <time>2022-11-13T15:29:42.000Z</time>
      </trkpt>
      <trkpt lat="37.289279736578464508056640625" lon="-3.5423721559345722198486328125">
        <ele>1631</ele>
        <time>2022-11-13T15:29:44.000Z</time>
      </trkpt>
      <trkpt lat="37.289266996085643768310546875" lon="-3.54240752756595611572265625">
        <ele>1631</ele>
        <time>2022-11-13T15:29:50.000Z</time>
      </trkpt>
      <trkpt lat="37.2892705164849758148193359375" lon="-3.5424197651445865631103515625">
        <ele>1631.4000244140625</ele>
        <time>2022-11-13T15:29:52.000Z</time>
      </trkpt>
      <trkpt lat="37.2892780601978302001953125" lon="-3.54245002381503582000732421875">
        <ele>1632.5999755859375</ele>
        <time>2022-11-13T15:29:56.000Z</time>
      </trkpt>
      <trkpt lat="37.28927562944591045379638671875" lon="-3.5424559749662876129150390625">
        <ele>1632.5999755859375</ele>
        <time>2022-11-13T15:29:57.000Z</time>
      </trkpt>
      <trkpt lat="37.28926003910601139068603515625" lon="-3.54252009652554988861083984375">
        <ele>1632.199951171875</ele>
        <time>2022-11-13T15:30:05.000Z</time>
      </trkpt>
      <trkpt lat="37.2892887890338897705078125" lon="-3.54256820864975452423095703125">
        <ele>1632</ele>
        <time>2022-11-13T15:30:13.000Z</time>
      </trkpt>
      <trkpt lat="37.28930421173572540283203125" lon="-3.54257642291486263275146484375">
        <ele>1632.4000244140625</ele>
        <time>2022-11-13T15:30:18.000Z</time>
      </trkpt>
      <trkpt lat="37.28928904049098491668701171875" lon="-3.54258480481803417205810546875">
        <ele>1632.800048828125</ele>
        <time>2022-11-13T15:30:25.000Z</time>
      </trkpt>
      <trkpt lat="37.28927898220717906951904296875" lon="-3.5425664484500885009765625">
        <ele>1631.4000244140625</ele>
        <time>2022-11-13T15:30:46.000Z</time>
      </trkpt>
      <trkpt lat="37.28924863971769809722900390625" lon="-3.542531244456768035888671875">
        <ele>1632.4000244140625</ele>
        <time>2022-11-13T15:31:02.000Z</time>
      </trkpt>
      <trkpt lat="37.28924863971769809722900390625" lon="-3.54250852949917316436767578125">
        <ele>1632.4000244140625</ele>
        <time>2022-11-13T15:31:07.000Z</time>
      </trkpt>
      <trkpt lat="37.28924243710935115814208984375" lon="-3.54246092028915882110595703125">
        <ele>1632.199951171875</ele>
        <time>2022-11-13T15:31:32.000Z</time>
      </trkpt>
      <trkpt lat="37.28924226947128772735595703125" lon="-3.54244633577764034271240234375">
        <ele>1632.199951171875</ele>
        <time>2022-11-13T15:31:35.000Z</time>
      </trkpt>
      <trkpt lat="37.28924226947128772735595703125" lon="-3.54244030080735683441162109375">
        <ele>1632.4000244140625</ele>
        <time>2022-11-13T15:31:36.000Z</time>
      </trkpt>
      <trkpt lat="37.28924226947128772735595703125" lon="-3.54242336936295032501220703125">
        <ele>1632.199951171875</ele>
        <time>2022-11-13T15:31:39.000Z</time>
      </trkpt>
      <trkpt lat="37.28924226947128772735595703125" lon="-3.54239813983440399169921875">
        <ele>1632.199951171875</ele>
        <time>2022-11-13T15:31:43.000Z</time>
      </trkpt>
      <trkpt lat="37.2892537526786327362060546875" lon="-3.54233066551387310028076171875">
        <ele>1632.199951171875</ele>
        <time>2022-11-13T15:32:02.000Z</time>
      </trkpt>
      <trkpt lat="37.2892537526786327362060546875" lon="-3.54232010431587696075439453125">
        <ele>1632.199951171875</ele>
        <time>2022-11-13T15:32:05.000Z</time>
      </trkpt>
      <trkpt lat="37.28925283066928386688232421875" lon="-3.542310297489166259765625">
        <ele>1632.199951171875</ele>
        <time>2022-11-13T15:32:07.000Z</time>
      </trkpt>
      <trkpt lat="37.2892276011407375335693359375" lon="-3.54218817315995693206787109375">
        <ele>1632.199951171875</ele>
        <time>2022-11-13T15:32:22.000Z</time>
      </trkpt>
      <trkpt lat="37.2892190515995025634765625" lon="-3.5421257279813289642333984375">
        <ele>1632.199951171875</ele>
        <time>2022-11-13T15:32:28.000Z</time>
      </trkpt>
      <trkpt lat="37.28921276517212390899658203125" lon="-3.5421123169362545013427734375">
        <ele>1631</ele>
        <time>2022-11-13T15:32:32.000Z</time>
      </trkpt>
      <trkpt lat="37.28920790366828441619873046875" lon="-3.54210200719535350799560546875">
        <ele>1630.4000244140625</ele>
        <time>2022-11-13T15:32:35.000Z</time>
      </trkpt>
      <trkpt lat="37.2892048023641109466552734375" lon="-3.54209446348249912261962890625">
        <ele>1630.4000244140625</ele>
        <time>2022-11-13T15:32:43.000Z</time>
      </trkpt>
      <trkpt lat="37.2892048023641109466552734375" lon="-3.54209446348249912261962890625">
        <ele>1630.4000244140625</ele>
        <time>2022-11-13T15:32:44.000Z</time>
      </trkpt>
      <trkpt lat="37.28920756839215755462646484375" lon="-3.5420851595699787139892578125">
        <ele>1630.5999755859375</ele>
        <time>2022-11-13T15:32:58.000Z</time>
      </trkpt>
      <trkpt lat="37.2892081551253795623779296875" lon="-3.54207954369485378265380859375">
        <ele>1630</ele>
        <time>2022-11-13T15:33:02.000Z</time>
      </trkpt>
      <trkpt lat="37.2892165370285511016845703125" lon="-3.5420640371739864349365234375">
        <ele>1627.5999755859375</ele>
        <time>2022-11-13T15:33:07.000Z</time>
      </trkpt>
      <trkpt lat="37.28924780152738094329833984375" lon="-3.5420321859419345855712890625">
        <ele>1628.5999755859375</ele>
        <time>2022-11-13T15:33:12.000Z</time>
      </trkpt>
      <trkpt lat="37.28928099386394023895263671875" lon="-3.54193889535963535308837890625">
        <ele>1628</ele>
        <time>2022-11-13T15:33:19.000Z</time>
      </trkpt>
      <trkpt lat="37.28931452147662639617919921875" lon="-3.54187016375362873077392578125">
        <ele>1627.199951171875</ele>
        <time>2022-11-13T15:33:23.000Z</time>
      </trkpt>
      <trkpt lat="37.2893332131206989288330078125" lon="-3.54183864779770374298095703125">
        <ele>1626.5999755859375</ele>
        <time>2022-11-13T15:33:25.000Z</time>
      </trkpt>
      <trkpt lat="37.28930748067796230316162109375" lon="-3.5417632944881916046142578125">
        <ele>1627</ele>
        <time>2022-11-13T15:33:34.000Z</time>
      </trkpt>
      <trkpt lat="37.28930379264056682586669921875" lon="-3.54175918735563755035400390625">
        <ele>1627.199951171875</ele>
        <time>2022-11-13T15:33:35.000Z</time>
      </trkpt>
      <trkpt lat="37.28930463083088397979736328125" lon="-3.54174041189253330230712890625">
        <ele>1628</ele>
        <time>2022-11-13T15:33:37.000Z</time>
      </trkpt>
      <trkpt lat="37.2893057204782962799072265625" lon="-3.54173152707517147064208984375">
        <ele>1628.199951171875</ele>
        <time>2022-11-13T15:33:38.000Z</time>
      </trkpt>
      <trkpt lat="37.2893224842846393585205078125" lon="-3.54171610437333583831787109375">
        <ele>1629.199951171875</ele>
        <time>2022-11-13T15:33:41.000Z</time>
      </trkpt>
      <trkpt lat="37.28933195583522319793701171875" lon="-3.54171308688819408416748046875">
        <ele>1629.4000244140625</ele>
        <time>2022-11-13T15:33:42.000Z</time>
      </trkpt>
      <trkpt lat="37.28937353007495403289794921875" lon="-3.54169984348118305206298828125">
        <ele>1629.4000244140625</ele>
        <time>2022-11-13T15:33:47.000Z</time>
      </trkpt>
      <trkpt lat="37.28941560722887516021728515625" lon="-3.54168592952191829681396484375">
        <ele>1628.800048828125</ele>
        <time>2022-11-13T15:33:52.000Z</time>
      </trkpt>
      <trkpt lat="37.28944008238613605499267578125" lon="-3.5416663996875286102294921875">
        <ele>1628.199951171875</ele>
        <time>2022-11-13T15:33:54.000Z</time>
      </trkpt>
      <trkpt lat="37.28945366106927394866943359375" lon="-3.541656844317913055419921875">
        <ele>1627.800048828125</ele>
        <time>2022-11-13T15:33:55.000Z</time>
      </trkpt>
      <trkpt lat="37.28950730524957180023193359375" lon="-3.54161686263978481292724609375">
        <ele>1627.5999755859375</ele>
        <time>2022-11-13T15:34:03.000Z</time>
      </trkpt>
      <trkpt lat="37.2895075567066669464111328125" lon="-3.54161736555397510528564453125">
        <ele>1627.800048828125</ele>
        <time>2022-11-13T15:34:05.000Z</time>
      </trkpt>
      <trkpt lat="37.2895068861544132232666015625" lon="-3.541608564555644989013671875">
        <ele>1627.800048828125</ele>
        <time>2022-11-13T15:34:11.000Z</time>
      </trkpt>
      <trkpt lat="37.28950764052569866180419921875" lon="-3.54158417321741580963134765625">
        <ele>1627.800048828125</ele>
        <time>2022-11-13T15:34:14.000Z</time>
      </trkpt>
      <trkpt lat="37.28950671851634979248046875" lon="-3.5415845923125743865966796875">
        <ele>1627.4000244140625</ele>
        <time>2022-11-13T15:34:17.000Z</time>
      </trkpt>
      <trkpt lat="37.2895186208188533782958984375" lon="-3.54158719070255756378173828125">
        <ele>1627</ele>
        <time>2022-11-13T15:34:20.000Z</time>
      </trkpt>
      <trkpt lat="37.28952909819781780242919921875" lon="-3.54159775190055370330810546875">
        <ele>1626.800048828125</ele>
        <time>2022-11-13T15:34:23.000Z</time>
      </trkpt>
      <trkpt lat="37.28955156169831752777099609375" lon="-3.5415892861783504486083984375">
        <ele>1626</ele>
        <time>2022-11-13T15:34:28.000Z</time>
      </trkpt>
      <trkpt lat="37.2895534895360469818115234375" lon="-3.5415874421596527099609375">
        <ele>1625.800048828125</ele>
        <time>2022-11-13T15:34:30.000Z</time>
      </trkpt>
      <trkpt lat="37.28957419283688068389892578125" lon="-3.54159020818769931793212890625">
        <ele>1625.4000244140625</ele>
        <time>2022-11-13T15:34:39.000Z</time>
      </trkpt>
      <trkpt lat="37.289578802883625030517578125" lon="-3.54158786125481128692626953125">
        <ele>1625.4000244140625</ele>
        <time>2022-11-13T15:34:43.000Z</time>
      </trkpt>
      <trkpt lat="37.2895782999694347381591796875" lon="-3.54158786125481128692626953125">
        <ele>1625.4000244140625</ele>
        <time>2022-11-13T15:34:49.000Z</time>
      </trkpt>
      <trkpt lat="37.28957754559814929962158203125" lon="-3.54158568195998668670654296875">
        <ele>1625.4000244140625</ele>
        <time>2022-11-13T15:34:53.000Z</time>
      </trkpt>
      <trkpt lat="37.28952490724623203277587890625" lon="-3.5415899567306041717529296875">
        <ele>1627.5999755859375</ele>
        <time>2022-11-13T15:35:20.000Z</time>
      </trkpt>
      <trkpt lat="37.28952490724623203277587890625" lon="-3.5415899567306041717529296875">
        <ele>1628.800048828125</ele>
        <time>2022-11-13T15:35:23.000Z</time>
      </trkpt>
      <trkpt lat="37.28952490724623203277587890625" lon="-3.54158517904579639434814453125">
        <ele>1629.199951171875</ele>
        <time>2022-11-13T15:35:27.000Z</time>
      </trkpt>
      <trkpt lat="37.28952490724623203277587890625" lon="-3.54157579131424427032470703125">
        <ele>1627.800048828125</ele>
        <time>2022-11-13T15:35:29.000Z</time>
      </trkpt>
      <trkpt lat="37.28952490724623203277587890625" lon="-3.54156573303043842315673828125">
        <ele>1628.800048828125</ele>
        <time>2022-11-13T15:35:32.000Z</time>
      </trkpt>
      <trkpt lat="37.2895253263413906097412109375" lon="-3.54155969806015491485595703125">
        <ele>1629.4000244140625</ele>
        <time>2022-11-13T15:35:33.000Z</time>
      </trkpt>
      <trkpt lat="37.289526499807834625244140625" lon="-3.54154746048152446746826171875">
        <ele>1630</ele>
        <time>2022-11-13T15:35:35.000Z</time>
      </trkpt>
      <trkpt lat="37.28954016231000423431396484375" lon="-3.54154511354863643646240234375">
        <ele>1629.5999755859375</ele>
        <time>2022-11-13T15:35:46.000Z</time>
      </trkpt>
      <trkpt lat="37.28954032994806766510009765625" lon="-3.54154511354863643646240234375">
        <ele>1629.4000244140625</ele>
        <time>2022-11-13T15:35:47.000Z</time>
      </trkpt>
      <trkpt lat="37.28954066522419452667236328125" lon="-3.541550897061824798583984375">
        <ele>1629.199951171875</ele>
        <time>2022-11-13T15:35:51.000Z</time>
      </trkpt>
      <trkpt lat="37.28954066522419452667236328125" lon="-3.54155818931758403778076171875">
        <ele>1629</ele>
        <time>2022-11-13T15:35:52.000Z</time>
      </trkpt>
      <trkpt lat="37.28950311429798603057861328125" lon="-3.541585765779018402099609375">
        <ele>1627.800048828125</ele>
        <time>2022-11-13T15:35:58.000Z</time>
      </trkpt>
      <trkpt lat="37.28949339129030704498291015625" lon="-3.541586436331272125244140625">
        <ele>1627.800048828125</ele>
        <time>2022-11-13T15:35:59.000Z</time>
      </trkpt>
      <trkpt lat="37.2894716821610927581787109375" lon="-3.54159842245280742645263671875">
        <ele>1627.199951171875</ele>
        <time>2022-11-13T15:36:05.000Z</time>
      </trkpt>
      <trkpt lat="37.289456427097320556640625" lon="-3.54159641079604625701904296875">
        <ele>1626.800048828125</ele>
        <time>2022-11-13T15:36:09.000Z</time>
      </trkpt>
      <trkpt lat="37.28945441544055938720703125" lon="-3.5415966622531414031982421875">
        <ele>1625.5999755859375</ele>
        <time>2022-11-13T15:36:17.000Z</time>
      </trkpt>
      <trkpt lat="37.2894502244889736175537109375" lon="-3.5415933094918727874755859375">
        <ele>1625.199951171875</ele>
        <time>2022-11-13T15:36:26.000Z</time>
      </trkpt>
      <trkpt lat="37.289413511753082275390625" lon="-3.541567660868167877197265625">
        <ele>1624.5999755859375</ele>
        <time>2022-11-13T15:36:45.000Z</time>
      </trkpt>
      <trkpt lat="37.2893979214131832122802734375" lon="-3.5415379889309406280517578125">
        <ele>1624.199951171875</ele>
        <time>2022-11-13T15:36:48.000Z</time>
      </trkpt>
      <trkpt lat="37.28937906213104724884033203125" lon="-3.54150219820439815521240234375">
        <ele>1623.4000244140625</ele>
        <time>2022-11-13T15:36:52.000Z</time>
      </trkpt>
      <trkpt lat="37.28937956504523754119873046875" lon="-3.54148342274129390716552734375">
        <ele>1622.5999755859375</ele>
        <time>2022-11-13T15:36:55.000Z</time>
      </trkpt>
      <trkpt lat="37.28938627056777477264404296875" lon="-3.5414801537990570068359375">
        <ele>1622.199951171875</ele>
        <time>2022-11-13T15:36:56.000Z</time>
      </trkpt>
      <trkpt lat="37.28938526473939418792724609375" lon="-3.5414699278771877288818359375">
        <ele>1621.4000244140625</ele>
        <time>2022-11-13T15:37:00.000Z</time>
      </trkpt>
      <trkpt lat="37.28937922976911067962646484375" lon="-3.54146146215498447418212890625">
        <ele>1621.199951171875</ele>
        <time>2022-11-13T15:37:02.000Z</time>
      </trkpt>
      <trkpt lat="37.28939163498580455780029296875" lon="-3.541440255939960479736328125">
        <ele>1620.4000244140625</ele>
        <time>2022-11-13T15:37:06.000Z</time>
      </trkpt>
      <trkpt lat="37.28939264081418514251708984375" lon="-3.541436232626438140869140625">
        <ele>1620</ele>
        <time>2022-11-13T15:37:07.000Z</time>
      </trkpt>
      <trkpt lat="37.2893893718719482421875" lon="-3.541402705013751983642578125">
        <ele>1618.800048828125</ele>
        <time>2022-11-13T15:37:14.000Z</time>
      </trkpt>
      <trkpt lat="37.28938945569097995758056640625" lon="-3.5413998551666736602783203125">
        <ele>1618.5999755859375</ele>
        <time>2022-11-13T15:37:15.000Z</time>
      </trkpt>
      <trkpt lat="37.2893845103681087493896484375" lon="-3.541392646729946136474609375">
        <ele>1617.800048828125</ele>
        <time>2022-11-13T15:37:17.000Z</time>
      </trkpt>
      <trkpt lat="37.28939163498580455780029296875" lon="-3.5413770563900470733642578125">
        <ele>1617.4000244140625</ele>
        <time>2022-11-13T15:37:22.000Z</time>
      </trkpt>
      <trkpt lat="37.28941124863922595977783203125" lon="-3.54134445078670978546142578125">
        <ele>1616.800048828125</ele>
        <time>2022-11-13T15:37:26.000Z</time>
      </trkpt>
      <trkpt lat="37.28942365385591983795166015625" lon="-3.54131519794464111328125">
        <ele>1615.800048828125</ele>
        <time>2022-11-13T15:37:29.000Z</time>
      </trkpt>
      <trkpt lat="37.289424575865268707275390625" lon="-3.54129600338637828826904296875">
        <ele>1615.5999755859375</ele>
        <time>2022-11-13T15:37:30.000Z</time>
      </trkpt>
      <trkpt lat="37.28942533023655414581298828125" lon="-3.5412717796862125396728515625">
        <ele>1615</ele>
        <time>2022-11-13T15:37:32.000Z</time>
      </trkpt>
      <trkpt lat="37.28942147456109523773193359375" lon="-3.54126482270658016204833984375">
        <ele>1614.800048828125</ele>
        <time>2022-11-13T15:37:33.000Z</time>
      </trkpt>
      <trkpt lat="37.2894089855253696441650390625" lon="-3.541247807443141937255859375">
        <ele>1614.4000244140625</ele>
        <time>2022-11-13T15:37:35.000Z</time>
      </trkpt>
      <trkpt lat="37.28940588422119617462158203125" lon="-3.5412405990064144134521484375">
        <ele>1614</ele>
        <time>2022-11-13T15:37:36.000Z</time>
      </trkpt>
      <trkpt lat="37.28938870131969451904296875" lon="-3.54122006334364414215087890625">
        <ele>1613.199951171875</ele>
        <time>2022-11-13T15:37:40.000Z</time>
      </trkpt>
      <trkpt lat="37.28938207961618900299072265625" lon="-3.54121754877269268035888671875">
        <ele>1612.5999755859375</ele>
        <time>2022-11-13T15:37:42.000Z</time>
      </trkpt>
      <trkpt lat="37.28938107378780841827392578125" lon="-3.541215620934963226318359375">
        <ele>1612.4000244140625</ele>
        <time>2022-11-13T15:37:43.000Z</time>
      </trkpt>
      <trkpt lat="37.28937319479882717132568359375" lon="-3.54121863842010498046875">
        <ele>1612.199951171875</ele>
        <time>2022-11-13T15:37:55.000Z</time>
      </trkpt>
      <trkpt lat="37.2893773019313812255859375" lon="-3.54116910137236118316650390625">
        <ele>1611.5999755859375</ele>
        <time>2022-11-13T15:38:00.000Z</time>
      </trkpt>
      <trkpt lat="37.289383672177791595458984375" lon="-3.54114848189055919647216796875">
        <ele>1611.4000244140625</ele>
        <time>2022-11-13T15:38:01.000Z</time>
      </trkpt>
      <trkpt lat="37.28940856643021106719970703125" lon="-3.54103264398872852325439453125">
        <ele>1611.199951171875</ele>
        <time>2022-11-13T15:38:07.000Z</time>
      </trkpt>
      <trkpt lat="37.2894076444208621978759765625" lon="-3.54102359153330326080322265625">
        <ele>1611</ele>
        <time>2022-11-13T15:38:08.000Z</time>
      </trkpt>
      <trkpt lat="37.289411164820194244384765625" lon="-3.54101403616368770599365234375">
        <ele>1610.800048828125</ele>
        <time>2022-11-13T15:38:09.000Z</time>
      </trkpt>
      <trkpt lat="37.28942264802753925323486328125" lon="-3.54099936783313751220703125">
        <ele>1610.4000244140625</ele>
        <time>2022-11-13T15:38:11.000Z</time>
      </trkpt>
      <trkpt lat="37.28942734189331531524658203125" lon="-3.54099777527153491973876953125">
        <ele>1610</ele>
        <time>2022-11-13T15:38:13.000Z</time>
      </trkpt>
      <trkpt lat="37.2894331254065036773681640625" lon="-3.5409945063292980194091796875">
        <ele>1609.800048828125</ele>
        <time>2022-11-13T15:38:14.000Z</time>
      </trkpt>
      <trkpt lat="37.28944494388997554779052734375" lon="-3.5409693606197834014892578125">
        <ele>1609</ele>
        <time>2022-11-13T15:38:18.000Z</time>
      </trkpt>
      <trkpt lat="37.28944234549999237060546875" lon="-3.540963828563690185546875">
        <ele>1608.800048828125</ele>
        <time>2022-11-13T15:38:19.000Z</time>
      </trkpt>
      <trkpt lat="37.2894416749477386474609375" lon="-3.54094027541577816009521484375">
        <ele>1608.199951171875</ele>
        <time>2022-11-13T15:38:21.000Z</time>
      </trkpt>
      <trkpt lat="37.28944913484156131744384765625" lon="-3.5408982820808887481689453125">
        <ele>1607.5999755859375</ele>
        <time>2022-11-13T15:38:24.000Z</time>
      </trkpt>
      <trkpt lat="37.28945567272603511810302734375" lon="-3.54085042141377925872802734375">
        <ele>1606.4000244140625</ele>
        <time>2022-11-13T15:38:28.000Z</time>
      </trkpt>
      <trkpt lat="37.2894713468849658966064453125" lon="-3.54080482386052608489990234375">
        <ele>1605.199951171875</ele>
        <time>2022-11-13T15:38:33.000Z</time>
      </trkpt>
      <trkpt lat="37.2894777171313762664794921875" lon="-3.540797196328639984130859375">
        <ele>1605.199951171875</ele>
        <time>2022-11-13T15:38:34.000Z</time>
      </trkpt>
      <trkpt lat="37.2894867695868015289306640625" lon="-3.54076827876269817352294921875">
        <ele>1604.4000244140625</ele>
        <time>2022-11-13T15:38:36.000Z</time>
      </trkpt>
      <trkpt lat="37.2894874401390552520751953125" lon="-3.54076140560209751129150390625">
        <ele>1604.199951171875</ele>
        <time>2022-11-13T15:38:37.000Z</time>
      </trkpt>
      <trkpt lat="37.28949104435741901397705078125" lon="-3.5407534427940845489501953125">
        <ele>1603.800048828125</ele>
        <time>2022-11-13T15:38:40.000Z</time>
      </trkpt>
      <trkpt lat="37.28948953561484813690185546875" lon="-3.5407517664134502410888671875">
        <ele>1603.800048828125</ele>
        <time>2022-11-13T15:38:41.000Z</time>
      </trkpt>
      <trkpt lat="37.2894871048629283905029296875" lon="-3.54074883274734020233154296875">
        <ele>1603.800048828125</ele>
        <time>2022-11-13T15:38:43.000Z</time>
      </trkpt>
      <trkpt lat="37.28949322365224361419677734375" lon="-3.5407551191747188568115234375">
        <ele>1603.800048828125</ele>
        <time>2022-11-13T15:38:47.000Z</time>
      </trkpt>
      <trkpt lat="37.28948048315942287445068359375" lon="-3.5407293029129505157470703125">
        <ele>1603.5999755859375</ele>
        <time>2022-11-13T15:38:54.000Z</time>
      </trkpt>
      <trkpt lat="37.28945039212703704833984375" lon="-3.54071212001144886016845703125">
        <ele>1603.4000244140625</ele>
        <time>2022-11-13T15:39:00.000Z</time>
      </trkpt>
      <trkpt lat="37.28945039212703704833984375" lon="-3.54071212001144886016845703125">
        <ele>1603.4000244140625</ele>
        <time>2022-11-13T15:39:02.000Z</time>
      </trkpt>
      <trkpt lat="37.28945039212703704833984375" lon="-3.54071212001144886016845703125">
        <ele>1603.199951171875</ele>
        <time>2022-11-13T15:39:05.000Z</time>
      </trkpt>
      <trkpt lat="37.28945039212703704833984375" lon="-3.54071212001144886016845703125">
        <ele>1603.199951171875</ele>
        <time>2022-11-13T15:39:08.000Z</time>
      </trkpt>
      <trkpt lat="37.28945064358413219451904296875" lon="-3.5407071746885776519775390625">
        <ele>1602.199951171875</ele>
        <time>2022-11-13T15:39:11.000Z</time>
      </trkpt>
      <trkpt lat="37.289445362985134124755859375" lon="-3.54069233871996402740478515625">
        <ele>1601.800048828125</ele>
        <time>2022-11-13T15:39:12.000Z</time>
      </trkpt>
      <trkpt lat="37.2894321195781230926513671875" lon="-3.5406645946204662322998046875">
        <ele>1601.199951171875</ele>
        <time>2022-11-13T15:39:14.000Z</time>
      </trkpt>
      <trkpt lat="37.2894324548542499542236328125" lon="-3.5406513512134552001953125">
        <ele>1600.800048828125</ele>
        <time>2022-11-13T15:39:15.000Z</time>
      </trkpt>
      <trkpt lat="37.28943203575909137725830078125" lon="-3.54064238257706165313720703125">
        <ele>1600.4000244140625</ele>
        <time>2022-11-13T15:39:16.000Z</time>
      </trkpt>
      <trkpt lat="37.289433963596820831298828125" lon="-3.54063349775969982147216796875">
        <ele>1600</ele>
        <time>2022-11-13T15:39:17.000Z</time>
      </trkpt>
      <trkpt lat="37.28943304158747196197509765625" lon="-3.5406156443059444427490234375">
        <ele>1599.199951171875</ele>
        <time>2022-11-13T15:39:20.000Z</time>
      </trkpt>
      <trkpt lat="37.28942365385591983795166015625" lon="-3.54059997014701366424560546875">
        <ele>1599</ele>
        <time>2022-11-13T15:39:22.000Z</time>
      </trkpt>
      <trkpt lat="37.28942692279815673828125" lon="-3.5405790992081165313720703125">
        <ele>1598.4000244140625</ele>
        <time>2022-11-13T15:39:24.000Z</time>
      </trkpt>
      <trkpt lat="37.28942700661718845367431640625" lon="-3.54057163931429386138916015625">
        <ele>1598</ele>
        <time>2022-11-13T15:39:25.000Z</time>
      </trkpt>
      <trkpt lat="37.2894307784736156463623046875" lon="-3.540563173592090606689453125">
        <ele>1597.800048828125</ele>
        <time>2022-11-13T15:39:26.000Z</time>
      </trkpt>
      <trkpt lat="37.28944242931902408599853515625" lon="-3.54054263792932033538818359375">
        <ele>1597</ele>
        <time>2022-11-13T15:39:29.000Z</time>
      </trkpt>
      <trkpt lat="37.28944561444222927093505859375" lon="-3.5405371896922588348388671875">
        <ele>1596.800048828125</ele>
        <time>2022-11-13T15:39:30.000Z</time>
      </trkpt>
      <trkpt lat="37.2894609533250331878662109375" lon="-3.54051078669726848602294921875">
        <ele>1596.199951171875</ele>
        <time>2022-11-13T15:39:33.000Z</time>
      </trkpt>
      <trkpt lat="37.28946489281952381134033203125" lon="-3.5404858924448490142822265625">
        <ele>1596</ele>
        <time>2022-11-13T15:39:34.000Z</time>
      </trkpt>
      <trkpt lat="37.28946908377110958099365234375" lon="-3.54046502150595188140869140625">
        <ele>1595.800048828125</ele>
        <time>2022-11-13T15:39:35.000Z</time>
      </trkpt>
      <trkpt lat="37.28947360999882221221923828125" lon="-3.540453873574733734130859375">
        <ele>1595.800048828125</ele>
        <time>2022-11-13T15:39:36.000Z</time>
      </trkpt>
      <trkpt lat="37.28946891613304615020751953125" lon="-3.54043618775904178619384765625">
        <ele>1594.5999755859375</ele>
        <time>2022-11-13T15:39:39.000Z</time>
      </trkpt>
      <trkpt lat="37.28947511874139308929443359375" lon="-3.5404161550104618072509765625">
        <ele>1594.199951171875</ele>
        <time>2022-11-13T15:39:41.000Z</time>
      </trkpt>
      <trkpt lat="37.28948584757745265960693359375" lon="-3.54040333069860935211181640625">
        <ele>1593.5999755859375</ele>
        <time>2022-11-13T15:39:44.000Z</time>
      </trkpt>
      <trkpt lat="37.28948651812970638275146484375" lon="-3.54040383361279964447021484375">
        <ele>1593.5999755859375</ele>
        <time>2022-11-13T15:39:45.000Z</time>
      </trkpt>
      <trkpt lat="37.28947964496910572052001953125" lon="-3.54041238315403461456298828125">
        <ele>1593.4000244140625</ele>
        <time>2022-11-13T15:39:49.000Z</time>
      </trkpt>
      <trkpt lat="37.28948936797678470611572265625" lon="-3.5404121316969394683837890625">
        <ele>1593.199951171875</ele>
        <time>2022-11-13T15:39:51.000Z</time>
      </trkpt>
      <trkpt lat="37.28948928415775299072265625" lon="-3.5404014028608798980712890625">
        <ele>1592.5999755859375</ele>
        <time>2022-11-13T15:39:54.000Z</time>
      </trkpt>
      <trkpt lat="37.28948735632002353668212890625" lon="-3.54040123522281646728515625">
        <ele>1592.5999755859375</ele>
        <time>2022-11-13T15:39:55.000Z</time>
      </trkpt>
      <trkpt lat="37.28949154727160930633544921875" lon="-3.54040115140378475189208984375">
        <ele>1592.5999755859375</ele>
        <time>2022-11-13T15:39:56.000Z</time>
      </trkpt>
      <trkpt lat="37.289499007165431976318359375" lon="-3.5403960384428501129150390625">
        <ele>1592</ele>
        <time>2022-11-13T15:40:01.000Z</time>
      </trkpt>
      <trkpt lat="37.28949590586125850677490234375" lon="-3.5403920151293277740478515625">
        <ele>1591.800048828125</ele>
        <time>2022-11-13T15:40:02.000Z</time>
      </trkpt>
      <trkpt lat="37.28945030830800533294677734375" lon="-3.54036779142916202545166015625">
        <ele>1591.800048828125</ele>
        <time>2022-11-13T15:40:10.000Z</time>
      </trkpt>
      <trkpt lat="37.289452068507671356201171875" lon="-3.54035957716405391693115234375">
        <ele>1591.800048828125</ele>
        <time>2022-11-13T15:40:11.000Z</time>
      </trkpt>
      <trkpt lat="37.28945399634540081024169921875" lon="-3.54036636650562286376953125">
        <ele>1591.800048828125</ele>
        <time>2022-11-13T15:40:17.000Z</time>
      </trkpt>
      <trkpt lat="37.28945064358413219451904296875" lon="-3.5403735749423503875732421875">
        <ele>1592</ele>
        <time>2022-11-13T15:40:20.000Z</time>
      </trkpt>
      <trkpt lat="37.28946103714406490325927734375" lon="-3.540380112826824188232421875">
        <ele>1592.4000244140625</ele>
        <time>2022-11-13T15:40:26.000Z</time>
      </trkpt>
      <trkpt lat="37.2894529066979885101318359375" lon="-3.540411628782749176025390625">
        <ele>1593.199951171875</ele>
        <time>2022-11-13T15:40:31.000Z</time>
      </trkpt>
      <trkpt lat="37.2894545830786228179931640625" lon="-3.54042780585587024688720703125">
        <ele>1593.5999755859375</ele>
        <time>2022-11-13T15:40:33.000Z</time>
      </trkpt>
      <trkpt lat="37.2894763760268688201904296875" lon="-3.54044758714735507965087890625">
        <ele>1594.4000244140625</ele>
        <time>2022-11-13T15:40:35.000Z</time>
      </trkpt>
      <trkpt lat="37.289478890597820281982421875" lon="-3.54045714251697063446044921875">
        <ele>1594.4000244140625</ele>
        <time>2022-11-13T15:40:36.000Z</time>
      </trkpt>
      <trkpt lat="37.289481572806835174560546875" lon="-3.5404661111533641815185546875">
        <ele>1594.4000244140625</ele>
        <time>2022-11-13T15:40:37.000Z</time>
      </trkpt>
      <trkpt lat="37.289478890597820281982421875" lon="-3.54047357104718685150146484375">
        <ele>1596.199951171875</ele>
        <time>2022-11-13T15:40:38.000Z</time>
      </trkpt>
      <trkpt lat="37.28946992196142673492431640625" lon="-3.5404823720455169677734375">
        <ele>1597.800048828125</ele>
        <time>2022-11-13T15:40:40.000Z</time>
      </trkpt>
      <trkpt lat="37.28947377763688564300537109375" lon="-3.54048949666321277618408203125">
        <ele>1598.4000244140625</ele>
        <time>2022-11-13T15:40:43.000Z</time>
      </trkpt>
      <trkpt lat="37.2894800640642642974853515625" lon="-3.5404999740421772003173828125">
        <ele>1598.5999755859375</ele>
        <time>2022-11-13T15:40:47.000Z</time>
      </trkpt>
      <trkpt lat="37.2894770465791225433349609375" lon="-3.5404969565570354461669921875">
        <ele>1598.5999755859375</ele>
        <time>2022-11-13T15:40:48.000Z</time>
      </trkpt>
      <trkpt lat="37.289449386298656463623046875" lon="-3.54052537120878696441650390625">
        <ele>1598.800048828125</ele>
        <time>2022-11-13T15:40:56.000Z</time>
      </trkpt>
      <trkpt lat="37.28944947011768817901611328125" lon="-3.54055068455636501312255859375">
        <ele>1599.199951171875</ele>
        <time>2022-11-13T15:41:02.000Z</time>
      </trkpt>
      <trkpt lat="37.28947528637945652008056640625" lon="-3.5405563004314899444580078125">
        <ele>1599.4000244140625</ele>
        <time>2022-11-13T15:41:07.000Z</time>
      </trkpt>
      <trkpt lat="37.28948257863521575927734375" lon="-3.54058362543582916259765625">
        <ele>1599.4000244140625</ele>
        <time>2022-11-13T15:41:13.000Z</time>
      </trkpt>
      <trkpt lat="37.28947210125625133514404296875" lon="-3.54060508310794830322265625">
        <ele>1599.800048828125</ele>
        <time>2022-11-13T15:41:16.000Z</time>
      </trkpt>
      <trkpt lat="37.28948098607361316680908203125" lon="-3.54061321355402469635009765625">
        <ele>1600.199951171875</ele>
        <time>2022-11-13T15:41:19.000Z</time>
      </trkpt>
      <trkpt lat="37.2894790582358837127685546875" lon="-3.54062411002814769744873046875">
        <ele>1601</ele>
        <time>2022-11-13T15:41:21.000Z</time>
      </trkpt>
      <trkpt lat="37.2894743643701076507568359375" lon="-3.54062763042747974395751953125">
        <ele>1601.199951171875</ele>
        <time>2022-11-13T15:41:22.000Z</time>
      </trkpt>
      <trkpt lat="37.2894726879894733428955078125" lon="-3.5406314022839069366455078125">
        <ele>1601.4000244140625</ele>
        <time>2022-11-13T15:41:23.000Z</time>
      </trkpt>
      <trkpt lat="37.28947143070399761199951171875" lon="-3.54064070619642734527587890625">
        <ele>1601.800048828125</ele>
        <time>2022-11-13T15:41:25.000Z</time>
      </trkpt>
      <trkpt lat="37.2894716821610927581787109375" lon="-3.540649674832820892333984375">
        <ele>1602</ele>
        <time>2022-11-13T15:41:26.000Z</time>
      </trkpt>
      <trkpt lat="37.289483584463596343994140625" lon="-3.540682531893253326416015625">
        <ele>1603.199951171875</ele>
        <time>2022-11-13T15:41:30.000Z</time>
      </trkpt>
      <trkpt lat="37.28947461582720279693603515625" lon="-3.5406835377216339111328125">
        <ele>1603.4000244140625</ele>
        <time>2022-11-13T15:41:32.000Z</time>
      </trkpt>
      <trkpt lat="37.28946489281952381134033203125" lon="-3.54068689048290252685546875">
        <ele>1603.800048828125</ele>
        <time>2022-11-13T15:41:34.000Z</time>
      </trkpt>
      <trkpt lat="37.28946757502853870391845703125" lon="-3.5407021455466747283935546875">
        <ele>1604.199951171875</ele>
        <time>2022-11-13T15:41:36.000Z</time>
      </trkpt>
      <trkpt lat="37.28947076015174388885498046875" lon="-3.54072318412363529205322265625">
        <ele>1603.5999755859375</ele>
        <time>2022-11-13T15:41:39.000Z</time>
      </trkpt>
      <trkpt lat="37.28946908377110958099365234375" lon="-3.54073156602680683135986328125">
        <ele>1603.5999755859375</ele>
        <time>2022-11-13T15:41:40.000Z</time>
      </trkpt>
      <trkpt lat="37.2894653119146823883056640625" lon="-3.54076601564884185791015625">
        <ele>1605</ele>
        <time>2022-11-13T15:41:48.000Z</time>
      </trkpt>
      <trkpt lat="37.28946053422987461090087890625" lon="-3.54076727293431758880615234375">
        <ele>1605.199951171875</ele>
        <time>2022-11-13T15:41:50.000Z</time>
      </trkpt>
      <trkpt lat="37.289438657462596893310546875" lon="-3.54078948497772216796875">
        <ele>1605.5999755859375</ele>
        <time>2022-11-13T15:41:54.000Z</time>
      </trkpt>
      <trkpt lat="37.28942180983722209930419921875" lon="-3.54077096097171306610107421875">
        <ele>1606.4000244140625</ele>
        <time>2022-11-13T15:41:58.000Z</time>
      </trkpt>
      <trkpt lat="37.28941150009632110595703125" lon="-3.540762998163700103759765625">
        <ele>1606.5999755859375</ele>
        <time>2022-11-13T15:42:00.000Z</time>
      </trkpt>
      <trkpt lat="37.28938660584390163421630859375" lon="-3.54072184301912784576416015625">
        <ele>1606.800048828125</ele>
        <time>2022-11-13T15:42:08.000Z</time>
      </trkpt>
      <trkpt lat="37.28936146013438701629638671875" lon="-3.540689907968044281005859375">
        <ele>1607.5999755859375</ele>
        <time>2022-11-13T15:42:14.000Z</time>
      </trkpt>
      <trkpt lat="37.289363555610179901123046875" lon="-3.5406857170164585113525390625">
        <ele>1607.5999755859375</ele>
        <time>2022-11-13T15:42:15.000Z</time>
      </trkpt>
      <trkpt lat="37.28937797248363494873046875" lon="-3.54064556770026683807373046875">
        <ele>1607.5999755859375</ele>
        <time>2022-11-13T15:42:22.000Z</time>
      </trkpt>
      <trkpt lat="37.289386689662933349609375" lon="-3.54062075726687908172607421875">
        <ele>1607.5999755859375</ele>
        <time>2022-11-13T15:42:27.000Z</time>
      </trkpt>
      <trkpt lat="37.28938912041485309600830078125" lon="-3.5406159795820713043212890625">
        <ele>1607.4000244140625</ele>
        <time>2022-11-13T15:42:28.000Z</time>
      </trkpt>
      <trkpt lat="37.289418540894985198974609375" lon="-3.54058563709259033203125">
        <ele>1606.800048828125</ele>
        <time>2022-11-13T15:42:35.000Z</time>
      </trkpt>
      <trkpt lat="37.28940806351602077484130859375" lon="-3.54057163931429386138916015625">
        <ele>1606.199951171875</ele>
        <time>2022-11-13T15:42:39.000Z</time>
      </trkpt>
      <trkpt lat="37.289401106536388397216796875" lon="-3.5405687056481838226318359375">
        <ele>1605.800048828125</ele>
        <time>2022-11-13T15:42:42.000Z</time>
      </trkpt>
      <trkpt lat="37.2894001007080078125" lon="-3.54056979529559612274169921875">
        <ele>1605.199951171875</ele>
        <time>2022-11-13T15:42:49.000Z</time>
      </trkpt>
      <trkpt lat="37.2894001007080078125" lon="-3.54056979529559612274169921875">
        <ele>1604.199951171875</ele>
        <time>2022-11-13T15:42:54.000Z</time>
      </trkpt>
      <trkpt lat="37.2893992625176906585693359375" lon="-3.54057314805686473846435546875">
        <ele>1603.800048828125</ele>
        <time>2022-11-13T15:42:59.000Z</time>
      </trkpt>
      <trkpt lat="37.28938727639615535736083984375" lon="-3.54057314805686473846435546875">
        <ele>1603.5999755859375</ele>
        <time>2022-11-13T15:43:02.000Z</time>
      </trkpt>
      <trkpt lat="37.289350144565105438232421875" lon="-3.54057331569492816925048828125">
        <ele>1602.800048828125</ele>
        <time>2022-11-13T15:43:11.000Z</time>
      </trkpt>
      <trkpt lat="37.28934637270867824554443359375" lon="-3.540573231875896453857421875">
        <ele>1602</ele>
        <time>2022-11-13T15:43:17.000Z</time>
      </trkpt>
      <trkpt lat="37.2893462888896465301513671875" lon="-3.54057289659976959228515625">
        <ele>1601.800048828125</ele>
        <time>2022-11-13T15:43:19.000Z</time>
      </trkpt>
      <trkpt lat="37.2893462888896465301513671875" lon="-3.540571220219135284423828125">
        <ele>1600.5999755859375</ele>
        <time>2022-11-13T15:43:24.000Z</time>
      </trkpt>
      <trkpt lat="37.28934955783188343048095703125" lon="-3.54056158103048801422119140625">
        <ele>1600.4000244140625</ele>
        <time>2022-11-13T15:43:25.000Z</time>
      </trkpt>
      <trkpt lat="37.28937369771301746368408203125" lon="-3.54051061905920505523681640625">
        <ele>1599.5999755859375</ele>
        <time>2022-11-13T15:43:28.000Z</time>
      </trkpt>
      <trkpt lat="37.2893818281590938568115234375" lon="-3.54049469344317913055419921875">
        <ele>1599.199951171875</ele>
        <time>2022-11-13T15:43:29.000Z</time>
      </trkpt>
      <trkpt lat="37.28940219618380069732666015625" lon="-3.54046736843883991241455078125">
        <ele>1598.5999755859375</ele>
        <time>2022-11-13T15:43:32.000Z</time>
      </trkpt>
      <trkpt lat="37.28940336965024471282958984375" lon="-3.54045546613633632659912109375">
        <ele>1598.4000244140625</ele>
        <time>2022-11-13T15:43:33.000Z</time>
      </trkpt>
      <trkpt lat="37.28940454311668872833251953125" lon="-3.540439791977405548095703125">
        <ele>1598.4000244140625</ele>
        <time>2022-11-13T15:43:34.000Z</time>
      </trkpt>
      <trkpt lat="37.28939264081418514251708984375" lon="-3.54043568484485149383544921875">
        <ele>1598</ele>
        <time>2022-11-13T15:43:36.000Z</time>
      </trkpt>
      <trkpt lat="37.28938124142587184906005859375" lon="-3.54042361490428447723388671875">
        <ele>1597.800048828125</ele>
        <time>2022-11-13T15:43:38.000Z</time>
      </trkpt>
      <trkpt lat="37.28938425891101360321044921875" lon="-3.5404044203460216522216796875">
        <ele>1597.4000244140625</ele>
        <time>2022-11-13T15:43:40.000Z</time>
      </trkpt>
      <trkpt lat="37.28938878513872623443603515625" lon="-3.54038857854902744293212890625">
        <ele>1597</ele>
        <time>2022-11-13T15:43:42.000Z</time>
      </trkpt>
      <trkpt lat="37.289401106536388397216796875" lon="-3.54037977755069732666015625">
        <ele>1596.800048828125</ele>
        <time>2022-11-13T15:43:44.000Z</time>
      </trkpt>
      <trkpt lat="37.28941745124757289886474609375" lon="-3.5403578169643878936767578125">
        <ele>1596.199951171875</ele>
        <time>2022-11-13T15:43:47.000Z</time>
      </trkpt>
      <trkpt lat="37.28941845707595348358154296875" lon="-3.54034893214702606201171875">
        <ele>1596</ele>
        <time>2022-11-13T15:43:48.000Z</time>
      </trkpt>
      <trkpt lat="37.28942465968430042266845703125" lon="-3.540330491960048675537109375">
        <ele>1595.199951171875</ele>
        <time>2022-11-13T15:43:51.000Z</time>
      </trkpt>
      <trkpt lat="37.289417199790477752685546875" lon="-3.54033476673066616058349609375">
        <ele>1594.4000244140625</ele>
        <time>2022-11-13T15:43:54.000Z</time>
      </trkpt>
      <trkpt lat="37.28940336965024471282958984375" lon="-3.5403393767774105072021484375">
        <ele>1594</ele>
        <time>2022-11-13T15:43:56.000Z</time>
      </trkpt>
      <trkpt lat="37.289374954998493194580078125" lon="-3.54033979587256908416748046875">
        <ele>1593</ele>
        <time>2022-11-13T15:44:02.000Z</time>
      </trkpt>
      <trkpt lat="37.28937084786593914031982421875" lon="-3.54033392854034900665283203125">
        <ele>1592.800048828125</ele>
        <time>2022-11-13T15:44:03.000Z</time>
      </trkpt>
      <trkpt lat="37.28937420062720775604248046875" lon="-3.54031984694302082061767578125">
        <ele>1592.5999755859375</ele>
        <time>2022-11-13T15:44:05.000Z</time>
      </trkpt>
      <trkpt lat="37.2893880307674407958984375" lon="-3.54028631933033466339111328125">
        <ele>1591.800048828125</ele>
        <time>2022-11-13T15:44:10.000Z</time>
      </trkpt>
      <trkpt lat="37.28940387256443500518798828125" lon="-3.54026050306856632232666015625">
        <ele>1590.5999755859375</ele>
        <time>2022-11-13T15:44:13.000Z</time>
      </trkpt>
      <trkpt lat="37.2894109971821308135986328125" lon="-3.540239967405796051025390625">
        <ele>1590.199951171875</ele>
        <time>2022-11-13T15:44:15.000Z</time>
      </trkpt>
      <trkpt lat="37.289415188133716583251953125" lon="-3.54023158550262451171875">
        <ele>1590</ele>
        <time>2022-11-13T15:44:17.000Z</time>
      </trkpt>
      <trkpt lat="37.28940722532570362091064453125" lon="-3.54022798128426074981689453125">
        <ele>1589.5999755859375</ele>
        <time>2022-11-13T15:44:19.000Z</time>
      </trkpt>
      <trkpt lat="37.289369590580463409423828125" lon="-3.5402267239987850189208984375">
        <ele>1588.5999755859375</ele>
        <time>2022-11-13T15:44:25.000Z</time>
      </trkpt>
      <trkpt lat="37.289359867572784423828125" lon="-3.5402195155620574951171875">
        <ele>1588.4000244140625</ele>
        <time>2022-11-13T15:44:27.000Z</time>
      </trkpt>
      <trkpt lat="37.2893248312175273895263671875" lon="-3.54021641425788402557373046875">
        <ele>1587.4000244140625</ele>
        <time>2022-11-13T15:44:31.000Z</time>
      </trkpt>
      <trkpt lat="37.2893027029931545257568359375" lon="-3.54021557606756687164306640625">
        <ele>1586.199951171875</ele>
        <time>2022-11-13T15:44:34.000Z</time>
      </trkpt>
      <trkpt lat="37.2892941534519195556640625" lon="-3.5401995666325092315673828125">
        <ele>1586</ele>
        <time>2022-11-13T15:44:36.000Z</time>
      </trkpt>
      <trkpt lat="37.2893040440976619720458984375" lon="-3.540166877210140228271484375">
        <ele>1585.4000244140625</ele>
        <time>2022-11-13T15:44:42.000Z</time>
      </trkpt>
      <trkpt lat="37.28930664248764514923095703125" lon="-3.5401616804301738739013671875">
        <ele>1585</ele>
        <time>2022-11-13T15:44:43.000Z</time>
      </trkpt>
      <trkpt lat="37.2892829217016696929931640625" lon="-3.5401687212288379669189453125">
        <ele>1583.800048828125</ele>
        <time>2022-11-13T15:44:48.000Z</time>
      </trkpt>
      <trkpt lat="37.2892788983881473541259765625" lon="-3.54017299599945545196533203125">
        <ele>1583.5999755859375</ele>
        <time>2022-11-13T15:44:49.000Z</time>
      </trkpt>
      <trkpt lat="37.2892634756863117218017578125" lon="-3.5401854850351810455322265625">
        <ele>1583</ele>
        <time>2022-11-13T15:44:52.000Z</time>
      </trkpt>
      <trkpt lat="37.2892601229250431060791015625" lon="-3.540187664330005645751953125">
        <ele>1582.800048828125</ele>
        <time>2022-11-13T15:44:53.000Z</time>
      </trkpt>
      <trkpt lat="37.2892560996115207672119140625" lon="-3.54019294492900371551513671875">
        <ele>1582.4000244140625</ele>
        <time>2022-11-13T15:44:56.000Z</time>
      </trkpt>
      <trkpt lat="37.28925417177379131317138671875" lon="-3.54021037928760051727294921875">
        <ele>1582.199951171875</ele>
        <time>2022-11-13T15:45:00.000Z</time>
      </trkpt>
      <trkpt lat="37.289252243936061859130859375" lon="-3.5401992313563823699951171875">
        <ele>1582.199951171875</ele>
        <time>2022-11-13T15:45:03.000Z</time>
      </trkpt>
      <trkpt lat="37.2892453707754611968994140625" lon="-3.54020367376506328582763671875">
        <ele>1582</ele>
        <time>2022-11-13T15:45:06.000Z</time>
      </trkpt>
      <trkpt lat="37.28924226947128772735595703125" lon="-3.54021172039210796356201171875">
        <ele>1581.5999755859375</ele>
        <time>2022-11-13T15:45:08.000Z</time>
      </trkpt>
      <trkpt lat="37.289241850376129150390625" lon="-3.5402113012969493865966796875">
        <ele>1581.4000244140625</ele>
        <time>2022-11-13T15:45:10.000Z</time>
      </trkpt>
      <trkpt lat="37.2892373241484165191650390625" lon="-3.5402106307446956634521484375">
        <ele>1580.5999755859375</ele>
        <time>2022-11-13T15:45:12.000Z</time>
      </trkpt>
      <trkpt lat="37.289234809577465057373046875" lon="-3.5402082838118076324462890625">
        <ele>1580.199951171875</ele>
        <time>2022-11-13T15:45:13.000Z</time>
      </trkpt>
      <trkpt lat="37.28921276517212390899658203125" lon="-3.540214486420154571533203125">
        <ele>1579.4000244140625</ele>
        <time>2022-11-13T15:45:17.000Z</time>
      </trkpt>
      <trkpt lat="37.289181165397167205810546875" lon="-3.54021549224853515625">
        <ele>1578.800048828125</ele>
        <time>2022-11-13T15:45:20.000Z</time>
      </trkpt>
      <trkpt lat="37.28917387314140796661376953125" lon="-3.5402143187820911407470703125">
        <ele>1578.4000244140625</ele>
        <time>2022-11-13T15:45:21.000Z</time>
      </trkpt>
      <trkpt lat="37.2891546785831451416015625" lon="-3.5402096249163150787353515625">
        <ele>1578</ele>
        <time>2022-11-13T15:45:25.000Z</time>
      </trkpt>
      <trkpt lat="37.2891471348702907562255859375" lon="-3.5402092896401882171630859375">
        <ele>1578</ele>
        <time>2022-11-13T15:45:27.000Z</time>
      </trkpt>
      <trkpt lat="37.28914688341319561004638671875" lon="-3.5402262210845947265625">
        <ele>1578</ele>
        <time>2022-11-13T15:45:34.000Z</time>
      </trkpt>
      <trkpt lat="37.2891203127801418304443359375" lon="-3.54023686610162258148193359375">
        <ele>1578.199951171875</ele>
        <time>2022-11-13T15:45:39.000Z</time>
      </trkpt>
      <trkpt lat="37.28911134414374828338623046875" lon="-3.54024390690028667449951171875">
        <ele>1578.199951171875</ele>
        <time>2022-11-13T15:45:40.000Z</time>
      </trkpt>
      <trkpt lat="37.28909927420318126678466796875" lon="-3.54025916196405887603759765625">
        <ele>1578.199951171875</ele>
        <time>2022-11-13T15:45:42.000Z</time>
      </trkpt>
      <trkpt lat="37.28909189812839031219482421875" lon="-3.54026846587657928466796875">
        <ele>1578.199951171875</ele>
        <time>2022-11-13T15:45:43.000Z</time>
      </trkpt>
      <trkpt lat="37.28907287120819091796875" lon="-3.54030467569828033447265625">
        <ele>1578.4000244140625</ele>
        <time>2022-11-13T15:45:47.000Z</time>
      </trkpt>
      <trkpt lat="37.28905451484024524688720703125" lon="-3.54031984694302082061767578125">
        <ele>1579</ele>
        <time>2022-11-13T15:45:52.000Z</time>
      </trkpt>
      <trkpt lat="37.289064489305019378662109375" lon="-3.5403266362845897674560546875">
        <ele>1579</ele>
        <time>2022-11-13T15:45:54.000Z</time>
      </trkpt>
      <trkpt lat="37.28906683623790740966796875" lon="-3.54033417999744415283203125">
        <ele>1579</ele>
        <time>2022-11-13T15:45:57.000Z</time>
      </trkpt>
      <trkpt lat="37.28906842879951000213623046875" lon="-3.54033677838742733001708984375">
        <ele>1579.199951171875</ele>
        <time>2022-11-13T15:45:58.000Z</time>
      </trkpt>
      <trkpt lat="37.2890589572489261627197265625" lon="-3.54033359326422214508056640625">
        <ele>1579.199951171875</ele>
        <time>2022-11-13T15:46:02.000Z</time>
      </trkpt>
      <trkpt lat="37.28905669413506984710693359375" lon="-3.540335185825824737548828125">
        <ele>1579.199951171875</ele>
        <time>2022-11-13T15:46:06.000Z</time>
      </trkpt>
      <trkpt lat="37.28904806077480316162109375" lon="-3.5404107905924320220947265625">
        <ele>1577.4000244140625</ele>
        <time>2022-11-13T15:46:30.000Z</time>
      </trkpt>
      <trkpt lat="37.28904462419450283050537109375" lon="-3.54042545892298221588134765625">
        <ele>1577.199951171875</ele>
        <time>2022-11-13T15:46:31.000Z</time>
      </trkpt>
      <trkpt lat="37.2890361584722995758056640625" lon="-3.54045999236404895782470703125">
        <ele>1576</ele>
        <time>2022-11-13T15:46:33.000Z</time>
      </trkpt>
      <trkpt lat="37.28903188370168209075927734375" lon="-3.54047675617039203643798828125">
        <ele>1575.800048828125</ele>
        <time>2022-11-13T15:46:34.000Z</time>
      </trkpt>
      <trkpt lat="37.28903171606361865997314453125" lon="-3.5405221022665500640869140625">
        <ele>1575.199951171875</ele>
        <time>2022-11-13T15:46:38.000Z</time>
      </trkpt>
      <trkpt lat="37.2890271060168743133544921875" lon="-3.540530316531658172607421875">
        <ele>1575</ele>
        <time>2022-11-13T15:46:40.000Z</time>
      </trkpt>
      <trkpt lat="37.28902450762689113616943359375" lon="-3.54053274728357791900634765625">
        <ele>1574.5999755859375</ele>
        <time>2022-11-13T15:46:42.000Z</time>
      </trkpt>
      <trkpt lat="37.28902232833206653594970703125" lon="-3.54053274728357791900634765625">
        <ele>1574.4000244140625</ele>
        <time>2022-11-13T15:46:43.000Z</time>
      </trkpt>
      <trkpt lat="37.28902316652238368988037109375" lon="-3.54053559713065624237060546875">
        <ele>1574.199951171875</ele>
        <time>2022-11-13T15:46:45.000Z</time>
      </trkpt>
      <trkpt lat="37.28902316652238368988037109375" lon="-3.54054079391062259674072265625">
        <ele>1573.800048828125</ele>
        <time>2022-11-13T15:46:46.000Z</time>
      </trkpt>
      <trkpt lat="37.28902115486562252044677734375" lon="-3.5405455715954303741455078125">
        <ele>1573.4000244140625</ele>
        <time>2022-11-13T15:46:48.000Z</time>
      </trkpt>
      <trkpt lat="37.289021573960781097412109375" lon="-3.54054632596671581268310546875">
        <ele>1573.199951171875</ele>
        <time>2022-11-13T15:46:49.000Z</time>
      </trkpt>
      <trkpt lat="37.28902534581720829010009765625" lon="-3.54056141339242458343505859375">
        <ele>1574.199951171875</ele>
        <time>2022-11-13T15:46:54.000Z</time>
      </trkpt>
      <trkpt lat="37.28903138078749179840087890625" lon="-3.5405827872455120086669921875">
        <ele>1573.5999755859375</ele>
        <time>2022-11-13T15:46:57.000Z</time>
      </trkpt>
      <trkpt lat="37.28902702219784259796142578125" lon="-3.5405941866338253021240234375">
        <ele>1572.800048828125</ele>
        <time>2022-11-13T15:46:59.000Z</time>
      </trkpt>
      <trkpt lat="37.28902819566428661346435546875" lon="-3.54059896431863307952880859375">
        <ele>1571.800048828125</ele>
        <time>2022-11-13T15:47:01.000Z</time>
      </trkpt>
      <trkpt lat="37.28903087787330150604248046875" lon="-3.54059225879609584808349609375">
        <ele>1571.199951171875</ele>
        <time>2022-11-13T15:47:03.000Z</time>
      </trkpt>
      <trkpt lat="37.28903339244425296783447265625" lon="-3.54059259407222270965576171875">
        <ele>1570.800048828125</ele>
        <time>2022-11-13T15:47:11.000Z</time>
      </trkpt>
      <trkpt lat="37.28903171606361865997314453125" lon="-3.54059259407222270965576171875">
        <ele>1570.5999755859375</ele>
        <time>2022-11-13T15:47:12.000Z</time>
      </trkpt>
      <trkpt lat="37.28901587426662445068359375" lon="-3.54060784913599491119384765625">
        <ele>1570.199951171875</ele>
        <time>2022-11-13T15:47:14.000Z</time>
      </trkpt>
      <trkpt lat="37.28897832334041595458984375" lon="-3.540650345385074615478515625">
        <ele>1569.5999755859375</ele>
        <time>2022-11-13T15:47:18.000Z</time>
      </trkpt>
      <trkpt lat="37.2889674268662929534912109375" lon="-3.5406592302024364471435546875">
        <ele>1569.4000244140625</ele>
        <time>2022-11-13T15:47:19.000Z</time>
      </trkpt>
      <trkpt lat="37.288948483765125274658203125" lon="-3.54068730957806110382080078125">
        <ele>1568.800048828125</ele>
        <time>2022-11-13T15:47:21.000Z</time>
      </trkpt>
      <trkpt lat="37.28893633000552654266357421875" lon="-3.54069384746253490447998046875">
        <ele>1568.4000244140625</ele>
        <time>2022-11-13T15:47:22.000Z</time>
      </trkpt>
      <trkpt lat="37.28889173828065395355224609375" lon="-3.5407023131847381591796875">
        <ele>1567.4000244140625</ele>
        <time>2022-11-13T15:47:25.000Z</time>
      </trkpt>
      <trkpt lat="37.28887480683624744415283203125" lon="-3.54071463458240032196044921875">
        <ele>1566.4000244140625</ele>
        <time>2022-11-13T15:47:28.000Z</time>
      </trkpt>
      <trkpt lat="37.28887145407497882843017578125" lon="-3.54072117246687412261962890625">
        <ele>1566</ele>
        <time>2022-11-13T15:47:29.000Z</time>
      </trkpt>
      <trkpt lat="37.28886106051504611968994140625" lon="-3.54074849747121334075927734375">
        <ele>1564.800048828125</ele>
        <time>2022-11-13T15:47:33.000Z</time>
      </trkpt>
      <trkpt lat="37.28884957730770111083984375" lon="-3.54076333343982696533203125">
        <ele>1564.5999755859375</ele>
        <time>2022-11-13T15:47:35.000Z</time>
      </trkpt>
      <trkpt lat="37.28884127922356128692626953125" lon="-3.54077615775167942047119140625">
        <ele>1564.199951171875</ele>
        <time>2022-11-13T15:47:37.000Z</time>
      </trkpt>
      <trkpt lat="37.28883356787264347076416015625" lon="-3.5407836176455020904541015625">
        <ele>1563.4000244140625</ele>
        <time>2022-11-13T15:47:39.000Z</time>
      </trkpt>
      <trkpt lat="37.28882602415978908538818359375" lon="-3.5407708771526813507080078125">
        <ele>1563.199951171875</ele>
        <time>2022-11-13T15:47:40.000Z</time>
      </trkpt>
      <trkpt lat="37.28881998918950557708740234375" lon="-3.54076677002012729644775390625">
        <ele>1562.4000244140625</ele>
        <time>2022-11-13T15:47:41.000Z</time>
      </trkpt>
      <trkpt lat="37.288815043866634368896484375" lon="-3.54076626710593700408935546875">
        <ele>1562.199951171875</ele>
        <time>2022-11-13T15:47:42.000Z</time>
      </trkpt>
      <trkpt lat="37.288813702762126922607421875" lon="-3.54077029041945934295654296875">
        <ele>1561.800048828125</ele>
        <time>2022-11-13T15:47:43.000Z</time>
      </trkpt>
      <trkpt lat="37.2888111881911754608154296875" lon="-3.54077649302780628204345703125">
        <ele>1561.5999755859375</ele>
        <time>2022-11-13T15:47:44.000Z</time>
      </trkpt>
      <trkpt lat="37.288807667791843414306640625" lon="-3.5407789237797260284423828125">
        <ele>1561.199951171875</ele>
        <time>2022-11-13T15:47:46.000Z</time>
      </trkpt>
      <trkpt lat="37.28880129754543304443359375" lon="-3.5407854616641998291015625">
        <ele>1561</ele>
        <time>2022-11-13T15:47:48.000Z</time>
      </trkpt>
      <trkpt lat="37.288788892328739166259765625" lon="-3.5408161394298076629638671875">
        <ele>1560.800048828125</ele>
        <time>2022-11-13T15:47:51.000Z</time>
      </trkpt>
      <trkpt lat="37.2887662611901760101318359375" lon="-3.54082091711461544036865234375">
        <ele>1560</ele>
        <time>2022-11-13T15:47:54.000Z</time>
      </trkpt>
      <trkpt lat="37.28875142522156238555908203125" lon="-3.54082980193197727203369140625">
        <ele>1559.199951171875</ele>
        <time>2022-11-13T15:47:58.000Z</time>
      </trkpt>
      <trkpt lat="37.2887642495334148406982421875" lon="-3.540835082530975341796875">
        <ele>1558.5999755859375</ele>
        <time>2022-11-13T15:48:00.000Z</time>
      </trkpt>
      <trkpt lat="37.2887515090405941009521484375" lon="-3.54087439365684986114501953125">
        <ele>1557.800048828125</ele>
        <time>2022-11-13T15:48:04.000Z</time>
      </trkpt>
      <trkpt lat="37.28875192813575267791748046875" lon="-3.5408805124461650848388671875">
        <ele>1557.800048828125</ele>
        <time>2022-11-13T15:48:05.000Z</time>
      </trkpt>
      <trkpt lat="37.28875075466930866241455078125" lon="-3.540883362293243408203125">
        <ele>1557.5999755859375</ele>
        <time>2022-11-13T15:48:06.000Z</time>
      </trkpt>
      <trkpt lat="37.288750000298023223876953125" lon="-3.54087925516068935394287109375">
        <ele>1557</ele>
        <time>2022-11-13T15:48:10.000Z</time>
      </trkpt>
      <trkpt lat="37.28875100612640380859375" lon="-3.54087623767554759979248046875">
        <ele>1557</ele>
        <time>2022-11-13T15:48:11.000Z</time>
      </trkpt>
      <trkpt lat="37.288747318089008331298828125" lon="-3.5408895649015903472900390625">
        <ele>1557.199951171875</ele>
        <time>2022-11-13T15:48:15.000Z</time>
      </trkpt>
      <trkpt lat="37.288741953670978546142578125" lon="-3.5408902354538440704345703125">
        <ele>1557.199951171875</ele>
        <time>2022-11-13T15:48:17.000Z</time>
      </trkpt>
      <trkpt lat="37.28873449377715587615966796875" lon="-3.54087791405618190765380859375">
        <ele>1556.4000244140625</ele>
        <time>2022-11-13T15:48:28.000Z</time>
      </trkpt>
      <trkpt lat="37.28870331309735774993896484375" lon="-3.54089199565351009368896484375">
        <ele>1555.199951171875</ele>
        <time>2022-11-13T15:48:32.000Z</time>
      </trkpt>
      <trkpt lat="37.28867749683558940887451171875" lon="-3.54092049412429332733154296875">
        <ele>1555.199951171875</ele>
        <time>2022-11-13T15:48:35.000Z</time>
      </trkpt>
      <trkpt lat="37.28867548517882823944091796875" lon="-3.540907837450504302978515625">
        <ele>1555</ele>
        <time>2022-11-13T15:48:39.000Z</time>
      </trkpt>
      <trkpt lat="37.28866542689502239227294921875" lon="-3.540889732539653778076171875">
        <ele>1555.199951171875</ele>
        <time>2022-11-13T15:48:43.000Z</time>
      </trkpt>
      <trkpt lat="37.2886638343334197998046875" lon="-3.540870957076549530029296875">
        <ele>1555.4000244140625</ele>
        <time>2022-11-13T15:48:50.000Z</time>
      </trkpt>
      <trkpt lat="37.2886638343334197998046875" lon="-3.540870957076549530029296875">
        <ele>1554.800048828125</ele>
        <time>2022-11-13T15:48:58.000Z</time>
      </trkpt>
      <trkpt lat="37.28866425342857837677001953125" lon="-3.54088143445551395416259765625">
        <ele>1554.199951171875</ele>
        <time>2022-11-13T15:49:01.000Z</time>
      </trkpt>
      <trkpt lat="37.2886737249791622161865234375" lon="-3.540954105556011199951171875">
        <ele>1552.800048828125</ele>
        <time>2022-11-13T15:49:06.000Z</time>
      </trkpt>
      <trkpt lat="37.2886787541210651397705078125" lon="-3.540963493287563323974609375">
        <ele>1552.5999755859375</ele>
        <time>2022-11-13T15:49:07.000Z</time>
      </trkpt>
      <trkpt lat="37.288673557341098785400390625" lon="-3.5409837774932384490966796875">
        <ele>1551.4000244140625</ele>
        <time>2022-11-13T15:49:11.000Z</time>
      </trkpt>
      <trkpt lat="37.28867380879819393157958984375" lon="-3.54098905809223651885986328125">
        <ele>1550.800048828125</ele>
        <time>2022-11-13T15:49:13.000Z</time>
      </trkpt>
      <trkpt lat="37.28867263533174991607666015625" lon="-3.5409884713590145111083984375">
        <ele>1550.4000244140625</ele>
        <time>2022-11-13T15:49:14.000Z</time>
      </trkpt>
      <trkpt lat="37.2886557877063751220703125" lon="-3.54100096039474010467529296875">
        <ele>1550</ele>
        <time>2022-11-13T15:49:20.000Z</time>
      </trkpt>
      <trkpt lat="37.2886505909264087677001953125" lon="-3.5410116054117679595947265625">
        <ele>1549.199951171875</ele>
        <time>2022-11-13T15:49:27.000Z</time>
      </trkpt>
      <trkpt lat="37.2886519320309162139892578125" lon="-3.54102090932428836822509765625">
        <ele>1548.199951171875</ele>
        <time>2022-11-13T15:49:31.000Z</time>
      </trkpt>
      <trkpt lat="37.28864765726029872894287109375" lon="-3.54104203172028064727783203125">
        <ele>1547.5999755859375</ele>
        <time>2022-11-13T15:49:33.000Z</time>
      </trkpt>
      <trkpt lat="37.28862955234944820404052734375" lon="-3.54104169644415378570556640625">
        <ele>1546.4000244140625</ele>
        <time>2022-11-13T15:49:36.000Z</time>
      </trkpt>
      <trkpt lat="37.28861890733242034912109375" lon="-3.541014455258846282958984375">
        <ele>1545.4000244140625</ele>
        <time>2022-11-13T15:49:39.000Z</time>
      </trkpt>
      <trkpt lat="37.28861094452440738677978515625" lon="-3.54100498370826244354248046875">
        <ele>1545</ele>
        <time>2022-11-13T15:49:41.000Z</time>
      </trkpt>
      <trkpt lat="37.2886066697537899017333984375" lon="-3.54101411998271942138671875">
        <ele>1544.800048828125</ele>
        <time>2022-11-13T15:49:43.000Z</time>
      </trkpt>
      <trkpt lat="37.28859837166965007781982421875" lon="-3.54100867174565792083740234375">
        <ele>1544.4000244140625</ele>
        <time>2022-11-13T15:49:46.000Z</time>
      </trkpt>
      <trkpt lat="37.2886023111641407012939453125" lon="-3.54101135395467281341552734375">
        <ele>1544</ele>
        <time>2022-11-13T15:49:53.000Z</time>
      </trkpt>
      <trkpt lat="37.28858445771038532257080078125" lon="-3.5410179756581783294677734375">
        <ele>1543.199951171875</ele>
        <time>2022-11-13T15:49:58.000Z</time>
      </trkpt>
      <trkpt lat="37.2885845415294170379638671875" lon="-3.54101453907787799835205078125">
        <ele>1543</ele>
        <time>2022-11-13T15:49:59.000Z</time>
      </trkpt>
      <trkpt lat="37.28858496062457561492919921875" lon="-3.54101118631660938262939453125">
        <ele>1542.800048828125</ele>
        <time>2022-11-13T15:50:00.000Z</time>
      </trkpt>
      <trkpt lat="37.28859007358551025390625" lon="-3.54101235978305339813232421875">
        <ele>1542.4000244140625</ele>
        <time>2022-11-13T15:50:01.000Z</time>
      </trkpt>
      <trkpt lat="37.28859007358551025390625" lon="-3.54101235978305339813232421875">
        <ele>1542.199951171875</ele>
        <time>2022-11-13T15:50:02.000Z</time>
      </trkpt>
      <trkpt lat="37.28859007358551025390625" lon="-3.54101235978305339813232421875">
        <ele>1542</ele>
        <time>2022-11-13T15:50:06.000Z</time>
      </trkpt>
      <trkpt lat="37.28859007358551025390625" lon="-3.54101235978305339813232421875">
        <ele>1541.800048828125</ele>
        <time>2022-11-13T15:50:07.000Z</time>
      </trkpt>
      <trkpt lat="37.28859007358551025390625" lon="-3.54101235978305339813232421875">
        <ele>1541</ele>
        <time>2022-11-13T15:50:10.000Z</time>
      </trkpt>
      <trkpt lat="37.28859007358551025390625" lon="-3.54101738892495632171630859375">
        <ele>1540.4000244140625</ele>
        <time>2022-11-13T15:50:13.000Z</time>
      </trkpt>
      <trkpt lat="37.288585044443607330322265625" lon="-3.54102107696235179901123046875">
        <ele>1539.5999755859375</ele>
        <time>2022-11-13T15:50:18.000Z</time>
      </trkpt>
      <trkpt lat="37.2885753214359283447265625" lon="-3.54103834368288516998291015625">
        <ele>1538.4000244140625</ele>
        <time>2022-11-13T15:50:22.000Z</time>
      </trkpt>
      <trkpt lat="37.2885570488870143890380859375" lon="-3.5410501621663570404052734375">
        <ele>1537.4000244140625</ele>
        <time>2022-11-13T15:50:26.000Z</time>
      </trkpt>
      <trkpt lat="37.28852611966431140899658203125" lon="-3.54108377359807491302490234375">
        <ele>1537</ele>
        <time>2022-11-13T15:50:38.000Z</time>
      </trkpt>
      <trkpt lat="37.28852125816047191619873046875" lon="-3.54111545719206333160400390625">
        <ele>1536.4000244140625</ele>
        <time>2022-11-13T15:50:46.000Z</time>
      </trkpt>
      <trkpt lat="37.28852125816047191619873046875" lon="-3.54114948771893978118896484375">
        <ele>1535.199951171875</ele>
        <time>2022-11-13T15:50:55.000Z</time>
      </trkpt>
      <trkpt lat="37.2885194979608058929443359375" lon="-3.5411621443927288055419921875">
        <ele>1535</ele>
        <time>2022-11-13T15:51:05.000Z</time>
      </trkpt>
      <trkpt lat="37.2885084338486194610595703125" lon="-3.5411758907139301300048828125">
        <ele>1535.199951171875</ele>
        <time>2022-11-13T15:51:18.000Z</time>
      </trkpt>
      <trkpt lat="37.28850667364895343780517578125" lon="-3.54117949493229389190673828125">
        <ele>1535.199951171875</ele>
        <time>2022-11-13T15:51:22.000Z</time>
      </trkpt>
      <trkpt lat="37.28850181214511394500732421875" lon="-3.54118854738771915435791015625">
        <ele>1535.199951171875</ele>
        <time>2022-11-13T15:51:25.000Z</time>
      </trkpt>
      <trkpt lat="37.288489826023578643798828125" lon="-3.54120296426117420196533203125">
        <ele>1534.800048828125</ele>
        <time>2022-11-13T15:51:28.000Z</time>
      </trkpt>
      <trkpt lat="37.288487143814563751220703125" lon="-3.54121637530624866485595703125">
        <ele>1534.5999755859375</ele>
        <time>2022-11-13T15:51:30.000Z</time>
      </trkpt>
      <trkpt lat="37.2884814441204071044921875" lon="-3.54124135337769985198974609375">
        <ele>1534.199951171875</ele>
        <time>2022-11-13T15:51:33.000Z</time>
      </trkpt>
      <trkpt lat="37.28847582824528217315673828125" lon="-3.54124688543379306793212890625">
        <ele>1534</ele>
        <time>2022-11-13T15:51:34.000Z</time>
      </trkpt>
      <trkpt lat="37.28847968392074108123779296875" lon="-3.54124546051025390625">
        <ele>1533.5999755859375</ele>
        <time>2022-11-13T15:51:38.000Z</time>
      </trkpt>
      <trkpt lat="37.28849695064127445220947265625" lon="-3.5412548482418060302734375">
        <ele>1533.199951171875</ele>
        <time>2022-11-13T15:51:41.000Z</time>
      </trkpt>
      <trkpt lat="37.2884923405945301055908203125" lon="-3.54125275276601314544677734375">
        <ele>1533</ele>
        <time>2022-11-13T15:51:42.000Z</time>
      </trkpt>
      <trkpt lat="37.28848152793943881988525390625" lon="-3.54124973528087139129638671875">
        <ele>1532.5999755859375</ele>
        <time>2022-11-13T15:51:53.000Z</time>
      </trkpt>
      <trkpt lat="37.28847599588334560394287109375" lon="-3.541247807443141937255859375">
        <ele>1532.5999755859375</ele>
        <time>2022-11-13T15:51:57.000Z</time>
      </trkpt>
      <trkpt lat="37.2884765826165676116943359375" lon="-3.541218973696231842041015625">
        <ele>1532.5999755859375</ele>
        <time>2022-11-13T15:52:02.000Z</time>
      </trkpt>
      <trkpt lat="37.28845839388668537139892578125" lon="-3.54118385352194309234619140625">
        <ele>1532.5999755859375</ele>
        <time>2022-11-13T15:52:07.000Z</time>
      </trkpt>
      <trkpt lat="37.2884621657431125640869140625" lon="-3.54117044247686862945556640625">
        <ele>1533.199951171875</ele>
        <time>2022-11-13T15:52:11.000Z</time>
      </trkpt>
      <trkpt lat="37.28842771612107753753662109375" lon="-3.54115786962211132049560546875">
        <ele>1533</ele>
        <time>2022-11-13T15:52:19.000Z</time>
      </trkpt>
      <trkpt lat="37.28841103613376617431640625" lon="-3.54115133173763751983642578125">
        <ele>1533</ele>
        <time>2022-11-13T15:52:23.000Z</time>
      </trkpt>
      <trkpt lat="37.288412712514400482177734375" lon="-3.54115183465182781219482421875">
        <ele>1533</ele>
        <time>2022-11-13T15:52:24.000Z</time>
      </trkpt>
      <trkpt lat="37.2883974574506282806396484375" lon="-3.5411504097282886505126953125">
        <ele>1532.800048828125</ele>
        <time>2022-11-13T15:52:26.000Z</time>
      </trkpt>
      <trkpt lat="37.28837843053042888641357421875" lon="-3.5411644913256168365478515625">
        <ele>1532</ele>
        <time>2022-11-13T15:52:29.000Z</time>
      </trkpt>
      <trkpt lat="37.28836007416248321533203125" lon="-3.5411534272134304046630859375">
        <ele>1530.800048828125</ele>
        <time>2022-11-13T15:52:34.000Z</time>
      </trkpt>
      <trkpt lat="37.28836585767567157745361328125" lon="-3.54116725735366344451904296875">
        <ele>1530.5999755859375</ele>
        <time>2022-11-13T15:52:35.000Z</time>
      </trkpt>
      <trkpt lat="37.2883786819875240325927734375" lon="-3.54122207500040531158447265625">
        <ele>1529.800048828125</ele>
        <time>2022-11-13T15:52:39.000Z</time>
      </trkpt>
      <trkpt lat="37.28837775997817516326904296875" lon="-3.5412348993122577667236328125">
        <ele>1529.5999755859375</ele>
        <time>2022-11-13T15:52:40.000Z</time>
      </trkpt>
      <trkpt lat="37.28835965506732463836669921875" lon="-3.5412701033055782318115234375">
        <ele>1528.199951171875</ele>
        <time>2022-11-13T15:52:43.000Z</time>
      </trkpt>
      <trkpt lat="37.28834607638418674468994140625" lon="-3.5412798263132572174072265625">
        <ele>1527.800048828125</ele>
        <time>2022-11-13T15:52:44.000Z</time>
      </trkpt>
      <trkpt lat="37.28834037669003009796142578125" lon="-3.54129306972026824951171875">
        <ele>1527</ele>
        <time>2022-11-13T15:52:46.000Z</time>
      </trkpt>
      <trkpt lat="37.28833400644361972808837890625" lon="-3.54129969142377376556396484375">
        <ele>1526.5999755859375</ele>
        <time>2022-11-13T15:52:47.000Z</time>
      </trkpt>
      <trkpt lat="37.28834004141390323638916015625" lon="-3.54133196175098419189453125">
        <ele>1525.5999755859375</ele>
        <time>2022-11-13T15:52:51.000Z</time>
      </trkpt>
      <trkpt lat="37.28829846717417240142822265625" lon="-3.541369177401065826416015625">
        <ele>1524.800048828125</ele>
        <time>2022-11-13T15:52:55.000Z</time>
      </trkpt>
      <trkpt lat="37.28829612024128437042236328125" lon="-3.54138149879872798919677734375">
        <ele>1524.5999755859375</ele>
        <time>2022-11-13T15:52:56.000Z</time>
      </trkpt>
      <trkpt lat="37.288297712802886962890625" lon="-3.541395664215087890625">
        <ele>1524.4000244140625</ele>
        <time>2022-11-13T15:52:57.000Z</time>
      </trkpt>
      <trkpt lat="37.288302071392536163330078125" lon="-3.5414119251072406768798828125">
        <ele>1524</ele>
        <time>2022-11-13T15:52:58.000Z</time>
      </trkpt>
      <trkpt lat="37.2882911749184131622314453125" lon="-3.54143246077001094818115234375">
        <ele>1523.4000244140625</ele>
        <time>2022-11-13T15:53:00.000Z</time>
      </trkpt>
      <trkpt lat="37.288288660347461700439453125" lon="-3.5414390824735164642333984375">
        <ele>1523.199951171875</ele>
        <time>2022-11-13T15:53:01.000Z</time>
      </trkpt>
      <trkpt lat="37.2882834635674953460693359375" lon="-3.54143790900707244873046875">
        <ele>1523</ele>
        <time>2022-11-13T15:53:02.000Z</time>
      </trkpt>
      <trkpt lat="37.28827633894979953765869140625" lon="-3.5414320416748523712158203125">
        <ele>1522.5999755859375</ele>
        <time>2022-11-13T15:53:05.000Z</time>
      </trkpt>
      <trkpt lat="37.2882723994553089141845703125" lon="-3.54142240248620510101318359375">
        <ele>1522.199951171875</ele>
        <time>2022-11-13T15:53:07.000Z</time>
      </trkpt>
      <trkpt lat="37.28827751241624355316162109375" lon="-3.54142122901976108551025390625">
        <ele>1522.199951171875</ele>
        <time>2022-11-13T15:53:09.000Z</time>
      </trkpt>
      <trkpt lat="37.28826862759888172149658203125" lon="-3.54140312410891056060791015625">
        <ele>1521.800048828125</ele>
        <time>2022-11-13T15:53:12.000Z</time>
      </trkpt>
      <trkpt lat="37.28827298618853092193603515625" lon="-3.541406728327274322509765625">
        <ele>1521</ele>
        <time>2022-11-13T15:53:18.000Z</time>
      </trkpt>
      <trkpt lat="37.28828270919620990753173828125" lon="-3.541426174342632293701171875">
        <ele>1520.4000244140625</ele>
        <time>2022-11-13T15:53:22.000Z</time>
      </trkpt>
      <trkpt lat="37.28828270919620990753173828125" lon="-3.541426174342632293701171875">
        <ele>1520.4000244140625</ele>
        <time>2022-11-13T15:53:28.000Z</time>
      </trkpt>
      <trkpt lat="37.28828270919620990753173828125" lon="-3.541426174342632293701171875">
        <ele>1520.199951171875</ele>
        <time>2022-11-13T15:53:34.000Z</time>
      </trkpt>
      <trkpt lat="37.28829947300255298614501953125" lon="-3.541426174342632293701171875">
        <ele>1519.800048828125</ele>
        <time>2022-11-13T15:53:38.000Z</time>
      </trkpt>
      <trkpt lat="37.28829301893711090087890625" lon="-3.5414813272655010223388671875">
        <ele>1518.800048828125</ele>
        <time>2022-11-13T15:53:43.000Z</time>
      </trkpt>
      <trkpt lat="37.28829746134579181671142578125" lon="-3.54149783961474895477294921875">
        <ele>1518.800048828125</ele>
        <time>2022-11-13T15:53:44.000Z</time>
      </trkpt>
      <trkpt lat="37.288291342556476593017578125" lon="-3.541575372219085693359375">
        <ele>1517.800048828125</ele>
        <time>2022-11-13T15:53:50.000Z</time>
      </trkpt>
      <trkpt lat="37.2882814519107341766357421875" lon="-3.54158786125481128692626953125">
        <ele>1517.199951171875</ele>
        <time>2022-11-13T15:53:51.000Z</time>
      </trkpt>
      <trkpt lat="37.28827826678752899169921875" lon="-3.54161703027784824371337890625">
        <ele>1516.4000244140625</ele>
        <time>2022-11-13T15:53:53.000Z</time>
      </trkpt>
      <trkpt lat="37.28828773833811283111572265625" lon="-3.54164301417768001556396484375">
        <ele>1516</ele>
        <time>2022-11-13T15:53:55.000Z</time>
      </trkpt>
      <trkpt lat="37.2882936894893646240234375" lon="-3.54167553596198558807373046875">
        <ele>1515.199951171875</ele>
        <time>2022-11-13T15:53:58.000Z</time>
      </trkpt>
      <trkpt lat="37.28829796425998210906982421875" lon="-3.54168710298836231231689453125">
        <ele>1514.5999755859375</ele>
        <time>2022-11-13T15:54:00.000Z</time>
      </trkpt>
      <trkpt lat="37.2883002273738384246826171875" lon="-3.5417108237743377685546875">
        <ele>1514</ele>
        <time>2022-11-13T15:54:02.000Z</time>
      </trkpt>
      <trkpt lat="37.28829980827867984771728515625" lon="-3.5417223908007144927978515625">
        <ele>1513.800048828125</ele>
        <time>2022-11-13T15:54:03.000Z</time>
      </trkpt>
      <trkpt lat="37.288297712802886962890625" lon="-3.54175600223243236541748046875">
        <ele>1512.800048828125</ele>
        <time>2022-11-13T15:54:06.000Z</time>
      </trkpt>
      <trkpt lat="37.28830081410706043243408203125" lon="-3.54178835637867450714111328125">
        <ele>1512.199951171875</ele>
        <time>2022-11-13T15:54:09.000Z</time>
      </trkpt>
      <trkpt lat="37.288308441638946533203125" lon="-3.54180914349853992462158203125">
        <ele>1511.5999755859375</ele>
        <time>2022-11-13T15:54:11.000Z</time>
      </trkpt>
      <trkpt lat="37.28830701671540737152099609375" lon="-3.54183328337967395782470703125">
        <ele>1510.5999755859375</ele>
        <time>2022-11-13T15:54:15.000Z</time>
      </trkpt>
      <trkpt lat="37.28829377330839633941650390625" lon="-3.541837893426418304443359375">
        <ele>1510.4000244140625</ele>
        <time>2022-11-13T15:54:16.000Z</time>
      </trkpt>
      <trkpt lat="37.28826762177050113677978515625" lon="-3.5418762825429439544677734375">
        <ele>1509.199951171875</ele>
        <time>2022-11-13T15:54:21.000Z</time>
      </trkpt>
      <trkpt lat="37.28825756348669528961181640625" lon="-3.54189648292958736419677734375">
        <ele>1508.5999755859375</ele>
        <time>2022-11-13T15:54:23.000Z</time>
      </trkpt>
      <trkpt lat="37.28824582882225513458251953125" lon="-3.5419114865362644195556640625">
        <ele>1508</ele>
        <time>2022-11-13T15:54:25.000Z</time>
      </trkpt>
      <trkpt lat="37.28824582882225513458251953125" lon="-3.54192070662975311279296875">
        <ele>1507.4000244140625</ele>
        <time>2022-11-13T15:54:26.000Z</time>
      </trkpt>
      <trkpt lat="37.28823258541524410247802734375" lon="-3.541937805712223052978515625">
        <ele>1506.5999755859375</ele>
        <time>2022-11-13T15:54:28.000Z</time>
      </trkpt>
      <trkpt lat="37.288215570151805877685546875" lon="-3.5419926233589649200439453125">
        <ele>1505.800048828125</ele>
        <time>2022-11-13T15:54:34.000Z</time>
      </trkpt>
      <trkpt lat="37.28820542804896831512451171875" lon="-3.54201734997332096099853515625">
        <ele>1506.199951171875</ele>
        <time>2022-11-13T15:54:37.000Z</time>
      </trkpt>
      <trkpt lat="37.28818614967167377471923828125" lon="-3.5420315153896808624267578125">
        <ele>1506.5999755859375</ele>
        <time>2022-11-13T15:54:39.000Z</time>
      </trkpt>
      <trkpt lat="37.288178019225597381591796875" lon="-3.54204115457832813262939453125">
        <ele>1506.800048828125</ele>
        <time>2022-11-13T15:54:40.000Z</time>
      </trkpt>
      <trkpt lat="37.288166619837284088134765625" lon="-3.54205548763275146484375">
        <ele>1507</ele>
        <time>2022-11-13T15:54:41.000Z</time>
      </trkpt>
      <trkpt lat="37.28814675472676753997802734375" lon="-3.5421035997569561004638671875">
        <ele>1507.5999755859375</ele>
        <time>2022-11-13T15:54:45.000Z</time>
      </trkpt>
      <trkpt lat="37.28812127374112606048583984375" lon="-3.5421468503773212432861328125">
        <ele>1507.800048828125</ele>
        <time>2022-11-13T15:54:48.000Z</time>
      </trkpt>
      <trkpt lat="37.288107611238956451416015625" lon="-3.54216478765010833740234375">
        <ele>1508</ele>
        <time>2022-11-13T15:54:50.000Z</time>
      </trkpt>
      <trkpt lat="37.28810283355414867401123046875" lon="-3.54219160974025726318359375">
        <ele>1508</ele>
        <time>2022-11-13T15:54:52.000Z</time>
      </trkpt>
      <trkpt lat="37.2881171666085720062255859375" lon="-3.5422236286103725433349609375">
        <ele>1507.800048828125</ele>
        <time>2022-11-13T15:54:55.000Z</time>
      </trkpt>
      <trkpt lat="37.288100235164165496826171875" lon="-3.542242906987667083740234375">
        <ele>1507.5999755859375</ele>
        <time>2022-11-13T15:54:59.000Z</time>
      </trkpt>
      <trkpt lat="37.2880903445184230804443359375" lon="-3.54224123060703277587890625">
        <ele>1507.4000244140625</ele>
        <time>2022-11-13T15:55:00.000Z</time>
      </trkpt>
      <trkpt lat="37.28808405809104442596435546875" lon="-3.54223980568349361419677734375">
        <ele>1507.4000244140625</ele>
        <time>2022-11-13T15:55:01.000Z</time>
      </trkpt>
      <trkpt lat="37.28808774612843990325927734375" lon="-3.542260341346263885498046875">
        <ele>1507</ele>
        <time>2022-11-13T15:55:04.000Z</time>
      </trkpt>
      <trkpt lat="37.2880883328616619110107421875" lon="-3.54226578958332538604736328125">
        <ele>1506.800048828125</ele>
        <time>2022-11-13T15:55:05.000Z</time>
      </trkpt>
      <trkpt lat="37.28807869367301464080810546875" lon="-3.542283475399017333984375">
        <ele>1506.4000244140625</ele>
        <time>2022-11-13T15:55:08.000Z</time>
      </trkpt>
      <trkpt lat="37.2880494408309459686279296875" lon="-3.54229160584509372711181640625">
        <ele>1505.800048828125</ele>
        <time>2022-11-13T15:55:11.000Z</time>
      </trkpt>
      <trkpt lat="37.28803661651909351348876953125" lon="-3.542287833988666534423828125">
        <ele>1505.4000244140625</ele>
        <time>2022-11-13T15:55:13.000Z</time>
      </trkpt>
      <trkpt lat="37.28802069090306758880615234375" lon="-3.542291857302188873291015625">
        <ele>1504.5999755859375</ele>
        <time>2022-11-13T15:55:15.000Z</time>
      </trkpt>
      <trkpt lat="37.288002334535121917724609375" lon="-3.542302586138248443603515625">
        <ele>1504.199951171875</ele>
        <time>2022-11-13T15:55:17.000Z</time>
      </trkpt>
      <trkpt lat="37.28797861374914646148681640625" lon="-3.54231306351721286773681640625">
        <ele>1503.4000244140625</ele>
        <time>2022-11-13T15:55:21.000Z</time>
      </trkpt>
      <trkpt lat="37.28797090239822864532470703125" lon="-3.54232647456228733062744140625">
        <ele>1503.199951171875</ele>
        <time>2022-11-13T15:55:22.000Z</time>
      </trkpt>
      <trkpt lat="37.2879639454185962677001953125" lon="-3.54233644902706146240234375">
        <ele>1503</ele>
        <time>2022-11-13T15:55:23.000Z</time>
      </trkpt>
      <trkpt lat="37.2879423201084136962890625" lon="-3.5423543862998485565185546875">
        <ele>1502.4000244140625</ele>
        <time>2022-11-13T15:55:26.000Z</time>
      </trkpt>
      <trkpt lat="37.28793066926300525665283203125" lon="-3.5423738323152065277099609375">
        <ele>1502</ele>
        <time>2022-11-13T15:55:28.000Z</time>
      </trkpt>
      <trkpt lat="37.2879240475594997406005859375" lon="-3.542383052408695220947265625">
        <ele>1501.800048828125</ele>
        <time>2022-11-13T15:55:29.000Z</time>
      </trkpt>
      <trkpt lat="37.2879059426486492156982421875" lon="-3.54239948093891143798828125">
        <ele>1501.5999755859375</ele>
        <time>2022-11-13T15:55:33.000Z</time>
      </trkpt>
      <trkpt lat="37.287903763353824615478515625" lon="-3.5423999838531017303466796875">
        <ele>1501.5999755859375</ele>
        <time>2022-11-13T15:55:34.000Z</time>
      </trkpt>
      <trkpt lat="37.28789797984063625335693359375" lon="-3.54240207932889461517333984375">
        <ele>1501.800048828125</ele>
        <time>2022-11-13T15:55:36.000Z</time>
      </trkpt>
      <trkpt lat="37.2879022546112537384033203125" lon="-3.542413227260112762451171875">
        <ele>1502</ele>
        <time>2022-11-13T15:55:39.000Z</time>
      </trkpt>
      <trkpt lat="37.28790921159088611602783203125" lon="-3.54243292473256587982177734375">
        <ele>1501.800048828125</ele>
        <time>2022-11-13T15:55:41.000Z</time>
      </trkpt>
      <trkpt lat="37.2879146598279476165771484375" lon="-3.54244164191186428070068359375">
        <ele>1501.800048828125</ele>
        <time>2022-11-13T15:55:42.000Z</time>
      </trkpt>
      <trkpt lat="37.28791256435215473175048828125" lon="-3.5424710623919963836669921875">
        <ele>1501.800048828125</ele>
        <time>2022-11-13T15:55:45.000Z</time>
      </trkpt>
      <trkpt lat="37.28789898566901683807373046875" lon="-3.54245455004274845123291015625">
        <ele>1501.4000244140625</ele>
        <time>2022-11-13T15:55:50.000Z</time>
      </trkpt>
      <trkpt lat="37.28790719993412494659423828125" lon="-3.54247366078197956085205078125">
        <ele>1501.199951171875</ele>
        <time>2022-11-13T15:55:55.000Z</time>
      </trkpt>
      <trkpt lat="37.28789663873612880706787109375" lon="-3.5425019077956676483154296875">
        <ele>1501.4000244140625</ele>
        <time>2022-11-13T15:56:00.000Z</time>
      </trkpt>
      <trkpt lat="37.28791792877018451690673828125" lon="-3.5425374470651149749755859375">
        <ele>1501.5999755859375</ele>
        <time>2022-11-13T15:56:06.000Z</time>
      </trkpt>
      <trkpt lat="37.2879289090633392333984375" lon="-3.54255932383239269256591796875">
        <ele>1501.5999755859375</ele>
        <time>2022-11-13T15:56:07.000Z</time>
      </trkpt>
      <trkpt lat="37.28794609196484088897705078125" lon="-3.54260492138564586639404296875">
        <ele>1501.5999755859375</ele>
        <time>2022-11-13T15:56:12.000Z</time>
      </trkpt>
      <trkpt lat="37.28789647109806537628173828125" lon="-3.5426098667085170745849609375">
        <ele>1502.4000244140625</ele>
        <time>2022-11-13T15:56:18.000Z</time>
      </trkpt>
      <trkpt lat="37.2878921963274478912353515625" lon="-3.54261095635592937469482421875">
        <ele>1502.5999755859375</ele>
        <time>2022-11-13T15:56:19.000Z</time>
      </trkpt>
      <trkpt lat="37.28788934648036956787109375" lon="-3.542615063488483428955078125">
        <ele>1502.5999755859375</ele>
        <time>2022-11-13T15:56:20.000Z</time>
      </trkpt>
      <trkpt lat="37.2878626920282840728759765625" lon="-3.54262000881135463714599609375">
        <ele>1502.800048828125</ele>
        <time>2022-11-13T15:56:23.000Z</time>
      </trkpt>
      <trkpt lat="37.28784902952611446380615234375" lon="-3.54263761080801486968994140625">
        <ele>1502.5999755859375</ele>
        <time>2022-11-13T15:56:26.000Z</time>
      </trkpt>
      <trkpt lat="37.28784366510808467864990234375" lon="-3.5426427237689495086669921875">
        <ele>1502.5999755859375</ele>
        <time>2022-11-13T15:56:27.000Z</time>
      </trkpt>
      <trkpt lat="37.28784249164164066314697265625" lon="-3.5426497645676136016845703125">
        <ele>1502.5999755859375</ele>
        <time>2022-11-13T15:56:28.000Z</time>
      </trkpt>
      <trkpt lat="37.28784374892711639404296875" lon="-3.54266191832721233367919921875">
        <ele>1502.5999755859375</ele>
        <time>2022-11-13T15:56:30.000Z</time>
      </trkpt>
      <trkpt lat="37.28783947415649890899658203125" lon="-3.5426779277622699737548828125">
        <ele>1502.5999755859375</ele>
        <time>2022-11-13T15:56:32.000Z</time>
      </trkpt>
      <trkpt lat="37.2878308407962322235107421875" lon="-3.54268102906644344329833984375">
        <ele>1503.199951171875</ele>
        <time>2022-11-13T15:56:34.000Z</time>
      </trkpt>
      <trkpt lat="37.28780888020992279052734375" lon="-3.542703576385974884033203125">
        <ele>1503.800048828125</ele>
        <time>2022-11-13T15:56:38.000Z</time>
      </trkpt>
      <trkpt lat="37.287804521620273590087890625" lon="-3.5427112877368927001953125">
        <ele>1504</ele>
        <time>2022-11-13T15:56:39.000Z</time>
      </trkpt>
      <trkpt lat="37.28774995543062686920166015625" lon="-3.542742468416690826416015625">
        <ele>1503.5999755859375</ele>
        <time>2022-11-13T15:56:46.000Z</time>
      </trkpt>
      <trkpt lat="37.2877384722232818603515625" lon="-3.54277876205742359161376953125">
        <ele>1504</ele>
        <time>2022-11-13T15:56:51.000Z</time>
      </trkpt>
      <trkpt lat="37.28774727322161197662353515625" lon="-3.5427801869809627532958984375">
        <ele>1504.199951171875</ele>
        <time>2022-11-13T15:56:52.000Z</time>
      </trkpt>
      <trkpt lat="37.28774123825132846832275390625" lon="-3.54278848506510257720947265625">
        <ele>1504.4000244140625</ele>
        <time>2022-11-13T15:56:55.000Z</time>
      </trkpt>
      <trkpt lat="37.2877396456897258758544921875" lon="-3.54279552586376667022705078125">
        <ele>1504.800048828125</ele>
        <time>2022-11-13T15:56:56.000Z</time>
      </trkpt>
      <trkpt lat="37.2877403162419795989990234375" lon="-3.54280893690884113311767578125">
        <ele>1505.4000244140625</ele>
        <time>2022-11-13T15:56:58.000Z</time>
      </trkpt>
      <trkpt lat="37.287744842469692230224609375" lon="-3.54282863438129425048828125">
        <ele>1505.5999755859375</ele>
        <time>2022-11-13T15:57:01.000Z</time>
      </trkpt>
      <trkpt lat="37.28774643503129482269287109375" lon="-3.5428512655198574066162109375">
        <ele>1505.5999755859375</ele>
        <time>2022-11-13T15:57:03.000Z</time>
      </trkpt>
      <trkpt lat="37.28774576447904109954833984375" lon="-3.54286744259297847747802734375">
        <ele>1505.4000244140625</ele>
        <time>2022-11-13T15:57:04.000Z</time>
      </trkpt>
      <trkpt lat="37.287760935723781585693359375" lon="-3.54294673539698123931884765625">
        <ele>1505.4000244140625</ele>
        <time>2022-11-13T15:57:09.000Z</time>
      </trkpt>
      <trkpt lat="37.28776219300925731658935546875" lon="-3.5429741442203521728515625">
        <ele>1504.800048828125</ele>
        <time>2022-11-13T15:57:13.000Z</time>
      </trkpt>
      <trkpt lat="37.287761606276035308837890625" lon="-3.542977832257747650146484375">
        <ele>1504.5999755859375</ele>
        <time>2022-11-13T15:57:15.000Z</time>
      </trkpt>
      <trkpt lat="37.2877513803541660308837890625" lon="-3.5429786704480648040771484375">
        <ele>1504.4000244140625</ele>
        <time>2022-11-13T15:57:20.000Z</time>
      </trkpt>
      <trkpt lat="37.287750542163848876953125" lon="-3.542973808944225311279296875">
        <ele>1504.199951171875</ele>
        <time>2022-11-13T15:57:22.000Z</time>
      </trkpt>
      <trkpt lat="37.287749536335468292236328125" lon="-3.5429719649255275726318359375">
        <ele>1504.199951171875</ele>
        <time>2022-11-13T15:57:25.000Z</time>
      </trkpt>
      <trkpt lat="37.287750542163848876953125" lon="-3.542973808944225311279296875">
        <ele>1504.800048828125</ele>
        <time>2022-11-13T15:57:35.000Z</time>
      </trkpt>
      <trkpt lat="37.2877708263695240020751953125" lon="-3.54297858662903308868408203125">
        <ele>1504.4000244140625</ele>
        <time>2022-11-13T15:57:45.000Z</time>
      </trkpt>
      <trkpt lat="37.287790775299072265625" lon="-3.5430229268968105316162109375">
        <ele>1504.199951171875</ele>
        <time>2022-11-13T15:57:54.000Z</time>
      </trkpt>
      <trkpt lat="37.28781634010374546051025390625" lon="-3.54313013143837451934814453125">
        <ele>1503.800048828125</ele>
        <time>2022-11-13T15:58:02.000Z</time>
      </trkpt>
      <trkpt lat="37.28781483136117458343505859375" lon="-3.54318268597126007080078125">
        <ele>1503.800048828125</ele>
        <time>2022-11-13T15:58:07.000Z</time>
      </trkpt>
      <trkpt lat="37.28780695237219333648681640625" lon="-3.54320104233920574188232421875">
        <ele>1503.199951171875</ele>
        <time>2022-11-13T15:58:09.000Z</time>
      </trkpt>
      <trkpt lat="37.28780745528638362884521484375" lon="-3.54320590384304523468017578125">
        <ele>1502.800048828125</ele>
        <time>2022-11-13T15:58:15.000Z</time>
      </trkpt>
      <trkpt lat="37.2878100536763668060302734375" lon="-3.54324043728411197662353515625">
        <ele>1502.800048828125</ele>
        <time>2022-11-13T15:58:19.000Z</time>
      </trkpt>
      <trkpt lat="37.2878216207027435302734375" lon="-3.5432774014770984649658203125">
        <ele>1502.199951171875</ele>
        <time>2022-11-13T15:58:22.000Z</time>
      </trkpt>
      <trkpt lat="37.28782371617853641510009765625" lon="-3.5432921536266803741455078125">
        <ele>1501.800048828125</ele>
        <time>2022-11-13T15:58:29.000Z</time>
      </trkpt>
      <trkpt lat="37.28782136924564838409423828125" lon="-3.5433451272547245025634765625">
        <ele>1501.800048828125</ele>
        <time>2022-11-13T15:58:35.000Z</time>
      </trkpt>
      <trkpt lat="37.28780276142060756683349609375" lon="-3.543362058699131011962890625">
        <ele>1501</ele>
        <time>2022-11-13T15:58:38.000Z</time>
      </trkpt>
      <trkpt lat="37.287814915180206298828125" lon="-3.5433927364647388458251953125">
        <ele>1500.199951171875</ele>
        <time>2022-11-13T15:58:41.000Z</time>
      </trkpt>
      <trkpt lat="37.28780829347670078277587890625" lon="-3.543420732021331787109375">
        <ele>1499.800048828125</ele>
        <time>2022-11-13T15:58:44.000Z</time>
      </trkpt>
      <trkpt lat="37.28780862875282764434814453125" lon="-3.54341545142233371734619140625">
        <ele>1499.199951171875</ele>
        <time>2022-11-13T15:58:47.000Z</time>
      </trkpt>
      <trkpt lat="37.28781030513346195220947265625" lon="-3.54345518164336681365966796875">
        <ele>1499</ele>
        <time>2022-11-13T15:58:55.000Z</time>
      </trkpt>
      <trkpt lat="37.28780343197286128997802734375" lon="-3.54347999207675457000732421875">
        <ele>1498.5999755859375</ele>
        <time>2022-11-13T15:58:58.000Z</time>
      </trkpt>
      <trkpt lat="37.28777803480625152587890625" lon="-3.54353682138025760650634765625">
        <ele>1497.800048828125</ele>
        <time>2022-11-13T15:59:04.000Z</time>
      </trkpt>
      <trkpt lat="37.28777476586401462554931640625" lon="-3.54354704730212688446044921875">
        <ele>1497.199951171875</ele>
        <time>2022-11-13T15:59:05.000Z</time>
      </trkpt>
      <trkpt lat="37.2877741791307926177978515625" lon="-3.54356448166072368621826171875">
        <ele>1496.5999755859375</ele>
        <time>2022-11-13T15:59:10.000Z</time>
      </trkpt>
      <trkpt lat="37.28778180666267871856689453125" lon="-3.543568588793277740478515625">
        <ele>1496.5999755859375</ele>
        <time>2022-11-13T15:59:17.000Z</time>
      </trkpt>
      <trkpt lat="37.2877896018326282501220703125" lon="-3.5436451993882656097412109375">
        <ele>1496.199951171875</ele>
        <time>2022-11-13T15:59:23.000Z</time>
      </trkpt>
      <trkpt lat="37.28778474032878875732421875" lon="-3.54365718550980091094970703125">
        <ele>1496.199951171875</ele>
        <time>2022-11-13T15:59:24.000Z</time>
      </trkpt>
      <trkpt lat="37.2877714969217777252197265625" lon="-3.54369021020829677581787109375">
        <ele>1496</ele>
        <time>2022-11-13T15:59:27.000Z</time>
      </trkpt>
      <trkpt lat="37.28777325712144374847412109375" lon="-3.5437357239425182342529296875">
        <ele>1495.199951171875</ele>
        <time>2022-11-13T15:59:32.000Z</time>
      </trkpt>
      <trkpt lat="37.28775364346802234649658203125" lon="-3.543812669813632965087890625">
        <ele>1494.800048828125</ele>
        <time>2022-11-13T15:59:38.000Z</time>
      </trkpt>
      <trkpt lat="37.28774425573647022247314453125" lon="-3.543860279023647308349609375">
        <ele>1494.199951171875</ele>
        <time>2022-11-13T15:59:41.000Z</time>
      </trkpt>
      <trkpt lat="37.287736795842647552490234375" lon="-3.54390042833983898162841796875">
        <ele>1493.800048828125</ele>
        <time>2022-11-13T15:59:45.000Z</time>
      </trkpt>
      <trkpt lat="37.2877195291221141815185546875" lon="-3.5439710877835750579833984375">
        <ele>1493.800048828125</ele>
        <time>2022-11-13T15:59:52.000Z</time>
      </trkpt>
      <trkpt lat="37.2877004183828830718994140625" lon="-3.5440616123378276824951171875">
        <ele>1493.800048828125</ele>
        <time>2022-11-13T16:00:00.000Z</time>
      </trkpt>
      <trkpt lat="37.287702262401580810546875" lon="-3.54406655766069889068603515625">
        <ele>1493.5999755859375</ele>
        <time>2022-11-13T16:00:02.000Z</time>
      </trkpt>
      <trkpt lat="37.28769329376518726348876953125" lon="-3.54407527483999729156494140625">
        <ele>1493.5999755859375</ele>
        <time>2022-11-13T16:00:05.000Z</time>
      </trkpt>
      <trkpt lat="37.287681140005588531494140625" lon="-3.544108383357524871826171875">
        <ele>1493.5999755859375</ele>
        <time>2022-11-13T16:00:07.000Z</time>
      </trkpt>
      <trkpt lat="37.28767720051109790802001953125" lon="-3.54412120766937732696533203125">
        <ele>1493.5999755859375</ele>
        <time>2022-11-13T16:00:08.000Z</time>
      </trkpt>
      <trkpt lat="37.28766663931310176849365234375" lon="-3.5441387258470058441162109375">
        <ele>1493.4000244140625</ele>
        <time>2022-11-13T16:00:09.000Z</time>
      </trkpt>
      <trkpt lat="37.28765574283897876739501953125" lon="-3.54416797868907451629638671875">
        <ele>1493.4000244140625</ele>
        <time>2022-11-13T16:00:11.000Z</time>
      </trkpt>
      <trkpt lat="37.28764794766902923583984375" lon="-3.544197566807270050048828125">
        <ele>1493.199951171875</ele>
        <time>2022-11-13T16:00:13.000Z</time>
      </trkpt>
      <trkpt lat="37.28764417581260204315185546875" lon="-3.54425615631043910980224609375">
        <ele>1492.4000244140625</ele>
        <time>2022-11-13T16:00:19.000Z</time>
      </trkpt>
      <trkpt lat="37.28764467872679233551025390625" lon="-3.54427761398255825042724609375">
        <ele>1492.4000244140625</ele>
        <time>2022-11-13T16:00:23.000Z</time>
      </trkpt>
      <trkpt lat="37.28764384053647518157958984375" lon="-3.54428532533347606658935546875">
        <ele>1492.800048828125</ele>
        <time>2022-11-13T16:00:26.000Z</time>
      </trkpt>
      <trkpt lat="37.28764987550675868988037109375" lon="-3.54431332089006900787353515625">
        <ele>1493</ele>
        <time>2022-11-13T16:00:29.000Z</time>
      </trkpt>
      <trkpt lat="37.28763177059590816497802734375" lon="-3.54435120709240436553955078125">
        <ele>1492.800048828125</ele>
        <time>2022-11-13T16:00:33.000Z</time>
      </trkpt>
      <trkpt lat="37.287595309317111968994140625" lon="-3.544450365006923675537109375">
        <ele>1492.5999755859375</ele>
        <time>2022-11-13T16:00:41.000Z</time>
      </trkpt>
      <trkpt lat="37.28752733208239078521728515625" lon="-3.5445343516767024993896484375">
        <ele>1491.800048828125</ele>
        <time>2022-11-13T16:00:47.000Z</time>
      </trkpt>
      <trkpt lat="37.28751241229474544525146484375" lon="-3.54458950459957122802734375">
        <ele>1490.800048828125</ele>
        <time>2022-11-13T16:00:50.000Z</time>
      </trkpt>
      <trkpt lat="37.2875079698860645294189453125" lon="-3.54460769332945346832275390625">
        <ele>1490.800048828125</ele>
        <time>2022-11-13T16:00:51.000Z</time>
      </trkpt>
      <trkpt lat="37.28750503621995449066162109375" lon="-3.54467323981225490570068359375">
        <ele>1490.4000244140625</ele>
        <time>2022-11-13T16:00:56.000Z</time>
      </trkpt>
      <trkpt lat="37.28753152303397655487060546875" lon="-3.54475320316851139068603515625">
        <ele>1491</ele>
        <time>2022-11-13T16:01:04.000Z</time>
      </trkpt>
      <trkpt lat="37.28752297349274158477783203125" lon="-3.54485931806266307830810546875">
        <ele>1491.5999755859375</ele>
        <time>2022-11-13T16:01:12.000Z</time>
      </trkpt>
      <trkpt lat="37.28752917610108852386474609375" lon="-3.54487038217484951019287109375">
        <ele>1491.5999755859375</ele>
        <time>2022-11-13T16:01:13.000Z</time>
      </trkpt>
      <trkpt lat="37.28753864765167236328125" lon="-3.54490256868302822113037109375">
        <ele>1492</ele>
        <time>2022-11-13T16:01:16.000Z</time>
      </trkpt>
      <trkpt lat="37.2875364683568477630615234375" lon="-3.54494481347501277923583984375">
        <ele>1492.199951171875</ele>
        <time>2022-11-13T16:01:19.000Z</time>
      </trkpt>
      <trkpt lat="37.28755566291511058807373046875" lon="-3.545088060200214385986328125">
        <ele>1492.800048828125</ele>
        <time>2022-11-13T16:01:30.000Z</time>
      </trkpt>
      <trkpt lat="37.28752456605434417724609375" lon="-3.5451898165047168731689453125">
        <ele>1492.199951171875</ele>
        <time>2022-11-13T16:01:39.000Z</time>
      </trkpt>
      <trkpt lat="37.28752180002629756927490234375" lon="-3.5451869666576385498046875">
        <ele>1492.199951171875</ele>
        <time>2022-11-13T16:01:40.000Z</time>
      </trkpt>
      <trkpt lat="37.2875158488750457763671875" lon="-3.545181266963481903076171875">
        <ele>1492.199951171875</ele>
        <time>2022-11-13T16:01:42.000Z</time>
      </trkpt>
      <trkpt lat="37.28753671981394290924072265625" lon="-3.5451713763177394866943359375">
        <ele>1492.199951171875</ele>
        <time>2022-11-13T16:01:50.000Z</time>
      </trkpt>
      <trkpt lat="37.28754694573581218719482421875" lon="-3.54522594250738620758056640625">
        <ele>1492.4000244140625</ele>
        <time>2022-11-13T16:01:56.000Z</time>
      </trkpt>
      <trkpt lat="37.2875533998012542724609375" lon="-3.54523616842925548553466796875">
        <ele>1492.4000244140625</ele>
        <time>2022-11-13T16:01:57.000Z</time>
      </trkpt>
      <trkpt lat="37.2875909507274627685546875" lon="-3.545264415442943572998046875">
        <ele>1493</ele>
        <time>2022-11-13T16:02:01.000Z</time>
      </trkpt>
      <trkpt lat="37.28760243393480777740478515625" lon="-3.54526944458484649658203125">
        <ele>1493.199951171875</ele>
        <time>2022-11-13T16:02:02.000Z</time>
      </trkpt>
      <trkpt lat="37.28760696016252040863037109375" lon="-3.545277826488018035888671875">
        <ele>1493.4000244140625</ele>
        <time>2022-11-13T16:02:03.000Z</time>
      </trkpt>
      <trkpt lat="37.28760997764766216278076171875" lon="-3.5452877171337604522705078125">
        <ele>1493.4000244140625</ele>
        <time>2022-11-13T16:02:04.000Z</time>
      </trkpt>
      <trkpt lat="37.287614084780216217041015625" lon="-3.5453034751117229461669921875">
        <ele>1493.800048828125</ele>
        <time>2022-11-13T16:02:06.000Z</time>
      </trkpt>
      <trkpt lat="37.28763177059590816497802734375" lon="-3.5453259386122226715087890625">
        <ele>1494.199951171875</ele>
        <time>2022-11-13T16:02:09.000Z</time>
      </trkpt>
      <trkpt lat="37.2876461036503314971923828125" lon="-3.545338176190853118896484375">
        <ele>1494.4000244140625</ele>
        <time>2022-11-13T16:02:11.000Z</time>
      </trkpt>
      <trkpt lat="37.287667058408260345458984375" lon="-3.545351587235927581787109375">
        <ele>1494.800048828125</ele>
        <time>2022-11-13T16:02:14.000Z</time>
      </trkpt>
      <trkpt lat="37.2876970656216144561767578125" lon="-3.54536307044327259063720703125">
        <ele>1495.199951171875</ele>
        <time>2022-11-13T16:02:17.000Z</time>
      </trkpt>
      <trkpt lat="37.28771097958087921142578125" lon="-3.54537136852741241455078125">
        <ele>1495.4000244140625</ele>
        <time>2022-11-13T16:02:18.000Z</time>
      </trkpt>
      <trkpt lat="37.28773185051977634429931640625" lon="-3.5454090870916843414306640625">
        <ele>1495.5999755859375</ele>
        <time>2022-11-13T16:02:21.000Z</time>
      </trkpt>
      <trkpt lat="37.2877429984509944915771484375" lon="-3.54543196968734264373779296875">
        <ele>1495.5999755859375</ele>
        <time>2022-11-13T16:02:23.000Z</time>
      </trkpt>
      <trkpt lat="37.28776403702795505523681640625" lon="-3.5454553551971912384033203125">
        <ele>1495.5999755859375</ele>
        <time>2022-11-13T16:02:26.000Z</time>
      </trkpt>
      <trkpt lat="37.28778985328972339630126953125" lon="-3.5454774834215641021728515625">
        <ele>1495.4000244140625</ele>
        <time>2022-11-13T16:02:29.000Z</time>
      </trkpt>
      <trkpt lat="37.28780276142060756683349609375" lon="-3.5454862006008625030517578125">
        <ele>1495.4000244140625</ele>
        <time>2022-11-13T16:02:30.000Z</time>
      </trkpt>
      <trkpt lat="37.2878184355795383453369140625" lon="-3.5455046407878398895263671875">
        <ele>1495.199951171875</ele>
        <time>2022-11-13T16:02:33.000Z</time>
      </trkpt>
      <trkpt lat="37.28782958351075649261474609375" lon="-3.54551008902490139007568359375">
        <ele>1495.199951171875</ele>
        <time>2022-11-13T16:02:35.000Z</time>
      </trkpt>
      <trkpt lat="37.2878761030733585357666015625" lon="-3.54552500881254673004150390625">
        <ele>1495</ele>
        <time>2022-11-13T16:02:41.000Z</time>
      </trkpt>
      <trkpt lat="37.28787518106400966644287109375" lon="-3.5455250926315784454345703125">
        <ele>1495</ele>
        <time>2022-11-13T16:02:42.000Z</time>
      </trkpt>
      <trkpt lat="37.28787300176918506622314453125" lon="-3.54552903212606906890869140625">
        <ele>1494.800048828125</ele>
        <time>2022-11-13T16:02:43.000Z</time>
      </trkpt>
      <trkpt lat="37.2878831438720226287841796875" lon="-3.54555786587297916412353515625">
        <ele>1494.5999755859375</ele>
        <time>2022-11-13T16:02:50.000Z</time>
      </trkpt>
      <trkpt lat="37.28789932094514369964599609375" lon="-3.54555702768266201019287109375">
        <ele>1494.5999755859375</ele>
        <time>2022-11-13T16:02:52.000Z</time>
      </trkpt>
      <trkpt lat="37.2879160009324550628662109375" lon="-3.54555920697748661041259765625">
        <ele>1494.5999755859375</ele>
        <time>2022-11-13T16:02:55.000Z</time>
      </trkpt>
      <trkpt lat="37.28792513720691204071044921875" lon="-3.54555166326463222503662109375">
        <ele>1494.4000244140625</ele>
        <time>2022-11-13T16:02:59.000Z</time>
      </trkpt>
      <trkpt lat="37.28793787769973278045654296875" lon="-3.5455495677888393402099609375">
        <ele>1494.4000244140625</ele>
        <time>2022-11-13T16:03:01.000Z</time>
      </trkpt>
      <trkpt lat="37.287956066429615020751953125" lon="-3.54554462246596813201904296875">
        <ele>1494.199951171875</ele>
        <time>2022-11-13T16:03:04.000Z</time>
      </trkpt>
      <trkpt lat="37.287979535758495330810546875" lon="-3.5455354861915111541748046875">
        <ele>1493.5999755859375</ele>
        <time>2022-11-13T16:03:07.000Z</time>
      </trkpt>
      <trkpt lat="37.28800409473478794097900390625" lon="-3.54554328136146068572998046875">
        <ele>1493</ele>
        <time>2022-11-13T16:03:09.000Z</time>
      </trkpt>
      <trkpt lat="37.28803955018520355224609375" lon="-3.54551486670970916748046875">
        <ele>1492.199951171875</ele>
        <time>2022-11-13T16:03:14.000Z</time>
      </trkpt>
      <trkpt lat="37.2880470938980579376220703125" lon="-3.54550505988299846649169921875">
        <ele>1492</ele>
        <time>2022-11-13T16:03:15.000Z</time>
      </trkpt>
      <trkpt lat="37.28808824904263019561767578125" lon="-3.54549030773341655731201171875">
        <ele>1490.800048828125</ele>
        <time>2022-11-13T16:03:19.000Z</time>
      </trkpt>
      <trkpt lat="37.28811155073344707489013671875" lon="-3.54547471739351749420166015625">
        <ele>1490</ele>
        <time>2022-11-13T16:03:22.000Z</time>
      </trkpt>
      <trkpt lat="37.2881233692169189453125" lon="-3.54546390473842620849609375">
        <ele>1489.5999755859375</ele>
        <time>2022-11-13T16:03:23.000Z</time>
      </trkpt>
      <trkpt lat="37.2881322540342807769775390625" lon="-3.54545376263558864593505859375">
        <ele>1489.4000244140625</ele>
        <time>2022-11-13T16:03:25.000Z</time>
      </trkpt>
      <trkpt lat="37.28814524598419666290283203125" lon="-3.54547203518450260162353515625">
        <ele>1488.800048828125</ele>
        <time>2022-11-13T16:03:28.000Z</time>
      </trkpt>
      <trkpt lat="37.2881483472883701324462890625" lon="-3.545483686029911041259765625">
        <ele>1488.5999755859375</ele>
        <time>2022-11-13T16:03:29.000Z</time>
      </trkpt>
      <trkpt lat="37.28815614245831966400146484375" lon="-3.54548561386764049530029296875">
        <ele>1488.199951171875</ele>
        <time>2022-11-13T16:03:30.000Z</time>
      </trkpt>
      <trkpt lat="37.2881890833377838134765625" lon="-3.54547823779284954071044921875">
        <ele>1487.199951171875</ele>
        <time>2022-11-13T16:03:34.000Z</time>
      </trkpt>
      <trkpt lat="37.28820643387734889984130859375" lon="-3.545479662716388702392578125">
        <ele>1486.5999755859375</ele>
        <time>2022-11-13T16:03:36.000Z</time>
      </trkpt>
      <trkpt lat="37.28822319768369197845458984375" lon="-3.54547597467899322509765625">
        <ele>1486</ele>
        <time>2022-11-13T16:03:38.000Z</time>
      </trkpt>
      <trkpt lat="37.28823258541524410247802734375" lon="-3.54547488503158092498779296875">
        <ele>1485.800048828125</ele>
        <time>2022-11-13T16:03:39.000Z</time>
      </trkpt>
      <trkpt lat="37.28823962621390819549560546875" lon="-3.5454754717648029327392578125">
        <ele>1485.4000244140625</ele>
        <time>2022-11-13T16:03:41.000Z</time>
      </trkpt>
      <trkpt lat="37.2882475890219211578369140625" lon="-3.5454784892499446868896484375">
        <ele>1485</ele>
        <time>2022-11-13T16:03:42.000Z</time>
      </trkpt>
      <trkpt lat="37.288253791630268096923828125" lon="-3.545478992164134979248046875">
        <ele>1484.800048828125</ele>
        <time>2022-11-13T16:03:43.000Z</time>
      </trkpt>
      <trkpt lat="37.28826527483761310577392578125" lon="-3.5454831831157207489013671875">
        <ele>1484</ele>
        <time>2022-11-13T16:03:45.000Z</time>
      </trkpt>
      <trkpt lat="37.2882703877985477447509765625" lon="-3.5454846918582916259765625">
        <ele>1484</ele>
        <time>2022-11-13T16:03:46.000Z</time>
      </trkpt>
      <trkpt lat="37.28827851824462413787841796875" lon="-3.5454808361828327178955078125">
        <ele>1483.5999755859375</ele>
        <time>2022-11-13T16:03:47.000Z</time>
      </trkpt>
      <trkpt lat="37.2882884927093982696533203125" lon="-3.5454712808132171630859375">
        <ele>1483.4000244140625</ele>
        <time>2022-11-13T16:03:48.000Z</time>
      </trkpt>
      <trkpt lat="37.2883153147995471954345703125" lon="-3.54545359499752521514892578125">
        <ele>1482.800048828125</ele>
        <time>2022-11-13T16:03:51.000Z</time>
      </trkpt>
      <trkpt lat="37.2883206792175769805908203125" lon="-3.54545594193041324615478515625">
        <ele>1482.5999755859375</ele>
        <time>2022-11-13T16:03:52.000Z</time>
      </trkpt>
      <trkpt lat="37.288340963423252105712890625" lon="-3.54546097107231616973876953125">
        <ele>1482.199951171875</ele>
        <time>2022-11-13T16:03:55.000Z</time>
      </trkpt>
      <trkpt lat="37.28835605084896087646484375" lon="-3.54545879177749156951904296875">
        <ele>1481.800048828125</ele>
        <time>2022-11-13T16:03:57.000Z</time>
      </trkpt>
      <trkpt lat="37.2883632592856884002685546875" lon="-3.54545795358717441558837890625">
        <ele>1481.4000244140625</ele>
        <time>2022-11-13T16:03:58.000Z</time>
      </trkpt>
      <trkpt lat="37.288375161588191986083984375" lon="-3.54546247981488704681396484375">
        <ele>1481</ele>
        <time>2022-11-13T16:04:00.000Z</time>
      </trkpt>
      <trkpt lat="37.28838446550071239471435546875" lon="-3.54546792805194854736328125">
        <ele>1480.4000244140625</ele>
        <time>2022-11-13T16:04:02.000Z</time>
      </trkpt>
      <trkpt lat="37.28839251212775707244873046875" lon="-3.545473627746105194091796875">
        <ele>1480.199951171875</ele>
        <time>2022-11-13T16:04:03.000Z</time>
      </trkpt>
      <trkpt lat="37.288415729999542236328125" lon="-3.54550237767398357391357421875">
        <ele>1479.4000244140625</ele>
        <time>2022-11-13T16:04:07.000Z</time>
      </trkpt>
      <trkpt lat="37.288426458835601806640625" lon="-3.5455036349594593048095703125">
        <ele>1478.800048828125</ele>
        <time>2022-11-13T16:04:09.000Z</time>
      </trkpt>
      <trkpt lat="37.28843919932842254638671875" lon="-3.54550405405461788177490234375">
        <ele>1478.199951171875</ele>
        <time>2022-11-13T16:04:11.000Z</time>
      </trkpt>
      <trkpt lat="37.2884661890566349029541015625" lon="-3.5454888828098773956298828125">
        <ele>1477.4000244140625</ele>
        <time>2022-11-13T16:04:16.000Z</time>
      </trkpt>
      <trkpt lat="37.28847163729369640350341796875" lon="-3.54548930190503597259521484375">
        <ele>1477.199951171875</ele>
        <time>2022-11-13T16:04:17.000Z</time>
      </trkpt>
      <trkpt lat="37.28849041275680065155029296875" lon="-3.5455130226910114288330078125">
        <ele>1476.800048828125</ele>
        <time>2022-11-13T16:04:21.000Z</time>
      </trkpt>
      <trkpt lat="37.2884946875274181365966796875" lon="-3.54551729746162891387939453125">
        <ele>1476.800048828125</ele>
        <time>2022-11-13T16:04:22.000Z</time>
      </trkpt>
      <trkpt lat="37.28851891122758388519287109375" lon="-3.5455123521387577056884765625">
        <ele>1476</ele>
        <time>2022-11-13T16:04:25.000Z</time>
      </trkpt>
      <trkpt lat="37.28853751905262470245361328125" lon="-3.5455006174743175506591796875">
        <ele>1475</ele>
        <time>2022-11-13T16:04:29.000Z</time>
      </trkpt>
      <trkpt lat="37.28857875801622867584228515625" lon="-3.54547639377415180206298828125">
        <ele>1473.800048828125</ele>
        <time>2022-11-13T16:04:34.000Z</time>
      </trkpt>
      <trkpt lat="37.2886163927614688873291015625" lon="-3.5454630665481090545654296875">
        <ele>1472.5999755859375</ele>
        <time>2022-11-13T16:04:39.000Z</time>
      </trkpt>
      <trkpt lat="37.2886504232883453369140625" lon="-3.54545409791171550750732421875">
        <ele>1471.5999755859375</ele>
        <time>2022-11-13T16:04:43.000Z</time>
      </trkpt>
      <trkpt lat="37.28868571110069751739501953125" lon="-3.5454203188419342041015625">
        <ele>1471</ele>
        <time>2022-11-13T16:04:48.000Z</time>
      </trkpt>
      <trkpt lat="37.288699708878993988037109375" lon="-3.54543314315378665924072265625">
        <ele>1470.5999755859375</ele>
        <time>2022-11-13T16:04:50.000Z</time>
      </trkpt>
      <trkpt lat="37.2887166403234004974365234375" lon="-3.54544579982757568359375">
        <ele>1469.5999755859375</ele>
        <time>2022-11-13T16:04:53.000Z</time>
      </trkpt>
      <trkpt lat="37.288719154894351959228515625" lon="-3.54545208625495433807373046875">
        <ele>1469.4000244140625</ele>
        <time>2022-11-13T16:04:54.000Z</time>
      </trkpt>
      <trkpt lat="37.28871814906597137451171875" lon="-3.54545158334076404571533203125">
        <ele>1469.199951171875</ele>
        <time>2022-11-13T16:04:55.000Z</time>
      </trkpt>
      <trkpt lat="37.28871881961822509765625" lon="-3.54545996524393558502197265625">
        <ele>1468.800048828125</ele>
        <time>2022-11-13T16:05:00.000Z</time>
      </trkpt>
      <trkpt lat="37.2887290455400943756103515625" lon="-3.545460887253284454345703125">
        <ele>1468.4000244140625</ele>
        <time>2022-11-13T16:05:06.000Z</time>
      </trkpt>
      <trkpt lat="37.28873415850102901458740234375" lon="-3.54546792805194854736328125">
        <ele>1468.199951171875</ele>
        <time>2022-11-13T16:05:07.000Z</time>
      </trkpt>
      <trkpt lat="37.28873432613909244537353515625" lon="-3.54547270573675632476806640625">
        <ele>1467.800048828125</ele>
        <time>2022-11-13T16:05:12.000Z</time>
      </trkpt>
      <trkpt lat="37.28873432613909244537353515625" lon="-3.54547270573675632476806640625">
        <ele>1467.4000244140625</ele>
        <time>2022-11-13T16:05:14.000Z</time>
      </trkpt>
      <trkpt lat="37.28873432613909244537353515625" lon="-3.54547270573675632476806640625">
        <ele>1467.199951171875</ele>
        <time>2022-11-13T16:05:15.000Z</time>
      </trkpt>
      <trkpt lat="37.2887692786753177642822265625" lon="-3.545477651059627532958984375">
        <ele>1466.4000244140625</ele>
        <time>2022-11-13T16:05:21.000Z</time>
      </trkpt>
      <trkpt lat="37.2887790016829967498779296875" lon="-3.54547421447932720184326171875">
        <ele>1466.199951171875</ele>
        <time>2022-11-13T16:05:23.000Z</time>
      </trkpt>
      <trkpt lat="37.2888178937137126922607421875" lon="-3.5454927384853363037109375">
        <ele>1466</ele>
        <time>2022-11-13T16:05:29.000Z</time>
      </trkpt>
      <trkpt lat="37.28882451541721820831298828125" lon="-3.545496426522731781005859375">
        <ele>1465</ele>
        <time>2022-11-13T16:05:34.000Z</time>
      </trkpt>
      <trkpt lat="37.28882451541721820831298828125" lon="-3.545496426522731781005859375">
        <ele>1464</ele>
        <time>2022-11-13T16:05:39.000Z</time>
      </trkpt>
      <trkpt lat="37.28882719762623310089111328125" lon="-3.5455046407878398895263671875">
        <ele>1463</ele>
        <time>2022-11-13T16:05:50.000Z</time>
      </trkpt>
      <trkpt lat="37.2888433746993541717529296875" lon="-3.5455059818923473358154296875">
        <ele>1462.800048828125</ele>
        <time>2022-11-13T16:05:54.000Z</time>
      </trkpt>
      <trkpt lat="37.28884748183190822601318359375" lon="-3.54550606571137905120849609375">
        <ele>1462.800048828125</ele>
        <time>2022-11-13T16:05:55.000Z</time>
      </trkpt>
      <trkpt lat="37.28886424563825130462646484375" lon="-3.54550807736814022064208984375">
        <ele>1462.800048828125</ele>
        <time>2022-11-13T16:06:01.000Z</time>
      </trkpt>
      <trkpt lat="37.28886458091437816619873046875" lon="-3.54551126249134540557861328125">
        <ele>1463</ele>
        <time>2022-11-13T16:06:12.000Z</time>
      </trkpt>
      <trkpt lat="37.28885653428733348846435546875" lon="-3.5455153696238994598388671875">
        <ele>1462</ele>
        <time>2022-11-13T16:06:17.000Z</time>
      </trkpt>
      <trkpt lat="37.28885360062122344970703125" lon="-3.54552148841321468353271484375">
        <ele>1460.800048828125</ele>
        <time>2022-11-13T16:06:23.000Z</time>
      </trkpt>
      <trkpt lat="37.28885217569768428802490234375" lon="-3.54554864577949047088623046875">
        <ele>1459.800048828125</ele>
        <time>2022-11-13T16:06:28.000Z</time>
      </trkpt>
      <trkpt lat="37.288849912583827972412109375" lon="-3.5456032119691371917724609375">
        <ele>1458.800048828125</ele>
        <time>2022-11-13T16:06:37.000Z</time>
      </trkpt>
      <trkpt lat="37.2888413630425930023193359375" lon="-3.54561771266162395477294921875">
        <ele>1458.800048828125</ele>
        <time>2022-11-13T16:06:38.000Z</time>
      </trkpt>
      <trkpt lat="37.2888354957103729248046875" lon="-3.54562819004058837890625">
        <ele>1458.5999755859375</ele>
        <time>2022-11-13T16:06:39.000Z</time>
      </trkpt>
      <trkpt lat="37.28883256204426288604736328125" lon="-3.5456402599811553955078125">
        <ele>1458.5999755859375</ele>
        <time>2022-11-13T16:06:40.000Z</time>
      </trkpt>
      <trkpt lat="37.28882610797882080078125" lon="-3.54566515423357486724853515625">
        <ele>1458.4000244140625</ele>
        <time>2022-11-13T16:06:42.000Z</time>
      </trkpt>
      <trkpt lat="37.28880942799150943756103515625" lon="-3.545745871961116790771484375">
        <ele>1457.800048828125</ele>
        <time>2022-11-13T16:06:47.000Z</time>
      </trkpt>
      <trkpt lat="37.28880959562957286834716796875" lon="-3.5457500629127025604248046875">
        <ele>1457.5999755859375</ele>
        <time>2022-11-13T16:06:49.000Z</time>
      </trkpt>
      <trkpt lat="37.2887897305190563201904296875" lon="-3.54575031436979770660400390625">
        <ele>1457</ele>
        <time>2022-11-13T16:06:56.000Z</time>
      </trkpt>
      <trkpt lat="37.2887897305190563201904296875" lon="-3.54575031436979770660400390625">
        <ele>1456.800048828125</ele>
        <time>2022-11-13T16:06:57.000Z</time>
      </trkpt>
      <trkpt lat="37.2887897305190563201904296875" lon="-3.54575031436979770660400390625">
        <ele>1457</ele>
        <time>2022-11-13T16:06:58.000Z</time>
      </trkpt>
      <trkpt lat="37.2887897305190563201904296875" lon="-3.54575031436979770660400390625">
        <ele>1456.800048828125</ele>
        <time>2022-11-13T16:07:01.000Z</time>
      </trkpt>
      <trkpt lat="37.28878654539585113525390625" lon="-3.54576204903423786163330078125">
        <ele>1455.5999755859375</ele>
        <time>2022-11-13T16:07:09.000Z</time>
      </trkpt>
      <trkpt lat="37.288756705820560455322265625" lon="-3.54582977481186389923095703125">
        <ele>1455.199951171875</ele>
        <time>2022-11-13T16:07:13.000Z</time>
      </trkpt>
      <trkpt lat="37.288742624223232269287109375" lon="-3.54586045257747173309326171875">
        <ele>1455</ele>
        <time>2022-11-13T16:07:15.000Z</time>
      </trkpt>
      <trkpt lat="37.2887367568910121917724609375" lon="-3.54587637819349765777587890625">
        <ele>1454.800048828125</ele>
        <time>2022-11-13T16:07:16.000Z</time>
      </trkpt>
      <trkpt lat="37.28873181156814098358154296875" lon="-3.5458858497440814971923828125">
        <ele>1454.800048828125</ele>
        <time>2022-11-13T16:07:17.000Z</time>
      </trkpt>
      <trkpt lat="37.28872376494109630584716796875" lon="-3.54589615948498249053955078125">
        <ele>1454.5999755859375</ele>
        <time>2022-11-13T16:07:20.000Z</time>
      </trkpt>
      <trkpt lat="37.288726530969142913818359375" lon="-3.54590915143489837646484375">
        <ele>1454.4000244140625</ele>
        <time>2022-11-13T16:07:21.000Z</time>
      </trkpt>
      <trkpt lat="37.2887266986072063446044921875" lon="-3.54594536125659942626953125">
        <ele>1453.4000244140625</ele>
        <time>2022-11-13T16:07:27.000Z</time>
      </trkpt>
      <trkpt lat="37.288723178207874298095703125" lon="-3.54595064185559749603271484375">
        <ele>1453.199951171875</ele>
        <time>2022-11-13T16:07:28.000Z</time>
      </trkpt>
      <trkpt lat="37.288716137409210205078125" lon="-3.5459575988352298736572265625">
        <ele>1453</ele>
        <time>2022-11-13T16:07:29.000Z</time>
      </trkpt>
      <trkpt lat="37.288705743849277496337890625" lon="-3.5459656454622745513916015625">
        <ele>1452.5999755859375</ele>
        <time>2022-11-13T16:07:31.000Z</time>
      </trkpt>
      <trkpt lat="37.2887062467634677886962890625" lon="-3.5459728538990020751953125">
        <ele>1452.4000244140625</ele>
        <time>2022-11-13T16:07:33.000Z</time>
      </trkpt>
      <trkpt lat="37.28870532475411891937255859375" lon="-3.54596816003322601318359375">
        <ele>1452</ele>
        <time>2022-11-13T16:07:37.000Z</time>
      </trkpt>
      <trkpt lat="37.28868654929101467132568359375" lon="-3.545980565249919891357421875">
        <ele>1451.800048828125</ele>
        <time>2022-11-13T16:07:42.000Z</time>
      </trkpt>
      <trkpt lat="37.288684956729412078857421875" lon="-3.5459810681641101837158203125">
        <ele>1452</ele>
        <time>2022-11-13T16:07:46.000Z</time>
      </trkpt>
      <trkpt lat="37.28865101002156734466552734375" lon="-3.54602540843188762664794921875">
        <ele>1451.5999755859375</ele>
        <time>2022-11-13T16:07:55.000Z</time>
      </trkpt>
      <trkpt lat="37.2886452265083789825439453125" lon="-3.54605742730200290679931640625">
        <ele>1451.4000244140625</ele>
        <time>2022-11-13T16:08:00.000Z</time>
      </trkpt>
      <trkpt lat="37.28864480741322040557861328125" lon="-3.54610897600650787353515625">
        <ele>1450.5999755859375</ele>
        <time>2022-11-13T16:08:07.000Z</time>
      </trkpt>
      <trkpt lat="37.28864598087966442108154296875" lon="-3.5461342893540859222412109375">
        <ele>1450.199951171875</ele>
        <time>2022-11-13T16:08:10.000Z</time>
      </trkpt>
      <trkpt lat="37.28865536861121654510498046875" lon="-3.5461579263210296630859375">
        <ele>1449.199951171875</ele>
        <time>2022-11-13T16:08:14.000Z</time>
      </trkpt>
      <trkpt lat="37.2886536084115505218505859375" lon="-3.54618231765925884246826171875">
        <ele>1448.800048828125</ele>
        <time>2022-11-13T16:08:16.000Z</time>
      </trkpt>
      <trkpt lat="37.28865109384059906005859375" lon="-3.54620712809264659881591796875">
        <ele>1448.199951171875</ele>
        <time>2022-11-13T16:08:19.000Z</time>
      </trkpt>
      <trkpt lat="37.28866609744727611541748046875" lon="-3.546259514987468719482421875">
        <ele>1447.4000244140625</ele>
        <time>2022-11-13T16:08:24.000Z</time>
      </trkpt>
      <trkpt lat="37.28866576217114925384521484375" lon="-3.54627435095608234405517578125">
        <ele>1447</ele>
        <time>2022-11-13T16:08:25.000Z</time>
      </trkpt>
      <trkpt lat="37.288660146296024322509765625" lon="-3.5463321022689342498779296875">
        <ele>1446.800048828125</ele>
        <time>2022-11-13T16:08:30.000Z</time>
      </trkpt>
      <trkpt lat="37.2886586375534534454345703125" lon="-3.5463421605527400970458984375">
        <ele>1446.800048828125</ele>
        <time>2022-11-13T16:08:31.000Z</time>
      </trkpt>
      <trkpt lat="37.288651764392852783203125" lon="-3.5463797114789485931396484375">
        <ele>1446.800048828125</ele>
        <time>2022-11-13T16:08:36.000Z</time>
      </trkpt>
      <trkpt lat="37.28865168057382106781005859375" lon="-3.54638432152569293975830078125">
        <ele>1447</ele>
        <time>2022-11-13T16:08:37.000Z</time>
      </trkpt>
      <trkpt lat="37.28865670971572399139404296875" lon="-3.5463753528892993927001953125">
        <ele>1447.199951171875</ele>
        <time>2022-11-13T16:08:41.000Z</time>
      </trkpt>
      <trkpt lat="37.28865771554410457611083984375" lon="-3.546373508870601654052734375">
        <ele>1447.199951171875</ele>
        <time>2022-11-13T16:08:42.000Z</time>
      </trkpt>
      <trkpt lat="37.2886566258966922760009765625" lon="-3.5463778674602508544921875">
        <ele>1446</ele>
        <time>2022-11-13T16:08:58.000Z</time>
      </trkpt>
      <trkpt lat="37.28865872137248516082763671875" lon="-3.54638264514505863189697265625">
        <ele>1445.199951171875</ele>
        <time>2022-11-13T16:09:02.000Z</time>
      </trkpt>
      <trkpt lat="37.28865955956280231475830078125" lon="-3.54638415388762950897216796875">
        <ele>1444.800048828125</ele>
        <time>2022-11-13T16:09:04.000Z</time>
      </trkpt>
      <trkpt lat="37.28869610466063022613525390625" lon="-3.54640946723520755767822265625">
        <ele>1443.800048828125</ele>
        <time>2022-11-13T16:09:11.000Z</time>
      </trkpt>
      <trkpt lat="37.288725189864635467529296875" lon="-3.54644081555306911468505859375">
        <ele>1443</ele>
        <time>2022-11-13T16:09:22.000Z</time>
      </trkpt>
      <trkpt lat="37.28872678242623805999755859375" lon="-3.5464685596525669097900390625">
        <ele>1442.800048828125</ele>
        <time>2022-11-13T16:09:28.000Z</time>
      </trkpt>
      <trkpt lat="37.28873818181455135345458984375" lon="-3.54650326073169708251953125">
        <ele>1441.5999755859375</ele>
        <time>2022-11-13T16:09:35.000Z</time>
      </trkpt>
      <trkpt lat="37.2887494973838329315185546875" lon="-3.54653201065957546234130859375">
        <ele>1441.4000244140625</ele>
        <time>2022-11-13T16:09:37.000Z</time>
      </trkpt>
      <trkpt lat="37.28876684792339801788330078125" lon="-3.54660007171332836151123046875">
        <ele>1440.5999755859375</ele>
        <time>2022-11-13T16:09:40.000Z</time>
      </trkpt>
      <trkpt lat="37.28877908550202846527099609375" lon="-3.546667881309986114501953125">
        <ele>1439.800048828125</ele>
        <time>2022-11-13T16:09:44.000Z</time>
      </trkpt>
      <trkpt lat="37.28878193534910678863525390625" lon="-3.54666410945355892181396484375">
        <ele>1439.800048828125</ele>
        <time>2022-11-13T16:09:46.000Z</time>
      </trkpt>
      <trkpt lat="37.288786210119724273681640625" lon="-3.54666427709162235260009765625">
        <ele>1439.5999755859375</ele>
        <time>2022-11-13T16:09:51.000Z</time>
      </trkpt>
      <trkpt lat="37.28880758397281169891357421875" lon="-3.54665120132267475128173828125">
        <ele>1439.4000244140625</ele>
        <time>2022-11-13T16:09:54.000Z</time>
      </trkpt>
      <trkpt lat="37.28882133029401302337646484375" lon="-3.5466429032385349273681640625">
        <ele>1439</ele>
        <time>2022-11-13T16:09:56.000Z</time>
      </trkpt>
      <trkpt lat="37.28882954455912113189697265625" lon="-3.54663628153502941131591796875">
        <ele>1438.800048828125</ele>
        <time>2022-11-13T16:09:57.000Z</time>
      </trkpt>
      <trkpt lat="37.288834489881992340087890625" lon="-3.546633012592792510986328125">
        <ele>1438.5999755859375</ele>
        <time>2022-11-13T16:09:58.000Z</time>
      </trkpt>
      <trkpt lat="37.28883759118616580963134765625" lon="-3.54659638367593288421630859375">
        <ele>1438.4000244140625</ele>
        <time>2022-11-13T16:10:02.000Z</time>
      </trkpt>
      <trkpt lat="37.28884957730770111083984375" lon="-3.54658238589763641357421875">
        <ele>1438.199951171875</ele>
        <time>2022-11-13T16:10:04.000Z</time>
      </trkpt>
      <trkpt lat="37.28889442048966884613037109375" lon="-3.5465268976986408233642578125">
        <ele>1437.4000244140625</ele>
        <time>2022-11-13T16:10:12.000Z</time>
      </trkpt>
      <trkpt lat="37.2889047302305698394775390625" lon="-3.5465066134929656982421875">
        <ele>1437.4000244140625</ele>
        <time>2022-11-13T16:10:17.000Z</time>
      </trkpt>
      <trkpt lat="37.28890129365026950836181640625" lon="-3.54648892767727375030517578125">
        <ele>1437.199951171875</ele>
        <time>2022-11-13T16:10:23.000Z</time>
      </trkpt>
      <trkpt lat="37.28891395032405853271484375" lon="-3.54648272506892681121826171875">
        <ele>1437.199951171875</ele>
        <time>2022-11-13T16:10:28.000Z</time>
      </trkpt>
      <trkpt lat="37.288912944495677947998046875" lon="-3.54648272506892681121826171875">
        <ele>1436.4000244140625</ele>
        <time>2022-11-13T16:10:37.000Z</time>
      </trkpt>
      <trkpt lat="37.288912944495677947998046875" lon="-3.54648104868829250335693359375">
        <ele>1435.199951171875</ele>
        <time>2022-11-13T16:10:45.000Z</time>
      </trkpt>
      <trkpt lat="37.288961224257946014404296875" lon="-3.5463656298816204071044921875">
        <ele>1434.4000244140625</ele>
        <time>2022-11-13T16:11:03.000Z</time>
      </trkpt>
      <trkpt lat="37.28898125700652599334716796875" lon="-3.546321205794811248779296875">
        <ele>1434.4000244140625</ele>
        <time>2022-11-13T16:11:09.000Z</time>
      </trkpt>
      <trkpt lat="37.2889821790158748626708984375" lon="-3.54630880057811737060546875">
        <ele>1434.4000244140625</ele>
        <time>2022-11-13T16:11:17.000Z</time>
      </trkpt>
      <trkpt lat="37.2889821790158748626708984375" lon="-3.54630880057811737060546875">
        <ele>1434.199951171875</ele>
        <time>2022-11-13T16:11:18.000Z</time>
      </trkpt>
      <trkpt lat="37.2889821790158748626708984375" lon="-3.54630880057811737060546875">
        <ele>1433</ele>
        <time>2022-11-13T16:11:24.000Z</time>
      </trkpt>
      <trkpt lat="37.288983352482318878173828125" lon="-3.54630880057811737060546875">
        <ele>1432</ele>
        <time>2022-11-13T16:11:29.000Z</time>
      </trkpt>
      <trkpt lat="37.28903330862522125244140625" lon="-3.54630519635975360870361328125">
        <ele>1431</ele>
        <time>2022-11-13T16:11:41.000Z</time>
      </trkpt>
      <trkpt lat="37.28903540410101413726806640625" lon="-3.54630519635975360870361328125">
        <ele>1430.800048828125</ele>
        <time>2022-11-13T16:11:42.000Z</time>
      </trkpt>
      <trkpt lat="37.28904043324291706085205078125" lon="-3.54630519635975360870361328125">
        <ele>1430.4000244140625</ele>
        <time>2022-11-13T16:11:46.000Z</time>
      </trkpt>
      <trkpt lat="37.28904546238481998443603515625" lon="-3.54631659574806690216064453125">
        <ele>1429.800048828125</ele>
        <time>2022-11-13T16:11:52.000Z</time>
      </trkpt>
      <trkpt lat="37.289064824581146240234375" lon="-3.546305783092975616455078125">
        <ele>1428.5999755859375</ele>
        <time>2022-11-13T16:12:09.000Z</time>
      </trkpt>
      <trkpt lat="37.28909675963222980499267578125" lon="-3.54630209505558013916015625">
        <ele>1427.5999755859375</ele>
        <time>2022-11-13T16:12:15.000Z</time>
      </trkpt>
      <trkpt lat="37.2891290299594402313232421875" lon="-3.54630209505558013916015625">
        <ele>1426.4000244140625</ele>
        <time>2022-11-13T16:12:20.000Z</time>
      </trkpt>
      <trkpt lat="37.28914990089833736419677734375" lon="-3.546338975429534912109375">
        <ele>1425.4000244140625</ele>
        <time>2022-11-13T16:12:26.000Z</time>
      </trkpt>
      <trkpt lat="37.28917680680751800537109375" lon="-3.54636001400649547576904296875">
        <ele>1425.199951171875</ele>
        <time>2022-11-13T16:12:28.000Z</time>
      </trkpt>
      <trkpt lat="37.28921913541853427886962890625" lon="-3.54638926684856414794921875">
        <ele>1424.4000244140625</ele>
        <time>2022-11-13T16:12:31.000Z</time>
      </trkpt>
      <trkpt lat="37.28925593197345733642578125" lon="-3.54642237536609172821044921875">
        <ele>1423.4000244140625</ele>
        <time>2022-11-13T16:12:35.000Z</time>
      </trkpt>
      <trkpt lat="37.28926875628530979156494140625" lon="-3.54643285274505615234375">
        <ele>1423</ele>
        <time>2022-11-13T16:12:37.000Z</time>
      </trkpt>
      <trkpt lat="37.2892753779888153076171875" lon="-3.546435534954071044921875">
        <ele>1422.800048828125</ele>
        <time>2022-11-13T16:12:38.000Z</time>
      </trkpt>
      <trkpt lat="37.289282418787479400634765625" lon="-3.54643695987761020660400390625">
        <ele>1422.4000244140625</ele>
        <time>2022-11-13T16:12:39.000Z</time>
      </trkpt>
      <trkpt lat="37.28932441212236881256103515625" lon="-3.54644182138144969940185546875">
        <ele>1421.5999755859375</ele>
        <time>2022-11-13T16:12:45.000Z</time>
      </trkpt>
      <trkpt lat="37.2893317043781280517578125" lon="-3.54644467122852802276611328125">
        <ele>1421.199951171875</ele>
        <time>2022-11-13T16:12:48.000Z</time>
      </trkpt>
      <trkpt lat="37.2893312014639377593994140625" lon="-3.5464460961520671844482421875">
        <ele>1421</ele>
        <time>2022-11-13T16:12:49.000Z</time>
      </trkpt>
      <trkpt lat="37.2893338836729526519775390625" lon="-3.54644651524722576141357421875">
        <ele>1421</ele>
        <time>2022-11-13T16:12:50.000Z</time>
      </trkpt>
      <trkpt lat="37.28933614678680896759033203125" lon="-3.54644961655139923095703125">
        <ele>1420.800048828125</ele>
        <time>2022-11-13T16:12:51.000Z</time>
      </trkpt>
      <trkpt lat="37.289337404072284698486328125" lon="-3.54645632207393646240234375">
        <ele>1420.800048828125</ele>
        <time>2022-11-13T16:12:52.000Z</time>
      </trkpt>
      <trkpt lat="37.289340756833553314208984375" lon="-3.546478115022182464599609375">
        <ele>1420.800048828125</ele>
        <time>2022-11-13T16:12:54.000Z</time>
      </trkpt>
      <trkpt lat="37.28933849371969699859619140625" lon="-3.54653083719313144683837890625">
        <ele>1420</ele>
        <time>2022-11-13T16:12:59.000Z</time>
      </trkpt>
      <trkpt lat="37.2893402539193630218505859375" lon="-3.54654575698077678680419921875">
        <ele>1419</ele>
        <time>2022-11-13T16:13:03.000Z</time>
      </trkpt>
      <trkpt lat="37.28934570215642452239990234375" lon="-3.54654106311500072479248046875">
        <ele>1419</ele>
        <time>2022-11-13T16:13:05.000Z</time>
      </trkpt>
      <trkpt lat="37.28934721089899539947509765625" lon="-3.54654014110565185546875">
        <ele>1419.199951171875</ele>
        <time>2022-11-13T16:13:06.000Z</time>
      </trkpt>
      <trkpt lat="37.2893335483968257904052734375" lon="-3.546594120562076568603515625">
        <ele>1418.800048828125</ele>
        <time>2022-11-13T16:13:11.000Z</time>
      </trkpt>
      <trkpt lat="37.289331369102001190185546875" lon="-3.5466026701033115386962890625">
        <ele>1418.5999755859375</ele>
        <time>2022-11-13T16:13:12.000Z</time>
      </trkpt>
      <trkpt lat="37.28932457976043224334716796875" lon="-3.54660627432167530059814453125">
        <ele>1418.4000244140625</ele>
        <time>2022-11-13T16:13:13.000Z</time>
      </trkpt>
      <trkpt lat="37.2893315367400646209716796875" lon="-3.546583391726016998291015625">
        <ele>1418.199951171875</ele>
        <time>2022-11-13T16:13:20.000Z</time>
      </trkpt>
      <trkpt lat="37.2893506474792957305908203125" lon="-3.54653812944889068603515625">
        <ele>1418.800048828125</ele>
        <time>2022-11-13T16:13:27.000Z</time>
      </trkpt>
      <trkpt lat="37.2894170321524143218994140625" lon="-3.5464849881827831268310546875">
        <ele>1418.800048828125</ele>
        <time>2022-11-13T16:13:35.000Z</time>
      </trkpt>
      <trkpt lat="37.28946623392403125762939453125" lon="-3.5464662127196788787841796875">
        <ele>1417.5999755859375</ele>
        <time>2022-11-13T16:13:43.000Z</time>
      </trkpt>
      <trkpt lat="37.2894872725009918212890625" lon="-3.54647166095674037933349609375">
        <ele>1416.4000244140625</ele>
        <time>2022-11-13T16:13:46.000Z</time>
      </trkpt>
      <trkpt lat="37.289504706859588623046875" lon="-3.54650166817009449005126953125">
        <ele>1415.4000244140625</ele>
        <time>2022-11-13T16:13:51.000Z</time>
      </trkpt>
      <trkpt lat="37.28950680233538150787353515625" lon="-3.54650326073169708251953125">
        <ele>1415.199951171875</ele>
        <time>2022-11-13T16:13:52.000Z</time>
      </trkpt>
      <trkpt lat="37.289522476494312286376953125" lon="-3.54650518856942653656005859375">
        <ele>1414.5999755859375</ele>
        <time>2022-11-13T16:13:56.000Z</time>
      </trkpt>
      <trkpt lat="37.2895350493490695953369140625" lon="-3.5465141572058200836181640625">
        <ele>1414.4000244140625</ele>
        <time>2022-11-13T16:13:58.000Z</time>
      </trkpt>
      <trkpt lat="37.28955659084022045135498046875" lon="-3.5464937053620815277099609375">
        <ele>1414.199951171875</ele>
        <time>2022-11-13T16:14:01.000Z</time>
      </trkpt>
      <trkpt lat="37.28956866078078746795654296875" lon="-3.54648993350565433502197265625">
        <ele>1414</ele>
        <time>2022-11-13T16:14:02.000Z</time>
      </trkpt>
      <trkpt lat="37.2895793057978153228759765625" lon="-3.54649596847593784332275390625">
        <ele>1413.4000244140625</ele>
        <time>2022-11-13T16:14:04.000Z</time>
      </trkpt>
      <trkpt lat="37.28960269130766391754150390625" lon="-3.546511642634868621826171875">
        <ele>1412.5999755859375</ele>
        <time>2022-11-13T16:14:07.000Z</time>
      </trkpt>
      <trkpt lat="37.28964409790933132171630859375" lon="-3.54654885828495025634765625">
        <ele>1411.4000244140625</ele>
        <time>2022-11-13T16:14:12.000Z</time>
      </trkpt>
      <trkpt lat="37.2896535694599151611328125" lon="-3.54655179195106029510498046875">
        <ele>1411</ele>
        <time>2022-11-13T16:14:13.000Z</time>
      </trkpt>
      <trkpt lat="37.28968449868261814117431640625" lon="-3.54657299816608428955078125">
        <ele>1410</ele>
        <time>2022-11-13T16:14:17.000Z</time>
      </trkpt>
      <trkpt lat="37.28969992138445377349853515625" lon="-3.5465838946402072906494140625">
        <ele>1409.5999755859375</ele>
        <time>2022-11-13T16:14:19.000Z</time>
      </trkpt>
      <trkpt lat="37.28971953503787517547607421875" lon="-3.546588085591793060302734375">
        <ele>1409.199951171875</ele>
        <time>2022-11-13T16:14:22.000Z</time>
      </trkpt>
      <trkpt lat="37.28972624056041240692138671875" lon="-3.5465895943343639373779296875">
        <ele>1409.4000244140625</ele>
        <time>2022-11-13T16:14:23.000Z</time>
      </trkpt>
      <trkpt lat="37.28973311372101306915283203125" lon="-3.5465781949460506439208984375">
        <ele>1409.4000244140625</ele>
        <time>2022-11-13T16:14:27.000Z</time>
      </trkpt>
      <trkpt lat="37.2897516377270221710205078125" lon="-3.54655397124588489532470703125">
        <ele>1409.4000244140625</ele>
        <time>2022-11-13T16:14:29.000Z</time>
      </trkpt>
      <trkpt lat="37.28977854363620281219482421875" lon="-3.546521365642547607421875">
        <ele>1409</ele>
        <time>2022-11-13T16:14:32.000Z</time>
      </trkpt>
      <trkpt lat="37.2898015938699245452880859375" lon="-3.5464886762201786041259765625">
        <ele>1408.800048828125</ele>
        <time>2022-11-13T16:14:36.000Z</time>
      </trkpt>
      <trkpt lat="37.28985431604087352752685546875" lon="-3.5464583337306976318359375">
        <ele>1408.199951171875</ele>
        <time>2022-11-13T16:14:41.000Z</time>
      </trkpt>
      <trkpt lat="37.28986957110464572906494140625" lon="-3.54643930681049823760986328125">
        <ele>1408</ele>
        <time>2022-11-13T16:14:43.000Z</time>
      </trkpt>
      <trkpt lat="37.28987510316073894500732421875" lon="-3.5464333556592464447021484375">
        <ele>1408</ele>
        <time>2022-11-13T16:14:44.000Z</time>
      </trkpt>
      <trkpt lat="37.28993629105389118194580078125" lon="-3.5463844053447246551513671875">
        <ele>1407.199951171875</ele>
        <time>2022-11-13T16:14:51.000Z</time>
      </trkpt>
      <trkpt lat="37.289967052638530731201171875" lon="-3.54637962765991687774658203125">
        <ele>1406.800048828125</ele>
        <time>2022-11-13T16:14:54.000Z</time>
      </trkpt>
      <trkpt lat="37.29000887833535671234130859375" lon="-3.54636537842452526092529296875">
        <ele>1406.199951171875</ele>
        <time>2022-11-13T16:14:58.000Z</time>
      </trkpt>
      <trkpt lat="37.290034107863903045654296875" lon="-3.54636370204389095306396484375">
        <ele>1405.5999755859375</ele>
        <time>2022-11-13T16:15:00.000Z</time>
      </trkpt>
      <trkpt lat="37.29005766101181507110595703125" lon="-3.5463616065680980682373046875">
        <ele>1404.800048828125</ele>
        <time>2022-11-13T16:15:04.000Z</time>
      </trkpt>
      <trkpt lat="37.290063612163066864013671875" lon="-3.546358086168766021728515625">
        <ele>1404.5999755859375</ele>
        <time>2022-11-13T16:15:07.000Z</time>
      </trkpt>
      <trkpt lat="37.2900667972862720489501953125" lon="-3.5463559068739414215087890625">
        <ele>1404.4000244140625</ele>
        <time>2022-11-13T16:15:08.000Z</time>
      </trkpt>
      <trkpt lat="37.29012169875204563140869140625" lon="-3.54635012336075305938720703125">
        <ele>1403.800048828125</ele>
        <time>2022-11-13T16:15:13.000Z</time>
      </trkpt>
      <trkpt lat="37.2901375405490398406982421875" lon="-3.5463508777320384979248046875">
        <ele>1403.5999755859375</ele>
        <time>2022-11-13T16:15:14.000Z</time>
      </trkpt>
      <trkpt lat="37.29017064906656742095947265625" lon="-3.54635213501751422882080078125">
        <ele>1402.199951171875</ele>
        <time>2022-11-13T16:15:17.000Z</time>
      </trkpt>
      <trkpt lat="37.29017584584653377532958984375" lon="-3.54635330848395824432373046875">
        <ele>1402</ele>
        <time>2022-11-13T16:15:18.000Z</time>
      </trkpt>
      <trkpt lat="37.2901861555874347686767578125" lon="-3.5463652946054935455322265625">
        <ele>1401.199951171875</ele>
        <time>2022-11-13T16:15:20.000Z</time>
      </trkpt>
      <trkpt lat="37.29019445367157459259033203125" lon="-3.5463713295757770538330078125">
        <ele>1400.800048828125</ele>
        <time>2022-11-13T16:15:21.000Z</time>
      </trkpt>
      <trkpt lat="37.29020417667925357818603515625" lon="-3.54638499207794666290283203125">
        <ele>1400.199951171875</ele>
        <time>2022-11-13T16:15:23.000Z</time>
      </trkpt>
      <trkpt lat="37.2902109660208225250244140625" lon="-3.546398989856243133544921875">
        <ele>1399.5999755859375</ele>
        <time>2022-11-13T16:15:25.000Z</time>
      </trkpt>
      <trkpt lat="37.29021842591464519500732421875" lon="-3.54640804231166839599609375">
        <ele>1399.199951171875</ele>
        <time>2022-11-13T16:15:27.000Z</time>
      </trkpt>
      <trkpt lat="37.29023032821714878082275390625" lon="-3.5464115627110004425048828125">
        <ele>1398.5999755859375</ele>
        <time>2022-11-13T16:15:29.000Z</time>
      </trkpt>
      <trkpt lat="37.2902465052902698516845703125" lon="-3.5464226268231868743896484375">
        <ele>1397.800048828125</ele>
        <time>2022-11-13T16:15:31.000Z</time>
      </trkpt>
      <trkpt lat="37.2902517020702362060546875" lon="-3.546435870230197906494140625">
        <ele>1397.199951171875</ele>
        <time>2022-11-13T16:15:33.000Z</time>
      </trkpt>
      <trkpt lat="37.29026285000145435333251953125" lon="-3.54643913917243480682373046875">
        <ele>1396.5999755859375</ele>
        <time>2022-11-13T16:15:35.000Z</time>
      </trkpt>
      <trkpt lat="37.29028933681547641754150390625" lon="-3.5464487783610820770263671875">
        <ele>1395.5999755859375</ele>
        <time>2022-11-13T16:15:40.000Z</time>
      </trkpt>
      <trkpt lat="37.2902900911867618560791015625" lon="-3.54644902981817722320556640625">
        <ele>1395.5999755859375</ele>
        <time>2022-11-13T16:15:41.000Z</time>
      </trkpt>
      <trkpt lat="37.29028782807290554046630859375" lon="-3.54644919745624065399169921875">
        <ele>1395.4000244140625</ele>
        <time>2022-11-13T16:15:42.000Z</time>
      </trkpt>
      <trkpt lat="37.29028430767357349395751953125" lon="-3.54645456187427043914794921875">
        <ele>1395.4000244140625</ele>
        <time>2022-11-13T16:15:44.000Z</time>
      </trkpt>
      <trkpt lat="37.2902857325971126556396484375" lon="-3.54645959101617336273193359375">
        <ele>1395.4000244140625</ele>
        <time>2022-11-13T16:15:45.000Z</time>
      </trkpt>
      <trkpt lat="37.2902917675673961639404296875" lon="-3.54647803120315074920654296875">
        <ele>1395.199951171875</ele>
        <time>2022-11-13T16:15:48.000Z</time>
      </trkpt>
      <trkpt lat="37.290299646556377410888671875" lon="-3.5464809648692607879638671875">
        <ele>1395</ele>
        <time>2022-11-13T16:15:49.000Z</time>
      </trkpt>
      <trkpt lat="37.2903041727840900421142578125" lon="-3.546487502753734588623046875">
        <ele>1395</ele>
        <time>2022-11-13T16:15:50.000Z</time>
      </trkpt>
      <trkpt lat="37.29030107147991657257080078125" lon="-3.54649982415139675140380859375">
        <ele>1394.4000244140625</ele>
        <time>2022-11-13T16:15:53.000Z</time>
      </trkpt>
      <trkpt lat="37.29030123911798000335693359375" lon="-3.54650502093136310577392578125">
        <ele>1394.4000244140625</ele>
        <time>2022-11-13T16:15:54.000Z</time>
      </trkpt>
      <trkpt lat="37.29030735790729522705078125" lon="-3.5465200245380401611328125">
        <ele>1393.5999755859375</ele>
        <time>2022-11-13T16:15:57.000Z</time>
      </trkpt>
      <trkpt lat="37.2903105430305004119873046875" lon="-3.546527735888957977294921875">
        <ele>1393.199951171875</ele>
        <time>2022-11-13T16:15:58.000Z</time>
      </trkpt>
      <trkpt lat="37.29033795185387134552001953125" lon="-3.5465902648866176605224609375">
        <ele>1391.800048828125</ele>
        <time>2022-11-13T16:16:04.000Z</time>
      </trkpt>
      <trkpt lat="37.2903521172702312469482421875" lon="-3.5465989820659160614013671875">
        <ele>1390.5999755859375</ele>
        <time>2022-11-13T16:16:09.000Z</time>
      </trkpt>
      <trkpt lat="37.290345244109630584716796875" lon="-3.5466050170361995697021484375">
        <ele>1390</ele>
        <time>2022-11-13T16:16:11.000Z</time>
      </trkpt>
      <trkpt lat="37.29034398682415485382080078125" lon="-3.5466031730175018310546875">
        <ele>1389.4000244140625</ele>
        <time>2022-11-13T16:16:13.000Z</time>
      </trkpt>
      <trkpt lat="37.29034013114869594573974609375" lon="-3.5466076992452144622802734375">
        <ele>1389</ele>
        <time>2022-11-13T16:16:16.000Z</time>
      </trkpt>
      <trkpt lat="37.2903494350612163543701171875" lon="-3.54665237478911876678466796875">
        <ele>1388.199951171875</ele>
        <time>2022-11-13T16:16:22.000Z</time>
      </trkpt>
      <trkpt lat="37.290350608527660369873046875" lon="-3.54668422602117061614990234375">
        <ele>1387.199951171875</ele>
        <time>2022-11-13T16:16:27.000Z</time>
      </trkpt>
      <trkpt lat="37.2903739102184772491455078125" lon="-3.54671071283519268035888671875">
        <ele>1386</ele>
        <time>2022-11-13T16:16:32.000Z</time>
      </trkpt>
      <trkpt lat="37.29038740508258342742919921875" lon="-3.54671758599579334259033203125">
        <ele>1385.4000244140625</ele>
        <time>2022-11-13T16:16:34.000Z</time>
      </trkpt>
      <trkpt lat="37.29039092548191547393798828125" lon="-3.5467213578522205352783203125">
        <ele>1385</ele>
        <time>2022-11-13T16:16:35.000Z</time>
      </trkpt>
      <trkpt lat="37.29039662517607212066650390625" lon="-3.54674424044787883758544921875">
        <ele>1384</ele>
        <time>2022-11-13T16:16:40.000Z</time>
      </trkpt>
      <trkpt lat="37.29039478115737438201904296875" lon="-3.546750359237194061279296875">
        <ele>1383.800048828125</ele>
        <time>2022-11-13T16:16:42.000Z</time>
      </trkpt>
      <trkpt lat="37.29039662517607212066650390625" lon="-3.5467505268752574920654296875">
        <ele>1383.800048828125</ele>
        <time>2022-11-13T16:16:43.000Z</time>
      </trkpt>
      <trkpt lat="37.290411293506622314453125" lon="-3.54675597511231899261474609375">
        <ele>1383.5999755859375</ele>
        <time>2022-11-13T16:16:52.000Z</time>
      </trkpt>
      <trkpt lat="37.290411293506622314453125" lon="-3.54675597511231899261474609375">
        <ele>1383.5999755859375</ele>
        <time>2022-11-13T16:16:54.000Z</time>
      </trkpt>
      <trkpt lat="37.290411293506622314453125" lon="-3.54675597511231899261474609375">
        <ele>1383.199951171875</ele>
        <time>2022-11-13T16:17:01.000Z</time>
      </trkpt>
      <trkpt lat="37.29041288606822490692138671875" lon="-3.54675597511231899261474609375">
        <ele>1383</ele>
        <time>2022-11-13T16:17:04.000Z</time>
      </trkpt>
      <trkpt lat="37.2904208488762378692626953125" lon="-3.54675798676908016204833984375">
        <ele>1381.800048828125</ele>
        <time>2022-11-13T16:17:11.000Z</time>
      </trkpt>
      <trkpt lat="37.29042537510395050048828125" lon="-3.5467721521854400634765625">
        <ele>1380.800048828125</ele>
        <time>2022-11-13T16:17:17.000Z</time>
      </trkpt>
      <trkpt lat="37.2904516942799091339111328125" lon="-3.54679562151432037353515625">
        <ele>1379.5999755859375</ele>
        <time>2022-11-13T16:17:23.000Z</time>
      </trkpt>
      <trkpt lat="37.29047239758074283599853515625" lon="-3.54681800119578838348388671875">
        <ele>1378.5999755859375</ele>
        <time>2022-11-13T16:17:30.000Z</time>
      </trkpt>
      <trkpt lat="37.29048832319676876068115234375" lon="-3.54686778970062732696533203125">
        <ele>1377.5999755859375</ele>
        <time>2022-11-13T16:17:36.000Z</time>
      </trkpt>
      <trkpt lat="37.29049452580511569976806640625" lon="-3.546880781650543212890625">
        <ele>1377.4000244140625</ele>
        <time>2022-11-13T16:17:37.000Z</time>
      </trkpt>
      <trkpt lat="37.290498130023479461669921875" lon="-3.5469114594161510467529296875">
        <ele>1377</ele>
        <time>2022-11-13T16:17:39.000Z</time>
      </trkpt>
      <trkpt lat="37.29050123132765293121337890625" lon="-3.54694792069494724273681640625">
        <ele>1376.4000244140625</ele>
        <time>2022-11-13T16:17:41.000Z</time>
      </trkpt>
      <trkpt lat="37.2905050031840801239013671875" lon="-3.5469832085072994232177734375">
        <ele>1375.800048828125</ele>
        <time>2022-11-13T16:17:43.000Z</time>
      </trkpt>
      <trkpt lat="37.29050341062247753143310546875" lon="-3.5470050014555454254150390625">
        <ele>1375.4000244140625</ele>
        <time>2022-11-13T16:17:45.000Z</time>
      </trkpt>
      <trkpt lat="37.29050424881279468536376953125" lon="-3.54701547883450984954833984375">
        <ele>1375.199951171875</ele>
        <time>2022-11-13T16:17:46.000Z</time>
      </trkpt>
      <trkpt lat="37.2905050031840801239013671875" lon="-3.5470418818295001983642578125">
        <ele>1374.4000244140625</ele>
        <time>2022-11-13T16:17:49.000Z</time>
      </trkpt>
      <trkpt lat="37.290501482784748077392578125" lon="-3.54706778191030025482177734375">
        <ele>1374</ele>
        <time>2022-11-13T16:17:51.000Z</time>
      </trkpt>
      <trkpt lat="37.29050642810761928558349609375" lon="-3.5471047461032867431640625">
        <ele>1373</ele>
        <time>2022-11-13T16:17:54.000Z</time>
      </trkpt>
      <trkpt lat="37.290518917143344879150390625" lon="-3.5471458174288272857666015625">
        <ele>1372</ele>
        <time>2022-11-13T16:17:58.000Z</time>
      </trkpt>
      <trkpt lat="37.29051715694367885589599609375" lon="-3.54715763591229915618896484375">
        <ele>1371.800048828125</ele>
        <time>2022-11-13T16:17:59.000Z</time>
      </trkpt>
      <trkpt lat="37.2905214317142963409423828125" lon="-3.547210358083248138427734375">
        <ele>1370.800048828125</ele>
        <time>2022-11-13T16:18:04.000Z</time>
      </trkpt>
      <trkpt lat="37.29053023271262645721435546875" lon="-3.5472259484231472015380859375">
        <ele>1370.199951171875</ele>
        <time>2022-11-13T16:18:06.000Z</time>
      </trkpt>
      <trkpt lat="37.29053107090294361114501953125" lon="-3.5472608171403408050537109375">
        <ele>1369.5999755859375</ele>
        <time>2022-11-13T16:18:09.000Z</time>
      </trkpt>
      <trkpt lat="37.290538363158702850341796875" lon="-3.54732460342347621917724609375">
        <ele>1368.4000244140625</ele>
        <time>2022-11-13T16:18:15.000Z</time>
      </trkpt>
      <trkpt lat="37.29054397903382778167724609375" lon="-3.54734874330461025238037109375">
        <ele>1368.199951171875</ele>
        <time>2022-11-13T16:18:17.000Z</time>
      </trkpt>
      <trkpt lat="37.2905723936855792999267578125" lon="-3.54741521179676055908203125">
        <ele>1367.199951171875</ele>
        <time>2022-11-13T16:18:22.000Z</time>
      </trkpt>
      <trkpt lat="37.29057515971362590789794921875" lon="-3.54742736555635929107666015625">
        <ele>1367.199951171875</ele>
        <time>2022-11-13T16:18:23.000Z</time>
      </trkpt>
      <trkpt lat="37.290579937398433685302734375" lon="-3.547461144626140594482421875">
        <ele>1366.199951171875</ele>
        <time>2022-11-13T16:18:26.000Z</time>
      </trkpt>
      <trkpt lat="37.2905951924622058868408203125" lon="-3.5474802553653717041015625">
        <ele>1365</ele>
        <time>2022-11-13T16:18:28.000Z</time>
      </trkpt>
      <trkpt lat="37.29059762321412563323974609375" lon="-3.54748922400176525115966796875">
        <ele>1364.800048828125</ele>
        <time>2022-11-13T16:18:29.000Z</time>
      </trkpt>
      <trkpt lat="37.290598042309284210205078125" lon="-3.54750984348356723785400390625">
        <ele>1364.4000244140625</ele>
        <time>2022-11-13T16:18:31.000Z</time>
      </trkpt>
      <trkpt lat="37.29060667566955089569091796875" lon="-3.547537587583065032958984375">
        <ele>1364</ele>
        <time>2022-11-13T16:18:34.000Z</time>
      </trkpt>
      <trkpt lat="37.29060919024050235748291015625" lon="-3.54754529893398284912109375">
        <ele>1363.5999755859375</ele>
        <time>2022-11-13T16:18:36.000Z</time>
      </trkpt>
      <trkpt lat="37.29061086662113666534423828125" lon="-3.5475504957139492034912109375">
        <ele>1363.4000244140625</ele>
        <time>2022-11-13T16:18:37.000Z</time>
      </trkpt>
      <trkpt lat="37.2906153090298175811767578125" lon="-3.5475588776171207427978515625">
        <ele>1363.199951171875</ele>
        <time>2022-11-13T16:18:38.000Z</time>
      </trkpt>
      <trkpt lat="37.29061639867722988128662109375" lon="-3.54756667278707027435302734375">
        <ele>1363</ele>
        <time>2022-11-13T16:18:39.000Z</time>
      </trkpt>
      <trkpt lat="37.29062025435268878936767578125" lon="-3.54757421649992465972900390625">
        <ele>1362.5999755859375</ele>
        <time>2022-11-13T16:18:40.000Z</time>
      </trkpt>
      <trkpt lat="37.29062293656170368194580078125" lon="-3.54758326895534992218017578125">
        <ele>1362.199951171875</ele>
        <time>2022-11-13T16:18:41.000Z</time>
      </trkpt>
      <trkpt lat="37.2906243614852428436279296875" lon="-3.5475913994014263153076171875">
        <ele>1362</ele>
        <time>2022-11-13T16:18:42.000Z</time>
      </trkpt>
      <trkpt lat="37.2906267084181308746337890625" lon="-3.5476009547710418701171875">
        <ele>1361.5999755859375</ele>
        <time>2022-11-13T16:18:43.000Z</time>
      </trkpt>
      <trkpt lat="37.29062846861779689788818359375" lon="-3.54761009104549884796142578125">
        <ele>1361.5999755859375</ele>
        <time>2022-11-13T16:18:44.000Z</time>
      </trkpt>
      <trkpt lat="37.290628217160701751708984375" lon="-3.54762149043381214141845703125">
        <ele>1361.199951171875</ele>
        <time>2022-11-13T16:18:45.000Z</time>
      </trkpt>
      <trkpt lat="37.29063064791262149810791015625" lon="-3.54765585623681545257568359375">
        <ele>1360.5999755859375</ele>
        <time>2022-11-13T16:18:48.000Z</time>
      </trkpt>
      <trkpt lat="37.29063098318874835968017578125" lon="-3.5476641543209552764892578125">
        <ele>1360.4000244140625</ele>
        <time>2022-11-13T16:18:49.000Z</time>
      </trkpt>
      <trkpt lat="37.2906360961496829986572265625" lon="-3.5476986877620220184326171875">
        <ele>1359.199951171875</ele>
        <time>2022-11-13T16:18:53.000Z</time>
      </trkpt>
      <trkpt lat="37.29063726961612701416015625" lon="-3.5477218218147754669189453125">
        <ele>1358.5999755859375</ele>
        <time>2022-11-13T16:18:55.000Z</time>
      </trkpt>
      <trkpt lat="37.29063458740711212158203125" lon="-3.54775710962712764739990234375">
        <ele>1358.199951171875</ele>
        <time>2022-11-13T16:18:58.000Z</time>
      </trkpt>
      <trkpt lat="37.29064690880477428436279296875" lon="-3.54780840687453746795654296875">
        <ele>1357</ele>
        <time>2022-11-13T16:19:02.000Z</time>
      </trkpt>
      <trkpt lat="37.29066300205886363983154296875" lon="-3.5478378273546695709228515625">
        <ele>1356.199951171875</ele>
        <time>2022-11-13T16:19:05.000Z</time>
      </trkpt>
      <trkpt lat="37.2906659357249736785888671875" lon="-3.54784327559173107147216796875">
        <ele>1356</ele>
        <time>2022-11-13T16:19:06.000Z</time>
      </trkpt>
      <trkpt lat="37.290669120848178863525390625" lon="-3.54784864000976085662841796875">
        <ele>1355.800048828125</ele>
        <time>2022-11-13T16:19:07.000Z</time>
      </trkpt>
      <trkpt lat="37.2906806878745555877685546875" lon="-3.54786582291126251220703125">
        <ele>1354.800048828125</ele>
        <time>2022-11-13T16:19:09.000Z</time>
      </trkpt>
      <trkpt lat="37.29069233871996402740478515625" lon="-3.54789666831493377685546875">
        <ele>1353.800048828125</ele>
        <time>2022-11-13T16:19:12.000Z</time>
      </trkpt>
      <trkpt lat="37.29069468565285205841064453125" lon="-3.547910414636135101318359375">
        <ele>1353.800048828125</ele>
        <time>2022-11-13T16:19:13.000Z</time>
      </trkpt>
      <trkpt lat="37.29067750275135040283203125" lon="-3.54797453619539737701416015625">
        <ele>1352.5999755859375</ele>
        <time>2022-11-13T16:19:18.000Z</time>
      </trkpt>
      <trkpt lat="37.29067641310393810272216796875" lon="-3.5479752905666828155517578125">
        <ele>1352.4000244140625</ele>
        <time>2022-11-13T16:19:19.000Z</time>
      </trkpt>
      <trkpt lat="37.290676496922969818115234375" lon="-3.54797688312828540802001953125">
        <ele>1352</ele>
        <time>2022-11-13T16:19:20.000Z</time>
      </trkpt>
      <trkpt lat="37.29068345390260219573974609375" lon="-3.54798979125916957855224609375">
        <ele>1351.4000244140625</ele>
        <time>2022-11-13T16:19:22.000Z</time>
      </trkpt>
      <trkpt lat="37.29069401510059833526611328125" lon="-3.5479980893433094024658203125">
        <ele>1351</ele>
        <time>2022-11-13T16:19:24.000Z</time>
      </trkpt>
      <trkpt lat="37.29069837369024753570556640625" lon="-3.548015691339969635009765625">
        <ele>1350.5999755859375</ele>
        <time>2022-11-13T16:19:26.000Z</time>
      </trkpt>
      <trkpt lat="37.29069837369024753570556640625" lon="-3.5480329580605030059814453125">
        <ele>1350.4000244140625</ele>
        <time>2022-11-13T16:19:28.000Z</time>
      </trkpt>
      <trkpt lat="37.29070139117538928985595703125" lon="-3.5480416752398014068603515625">
        <ele>1350</ele>
        <time>2022-11-13T16:19:29.000Z</time>
      </trkpt>
      <trkpt lat="37.2907108627259731292724609375" lon="-3.54807101190090179443359375">
        <ele>1349</ele>
        <time>2022-11-13T16:19:32.000Z</time>
      </trkpt>
      <trkpt lat="37.29071631096303462982177734375" lon="-3.5480933077633380889892578125">
        <ele>1348.4000244140625</ele>
        <time>2022-11-13T16:19:34.000Z</time>
      </trkpt>
      <trkpt lat="37.290719412267208099365234375" lon="-3.54811954312026500701904296875">
        <ele>1348.199951171875</ele>
        <time>2022-11-13T16:19:36.000Z</time>
      </trkpt>
      <trkpt lat="37.29071865789592266082763671875" lon="-3.54814284481108188629150390625">
        <ele>1348</ele>
        <time>2022-11-13T16:19:38.000Z</time>
      </trkpt>
      <trkpt lat="37.2907192446291446685791015625" lon="-3.54816664941608905792236328125">
        <ele>1347.5999755859375</ele>
        <time>2022-11-13T16:19:40.000Z</time>
      </trkpt>
      <trkpt lat="37.2907212562859058380126953125" lon="-3.54817821644246578216552734375">
        <ele>1347</ele>
        <time>2022-11-13T16:19:41.000Z</time>
      </trkpt>
      <trkpt lat="37.29072486050426959991455078125" lon="-3.54818928055465221405029296875">
        <ele>1346.5999755859375</ele>
        <time>2022-11-13T16:19:42.000Z</time>
      </trkpt>
      <trkpt lat="37.2907276265323162078857421875" lon="-3.548226244747638702392578125">
        <ele>1345.4000244140625</ele>
        <time>2022-11-13T16:19:46.000Z</time>
      </trkpt>
      <trkpt lat="37.2907336615025997161865234375" lon="-3.54823529720306396484375">
        <ele>1345.199951171875</ele>
        <time>2022-11-13T16:19:47.000Z</time>
      </trkpt>
      <trkpt lat="37.29073919355869293212890625" lon="-3.54827293194830417633056640625">
        <ele>1344.199951171875</ele>
        <time>2022-11-13T16:19:52.000Z</time>
      </trkpt>
      <trkpt lat="37.29073860682547092437744140625" lon="-3.54827377013862133026123046875">
        <ele>1344</ele>
        <time>2022-11-13T16:19:53.000Z</time>
      </trkpt>
      <trkpt lat="37.2907443903386592864990234375" lon="-3.54827611707150936126708984375">
        <ele>1344</ele>
        <time>2022-11-13T16:19:56.000Z</time>
      </trkpt>
      <trkpt lat="37.2907507605850696563720703125" lon="-3.54830168187618255615234375">
        <ele>1343.800048828125</ele>
        <time>2022-11-13T16:20:00.000Z</time>
      </trkpt>
      <trkpt lat="37.29075000621378421783447265625" lon="-3.5483085550367832183837890625">
        <ele>1343.5999755859375</ele>
        <time>2022-11-13T16:20:01.000Z</time>
      </trkpt>
      <trkpt lat="37.290748916566371917724609375" lon="-3.5483152605593204498291015625">
        <ele>1343.4000244140625</ele>
        <time>2022-11-13T16:20:02.000Z</time>
      </trkpt>
      <trkpt lat="37.29074858129024505615234375" lon="-3.54832707904279232025146484375">
        <ele>1342.800048828125</ele>
        <time>2022-11-13T16:20:04.000Z</time>
      </trkpt>
      <trkpt lat="37.29075394570827484130859375" lon="-3.5483390651643276214599609375">
        <ele>1342</ele>
        <time>2022-11-13T16:20:07.000Z</time>
      </trkpt>
      <trkpt lat="37.29076207615435123443603515625" lon="-3.548353649675846099853515625">
        <ele>1341.800048828125</ele>
        <time>2022-11-13T16:20:09.000Z</time>
      </trkpt>
      <trkpt lat="37.2907698713243007659912109375" lon="-3.54836395941674709320068359375">
        <ele>1341.5999755859375</ele>
        <time>2022-11-13T16:20:10.000Z</time>
      </trkpt>
      <trkpt lat="37.2907935082912445068359375" lon="-3.54840905405580997467041015625">
        <ele>1340.800048828125</ele>
        <time>2022-11-13T16:20:15.000Z</time>
      </trkpt>
      <trkpt lat="37.29079526849091053009033203125" lon="-3.54841022752225399017333984375">
        <ele>1340.5999755859375</ele>
        <time>2022-11-13T16:20:16.000Z</time>
      </trkpt>
      <trkpt lat="37.29080247692763805389404296875" lon="-3.54842045344412326812744140625">
        <ele>1340.4000244140625</ele>
        <time>2022-11-13T16:20:20.000Z</time>
      </trkpt>
      <trkpt lat="37.29080582968890666961669921875" lon="-3.5484329424798488616943359375">
        <ele>1340</ele>
        <time>2022-11-13T16:20:22.000Z</time>
      </trkpt>
      <trkpt lat="37.29081052355468273162841796875" lon="-3.54845322668552398681640625">
        <ele>1339.4000244140625</ele>
        <time>2022-11-13T16:20:24.000Z</time>
      </trkpt>
      <trkpt lat="37.2908178158104419708251953125" lon="-3.5484860837459564208984375">
        <ele>1338.4000244140625</ele>
        <time>2022-11-13T16:20:28.000Z</time>
      </trkpt>
      <trkpt lat="37.2908225096762180328369140625" lon="-3.548496477305889129638671875">
        <ele>1338.199951171875</ele>
        <time>2022-11-13T16:20:29.000Z</time>
      </trkpt>
      <trkpt lat="37.2908261977136135101318359375" lon="-3.5485070385038852691650390625">
        <ele>1338.199951171875</ele>
        <time>2022-11-13T16:20:30.000Z</time>
      </trkpt>
      <trkpt lat="37.29083030484616756439208984375" lon="-3.5485365428030490875244140625">
        <ele>1337.5999755859375</ele>
        <time>2022-11-13T16:20:33.000Z</time>
      </trkpt>
      <trkpt lat="37.290834747254848480224609375" lon="-3.54856512509286403656005859375">
        <ele>1337.199951171875</ele>
        <time>2022-11-13T16:20:35.000Z</time>
      </trkpt>
      <trkpt lat="37.29083399288356304168701171875" lon="-3.5485774464905261993408203125">
        <ele>1337.199951171875</ele>
        <time>2022-11-13T16:20:36.000Z</time>
      </trkpt>
      <trkpt lat="37.29083064012229442596435546875" lon="-3.54862153530120849609375">
        <ele>1336.5999755859375</ele>
        <time>2022-11-13T16:20:39.000Z</time>
      </trkpt>
      <trkpt lat="37.2908256947994232177734375" lon="-3.54864894412457942962646484375">
        <ele>1336.199951171875</ele>
        <time>2022-11-13T16:20:41.000Z</time>
      </trkpt>
      <trkpt lat="37.29082502424716949462890625" lon="-3.548658080399036407470703125">
        <ele>1335.800048828125</ele>
        <time>2022-11-13T16:20:43.000Z</time>
      </trkpt>
      <trkpt lat="37.2908255271613597869873046875" lon="-3.548658080399036407470703125">
        <ele>1335.800048828125</ele>
        <time>2022-11-13T16:20:44.000Z</time>
      </trkpt>
      <trkpt lat="37.29082695208489894866943359375" lon="-3.54868414811789989471435546875">
        <ele>1335.199951171875</ele>
        <time>2022-11-13T16:20:49.000Z</time>
      </trkpt>
      <trkpt lat="37.290823347866535186767578125" lon="-3.5486994870007038116455078125">
        <ele>1334.800048828125</ele>
        <time>2022-11-13T16:20:51.000Z</time>
      </trkpt>
      <trkpt lat="37.29082846082746982574462890625" lon="-3.548721112310886383056640625">
        <ele>1333.800048828125</ele>
        <time>2022-11-13T16:20:53.000Z</time>
      </trkpt>
      <trkpt lat="37.29086257517337799072265625" lon="-3.54875438846647739410400390625">
        <ele>1333</ele>
        <time>2022-11-13T16:20:57.000Z</time>
      </trkpt>
      <trkpt lat="37.2908707894384860992431640625" lon="-3.5487628541886806488037109375">
        <ele>1332.5999755859375</ele>
        <time>2022-11-13T16:20:58.000Z</time>
      </trkpt>
      <trkpt lat="37.29088160209357738494873046875" lon="-3.54878439567983150482177734375">
        <ele>1332</ele>
        <time>2022-11-13T16:21:00.000Z</time>
      </trkpt>
      <trkpt lat="37.29088805615901947021484375" lon="-3.54879478923976421356201171875">
        <ele>1331.5999755859375</ele>
        <time>2022-11-13T16:21:01.000Z</time>
      </trkpt>
      <trkpt lat="37.2909006290137767791748046875" lon="-3.54880149476230144500732421875">
        <ele>1331.4000244140625</ele>
        <time>2022-11-13T16:21:02.000Z</time>
      </trkpt>
      <trkpt lat="37.29091890156269073486328125" lon="-3.54881389997899532318115234375">
        <ele>1331</ele>
        <time>2022-11-13T16:21:04.000Z</time>
      </trkpt>
      <trkpt lat="37.290927954018115997314453125" lon="-3.54882144369184970855712890625">
        <ele>1330.800048828125</ele>
        <time>2022-11-13T16:21:06.000Z</time>
      </trkpt>
      <trkpt lat="37.2909368388354778289794921875" lon="-3.5488282330334186553955078125">
        <ele>1330.5999755859375</ele>
        <time>2022-11-13T16:21:08.000Z</time>
      </trkpt>
      <trkpt lat="37.2909415327012538909912109375" lon="-3.5488369502127170562744140625">
        <ele>1330.199951171875</ele>
        <time>2022-11-13T16:21:09.000Z</time>
      </trkpt>
      <trkpt lat="37.29095016606152057647705078125" lon="-3.5488473437726497650146484375">
        <ele>1330</ele>
        <time>2022-11-13T16:21:10.000Z</time>
      </trkpt>
      <trkpt lat="37.29096139781177043914794921875" lon="-3.54885765351355075836181640625">
        <ele>1329.4000244140625</ele>
        <time>2022-11-13T16:21:12.000Z</time>
      </trkpt>
      <trkpt lat="37.29100406169891357421875" lon="-3.5488550551235675811767578125">
        <ele>1328.5999755859375</ele>
        <time>2022-11-13T16:21:16.000Z</time>
      </trkpt>
      <trkpt lat="37.2910246811807155609130859375" lon="-3.5488522052764892578125">
        <ele>1328.4000244140625</ele>
        <time>2022-11-13T16:21:18.000Z</time>
      </trkpt>
      <trkpt lat="37.29104588739573955535888671875" lon="-3.54887575842440128326416015625">
        <ele>1328.4000244140625</ele>
        <time>2022-11-13T16:21:22.000Z</time>
      </trkpt>
      <trkpt lat="37.29104823432862758636474609375" lon="-3.5488781891763210296630859375">
        <ele>1328.4000244140625</ele>
        <time>2022-11-13T16:21:23.000Z</time>
      </trkpt>
      <trkpt lat="37.2910511679947376251220703125" lon="-3.54888447560369968414306640625">
        <ele>1328.199951171875</ele>
        <time>2022-11-13T16:21:24.000Z</time>
      </trkpt>
      <trkpt lat="37.29105846025049686431884765625" lon="-3.54888564907014369964599609375">
        <ele>1327.800048828125</ele>
        <time>2022-11-13T16:21:26.000Z</time>
      </trkpt>
      <trkpt lat="37.29106835089623928070068359375" lon="-3.54888564907014369964599609375">
        <ele>1327.800048828125</ele>
        <time>2022-11-13T16:21:27.000Z</time>
      </trkpt>
      <trkpt lat="37.2910826839506626129150390625" lon="-3.54888514615595340728759765625">
        <ele>1327.4000244140625</ele>
        <time>2022-11-13T16:21:28.000Z</time>
      </trkpt>
      <trkpt lat="37.29109986685216426849365234375" lon="-3.54888145811855792999267578125">
        <ele>1327</ele>
        <time>2022-11-13T16:21:29.000Z</time>
      </trkpt>
      <trkpt lat="37.29111528955399990081787109375" lon="-3.5488771833479404449462890625">
        <ele>1326.4000244140625</ele>
        <time>2022-11-13T16:21:30.000Z</time>
      </trkpt>
      <trkpt lat="37.2911380045115947723388671875" lon="-3.54887424968183040618896484375">
        <ele>1325.4000244140625</ele>
        <time>2022-11-13T16:21:34.000Z</time>
      </trkpt>
      <trkpt lat="37.2911395132541656494140625" lon="-3.548871986567974090576171875">
        <ele>1325.199951171875</ele>
        <time>2022-11-13T16:21:36.000Z</time>
      </trkpt>
      <trkpt lat="37.29120262898504734039306640625" lon="-3.54885756969451904296875">
        <ele>1324.5999755859375</ele>
        <time>2022-11-13T16:21:44.000Z</time>
      </trkpt>
      <trkpt lat="37.2912065684795379638671875" lon="-3.54887927882373332977294921875">
        <ele>1324.199951171875</ele>
        <time>2022-11-13T16:21:46.000Z</time>
      </trkpt>
      <trkpt lat="37.29119676165282726287841796875" lon="-3.54890677146613597869873046875">
        <ele>1323.800048828125</ele>
        <time>2022-11-13T16:21:48.000Z</time>
      </trkpt>
      <trkpt lat="37.2911529242992401123046875" lon="-3.54899771511554718017578125">
        <ele>1323.4000244140625</ele>
        <time>2022-11-13T16:21:56.000Z</time>
      </trkpt>
      <trkpt lat="37.2911571152508258819580078125" lon="-3.54900601319968700408935546875">
        <ele>1323</ele>
        <time>2022-11-13T16:21:59.000Z</time>
      </trkpt>
      <trkpt lat="37.2911688499152660369873046875" lon="-3.54902193881571292877197265625">
        <ele>1322.800048828125</ele>
        <time>2022-11-13T16:22:03.000Z</time>
      </trkpt>
      <trkpt lat="37.2911705262959003448486328125" lon="-3.54904825799167156219482421875">
        <ele>1322.199951171875</ele>
        <time>2022-11-13T16:22:11.000Z</time>
      </trkpt>
      <trkpt lat="37.2911772318184375762939453125" lon="-3.54904624633491039276123046875">
        <ele>1322</ele>
        <time>2022-11-13T16:22:12.000Z</time>
      </trkpt>
      <trkpt lat="37.29118871502578258514404296875" lon="-3.5490394569933414459228515625">
        <ele>1321</ele>
        <time>2022-11-13T16:22:20.000Z</time>
      </trkpt>
      <trkpt lat="37.29118871502578258514404296875" lon="-3.5490394569933414459228515625">
        <ele>1321</ele>
        <time>2022-11-13T16:22:21.000Z</time>
      </trkpt>
      <trkpt lat="37.29118871502578258514404296875" lon="-3.5490394569933414459228515625">
        <ele>1319.5999755859375</ele>
        <time>2022-11-13T16:22:25.000Z</time>
      </trkpt>
      <trkpt lat="37.29119625873863697052001953125" lon="-3.5490374453365802764892578125">
        <ele>1318.4000244140625</ele>
        <time>2022-11-13T16:22:29.000Z</time>
      </trkpt>
      <trkpt lat="37.29121905751526355743408203125" lon="-3.5490788519382476806640625">
        <ele>1318</ele>
        <time>2022-11-13T16:22:32.000Z</time>
      </trkpt>
      <trkpt lat="37.29120413772761821746826171875" lon="-3.54915789328515529632568359375">
        <ele>1318</ele>
        <time>2022-11-13T16:22:39.000Z</time>
      </trkpt>
      <trkpt lat="37.2911463864147663116455078125" lon="-3.54924137704074382781982421875">
        <ele>1317.800048828125</ele>
        <time>2022-11-13T16:22:46.000Z</time>
      </trkpt>
      <trkpt lat="37.291141189634799957275390625" lon="-3.5492639243602752685546875">
        <ele>1317.5999755859375</ele>
        <time>2022-11-13T16:22:48.000Z</time>
      </trkpt>
      <trkpt lat="37.29113507084548473358154296875" lon="-3.549276329576969146728515625">
        <ele>1317.5999755859375</ele>
        <time>2022-11-13T16:22:49.000Z</time>
      </trkpt>
      <trkpt lat="37.291125096380710601806640625" lon="-3.54928831569850444793701171875">
        <ele>1317.4000244140625</ele>
        <time>2022-11-13T16:22:50.000Z</time>
      </trkpt>
      <trkpt lat="37.29110036976635456085205078125" lon="-3.5493334941565990447998046875">
        <ele>1317</ele>
        <time>2022-11-13T16:22:53.000Z</time>
      </trkpt>
      <trkpt lat="37.2910402715206146240234375" lon="-3.54945410974323749542236328125">
        <ele>1316.800048828125</ele>
        <time>2022-11-13T16:23:01.000Z</time>
      </trkpt>
      <trkpt lat="37.2909965179860591888427734375" lon="-3.54960615746676921844482421875">
        <ele>1316.4000244140625</ele>
        <time>2022-11-13T16:23:10.000Z</time>
      </trkpt>
      <trkpt lat="37.29096357710659503936767578125" lon="-3.54977178387343883514404296875">
        <ele>1317</ele>
        <time>2022-11-13T16:23:21.000Z</time>
      </trkpt>
      <trkpt lat="37.29091311804950237274169921875" lon="-3.54985065758228302001953125">
        <ele>1316.5999755859375</ele>
        <time>2022-11-13T16:23:27.000Z</time>
      </trkpt>
      <trkpt lat="37.290899790823459625244140625" lon="-3.5498622246086597442626953125">
        <ele>1316.4000244140625</ele>
        <time>2022-11-13T16:23:28.000Z</time>
      </trkpt>
      <trkpt lat="37.290833406150341033935546875" lon="-3.54992383159697055816650390625">
        <ele>1316</ele>
        <time>2022-11-13T16:23:33.000Z</time>
      </trkpt>
      <trkpt lat="37.29080080054700374603271484375" lon="-3.549964986741542816162109375">
        <ele>1315.4000244140625</ele>
        <time>2022-11-13T16:23:36.000Z</time>
      </trkpt>
      <trkpt lat="37.29079325683414936065673828125" lon="-3.549975045025348663330078125">
        <ele>1314.800048828125</ele>
        <time>2022-11-13T16:23:37.000Z</time>
      </trkpt>
      <trkpt lat="37.29077582247555255889892578125" lon="-3.5500040464103221893310546875">
        <ele>1313.5999755859375</ele>
        <time>2022-11-13T16:23:39.000Z</time>
      </trkpt>
      <trkpt lat="37.29074950329959392547607421875" lon="-3.55005727149546146392822265625">
        <ele>1312.4000244140625</ele>
        <time>2022-11-13T16:23:43.000Z</time>
      </trkpt>
      <trkpt lat="37.2907323203980922698974609375" lon="-3.5500784777104854583740234375">
        <ele>1312</ele>
        <time>2022-11-13T16:23:45.000Z</time>
      </trkpt>
      <trkpt lat="37.29071178473532199859619140625" lon="-3.5501168668270111083984375">
        <ele>1311.4000244140625</ele>
        <time>2022-11-13T16:23:48.000Z</time>
      </trkpt>
      <trkpt lat="37.29069435037672519683837890625" lon="-3.55016372166574001312255859375">
        <ele>1310.4000244140625</ele>
        <time>2022-11-13T16:23:52.000Z</time>
      </trkpt>
      <trkpt lat="37.2906877286732196807861328125" lon="-3.55018165893852710723876953125">
        <ele>1310.4000244140625</ele>
        <time>2022-11-13T16:23:53.000Z</time>
      </trkpt>
      <trkpt lat="37.29065294377505779266357421875" lon="-3.550255335867404937744140625">
        <ele>1309.199951171875</ele>
        <time>2022-11-13T16:23:58.000Z</time>
      </trkpt>
      <trkpt lat="37.29064657352864742279052734375" lon="-3.55029028840363025665283203125">
        <ele>1308.199951171875</ele>
        <time>2022-11-13T16:24:01.000Z</time>
      </trkpt>
      <trkpt lat="37.2906474955379962921142578125" lon="-3.550301603972911834716796875">
        <ele>1307.800048828125</ele>
        <time>2022-11-13T16:24:02.000Z</time>
      </trkpt>
      <trkpt lat="37.29063450358808040618896484375" lon="-3.55032683350145816802978515625">
        <ele>1307.4000244140625</ele>
        <time>2022-11-13T16:24:04.000Z</time>
      </trkpt>
      <trkpt lat="37.2906143032014369964599609375" lon="-3.5503544099628925323486328125">
        <ele>1307.199951171875</ele>
        <time>2022-11-13T16:24:06.000Z</time>
      </trkpt>
      <trkpt lat="37.2905982099473476409912109375" lon="-3.55036840774118900299072265625">
        <ele>1307.199951171875</ele>
        <time>2022-11-13T16:24:07.000Z</time>
      </trkpt>
      <trkpt lat="37.29058907367289066314697265625" lon="-3.55038584209978580474853515625">
        <ele>1307</ele>
        <time>2022-11-13T16:24:08.000Z</time>
      </trkpt>
      <trkpt lat="37.2905620001256465911865234375" lon="-3.5504615306854248046875">
        <ele>1305.800048828125</ele>
        <time>2022-11-13T16:24:13.000Z</time>
      </trkpt>
      <trkpt lat="37.2905628383159637451171875" lon="-3.550479970872402191162109375">
        <ele>1305.5999755859375</ele>
        <time>2022-11-13T16:24:14.000Z</time>
      </trkpt>
      <trkpt lat="37.29054146446287631988525390625" lon="-3.5505284182727336883544921875">
        <ele>1304.800048828125</ele>
        <time>2022-11-13T16:24:17.000Z</time>
      </trkpt>
      <trkpt lat="37.2905365191400051116943359375" lon="-3.55054241605103015899658203125">
        <ele>1304.4000244140625</ele>
        <time>2022-11-13T16:24:18.000Z</time>
      </trkpt>
      <trkpt lat="37.29052553884685039520263671875" lon="-3.55060058645904064178466796875">
        <ele>1303.800048828125</ele>
        <time>2022-11-13T16:24:22.000Z</time>
      </trkpt>
      <trkpt lat="37.29050911031663417816162109375" lon="-3.5506801307201385498046875">
        <ele>1302.5999755859375</ele>
        <time>2022-11-13T16:24:26.000Z</time>
      </trkpt>
      <trkpt lat="37.29048999957740306854248046875" lon="-3.55080627836287021636962890625">
        <ele>1301.4000244140625</ele>
        <time>2022-11-13T16:24:33.000Z</time>
      </trkpt>
      <trkpt lat="37.29049243032932281494140625" lon="-3.55085690505802631378173828125">
        <ele>1301</ele>
        <time>2022-11-13T16:24:36.000Z</time>
      </trkpt>
      <trkpt lat="37.29046502150595188140869140625" lon="-3.5509230382740497589111328125">
        <ele>1300.199951171875</ele>
        <time>2022-11-13T16:24:40.000Z</time>
      </trkpt>
      <trkpt lat="37.29043099097907543182373046875" lon="-3.55097576044499874114990234375">
        <ele>1298.800048828125</ele>
        <time>2022-11-13T16:24:44.000Z</time>
      </trkpt>
      <trkpt lat="37.29042327962815761566162109375" lon="-3.55098933912813663482666015625">
        <ele>1298.5999755859375</ele>
        <time>2022-11-13T16:24:45.000Z</time>
      </trkpt>
      <trkpt lat="37.29038472287356853485107421875" lon="-3.5510623455047607421875">
        <ele>1298</ele>
        <time>2022-11-13T16:24:52.000Z</time>
      </trkpt>
      <trkpt lat="37.290384136140346527099609375" lon="-3.55105957947671413421630859375">
        <ele>1298</ele>
        <time>2022-11-13T16:24:53.000Z</time>
      </trkpt>
      <trkpt lat="37.2903799451887607574462890625" lon="-3.5510561428964138031005859375">
        <ele>1297.800048828125</ele>
        <time>2022-11-13T16:24:55.000Z</time>
      </trkpt>
      <trkpt lat="37.29037575423717498779296875" lon="-3.55105756781995296478271484375">
        <ele>1297.800048828125</ele>
        <time>2022-11-13T16:24:56.000Z</time>
      </trkpt>
      <trkpt lat="37.2903764247894287109375" lon="-3.55108338408172130584716796875">
        <ele>1297.4000244140625</ele>
        <time>2022-11-13T16:25:00.000Z</time>
      </trkpt>
      <trkpt lat="37.290389835834503173828125" lon="-3.55109428055584430694580078125">
        <ele>1297.4000244140625</ele>
        <time>2022-11-13T16:25:03.000Z</time>
      </trkpt>
      <trkpt lat="37.290387488901615142822265625" lon="-3.5511141456663608551025390625">
        <ele>1296.800048828125</ele>
        <time>2022-11-13T16:25:08.000Z</time>
      </trkpt>
      <trkpt lat="37.2903846390545368194580078125" lon="-3.55111657641828060150146484375">
        <ele>1296.5999755859375</ele>
        <time>2022-11-13T16:25:09.000Z</time>
      </trkpt>
      <trkpt lat="37.29033241979777812957763671875" lon="-3.55117122642695903778076171875">
        <ele>1296.199951171875</ele>
        <time>2022-11-13T16:25:16.000Z</time>
      </trkpt>
      <trkpt lat="37.2902951203286647796630859375" lon="-3.55121229775249958038330078125">
        <ele>1295.5999755859375</ele>
        <time>2022-11-13T16:25:18.000Z</time>
      </trkpt>
      <trkpt lat="37.2902545519173145294189453125" lon="-3.55127030052244663238525390625">
        <ele>1294.199951171875</ele>
        <time>2022-11-13T16:25:21.000Z</time>
      </trkpt>
      <trkpt lat="37.2902221977710723876953125" lon="-3.5513045825064182281494140625">
        <ele>1293.199951171875</ele>
        <time>2022-11-13T16:25:24.000Z</time>
      </trkpt>
      <trkpt lat="37.29021306149661540985107421875" lon="-3.551316149532794952392578125">
        <ele>1293</ele>
        <time>2022-11-13T16:25:25.000Z</time>
      </trkpt>
      <trkpt lat="37.290199063718318939208984375" lon="-3.551343642175197601318359375">
        <ele>1292.5999755859375</ele>
        <time>2022-11-13T16:25:27.000Z</time>
      </trkpt>
      <trkpt lat="37.29016193188726902008056640625" lon="-3.55139384977519512176513671875">
        <ele>1291.5999755859375</ele>
        <time>2022-11-13T16:25:31.000Z</time>
      </trkpt>
      <trkpt lat="37.29014508426189422607421875" lon="-3.55141974985599517822265625">
        <ele>1291.4000244140625</ele>
        <time>2022-11-13T16:25:33.000Z</time>
      </trkpt>
      <trkpt lat="37.29013343341648578643798828125" lon="-3.55145461857318878173828125">
        <ele>1291.4000244140625</ele>
        <time>2022-11-13T16:25:35.000Z</time>
      </trkpt>
      <trkpt lat="37.29010510258376598358154296875" lon="-3.5515191592276096343994140625">
        <ele>1290.5999755859375</ele>
        <time>2022-11-13T16:25:39.000Z</time>
      </trkpt>
      <trkpt lat="37.29008733294904232025146484375" lon="-3.55155126191675662994384765625">
        <ele>1289.199951171875</ele>
        <time>2022-11-13T16:25:41.000Z</time>
      </trkpt>
      <trkpt lat="37.29004039429128170013427734375" lon="-3.551615215837955474853515625">
        <ele>1287.800048828125</ele>
        <time>2022-11-13T16:25:46.000Z</time>
      </trkpt>
      <trkpt lat="37.29001541621983051300048828125" lon="-3.5516790859401226043701171875">
        <ele>1286.800048828125</ele>
        <time>2022-11-13T16:25:50.000Z</time>
      </trkpt>
      <trkpt lat="37.2900037653744220733642578125" lon="-3.55171705596148967742919921875">
        <ele>1286</ele>
        <time>2022-11-13T16:25:53.000Z</time>
      </trkpt>
      <trkpt lat="37.2899987362325191497802734375" lon="-3.5517320595681667327880859375">
        <ele>1285.800048828125</ele>
        <time>2022-11-13T16:25:54.000Z</time>
      </trkpt>
      <trkpt lat="37.28996981866657733917236328125" lon="-3.5518133640289306640625">
        <ele>1284.5999755859375</ele>
        <time>2022-11-13T16:25:59.000Z</time>
      </trkpt>
      <trkpt lat="37.2899558208882808685302734375" lon="-3.551900200545787811279296875">
        <ele>1283.199951171875</ele>
        <time>2022-11-13T16:26:04.000Z</time>
      </trkpt>
      <trkpt lat="37.28994467295706272125244140625" lon="-3.5519449599087238311767578125">
        <ele>1282</ele>
        <time>2022-11-13T16:26:07.000Z</time>
      </trkpt>
      <trkpt lat="37.28992891497910022735595703125" lon="-3.5519647412002086639404296875">
        <ele>1281.199951171875</ele>
        <time>2022-11-13T16:26:09.000Z</time>
      </trkpt>
      <trkpt lat="37.2899243049323558807373046875" lon="-3.55197764933109283447265625">
        <ele>1281</ele>
        <time>2022-11-13T16:26:10.000Z</time>
      </trkpt>
      <trkpt lat="37.28991835378110408782958984375" lon="-3.55199181474745273590087890625">
        <ele>1280.800048828125</ele>
        <time>2022-11-13T16:26:11.000Z</time>
      </trkpt>
      <trkpt lat="37.2899125702679157257080078125" lon="-3.55200589634478092193603515625">
        <ele>1280.800048828125</ele>
        <time>2022-11-13T16:26:12.000Z</time>
      </trkpt>
      <trkpt lat="37.2898954711854457855224609375" lon="-3.5520519129931926727294921875">
        <ele>1279.5999755859375</ele>
        <time>2022-11-13T16:26:15.000Z</time>
      </trkpt>
      <trkpt lat="37.28987728245556354522705078125" lon="-3.5521011985838413238525390625">
        <ele>1278.800048828125</ele>
        <time>2022-11-13T16:26:18.000Z</time>
      </trkpt>
      <trkpt lat="37.2898642905056476593017578125" lon="-3.55213481001555919647216796875">
        <ele>1278.5999755859375</ele>
        <time>2022-11-13T16:26:20.000Z</time>
      </trkpt>
      <trkpt lat="37.28984844870865345001220703125" lon="-3.5521632246673107147216796875">
        <ele>1278.199951171875</ele>
        <time>2022-11-13T16:26:22.000Z</time>
      </trkpt>
      <trkpt lat="37.28983797132968902587890625" lon="-3.55221661739051342010498046875">
        <ele>1277.199951171875</ele>
        <time>2022-11-13T16:26:26.000Z</time>
      </trkpt>
      <trkpt lat="37.2898344509303569793701171875" lon="-3.55222952552139759063720703125">
        <ele>1276.800048828125</ele>
        <time>2022-11-13T16:26:27.000Z</time>
      </trkpt>
      <trkpt lat="37.289827577769756317138671875" lon="-3.55225550942122936248779296875">
        <ele>1276</ele>
        <time>2022-11-13T16:26:29.000Z</time>
      </trkpt>
      <trkpt lat="37.28981307707726955413818359375" lon="-3.55229121632874011993408203125">
        <ele>1275</ele>
        <time>2022-11-13T16:26:32.000Z</time>
      </trkpt>
      <trkpt lat="37.28979748673737049102783203125" lon="-3.5523295216262340545654296875">
        <ele>1274.4000244140625</ele>
        <time>2022-11-13T16:26:35.000Z</time>
      </trkpt>
      <trkpt lat="37.28979513980448246002197265625" lon="-3.5523536615073680877685546875">
        <ele>1274</ele>
        <time>2022-11-13T16:26:37.000Z</time>
      </trkpt>
      <trkpt lat="37.28979027830064296722412109375" lon="-3.5524173639714717864990234375">
        <ele>1272.800048828125</ele>
        <time>2022-11-13T16:26:41.000Z</time>
      </trkpt>
      <trkpt lat="37.289780639111995697021484375" lon="-3.5524584352970123291015625">
        <ele>1272.199951171875</ele>
        <time>2022-11-13T16:26:44.000Z</time>
      </trkpt>
      <trkpt lat="37.2897653840482234954833984375" lon="-3.5524971596896648406982421875">
        <ele>1271.800048828125</ele>
        <time>2022-11-13T16:26:47.000Z</time>
      </trkpt>
      <trkpt lat="37.28976177982985973358154296875" lon="-3.5525119118392467498779296875">
        <ele>1271.4000244140625</ele>
        <time>2022-11-13T16:26:48.000Z</time>
      </trkpt>
      <trkpt lat="37.2897492907941341400146484375" lon="-3.5525437630712985992431640625">
        <ele>1270.800048828125</ele>
        <time>2022-11-13T16:26:50.000Z</time>
      </trkpt>
      <trkpt lat="37.2897355444729328155517578125" lon="-3.55257485993206501007080078125">
        <ele>1270.4000244140625</ele>
        <time>2022-11-13T16:26:52.000Z</time>
      </trkpt>
      <trkpt lat="37.2897308506071567535400390625" lon="-3.55259011499583721160888671875">
        <ele>1270.4000244140625</ele>
        <time>2022-11-13T16:26:53.000Z</time>
      </trkpt>
      <trkpt lat="37.28971634991466999053955078125" lon="-3.55269354768097400665283203125">
        <ele>1269.4000244140625</ele>
        <time>2022-11-13T16:26:59.000Z</time>
      </trkpt>
      <trkpt lat="37.28969514369964599609375" lon="-3.5527536459267139434814453125">
        <ele>1268.199951171875</ele>
        <time>2022-11-13T16:27:03.000Z</time>
      </trkpt>
      <trkpt lat="37.28967435657978057861328125" lon="-3.55283805169165134429931640625">
        <ele>1267.199951171875</ele>
        <time>2022-11-13T16:27:09.000Z</time>
      </trkpt>
      <trkpt lat="37.2896691597998142242431640625" lon="-3.55285179801285266876220703125">
        <ele>1266.800048828125</ele>
        <time>2022-11-13T16:27:10.000Z</time>
      </trkpt>
      <trkpt lat="37.28966052643954753875732421875" lon="-3.55289555154740810394287109375">
        <ele>1266.4000244140625</ele>
        <time>2022-11-13T16:27:15.000Z</time>
      </trkpt>
      <trkpt lat="37.28966136462986469268798828125" lon="-3.55289630591869354248046875">
        <ele>1266.199951171875</ele>
        <time>2022-11-13T16:27:16.000Z</time>
      </trkpt>
      <trkpt lat="37.2896601073443889617919921875" lon="-3.5528954677283763885498046875">
        <ele>1266</ele>
        <time>2022-11-13T16:27:17.000Z</time>
      </trkpt>
      <trkpt lat="37.28965717367827892303466796875" lon="-3.55289286933839321136474609375">
        <ele>1266</ele>
        <time>2022-11-13T16:27:18.000Z</time>
      </trkpt>
      <trkpt lat="37.2896403260529041290283203125" lon="-3.552946932613849639892578125">
        <ele>1265.800048828125</ele>
        <time>2022-11-13T16:27:24.000Z</time>
      </trkpt>
      <trkpt lat="37.2895930521190166473388671875" lon="-3.55305254459381103515625">
        <ele>1265</ele>
        <time>2022-11-13T16:27:31.000Z</time>
      </trkpt>
      <trkpt lat="37.289590872824192047119140625" lon="-3.55306788347661495208740234375">
        <ele>1264.800048828125</ele>
        <time>2022-11-13T16:27:32.000Z</time>
      </trkpt>
      <trkpt lat="37.2895796410739421844482421875" lon="-3.553108535706996917724609375">
        <ele>1264.4000244140625</ele>
        <time>2022-11-13T16:27:35.000Z</time>
      </trkpt>
      <trkpt lat="37.28955860249698162078857421875" lon="-3.55313711799681186676025390625">
        <ele>1263.800048828125</ele>
        <time>2022-11-13T16:27:37.000Z</time>
      </trkpt>
      <trkpt lat="37.28955072350800037384033203125" lon="-3.55314969085156917572021484375">
        <ele>1263.4000244140625</ele>
        <time>2022-11-13T16:27:38.000Z</time>
      </trkpt>
      <trkpt lat="37.28954116813838481903076171875" lon="-3.5531640239059925079345703125">
        <ele>1263.4000244140625</ele>
        <time>2022-11-13T16:27:39.000Z</time>
      </trkpt>
      <trkpt lat="37.28953278623521327972412109375" lon="-3.55317751877009868621826171875">
        <ele>1263</ele>
        <time>2022-11-13T16:27:40.000Z</time>
      </trkpt>
      <trkpt lat="37.2895236499607563018798828125" lon="-3.55319042690098285675048828125">
        <ele>1262.800048828125</ele>
        <time>2022-11-13T16:27:41.000Z</time>
      </trkpt>
      <trkpt lat="37.289520464837551116943359375" lon="-3.55320182628929615020751953125">
        <ele>1262.800048828125</ele>
        <time>2022-11-13T16:27:42.000Z</time>
      </trkpt>
      <trkpt lat="37.2895199619233608245849609375" lon="-3.55321674607694149017333984375">
        <ele>1262.5999755859375</ele>
        <time>2022-11-13T16:27:43.000Z</time>
      </trkpt>
      <trkpt lat="37.2895115800201892852783203125" lon="-3.55325195007026195526123046875">
        <ele>1262.199951171875</ele>
        <time>2022-11-13T16:27:45.000Z</time>
      </trkpt>
      <trkpt lat="37.28950663469731807708740234375" lon="-3.55326334945857524871826171875">
        <ele>1262</ele>
        <time>2022-11-13T16:27:46.000Z</time>
      </trkpt>
      <trkpt lat="37.2894934751093387603759765625" lon="-3.5532894171774387359619140625">
        <ele>1261.4000244140625</ele>
        <time>2022-11-13T16:27:48.000Z</time>
      </trkpt>
      <trkpt lat="37.28948635049164295196533203125" lon="-3.5533031634986400604248046875">
        <ele>1261.199951171875</ele>
        <time>2022-11-13T16:27:49.000Z</time>
      </trkpt>
      <trkpt lat="37.28947729803621768951416015625" lon="-3.5533430613577365875244140625">
        <ele>1260.800048828125</ele>
        <time>2022-11-13T16:27:52.000Z</time>
      </trkpt>
      <trkpt lat="37.28946782648563385009765625" lon="-3.55336644686758518218994140625">
        <ele>1260.4000244140625</ele>
        <time>2022-11-13T16:27:54.000Z</time>
      </trkpt>
      <trkpt lat="37.28943773545324802398681640625" lon="-3.553441800177097320556640625">
        <ele>1259</ele>
        <time>2022-11-13T16:27:59.000Z</time>
      </trkpt>
      <trkpt lat="37.28942231275141239166259765625" lon="-3.55353760533034801483154296875">
        <ele>1257.800048828125</ele>
        <time>2022-11-13T16:28:05.000Z</time>
      </trkpt>
      <trkpt lat="37.289417199790477752685546875" lon="-3.55363399721682071685791015625">
        <ele>1257.5999755859375</ele>
        <time>2022-11-13T16:28:11.000Z</time>
      </trkpt>
      <trkpt lat="37.289402447640895843505859375" lon="-3.5536806844174861907958984375">
        <ele>1257.199951171875</ele>
        <time>2022-11-13T16:28:14.000Z</time>
      </trkpt>
      <trkpt lat="37.28933908045291900634765625" lon="-3.55376425199210643768310546875">
        <ele>1257</ele>
        <time>2022-11-13T16:28:21.000Z</time>
      </trkpt>
      <trkpt lat="37.28932944126427173614501953125" lon="-3.5537728853523731231689453125">
        <ele>1256.5999755859375</ele>
        <time>2022-11-13T16:28:22.000Z</time>
      </trkpt>
      <trkpt lat="37.289273701608180999755859375" lon="-3.55383147485554218292236328125">
        <ele>1255.5999755859375</ele>
        <time>2022-11-13T16:28:27.000Z</time>
      </trkpt>
      <trkpt lat="37.28921075351536273956298828125" lon="-3.55388964526355266571044921875">
        <ele>1254.800048828125</ele>
        <time>2022-11-13T16:28:32.000Z</time>
      </trkpt>
      <trkpt lat="37.28918896056711673736572265625" lon="-3.5539257712662220001220703125">
        <ele>1254.5999755859375</ele>
        <time>2022-11-13T16:28:34.000Z</time>
      </trkpt>
      <trkpt lat="37.28911234997212886810302734375" lon="-3.55403113178908824920654296875">
        <ele>1253.800048828125</ele>
        <time>2022-11-13T16:28:43.000Z</time>
      </trkpt>
      <trkpt lat="37.2890683449804782867431640625" lon="-3.55410690419375896453857421875">
        <ele>1253.5999755859375</ele>
        <time>2022-11-13T16:28:49.000Z</time>
      </trkpt>
      <trkpt lat="37.2890581190586090087890625" lon="-3.554134480655193328857421875">
        <ele>1253.4000244140625</ele>
        <time>2022-11-13T16:28:51.000Z</time>
      </trkpt>
      <trkpt lat="37.289051078259944915771484375" lon="-3.55416507460176944732666015625">
        <ele>1253.199951171875</ele>
        <time>2022-11-13T16:28:53.000Z</time>
      </trkpt>
      <trkpt lat="37.28902651928365230560302734375" lon="-3.5542241670191287994384765625">
        <ele>1252.4000244140625</ele>
        <time>2022-11-13T16:28:57.000Z</time>
      </trkpt>
      <trkpt lat="37.28901176713407039642333984375" lon="-3.5542684234678745269775390625">
        <ele>1252</ele>
        <time>2022-11-13T16:29:00.000Z</time>
      </trkpt>
      <trkpt lat="37.288977988064289093017578125" lon="-3.55433237738907337188720703125">
        <ele>1251</ele>
        <time>2022-11-13T16:29:05.000Z</time>
      </trkpt>
      <trkpt lat="37.28895594365894794464111328125" lon="-3.55438292026519775390625">
        <ele>1250.4000244140625</ele>
        <time>2022-11-13T16:29:08.000Z</time>
      </trkpt>
      <trkpt lat="37.28894169442355632781982421875" lon="-3.55441384948790073394775390625">
        <ele>1250</ele>
        <time>2022-11-13T16:29:10.000Z</time>
      </trkpt>
      <trkpt lat="37.2889191471040248870849609375" lon="-3.55447822250425815582275390625">
        <ele>1248.800048828125</ele>
        <time>2022-11-13T16:29:14.000Z</time>
      </trkpt>
      <trkpt lat="37.28889659978449344635009765625" lon="-3.55452599935233592987060546875">
        <ele>1247.800048828125</ele>
        <time>2022-11-13T16:29:17.000Z</time>
      </trkpt>
      <trkpt lat="37.288887798786163330078125" lon="-3.55453991331160068511962890625">
        <ele>1247.5999755859375</ele>
        <time>2022-11-13T16:29:18.000Z</time>
      </trkpt>
      <trkpt lat="37.28885829448699951171875" lon="-3.55460696853697299957275390625">
        <ele>1246.4000244140625</ele>
        <time>2022-11-13T16:29:23.000Z</time>
      </trkpt>
      <trkpt lat="37.28883440606296062469482421875" lon="-3.55465658940374851226806640625">
        <ele>1245.800048828125</ele>
        <time>2022-11-13T16:29:27.000Z</time>
      </trkpt>
      <trkpt lat="37.28882987983524799346923828125" lon="-3.5546928830444812774658203125">
        <ele>1244.800048828125</ele>
        <time>2022-11-13T16:29:30.000Z</time>
      </trkpt>
      <trkpt lat="37.2888381779193878173828125" lon="-3.55472414754331111907958984375">
        <ele>1244.199951171875</ele>
        <time>2022-11-13T16:29:32.000Z</time>
      </trkpt>
      <trkpt lat="37.28885754011571407318115234375" lon="-3.554739989340305328369140625">
        <ele>1243.800048828125</ele>
        <time>2022-11-13T16:29:34.000Z</time>
      </trkpt>
      <trkpt lat="37.28887078352272510528564453125" lon="-3.55474258773028850555419921875">
        <ele>1243.5999755859375</ele>
        <time>2022-11-13T16:29:35.000Z</time>
      </trkpt>
      <trkpt lat="37.28888268582522869110107421875" lon="-3.55473898351192474365234375">
        <ele>1243.4000244140625</ele>
        <time>2022-11-13T16:29:36.000Z</time>
      </trkpt>
      <trkpt lat="37.28894571773707866668701171875" lon="-3.55469497852027416229248046875">
        <ele>1243</ele>
        <time>2022-11-13T16:29:41.000Z</time>
      </trkpt>
      <trkpt lat="37.2889670915901660919189453125" lon="-3.55466832406818866729736328125">
        <ele>1242.5999755859375</ele>
        <time>2022-11-13T16:29:43.000Z</time>
      </trkpt>
      <trkpt lat="37.2890170477330684661865234375" lon="-3.55462121777236461639404296875">
        <ele>1242.5999755859375</ele>
        <time>2022-11-13T16:29:49.000Z</time>
      </trkpt>
      <trkpt lat="37.28903154842555522918701171875" lon="-3.55460344813764095306396484375">
        <ele>1242.5999755859375</ele>
        <time>2022-11-13T16:29:51.000Z</time>
      </trkpt>
      <trkpt lat="37.2890830971300601959228515625" lon="-3.55454846285283565521240234375">
        <ele>1242.199951171875</ele>
        <time>2022-11-13T16:29:57.000Z</time>
      </trkpt>
      <trkpt lat="37.2891545109450817108154296875" lon="-3.55446045286953449249267578125">
        <ele>1242.199951171875</ele>
        <time>2022-11-13T16:30:06.000Z</time>
      </trkpt>
      <trkpt lat="37.28921527974307537078857421875" lon="-3.55441217310726642608642578125">
        <ele>1242.5999755859375</ele>
        <time>2022-11-13T16:30:13.000Z</time>
      </trkpt>
      <trkpt lat="37.2892222367227077484130859375" lon="-3.55440580286085605621337890625">
        <ele>1242.5999755859375</ele>
        <time>2022-11-13T16:30:14.000Z</time>
      </trkpt>
      <trkpt lat="37.28927814401686191558837890625" lon="-3.55438350699841976165771484375">
        <ele>1242</ele>
        <time>2022-11-13T16:30:19.000Z</time>
      </trkpt>
      <trkpt lat="37.2893030382692813873291015625" lon="-3.5543995164334774017333984375">
        <ele>1241.800048828125</ele>
        <time>2022-11-13T16:30:21.000Z</time>
      </trkpt>
      <trkpt lat="37.28931066580116748809814453125" lon="-3.55441200546920299530029296875">
        <ele>1241.5999755859375</ele>
        <time>2022-11-13T16:30:22.000Z</time>
      </trkpt>
      <trkpt lat="37.28931452147662639617919921875" lon="-3.55442407540977001190185546875">
        <ele>1241.4000244140625</ele>
        <time>2022-11-13T16:30:23.000Z</time>
      </trkpt>
      <trkpt lat="37.28931167162954807281494140625" lon="-3.5544432699680328369140625">
        <ele>1241.199951171875</ele>
        <time>2022-11-13T16:30:25.000Z</time>
      </trkpt>
      <trkpt lat="37.2893117554485797882080078125" lon="-3.554444946348667144775390625">
        <ele>1240.5999755859375</ele>
        <time>2022-11-13T16:30:27.000Z</time>
      </trkpt>
      <trkpt lat="37.28931234218180179595947265625" lon="-3.5544451139867305755615234375">
        <ele>1240.4000244140625</ele>
        <time>2022-11-13T16:30:28.000Z</time>
      </trkpt>
      <trkpt lat="37.28930555284023284912109375" lon="-3.55451560579240322113037109375">
        <ele>1240.199951171875</ele>
        <time>2022-11-13T16:30:35.000Z</time>
      </trkpt>
      <trkpt lat="37.2892651520669460296630859375" lon="-3.55459012091159820556640625">
        <ele>1239.4000244140625</ele>
        <time>2022-11-13T16:30:41.000Z</time>
      </trkpt>
      <trkpt lat="37.2892557643353939056396484375" lon="-3.55459741316735744476318359375">
        <ele>1239.199951171875</ele>
        <time>2022-11-13T16:30:42.000Z</time>
      </trkpt>
      <trkpt lat="37.28922651149332523345947265625" lon="-3.5546355508267879486083984375">
        <ele>1238</ele>
        <time>2022-11-13T16:30:45.000Z</time>
      </trkpt>
      <trkpt lat="37.28916297666728496551513671875" lon="-3.554734289646148681640625">
        <ele>1237.5999755859375</ele>
        <time>2022-11-13T16:30:52.000Z</time>
      </trkpt>
      <trkpt lat="37.2891494818031787872314453125" lon="-3.5547626204788684844970703125">
        <ele>1237</ele>
        <time>2022-11-13T16:30:54.000Z</time>
      </trkpt>
      <trkpt lat="37.289108075201511383056640625" lon="-3.55484669096767902374267578125">
        <ele>1235.800048828125</ele>
        <time>2022-11-13T16:31:00.000Z</time>
      </trkpt>
      <trkpt lat="37.289108075201511383056640625" lon="-3.55484669096767902374267578125">
        <ele>1235.4000244140625</ele>
        <time>2022-11-13T16:31:01.000Z</time>
      </trkpt>
      <trkpt lat="37.28908619843423366546630859375" lon="-3.55491776950657367706298828125">
        <ele>1234.800048828125</ele>
        <time>2022-11-13T16:31:05.000Z</time>
      </trkpt>
      <trkpt lat="37.28908183984458446502685546875" lon="-3.55495129711925983428955078125">
        <ele>1234.4000244140625</ele>
        <time>2022-11-13T16:31:07.000Z</time>
      </trkpt>
      <trkpt lat="37.2890690155327320098876953125" lon="-3.55502053163945674896240234375">
        <ele>1233.4000244140625</ele>
        <time>2022-11-13T16:31:11.000Z</time>
      </trkpt>
      <trkpt lat="37.28906289674341678619384765625" lon="-3.55503662489354610443115234375">
        <ele>1233</ele>
        <time>2022-11-13T16:31:12.000Z</time>
      </trkpt>
      <trkpt lat="37.28904831223189830780029296875" lon="-3.55506462045013904571533203125">
        <ele>1232.199951171875</ele>
        <time>2022-11-13T16:31:14.000Z</time>
      </trkpt>
      <trkpt lat="37.2890224121510982513427734375" lon="-3.5551579110324382781982421875">
        <ele>1231.199951171875</ele>
        <time>2022-11-13T16:31:20.000Z</time>
      </trkpt>
      <trkpt lat="37.28901662863790988922119140625" lon="-3.555191271007061004638671875">
        <ele>1231</ele>
        <time>2022-11-13T16:31:22.000Z</time>
      </trkpt>
      <trkpt lat="37.28899349458515644073486328125" lon="-3.55525639839470386505126953125">
        <ele>1230</ele>
        <time>2022-11-13T16:31:26.000Z</time>
      </trkpt>
      <trkpt lat="37.28895477019250392913818359375" lon="-3.55533636175096035003662109375">
        <ele>1228.5999755859375</ele>
        <time>2022-11-13T16:31:32.000Z</time>
      </trkpt>
      <trkpt lat="37.28892560116946697235107421875" lon="-3.555399477481842041015625">
        <ele>1227.4000244140625</ele>
        <time>2022-11-13T16:31:36.000Z</time>
      </trkpt>
      <trkpt lat="37.288882099092006683349609375" lon="-3.555469214916229248046875">
        <ele>1226.4000244140625</ele>
        <time>2022-11-13T16:31:41.000Z</time>
      </trkpt>
      <trkpt lat="37.2888745553791522979736328125" lon="-3.5554797761142253875732421875">
        <ele>1226</ele>
        <time>2022-11-13T16:31:42.000Z</time>
      </trkpt>
      <trkpt lat="37.28883842937648296356201171875" lon="-3.55552017688751220703125">
        <ele>1224.800048828125</ele>
        <time>2022-11-13T16:31:46.000Z</time>
      </trkpt>
      <trkpt lat="37.28879316709935665130615234375" lon="-3.55557692237198352813720703125">
        <ele>1224</ele>
        <time>2022-11-13T16:31:51.000Z</time>
      </trkpt>
      <trkpt lat="37.28878160007297992706298828125" lon="-3.55558312498033046722412109375">
        <ele>1223.800048828125</ele>
        <time>2022-11-13T16:31:52.000Z</time>
      </trkpt>
      <trkpt lat="37.28871672414243221282958984375" lon="-3.55561983771622180938720703125">
        <ele>1222.800048828125</ele>
        <time>2022-11-13T16:31:57.000Z</time>
      </trkpt>
      <trkpt lat="37.2886217571794986724853515625" lon="-3.55568387545645236968994140625">
        <ele>1222</ele>
        <time>2022-11-13T16:32:04.000Z</time>
      </trkpt>
      <trkpt lat="37.28858579881489276885986328125" lon="-3.55571673251688480377197265625">
        <ele>1221.5999755859375</ele>
        <time>2022-11-13T16:32:07.000Z</time>
      </trkpt>
      <trkpt lat="37.28853248991072177886962890625" lon="-3.5557731427252292633056640625">
        <ele>1220.5999755859375</ele>
        <time>2022-11-13T16:32:12.000Z</time>
      </trkpt>
      <trkpt lat="37.28852234780788421630859375" lon="-3.55578144080936908721923828125">
        <ele>1220.4000244140625</ele>
        <time>2022-11-13T16:32:13.000Z</time>
      </trkpt>
      <trkpt lat="37.2884179092943668365478515625" lon="-3.55585880577564239501953125">
        <ele>1219.800048828125</ele>
        <time>2022-11-13T16:32:21.000Z</time>
      </trkpt>
      <trkpt lat="37.28833031840622425079345703125" lon="-3.55590783990919589996337890625">
        <ele>1219.5999755859375</ele>
        <time>2022-11-13T16:32:28.000Z</time>
      </trkpt>
      <trkpt lat="37.28831875137984752655029296875" lon="-3.55591538362205028533935546875">
        <ele>1219.4000244140625</ele>
        <time>2022-11-13T16:32:29.000Z</time>
      </trkpt>
      <trkpt lat="37.28827550075948238372802734375" lon="-3.55597690679132938385009765625">
        <ele>1218.199951171875</ele>
        <time>2022-11-13T16:32:35.000Z</time>
      </trkpt>
      <trkpt lat="37.28827022016048431396484375" lon="-3.55597774498164653778076171875">
        <ele>1218</ele>
        <time>2022-11-13T16:32:36.000Z</time>
      </trkpt>
      <trkpt lat="37.288263849914073944091796875" lon="-3.55597774498164653778076171875">
        <ele>1217.5999755859375</ele>
        <time>2022-11-13T16:32:38.000Z</time>
      </trkpt>
      <trkpt lat="37.28826292790472507476806640625" lon="-3.55597455985844135284423828125">
        <ele>1217.4000244140625</ele>
        <time>2022-11-13T16:32:41.000Z</time>
      </trkpt>
      <trkpt lat="37.2882905043661594390869140625" lon="-3.5559726320207118988037109375">
        <ele>1217.199951171875</ele>
        <time>2022-11-13T16:32:51.000Z</time>
      </trkpt>
      <trkpt lat="37.2882891632616519927978515625" lon="-3.55597070418298244476318359375">
        <ele>1217.199951171875</ele>
        <time>2022-11-13T16:32:52.000Z</time>
      </trkpt>
      <trkpt lat="37.28828941471874713897705078125" lon="-3.55596584267914295196533203125">
        <ele>1217.4000244140625</ele>
        <time>2022-11-13T16:32:59.000Z</time>
      </trkpt>
      <trkpt lat="37.28828874416649341583251953125" lon="-3.55596483685076236724853515625">
        <ele>1217.199951171875</ele>
        <time>2022-11-13T16:33:00.000Z</time>
      </trkpt>
      <trkpt lat="37.2882492654025554656982421875" lon="-3.55602384544909000396728515625">
        <ele>1216.800048828125</ele>
        <time>2022-11-13T16:33:14.000Z</time>
      </trkpt>
      <trkpt lat="37.28821163065731525421142578125" lon="-3.5560758970677852630615234375">
        <ele>1216</ele>
        <time>2022-11-13T16:33:17.000Z</time>
      </trkpt>
      <trkpt lat="37.2881515324115753173828125" lon="-3.55614840053021907806396484375">
        <ele>1215.199951171875</ele>
        <time>2022-11-13T16:33:22.000Z</time>
      </trkpt>
      <trkpt lat="37.28813032619655132293701171875" lon="-3.556172288954257965087890625">
        <ele>1214.5999755859375</ele>
        <time>2022-11-13T16:33:24.000Z</time>
      </trkpt>
      <trkpt lat="37.28811138309538364410400390625" lon="-3.5561965964734554290771484375">
        <ele>1214</ele>
        <time>2022-11-13T16:33:26.000Z</time>
      </trkpt>
      <trkpt lat="37.288088835775852203369140625" lon="-3.5562214069068431854248046875">
        <ele>1213.4000244140625</ele>
        <time>2022-11-13T16:33:28.000Z</time>
      </trkpt>
      <trkpt lat="37.288069389760494232177734375" lon="-3.556256778538227081298828125">
        <ele>1213</ele>
        <time>2022-11-13T16:33:31.000Z</time>
      </trkpt>
      <trkpt lat="37.28806276805698871612548828125" lon="-3.55627094395458698272705078125">
        <ele>1212.800048828125</ele>
        <time>2022-11-13T16:33:32.000Z</time>
      </trkpt>
      <trkpt lat="37.28802907280623912811279296875" lon="-3.55632609687745571136474609375">
        <ele>1212.4000244140625</ele>
        <time>2022-11-13T16:33:36.000Z</time>
      </trkpt>
      <trkpt lat="37.28799998760223388671875" lon="-3.5563769750297069549560546875">
        <ele>1211.800048828125</ele>
        <time>2022-11-13T16:33:40.000Z</time>
      </trkpt>
      <trkpt lat="37.28798163123428821563720703125" lon="-3.55641243048012256622314453125">
        <ele>1211.199951171875</ele>
        <time>2022-11-13T16:33:43.000Z</time>
      </trkpt>
      <trkpt lat="37.28794491849839687347412109375" lon="-3.55647596530616283416748046875">
        <ele>1210</ele>
        <time>2022-11-13T16:33:48.000Z</time>
      </trkpt>
      <trkpt lat="37.28792547248303890228271484375" lon="-3.55649440549314022064208984375">
        <ele>1210</ele>
        <time>2022-11-13T16:33:50.000Z</time>
      </trkpt>
      <trkpt lat="37.28784735314548015594482421875" lon="-3.556582666933536529541015625">
        <ele>1209.800048828125</ele>
        <time>2022-11-13T16:33:58.000Z</time>
      </trkpt>
      <trkpt lat="37.287746183574199676513671875" lon="-3.5566549189388751983642578125">
        <ele>1209.4000244140625</ele>
        <time>2022-11-13T16:34:07.000Z</time>
      </trkpt>
      <trkpt lat="37.2876699082553386688232421875" lon="-3.556704036891460418701171875">
        <ele>1208.800048828125</ele>
        <time>2022-11-13T16:34:13.000Z</time>
      </trkpt>
      <trkpt lat="37.28763612918555736541748046875" lon="-3.55672960169613361358642578125">
        <ele>1208.4000244140625</ele>
        <time>2022-11-13T16:34:16.000Z</time>
      </trkpt>
      <trkpt lat="37.287540994584560394287109375" lon="-3.55679011903703212738037109375">
        <ele>1208</ele>
        <time>2022-11-13T16:34:26.000Z</time>
      </trkpt>
      <trkpt lat="37.28750470094382762908935546875" lon="-3.55680537410080432891845703125">
        <ele>1207.800048828125</ele>
        <time>2022-11-13T16:34:29.000Z</time>
      </trkpt>
      <trkpt lat="37.28743865154683589935302734375" lon="-3.55683471076190471649169921875">
        <ele>1207.4000244140625</ele>
        <time>2022-11-13T16:34:34.000Z</time>
      </trkpt>
      <trkpt lat="37.2873279266059398651123046875" lon="-3.55687041766941547393798828125">
        <ele>1207.5999755859375</ele>
        <time>2022-11-13T16:34:43.000Z</time>
      </trkpt>
      <trkpt lat="37.28722390718758106231689453125" lon="-3.5569243133068084716796875">
        <ele>1207.4000244140625</ele>
        <time>2022-11-13T16:34:52.000Z</time>
      </trkpt>
      <trkpt lat="37.28709113784134387969970703125" lon="-3.5569831542670726776123046875">
        <ele>1207.800048828125</ele>
        <time>2022-11-13T16:35:03.000Z</time>
      </trkpt>
      <trkpt lat="37.286952249705791473388671875" lon="-3.55705113150179386138916015625">
        <ele>1207.199951171875</ele>
        <time>2022-11-13T16:35:15.000Z</time>
      </trkpt>
      <trkpt lat="37.28682995773851871490478515625" lon="-3.5571199469268321990966796875">
        <ele>1207.5999755859375</ele>
        <time>2022-11-13T16:35:25.000Z</time>
      </trkpt>
      <trkpt lat="37.2867809236049652099609375" lon="-3.55714584700763225555419921875">
        <ele>1207.4000244140625</ele>
        <time>2022-11-13T16:35:29.000Z</time>
      </trkpt>
      <trkpt lat="37.2867529280483722686767578125" lon="-3.55716194026172161102294921875">
        <ele>1207.5999755859375</ele>
        <time>2022-11-13T16:35:31.000Z</time>
      </trkpt>
      <trkpt lat="37.28670506738126277923583984375" lon="-3.55719127692282199859619140625">
        <ele>1207.5999755859375</ele>
        <time>2022-11-13T16:35:35.000Z</time>
      </trkpt>
      <trkpt lat="37.2865873016417026519775390625" lon="-3.5572842322289943695068359375">
        <ele>1208.199951171875</ele>
        <time>2022-11-13T16:35:46.000Z</time>
      </trkpt>
      <trkpt lat="37.2865609824657440185546875" lon="-3.5573070310056209564208984375">
        <ele>1208.199951171875</ele>
        <time>2022-11-13T16:35:49.000Z</time>
      </trkpt>
      <trkpt lat="37.2865175642073154449462890625" lon="-3.5573402233421802520751953125">
        <ele>1208</ele>
        <time>2022-11-13T16:35:53.000Z</time>
      </trkpt>
      <trkpt lat="37.28647054173052310943603515625" lon="-3.5573668777942657470703125">
        <ele>1207.800048828125</ele>
        <time>2022-11-13T16:35:57.000Z</time>
      </trkpt>
      <trkpt lat="37.2864295542240142822265625" lon="-3.55739663355052471160888671875">
        <ele>1207.5999755859375</ele>
        <time>2022-11-13T16:36:00.000Z</time>
      </trkpt>
      <trkpt lat="37.28639108128845691680908203125" lon="-3.55742110870778560638427734375">
        <ele>1207.199951171875</ele>
        <time>2022-11-13T16:36:03.000Z</time>
      </trkpt>
      <trkpt lat="37.28635805658996105194091796875" lon="-3.5574341006577014923095703125">
        <ele>1206.5999755859375</ele>
        <time>2022-11-13T16:36:06.000Z</time>
      </trkpt>
      <trkpt lat="37.28632234968245029449462890625" lon="-3.557451032102108001708984375">
        <ele>1205.800048828125</ele>
        <time>2022-11-13T16:36:09.000Z</time>
      </trkpt>
      <trkpt lat="37.2862925939261913299560546875" lon="-3.55746050365269184112548828125">
        <ele>1205.5999755859375</ele>
        <time>2022-11-13T16:36:11.000Z</time>
      </trkpt>
      <trkpt lat="37.28624020703136920928955078125" lon="-3.55747156776487827301025390625">
        <ele>1204.5999755859375</ele>
        <time>2022-11-13T16:36:15.000Z</time>
      </trkpt>
      <trkpt lat="37.28619276545941829681396484375" lon="-3.5575031675398349761962890625">
        <ele>1204.199951171875</ele>
        <time>2022-11-13T16:36:19.000Z</time>
      </trkpt>
      <trkpt lat="37.2861417196691036224365234375" lon="-3.55754189193248748779296875">
        <ele>1203.4000244140625</ele>
        <time>2022-11-13T16:36:23.000Z</time>
      </trkpt>
      <trkpt lat="37.2860994748771190643310546875" lon="-3.55759193189442157745361328125">
        <ele>1202.5999755859375</ele>
        <time>2022-11-13T16:36:27.000Z</time>
      </trkpt>
      <trkpt lat="37.2860813699662685394287109375" lon="-3.557615317404270172119140625">
        <ele>1202.4000244140625</ele>
        <time>2022-11-13T16:36:29.000Z</time>
      </trkpt>
      <trkpt lat="37.28599763475358486175537109375" lon="-3.5576771758496761322021484375">
        <ele>1201.199951171875</ele>
        <time>2022-11-13T16:36:36.000Z</time>
      </trkpt>
      <trkpt lat="37.28597114793956279754638671875" lon="-3.55769469402730464935302734375">
        <ele>1200.800048828125</ele>
        <time>2022-11-13T16:36:38.000Z</time>
      </trkpt>
      <trkpt lat="37.28593460284173488616943359375" lon="-3.55772101320326328277587890625">
        <ele>1200.199951171875</ele>
        <time>2022-11-13T16:36:41.000Z</time>
      </trkpt>
      <trkpt lat="37.28586117736995220184326171875" lon="-3.557743728160858154296875">
        <ele>1199</ele>
        <time>2022-11-13T16:36:46.000Z</time>
      </trkpt>
      <trkpt lat="37.28584525175392627716064453125" lon="-3.5577449016273021697998046875">
        <ele>1198.800048828125</ele>
        <time>2022-11-13T16:36:47.000Z</time>
      </trkpt>
      <trkpt lat="37.28579211048781871795654296875" lon="-3.55775739066302776336669921875">
        <ele>1197.800048828125</ele>
        <time>2022-11-13T16:36:51.000Z</time>
      </trkpt>
      <trkpt lat="37.2857487760484218597412109375" lon="-3.55776007287204265594482421875">
        <ele>1197.5999755859375</ele>
        <time>2022-11-13T16:36:54.000Z</time>
      </trkpt>
      <trkpt lat="37.285707034170627593994140625" lon="-3.55776250362396240234375">
        <ele>1196.800048828125</ele>
        <time>2022-11-13T16:36:57.000Z</time>
      </trkpt>
      <trkpt lat="37.285661436617374420166015625" lon="-3.5577638447284698486328125">
        <ele>1195.5999755859375</ele>
        <time>2022-11-13T16:37:01.000Z</time>
      </trkpt>
      <trkpt lat="37.28561039082705974578857421875" lon="-3.55776778422296047210693359375">
        <ele>1194.800048828125</ele>
        <time>2022-11-13T16:37:05.000Z</time>
      </trkpt>
      <trkpt lat="37.2855667211115360260009765625" lon="-3.5577720589935779571533203125">
        <ele>1194.5999755859375</ele>
        <time>2022-11-13T16:37:08.000Z</time>
      </trkpt>
      <trkpt lat="37.28546655736863613128662109375" lon="-3.5577723942697048187255859375">
        <ele>1194.199951171875</ele>
        <time>2022-11-13T16:37:15.000Z</time>
      </trkpt>
      <trkpt lat="37.28544157929718494415283203125" lon="-3.5577710531651973724365234375">
        <ele>1193.5999755859375</ele>
        <time>2022-11-13T16:37:17.000Z</time>
      </trkpt>
      <trkpt lat="37.28542682714760303497314453125" lon="-3.55776987969875335693359375">
        <ele>1193.4000244140625</ele>
        <time>2022-11-13T16:37:18.000Z</time>
      </trkpt>
      <trkpt lat="37.2853727638721466064453125" lon="-3.55776241980493068695068359375">
        <ele>1192.199951171875</ele>
        <time>2022-11-13T16:37:22.000Z</time>
      </trkpt>
      <trkpt lat="37.2853405773639678955078125" lon="-3.5577512718737125396728515625">
        <ele>1191.199951171875</ele>
        <time>2022-11-13T16:37:25.000Z</time>
      </trkpt>
      <trkpt lat="37.28532322682440280914306640625" lon="-3.55774733237922191619873046875">
        <ele>1191.199951171875</ele>
        <time>2022-11-13T16:37:26.000Z</time>
      </trkpt>
      <trkpt lat="37.28518224321305751800537109375" lon="-3.55777122080326080322265625">
        <ele>1190</ele>
        <time>2022-11-13T16:37:37.000Z</time>
      </trkpt>
      <trkpt lat="37.2850643098354339599609375" lon="-3.5577906668186187744140625">
        <ele>1189</ele>
        <time>2022-11-13T16:37:46.000Z</time>
      </trkpt>
      <trkpt lat="37.28505467064678668975830078125" lon="-3.5577941872179508209228515625">
        <ele>1189</ele>
        <time>2022-11-13T16:37:47.000Z</time>
      </trkpt>
      <trkpt lat="37.2849551774561405181884765625" lon="-3.5578146390616893768310546875">
        <ele>1187.800048828125</ele>
        <time>2022-11-13T16:37:55.000Z</time>
      </trkpt>
      <trkpt lat="37.2848200611770153045654296875" lon="-3.5578109510242938995361328125">
        <ele>1186.800048828125</ele>
        <time>2022-11-13T16:38:05.000Z</time>
      </trkpt>
      <trkpt lat="37.28481285274028778076171875" lon="-3.55781204067170619964599609375">
        <ele>1186.5999755859375</ele>
        <time>2022-11-13T16:38:06.000Z</time>
      </trkpt>
      <trkpt lat="37.28480941615998744964599609375" lon="-3.55781120248138904571533203125">
        <ele>1186.4000244140625</ele>
        <time>2022-11-13T16:38:08.000Z</time>
      </trkpt>
      <trkpt lat="37.28480254299938678741455078125" lon="-3.557813130319118499755859375">
        <ele>1186.199951171875</ele>
        <time>2022-11-13T16:38:10.000Z</time>
      </trkpt>
      <trkpt lat="37.284791730344295501708984375" lon="-3.55781489051878452301025390625">
        <ele>1186.199951171875</ele>
        <time>2022-11-13T16:38:11.000Z</time>
      </trkpt>
      <trkpt lat="37.284719310700893402099609375" lon="-3.5578092746436595916748046875">
        <ele>1186</ele>
        <time>2022-11-13T16:38:16.000Z</time>
      </trkpt>
      <trkpt lat="37.2846745513379573822021484375" lon="-3.5577975399792194366455078125">
        <ele>1185.800048828125</ele>
        <time>2022-11-13T16:38:19.000Z</time>
      </trkpt>
      <trkpt lat="37.284579835832118988037109375" lon="-3.5577853024005889892578125">
        <ele>1184.800048828125</ele>
        <time>2022-11-13T16:38:26.000Z</time>
      </trkpt>
      <trkpt lat="37.28456868790090084075927734375" lon="-3.5577826201915740966796875">
        <ele>1184.5999755859375</ele>
        <time>2022-11-13T16:38:27.000Z</time>
      </trkpt>
      <trkpt lat="37.28440993465483188629150390625" lon="-3.55777926743030548095703125">
        <ele>1183.800048828125</ele>
        <time>2022-11-13T16:38:39.000Z</time>
      </trkpt>
      <trkpt lat="37.28438445366919040679931640625" lon="-3.5577760823071002960205078125">
        <ele>1183.800048828125</ele>
        <time>2022-11-13T16:38:41.000Z</time>
      </trkpt>
      <trkpt lat="37.28432008065283298492431640625" lon="-3.5577799379825592041015625">
        <ele>1183.5999755859375</ele>
        <time>2022-11-13T16:38:46.000Z</time>
      </trkpt>
      <trkpt lat="37.28426593355834484100341796875" lon="-3.55777499265968799591064453125">
        <ele>1183.4000244140625</ele>
        <time>2022-11-13T16:38:50.000Z</time>
      </trkpt>
      <trkpt lat="37.28414540179073810577392578125" lon="-3.55769268237054347991943359375">
        <ele>1182.5999755859375</ele>
        <time>2022-11-13T16:39:00.000Z</time>
      </trkpt>
      <trkpt lat="37.2841367684304714202880859375" lon="-3.55768002569675445556640625">
        <ele>1182.4000244140625</ele>
        <time>2022-11-13T16:39:01.000Z</time>
      </trkpt>
      <trkpt lat="37.28408371098339557647705078125" lon="-3.5575358569622039794921875">
        <ele>1182.199951171875</ele>
        <time>2022-11-13T16:39:10.000Z</time>
      </trkpt>
      <trkpt lat="37.28405403904616832733154296875" lon="-3.55738900601863861083984375">
        <ele>1181.5999755859375</ele>
        <time>2022-11-13T16:39:19.000Z</time>
      </trkpt>
      <trkpt lat="37.2840623371303081512451171875" lon="-3.5572339408099651336669921875">
        <ele>1181.5999755859375</ele>
        <time>2022-11-13T16:39:29.000Z</time>
      </trkpt>
      <trkpt lat="37.2840630076825618743896484375" lon="-3.55722002685070037841796875">
        <ele>1181.4000244140625</ele>
        <time>2022-11-13T16:39:30.000Z</time>
      </trkpt>
      <trkpt lat="37.28406594134867191314697265625" lon="-3.5571454279124736785888671875">
        <ele>1181.5999755859375</ele>
        <time>2022-11-13T16:39:35.000Z</time>
      </trkpt>
      <trkpt lat="37.284052781760692596435546875" lon="-3.557013161480426788330078125">
        <ele>1181.4000244140625</ele>
        <time>2022-11-13T16:39:43.000Z</time>
      </trkpt>
      <trkpt lat="37.2840415500104427337646484375" lon="-3.55698592029511928558349609375">
        <ele>1181.4000244140625</ele>
        <time>2022-11-13T16:39:45.000Z</time>
      </trkpt>
      <trkpt lat="37.283993773162364959716796875" lon="-3.55692498385906219482421875">
        <ele>1181.5999755859375</ele>
        <time>2022-11-13T16:39:50.000Z</time>
      </trkpt>
      <trkpt lat="37.28391439653933048248291015625" lon="-3.55687159113585948944091796875">
        <ele>1181.800048828125</ele>
        <time>2022-11-13T16:39:57.000Z</time>
      </trkpt>
      <trkpt lat="37.28380861692130565643310546875" lon="-3.55682616122066974639892578125">
        <ele>1180.5999755859375</ele>
        <time>2022-11-13T16:40:05.000Z</time>
      </trkpt>
      <trkpt lat="37.28379487060010433197021484375" lon="-3.55682037770748138427734375">
        <ele>1180.5999755859375</ele>
        <time>2022-11-13T16:40:06.000Z</time>
      </trkpt>
      <trkpt lat="37.2837780229747295379638671875" lon="-3.55681543238461017608642578125">
        <ele>1180.4000244140625</ele>
        <time>2022-11-13T16:40:07.000Z</time>
      </trkpt>
      <trkpt lat="37.28366243652999401092529296875" lon="-3.55675600469112396240234375">
        <ele>1179.5999755859375</ele>
        <time>2022-11-13T16:40:16.000Z</time>
      </trkpt>
      <trkpt lat="37.28358230553567409515380859375" lon="-3.55671635828912258148193359375">
        <ele>1179.4000244140625</ele>
        <time>2022-11-13T16:40:22.000Z</time>
      </trkpt>
      <trkpt lat="37.2835381329059600830078125" lon="-3.5566958226263523101806640625">
        <ele>1178.800048828125</ele>
        <time>2022-11-13T16:40:25.000Z</time>
      </trkpt>
      <trkpt lat="37.28348054923117160797119140625" lon="-3.5566690005362033843994140625">
        <ele>1178.4000244140625</ele>
        <time>2022-11-13T16:40:30.000Z</time>
      </trkpt>
      <trkpt lat="37.28344115428626537322998046875" lon="-3.55664880014955997467041015625">
        <ele>1178</ele>
        <time>2022-11-13T16:40:33.000Z</time>
      </trkpt>
      <trkpt lat="37.28334694169461727142333984375" lon="-3.55662080459296703338623046875">
        <ele>1177.199951171875</ele>
        <time>2022-11-13T16:40:40.000Z</time>
      </trkpt>
      <trkpt lat="37.28332146070897579193115234375" lon="-3.55660554952919483184814453125">
        <ele>1177.199951171875</ele>
        <time>2022-11-13T16:40:42.000Z</time>
      </trkpt>
      <trkpt lat="37.28330218233168125152587890625" lon="-3.55659280903637409210205078125">
        <ele>1177</ele>
        <time>2022-11-13T16:40:44.000Z</time>
      </trkpt>
      <trkpt lat="37.28322758339345455169677734375" lon="-3.5565580241382122039794921875">
        <ele>1176.199951171875</ele>
        <time>2022-11-13T16:40:50.000Z</time>
      </trkpt>
      <trkpt lat="37.2832040302455425262451171875" lon="-3.5565452836453914642333984375">
        <ele>1176.199951171875</ele>
        <time>2022-11-13T16:40:52.000Z</time>
      </trkpt>
      <trkpt lat="37.28308240883052349090576171875" lon="-3.5564436949789524078369140625">
        <ele>1175.4000244140625</ele>
        <time>2022-11-13T16:41:02.000Z</time>
      </trkpt>
      <trkpt lat="37.28305927477777004241943359375" lon="-3.55641863308846950531005859375">
        <ele>1175.199951171875</ele>
        <time>2022-11-13T16:41:04.000Z</time>
      </trkpt>
      <trkpt lat="37.2829871065914630889892578125" lon="-3.556354679167270660400390625">
        <ele>1174.800048828125</ele>
        <time>2022-11-13T16:41:11.000Z</time>
      </trkpt>
      <trkpt lat="37.28289918042719364166259765625" lon="-3.55629525147378444671630859375">
        <ele>1174.4000244140625</ele>
        <time>2022-11-13T16:41:18.000Z</time>
      </trkpt>
      <trkpt lat="37.28280815295875072479248046875" lon="-3.55625669471919536590576171875">
        <ele>1174.199951171875</ele>
        <time>2022-11-13T16:41:25.000Z</time>
      </trkpt>
      <trkpt lat="37.2827817499637603759765625" lon="-3.5562552697956562042236328125">
        <ele>1174</ele>
        <time>2022-11-13T16:41:27.000Z</time>
      </trkpt>
      <trkpt lat="37.2826809994876384735107421875" lon="-3.556313775479793548583984375">
        <ele>1173.5999755859375</ele>
        <time>2022-11-13T16:41:35.000Z</time>
      </trkpt>
      <trkpt lat="37.28256558068096637725830078125" lon="-3.55642835609614849090576171875">
        <ele>1173.4000244140625</ele>
        <time>2022-11-13T16:41:46.000Z</time>
      </trkpt>
      <trkpt lat="37.28252568282186985015869140625" lon="-3.5564527474343776702880859375">
        <ele>1173.199951171875</ele>
        <time>2022-11-13T16:41:49.000Z</time>
      </trkpt>
      <trkpt lat="37.2824647463858127593994140625" lon="-3.55650966055691242218017578125">
        <ele>1172.5999755859375</ele>
        <time>2022-11-13T16:41:56.000Z</time>
      </trkpt>
      <trkpt lat="37.282336167991161346435546875" lon="-3.55660756118595600128173828125">
        <ele>1172.199951171875</ele>
        <time>2022-11-13T16:42:06.000Z</time>
      </trkpt>
      <trkpt lat="37.2823118604719638824462890625" lon="-3.5566274262964725494384765625">
        <ele>1172</ele>
        <time>2022-11-13T16:42:08.000Z</time>
      </trkpt>
      <trkpt lat="37.28223633952438831329345703125" lon="-3.55674720369279384613037109375">
        <ele>1171.199951171875</ele>
        <time>2022-11-13T16:42:17.000Z</time>
      </trkpt>
      <trkpt lat="37.2822216711938381195068359375" lon="-3.5567943938076496124267578125">
        <ele>1171</ele>
        <time>2022-11-13T16:42:20.000Z</time>
      </trkpt>
      <trkpt lat="37.28220842778682708740234375" lon="-3.5568653047084808349609375">
        <ele>1170</ele>
        <time>2022-11-13T16:42:24.000Z</time>
      </trkpt>
      <trkpt lat="37.2822039015591144561767578125" lon="-3.55691400356590747833251953125">
        <ele>1169.5999755859375</ele>
        <time>2022-11-13T16:42:27.000Z</time>
      </trkpt>
      <trkpt lat="37.2821901552379131317138671875" lon="-3.55697100050747394561767578125">
        <ele>1168.800048828125</ele>
        <time>2022-11-13T16:42:31.000Z</time>
      </trkpt>
      <trkpt lat="37.2821760736405849456787109375" lon="-3.55705582536756992340087890625">
        <ele>1167.800048828125</ele>
        <time>2022-11-13T16:42:36.000Z</time>
      </trkpt>
      <trkpt lat="37.28219904005527496337890625" lon="-3.557137548923492431640625">
        <ele>1166.800048828125</ele>
        <time>2022-11-13T16:42:41.000Z</time>
      </trkpt>
      <trkpt lat="37.28220842778682708740234375" lon="-3.55714634992182254791259765625">
        <ele>1166.5999755859375</ele>
        <time>2022-11-13T16:42:42.000Z</time>
      </trkpt>
      <trkpt lat="37.2822360880672931671142578125" lon="-3.557153977453708648681640625">
        <ele>1166.199951171875</ele>
        <time>2022-11-13T16:42:44.000Z</time>
      </trkpt>
      <trkpt lat="37.2822743095457553863525390625" lon="-3.55713729746639728546142578125">
        <ele>1165.5999755859375</ele>
        <time>2022-11-13T16:42:47.000Z</time>
      </trkpt>
      <trkpt lat="37.282324768602848052978515625" lon="-3.55708298273384571075439453125">
        <ele>1165</ele>
        <time>2022-11-13T16:42:52.000Z</time>
      </trkpt>
      <trkpt lat="37.2823701985180377960205078125" lon="-3.55704660527408123016357421875">
        <ele>1164.5999755859375</ele>
        <time>2022-11-13T16:42:57.000Z</time>
      </trkpt>
      <trkpt lat="37.28239710442721843719482421875" lon="-3.55701106600463390350341796875">
        <ele>1164.199951171875</ele>
        <time>2022-11-13T16:43:00.000Z</time>
      </trkpt>
      <trkpt lat="37.28248067200183868408203125" lon="-3.55691567994654178619384765625">
        <ele>1164</ele>
        <time>2022-11-13T16:43:09.000Z</time>
      </trkpt>
      <trkpt lat="37.28251093067228794097900390625" lon="-3.556881062686443328857421875">
        <ele>1164</ele>
        <time>2022-11-13T16:43:12.000Z</time>
      </trkpt>
      <trkpt lat="37.2826018743216991424560546875" lon="-3.55679892003536224365234375">
        <ele>1163.5999755859375</ele>
        <time>2022-11-13T16:43:20.000Z</time>
      </trkpt>
      <trkpt lat="37.2826717793941497802734375" lon="-3.55677301995456218719482421875">
        <ele>1163.800048828125</ele>
        <time>2022-11-13T16:43:26.000Z</time>
      </trkpt>
      <trkpt lat="37.28268041275441646575927734375" lon="-3.55677553452551364898681640625">
        <ele>1163.5999755859375</ele>
        <time>2022-11-13T16:43:27.000Z</time>
      </trkpt>
      <trkpt lat="37.28270119987428188323974609375" lon="-3.5567893646657466888427734375">
        <ele>1163.5999755859375</ele>
        <time>2022-11-13T16:43:29.000Z</time>
      </trkpt>
      <trkpt lat="37.282716371119022369384765625" lon="-3.55684317648410797119140625">
        <ele>1163.4000244140625</ele>
        <time>2022-11-13T16:43:32.000Z</time>
      </trkpt>
      <trkpt lat="37.28271611966192722320556640625" lon="-3.55686086229979991912841796875">
        <ele>1163.199951171875</ele>
        <time>2022-11-13T16:43:33.000Z</time>
      </trkpt>
      <trkpt lat="37.28270907886326313018798828125" lon="-3.5569090582430362701416015625">
        <ele>1163</ele>
        <time>2022-11-13T16:43:36.000Z</time>
      </trkpt>
      <trkpt lat="37.2827071510255336761474609375" lon="-3.55692439712584018707275390625">
        <ele>1162.800048828125</ele>
        <time>2022-11-13T16:43:37.000Z</time>
      </trkpt>
      <trkpt lat="37.282711677253246307373046875" lon="-3.55695717036724090576171875">
        <ele>1162.4000244140625</ele>
        <time>2022-11-13T16:43:39.000Z</time>
      </trkpt>
      <trkpt lat="37.28272299282252788543701171875" lon="-3.55699027888476848602294921875">
        <ele>1161.5999755859375</ele>
        <time>2022-11-13T16:43:41.000Z</time>
      </trkpt>
      <trkpt lat="37.28272986598312854766845703125" lon="-3.557007126510143280029296875">
        <ele>1161.199951171875</ele>
        <time>2022-11-13T16:43:42.000Z</time>
      </trkpt>
      <trkpt lat="37.2827359847724437713623046875" lon="-3.55702363885939121246337890625">
        <ele>1161</ele>
        <time>2022-11-13T16:43:43.000Z</time>
      </trkpt>
      <trkpt lat="37.28274964727461338043212890625" lon="-3.55705414898693561553955078125">
        <ele>1160.5999755859375</ele>
        <time>2022-11-13T16:43:45.000Z</time>
      </trkpt>
      <trkpt lat="37.28276431560516357421875" lon="-3.55708918534219264984130859375">
        <ele>1160</ele>
        <time>2022-11-13T16:43:47.000Z</time>
      </trkpt>
      <trkpt lat="37.28277445770800113677978515625" lon="-3.5571186058223247528076171875">
        <ele>1159.5999755859375</ele>
        <time>2022-11-13T16:43:49.000Z</time>
      </trkpt>
      <trkpt lat="37.28278032504022121429443359375" lon="-3.55713796801865100860595703125">
        <ele>1159.199951171875</ele>
        <time>2022-11-13T16:43:50.000Z</time>
      </trkpt>
      <trkpt lat="37.2827993519604206085205078125" lon="-3.55716646648943424224853515625">
        <ele>1158.800048828125</ele>
        <time>2022-11-13T16:43:52.000Z</time>
      </trkpt>
      <trkpt lat="37.28280982933938503265380859375" lon="-3.5571786202490329742431640625">
        <ele>1158.5999755859375</ele>
        <time>2022-11-13T16:43:53.000Z</time>
      </trkpt>
      <trkpt lat="37.2828700952231884002685546875" lon="-3.557271994650363922119140625">
        <ele>1157.5999755859375</ele>
        <time>2022-11-13T16:44:00.000Z</time>
      </trkpt>
      <trkpt lat="37.282911501824855804443359375" lon="-3.55730493552982807159423828125">
        <ele>1157.4000244140625</ele>
        <time>2022-11-13T16:44:03.000Z</time>
      </trkpt>
      <trkpt lat="37.28304125368595123291015625" lon="-3.5573995672166347503662109375">
        <ele>1156.5999755859375</ele>
        <time>2022-11-13T16:44:14.000Z</time>
      </trkpt>
      <trkpt lat="37.28305944241583347320556640625" lon="-3.55741842649877071380615234375">
        <ele>1156.199951171875</ele>
        <time>2022-11-13T16:44:16.000Z</time>
      </trkpt>
      <trkpt lat="37.2830749489367008209228515625" lon="-3.55745731852948665618896484375">
        <ele>1155.5999755859375</ele>
        <time>2022-11-13T16:44:19.000Z</time>
      </trkpt>
      <trkpt lat="37.283082492649555206298828125" lon="-3.55751951225101947784423828125">
        <ele>1154.800048828125</ele>
        <time>2022-11-13T16:44:23.000Z</time>
      </trkpt>
      <trkpt lat="37.28308240883052349090576171875" lon="-3.55755303986370563507080078125">
        <ele>1154.5999755859375</ele>
        <time>2022-11-13T16:44:25.000Z</time>
      </trkpt>
      <trkpt lat="37.28307771496474742889404296875" lon="-3.557656221091747283935546875">
        <ele>1154.4000244140625</ele>
        <time>2022-11-13T16:44:31.000Z</time>
      </trkpt>
      <trkpt lat="37.28307084180414676666259765625" lon="-3.55775780975818634033203125">
        <ele>1153.4000244140625</ele>
        <time>2022-11-13T16:44:37.000Z</time>
      </trkpt>
      <trkpt lat="37.28306564502418041229248046875" lon="-3.55785864405333995819091796875">
        <ele>1152.800048828125</ele>
        <time>2022-11-13T16:44:43.000Z</time>
      </trkpt>
      <trkpt lat="37.283063717186450958251953125" lon="-3.55797699652612209320068359375">
        <ele>1152.4000244140625</ele>
        <time>2022-11-13T16:44:50.000Z</time>
      </trkpt>
      <trkpt lat="37.28303857147693634033203125" lon="-3.55815771035850048065185546875">
        <ele>1152</ele>
        <time>2022-11-13T16:45:01.000Z</time>
      </trkpt>
      <trkpt lat="37.28302742354571819305419921875" lon="-3.55818905867636203765869140625">
        <ele>1151.800048828125</ele>
        <time>2022-11-13T16:45:03.000Z</time>
      </trkpt>
      <trkpt lat="37.28300428949296474456787109375" lon="-3.558249659836292266845703125">
        <ele>1151.4000244140625</ele>
        <time>2022-11-13T16:45:07.000Z</time>
      </trkpt>
      <trkpt lat="37.28299221955239772796630859375" lon="-3.55828159488737583160400390625">
        <ele>1151</ele>
        <time>2022-11-13T16:45:09.000Z</time>
      </trkpt>
      <trkpt lat="37.28298618458211421966552734375" lon="-3.5583351552486419677734375">
        <ele>1150.4000244140625</ele>
        <time>2022-11-13T16:45:12.000Z</time>
      </trkpt>
      <trkpt lat="37.28296036832034587860107421875" lon="-3.55844588018953800201416015625">
        <ele>1150</ele>
        <time>2022-11-13T16:45:18.000Z</time>
      </trkpt>
      <trkpt lat="37.28293840773403644561767578125" lon="-3.55850522406399250030517578125">
        <ele>1149.5999755859375</ele>
        <time>2022-11-13T16:45:22.000Z</time>
      </trkpt>
      <trkpt lat="37.28293522261083126068115234375" lon="-3.55853506363928318023681640625">
        <ele>1149.199951171875</ele>
        <time>2022-11-13T16:45:25.000Z</time>
      </trkpt>
      <trkpt lat="37.2829337976872920989990234375" lon="-3.5585418529808521270751953125">
        <ele>1149.199951171875</ele>
        <time>2022-11-13T16:45:26.000Z</time>
      </trkpt>
      <trkpt lat="37.28293128311634063720703125" lon="-3.558547385036945343017578125">
        <ele>1149.199951171875</ele>
        <time>2022-11-13T16:45:27.000Z</time>
      </trkpt>
      <trkpt lat="37.282932288944721221923828125" lon="-3.5585545934736728668212890625">
        <ele>1149.199951171875</ele>
        <time>2022-11-13T16:45:28.000Z</time>
      </trkpt>
      <trkpt lat="37.28292524814605712890625" lon="-3.5585646517574787139892578125">
        <ele>1149.199951171875</ele>
        <time>2022-11-13T16:45:32.000Z</time>
      </trkpt>
      <trkpt lat="37.28292365558445453643798828125" lon="-3.55856389738619327545166015625">
        <ele>1149.199951171875</ele>
        <time>2022-11-13T16:45:33.000Z</time>
      </trkpt>
      <trkpt lat="37.28292457759380340576171875" lon="-3.55857697315514087677001953125">
        <ele>1149</ele>
        <time>2022-11-13T16:45:35.000Z</time>
      </trkpt>
      <trkpt lat="37.28291661478579044342041015625" lon="-3.55860195122659206390380859375">
        <ele>1149</ele>
        <time>2022-11-13T16:45:37.000Z</time>
      </trkpt>
      <trkpt lat="37.28291074745357036590576171875" lon="-3.55861418880522251129150390625">
        <ele>1149</ele>
        <time>2022-11-13T16:45:38.000Z</time>
      </trkpt>
      <trkpt lat="37.28288794867694377899169921875" lon="-3.5587782226502895355224609375">
        <ele>1148.4000244140625</ele>
        <time>2022-11-13T16:45:48.000Z</time>
      </trkpt>
      <trkpt lat="37.2828888706862926483154296875" lon="-3.5587956570088863372802734375">
        <ele>1148.199951171875</ele>
        <time>2022-11-13T16:45:49.000Z</time>
      </trkpt>
      <trkpt lat="37.2828788124024868011474609375" lon="-3.5589301027357578277587890625">
        <ele>1147.800048828125</ele>
        <time>2022-11-13T16:45:57.000Z</time>
      </trkpt>
      <trkpt lat="37.2828764654695987701416015625" lon="-3.5589896142482757568359375">
        <ele>1147</ele>
        <time>2022-11-13T16:46:01.000Z</time>
      </trkpt>
      <trkpt lat="37.28286514990031719207763671875" lon="-3.55904451571404933929443359375">
        <ele>1146.4000244140625</ele>
        <time>2022-11-13T16:46:05.000Z</time>
      </trkpt>
      <trkpt lat="37.28285693563520908355712890625" lon="-3.55912213213741779327392578125">
        <ele>1145.800048828125</ele>
        <time>2022-11-13T16:46:10.000Z</time>
      </trkpt>
      <trkpt lat="37.28286422789096832275390625" lon="-3.55919589288532733917236328125">
        <ele>1145</ele>
        <time>2022-11-13T16:46:15.000Z</time>
      </trkpt>
      <trkpt lat="37.28285643272101879119873046875" lon="-3.55922766029834747314453125">
        <ele>1144.5999755859375</ele>
        <time>2022-11-13T16:46:17.000Z</time>
      </trkpt>
      <trkpt lat="37.282855510711669921875" lon="-3.55933201499283313751220703125">
        <ele>1143.5999755859375</ele>
        <time>2022-11-13T16:46:23.000Z</time>
      </trkpt>
      <trkpt lat="37.282853163778781890869140625" lon="-3.55934861116111278533935546875">
        <ele>1143.4000244140625</ele>
        <time>2022-11-13T16:46:24.000Z</time>
      </trkpt>
      <trkpt lat="37.28286263532936573028564453125" lon="-3.559416420757770538330078125">
        <ele>1142.4000244140625</ele>
        <time>2022-11-13T16:46:28.000Z</time>
      </trkpt>
      <trkpt lat="37.28286313824355602264404296875" lon="-3.5594772733747959136962890625">
        <ele>1142.199951171875</ele>
        <time>2022-11-13T16:46:32.000Z</time>
      </trkpt>
      <trkpt lat="37.28287152014672756195068359375" lon="-3.55955530889332294464111328125">
        <ele>1141.4000244140625</ele>
        <time>2022-11-13T16:46:37.000Z</time>
      </trkpt>
      <trkpt lat="37.2828801535069942474365234375" lon="-3.55964608490467071533203125">
        <ele>1140.199951171875</ele>
        <time>2022-11-13T16:46:43.000Z</time>
      </trkpt>
      <trkpt lat="37.28288509882986545562744140625" lon="-3.559720516204833984375">
        <ele>1139</ele>
        <time>2022-11-13T16:46:47.000Z</time>
      </trkpt>
      <trkpt lat="37.28288610465824604034423828125" lon="-3.5597384534776210784912109375">
        <ele>1138.800048828125</ele>
        <time>2022-11-13T16:46:48.000Z</time>
      </trkpt>
      <trkpt lat="37.28288727812469005584716796875" lon="-3.5597565583884716033935546875">
        <ele>1138.5999755859375</ele>
        <time>2022-11-13T16:46:49.000Z</time>
      </trkpt>
      <trkpt lat="37.28289373219013214111328125" lon="-3.5597810335457324981689453125">
        <ele>1138.4000244140625</ele>
        <time>2022-11-13T16:46:51.000Z</time>
      </trkpt>
      <trkpt lat="37.2829066403210163116455078125" lon="-3.55981908738613128662109375">
        <ele>1138</ele>
        <time>2022-11-13T16:46:54.000Z</time>
      </trkpt>
      <trkpt lat="37.2829217277467250823974609375" lon="-3.55987750925123691558837890625">
        <ele>1136.800048828125</ele>
        <time>2022-11-13T16:46:58.000Z</time>
      </trkpt>
      <trkpt lat="37.282932288944721221923828125" lon="-3.5599231906235218048095703125">
        <ele>1136</ele>
        <time>2022-11-13T16:47:01.000Z</time>
      </trkpt>
      <trkpt lat="37.28293689899146556854248046875" lon="-3.5599419660866260528564453125">
        <ele>1135.800048828125</ele>
        <time>2022-11-13T16:47:02.000Z</time>
      </trkpt>
      <trkpt lat="37.2829763777554035186767578125" lon="-3.56005973182618618011474609375">
        <ele>1134.5999755859375</ele>
        <time>2022-11-13T16:47:09.000Z</time>
      </trkpt>
      <trkpt lat="37.28298367001116275787353515625" lon="-3.5600864700973033905029296875">
        <ele>1134.4000244140625</ele>
        <time>2022-11-13T16:47:11.000Z</time>
      </trkpt>
      <trkpt lat="37.28298970498144626617431640625" lon="-3.56014237739145755767822265625">
        <ele>1133.5999755859375</ele>
        <time>2022-11-13T16:47:15.000Z</time>
      </trkpt>
      <trkpt lat="37.28300060145556926727294921875" lon="-3.56023357249796390533447265625">
        <ele>1133.199951171875</ele>
        <time>2022-11-13T16:47:21.000Z</time>
      </trkpt>
      <trkpt lat="37.28300311602652072906494140625" lon="-3.56023977510631084442138671875">
        <ele>1132.5999755859375</ele>
        <time>2022-11-13T16:47:24.000Z</time>
      </trkpt>
      <trkpt lat="37.28300361894071102142333984375" lon="-3.56023675762116909027099609375">
        <ele>1132.5999755859375</ele>
        <time>2022-11-13T16:47:25.000Z</time>
      </trkpt>
      <trkpt lat="37.2830055467784404754638671875" lon="-3.5602319799363613128662109375">
        <ele>1132.4000244140625</ele>
        <time>2022-11-13T16:47:26.000Z</time>
      </trkpt>
      <trkpt lat="37.2830058820545673370361328125" lon="-3.56029140762984752655029296875">
        <ele>1132.199951171875</ele>
        <time>2022-11-13T16:47:33.000Z</time>
      </trkpt>
      <trkpt lat="37.28300009854137897491455078125" lon="-3.560347817838191986083984375">
        <ele>1131.800048828125</ele>
        <time>2022-11-13T16:47:40.000Z</time>
      </trkpt>
      <trkpt lat="37.28299221955239772796630859375" lon="-3.5603214986622333526611328125">
        <ele>1132.199951171875</ele>
        <time>2022-11-13T16:47:53.000Z</time>
      </trkpt>
      <trkpt lat="37.28299221955239772796630859375" lon="-3.5603214986622333526611328125">
        <ele>1132.199951171875</ele>
        <time>2022-11-13T16:47:54.000Z</time>
      </trkpt>
      <trkpt lat="37.28299221955239772796630859375" lon="-3.5603214986622333526611328125">
        <ele>1132.199951171875</ele>
        <time>2022-11-13T16:48:00.000Z</time>
      </trkpt>
      <trkpt lat="37.283007390797138214111328125" lon="-3.56036667712032794952392578125">
        <ele>1131.4000244140625</ele>
        <time>2022-11-13T16:48:05.000Z</time>
      </trkpt>
      <trkpt lat="37.28301719762384891510009765625" lon="-3.56039115227758884429931640625">
        <ele>1131.199951171875</ele>
        <time>2022-11-13T16:48:06.000Z</time>
      </trkpt>
      <trkpt lat="37.28304888121783733367919921875" lon="-3.560500703752040863037109375">
        <ele>1130.199951171875</ele>
        <time>2022-11-13T16:48:11.000Z</time>
      </trkpt>
      <trkpt lat="37.28306681849062442779541015625" lon="-3.560542277991771697998046875">
        <ele>1129.800048828125</ele>
        <time>2022-11-13T16:48:14.000Z</time>
      </trkpt>
      <trkpt lat="37.28310386650264263153076171875" lon="-3.560603298246860504150390625">
        <ele>1129.5999755859375</ele>
        <time>2022-11-13T16:48:18.000Z</time>
      </trkpt>
      <trkpt lat="37.2831242345273494720458984375" lon="-3.56064395047724246978759765625">
        <ele>1129.4000244140625</ele>
        <time>2022-11-13T16:48:21.000Z</time>
      </trkpt>
      <trkpt lat="37.2831295989453792572021484375" lon="-3.56065467931330204010009765625">
        <ele>1129.199951171875</ele>
        <time>2022-11-13T16:48:22.000Z</time>
      </trkpt>
      <trkpt lat="37.28321827948093414306640625" lon="-3.56080639176070690155029296875">
        <ele>1128.800048828125</ele>
        <time>2022-11-13T16:48:30.000Z</time>
      </trkpt>
      <trkpt lat="37.28330519981682300567626953125" lon="-3.5609270073473453521728515625">
        <ele>1128</ele>
        <time>2022-11-13T16:48:34.000Z</time>
      </trkpt>
      <trkpt lat="37.283339984714984893798828125" lon="-3.56098928488790988922119140625">
        <ele>1127.5999755859375</ele>
        <time>2022-11-13T16:48:36.000Z</time>
      </trkpt>
      <trkpt lat="37.28335264138877391815185546875" lon="-3.561015687882900238037109375">
        <ele>1127.4000244140625</ele>
        <time>2022-11-13T16:48:37.000Z</time>
      </trkpt>
      <trkpt lat="37.28336705826222896575927734375" lon="-3.56105432845652103424072265625">
        <ele>1127.199951171875</ele>
        <time>2022-11-13T16:48:38.000Z</time>
      </trkpt>
      <trkpt lat="37.28340511210262775421142578125" lon="-3.56115709058940410614013671875">
        <ele>1126.800048828125</ele>
        <time>2022-11-13T16:48:42.000Z</time>
      </trkpt>
      <trkpt lat="37.283412404358386993408203125" lon="-3.5611744411289691925048828125">
        <ele>1126.800048828125</ele>
        <time>2022-11-13T16:48:43.000Z</time>
      </trkpt>
      <trkpt lat="37.2834578342735767364501953125" lon="-3.5613068751990795135498046875">
        <ele>1126.199951171875</ele>
        <time>2022-11-13T16:48:52.000Z</time>
      </trkpt>
      <trkpt lat="37.28348021395504474639892578125" lon="-3.561387844383716583251953125">
        <ele>1125.800048828125</ele>
        <time>2022-11-13T16:48:57.000Z</time>
      </trkpt>
      <trkpt lat="37.28349722921848297119140625" lon="-3.56144676916301250457763671875">
        <ele>1125.4000244140625</ele>
        <time>2022-11-13T16:49:01.000Z</time>
      </trkpt>
      <trkpt lat="37.2835354506969451904296875" lon="-3.56158557347953319549560546875">
        <ele>1125</ele>
        <time>2022-11-13T16:49:10.000Z</time>
      </trkpt>
      <trkpt lat="37.28355095721781253814697265625" lon="-3.5616518743336200714111328125">
        <ele>1124.800048828125</ele>
        <time>2022-11-13T16:49:14.000Z</time>
      </trkpt>
      <trkpt lat="37.28355892002582550048828125" lon="-3.56171834282577037811279296875">
        <ele>1124.199951171875</ele>
        <time>2022-11-13T16:49:18.000Z</time>
      </trkpt>
      <trkpt lat="37.283579371869564056396484375" lon="-3.56181959621608257293701171875">
        <ele>1123.800048828125</ele>
        <time>2022-11-13T16:49:24.000Z</time>
      </trkpt>
      <trkpt lat="37.28358666412532329559326171875" lon="-3.5618530400097370147705078125">
        <ele>1123.5999755859375</ele>
        <time>2022-11-13T16:49:26.000Z</time>
      </trkpt>
      <trkpt lat="37.28359571658074855804443359375" lon="-3.56202847324311733245849609375">
        <ele>1123.199951171875</ele>
        <time>2022-11-13T16:49:36.000Z</time>
      </trkpt>
      <trkpt lat="37.28359588421881198883056640625" lon="-3.562042303383350372314453125">
        <ele>1123</ele>
        <time>2022-11-13T16:49:37.000Z</time>
      </trkpt>
      <trkpt lat="37.28360141627490520477294921875" lon="-3.56210206635296344757080078125">
        <ele>1123</ele>
        <time>2022-11-13T16:49:40.000Z</time>
      </trkpt>
      <trkpt lat="37.283596806228160858154296875" lon="-3.56211581267416477203369140625">
        <ele>1123</ele>
        <time>2022-11-13T16:49:41.000Z</time>
      </trkpt>
      <trkpt lat="37.28358884342014789581298828125" lon="-3.56212687678635120391845703125">
        <ele>1123</ele>
        <time>2022-11-13T16:49:42.000Z</time>
      </trkpt>
      <trkpt lat="37.283582724630832672119140625" lon="-3.5621353425085544586181640625">
        <ele>1123</ele>
        <time>2022-11-13T16:49:43.000Z</time>
      </trkpt>
      <trkpt lat="37.2835743427276611328125" lon="-3.56218605302274227142333984375">
        <ele>1122.5999755859375</ele>
        <time>2022-11-13T16:49:46.000Z</time>
      </trkpt>
      <trkpt lat="37.2835691459476947784423828125" lon="-3.5622194968163967132568359375">
        <ele>1122.4000244140625</ele>
        <time>2022-11-13T16:49:48.000Z</time>
      </trkpt>
      <trkpt lat="37.28354416787624359130859375" lon="-3.56228596530854701995849609375">
        <ele>1121.800048828125</ele>
        <time>2022-11-13T16:49:53.000Z</time>
      </trkpt>
      <trkpt lat="37.2835409827530384063720703125" lon="-3.5622919164597988128662109375">
        <ele>1121.5999755859375</ele>
        <time>2022-11-13T16:49:54.000Z</time>
      </trkpt>
      <trkpt lat="37.283534109592437744140625" lon="-3.56230339966714382171630859375">
        <ele>1121.4000244140625</ele>
        <time>2022-11-13T16:49:56.000Z</time>
      </trkpt>
      <trkpt lat="37.28353402577340602874755859375" lon="-3.56231488287448883056640625">
        <ele>1121.199951171875</ele>
        <time>2022-11-13T16:49:57.000Z</time>
      </trkpt>
      <trkpt lat="37.28353050537407398223876953125" lon="-3.56232653371989727020263671875">
        <ele>1121</ele>
        <time>2022-11-13T16:49:58.000Z</time>
      </trkpt>
      <trkpt lat="37.28348893113434314727783203125" lon="-3.56240364722907543182373046875">
        <ele>1120.800048828125</ele>
        <time>2022-11-13T16:50:04.000Z</time>
      </trkpt>
      <trkpt lat="37.28348105214536190032958984375" lon="-3.56241655535995960235595703125">
        <ele>1120.4000244140625</ele>
        <time>2022-11-13T16:50:05.000Z</time>
      </trkpt>
      <trkpt lat="37.28344769217073917388916015625" lon="-3.56247975490987300872802734375">
        <ele>1119.4000244140625</ele>
        <time>2022-11-13T16:50:10.000Z</time>
      </trkpt>
      <trkpt lat="37.28342087008059024810791015625" lon="-3.5625121928751468658447265625">
        <ele>1118.199951171875</ele>
        <time>2022-11-13T16:50:13.000Z</time>
      </trkpt>
      <trkpt lat="37.28341315872967243194580078125" lon="-3.562524430453777313232421875">
        <ele>1118</ele>
        <time>2022-11-13T16:50:14.000Z</time>
      </trkpt>
      <trkpt lat="37.28340041823685169219970703125" lon="-3.562554605305194854736328125">
        <ele>1117.4000244140625</ele>
        <time>2022-11-13T16:50:16.000Z</time>
      </trkpt>
      <trkpt lat="37.28339153341948986053466796875" lon="-3.56257011182606220245361328125">
        <ele>1117</ele>
        <time>2022-11-13T16:50:17.000Z</time>
      </trkpt>
      <trkpt lat="37.2833585925400257110595703125" lon="-3.56262576766312122344970703125">
        <ele>1116</ele>
        <time>2022-11-13T16:50:21.000Z</time>
      </trkpt>
      <trkpt lat="37.28335230611264705657958984375" lon="-3.562642447650432586669921875">
        <ele>1115.800048828125</ele>
        <time>2022-11-13T16:50:22.000Z</time>
      </trkpt>
      <trkpt lat="37.28334995917975902557373046875" lon="-3.5626607201993465423583984375">
        <ele>1115.5999755859375</ele>
        <time>2022-11-13T16:50:23.000Z</time>
      </trkpt>
      <trkpt lat="37.28334794752299785614013671875" lon="-3.56267471797764301300048828125">
        <ele>1115.4000244140625</ele>
        <time>2022-11-13T16:50:24.000Z</time>
      </trkpt>
      <trkpt lat="37.28333252482116222381591796875" lon="-3.56269986368715763092041015625">
        <ele>1114.800048828125</ele>
        <time>2022-11-13T16:50:26.000Z</time>
      </trkpt>
      <trkpt lat="37.2833277471363544464111328125" lon="-3.5627140291035175323486328125">
        <ele>1114.5999755859375</ele>
        <time>2022-11-13T16:50:27.000Z</time>
      </trkpt>
      <trkpt lat="37.28332280181348323822021484375" lon="-3.5627274401485919952392578125">
        <ele>1114.4000244140625</ele>
        <time>2022-11-13T16:50:28.000Z</time>
      </trkpt>
      <trkpt lat="37.2833036072552204132080078125" lon="-3.56278619728982448577880859375">
        <ele>1113.800048828125</ele>
        <time>2022-11-13T16:50:32.000Z</time>
      </trkpt>
      <trkpt lat="37.283293046057224273681640625" lon="-3.56279692612588405609130859375">
        <ele>1113.5999755859375</ele>
        <time>2022-11-13T16:50:33.000Z</time>
      </trkpt>
      <trkpt lat="37.28327821008861064910888671875" lon="-3.5628063976764678955078125">
        <ele>1113.4000244140625</ele>
        <time>2022-11-13T16:50:34.000Z</time>
      </trkpt>
      <trkpt lat="37.28325742296874523162841796875" lon="-3.56282651424407958984375">
        <ele>1112.5999755859375</ele>
        <time>2022-11-13T16:50:36.000Z</time>
      </trkpt>
      <trkpt lat="37.2831921279430389404296875" lon="-3.56289700604975223541259765625">
        <ele>1111.199951171875</ele>
        <time>2022-11-13T16:50:42.000Z</time>
      </trkpt>
      <trkpt lat="37.28309934027493000030517578125" lon="-3.5629244148731231689453125">
        <ele>1110.199951171875</ele>
        <time>2022-11-13T16:50:47.000Z</time>
      </trkpt>
      <trkpt lat="37.2830715961754322052001953125" lon="-3.56293505989015102386474609375">
        <ele>1109.800048828125</ele>
        <time>2022-11-13T16:50:49.000Z</time>
      </trkpt>
      <trkpt lat="37.283008061349391937255859375" lon="-3.56294863857328891754150390625">
        <ele>1109</ele>
        <time>2022-11-13T16:50:53.000Z</time>
      </trkpt>
      <trkpt lat="37.28296791203320026397705078125" lon="-3.5629621334373950958251953125">
        <ele>1108.199951171875</ele>
        <time>2022-11-13T16:50:57.000Z</time>
      </trkpt>
      <trkpt lat="37.2829549200832843780517578125" lon="-3.56296665966510772705078125">
        <ele>1107.800048828125</ele>
        <time>2022-11-13T16:50:58.000Z</time>
      </trkpt>
      <trkpt lat="37.282881997525691986083984375" lon="-3.56300664134323596954345703125">
        <ele>1106.800048828125</ele>
        <time>2022-11-13T16:51:04.000Z</time>
      </trkpt>
      <trkpt lat="37.28285224176943302154541015625" lon="-3.56303731910884380340576171875">
        <ele>1105.800048828125</ele>
        <time>2022-11-13T16:51:07.000Z</time>
      </trkpt>
      <trkpt lat="37.28284436278045177459716796875" lon="-3.5630419291555881500244140625">
        <ele>1105.800048828125</ele>
        <time>2022-11-13T16:51:08.000Z</time>
      </trkpt>
      <trkpt lat="37.282789461314678192138671875" lon="-3.5630774684250354766845703125">
        <ele>1104.5999755859375</ele>
        <time>2022-11-13T16:51:12.000Z</time>
      </trkpt>
      <trkpt lat="37.2827480547130107879638671875" lon="-3.56311158277094364166259765625">
        <ele>1103.800048828125</ele>
        <time>2022-11-13T16:51:16.000Z</time>
      </trkpt>
      <trkpt lat="37.28273942135274410247802734375" lon="-3.56312013231217861175537109375">
        <ele>1103.5999755859375</ele>
        <time>2022-11-13T16:51:17.000Z</time>
      </trkpt>
      <trkpt lat="37.28267672471702098846435546875" lon="-3.56318752281367778778076171875">
        <ele>1102.199951171875</ele>
        <time>2022-11-13T16:51:23.000Z</time>
      </trkpt>
      <trkpt lat="37.28265275247395038604736328125" lon="-3.56320898048579692840576171875">
        <ele>1101.800048828125</ele>
        <time>2022-11-13T16:51:25.000Z</time>
      </trkpt>
      <trkpt lat="37.28262442164123058319091796875" lon="-3.5632367245852947235107421875">
        <ele>1101.199951171875</ele>
        <time>2022-11-13T16:51:28.000Z</time>
      </trkpt>
      <trkpt lat="37.28255284018814563751220703125" lon="-3.56330788694322109222412109375">
        <ele>1100</ele>
        <time>2022-11-13T16:51:34.000Z</time>
      </trkpt>
      <trkpt lat="37.28253968060016632080078125" lon="-3.5633192025125026702880859375">
        <ele>1100</ele>
        <time>2022-11-13T16:51:35.000Z</time>
      </trkpt>
      <trkpt lat="37.282450161874294281005859375" lon="-3.56335557997226715087890625">
        <ele>1099.4000244140625</ele>
        <time>2022-11-13T16:51:43.000Z</time>
      </trkpt>
      <trkpt lat="37.28239140473306179046630859375" lon="-3.5633222199976444244384765625">
        <ele>1099.4000244140625</ele>
        <time>2022-11-13T16:51:48.000Z</time>
      </trkpt>
      <trkpt lat="37.28236005641520023345947265625" lon="-3.563300259411334991455078125">
        <ele>1099.4000244140625</ele>
        <time>2022-11-13T16:51:51.000Z</time>
      </trkpt>
      <trkpt lat="37.28221890516579151153564453125" lon="-3.563270755112171173095703125">
        <ele>1099.5999755859375</ele>
        <time>2022-11-13T16:52:00.000Z</time>
      </trkpt>
      <trkpt lat="37.28214296512305736541748046875" lon="-3.5632658936083316802978515625">
        <ele>1100</ele>
        <time>2022-11-13T16:52:07.000Z</time>
      </trkpt>
      <trkpt lat="37.2821150533854961395263671875" lon="-3.56325206346809864044189453125">
        <ele>1100.5999755859375</ele>
        <time>2022-11-13T16:52:10.000Z</time>
      </trkpt>
      <trkpt lat="37.2821039892733097076416015625" lon="-3.5632420890033245086669921875">
        <ele>1100.5999755859375</ele>
        <time>2022-11-13T16:52:11.000Z</time>
      </trkpt>
      <trkpt lat="37.28208077140152454376220703125" lon="-3.56323580257594585418701171875">
        <ele>1101</ele>
        <time>2022-11-13T16:52:13.000Z</time>
      </trkpt>
      <trkpt lat="37.28206618689000606536865234375" lon="-3.56322959996759891510009765625">
        <ele>1101.199951171875</ele>
        <time>2022-11-13T16:52:15.000Z</time>
      </trkpt>
      <trkpt lat="37.282017655670642852783203125" lon="-3.56322071515023708343505859375">
        <ele>1102</ele>
        <time>2022-11-13T16:52:20.000Z</time>
      </trkpt>
      <trkpt lat="37.28200801648199558258056640625" lon="-3.563223145902156829833984375">
        <ele>1102.199951171875</ele>
        <time>2022-11-13T16:52:21.000Z</time>
      </trkpt>
      <trkpt lat="37.282000221312046051025390625" lon="-3.56322775594890117645263671875">
        <ele>1102.199951171875</ele>
        <time>2022-11-13T16:52:22.000Z</time>
      </trkpt>
      <trkpt lat="37.2819923423230648040771484375" lon="-3.56323211453855037689208984375">
        <ele>1102.4000244140625</ele>
        <time>2022-11-13T16:52:23.000Z</time>
      </trkpt>
      <trkpt lat="37.281974740326404571533203125" lon="-3.5632394067943096160888671875">
        <ele>1102.5999755859375</ele>
        <time>2022-11-13T16:52:25.000Z</time>
      </trkpt>
      <trkpt lat="37.28196459822356700897216796875" lon="-3.56324234046041965484619140625">
        <ele>1102.800048828125</ele>
        <time>2022-11-13T16:52:26.000Z</time>
      </trkpt>
      <trkpt lat="37.2819464094936847686767578125" lon="-3.56324519030749797821044921875">
        <ele>1102.800048828125</ele>
        <time>2022-11-13T16:52:28.000Z</time>
      </trkpt>
      <trkpt lat="37.28191313333809375762939453125" lon="-3.56323580257594585418701171875">
        <ele>1103</ele>
        <time>2022-11-13T16:52:31.000Z</time>
      </trkpt>
      <trkpt lat="37.28189167566597461700439453125" lon="-3.56323244981467723846435546875">
        <ele>1103</ele>
        <time>2022-11-13T16:52:33.000Z</time>
      </trkpt>
      <trkpt lat="37.28187206201255321502685546875" lon="-3.56323211453855037689208984375">
        <ele>1103</ele>
        <time>2022-11-13T16:52:35.000Z</time>
      </trkpt>
      <trkpt lat="37.28182495571672916412353515625" lon="-3.56323094107210636138916015625">
        <ele>1102.800048828125</ele>
        <time>2022-11-13T16:52:39.000Z</time>
      </trkpt>
      <trkpt lat="37.2818156518042087554931640625" lon="-3.5632259957492351531982421875">
        <ele>1102.800048828125</ele>
        <time>2022-11-13T16:52:40.000Z</time>
      </trkpt>
      <trkpt lat="37.28179402649402618408203125" lon="-3.56322222389280796051025390625">
        <ele>1102.800048828125</ele>
        <time>2022-11-13T16:52:42.000Z</time>
      </trkpt>
      <trkpt lat="37.28175706230103969573974609375" lon="-3.56321434490382671356201171875">
        <ele>1102.800048828125</ele>
        <time>2022-11-13T16:52:45.000Z</time>
      </trkpt>
      <trkpt lat="37.2817177511751651763916015625" lon="-3.5632092319428920745849609375">
        <ele>1103</ele>
        <time>2022-11-13T16:52:49.000Z</time>
      </trkpt>
      <trkpt lat="37.28165455162525177001953125" lon="-3.56320596300065517425537109375">
        <ele>1103.199951171875</ele>
        <time>2022-11-13T16:52:54.000Z</time>
      </trkpt>
      <trkpt lat="37.28163979947566986083984375" lon="-3.56320395134389400482177734375">
        <ele>1103.4000244140625</ele>
        <time>2022-11-13T16:52:55.000Z</time>
      </trkpt>
      <trkpt lat="37.281607948243618011474609375" lon="-3.56319473125040531158447265625">
        <ele>1103.5999755859375</ele>
        <time>2022-11-13T16:52:58.000Z</time>
      </trkpt>
      <trkpt lat="37.28154147975146770477294921875" lon="-3.56316271238029003143310546875">
        <ele>1104.4000244140625</ele>
        <time>2022-11-13T16:53:04.000Z</time>
      </trkpt>
      <trkpt lat="37.2815299965441226959228515625" lon="-3.56315843760967254638671875">
        <ele>1104.4000244140625</ele>
        <time>2022-11-13T16:53:05.000Z</time>
      </trkpt>
      <trkpt lat="37.28145866654813289642333984375" lon="-3.56313471682369709014892578125">
        <ele>1105.4000244140625</ele>
        <time>2022-11-13T16:53:11.000Z</time>
      </trkpt>
      <trkpt lat="37.28143452666699886322021484375" lon="-3.5631317831575870513916015625">
        <ele>1105.800048828125</ele>
        <time>2022-11-13T16:53:13.000Z</time>
      </trkpt>
      <trkpt lat="37.28140166960656642913818359375" lon="-3.56312197633087635040283203125">
        <ele>1106.5999755859375</ele>
        <time>2022-11-13T16:53:17.000Z</time>
      </trkpt>
      <trkpt lat="37.2813923656940460205078125" lon="-3.5631240718066692352294921875">
        <ele>1106.5999755859375</ele>
        <time>2022-11-13T16:53:18.000Z</time>
      </trkpt>
      <trkpt lat="37.28137183003127574920654296875" lon="-3.56314393691718578338623046875">
        <ele>1106.5999755859375</ele>
        <time>2022-11-13T16:53:20.000Z</time>
      </trkpt>
      <trkpt lat="37.28133746422827243804931640625" lon="-3.5632060468196868896484375">
        <ele>1106.5999755859375</ele>
        <time>2022-11-13T16:53:25.000Z</time>
      </trkpt>
      <trkpt lat="37.28132975287735462188720703125" lon="-3.5632565058767795562744140625">
        <ele>1106.800048828125</ele>
        <time>2022-11-13T16:53:28.000Z</time>
      </trkpt>
      <trkpt lat="37.28132723830640316009521484375" lon="-3.5632739402353763580322265625">
        <ele>1107</ele>
        <time>2022-11-13T16:53:29.000Z</time>
      </trkpt>
      <trkpt lat="37.2813127376139163970947265625" lon="-3.5633446834981441497802734375">
        <ele>1107.5999755859375</ele>
        <time>2022-11-13T16:53:34.000Z</time>
      </trkpt>
      <trkpt lat="37.28130586445331573486328125" lon="-3.56338868848979473114013671875">
        <ele>1108.199951171875</ele>
        <time>2022-11-13T16:53:37.000Z</time>
      </trkpt>
      <trkpt lat="37.28130594827234745025634765625" lon="-3.563441075384616851806640625">
        <ele>1108.5999755859375</ele>
        <time>2022-11-13T16:53:40.000Z</time>
      </trkpt>
      <trkpt lat="37.2812904417514801025390625" lon="-3.56353671289980411529541015625">
        <ele>1108.5999755859375</ele>
        <time>2022-11-13T16:53:46.000Z</time>
      </trkpt>
      <trkpt lat="37.2812694869935512542724609375" lon="-3.56357996352016925811767578125">
        <ele>1108</ele>
        <time>2022-11-13T16:53:50.000Z</time>
      </trkpt>
      <trkpt lat="37.28125649504363536834716796875" lon="-3.56359220109879970550537109375">
        <ele>1107.5999755859375</ele>
        <time>2022-11-13T16:53:52.000Z</time>
      </trkpt>
      <trkpt lat="37.2812181897461414337158203125" lon="-3.5636970587074756622314453125">
        <ele>1106.5999755859375</ele>
        <time>2022-11-13T16:53:59.000Z</time>
      </trkpt>
      <trkpt lat="37.2812041081488132476806640625" lon="-3.56373050250113010406494140625">
        <ele>1106.4000244140625</ele>
        <time>2022-11-13T16:54:01.000Z</time>
      </trkpt>
      <trkpt lat="37.2812000848352909088134765625" lon="-3.56378448195755481719970703125">
        <ele>1105.4000244140625</ele>
        <time>2022-11-13T16:54:04.000Z</time>
      </trkpt>
      <trkpt lat="37.2811789624392986297607421875" lon="-3.56386159546673297882080078125">
        <ele>1104.5999755859375</ele>
        <time>2022-11-13T16:54:09.000Z</time>
      </trkpt>
      <trkpt lat="37.281179130077362060546875" lon="-3.56387869454920291900634765625">
        <ele>1104.4000244140625</ele>
        <time>2022-11-13T16:54:10.000Z</time>
      </trkpt>
      <trkpt lat="37.28117032907903194427490234375" lon="-3.5639418102800846099853515625">
        <ele>1103.199951171875</ele>
        <time>2022-11-13T16:54:14.000Z</time>
      </trkpt>
      <trkpt lat="37.28117049671709537506103515625" lon="-3.5639624297618865966796875">
        <ele>1103</ele>
        <time>2022-11-13T16:54:15.000Z</time>
      </trkpt>
      <trkpt lat="37.2811632044613361358642578125" lon="-3.5640350170433521270751953125">
        <ele>1102.4000244140625</ele>
        <time>2022-11-13T16:54:19.000Z</time>
      </trkpt>
      <trkpt lat="37.28115457110106945037841796875" lon="-3.56410391628742218017578125">
        <ele>1102.199951171875</ele>
        <time>2022-11-13T16:54:23.000Z</time>
      </trkpt>
      <trkpt lat="37.28115876205265522003173828125" lon="-3.564178012311458587646484375">
        <ele>1101.800048828125</ele>
        <time>2022-11-13T16:54:27.000Z</time>
      </trkpt>
      <trkpt lat="37.28116814978420734405517578125" lon="-3.56425018049776554107666015625">
        <ele>1101.4000244140625</ele>
        <time>2022-11-13T16:54:31.000Z</time>
      </trkpt>
      <trkpt lat="37.28117133490741252899169921875" lon="-3.5642814449965953826904296875">
        <ele>1101</ele>
        <time>2022-11-13T16:54:33.000Z</time>
      </trkpt>
      <trkpt lat="37.281188853085041046142578125" lon="-3.5643806867301464080810546875">
        <ele>1099.800048828125</ele>
        <time>2022-11-13T16:54:39.000Z</time>
      </trkpt>
      <trkpt lat="37.28120050393044948577880859375" lon="-3.56441345997154712677001953125">
        <ele>1099.5999755859375</ele>
        <time>2022-11-13T16:54:41.000Z</time>
      </trkpt>
      <trkpt lat="37.28121257387101650238037109375" lon="-3.5644866339862346649169921875">
        <ele>1098.800048828125</ele>
        <time>2022-11-13T16:54:46.000Z</time>
      </trkpt>
      <trkpt lat="37.28121190331876277923583984375" lon="-3.56451404280960559844970703125">
        <ele>1098.5999755859375</ele>
        <time>2022-11-13T16:54:48.000Z</time>
      </trkpt>
      <trkpt lat="37.28121123276650905609130859375" lon="-3.56454807333648204803466796875">
        <ele>1098.4000244140625</ele>
        <time>2022-11-13T16:54:50.000Z</time>
      </trkpt>
      <trkpt lat="37.281204946339130401611328125" lon="-3.5646311379969120025634765625">
        <ele>1097.800048828125</ele>
        <time>2022-11-13T16:54:55.000Z</time>
      </trkpt>
      <trkpt lat="37.28120662271976470947265625" lon="-3.564647734165191650390625">
        <ele>1097.800048828125</ele>
        <time>2022-11-13T16:54:56.000Z</time>
      </trkpt>
      <trkpt lat="37.2812134958803653717041015625" lon="-3.56468285433948040008544921875">
        <ele>1097.4000244140625</ele>
        <time>2022-11-13T16:54:58.000Z</time>
      </trkpt>
      <trkpt lat="37.2812279127538204193115234375" lon="-3.56477036140859127044677734375">
        <ele>1096.5999755859375</ele>
        <time>2022-11-13T16:55:03.000Z</time>
      </trkpt>
      <trkpt lat="37.28122950531542301177978515625" lon="-3.5648162104189395904541015625">
        <ele>1096.199951171875</ele>
        <time>2022-11-13T16:55:06.000Z</time>
      </trkpt>
      <trkpt lat="37.2812309302389621734619140625" lon="-3.56484496034681797027587890625">
        <ele>1096</ele>
        <time>2022-11-13T16:55:08.000Z</time>
      </trkpt>
      <trkpt lat="37.28123101405799388885498046875" lon="-3.56487513519823551177978515625">
        <ele>1095.5999755859375</ele>
        <time>2022-11-13T16:55:10.000Z</time>
      </trkpt>
      <trkpt lat="37.28122229687869548797607421875" lon="-3.56496968306601047515869140625">
        <ele>1094.5999755859375</ele>
        <time>2022-11-13T16:55:16.000Z</time>
      </trkpt>
      <trkpt lat="37.2812265716493129730224609375" lon="-3.56503187678754329681396484375">
        <ele>1094</ele>
        <time>2022-11-13T16:55:20.000Z</time>
      </trkpt>
      <trkpt lat="37.281229756772518157958984375" lon="-3.56506205163896083831787109375">
        <ele>1093.5999755859375</ele>
        <time>2022-11-13T16:55:22.000Z</time>
      </trkpt>
      <trkpt lat="37.2812409885227680206298828125" lon="-3.5651223175227642059326171875">
        <ele>1093</ele>
        <time>2022-11-13T16:55:26.000Z</time>
      </trkpt>
      <trkpt lat="37.28124325163662433624267578125" lon="-3.5651618801057338714599609375">
        <ele>1092.199951171875</ele>
        <time>2022-11-13T16:55:29.000Z</time>
      </trkpt>
      <trkpt lat="37.28124693967401981353759765625" lon="-3.56522181071341037750244140625">
        <ele>1091.199951171875</ele>
        <time>2022-11-13T16:55:34.000Z</time>
      </trkpt>
      <trkpt lat="37.28127124719321727752685546875" lon="-3.56529573909938335418701171875">
        <ele>1090</ele>
        <time>2022-11-13T16:55:39.000Z</time>
      </trkpt>
      <trkpt lat="37.2812825627624988555908203125" lon="-3.56532826088368892669677734375">
        <ele>1089.4000244140625</ele>
        <time>2022-11-13T16:55:41.000Z</time>
      </trkpt>
      <trkpt lat="37.2812958061695098876953125" lon="-3.56537486426532268524169921875">
        <ele>1088.800048828125</ele>
        <time>2022-11-13T16:55:44.000Z</time>
      </trkpt>
      <trkpt lat="37.28130226023495197296142578125" lon="-3.565389029681682586669921875">
        <ele>1088.4000244140625</ele>
        <time>2022-11-13T16:55:45.000Z</time>
      </trkpt>
      <trkpt lat="37.2813100554049015045166015625" lon="-3.56541710905730724334716796875">
        <ele>1087.800048828125</ele>
        <time>2022-11-13T16:55:47.000Z</time>
      </trkpt>
      <trkpt lat="37.281312905251979827880859375" lon="-3.56543052010238170623779296875">
        <ele>1087.5999755859375</ele>
        <time>2022-11-13T16:55:48.000Z</time>
      </trkpt>
      <trkpt lat="37.281318940222263336181640625" lon="-3.56548969633877277374267578125">
        <ele>1086.800048828125</ele>
        <time>2022-11-13T16:55:52.000Z</time>
      </trkpt>
      <trkpt lat="37.28133176453411579132080078125" lon="-3.56553445570170879364013671875">
        <ele>1086.5999755859375</ele>
        <time>2022-11-13T16:55:55.000Z</time>
      </trkpt>
      <trkpt lat="37.2813335247337818145751953125" lon="-3.56556295417249202728271484375">
        <ele>1085.5999755859375</ele>
        <time>2022-11-13T16:55:59.000Z</time>
      </trkpt>
      <trkpt lat="37.2813278250396251678466796875" lon="-3.56556303799152374267578125">
        <ele>1085.5999755859375</ele>
        <time>2022-11-13T16:56:02.000Z</time>
      </trkpt>
      <trkpt lat="37.2813284955918788909912109375" lon="-3.565563373267650604248046875">
        <ele>1085.5999755859375</ele>
        <time>2022-11-13T16:56:03.000Z</time>
      </trkpt>
      <trkpt lat="37.28132891468703746795654296875" lon="-3.56557468883693218231201171875">
        <ele>1085.5999755859375</ele>
        <time>2022-11-13T16:56:07.000Z</time>
      </trkpt>
      <trkpt lat="37.28133670985698699951171875" lon="-3.56559748761355876922607421875">
        <ele>1085.199951171875</ele>
        <time>2022-11-13T16:56:10.000Z</time>
      </trkpt>
      <trkpt lat="37.2813613526523113250732421875" lon="-3.56564274989068508148193359375">
        <ele>1084.800048828125</ele>
        <time>2022-11-13T16:56:13.000Z</time>
      </trkpt>
      <trkpt lat="37.28136797435581684112548828125" lon="-3.565676026046276092529296875">
        <ele>1084.4000244140625</ele>
        <time>2022-11-13T16:56:15.000Z</time>
      </trkpt>
      <trkpt lat="37.28139035403728485107421875" lon="-3.565749786794185638427734375">
        <ele>1083.199951171875</ele>
        <time>2022-11-13T16:56:20.000Z</time>
      </trkpt>
      <trkpt lat="37.28142254054546356201171875" lon="-3.56584240682423114776611328125">
        <ele>1082.199951171875</ele>
        <time>2022-11-13T16:56:26.000Z</time>
      </trkpt>
      <trkpt lat="37.2814280726015567779541015625" lon="-3.56585782952606678009033203125">
        <ele>1082</ele>
        <time>2022-11-13T16:56:27.000Z</time>
      </trkpt>
      <trkpt lat="37.281481213867664337158203125" lon="-3.5659779421985149383544921875">
        <ele>1081.199951171875</ele>
        <time>2022-11-13T16:56:35.000Z</time>
      </trkpt>
      <trkpt lat="37.28149303235113620758056640625" lon="-3.5660164989531040191650390625">
        <ele>1081.199951171875</ele>
        <time>2022-11-13T16:56:37.000Z</time>
      </trkpt>
      <trkpt lat="37.28150300681591033935546875" lon="-3.56605589389801025390625">
        <ele>1080.5999755859375</ele>
        <time>2022-11-13T16:56:40.000Z</time>
      </trkpt>
      <trkpt lat="37.28150275535881519317626953125" lon="-3.56608967296779155731201171875">
        <ele>1080</ele>
        <time>2022-11-13T16:56:42.000Z</time>
      </trkpt>
      <trkpt lat="37.28150409646332263946533203125" lon="-3.56619494967162609100341796875">
        <ele>1079</ele>
        <time>2022-11-13T16:56:48.000Z</time>
      </trkpt>
      <trkpt lat="37.2814981453120708465576171875" lon="-3.56621154583990573883056640625">
        <ele>1078.800048828125</ele>
        <time>2022-11-13T16:56:49.000Z</time>
      </trkpt>
      <trkpt lat="37.28149185888469219207763671875" lon="-3.566246666014194488525390625">
        <ele>1078</ele>
        <time>2022-11-13T16:56:51.000Z</time>
      </trkpt>
      <trkpt lat="37.28149051778018474578857421875" lon="-3.566302992403507232666015625">
        <ele>1077.4000244140625</ele>
        <time>2022-11-13T16:56:54.000Z</time>
      </trkpt>
      <trkpt lat="37.2814736701548099517822265625" lon="-3.5663541220128536224365234375">
        <ele>1077</ele>
        <time>2022-11-13T16:56:57.000Z</time>
      </trkpt>
      <trkpt lat="37.2814679704606533050537109375" lon="-3.5663722269237041473388671875">
        <ele>1076.800048828125</ele>
        <time>2022-11-13T16:56:58.000Z</time>
      </trkpt>
      <trkpt lat="37.2814616002142429351806640625" lon="-3.5663898289203643798828125">
        <ele>1076.5999755859375</ele>
        <time>2022-11-13T16:56:59.000Z</time>
      </trkpt>
      <trkpt lat="37.28140384890139102935791015625" lon="-3.56649703346192836761474609375">
        <ele>1075.800048828125</ele>
        <time>2022-11-13T16:57:06.000Z</time>
      </trkpt>
      <trkpt lat="37.281399406492710113525390625" lon="-3.56651044450700283050537109375">
        <ele>1075.5999755859375</ele>
        <time>2022-11-13T16:57:07.000Z</time>
      </trkpt>
      <trkpt lat="37.281305529177188873291015625" lon="-3.56664388440549373626708984375">
        <ele>1075.5999755859375</ele>
        <time>2022-11-13T16:57:17.000Z</time>
      </trkpt>
      <trkpt lat="37.2812051139771938323974609375" lon="-3.5667277872562408447265625">
        <ele>1074.800048828125</ele>
        <time>2022-11-13T16:57:26.000Z</time>
      </trkpt>
      <trkpt lat="37.2811967320740222930908203125" lon="-3.56673306785523891448974609375">
        <ele>1074.800048828125</ele>
        <time>2022-11-13T16:57:27.000Z</time>
      </trkpt>
      <trkpt lat="37.28113428689539432525634765625" lon="-3.5668067447841167449951171875">
        <ele>1074.199951171875</ele>
        <time>2022-11-13T16:57:34.000Z</time>
      </trkpt>
      <trkpt lat="37.281078882515430450439453125" lon="-3.5668697766959667205810546875">
        <ele>1073.5999755859375</ele>
        <time>2022-11-13T16:57:39.000Z</time>
      </trkpt>
      <trkpt lat="37.28099715895950794219970703125" lon="-3.56693222187459468841552734375">
        <ele>1073.199951171875</ele>
        <time>2022-11-13T16:57:46.000Z</time>
      </trkpt>
      <trkpt lat="37.28095005266368389129638671875" lon="-3.56700564734637737274169921875">
        <ele>1072.5999755859375</ele>
        <time>2022-11-13T16:57:52.000Z</time>
      </trkpt>
      <trkpt lat="37.28093747980892658233642578125" lon="-3.56705325655639171600341796875">
        <ele>1072.199951171875</ele>
        <time>2022-11-13T16:57:55.000Z</time>
      </trkpt>
      <trkpt lat="37.28094854392111301422119140625" lon="-3.56713456101715564727783203125">
        <ele>1071.5999755859375</ele>
        <time>2022-11-13T16:58:00.000Z</time>
      </trkpt>
      <trkpt lat="37.28096949867904186248779296875" lon="-3.56717999093234539031982421875">
        <ele>1071.199951171875</ele>
        <time>2022-11-13T16:58:03.000Z</time>
      </trkpt>
      <trkpt lat="37.28098802268505096435546875" lon="-3.56724754907190799713134765625">
        <ele>1070.199951171875</ele>
        <time>2022-11-13T16:58:07.000Z</time>
      </trkpt>
      <trkpt lat="37.2809953987598419189453125" lon="-3.56729867868125438690185546875">
        <ele>1069.5999755859375</ele>
        <time>2022-11-13T16:58:10.000Z</time>
      </trkpt>
      <trkpt lat="37.2809915430843830108642578125" lon="-3.567329607903957366943359375">
        <ele>1069</ele>
        <time>2022-11-13T16:58:12.000Z</time>
      </trkpt>
      <trkpt lat="37.2809734381735324859619140625" lon="-3.56739188544452190399169921875">
        <ele>1067.800048828125</ele>
        <time>2022-11-13T16:58:16.000Z</time>
      </trkpt>
      <trkpt lat="37.2809565067291259765625" lon="-3.5674192942678928375244140625">
        <ele>1067.4000244140625</ele>
        <time>2022-11-13T16:58:18.000Z</time>
      </trkpt>
      <trkpt lat="37.28093546815216541290283203125" lon="-3.56744653545320034027099609375">
        <ele>1066.5999755859375</ele>
        <time>2022-11-13T16:58:20.000Z</time>
      </trkpt>
      <trkpt lat="37.28086304850876331329345703125" lon="-3.56751610524952411651611328125">
        <ele>1066.199951171875</ele>
        <time>2022-11-13T16:58:26.000Z</time>
      </trkpt>
      <trkpt lat="37.2807538323104381561279296875" lon="-3.56763026677072048187255859375">
        <ele>1065.800048828125</ele>
        <time>2022-11-13T16:58:36.000Z</time>
      </trkpt>
      <trkpt lat="37.2807122580707073211669921875" lon="-3.567680306732654571533203125">
        <ele>1065.5999755859375</ele>
        <time>2022-11-13T16:58:41.000Z</time>
      </trkpt>
      <trkpt lat="37.28068753145635128021240234375" lon="-3.5677026025950908660888671875">
        <ele>1065.4000244140625</ele>
        <time>2022-11-13T16:58:43.000Z</time>
      </trkpt>
      <trkpt lat="37.28067713789641857147216796875" lon="-3.56771525926887989044189453125">
        <ele>1065.199951171875</ele>
        <time>2022-11-13T16:58:44.000Z</time>
      </trkpt>
      <trkpt lat="37.28060840629041194915771484375" lon="-3.5677766986191272735595703125">
        <ele>1064.5999755859375</ele>
        <time>2022-11-13T16:58:50.000Z</time>
      </trkpt>
      <trkpt lat="37.28051687590777873992919921875" lon="-3.5678923688828945159912109375">
        <ele>1064</ele>
        <time>2022-11-13T16:58:59.000Z</time>
      </trkpt>
      <trkpt lat="37.2804953344166278839111328125" lon="-3.567919023334980010986328125">
        <ele>1063.800048828125</ele>
        <time>2022-11-13T16:59:01.000Z</time>
      </trkpt>
      <trkpt lat="37.280468679964542388916015625" lon="-3.56796118430793285369873046875">
        <ele>1063.5999755859375</ele>
        <time>2022-11-13T16:59:04.000Z</time>
      </trkpt>
      <trkpt lat="37.28034990839660167694091796875" lon="-3.56806285679340362548828125">
        <ele>1063</ele>
        <time>2022-11-13T16:59:14.000Z</time>
      </trkpt>
      <trkpt lat="37.2803032211959362030029296875" lon="-3.56811574660241603851318359375">
        <ele>1062.4000244140625</ele>
        <time>2022-11-13T16:59:19.000Z</time>
      </trkpt>
      <trkpt lat="37.280280254781246185302734375" lon="-3.568130917847156524658203125">
        <ele>1062.199951171875</ele>
        <time>2022-11-13T16:59:21.000Z</time>
      </trkpt>
      <trkpt lat="37.28023759089410305023193359375" lon="-3.56816000305116176605224609375">
        <ele>1061.4000244140625</ele>
        <time>2022-11-13T16:59:25.000Z</time>
      </trkpt>
      <trkpt lat="37.280160896480083465576171875" lon="-3.56823795475065708160400390625">
        <ele>1060.800048828125</ele>
        <time>2022-11-13T16:59:32.000Z</time>
      </trkpt>
      <trkpt lat="37.28006995283067226409912109375" lon="-3.568351529538631439208984375">
        <ele>1060.199951171875</ele>
        <time>2022-11-13T16:59:41.000Z</time>
      </trkpt>
      <trkpt lat="37.28005771525204181671142578125" lon="-3.56836535967886447906494140625">
        <ele>1060</ele>
        <time>2022-11-13T16:59:42.000Z</time>
      </trkpt>
      <trkpt lat="37.28004732169210910797119140625" lon="-3.56837860308587551116943359375">
        <ele>1060</ele>
        <time>2022-11-13T16:59:43.000Z</time>
      </trkpt>
      <trkpt lat="37.279982529580593109130859375" lon="-3.5684834606945514678955078125">
        <ele>1059.4000244140625</ele>
        <time>2022-11-13T16:59:51.000Z</time>
      </trkpt>
      <trkpt lat="37.279971800744533538818359375" lon="-3.5684958659112453460693359375">
        <ele>1059.199951171875</ele>
        <time>2022-11-13T16:59:52.000Z</time>
      </trkpt>
      <trkpt lat="37.27987130172550678253173828125" lon="-3.56863550841808319091796875">
        <ele>1058.800048828125</ele>
        <time>2022-11-13T17:00:02.000Z</time>
      </trkpt>
      <trkpt lat="37.2797624208033084869384765625" lon="-3.56872393749654293060302734375">
        <ele>1059</ele>
        <time>2022-11-13T17:00:11.000Z</time>
      </trkpt>
      <trkpt lat="37.279651947319507598876953125" lon="-3.5688145458698272705078125">
        <ele>1059</ele>
        <time>2022-11-13T17:00:20.000Z</time>
      </trkpt>
      <trkpt lat="37.27953786961734294891357421875" lon="-3.56891940347850322723388671875">
        <ele>1059.199951171875</ele>
        <time>2022-11-13T17:00:30.000Z</time>
      </trkpt>
      <trkpt lat="37.2794573195278644561767578125" lon="-3.56902970932424068450927734375">
        <ele>1060</ele>
        <time>2022-11-13T17:00:39.000Z</time>
      </trkpt>
      <trkpt lat="37.27944902144372463226318359375" lon="-3.5690398514270782470703125">
        <ele>1060</ele>
        <time>2022-11-13T17:00:40.000Z</time>
      </trkpt>
      <trkpt lat="37.2794211097061634063720703125" lon="-3.56907731853425502777099609375">
        <ele>1060.4000244140625</ele>
        <time>2022-11-13T17:00:43.000Z</time>
      </trkpt>
      <trkpt lat="37.27938062511384487152099609375" lon="-3.5691137798130512237548828125">
        <ele>1061</ele>
        <time>2022-11-13T17:00:47.000Z</time>
      </trkpt>
      <trkpt lat="37.2793711535632610321044921875" lon="-3.56912174262106418609619140625">
        <ele>1061</ele>
        <time>2022-11-13T17:00:48.000Z</time>
      </trkpt>
      <trkpt lat="37.2793439961969852447509765625" lon="-3.5691406019032001495361328125">
        <ele>1061.199951171875</ele>
        <time>2022-11-13T17:00:50.000Z</time>
      </trkpt>
      <trkpt lat="37.27933133952319622039794921875" lon="-3.569148816168308258056640625">
        <ele>1061.199951171875</ele>
        <time>2022-11-13T17:00:51.000Z</time>
      </trkpt>
      <trkpt lat="37.2792266495525836944580078125" lon="-3.56920002959668636322021484375">
        <ele>1060.800048828125</ele>
        <time>2022-11-13T17:00:59.000Z</time>
      </trkpt>
      <trkpt lat="37.2791776992380619049072265625" lon="-3.5692116804420948028564453125">
        <ele>1060</ele>
        <time>2022-11-13T17:01:03.000Z</time>
      </trkpt>
      <trkpt lat="37.2791471891105175018310546875" lon="-3.56922115199267864227294921875">
        <ele>1059.5999755859375</ele>
        <time>2022-11-13T17:01:05.000Z</time>
      </trkpt>
      <trkpt lat="37.279105447232723236083984375" lon="-3.569242022931575775146484375">
        <ele>1059.199951171875</ele>
        <time>2022-11-13T17:01:08.000Z</time>
      </trkpt>
      <trkpt lat="37.2790080495178699493408203125" lon="-3.5692834295332431793212890625">
        <ele>1058.5999755859375</ele>
        <time>2022-11-13T17:01:16.000Z</time>
      </trkpt>
      <trkpt lat="37.2789222188293933868408203125" lon="-3.56932357884943485260009765625">
        <ele>1058.199951171875</ele>
        <time>2022-11-13T17:01:23.000Z</time>
      </trkpt>
      <trkpt lat="37.27886983193457126617431640625" lon="-3.569352328777313232421875">
        <ele>1057.800048828125</ele>
        <time>2022-11-13T17:01:27.000Z</time>
      </trkpt>
      <trkpt lat="37.2787803970277309417724609375" lon="-3.569407649338245391845703125">
        <ele>1057.199951171875</ele>
        <time>2022-11-13T17:01:36.000Z</time>
      </trkpt>
      <trkpt lat="37.27874167263507843017578125" lon="-3.56944209896028041839599609375">
        <ele>1057</ele>
        <time>2022-11-13T17:01:39.000Z</time>
      </trkpt>
      <trkpt lat="37.2786764614284038543701171875" lon="-3.56949624605476856231689453125">
        <ele>1056</ele>
        <time>2022-11-13T17:01:44.000Z</time>
      </trkpt>
      <trkpt lat="37.278664894402027130126953125" lon="-3.56950747780501842498779296875">
        <ele>1056</ele>
        <time>2022-11-13T17:01:45.000Z</time>
      </trkpt>
      <trkpt lat="37.2786539979279041290283203125" lon="-3.56951921246945858001708984375">
        <ele>1055.800048828125</ele>
        <time>2022-11-13T17:01:46.000Z</time>
      </trkpt>
      <trkpt lat="37.2786449454724788665771484375" lon="-3.56952960602939128875732421875">
        <ele>1055.4000244140625</ele>
        <time>2022-11-13T17:01:47.000Z</time>
      </trkpt>
      <trkpt lat="37.2786194644868373870849609375" lon="-3.56956221163272857666015625">
        <ele>1054.800048828125</ele>
        <time>2022-11-13T17:01:50.000Z</time>
      </trkpt>
      <trkpt lat="37.27858132682740688323974609375" lon="-3.56960755772888660430908203125">
        <ele>1054</ele>
        <time>2022-11-13T17:01:54.000Z</time>
      </trkpt>
      <trkpt lat="37.27857411839067935943603515625" lon="-3.5696187056601047515869140625">
        <ele>1053.800048828125</ele>
        <time>2022-11-13T17:01:55.000Z</time>
      </trkpt>
      <trkpt lat="37.2785567678511142730712890625" lon="-3.56964142061769962310791015625">
        <ele>1053.5999755859375</ele>
        <time>2022-11-13T17:01:57.000Z</time>
      </trkpt>
      <trkpt lat="37.27852500043809413909912109375" lon="-3.5697122476994991302490234375">
        <ele>1052.5999755859375</ele>
        <time>2022-11-13T17:02:02.000Z</time>
      </trkpt>
      <trkpt lat="37.27847018279135227203369140625" lon="-3.56979900039732456207275390625">
        <ele>1051.800048828125</ele>
        <time>2022-11-13T17:02:09.000Z</time>
      </trkpt>
      <trkpt lat="37.27846406400203704833984375" lon="-3.56981140561401844024658203125">
        <ele>1051.5999755859375</ele>
        <time>2022-11-13T17:02:10.000Z</time>
      </trkpt>
      <trkpt lat="37.27842248976230621337890625" lon="-3.56987292878329753875732421875">
        <ele>1050.4000244140625</ele>
        <time>2022-11-13T17:02:16.000Z</time>
      </trkpt>
      <trkpt lat="37.2784209810197353363037109375" lon="-3.56988281942903995513916015625">
        <ele>1050.199951171875</ele>
        <time>2022-11-13T17:02:17.000Z</time>
      </trkpt>
      <trkpt lat="37.2784250043332576751708984375" lon="-3.56990930624306201934814453125">
        <ele>1049.800048828125</ele>
        <time>2022-11-13T17:02:19.000Z</time>
      </trkpt>
      <trkpt lat="37.2784431092441082000732421875" lon="-3.56993948109447956085205078125">
        <ele>1049.4000244140625</ele>
        <time>2022-11-13T17:02:21.000Z</time>
      </trkpt>
      <trkpt lat="37.27850991301238536834716796875" lon="-3.5699893534183502197265625">
        <ele>1048.800048828125</ele>
        <time>2022-11-13T17:02:26.000Z</time>
      </trkpt>
      <trkpt lat="37.27854377590119838714599609375" lon="-3.57000410556793212890625">
        <ele>1048.5999755859375</ele>
        <time>2022-11-13T17:02:29.000Z</time>
      </trkpt>
      <trkpt lat="37.27856238372623920440673828125" lon="-3.5700103081762790679931640625">
        <ele>1048.4000244140625</ele>
        <time>2022-11-13T17:02:31.000Z</time>
      </trkpt>
      <trkpt lat="37.27858878672122955322265625" lon="-3.5700160078704357147216796875">
        <ele>1048</ele>
        <time>2022-11-13T17:02:34.000Z</time>
      </trkpt>
      <trkpt lat="37.27860596962273120880126953125" lon="-3.57002556324005126953125">
        <ele>1047.800048828125</ele>
        <time>2022-11-13T17:02:36.000Z</time>
      </trkpt>
      <trkpt lat="37.278651483356952667236328125" lon="-3.57002765871584415435791015625">
        <ele>1047.199951171875</ele>
        <time>2022-11-13T17:02:40.000Z</time>
      </trkpt>
      <trkpt lat="37.27868308313190937042236328125" lon="-3.57003821991384029388427734375">
        <ele>1047</ele>
        <time>2022-11-13T17:02:43.000Z</time>
      </trkpt>
      <trkpt lat="37.27870202623307704925537109375" lon="-3.57003629207611083984375">
        <ele>1046.5999755859375</ele>
        <time>2022-11-13T17:02:47.000Z</time>
      </trkpt>
      <trkpt lat="37.27871962822973728179931640625" lon="-3.57003905810415744781494140625">
        <ele>1046.4000244140625</ele>
        <time>2022-11-13T17:02:49.000Z</time>
      </trkpt>
      <trkpt lat="37.27873169817030429840087890625" lon="-3.5700411535799503326416015625">
        <ele>1046.4000244140625</ele>
        <time>2022-11-13T17:02:50.000Z</time>
      </trkpt>
      <trkpt lat="37.2787646390497684478759765625" lon="-3.57004098594188690185546875">
        <ele>1046.199951171875</ele>
        <time>2022-11-13T17:02:53.000Z</time>
      </trkpt>
      <trkpt lat="37.2787753678858280181884765625" lon="-3.57003570534288883209228515625">
        <ele>1046.199951171875</ele>
        <time>2022-11-13T17:02:54.000Z</time>
      </trkpt>
      <trkpt lat="37.27882524020969867706298828125" lon="-3.57000603340566158294677734375">
        <ele>1045.4000244140625</ele>
        <time>2022-11-13T17:03:00.000Z</time>
      </trkpt>
      <trkpt lat="37.2788447700440883636474609375" lon="-3.56999631039798259735107421875">
        <ele>1045.199951171875</ele>
        <time>2022-11-13T17:03:02.000Z</time>
      </trkpt>
      <trkpt lat="37.278871424496173858642578125" lon="-3.56998465955257415771484375">
        <ele>1045</ele>
        <time>2022-11-13T17:03:05.000Z</time>
      </trkpt>
      <trkpt lat="37.27890662848949432373046875" lon="-3.56997401453554630279541015625">
        <ele>1044.4000244140625</ele>
        <time>2022-11-13T17:03:08.000Z</time>
      </trkpt>
      <trkpt lat="37.27893118746578693389892578125" lon="-3.5699657164514064788818359375">
        <ele>1044</ele>
        <time>2022-11-13T17:03:10.000Z</time>
      </trkpt>
      <trkpt lat="37.2789647988975048065185546875" lon="-3.569958843290805816650390625">
        <ele>1043.4000244140625</ele>
        <time>2022-11-13T17:03:13.000Z</time>
      </trkpt>
      <trkpt lat="37.27897510863840579986572265625" lon="-3.5699546523392200469970703125">
        <ele>1043.4000244140625</ele>
        <time>2022-11-13T17:03:14.000Z</time>
      </trkpt>
      <trkpt lat="37.2790117375552654266357421875" lon="-3.56993763707578182220458984375">
        <ele>1043</ele>
        <time>2022-11-13T17:03:18.000Z</time>
      </trkpt>
      <trkpt lat="37.2790352068841457366943359375" lon="-3.5699285008013248443603515625">
        <ele>1042.4000244140625</ele>
        <time>2022-11-13T17:03:20.000Z</time>
      </trkpt>
      <trkpt lat="37.279047109186649322509765625" lon="-3.5699174366891384124755859375">
        <ele>1042</ele>
        <time>2022-11-13T17:03:21.000Z</time>
      </trkpt>
      <trkpt lat="37.27905808947980403900146484375" lon="-3.56991433538496494293212890625">
        <ele>1042</ele>
        <time>2022-11-13T17:03:22.000Z</time>
      </trkpt>
      <trkpt lat="37.27908357046544551849365234375" lon="-3.56990327127277851104736328125">
        <ele>1041.5999755859375</ele>
        <time>2022-11-13T17:03:25.000Z</time>
      </trkpt>
      <trkpt lat="37.27909631095826625823974609375" lon="-3.56989773921668529510498046875">
        <ele>1041.199951171875</ele>
        <time>2022-11-13T17:03:28.000Z</time>
      </trkpt>
      <trkpt lat="37.2791086323559284210205078125" lon="-3.56990151107311248779296875">
        <ele>1041</ele>
        <time>2022-11-13T17:03:29.000Z</time>
      </trkpt>
      <trkpt lat="37.27912648580968379974365234375" lon="-3.569904863834381103515625">
        <ele>1041</ele>
        <time>2022-11-13T17:03:30.000Z</time>
      </trkpt>
      <trkpt lat="37.27914039976894855499267578125" lon="-3.56990176253020763397216796875">
        <ele>1040.800048828125</ele>
        <time>2022-11-13T17:03:31.000Z</time>
      </trkpt>
      <trkpt lat="37.27918557822704315185546875" lon="-3.5698909498751163482666015625">
        <ele>1040</ele>
        <time>2022-11-13T17:03:36.000Z</time>
      </trkpt>
      <trkpt lat="37.2791961394250392913818359375" lon="-3.56989120133221149444580078125">
        <ele>1039.800048828125</ele>
        <time>2022-11-13T17:03:37.000Z</time>
      </trkpt>
      <trkpt lat="37.279231846332550048828125" lon="-3.56990628875792026519775390625">
        <ele>1039.199951171875</ele>
        <time>2022-11-13T17:03:41.000Z</time>
      </trkpt>
      <trkpt lat="37.27924014441668987274169921875" lon="-3.569915592670440673828125">
        <ele>1039.199951171875</ele>
        <time>2022-11-13T17:03:42.000Z</time>
      </trkpt>
      <trkpt lat="37.279269732534885406494140625" lon="-3.56997703202068805694580078125">
        <ele>1038.5999755859375</ele>
        <time>2022-11-13T17:03:45.000Z</time>
      </trkpt>
      <trkpt lat="37.2792776115238666534423828125" lon="-3.57001877389848232269287109375">
        <ele>1038.199951171875</ele>
        <time>2022-11-13T17:03:47.000Z</time>
      </trkpt>
      <trkpt lat="37.2792742587625980377197265625" lon="-3.5700294189155101776123046875">
        <ele>1038</ele>
        <time>2022-11-13T17:03:48.000Z</time>
      </trkpt>
      <trkpt lat="37.27926981635391712188720703125" lon="-3.5700592584908008575439453125">
        <ele>1037.4000244140625</ele>
        <time>2022-11-13T17:03:51.000Z</time>
      </trkpt>
      <trkpt lat="37.2792709060013294219970703125" lon="-3.57007644139230251312255859375">
        <ele>1037</ele>
        <time>2022-11-13T17:03:52.000Z</time>
      </trkpt>
      <trkpt lat="37.2792702354490756988525390625" lon="-3.57008934952318668365478515625">
        <ele>1036.800048828125</ele>
        <time>2022-11-13T17:03:53.000Z</time>
      </trkpt>
      <trkpt lat="37.27926068007946014404296875" lon="-3.57011139392852783203125">
        <ele>1036.4000244140625</ele>
        <time>2022-11-13T17:03:55.000Z</time>
      </trkpt>
      <trkpt lat="37.27922572754323482513427734375" lon="-3.57014584355056285858154296875">
        <ele>1035.800048828125</ele>
        <time>2022-11-13T17:03:59.000Z</time>
      </trkpt>
      <trkpt lat="37.2792041860520839691162109375" lon="-3.5701427422463893890380859375">
        <ele>1035.5999755859375</ele>
        <time>2022-11-13T17:04:01.000Z</time>
      </trkpt>
      <trkpt lat="37.27918314747512340545654296875" lon="-3.5701407305896282196044921875">
        <ele>1035.5999755859375</ele>
        <time>2022-11-13T17:04:03.000Z</time>
      </trkpt>
      <trkpt lat="37.2791607677936553955078125" lon="-3.57012673281133174896240234375">
        <ele>1035.4000244140625</ele>
        <time>2022-11-13T17:04:05.000Z</time>
      </trkpt>
      <trkpt lat="37.27914911694824695587158203125" lon="-3.5701259784400463104248046875">
        <ele>1035.4000244140625</ele>
        <time>2022-11-13T17:04:06.000Z</time>
      </trkpt>
      <trkpt lat="37.27912388741970062255859375" lon="-3.57013620436191558837890625">
        <ele>1035.4000244140625</ele>
        <time>2022-11-13T17:04:08.000Z</time>
      </trkpt>
      <trkpt lat="37.27909228764474391937255859375" lon="-3.57015036977827548980712890625">
        <ele>1035.4000244140625</ele>
        <time>2022-11-13T17:04:10.000Z</time>
      </trkpt>
      <trkpt lat="37.27906378917396068572998046875" lon="-3.5701652057468891143798828125">
        <ele>1035.4000244140625</ele>
        <time>2022-11-13T17:04:12.000Z</time>
      </trkpt>
      <trkpt lat="37.27899505756795406341552734375" lon="-3.57018792070448398590087890625">
        <ele>1035.199951171875</ele>
        <time>2022-11-13T17:04:19.000Z</time>
      </trkpt>
      <trkpt lat="37.2789725102484226226806640625" lon="-3.57019060291349887847900390625">
        <ele>1035.199951171875</ele>
        <time>2022-11-13T17:04:21.000Z</time>
      </trkpt>
      <trkpt lat="37.278925739228725433349609375" lon="-3.5702124796807765960693359375">
        <ele>1035.199951171875</ele>
        <time>2022-11-13T17:04:26.000Z</time>
      </trkpt>
      <trkpt lat="37.27878970094025135040283203125" lon="-3.5702738352119922637939453125">
        <ele>1035.199951171875</ele>
        <time>2022-11-13T17:04:38.000Z</time>
      </trkpt>
      <trkpt lat="37.27872063405811786651611328125" lon="-3.5703060217201709747314453125">
        <ele>1035</ele>
        <time>2022-11-13T17:04:45.000Z</time>
      </trkpt>
      <trkpt lat="37.2787128388881683349609375" lon="-3.57031281106173992156982421875">
        <ele>1034.800048828125</ele>
        <time>2022-11-13T17:04:46.000Z</time>
      </trkpt>
      <trkpt lat="37.27868610061705112457275390625" lon="-3.57033879496157169342041015625">
        <ele>1034.800048828125</ele>
        <time>2022-11-13T17:04:49.000Z</time>
      </trkpt>
      <trkpt lat="37.2786761261522769927978515625" lon="-3.5703646950423717498779296875">
        <ele>1034.800048828125</ele>
        <time>2022-11-13T17:04:52.000Z</time>
      </trkpt>
      <trkpt lat="37.27867553941905498504638671875" lon="-3.57037181966006755828857421875">
        <ele>1034.5999755859375</ele>
        <time>2022-11-13T17:04:55.000Z</time>
      </trkpt>
      <trkpt lat="37.27866665460169315338134765625" lon="-3.570379279553890228271484375">
        <ele>1034.4000244140625</ele>
        <time>2022-11-13T17:04:57.000Z</time>
      </trkpt>
      <trkpt lat="37.2786228172481060028076171875" lon="-3.57040040194988250732421875">
        <ele>1034.4000244140625</ele>
        <time>2022-11-13T17:05:01.000Z</time>
      </trkpt>
      <trkpt lat="37.27859356440603733062744140625" lon="-3.57042194344103336334228515625">
        <ele>1034.4000244140625</ele>
        <time>2022-11-13T17:05:03.000Z</time>
      </trkpt>
      <trkpt lat="37.27856406010687351226806640625" lon="-3.570435941219329833984375">
        <ele>1034.4000244140625</ele>
        <time>2022-11-13T17:05:06.000Z</time>
      </trkpt>
      <trkpt lat="37.278513349592685699462890625" lon="-3.57044977135956287384033203125">
        <ele>1034</ele>
        <time>2022-11-13T17:05:11.000Z</time>
      </trkpt>
      <trkpt lat="37.27843715809285640716552734375" lon="-3.57048866339027881622314453125">
        <ele>1033.199951171875</ele>
        <time>2022-11-13T17:05:18.000Z</time>
      </trkpt>
      <trkpt lat="37.2784307040274143218994140625" lon="-3.57049553655087947845458984375">
        <ele>1033.199951171875</ele>
        <time>2022-11-13T17:05:19.000Z</time>
      </trkpt>
      <trkpt lat="37.2783529199659824371337890625" lon="-3.570566363632678985595703125">
        <ele>1032.4000244140625</ele>
        <time>2022-11-13T17:05:26.000Z</time>
      </trkpt>
      <trkpt lat="37.27833825163543224334716796875" lon="-3.570572398602962493896484375">
        <ele>1032.199951171875</ele>
        <time>2022-11-13T17:05:27.000Z</time>
      </trkpt>
      <trkpt lat="37.27831184864044189453125" lon="-3.57057684101164340972900390625">
        <ele>1031.800048828125</ele>
        <time>2022-11-13T17:05:29.000Z</time>
      </trkpt>
      <trkpt lat="37.27825577370822429656982421875" lon="-3.570597209036350250244140625">
        <ele>1031.4000244140625</ele>
        <time>2022-11-13T17:05:33.000Z</time>
      </trkpt>
      <trkpt lat="37.2782380878925323486328125" lon="-3.57062126509845256805419921875">
        <ele>1031.4000244140625</ele>
        <time>2022-11-13T17:05:35.000Z</time>
      </trkpt>
      <trkpt lat="37.27823331020772457122802734375" lon="-3.57065462507307529449462890625">
        <ele>1031.4000244140625</ele>
        <time>2022-11-13T17:05:37.000Z</time>
      </trkpt>
      <trkpt lat="37.278221659362316131591796875" lon="-3.5706838779151439666748046875">
        <ele>1030.800048828125</ele>
        <time>2022-11-13T17:05:39.000Z</time>
      </trkpt>
      <trkpt lat="37.27821461856365203857421875" lon="-3.57069217599928379058837890625">
        <ele>1030.800048828125</ele>
        <time>2022-11-13T17:05:40.000Z</time>
      </trkpt>
      <trkpt lat="37.2782117687165737152099609375" lon="-3.5707039944827556610107421875">
        <ele>1030.5999755859375</ele>
        <time>2022-11-13T17:05:41.000Z</time>
      </trkpt>
      <trkpt lat="37.2782013751566410064697265625" lon="-3.57072385959327220916748046875">
        <ele>1030.4000244140625</ele>
        <time>2022-11-13T17:05:43.000Z</time>
      </trkpt>
      <trkpt lat="37.2781792469322681427001953125" lon="-3.57073810882866382598876953125">
        <ele>1029.5999755859375</ele>
        <time>2022-11-13T17:05:45.000Z</time>
      </trkpt>
      <trkpt lat="37.2781705297529697418212890625" lon="-3.57074934057891368865966796875">
        <ele>1029.4000244140625</ele>
        <time>2022-11-13T17:05:46.000Z</time>
      </trkpt>
      <trkpt lat="37.2781468927860260009765625" lon="-3.570786304771900177001953125">
        <ele>1029</ele>
        <time>2022-11-13T17:05:50.000Z</time>
      </trkpt>
      <trkpt lat="37.27811395190656185150146484375" lon="-3.5708049125969409942626953125">
        <ele>1028.5999755859375</ele>
        <time>2022-11-13T17:05:53.000Z</time>
      </trkpt>
      <trkpt lat="37.2781034745275974273681640625" lon="-3.5708156414330005645751953125">
        <ele>1028.4000244140625</ele>
        <time>2022-11-13T17:05:54.000Z</time>
      </trkpt>
      <trkpt lat="37.278041951358318328857421875" lon="-3.5708434693515300750732421875">
        <ele>1027.5999755859375</ele>
        <time>2022-11-13T17:05:59.000Z</time>
      </trkpt>
      <trkpt lat="37.27802426554262638092041015625" lon="-3.5708364285528659820556640625">
        <ele>1027.199951171875</ele>
        <time>2022-11-13T17:06:00.000Z</time>
      </trkpt>
      <trkpt lat="37.27792066521942615509033203125" lon="-3.5708471573889255523681640625">
        <ele>1026.4000244140625</ele>
        <time>2022-11-13T17:06:06.000Z</time>
      </trkpt>
      <trkpt lat="37.27788738906383514404296875" lon="-3.57084841467440128326416015625">
        <ele>1026.199951171875</ele>
        <time>2022-11-13T17:06:08.000Z</time>
      </trkpt>
      <trkpt lat="37.27780683897435665130615234375" lon="-3.570843301713466644287109375">
        <ele>1025</ele>
        <time>2022-11-13T17:06:14.000Z</time>
      </trkpt>
      <trkpt lat="37.2777997143566608428955078125" lon="-3.57083760201930999755859375">
        <ele>1024.800048828125</ele>
        <time>2022-11-13T17:06:16.000Z</time>
      </trkpt>
      <trkpt lat="37.2778044082224369049072265625" lon="-3.57083223760128021240234375">
        <ele>1024.800048828125</ele>
        <time>2022-11-13T17:06:18.000Z</time>
      </trkpt>
      <trkpt lat="37.27780264802277088165283203125" lon="-3.57082896865904331207275390625">
        <ele>1024.800048828125</ele>
        <time>2022-11-13T17:06:19.000Z</time>
      </trkpt>
      <trkpt lat="37.27776979096233844757080078125" lon="-3.57081974856555461883544921875">
        <ele>1024.5999755859375</ele>
        <time>2022-11-13T17:06:22.000Z</time>
      </trkpt>
      <trkpt lat="37.277759648859500885009765625" lon="-3.57081438414752483367919921875">
        <ele>1024.4000244140625</ele>
        <time>2022-11-13T17:06:23.000Z</time>
      </trkpt>
      <trkpt lat="37.2777391970157623291015625" lon="-3.57079678215086460113525390625">
        <ele>1024.4000244140625</ele>
        <time>2022-11-13T17:06:25.000Z</time>
      </trkpt>
      <trkpt lat="37.2777175717055797576904296875" lon="-3.57078169472515583038330078125">
        <ele>1024</ele>
        <time>2022-11-13T17:06:27.000Z</time>
      </trkpt>
      <trkpt lat="37.2776428051292896270751953125" lon="-3.57075856067240238189697265625">
        <ele>1022.5999755859375</ele>
        <time>2022-11-13T17:06:33.000Z</time>
      </trkpt>
      <trkpt lat="37.277611792087554931640625" lon="-3.57074372470378875732421875">
        <ele>1022</ele>
        <time>2022-11-13T17:06:36.000Z</time>
      </trkpt>
      <trkpt lat="37.27758924476802349090576171875" lon="-3.5707314871251583099365234375">
        <ele>1021.5999755859375</ele>
        <time>2022-11-13T17:06:38.000Z</time>
      </trkpt>
      <trkpt lat="37.27749645709991455078125" lon="-3.57069334946572780609130859375">
        <ele>1020.4000244140625</ele>
        <time>2022-11-13T17:06:45.000Z</time>
      </trkpt>
      <trkpt lat="37.2773985564708709716796875" lon="-3.57066468335688114166259765625">
        <ele>1019.4000244140625</ele>
        <time>2022-11-13T17:06:51.000Z</time>
      </trkpt>
      <trkpt lat="37.27738640271127223968505859375" lon="-3.57065831311047077178955078125">
        <ele>1018.79998779296875</ele>
        <time>2022-11-13T17:06:52.000Z</time>
      </trkpt>
      <trkpt lat="37.27736008353531360626220703125" lon="-3.5706396214663982391357421875">
        <ele>1018.4000244140625</ele>
        <time>2022-11-13T17:06:54.000Z</time>
      </trkpt>
      <trkpt lat="37.27733552455902099609375" lon="-3.57062461785972118377685546875">
        <ele>1017.79998779296875</ele>
        <time>2022-11-13T17:06:56.000Z</time>
      </trkpt>
      <trkpt lat="37.2773222811520099639892578125" lon="-3.57062009163200855255126953125">
        <ele>1017.4000244140625</ele>
        <time>2022-11-13T17:06:57.000Z</time>
      </trkpt>
      <trkpt lat="37.2773098759353160858154296875" lon="-3.570612967014312744140625">
        <ele>1017.20001220703125</ele>
        <time>2022-11-13T17:06:58.000Z</time>
      </trkpt>
      <trkpt lat="37.2772746719419956207275390625" lon="-3.5705963708460330963134765625">
        <ele>1016.79998779296875</ele>
        <time>2022-11-13T17:07:00.000Z</time>
      </trkpt>
      <trkpt lat="37.2772357799112796783447265625" lon="-3.57057298533618450164794921875">
        <ele>1016.20001220703125</ele>
        <time>2022-11-13T17:07:03.000Z</time>
      </trkpt>
      <trkpt lat="37.2772000730037689208984375" lon="-3.57055865228176116943359375">
        <ele>1015.4000244140625</ele>
        <time>2022-11-13T17:07:06.000Z</time>
      </trkpt>
      <trkpt lat="37.27716394700109958648681640625" lon="-3.57050961814820766448974609375">
        <ele>1015.20001220703125</ele>
        <time>2022-11-13T17:07:09.000Z</time>
      </trkpt>
      <trkpt lat="37.2770954668521881103515625" lon="-3.570430576801300048828125">
        <ele>1014.5999755859375</ele>
        <time>2022-11-13T17:07:16.000Z</time>
      </trkpt>
      <trkpt lat="37.27704794146120548248291015625" lon="-3.570403754711151123046875">
        <ele>1014.20001220703125</ele>
        <time>2022-11-13T17:07:20.000Z</time>
      </trkpt>
      <trkpt lat="37.27703536860644817352294921875" lon="-3.57039378024637699127197265625">
        <ele>1014.20001220703125</ele>
        <time>2022-11-13T17:07:21.000Z</time>
      </trkpt>
      <trkpt lat="37.2770205326378345489501953125" lon="-3.57038162648677825927734375">
        <ele>1014</ele>
        <time>2022-11-13T17:07:22.000Z</time>
      </trkpt>
      <trkpt lat="37.27700636722147464752197265625" lon="-3.5703836381435394287109375">
        <ele>1013.79998779296875</ele>
        <time>2022-11-13T17:07:23.000Z</time>
      </trkpt>
      <trkpt lat="37.27699329145252704620361328125" lon="-3.57039847411215305328369140625">
        <ele>1013.5999755859375</ele>
        <time>2022-11-13T17:07:25.000Z</time>
      </trkpt>
      <trkpt lat="37.2769479453563690185546875" lon="-3.57041724957525730133056640625">
        <ele>1013</ele>
        <time>2022-11-13T17:07:29.000Z</time>
      </trkpt>
      <trkpt lat="37.276903353631496429443359375" lon="-3.5704213567078113555908203125">
        <ele>1012.79998779296875</ele>
        <time>2022-11-13T17:07:32.000Z</time>
      </trkpt>
      <trkpt lat="37.2768703289330005645751953125" lon="-3.57041741721332073211669921875">
        <ele>1012.79998779296875</ele>
        <time>2022-11-13T17:07:34.000Z</time>
      </trkpt>
      <trkpt lat="37.27684794925153255462646484375" lon="-3.57041180133819580078125">
        <ele>1012.4000244140625</ele>
        <time>2022-11-13T17:07:36.000Z</time>
      </trkpt>
      <trkpt lat="37.276786006987094879150390625" lon="-3.5703921876847743988037109375">
        <ele>1012</ele>
        <time>2022-11-13T17:07:40.000Z</time>
      </trkpt>
      <trkpt lat="37.2767053730785846710205078125" lon="-3.57038958929479122161865234375">
        <ele>1011.79998779296875</ele>
        <time>2022-11-13T17:07:46.000Z</time>
      </trkpt>
      <trkpt lat="37.2766544111073017120361328125" lon="-3.57041372917592525482177734375">
        <ele>1011.4000244140625</ele>
        <time>2022-11-13T17:07:50.000Z</time>
      </trkpt>
      <trkpt lat="37.27662079967558383941650390625" lon="-3.5704468376934528350830078125">
        <ele>1010.79998779296875</ele>
        <time>2022-11-13T17:07:54.000Z</time>
      </trkpt>
      <trkpt lat="37.2765590250492095947265625" lon="-3.5704304091632366180419921875">
        <ele>1010.4000244140625</ele>
        <time>2022-11-13T17:07:59.000Z</time>
      </trkpt>
      <trkpt lat="37.2764998488128185272216796875" lon="-3.57038506306707859039306640625">
        <ele>1010.4000244140625</ele>
        <time>2022-11-13T17:08:05.000Z</time>
      </trkpt>
      <trkpt lat="37.27646447718143463134765625" lon="-3.5703755915164947509765625">
        <ele>1010.4000244140625</ele>
        <time>2022-11-13T17:08:08.000Z</time>
      </trkpt>
      <trkpt lat="37.2764307819306850433349609375" lon="-3.57034885324537754058837890625">
        <ele>1010</ele>
        <time>2022-11-13T17:08:12.000Z</time>
      </trkpt>
      <trkpt lat="37.2763412632048130035400390625" lon="-3.57033443637192249298095703125">
        <ele>1009.5999755859375</ele>
        <time>2022-11-13T17:08:18.000Z</time>
      </trkpt>
      <trkpt lat="37.2762886248528957366943359375" lon="-3.570348434150218963623046875">
        <ele>1009</ele>
        <time>2022-11-13T17:08:22.000Z</time>
      </trkpt>
      <trkpt lat="37.27624814026057720184326171875" lon="-3.57036058790981769561767578125">
        <ele>1008.5999755859375</ele>
        <time>2022-11-13T17:08:25.000Z</time>
      </trkpt>
      <trkpt lat="37.2761808335781097412109375" lon="-3.57039679773151874542236328125">
        <ele>1008.4000244140625</ele>
        <time>2022-11-13T17:08:31.000Z</time>
      </trkpt>
      <trkpt lat="37.27617077529430389404296875" lon="-3.57041004113852977752685546875">
        <ele>1008.20001220703125</ele>
        <time>2022-11-13T17:08:32.000Z</time>
      </trkpt>
      <trkpt lat="37.27614437229931354522705078125" lon="-3.57043988071382045745849609375">
        <ele>1008</ele>
        <time>2022-11-13T17:08:34.000Z</time>
      </trkpt>
      <trkpt lat="37.27611570619046688079833984375" lon="-3.5704587399959564208984375">
        <ele>1007.79998779296875</ele>
        <time>2022-11-13T17:08:36.000Z</time>
      </trkpt>
      <trkpt lat="37.27608854882419109344482421875" lon="-3.57049017213284969329833984375">
        <ele>1007.79998779296875</ele>
        <time>2022-11-13T17:08:38.000Z</time>
      </trkpt>
      <trkpt lat="37.2760789096355438232421875" lon="-3.57049989514052867889404296875">
        <ele>1007.5999755859375</ele>
        <time>2022-11-13T17:08:39.000Z</time>
      </trkpt>
      <trkpt lat="37.276040352880954742431640625" lon="-3.57053040526807308197021484375">
        <ele>1007.20001220703125</ele>
        <time>2022-11-13T17:08:43.000Z</time>
      </trkpt>
      <trkpt lat="37.2759999521076679229736328125" lon="-3.570554964244365692138671875">
        <ele>1007</ele>
        <time>2022-11-13T17:08:47.000Z</time>
      </trkpt>
      <trkpt lat="37.27595929987728595733642578125" lon="-3.5705802775919437408447265625">
        <ele>1006.5999755859375</ele>
        <time>2022-11-13T17:08:50.000Z</time>
      </trkpt>
      <trkpt lat="37.27594521827995777130126953125" lon="-3.57058723457157611846923828125">
        <ele>1006.5999755859375</ele>
        <time>2022-11-13T17:08:51.000Z</time>
      </trkpt>
      <trkpt lat="37.27590280584990978240966796875" lon="-3.570657558739185333251953125">
        <ele>1006</ele>
        <time>2022-11-13T17:08:57.000Z</time>
      </trkpt>
      <trkpt lat="37.27589987218379974365234375" lon="-3.57067457400262355804443359375">
        <ele>1006</ele>
        <time>2022-11-13T17:08:58.000Z</time>
      </trkpt>
      <trkpt lat="37.27589056827127933502197265625" lon="-3.57073794119060039520263671875">
        <ele>1005.4000244140625</ele>
        <time>2022-11-13T17:09:01.000Z</time>
      </trkpt>
      <trkpt lat="37.27585955522954463958740234375" lon="-3.57080399058759212493896484375">
        <ele>1004</ele>
        <time>2022-11-13T17:09:06.000Z</time>
      </trkpt>
      <trkpt lat="37.275852598249912261962890625" lon="-3.57081471942365169525146484375">
        <ele>1003.79998779296875</ele>
        <time>2022-11-13T17:09:07.000Z</time>
      </trkpt>
      <trkpt lat="37.27583373896777629852294921875" lon="-3.57086232863366603851318359375">
        <ele>1003</ele>
        <time>2022-11-13T17:09:11.000Z</time>
      </trkpt>
      <trkpt lat="37.27579266764223575592041015625" lon="-3.570921421051025390625">
        <ele>1001.79998779296875</ele>
        <time>2022-11-13T17:09:15.000Z</time>
      </trkpt>
      <trkpt lat="37.2757602296769618988037109375" lon="-3.570971377193927764892578125">
        <ele>1000.79998779296875</ele>
        <time>2022-11-13T17:09:19.000Z</time>
      </trkpt>
      <trkpt lat="37.275728881359100341796875" lon="-3.5710188187658786773681640625">
        <ele>999.5999755859375</ele>
        <time>2022-11-13T17:09:23.000Z</time>
      </trkpt>
      <trkpt lat="37.27572150528430938720703125" lon="-3.57103264890611171722412109375">
        <ele>999.5999755859375</ele>
        <time>2022-11-13T17:09:24.000Z</time>
      </trkpt>
      <trkpt lat="37.27571077644824981689453125" lon="-3.57104279100894927978515625">
        <ele>999.20001220703125</ele>
        <time>2022-11-13T17:09:25.000Z</time>
      </trkpt>
      <trkpt lat="37.2756968624889850616455078125" lon="-3.5710649192333221435546875">
        <ele>999</ele>
        <time>2022-11-13T17:09:27.000Z</time>
      </trkpt>
      <trkpt lat="37.27568755857646465301513671875" lon="-3.5710741393268108367919921875">
        <ele>998.79998779296875</ele>
        <time>2022-11-13T17:09:28.000Z</time>
      </trkpt>
      <trkpt lat="37.27567934431135654449462890625" lon="-3.5710855387151241302490234375">
        <ele>998.5999755859375</ele>
        <time>2022-11-13T17:09:29.000Z</time>
      </trkpt>
      <trkpt lat="37.27567364461719989776611328125" lon="-3.571101129055023193359375">
        <ele>998.4000244140625</ele>
        <time>2022-11-13T17:09:30.000Z</time>
      </trkpt>
      <trkpt lat="37.27564908564090728759765625" lon="-3.5711660049855709075927734375">
        <ele>997.79998779296875</ele>
        <time>2022-11-13T17:09:33.000Z</time>
      </trkpt>
      <trkpt lat="37.2756328247487545013427734375" lon="-3.57118687592446804046630859375">
        <ele>997.5999755859375</ele>
        <time>2022-11-13T17:09:34.000Z</time>
      </trkpt>
      <trkpt lat="37.27562033571302890777587890625" lon="-3.57119374908506870269775390625">
        <ele>997.5999755859375</ele>
        <time>2022-11-13T17:09:35.000Z</time>
      </trkpt>
      <trkpt lat="37.27558865211904048919677734375" lon="-3.57119944877922534942626953125">
        <ele>997.4000244140625</ele>
        <time>2022-11-13T17:09:37.000Z</time>
      </trkpt>
      <trkpt lat="37.27556518279016017913818359375" lon="-3.57120229862630367279052734375">
        <ele>997.20001220703125</ele>
        <time>2022-11-13T17:09:38.000Z</time>
      </trkpt>
      <trkpt lat="37.2755258716642856597900390625" lon="-3.57122777961194515228271484375">
        <ele>996.5999755859375</ele>
        <time>2022-11-13T17:09:42.000Z</time>
      </trkpt>
      <trkpt lat="37.275520004332065582275390625" lon="-3.57123993337154388427734375">
        <ele>996.4000244140625</ele>
        <time>2022-11-13T17:09:43.000Z</time>
      </trkpt>
      <trkpt lat="37.27551405318081378936767578125" lon="-3.57126080431044101715087890625">
        <ele>996.4000244140625</ele>
        <time>2022-11-13T17:09:44.000Z</time>
      </trkpt>
      <trkpt lat="37.27549578063189983367919921875" lon="-3.57132970355451107025146484375">
        <ele>995.5999755859375</ele>
        <time>2022-11-13T17:09:48.000Z</time>
      </trkpt>
      <trkpt lat="37.27547985501587390899658203125" lon="-3.571353591978549957275390625">
        <ele>995.4000244140625</ele>
        <time>2022-11-13T17:09:50.000Z</time>
      </trkpt>
      <trkpt lat="37.275439538061618804931640625" lon="-3.5714147798717021942138671875">
        <ele>994.79998779296875</ele>
        <time>2022-11-13T17:09:55.000Z</time>
      </trkpt>
      <trkpt lat="37.27543442510068416595458984375" lon="-3.57142902910709381103515625">
        <ele>994.79998779296875</ele>
        <time>2022-11-13T17:09:56.000Z</time>
      </trkpt>
      <trkpt lat="37.27542956359684467315673828125" lon="-3.5714436136186122894287109375">
        <ele>994.5999755859375</ele>
        <time>2022-11-13T17:09:57.000Z</time>
      </trkpt>
      <trkpt lat="37.2754256241023540496826171875" lon="-3.57146783731877803802490234375">
        <ele>994.20001220703125</ele>
        <time>2022-11-13T17:09:59.000Z</time>
      </trkpt>
      <trkpt lat="37.27542470209300518035888671875" lon="-3.57150136493146419525146484375">
        <ele>994</ele>
        <time>2022-11-13T17:10:01.000Z</time>
      </trkpt>
      <trkpt lat="37.2754271328449249267578125" lon="-3.57157110236585140228271484375">
        <ele>993.4000244140625</ele>
        <time>2022-11-13T17:10:04.000Z</time>
      </trkpt>
      <trkpt lat="37.2754226066172122955322265625" lon="-3.57160563580691814422607421875">
        <ele>993.20001220703125</ele>
        <time>2022-11-13T17:10:06.000Z</time>
      </trkpt>
      <trkpt lat="37.2754135541617870330810546875" lon="-3.5716498084366321563720703125">
        <ele>992.4000244140625</ele>
        <time>2022-11-13T17:10:10.000Z</time>
      </trkpt>
      <trkpt lat="37.27541179396212100982666015625" lon="-3.5716545023024082183837890625">
        <ele>992.20001220703125</ele>
        <time>2022-11-13T17:10:11.000Z</time>
      </trkpt>
      <trkpt lat="37.275407016277313232421875" lon="-3.57166883535683155059814453125">
        <ele>992.20001220703125</ele>
        <time>2022-11-13T17:10:13.000Z</time>
      </trkpt>
      <trkpt lat="37.27540005929768085479736328125" lon="-3.5717000998556613922119140625">
        <ele>992</ele>
        <time>2022-11-13T17:10:15.000Z</time>
      </trkpt>
      <trkpt lat="37.27538681589066982269287109375" lon="-3.57172633521258831024169921875">
        <ele>991.79998779296875</ele>
        <time>2022-11-13T17:10:17.000Z</time>
      </trkpt>
      <trkpt lat="37.275384552776813507080078125" lon="-3.57175114564597606658935546875">
        <ele>991.4000244140625</ele>
        <time>2022-11-13T17:10:19.000Z</time>
      </trkpt>
      <trkpt lat="37.27538731880486011505126953125" lon="-3.57176338322460651397705078125">
        <ele>991</ele>
        <time>2022-11-13T17:10:20.000Z</time>
      </trkpt>
      <trkpt lat="37.2753843851387500762939453125" lon="-3.57178098522126674652099609375">
        <ele>991</ele>
        <time>2022-11-13T17:10:22.000Z</time>
      </trkpt>
      <trkpt lat="37.27538312785327434539794921875" lon="-3.5717809014022350311279296875">
        <ele>991</ele>
        <time>2022-11-13T17:10:23.000Z</time>
      </trkpt>
      <trkpt lat="37.2753713093698024749755859375" lon="-3.57179691083729267120361328125">
        <ele>991</ele>
        <time>2022-11-13T17:10:26.000Z</time>
      </trkpt>
      <trkpt lat="37.2753734886646270751953125" lon="-3.57181015424430370330810546875">
        <ele>991</ele>
        <time>2022-11-13T17:10:27.000Z</time>
      </trkpt>
      <trkpt lat="37.27536904625594615936279296875" lon="-3.57182842679321765899658203125">
        <ele>991</ele>
        <time>2022-11-13T17:10:29.000Z</time>
      </trkpt>
      <trkpt lat="37.2753595747053623199462890625" lon="-3.5718333721160888671875">
        <ele>991</ele>
        <time>2022-11-13T17:10:31.000Z</time>
      </trkpt>
      <trkpt lat="37.27534758858382701873779296875" lon="-3.5718429274857044219970703125">
        <ele>991</ele>
        <time>2022-11-13T17:10:33.000Z</time>
      </trkpt>
      <trkpt lat="37.275331579148769378662109375" lon="-3.571916520595550537109375">
        <ele>990.5999755859375</ele>
        <time>2022-11-13T17:10:42.000Z</time>
      </trkpt>
      <trkpt lat="37.27530970238149166107177734375" lon="-3.571914173662662506103515625">
        <ele>991</ele>
        <time>2022-11-13T17:10:47.000Z</time>
      </trkpt>
    </trkseg>
  </trk>
</gpx>
